<?xml version="1.0" encoding="UTF-8" standalone="no" ?>
<gpx xmlns="http://www.topografix.com/GPX/1/1" xmlns:xsi="http://www.w3.org/2001/XMLSchema-instance" xsi:schemaLocation="http://www.topografix.com/GPX/1/1 http://www.topografix.com/GPX/1/1/gpx.xsd" version="1.1" creator="VisuGPX - https://www.visugpx.com">
  <metadata>
    <name>Fouesnant 54 kilomètres</name>
    <desc><![CDATA[Un magnifique matinée de vélo aujourd'hui avec un grand soleil. Une sortie du côté de Fouesnant choisie pour son faible dénivelé. En effet avec mon dérailleur avant cassé, je fais toute la sortie sur le grand plateau et ça passe nickel.
Un tour que j'apprécie particulièrement.
André]]></desc>
  </metadata>
  <trk>
    <name><![CDATA[Sortie Gravel Fouesnant 54 kilomètres _1]]></name>
    <extensions>
      <line xmlns="http://www.topografix.com/GPX/gpx_style/0/2">
        <color>0000FF</color>
        <width>4</width>
      </line>
    </extensions>
    <trkseg>
      <trkpt lat="47.90805" lon="-3.98175">
        <ele>25.2</ele>
        <time>2022-11-12T08:47:10Z</time>
      </trkpt>
      <trkpt lat="47.90806" lon="-3.98176">
        <ele>25.2</ele>
        <time>2022-11-12T08:47:11Z</time>
      </trkpt>
      <trkpt lat="47.90807" lon="-3.98177">
        <ele>25.2</ele>
        <time>2022-11-12T08:47:12Z</time>
      </trkpt>
      <trkpt lat="47.90807" lon="-3.98178">
        <ele>25.2</ele>
        <time>2022-11-12T08:47:13Z</time>
      </trkpt>
      <trkpt lat="47.90808" lon="-3.98179">
        <ele>25.2</ele>
        <time>2022-11-12T08:47:14Z</time>
      </trkpt>
      <trkpt lat="47.90808" lon="-3.9818">
        <ele>25.2</ele>
        <time>2022-11-12T08:47:15Z</time>
      </trkpt>
      <trkpt lat="47.90808" lon="-3.98183">
        <ele>25.2</ele>
        <time>2022-11-12T08:47:16Z</time>
      </trkpt>
      <trkpt lat="47.90808" lon="-3.98185">
        <ele>25.2</ele>
        <time>2022-11-12T08:47:17Z</time>
      </trkpt>
      <trkpt lat="47.90808" lon="-3.98189">
        <ele>25.3</ele>
        <time>2022-11-12T08:47:18Z</time>
      </trkpt>
      <trkpt lat="47.90808" lon="-3.98191">
        <ele>25.3</ele>
        <time>2022-11-12T08:47:19Z</time>
      </trkpt>
      <trkpt lat="47.90808" lon="-3.98195">
        <ele>25.3</ele>
        <time>2022-11-12T08:47:20Z</time>
      </trkpt>
      <trkpt lat="47.9081" lon="-3.98201">
        <ele>25.3</ele>
        <time>2022-11-12T08:47:21Z</time>
      </trkpt>
      <trkpt lat="47.90811" lon="-3.98203">
        <ele>25.3</ele>
        <time>2022-11-12T08:47:22Z</time>
      </trkpt>
      <trkpt lat="47.90812" lon="-3.98211">
        <ele>25.4</ele>
        <time>2022-11-12T08:47:23Z</time>
      </trkpt>
      <trkpt lat="47.90812" lon="-3.98214">
        <ele>25.4</ele>
        <time>2022-11-12T08:47:24Z</time>
      </trkpt>
      <trkpt lat="47.90812" lon="-3.98221">
        <ele>25.4</ele>
        <time>2022-11-12T08:47:26Z</time>
      </trkpt>
      <trkpt lat="47.90812" lon="-3.98227">
        <ele>25.4</ele>
        <time>2022-11-12T08:47:27Z</time>
      </trkpt>
      <trkpt lat="47.9081" lon="-3.98241">
        <ele>25.4</ele>
        <time>2022-11-12T08:47:28Z</time>
      </trkpt>
      <trkpt lat="47.90809" lon="-3.98249">
        <ele>25.4</ele>
        <time>2022-11-12T08:47:29Z</time>
      </trkpt>
      <trkpt lat="47.90808" lon="-3.98257">
        <ele>25.4</ele>
        <time>2022-11-12T08:47:30Z</time>
      </trkpt>
      <trkpt lat="47.90807" lon="-3.98266">
        <ele>25.4</ele>
        <time>2022-11-12T08:47:31Z</time>
      </trkpt>
      <trkpt lat="47.90807" lon="-3.98275">
        <ele>25.4</ele>
        <time>2022-11-12T08:47:32Z</time>
      </trkpt>
      <trkpt lat="47.90807" lon="-3.98285">
        <ele>25.3</ele>
        <time>2022-11-12T08:47:33Z</time>
      </trkpt>
      <trkpt lat="47.90808" lon="-3.98295">
        <ele>25.3</ele>
        <time>2022-11-12T08:47:34Z</time>
      </trkpt>
      <trkpt lat="47.90809" lon="-3.98306">
        <ele>25.3</ele>
        <time>2022-11-12T08:47:35Z</time>
      </trkpt>
      <trkpt lat="47.9081" lon="-3.98316">
        <ele>25.2</ele>
        <time>2022-11-12T08:47:36Z</time>
      </trkpt>
      <trkpt lat="47.9081" lon="-3.98326">
        <ele>25.2</ele>
        <time>2022-11-12T08:47:37Z</time>
      </trkpt>
      <trkpt lat="47.90811" lon="-3.98336">
        <ele>25.2</ele>
        <time>2022-11-12T08:47:38Z</time>
      </trkpt>
      <trkpt lat="47.90811" lon="-3.98347">
        <ele>25.1</ele>
        <time>2022-11-12T08:47:39Z</time>
      </trkpt>
      <trkpt lat="47.90812" lon="-3.98356">
        <ele>25.1</ele>
        <time>2022-11-12T08:47:40Z</time>
      </trkpt>
      <trkpt lat="47.90813" lon="-3.98366">
        <ele>25.1</ele>
        <time>2022-11-12T08:47:41Z</time>
      </trkpt>
      <trkpt lat="47.90813" lon="-3.98375">
        <ele>25.3</ele>
        <time>2022-11-12T08:47:42Z</time>
      </trkpt>
      <trkpt lat="47.90813" lon="-3.98383">
        <ele>25.5</ele>
        <time>2022-11-12T08:47:43Z</time>
      </trkpt>
      <trkpt lat="47.90813" lon="-3.98392">
        <ele>25.8</ele>
        <time>2022-11-12T08:47:44Z</time>
      </trkpt>
      <trkpt lat="47.90813" lon="-3.98401">
        <ele>26</ele>
        <time>2022-11-12T08:47:45Z</time>
      </trkpt>
      <trkpt lat="47.90812" lon="-3.9841">
        <ele>26.3</ele>
        <time>2022-11-12T08:47:46Z</time>
      </trkpt>
      <trkpt lat="47.90811" lon="-3.98418">
        <ele>26.5</ele>
        <time>2022-11-12T08:47:47Z</time>
      </trkpt>
      <trkpt lat="47.9081" lon="-3.98426">
        <ele>26.8</ele>
        <time>2022-11-12T08:47:48Z</time>
      </trkpt>
      <trkpt lat="47.90809" lon="-3.98434">
        <ele>27</ele>
        <time>2022-11-12T08:47:49Z</time>
      </trkpt>
      <trkpt lat="47.90808" lon="-3.98441">
        <ele>27.3</ele>
        <time>2022-11-12T08:47:50Z</time>
      </trkpt>
      <trkpt lat="47.90806" lon="-3.98448">
        <ele>27.6</ele>
        <time>2022-11-12T08:47:51Z</time>
      </trkpt>
      <trkpt lat="47.90804" lon="-3.98455">
        <ele>27.8</ele>
        <time>2022-11-12T08:47:52Z</time>
      </trkpt>
      <trkpt lat="47.90803" lon="-3.98462">
        <ele>28</ele>
        <time>2022-11-12T08:47:53Z</time>
      </trkpt>
      <trkpt lat="47.90801" lon="-3.98469">
        <ele>28.2</ele>
        <time>2022-11-12T08:47:54Z</time>
      </trkpt>
      <trkpt lat="47.90799" lon="-3.98476">
        <ele>28.4</ele>
        <time>2022-11-12T08:47:55Z</time>
      </trkpt>
      <trkpt lat="47.90797" lon="-3.98482">
        <ele>28.6</ele>
        <time>2022-11-12T08:47:56Z</time>
      </trkpt>
      <trkpt lat="47.90795" lon="-3.98488">
        <ele>28.9</ele>
        <time>2022-11-12T08:47:57Z</time>
      </trkpt>
      <trkpt lat="47.90793" lon="-3.98495">
        <ele>29.2</ele>
        <time>2022-11-12T08:47:58Z</time>
      </trkpt>
      <trkpt lat="47.9079" lon="-3.98501">
        <ele>29.5</ele>
        <time>2022-11-12T08:47:59Z</time>
      </trkpt>
      <trkpt lat="47.90788" lon="-3.98507">
        <ele>29.9</ele>
        <time>2022-11-12T08:48:00Z</time>
      </trkpt>
      <trkpt lat="47.90786" lon="-3.98513">
        <ele>30.2</ele>
        <time>2022-11-12T08:48:01Z</time>
      </trkpt>
      <trkpt lat="47.90783" lon="-3.98519">
        <ele>30.5</ele>
        <time>2022-11-12T08:48:02Z</time>
      </trkpt>
      <trkpt lat="47.90781" lon="-3.98525">
        <ele>30.8</ele>
        <time>2022-11-12T08:48:03Z</time>
      </trkpt>
      <trkpt lat="47.90779" lon="-3.98531">
        <ele>31.2</ele>
        <time>2022-11-12T08:48:04Z</time>
      </trkpt>
      <trkpt lat="47.90777" lon="-3.98537">
        <ele>31.5</ele>
        <time>2022-11-12T08:48:05Z</time>
      </trkpt>
      <trkpt lat="47.90775" lon="-3.98543">
        <ele>31.8</ele>
        <time>2022-11-12T08:48:06Z</time>
      </trkpt>
      <trkpt lat="47.90772" lon="-3.98549">
        <ele>32.2</ele>
        <time>2022-11-12T08:48:07Z</time>
      </trkpt>
      <trkpt lat="47.9077" lon="-3.98555">
        <ele>32.5</ele>
        <time>2022-11-12T08:48:08Z</time>
      </trkpt>
      <trkpt lat="47.90768" lon="-3.98561">
        <ele>32.8</ele>
        <time>2022-11-12T08:48:09Z</time>
      </trkpt>
      <trkpt lat="47.90766" lon="-3.98567">
        <ele>33.1</ele>
        <time>2022-11-12T08:48:10Z</time>
      </trkpt>
      <trkpt lat="47.90765" lon="-3.98571">
        <ele>33.3</ele>
        <time>2022-11-12T08:48:11Z</time>
      </trkpt>
      <trkpt lat="47.90763" lon="-3.98578">
        <ele>33.7</ele>
        <time>2022-11-12T08:48:12Z</time>
      </trkpt>
      <trkpt lat="47.90761" lon="-3.98584">
        <ele>33.9</ele>
        <time>2022-11-12T08:48:13Z</time>
      </trkpt>
      <trkpt lat="47.90759" lon="-3.98591">
        <ele>34.2</ele>
        <time>2022-11-12T08:48:14Z</time>
      </trkpt>
      <trkpt lat="47.90757" lon="-3.98598">
        <ele>34.5</ele>
        <time>2022-11-12T08:48:15Z</time>
      </trkpt>
      <trkpt lat="47.90756" lon="-3.98604">
        <ele>34.8</ele>
        <time>2022-11-12T08:48:16Z</time>
      </trkpt>
      <trkpt lat="47.90754" lon="-3.9861">
        <ele>35</ele>
        <time>2022-11-12T08:48:17Z</time>
      </trkpt>
      <trkpt lat="47.90753" lon="-3.98616">
        <ele>35.3</ele>
        <time>2022-11-12T08:48:18Z</time>
      </trkpt>
      <trkpt lat="47.90751" lon="-3.9862">
        <ele>35.5</ele>
        <time>2022-11-12T08:48:19Z</time>
      </trkpt>
      <trkpt lat="47.90749" lon="-3.98622">
        <ele>35.6</ele>
        <time>2022-11-12T08:48:20Z</time>
      </trkpt>
      <trkpt lat="47.90746" lon="-3.98638">
        <ele>36.2</ele>
        <time>2022-11-12T08:48:22Z</time>
      </trkpt>
      <trkpt lat="47.90745" lon="-3.98647">
        <ele>36.4</ele>
        <time>2022-11-12T08:48:23Z</time>
      </trkpt>
      <trkpt lat="47.90743" lon="-3.98654">
        <ele>36.5</ele>
        <time>2022-11-12T08:48:24Z</time>
      </trkpt>
      <trkpt lat="47.90741" lon="-3.98661">
        <ele>36.6</ele>
        <time>2022-11-12T08:48:25Z</time>
      </trkpt>
      <trkpt lat="47.90739" lon="-3.98667">
        <ele>36.7</ele>
        <time>2022-11-12T08:48:26Z</time>
      </trkpt>
      <trkpt lat="47.90737" lon="-3.98674">
        <ele>36.8</ele>
        <time>2022-11-12T08:48:27Z</time>
      </trkpt>
      <trkpt lat="47.90735" lon="-3.98681">
        <ele>36.8</ele>
        <time>2022-11-12T08:48:28Z</time>
      </trkpt>
      <trkpt lat="47.90732" lon="-3.98688">
        <ele>36.8</ele>
        <time>2022-11-12T08:48:29Z</time>
      </trkpt>
      <trkpt lat="47.9073" lon="-3.98696">
        <ele>36.8</ele>
        <time>2022-11-12T08:48:30Z</time>
      </trkpt>
      <trkpt lat="47.90728" lon="-3.98703">
        <ele>36.8</ele>
        <time>2022-11-12T08:48:31Z</time>
      </trkpt>
      <trkpt lat="47.90726" lon="-3.9871">
        <ele>36.7</ele>
        <time>2022-11-12T08:48:32Z</time>
      </trkpt>
      <trkpt lat="47.90723" lon="-3.98718">
        <ele>36.6</ele>
        <time>2022-11-12T08:48:33Z</time>
      </trkpt>
      <trkpt lat="47.90721" lon="-3.98726">
        <ele>36.5</ele>
        <time>2022-11-12T08:48:34Z</time>
      </trkpt>
      <trkpt lat="47.90718" lon="-3.98733">
        <ele>36.4</ele>
        <time>2022-11-12T08:48:35Z</time>
      </trkpt>
      <trkpt lat="47.90715" lon="-3.98741">
        <ele>36.3</ele>
        <time>2022-11-12T08:48:36Z</time>
      </trkpt>
      <trkpt lat="47.90712" lon="-3.98749">
        <ele>36.2</ele>
        <time>2022-11-12T08:48:37Z</time>
      </trkpt>
      <trkpt lat="47.90709" lon="-3.98758">
        <ele>36</ele>
        <time>2022-11-12T08:48:38Z</time>
      </trkpt>
      <trkpt lat="47.90706" lon="-3.98766">
        <ele>35.9</ele>
        <time>2022-11-12T08:48:39Z</time>
      </trkpt>
      <trkpt lat="47.90703" lon="-3.98775">
        <ele>35.7</ele>
        <time>2022-11-12T08:48:40Z</time>
      </trkpt>
      <trkpt lat="47.907" lon="-3.98784">
        <ele>35.5</ele>
        <time>2022-11-12T08:48:41Z</time>
      </trkpt>
      <trkpt lat="47.90697" lon="-3.98793">
        <ele>35.4</ele>
        <time>2022-11-12T08:48:42Z</time>
      </trkpt>
      <trkpt lat="47.90694" lon="-3.98803">
        <ele>35.2</ele>
        <time>2022-11-12T08:48:43Z</time>
      </trkpt>
      <trkpt lat="47.90691" lon="-3.98813">
        <ele>35</ele>
        <time>2022-11-12T08:48:44Z</time>
      </trkpt>
      <trkpt lat="47.90688" lon="-3.98822">
        <ele>34.8</ele>
        <time>2022-11-12T08:48:45Z</time>
      </trkpt>
      <trkpt lat="47.90685" lon="-3.98832">
        <ele>34.6</ele>
        <time>2022-11-12T08:48:46Z</time>
      </trkpt>
      <trkpt lat="47.90682" lon="-3.98842">
        <ele>34.5</ele>
        <time>2022-11-12T08:48:47Z</time>
      </trkpt>
      <trkpt lat="47.90679" lon="-3.98851">
        <ele>34.3</ele>
        <time>2022-11-12T08:48:48Z</time>
      </trkpt>
      <trkpt lat="47.90676" lon="-3.98861">
        <ele>34.1</ele>
        <time>2022-11-12T08:48:49Z</time>
      </trkpt>
      <trkpt lat="47.90673" lon="-3.98872">
        <ele>33.9</ele>
        <time>2022-11-12T08:48:50Z</time>
      </trkpt>
      <trkpt lat="47.90671" lon="-3.98883">
        <ele>33.7</ele>
        <time>2022-11-12T08:48:51Z</time>
      </trkpt>
      <trkpt lat="47.90669" lon="-3.98894">
        <ele>33.6</ele>
        <time>2022-11-12T08:48:52Z</time>
      </trkpt>
      <trkpt lat="47.90666" lon="-3.98906">
        <ele>33.4</ele>
        <time>2022-11-12T08:48:53Z</time>
      </trkpt>
      <trkpt lat="47.90665" lon="-3.98918">
        <ele>33.2</ele>
        <time>2022-11-12T08:48:54Z</time>
      </trkpt>
      <trkpt lat="47.90663" lon="-3.9893">
        <ele>33</ele>
        <time>2022-11-12T08:48:55Z</time>
      </trkpt>
      <trkpt lat="47.90663" lon="-3.98942">
        <ele>32.8</ele>
        <time>2022-11-12T08:48:56Z</time>
      </trkpt>
      <trkpt lat="47.90664" lon="-3.98954">
        <ele>32.7</ele>
        <time>2022-11-12T08:48:57Z</time>
      </trkpt>
      <trkpt lat="47.90667" lon="-3.98966">
        <ele>32.5</ele>
        <time>2022-11-12T08:48:58Z</time>
      </trkpt>
      <trkpt lat="47.90669" lon="-3.98976">
        <ele>32.3</ele>
        <time>2022-11-12T08:48:59Z</time>
      </trkpt>
      <trkpt lat="47.90669" lon="-3.98986">
        <ele>32.1</ele>
        <time>2022-11-12T08:49:00Z</time>
      </trkpt>
      <trkpt lat="47.90666" lon="-3.98994">
        <ele>31.6</ele>
        <time>2022-11-12T08:49:01Z</time>
      </trkpt>
      <trkpt lat="47.9066" lon="-3.98998">
        <ele>31.1</ele>
        <time>2022-11-12T08:49:02Z</time>
      </trkpt>
      <trkpt lat="47.90653" lon="-3.98996">
        <ele>30.6</ele>
        <time>2022-11-12T08:49:03Z</time>
      </trkpt>
      <trkpt lat="47.90647" lon="-3.98992">
        <ele>30.5</ele>
        <time>2022-11-12T08:49:04Z</time>
      </trkpt>
      <trkpt lat="47.90642" lon="-3.98991">
        <ele>30.3</ele>
        <time>2022-11-12T08:49:05Z</time>
      </trkpt>
      <trkpt lat="47.90637" lon="-3.98995">
        <ele>30.1</ele>
        <time>2022-11-12T08:49:06Z</time>
      </trkpt>
      <trkpt lat="47.90634" lon="-3.99003">
        <ele>29.7</ele>
        <time>2022-11-12T08:49:07Z</time>
      </trkpt>
      <trkpt lat="47.90631" lon="-3.99011">
        <ele>29.4</ele>
        <time>2022-11-12T08:49:08Z</time>
      </trkpt>
      <trkpt lat="47.90627" lon="-3.99018">
        <ele>29.1</ele>
        <time>2022-11-12T08:49:09Z</time>
      </trkpt>
      <trkpt lat="47.90622" lon="-3.99023">
        <ele>28.7</ele>
        <time>2022-11-12T08:49:10Z</time>
      </trkpt>
      <trkpt lat="47.90616" lon="-3.99029">
        <ele>28.3</ele>
        <time>2022-11-12T08:49:11Z</time>
      </trkpt>
      <trkpt lat="47.90609" lon="-3.99033">
        <ele>27.8</ele>
        <time>2022-11-12T08:49:12Z</time>
      </trkpt>
      <trkpt lat="47.90602" lon="-3.99038">
        <ele>27.3</ele>
        <time>2022-11-12T08:49:13Z</time>
      </trkpt>
      <trkpt lat="47.90595" lon="-3.99042">
        <ele>26.8</ele>
        <time>2022-11-12T08:49:14Z</time>
      </trkpt>
      <trkpt lat="47.90587" lon="-3.99046">
        <ele>26.2</ele>
        <time>2022-11-12T08:49:15Z</time>
      </trkpt>
      <trkpt lat="47.9058" lon="-3.99051">
        <ele>25.7</ele>
        <time>2022-11-12T08:49:16Z</time>
      </trkpt>
      <trkpt lat="47.90572" lon="-3.99058">
        <ele>25.1</ele>
        <time>2022-11-12T08:49:17Z</time>
      </trkpt>
      <trkpt lat="47.90566" lon="-3.99066">
        <ele>24.6</ele>
        <time>2022-11-12T08:49:18Z</time>
      </trkpt>
      <trkpt lat="47.90558" lon="-3.99074">
        <ele>24</ele>
        <time>2022-11-12T08:49:19Z</time>
      </trkpt>
      <trkpt lat="47.90552" lon="-3.99082">
        <ele>23.5</ele>
        <time>2022-11-12T08:49:20Z</time>
      </trkpt>
      <trkpt lat="47.90544" lon="-3.9909">
        <ele>22.8</ele>
        <time>2022-11-12T08:49:21Z</time>
      </trkpt>
      <trkpt lat="47.90537" lon="-3.99097">
        <ele>22.2</ele>
        <time>2022-11-12T08:49:22Z</time>
      </trkpt>
      <trkpt lat="47.9053" lon="-3.99102">
        <ele>21.5</ele>
        <time>2022-11-12T08:49:23Z</time>
      </trkpt>
      <trkpt lat="47.90525" lon="-3.99106">
        <ele>21</ele>
        <time>2022-11-12T08:49:24Z</time>
      </trkpt>
      <trkpt lat="47.90521" lon="-3.9911">
        <ele>20.5</ele>
        <time>2022-11-12T08:49:25Z</time>
      </trkpt>
      <trkpt lat="47.90517" lon="-3.99118">
        <ele>19.8</ele>
        <time>2022-11-12T08:49:26Z</time>
      </trkpt>
      <trkpt lat="47.90514" lon="-3.99128">
        <ele>19.4</ele>
        <time>2022-11-12T08:49:27Z</time>
      </trkpt>
      <trkpt lat="47.90512" lon="-3.99139">
        <ele>19</ele>
        <time>2022-11-12T08:49:28Z</time>
      </trkpt>
      <trkpt lat="47.90509" lon="-3.9915">
        <ele>18.5</ele>
        <time>2022-11-12T08:49:29Z</time>
      </trkpt>
      <trkpt lat="47.90507" lon="-3.99162">
        <ele>18.1</ele>
        <time>2022-11-12T08:49:30Z</time>
      </trkpt>
      <trkpt lat="47.90504" lon="-3.99174">
        <ele>17.8</ele>
        <time>2022-11-12T08:49:31Z</time>
      </trkpt>
      <trkpt lat="47.90501" lon="-3.99185">
        <ele>17.4</ele>
        <time>2022-11-12T08:49:32Z</time>
      </trkpt>
      <trkpt lat="47.90498" lon="-3.99198">
        <ele>17</ele>
        <time>2022-11-12T08:49:33Z</time>
      </trkpt>
      <trkpt lat="47.90494" lon="-3.99209">
        <ele>16.6</ele>
        <time>2022-11-12T08:49:34Z</time>
      </trkpt>
      <trkpt lat="47.90489" lon="-3.99219">
        <ele>16.3</ele>
        <time>2022-11-12T08:49:35Z</time>
      </trkpt>
      <trkpt lat="47.90484" lon="-3.99229">
        <ele>15.9</ele>
        <time>2022-11-12T08:49:36Z</time>
      </trkpt>
      <trkpt lat="47.90479" lon="-3.99239">
        <ele>15.6</ele>
        <time>2022-11-12T08:49:37Z</time>
      </trkpt>
      <trkpt lat="47.90472" lon="-3.99246">
        <ele>15.3</ele>
        <time>2022-11-12T08:49:38Z</time>
      </trkpt>
      <trkpt lat="47.90466" lon="-3.99253">
        <ele>15</ele>
        <time>2022-11-12T08:49:39Z</time>
      </trkpt>
      <trkpt lat="47.90461" lon="-3.99257">
        <ele>14.7</ele>
        <time>2022-11-12T08:49:40Z</time>
      </trkpt>
      <trkpt lat="47.90457" lon="-3.99261">
        <ele>14.6</ele>
        <time>2022-11-12T08:49:41Z</time>
      </trkpt>
      <trkpt lat="47.90453" lon="-3.99264">
        <ele>14.4</ele>
        <time>2022-11-12T08:49:42Z</time>
      </trkpt>
      <trkpt lat="47.90449" lon="-3.99266">
        <ele>14</ele>
        <time>2022-11-12T08:49:43Z</time>
      </trkpt>
      <trkpt lat="47.90446" lon="-3.99262">
        <ele>13.9</ele>
        <time>2022-11-12T08:49:44Z</time>
      </trkpt>
      <trkpt lat="47.90445" lon="-3.9926">
        <ele>13.9</ele>
        <time>2022-11-12T08:49:45Z</time>
      </trkpt>
      <trkpt lat="47.90443" lon="-3.99255">
        <ele>13.8</ele>
        <time>2022-11-12T08:49:46Z</time>
      </trkpt>
      <trkpt lat="47.90443" lon="-3.99249">
        <ele>13.7</ele>
        <time>2022-11-12T08:49:47Z</time>
      </trkpt>
      <trkpt lat="47.90442" lon="-3.99241">
        <ele>13.5</ele>
        <time>2022-11-12T08:49:48Z</time>
      </trkpt>
      <trkpt lat="47.90442" lon="-3.99233">
        <ele>13.4</ele>
        <time>2022-11-12T08:49:49Z</time>
      </trkpt>
      <trkpt lat="47.90441" lon="-3.99225">
        <ele>13.2</ele>
        <time>2022-11-12T08:49:50Z</time>
      </trkpt>
      <trkpt lat="47.90438" lon="-3.99219">
        <ele>13.1</ele>
        <time>2022-11-12T08:49:51Z</time>
      </trkpt>
      <trkpt lat="47.90435" lon="-3.99212">
        <ele>13</ele>
        <time>2022-11-12T08:49:52Z</time>
      </trkpt>
      <trkpt lat="47.90433" lon="-3.99206">
        <ele>12.8</ele>
        <time>2022-11-12T08:49:53Z</time>
      </trkpt>
      <trkpt lat="47.90432" lon="-3.99199">
        <ele>12.6</ele>
        <time>2022-11-12T08:49:54Z</time>
      </trkpt>
      <trkpt lat="47.9043" lon="-3.99195">
        <ele>12.5</ele>
        <time>2022-11-12T08:49:55Z</time>
      </trkpt>
      <trkpt lat="47.9043" lon="-3.99192">
        <ele>12.4</ele>
        <time>2022-11-12T08:49:56Z</time>
      </trkpt>
      <trkpt lat="47.90428" lon="-3.99183">
        <ele>12.1</ele>
        <time>2022-11-12T08:49:57Z</time>
      </trkpt>
      <trkpt lat="47.90421" lon="-3.99177">
        <ele>11.7</ele>
        <time>2022-11-12T08:49:58Z</time>
      </trkpt>
      <trkpt lat="47.90415" lon="-3.99172">
        <ele>11.3</ele>
        <time>2022-11-12T08:49:59Z</time>
      </trkpt>
      <trkpt lat="47.9041" lon="-3.99169">
        <ele>11</ele>
        <time>2022-11-12T08:50:00Z</time>
      </trkpt>
      <trkpt lat="47.90405" lon="-3.99165">
        <ele>10.6</ele>
        <time>2022-11-12T08:50:01Z</time>
      </trkpt>
      <trkpt lat="47.90399" lon="-3.99161">
        <ele>10.2</ele>
        <time>2022-11-12T08:50:02Z</time>
      </trkpt>
      <trkpt lat="47.90393" lon="-3.99157">
        <ele>9.8</ele>
        <time>2022-11-12T08:50:03Z</time>
      </trkpt>
      <trkpt lat="47.90387" lon="-3.99151">
        <ele>9.4</ele>
        <time>2022-11-12T08:50:04Z</time>
      </trkpt>
      <trkpt lat="47.90382" lon="-3.99146">
        <ele>9.1</ele>
        <time>2022-11-12T08:50:05Z</time>
      </trkpt>
      <trkpt lat="47.90377" lon="-3.99142">
        <ele>8.9</ele>
        <time>2022-11-12T08:50:06Z</time>
      </trkpt>
      <trkpt lat="47.90371" lon="-3.99138">
        <ele>8.6</ele>
        <time>2022-11-12T08:50:07Z</time>
      </trkpt>
      <trkpt lat="47.90366" lon="-3.99133">
        <ele>8.5</ele>
        <time>2022-11-12T08:50:08Z</time>
      </trkpt>
      <trkpt lat="47.9036" lon="-3.99129">
        <ele>8.3</ele>
        <time>2022-11-12T08:50:09Z</time>
      </trkpt>
      <trkpt lat="47.90354" lon="-3.99125">
        <ele>8.2</ele>
        <time>2022-11-12T08:50:10Z</time>
      </trkpt>
      <trkpt lat="47.90349" lon="-3.99121">
        <ele>8.1</ele>
        <time>2022-11-12T08:50:11Z</time>
      </trkpt>
      <trkpt lat="47.90344" lon="-3.99117">
        <ele>8</ele>
        <time>2022-11-12T08:50:12Z</time>
      </trkpt>
      <trkpt lat="47.90338" lon="-3.99115">
        <ele>8</ele>
        <time>2022-11-12T08:50:13Z</time>
      </trkpt>
      <trkpt lat="47.90334" lon="-3.99113">
        <ele>7.9</ele>
        <time>2022-11-12T08:50:14Z</time>
      </trkpt>
      <trkpt lat="47.90328" lon="-3.99109">
        <ele>7.8</ele>
        <time>2022-11-12T08:50:15Z</time>
      </trkpt>
      <trkpt lat="47.90322" lon="-3.99106">
        <ele>7.8</ele>
        <time>2022-11-12T08:50:16Z</time>
      </trkpt>
      <trkpt lat="47.90318" lon="-3.99103">
        <ele>7.8</ele>
        <time>2022-11-12T08:50:17Z</time>
      </trkpt>
      <trkpt lat="47.90315" lon="-3.99097">
        <ele>7.8</ele>
        <time>2022-11-12T08:50:18Z</time>
      </trkpt>
      <trkpt lat="47.90311" lon="-3.99089">
        <ele>7.7</ele>
        <time>2022-11-12T08:50:19Z</time>
      </trkpt>
      <trkpt lat="47.90309" lon="-3.99083">
        <ele>7.7</ele>
        <time>2022-11-12T08:50:20Z</time>
      </trkpt>
      <trkpt lat="47.90307" lon="-3.99076">
        <ele>7.7</ele>
        <time>2022-11-12T08:50:21Z</time>
      </trkpt>
      <trkpt lat="47.90305" lon="-3.99068">
        <ele>7.7</ele>
        <time>2022-11-12T08:50:22Z</time>
      </trkpt>
      <trkpt lat="47.90304" lon="-3.9906">
        <ele>7.6</ele>
        <time>2022-11-12T08:50:23Z</time>
      </trkpt>
      <trkpt lat="47.90303" lon="-3.99053">
        <ele>7.5</ele>
        <time>2022-11-12T08:50:24Z</time>
      </trkpt>
      <trkpt lat="47.90301" lon="-3.99046">
        <ele>7.3</ele>
        <time>2022-11-12T08:50:25Z</time>
      </trkpt>
      <trkpt lat="47.90299" lon="-3.99039">
        <ele>7.1</ele>
        <time>2022-11-12T08:50:26Z</time>
      </trkpt>
      <trkpt lat="47.90295" lon="-3.99031">
        <ele>6.8</ele>
        <time>2022-11-12T08:50:27Z</time>
      </trkpt>
      <trkpt lat="47.90291" lon="-3.99024">
        <ele>6.5</ele>
        <time>2022-11-12T08:50:28Z</time>
      </trkpt>
      <trkpt lat="47.90286" lon="-3.99018">
        <ele>6.3</ele>
        <time>2022-11-12T08:50:29Z</time>
      </trkpt>
      <trkpt lat="47.90279" lon="-3.99013">
        <ele>6.1</ele>
        <time>2022-11-12T08:50:30Z</time>
      </trkpt>
      <trkpt lat="47.90273" lon="-3.9901">
        <ele>6</ele>
        <time>2022-11-12T08:50:31Z</time>
      </trkpt>
      <trkpt lat="47.90267" lon="-3.99009">
        <ele>5.8</ele>
        <time>2022-11-12T08:50:32Z</time>
      </trkpt>
      <trkpt lat="47.90261" lon="-3.99007">
        <ele>5.6</ele>
        <time>2022-11-12T08:50:33Z</time>
      </trkpt>
      <trkpt lat="47.90255" lon="-3.99004">
        <ele>5.4</ele>
        <time>2022-11-12T08:50:34Z</time>
      </trkpt>
      <trkpt lat="47.90249" lon="-3.99001">
        <ele>5.3</ele>
        <time>2022-11-12T08:50:35Z</time>
      </trkpt>
      <trkpt lat="47.90242" lon="-3.98996">
        <ele>5.1</ele>
        <time>2022-11-12T08:50:36Z</time>
      </trkpt>
      <trkpt lat="47.90236" lon="-3.98991">
        <ele>5</ele>
        <time>2022-11-12T08:50:37Z</time>
      </trkpt>
      <trkpt lat="47.9023" lon="-3.98985">
        <ele>5</ele>
        <time>2022-11-12T08:50:38Z</time>
      </trkpt>
      <trkpt lat="47.90225" lon="-3.9898">
        <ele>4.9</ele>
        <time>2022-11-12T08:50:39Z</time>
      </trkpt>
      <trkpt lat="47.9022" lon="-3.98974">
        <ele>4.9</ele>
        <time>2022-11-12T08:50:40Z</time>
      </trkpt>
      <trkpt lat="47.90216" lon="-3.98968">
        <ele>4.8</ele>
        <time>2022-11-12T08:50:41Z</time>
      </trkpt>
      <trkpt lat="47.90212" lon="-3.98961">
        <ele>4.7</ele>
        <time>2022-11-12T08:50:42Z</time>
      </trkpt>
      <trkpt lat="47.90208" lon="-3.98955">
        <ele>4.7</ele>
        <time>2022-11-12T08:50:43Z</time>
      </trkpt>
      <trkpt lat="47.90202" lon="-3.98951">
        <ele>4.6</ele>
        <time>2022-11-12T08:50:44Z</time>
      </trkpt>
      <trkpt lat="47.90195" lon="-3.98948">
        <ele>4.6</ele>
        <time>2022-11-12T08:50:45Z</time>
      </trkpt>
      <trkpt lat="47.90188" lon="-3.98945">
        <ele>4.5</ele>
        <time>2022-11-12T08:50:46Z</time>
      </trkpt>
      <trkpt lat="47.90182" lon="-3.98943">
        <ele>4.5</ele>
        <time>2022-11-12T08:50:47Z</time>
      </trkpt>
      <trkpt lat="47.90175" lon="-3.98941">
        <ele>4.6</ele>
        <time>2022-11-12T08:50:48Z</time>
      </trkpt>
      <trkpt lat="47.90168" lon="-3.9894">
        <ele>4.6</ele>
        <time>2022-11-12T08:50:49Z</time>
      </trkpt>
      <trkpt lat="47.90162" lon="-3.98939">
        <ele>4.6</ele>
        <time>2022-11-12T08:50:50Z</time>
      </trkpt>
      <trkpt lat="47.90155" lon="-3.98937">
        <ele>4.7</ele>
        <time>2022-11-12T08:50:51Z</time>
      </trkpt>
      <trkpt lat="47.9015" lon="-3.98937">
        <ele>4.8</ele>
        <time>2022-11-12T08:50:52Z</time>
      </trkpt>
      <trkpt lat="47.90145" lon="-3.98936">
        <ele>4.9</ele>
        <time>2022-11-12T08:50:53Z</time>
      </trkpt>
      <trkpt lat="47.90138" lon="-3.98936">
        <ele>4.9</ele>
        <time>2022-11-12T08:50:54Z</time>
      </trkpt>
      <trkpt lat="47.90132" lon="-3.98936">
        <ele>5</ele>
        <time>2022-11-12T08:50:55Z</time>
      </trkpt>
      <trkpt lat="47.90126" lon="-3.98934">
        <ele>5.1</ele>
        <time>2022-11-12T08:50:56Z</time>
      </trkpt>
      <trkpt lat="47.9012" lon="-3.98933">
        <ele>5.2</ele>
        <time>2022-11-12T08:50:57Z</time>
      </trkpt>
      <trkpt lat="47.90114" lon="-3.98933">
        <ele>5.3</ele>
        <time>2022-11-12T08:50:58Z</time>
      </trkpt>
      <trkpt lat="47.90108" lon="-3.98934">
        <ele>5.4</ele>
        <time>2022-11-12T08:50:59Z</time>
      </trkpt>
      <trkpt lat="47.90102" lon="-3.98934">
        <ele>5.5</ele>
        <time>2022-11-12T08:51:00Z</time>
      </trkpt>
      <trkpt lat="47.90097" lon="-3.98935">
        <ele>5.5</ele>
        <time>2022-11-12T08:51:01Z</time>
      </trkpt>
      <trkpt lat="47.90092" lon="-3.98936">
        <ele>5.6</ele>
        <time>2022-11-12T08:51:02Z</time>
      </trkpt>
      <trkpt lat="47.90086" lon="-3.98936">
        <ele>5.7</ele>
        <time>2022-11-12T08:51:03Z</time>
      </trkpt>
      <trkpt lat="47.90082" lon="-3.98933">
        <ele>5.7</ele>
        <time>2022-11-12T08:51:04Z</time>
      </trkpt>
      <trkpt lat="47.90075" lon="-3.98929">
        <ele>5.8</ele>
        <time>2022-11-12T08:51:05Z</time>
      </trkpt>
      <trkpt lat="47.9007" lon="-3.98927">
        <ele>5.9</ele>
        <time>2022-11-12T08:51:06Z</time>
      </trkpt>
      <trkpt lat="47.90064" lon="-3.98925">
        <ele>5.9</ele>
        <time>2022-11-12T08:51:07Z</time>
      </trkpt>
      <trkpt lat="47.90059" lon="-3.98924">
        <ele>5.9</ele>
        <time>2022-11-12T08:51:08Z</time>
      </trkpt>
      <trkpt lat="47.90053" lon="-3.98923">
        <ele>6</ele>
        <time>2022-11-12T08:51:09Z</time>
      </trkpt>
      <trkpt lat="47.90049" lon="-3.98923">
        <ele>6</ele>
        <time>2022-11-12T08:51:10Z</time>
      </trkpt>
      <trkpt lat="47.90044" lon="-3.98921">
        <ele>6.1</ele>
        <time>2022-11-12T08:51:11Z</time>
      </trkpt>
      <trkpt lat="47.90039" lon="-3.9892">
        <ele>6.1</ele>
        <time>2022-11-12T08:51:12Z</time>
      </trkpt>
      <trkpt lat="47.90033" lon="-3.98919">
        <ele>6.2</ele>
        <time>2022-11-12T08:51:13Z</time>
      </trkpt>
      <trkpt lat="47.90028" lon="-3.98919">
        <ele>6.3</ele>
        <time>2022-11-12T08:51:14Z</time>
      </trkpt>
      <trkpt lat="47.90024" lon="-3.98919">
        <ele>6.3</ele>
        <time>2022-11-12T08:51:15Z</time>
      </trkpt>
      <trkpt lat="47.90019" lon="-3.98917">
        <ele>6.4</ele>
        <time>2022-11-12T08:51:16Z</time>
      </trkpt>
      <trkpt lat="47.90013" lon="-3.98914">
        <ele>6.4</ele>
        <time>2022-11-12T08:51:17Z</time>
      </trkpt>
      <trkpt lat="47.90008" lon="-3.9891">
        <ele>6.4</ele>
        <time>2022-11-12T08:51:18Z</time>
      </trkpt>
      <trkpt lat="47.90003" lon="-3.98906">
        <ele>6.4</ele>
        <time>2022-11-12T08:51:19Z</time>
      </trkpt>
      <trkpt lat="47.89998" lon="-3.98903">
        <ele>6.4</ele>
        <time>2022-11-12T08:51:20Z</time>
      </trkpt>
      <trkpt lat="47.89993" lon="-3.98904">
        <ele>6.4</ele>
        <time>2022-11-12T08:51:21Z</time>
      </trkpt>
      <trkpt lat="47.89987" lon="-3.98907">
        <ele>6.3</ele>
        <time>2022-11-12T08:51:22Z</time>
      </trkpt>
      <trkpt lat="47.89984" lon="-3.98915">
        <ele>6.1</ele>
        <time>2022-11-12T08:51:23Z</time>
      </trkpt>
      <trkpt lat="47.89982" lon="-3.98924">
        <ele>5.9</ele>
        <time>2022-11-12T08:51:24Z</time>
      </trkpt>
      <trkpt lat="47.89978" lon="-3.98935">
        <ele>5.6</ele>
        <time>2022-11-12T08:51:25Z</time>
      </trkpt>
      <trkpt lat="47.89975" lon="-3.98941">
        <ele>5.4</ele>
        <time>2022-11-12T08:51:26Z</time>
      </trkpt>
      <trkpt lat="47.89971" lon="-3.98949">
        <ele>5.2</ele>
        <time>2022-11-12T08:51:27Z</time>
      </trkpt>
      <trkpt lat="47.89967" lon="-3.98957">
        <ele>4.9</ele>
        <time>2022-11-12T08:51:28Z</time>
      </trkpt>
      <trkpt lat="47.89963" lon="-3.98965">
        <ele>4.8</ele>
        <time>2022-11-12T08:51:29Z</time>
      </trkpt>
      <trkpt lat="47.89959" lon="-3.98973">
        <ele>4.6</ele>
        <time>2022-11-12T08:51:30Z</time>
      </trkpt>
      <trkpt lat="47.89953" lon="-3.9898">
        <ele>4.5</ele>
        <time>2022-11-12T08:51:31Z</time>
      </trkpt>
      <trkpt lat="47.89948" lon="-3.98985">
        <ele>4.5</ele>
        <time>2022-11-12T08:51:32Z</time>
      </trkpt>
      <trkpt lat="47.89942" lon="-3.98991">
        <ele>4.4</ele>
        <time>2022-11-12T08:51:33Z</time>
      </trkpt>
      <trkpt lat="47.89937" lon="-3.98995">
        <ele>4.4</ele>
        <time>2022-11-12T08:51:34Z</time>
      </trkpt>
      <trkpt lat="47.89931" lon="-3.98997">
        <ele>4.4</ele>
        <time>2022-11-12T08:51:35Z</time>
      </trkpt>
      <trkpt lat="47.89925" lon="-3.98999">
        <ele>4.4</ele>
        <time>2022-11-12T08:51:36Z</time>
      </trkpt>
      <trkpt lat="47.89919" lon="-3.99002">
        <ele>4.5</ele>
        <time>2022-11-12T08:51:37Z</time>
      </trkpt>
      <trkpt lat="47.89914" lon="-3.99004">
        <ele>4.5</ele>
        <time>2022-11-12T08:51:38Z</time>
      </trkpt>
      <trkpt lat="47.89908" lon="-3.99007">
        <ele>4.6</ele>
        <time>2022-11-12T08:51:39Z</time>
      </trkpt>
      <trkpt lat="47.89902" lon="-3.9901">
        <ele>4.6</ele>
        <time>2022-11-12T08:51:40Z</time>
      </trkpt>
      <trkpt lat="47.89896" lon="-3.99013">
        <ele>4.6</ele>
        <time>2022-11-12T08:51:41Z</time>
      </trkpt>
      <trkpt lat="47.89891" lon="-3.99017">
        <ele>4.6</ele>
        <time>2022-11-12T08:51:42Z</time>
      </trkpt>
      <trkpt lat="47.89885" lon="-3.99021">
        <ele>4.5</ele>
        <time>2022-11-12T08:51:43Z</time>
      </trkpt>
      <trkpt lat="47.89879" lon="-3.99025">
        <ele>4.4</ele>
        <time>2022-11-12T08:51:44Z</time>
      </trkpt>
      <trkpt lat="47.89873" lon="-3.99029">
        <ele>4.4</ele>
        <time>2022-11-12T08:51:45Z</time>
      </trkpt>
      <trkpt lat="47.89867" lon="-3.99035">
        <ele>4.3</ele>
        <time>2022-11-12T08:51:46Z</time>
      </trkpt>
      <trkpt lat="47.89862" lon="-3.99041">
        <ele>4.3</ele>
        <time>2022-11-12T08:51:47Z</time>
      </trkpt>
      <trkpt lat="47.89857" lon="-3.99047">
        <ele>4.2</ele>
        <time>2022-11-12T08:51:48Z</time>
      </trkpt>
      <trkpt lat="47.89851" lon="-3.99051">
        <ele>4.2</ele>
        <time>2022-11-12T08:51:49Z</time>
      </trkpt>
      <trkpt lat="47.89846" lon="-3.99057">
        <ele>4.2</ele>
        <time>2022-11-12T08:51:50Z</time>
      </trkpt>
      <trkpt lat="47.89841" lon="-3.99061">
        <ele>4.2</ele>
        <time>2022-11-12T08:51:51Z</time>
      </trkpt>
      <trkpt lat="47.89835" lon="-3.99064">
        <ele>4.2</ele>
        <time>2022-11-12T08:51:52Z</time>
      </trkpt>
      <trkpt lat="47.89829" lon="-3.99068">
        <ele>4.2</ele>
        <time>2022-11-12T08:51:53Z</time>
      </trkpt>
      <trkpt lat="47.89823" lon="-3.99071">
        <ele>4.3</ele>
        <time>2022-11-12T08:51:54Z</time>
      </trkpt>
      <trkpt lat="47.89818" lon="-3.99073">
        <ele>4.3</ele>
        <time>2022-11-12T08:51:55Z</time>
      </trkpt>
      <trkpt lat="47.89812" lon="-3.99075">
        <ele>4.4</ele>
        <time>2022-11-12T08:51:56Z</time>
      </trkpt>
      <trkpt lat="47.89806" lon="-3.99074">
        <ele>4.5</ele>
        <time>2022-11-12T08:51:57Z</time>
      </trkpt>
      <trkpt lat="47.898" lon="-3.99071">
        <ele>4.6</ele>
        <time>2022-11-12T08:51:58Z</time>
      </trkpt>
      <trkpt lat="47.89797" lon="-3.99066">
        <ele>4.6</ele>
        <time>2022-11-12T08:51:59Z</time>
      </trkpt>
      <trkpt lat="47.89795" lon="-3.99063">
        <ele>4.7</ele>
        <time>2022-11-12T08:52:00Z</time>
      </trkpt>
      <trkpt lat="47.89791" lon="-3.99057">
        <ele>4.8</ele>
        <time>2022-11-12T08:52:01Z</time>
      </trkpt>
      <trkpt lat="47.89786" lon="-3.9905">
        <ele>4.9</ele>
        <time>2022-11-12T08:52:02Z</time>
      </trkpt>
      <trkpt lat="47.8978" lon="-3.99043">
        <ele>4.8</ele>
        <time>2022-11-12T08:52:03Z</time>
      </trkpt>
      <trkpt lat="47.89774" lon="-3.99036">
        <ele>4.8</ele>
        <time>2022-11-12T08:52:04Z</time>
      </trkpt>
      <trkpt lat="47.89769" lon="-3.9903">
        <ele>4.7</ele>
        <time>2022-11-12T08:52:05Z</time>
      </trkpt>
      <trkpt lat="47.89763" lon="-3.99025">
        <ele>4.7</ele>
        <time>2022-11-12T08:52:06Z</time>
      </trkpt>
      <trkpt lat="47.89758" lon="-3.99021">
        <ele>4.6</ele>
        <time>2022-11-12T08:52:07Z</time>
      </trkpt>
      <trkpt lat="47.89751" lon="-3.99016">
        <ele>4.6</ele>
        <time>2022-11-12T08:52:08Z</time>
      </trkpt>
      <trkpt lat="47.89743" lon="-3.99013">
        <ele>4.6</ele>
        <time>2022-11-12T08:52:09Z</time>
      </trkpt>
      <trkpt lat="47.89737" lon="-3.99012">
        <ele>4.6</ele>
        <time>2022-11-12T08:52:10Z</time>
      </trkpt>
      <trkpt lat="47.89731" lon="-3.99012">
        <ele>4.7</ele>
        <time>2022-11-12T08:52:11Z</time>
      </trkpt>
      <trkpt lat="47.89726" lon="-3.99014">
        <ele>4.8</ele>
        <time>2022-11-12T08:52:12Z</time>
      </trkpt>
      <trkpt lat="47.89724" lon="-3.99017">
        <ele>4.9</ele>
        <time>2022-11-12T08:52:13Z</time>
      </trkpt>
      <trkpt lat="47.89721" lon="-3.99018">
        <ele>5</ele>
        <time>2022-11-12T08:52:14Z</time>
      </trkpt>
      <trkpt lat="47.8972" lon="-3.99018">
        <ele>5</ele>
        <time>2022-11-12T08:52:15Z</time>
      </trkpt>
      <trkpt lat="47.89716" lon="-3.99018">
        <ele>5.1</ele>
        <time>2022-11-12T08:52:16Z</time>
      </trkpt>
      <trkpt lat="47.89712" lon="-3.99018">
        <ele>5.3</ele>
        <time>2022-11-12T08:52:17Z</time>
      </trkpt>
      <trkpt lat="47.89707" lon="-3.99017">
        <ele>5.4</ele>
        <time>2022-11-12T08:52:18Z</time>
      </trkpt>
      <trkpt lat="47.89703" lon="-3.99018">
        <ele>5.6</ele>
        <time>2022-11-12T08:52:19Z</time>
      </trkpt>
      <trkpt lat="47.89701" lon="-3.99014">
        <ele>5.7</ele>
        <time>2022-11-12T08:52:20Z</time>
      </trkpt>
      <trkpt lat="47.89696" lon="-3.99017">
        <ele>5.8</ele>
        <time>2022-11-12T08:52:21Z</time>
      </trkpt>
      <trkpt lat="47.89693" lon="-3.99018">
        <ele>5.7</ele>
        <time>2022-11-12T08:52:22Z</time>
      </trkpt>
      <trkpt lat="47.89691" lon="-3.99016">
        <ele>5.7</ele>
        <time>2022-11-12T08:52:23Z</time>
      </trkpt>
      <trkpt lat="47.89691" lon="-3.99016">
        <ele>5.7</ele>
        <time>2022-11-12T08:52:24Z</time>
      </trkpt>
      <trkpt lat="47.8969" lon="-3.99016">
        <ele>5.7</ele>
        <time>2022-11-12T08:52:26Z</time>
      </trkpt>
      <trkpt lat="47.8969" lon="-3.99016">
        <ele>5.7</ele>
        <time>2022-11-12T08:52:27Z</time>
      </trkpt>
      <trkpt lat="47.89691" lon="-3.99015">
        <ele>5.7</ele>
        <time>2022-11-12T08:52:28Z</time>
      </trkpt>
      <trkpt lat="47.89691" lon="-3.99015">
        <ele>5.7</ele>
        <time>2022-11-12T08:52:29Z</time>
      </trkpt>
      <trkpt lat="47.89691" lon="-3.99015">
        <ele>5.7</ele>
        <time>2022-11-12T08:52:30Z</time>
      </trkpt>
      <trkpt lat="47.89692" lon="-3.99015">
        <ele>5.7</ele>
        <time>2022-11-12T08:52:31Z</time>
      </trkpt>
      <trkpt lat="47.89692" lon="-3.99015">
        <ele>5.7</ele>
        <time>2022-11-12T08:52:32Z</time>
      </trkpt>
      <trkpt lat="47.89692" lon="-3.99015">
        <ele>5.7</ele>
        <time>2022-11-12T08:52:33Z</time>
      </trkpt>
      <trkpt lat="47.89692" lon="-3.99014">
        <ele>5.7</ele>
        <time>2022-11-12T08:52:34Z</time>
      </trkpt>
      <trkpt lat="47.89692" lon="-3.99014">
        <ele>5.7</ele>
        <time>2022-11-12T08:52:35Z</time>
      </trkpt>
      <trkpt lat="47.89692" lon="-3.99013">
        <ele>5.7</ele>
        <time>2022-11-12T08:52:36Z</time>
      </trkpt>
      <trkpt lat="47.89693" lon="-3.99013">
        <ele>5.7</ele>
        <time>2022-11-12T08:52:37Z</time>
      </trkpt>
      <trkpt lat="47.89693" lon="-3.99013">
        <ele>5.7</ele>
        <time>2022-11-12T08:52:38Z</time>
      </trkpt>
      <trkpt lat="47.89694" lon="-3.99013">
        <ele>5.7</ele>
        <time>2022-11-12T08:52:39Z</time>
      </trkpt>
      <trkpt lat="47.89694" lon="-3.99014">
        <ele>5.7</ele>
        <time>2022-11-12T08:52:40Z</time>
      </trkpt>
      <trkpt lat="47.89694" lon="-3.99015">
        <ele>5.7</ele>
        <time>2022-11-12T08:52:42Z</time>
      </trkpt>
      <trkpt lat="47.89695" lon="-3.99016">
        <ele>5.7</ele>
        <time>2022-11-12T08:52:43Z</time>
      </trkpt>
      <trkpt lat="47.89696" lon="-3.99016">
        <ele>5.7</ele>
        <time>2022-11-12T08:52:44Z</time>
      </trkpt>
      <trkpt lat="47.89696" lon="-3.99017">
        <ele>5.7</ele>
        <time>2022-11-12T08:52:45Z</time>
      </trkpt>
      <trkpt lat="47.89696" lon="-3.99017">
        <ele>5.7</ele>
        <time>2022-11-12T08:52:46Z</time>
      </trkpt>
      <trkpt lat="47.89696" lon="-3.99017">
        <ele>5.7</ele>
        <time>2022-11-12T08:52:48Z</time>
      </trkpt>
      <trkpt lat="47.89696" lon="-3.99017">
        <ele>5.7</ele>
        <time>2022-11-12T08:52:49Z</time>
      </trkpt>
      <trkpt lat="47.89696" lon="-3.99017">
        <ele>5.7</ele>
        <time>2022-11-12T08:52:50Z</time>
      </trkpt>
      <trkpt lat="47.89696" lon="-3.99018">
        <ele>5.7</ele>
        <time>2022-11-12T08:52:53Z</time>
      </trkpt>
      <trkpt lat="47.89696" lon="-3.99018">
        <ele>5.7</ele>
        <time>2022-11-12T08:52:54Z</time>
      </trkpt>
      <trkpt lat="47.89696" lon="-3.99018">
        <ele>5.7</ele>
        <time>2022-11-12T08:52:55Z</time>
      </trkpt>
      <trkpt lat="47.89696" lon="-3.99018">
        <ele>5.7</ele>
        <time>2022-11-12T08:52:56Z</time>
      </trkpt>
      <trkpt lat="47.89696" lon="-3.99019">
        <ele>5.7</ele>
        <time>2022-11-12T08:52:57Z</time>
      </trkpt>
      <trkpt lat="47.89696" lon="-3.99019">
        <ele>5.7</ele>
        <time>2022-11-12T08:52:58Z</time>
      </trkpt>
      <trkpt lat="47.89696" lon="-3.99019">
        <ele>5.7</ele>
        <time>2022-11-12T08:52:59Z</time>
      </trkpt>
      <trkpt lat="47.89696" lon="-3.99019">
        <ele>5.7</ele>
        <time>2022-11-12T08:53:00Z</time>
      </trkpt>
      <trkpt lat="47.89696" lon="-3.99019">
        <ele>5.7</ele>
        <time>2022-11-12T08:53:01Z</time>
      </trkpt>
      <trkpt lat="47.89696" lon="-3.9902">
        <ele>5.7</ele>
        <time>2022-11-12T08:53:03Z</time>
      </trkpt>
      <trkpt lat="47.89697" lon="-3.9902">
        <ele>5.7</ele>
        <time>2022-11-12T08:53:04Z</time>
      </trkpt>
      <trkpt lat="47.89701" lon="-3.99021">
        <ele>5.7</ele>
        <time>2022-11-12T08:53:05Z</time>
      </trkpt>
      <trkpt lat="47.89706" lon="-3.99018">
        <ele>5.6</ele>
        <time>2022-11-12T08:53:06Z</time>
      </trkpt>
      <trkpt lat="47.8971" lon="-3.99015">
        <ele>5.6</ele>
        <time>2022-11-12T08:53:07Z</time>
      </trkpt>
      <trkpt lat="47.89713" lon="-3.99016">
        <ele>5.6</ele>
        <time>2022-11-12T08:53:08Z</time>
      </trkpt>
      <trkpt lat="47.89715" lon="-3.99017">
        <ele>5.6</ele>
        <time>2022-11-12T08:53:09Z</time>
      </trkpt>
      <trkpt lat="47.89717" lon="-3.9902">
        <ele>5.6</ele>
        <time>2022-11-12T08:53:10Z</time>
      </trkpt>
      <trkpt lat="47.89718" lon="-3.99024">
        <ele>5.6</ele>
        <time>2022-11-12T08:53:11Z</time>
      </trkpt>
      <trkpt lat="47.89718" lon="-3.99029">
        <ele>5.6</ele>
        <time>2022-11-12T08:53:12Z</time>
      </trkpt>
      <trkpt lat="47.89718" lon="-3.99035">
        <ele>5.6</ele>
        <time>2022-11-12T08:53:13Z</time>
      </trkpt>
      <trkpt lat="47.89716" lon="-3.99039">
        <ele>5.7</ele>
        <time>2022-11-12T08:53:14Z</time>
      </trkpt>
      <trkpt lat="47.89714" lon="-3.99048">
        <ele>5.7</ele>
        <time>2022-11-12T08:53:15Z</time>
      </trkpt>
      <trkpt lat="47.89714" lon="-3.99056">
        <ele>5.7</ele>
        <time>2022-11-12T08:53:16Z</time>
      </trkpt>
      <trkpt lat="47.89714" lon="-3.99064">
        <ele>5.7</ele>
        <time>2022-11-12T08:53:17Z</time>
      </trkpt>
      <trkpt lat="47.89713" lon="-3.99072">
        <ele>5.7</ele>
        <time>2022-11-12T08:53:18Z</time>
      </trkpt>
      <trkpt lat="47.89712" lon="-3.9908">
        <ele>5.7</ele>
        <time>2022-11-12T08:53:19Z</time>
      </trkpt>
      <trkpt lat="47.89711" lon="-3.99088">
        <ele>5.8</ele>
        <time>2022-11-12T08:53:20Z</time>
      </trkpt>
      <trkpt lat="47.89711" lon="-3.99095">
        <ele>5.8</ele>
        <time>2022-11-12T08:53:21Z</time>
      </trkpt>
      <trkpt lat="47.8971" lon="-3.99103">
        <ele>5.8</ele>
        <time>2022-11-12T08:53:22Z</time>
      </trkpt>
      <trkpt lat="47.89709" lon="-3.9911">
        <ele>5.8</ele>
        <time>2022-11-12T08:53:23Z</time>
      </trkpt>
      <trkpt lat="47.89709" lon="-3.99118">
        <ele>5.8</ele>
        <time>2022-11-12T08:53:24Z</time>
      </trkpt>
      <trkpt lat="47.89708" lon="-3.99125">
        <ele>5.9</ele>
        <time>2022-11-12T08:53:25Z</time>
      </trkpt>
      <trkpt lat="47.89707" lon="-3.99132">
        <ele>5.9</ele>
        <time>2022-11-12T08:53:26Z</time>
      </trkpt>
      <trkpt lat="47.89706" lon="-3.99139">
        <ele>5.9</ele>
        <time>2022-11-12T08:53:27Z</time>
      </trkpt>
      <trkpt lat="47.89706" lon="-3.99146">
        <ele>5.9</ele>
        <time>2022-11-12T08:53:28Z</time>
      </trkpt>
      <trkpt lat="47.89706" lon="-3.99153">
        <ele>5.9</ele>
        <time>2022-11-12T08:53:29Z</time>
      </trkpt>
      <trkpt lat="47.89706" lon="-3.9916">
        <ele>5.9</ele>
        <time>2022-11-12T08:53:30Z</time>
      </trkpt>
      <trkpt lat="47.89705" lon="-3.99168">
        <ele>5.9</ele>
        <time>2022-11-12T08:53:31Z</time>
      </trkpt>
      <trkpt lat="47.89705" lon="-3.99175">
        <ele>5.9</ele>
        <time>2022-11-12T08:53:32Z</time>
      </trkpt>
      <trkpt lat="47.89704" lon="-3.99179">
        <ele>5.9</ele>
        <time>2022-11-12T08:53:33Z</time>
      </trkpt>
      <trkpt lat="47.89704" lon="-3.99186">
        <ele>5.8</ele>
        <time>2022-11-12T08:53:34Z</time>
      </trkpt>
      <trkpt lat="47.89702" lon="-3.99191">
        <ele>5.8</ele>
        <time>2022-11-12T08:53:35Z</time>
      </trkpt>
      <trkpt lat="47.89698" lon="-3.99194">
        <ele>5.7</ele>
        <time>2022-11-12T08:53:36Z</time>
      </trkpt>
      <trkpt lat="47.89693" lon="-3.99196">
        <ele>5.5</ele>
        <time>2022-11-12T08:53:37Z</time>
      </trkpt>
      <trkpt lat="47.89688" lon="-3.99199">
        <ele>5.2</ele>
        <time>2022-11-12T08:53:38Z</time>
      </trkpt>
      <trkpt lat="47.89683" lon="-3.99201">
        <ele>5</ele>
        <time>2022-11-12T08:53:39Z</time>
      </trkpt>
      <trkpt lat="47.89677" lon="-3.99203">
        <ele>4.8</ele>
        <time>2022-11-12T08:53:40Z</time>
      </trkpt>
      <trkpt lat="47.89672" lon="-3.99205">
        <ele>4.7</ele>
        <time>2022-11-12T08:53:41Z</time>
      </trkpt>
      <trkpt lat="47.89667" lon="-3.99207">
        <ele>4.7</ele>
        <time>2022-11-12T08:53:42Z</time>
      </trkpt>
      <trkpt lat="47.89662" lon="-3.99207">
        <ele>4.8</ele>
        <time>2022-11-12T08:53:43Z</time>
      </trkpt>
      <trkpt lat="47.89657" lon="-3.99208">
        <ele>4.8</ele>
        <time>2022-11-12T08:53:44Z</time>
      </trkpt>
      <trkpt lat="47.89654" lon="-3.99212">
        <ele>4.9</ele>
        <time>2022-11-12T08:53:45Z</time>
      </trkpt>
      <trkpt lat="47.89651" lon="-3.99217">
        <ele>5</ele>
        <time>2022-11-12T08:53:46Z</time>
      </trkpt>
      <trkpt lat="47.89647" lon="-3.99221">
        <ele>5.1</ele>
        <time>2022-11-12T08:53:47Z</time>
      </trkpt>
      <trkpt lat="47.89642" lon="-3.99223">
        <ele>5.2</ele>
        <time>2022-11-12T08:53:48Z</time>
      </trkpt>
      <trkpt lat="47.89639" lon="-3.99224">
        <ele>5.3</ele>
        <time>2022-11-12T08:53:49Z</time>
      </trkpt>
      <trkpt lat="47.89635" lon="-3.99223">
        <ele>5.5</ele>
        <time>2022-11-12T08:53:50Z</time>
      </trkpt>
      <trkpt lat="47.89628" lon="-3.9922">
        <ele>5.7</ele>
        <time>2022-11-12T08:53:51Z</time>
      </trkpt>
      <trkpt lat="47.89622" lon="-3.99219">
        <ele>5.9</ele>
        <time>2022-11-12T08:53:52Z</time>
      </trkpt>
      <trkpt lat="47.89616" lon="-3.99218">
        <ele>6</ele>
        <time>2022-11-12T08:53:53Z</time>
      </trkpt>
      <trkpt lat="47.89611" lon="-3.99218">
        <ele>6.2</ele>
        <time>2022-11-12T08:53:54Z</time>
      </trkpt>
      <trkpt lat="47.89606" lon="-3.99218">
        <ele>6.3</ele>
        <time>2022-11-12T08:53:55Z</time>
      </trkpt>
      <trkpt lat="47.89601" lon="-3.99217">
        <ele>6.3</ele>
        <time>2022-11-12T08:53:56Z</time>
      </trkpt>
      <trkpt lat="47.89597" lon="-3.99215">
        <ele>6.4</ele>
        <time>2022-11-12T08:53:57Z</time>
      </trkpt>
      <trkpt lat="47.89592" lon="-3.99212">
        <ele>6.4</ele>
        <time>2022-11-12T08:53:58Z</time>
      </trkpt>
      <trkpt lat="47.89587" lon="-3.99208">
        <ele>6.4</ele>
        <time>2022-11-12T08:53:59Z</time>
      </trkpt>
      <trkpt lat="47.89582" lon="-3.99205">
        <ele>6.4</ele>
        <time>2022-11-12T08:54:00Z</time>
      </trkpt>
      <trkpt lat="47.89577" lon="-3.99201">
        <ele>6.4</ele>
        <time>2022-11-12T08:54:01Z</time>
      </trkpt>
      <trkpt lat="47.89572" lon="-3.99198">
        <ele>6.4</ele>
        <time>2022-11-12T08:54:02Z</time>
      </trkpt>
      <trkpt lat="47.89566" lon="-3.99196">
        <ele>6.3</ele>
        <time>2022-11-12T08:54:03Z</time>
      </trkpt>
      <trkpt lat="47.8956" lon="-3.99194">
        <ele>6.2</ele>
        <time>2022-11-12T08:54:04Z</time>
      </trkpt>
      <trkpt lat="47.89555" lon="-3.99191">
        <ele>6.1</ele>
        <time>2022-11-12T08:54:05Z</time>
      </trkpt>
      <trkpt lat="47.89549" lon="-3.99187">
        <ele>6</ele>
        <time>2022-11-12T08:54:06Z</time>
      </trkpt>
      <trkpt lat="47.89544" lon="-3.99182">
        <ele>5.9</ele>
        <time>2022-11-12T08:54:07Z</time>
      </trkpt>
      <trkpt lat="47.89539" lon="-3.99176">
        <ele>5.8</ele>
        <time>2022-11-12T08:54:08Z</time>
      </trkpt>
      <trkpt lat="47.89534" lon="-3.99171">
        <ele>5.7</ele>
        <time>2022-11-12T08:54:09Z</time>
      </trkpt>
      <trkpt lat="47.89528" lon="-3.99167">
        <ele>5.6</ele>
        <time>2022-11-12T08:54:10Z</time>
      </trkpt>
      <trkpt lat="47.89522" lon="-3.99165">
        <ele>5.5</ele>
        <time>2022-11-12T08:54:11Z</time>
      </trkpt>
      <trkpt lat="47.89515" lon="-3.99165">
        <ele>5.5</ele>
        <time>2022-11-12T08:54:12Z</time>
      </trkpt>
      <trkpt lat="47.89509" lon="-3.99166">
        <ele>5.5</ele>
        <time>2022-11-12T08:54:13Z</time>
      </trkpt>
      <trkpt lat="47.89503" lon="-3.99167">
        <ele>5.6</ele>
        <time>2022-11-12T08:54:14Z</time>
      </trkpt>
      <trkpt lat="47.89497" lon="-3.99168">
        <ele>5.6</ele>
        <time>2022-11-12T08:54:15Z</time>
      </trkpt>
      <trkpt lat="47.89492" lon="-3.99169">
        <ele>5.7</ele>
        <time>2022-11-12T08:54:16Z</time>
      </trkpt>
      <trkpt lat="47.89486" lon="-3.99169">
        <ele>5.7</ele>
        <time>2022-11-12T08:54:17Z</time>
      </trkpt>
      <trkpt lat="47.89479" lon="-3.99169">
        <ele>5.8</ele>
        <time>2022-11-12T08:54:18Z</time>
      </trkpt>
      <trkpt lat="47.89474" lon="-3.99168">
        <ele>5.8</ele>
        <time>2022-11-12T08:54:19Z</time>
      </trkpt>
      <trkpt lat="47.89468" lon="-3.99166">
        <ele>5.8</ele>
        <time>2022-11-12T08:54:20Z</time>
      </trkpt>
      <trkpt lat="47.89452" lon="-3.99156">
        <ele>5.8</ele>
        <time>2022-11-12T08:54:23Z</time>
      </trkpt>
      <trkpt lat="47.89447" lon="-3.99151">
        <ele>5.8</ele>
        <time>2022-11-12T08:54:24Z</time>
      </trkpt>
      <trkpt lat="47.89442" lon="-3.99145">
        <ele>5.9</ele>
        <time>2022-11-12T08:54:25Z</time>
      </trkpt>
      <trkpt lat="47.89437" lon="-3.99138">
        <ele>5.9</ele>
        <time>2022-11-12T08:54:26Z</time>
      </trkpt>
      <trkpt lat="47.89433" lon="-3.99131">
        <ele>5.9</ele>
        <time>2022-11-12T08:54:27Z</time>
      </trkpt>
      <trkpt lat="47.89428" lon="-3.99124">
        <ele>5.9</ele>
        <time>2022-11-12T08:54:28Z</time>
      </trkpt>
      <trkpt lat="47.89424" lon="-3.99118">
        <ele>5.9</ele>
        <time>2022-11-12T08:54:29Z</time>
      </trkpt>
      <trkpt lat="47.89419" lon="-3.99112">
        <ele>5.9</ele>
        <time>2022-11-12T08:54:30Z</time>
      </trkpt>
      <trkpt lat="47.89415" lon="-3.99106">
        <ele>5.9</ele>
        <time>2022-11-12T08:54:31Z</time>
      </trkpt>
      <trkpt lat="47.8941" lon="-3.99101">
        <ele>5.9</ele>
        <time>2022-11-12T08:54:32Z</time>
      </trkpt>
      <trkpt lat="47.89406" lon="-3.99095">
        <ele>5.9</ele>
        <time>2022-11-12T08:54:33Z</time>
      </trkpt>
      <trkpt lat="47.89401" lon="-3.9909">
        <ele>5.9</ele>
        <time>2022-11-12T08:54:34Z</time>
      </trkpt>
      <trkpt lat="47.89395" lon="-3.99086">
        <ele>5.9</ele>
        <time>2022-11-12T08:54:35Z</time>
      </trkpt>
      <trkpt lat="47.8939" lon="-3.99081">
        <ele>5.8</ele>
        <time>2022-11-12T08:54:36Z</time>
      </trkpt>
      <trkpt lat="47.89384" lon="-3.99078">
        <ele>5.7</ele>
        <time>2022-11-12T08:54:37Z</time>
      </trkpt>
      <trkpt lat="47.89378" lon="-3.99074">
        <ele>5.6</ele>
        <time>2022-11-12T08:54:38Z</time>
      </trkpt>
      <trkpt lat="47.89372" lon="-3.99071">
        <ele>5.5</ele>
        <time>2022-11-12T08:54:39Z</time>
      </trkpt>
      <trkpt lat="47.89366" lon="-3.99066">
        <ele>5.4</ele>
        <time>2022-11-12T08:54:40Z</time>
      </trkpt>
      <trkpt lat="47.8936" lon="-3.99061">
        <ele>5.3</ele>
        <time>2022-11-12T08:54:41Z</time>
      </trkpt>
      <trkpt lat="47.89355" lon="-3.99054">
        <ele>5.2</ele>
        <time>2022-11-12T08:54:42Z</time>
      </trkpt>
      <trkpt lat="47.89351" lon="-3.99047">
        <ele>5.1</ele>
        <time>2022-11-12T08:54:43Z</time>
      </trkpt>
      <trkpt lat="47.89348" lon="-3.99038">
        <ele>5</ele>
        <time>2022-11-12T08:54:44Z</time>
      </trkpt>
      <trkpt lat="47.89345" lon="-3.9903">
        <ele>4.8</ele>
        <time>2022-11-12T08:54:45Z</time>
      </trkpt>
      <trkpt lat="47.89342" lon="-3.99022">
        <ele>4.7</ele>
        <time>2022-11-12T08:54:46Z</time>
      </trkpt>
      <trkpt lat="47.89339" lon="-3.99012">
        <ele>4.6</ele>
        <time>2022-11-12T08:54:47Z</time>
      </trkpt>
      <trkpt lat="47.89335" lon="-3.99002">
        <ele>4.5</ele>
        <time>2022-11-12T08:54:48Z</time>
      </trkpt>
      <trkpt lat="47.89331" lon="-3.98993">
        <ele>4.4</ele>
        <time>2022-11-12T08:54:49Z</time>
      </trkpt>
      <trkpt lat="47.89328" lon="-3.98984">
        <ele>4.4</ele>
        <time>2022-11-12T08:54:50Z</time>
      </trkpt>
      <trkpt lat="47.89323" lon="-3.98976">
        <ele>4.4</ele>
        <time>2022-11-12T08:54:51Z</time>
      </trkpt>
      <trkpt lat="47.89319" lon="-3.98968">
        <ele>4.5</ele>
        <time>2022-11-12T08:54:52Z</time>
      </trkpt>
      <trkpt lat="47.89318" lon="-3.98962">
        <ele>4.5</ele>
        <time>2022-11-12T08:54:53Z</time>
      </trkpt>
      <trkpt lat="47.89319" lon="-3.98956">
        <ele>4.5</ele>
        <time>2022-11-12T08:54:54Z</time>
      </trkpt>
      <trkpt lat="47.89323" lon="-3.98952">
        <ele>4.5</ele>
        <time>2022-11-12T08:54:55Z</time>
      </trkpt>
      <trkpt lat="47.89327" lon="-3.98947">
        <ele>4.4</ele>
        <time>2022-11-12T08:54:56Z</time>
      </trkpt>
      <trkpt lat="47.89331" lon="-3.98943">
        <ele>4.4</ele>
        <time>2022-11-12T08:54:57Z</time>
      </trkpt>
      <trkpt lat="47.89334" lon="-3.98938">
        <ele>4.4</ele>
        <time>2022-11-12T08:54:58Z</time>
      </trkpt>
      <trkpt lat="47.89337" lon="-3.98932">
        <ele>4.4</ele>
        <time>2022-11-12T08:54:59Z</time>
      </trkpt>
      <trkpt lat="47.8934" lon="-3.98925">
        <ele>4.5</ele>
        <time>2022-11-12T08:55:00Z</time>
      </trkpt>
      <trkpt lat="47.89341" lon="-3.98918">
        <ele>4.5</ele>
        <time>2022-11-12T08:55:01Z</time>
      </trkpt>
      <trkpt lat="47.89342" lon="-3.98911">
        <ele>4.5</ele>
        <time>2022-11-12T08:55:02Z</time>
      </trkpt>
      <trkpt lat="47.89343" lon="-3.98904">
        <ele>4.4</ele>
        <time>2022-11-12T08:55:03Z</time>
      </trkpt>
      <trkpt lat="47.8934" lon="-3.98897">
        <ele>4.4</ele>
        <time>2022-11-12T08:55:04Z</time>
      </trkpt>
      <trkpt lat="47.89337" lon="-3.98889">
        <ele>4.4</ele>
        <time>2022-11-12T08:55:05Z</time>
      </trkpt>
      <trkpt lat="47.89333" lon="-3.98884">
        <ele>4.3</ele>
        <time>2022-11-12T08:55:06Z</time>
      </trkpt>
      <trkpt lat="47.89327" lon="-3.98879">
        <ele>4.3</ele>
        <time>2022-11-12T08:55:07Z</time>
      </trkpt>
      <trkpt lat="47.89322" lon="-3.98875">
        <ele>4.3</ele>
        <time>2022-11-12T08:55:08Z</time>
      </trkpt>
      <trkpt lat="47.89317" lon="-3.98871">
        <ele>4.3</ele>
        <time>2022-11-12T08:55:09Z</time>
      </trkpt>
      <trkpt lat="47.89313" lon="-3.98868">
        <ele>4.3</ele>
        <time>2022-11-12T08:55:10Z</time>
      </trkpt>
      <trkpt lat="47.89308" lon="-3.98864">
        <ele>4.3</ele>
        <time>2022-11-12T08:55:11Z</time>
      </trkpt>
      <trkpt lat="47.89302" lon="-3.98862">
        <ele>4.3</ele>
        <time>2022-11-12T08:55:12Z</time>
      </trkpt>
      <trkpt lat="47.89297" lon="-3.98859">
        <ele>4.3</ele>
        <time>2022-11-12T08:55:13Z</time>
      </trkpt>
      <trkpt lat="47.89292" lon="-3.98856">
        <ele>4.4</ele>
        <time>2022-11-12T08:55:14Z</time>
      </trkpt>
      <trkpt lat="47.89287" lon="-3.98853">
        <ele>4.4</ele>
        <time>2022-11-12T08:55:15Z</time>
      </trkpt>
      <trkpt lat="47.89282" lon="-3.98851">
        <ele>4.5</ele>
        <time>2022-11-12T08:55:16Z</time>
      </trkpt>
      <trkpt lat="47.89277" lon="-3.98849">
        <ele>4.5</ele>
        <time>2022-11-12T08:55:17Z</time>
      </trkpt>
      <trkpt lat="47.89272" lon="-3.98846">
        <ele>4.6</ele>
        <time>2022-11-12T08:55:18Z</time>
      </trkpt>
      <trkpt lat="47.89267" lon="-3.98843">
        <ele>4.6</ele>
        <time>2022-11-12T08:55:19Z</time>
      </trkpt>
      <trkpt lat="47.89262" lon="-3.98839">
        <ele>4.6</ele>
        <time>2022-11-12T08:55:20Z</time>
      </trkpt>
      <trkpt lat="47.89257" lon="-3.98834">
        <ele>4.7</ele>
        <time>2022-11-12T08:55:21Z</time>
      </trkpt>
      <trkpt lat="47.89253" lon="-3.98829">
        <ele>4.7</ele>
        <time>2022-11-12T08:55:22Z</time>
      </trkpt>
      <trkpt lat="47.89248" lon="-3.98824">
        <ele>4.7</ele>
        <time>2022-11-12T08:55:23Z</time>
      </trkpt>
      <trkpt lat="47.89244" lon="-3.9882">
        <ele>4.8</ele>
        <time>2022-11-12T08:55:24Z</time>
      </trkpt>
      <trkpt lat="47.89239" lon="-3.98816">
        <ele>4.8</ele>
        <time>2022-11-12T08:55:25Z</time>
      </trkpt>
      <trkpt lat="47.89234" lon="-3.98811">
        <ele>4.7</ele>
        <time>2022-11-12T08:55:26Z</time>
      </trkpt>
      <trkpt lat="47.89229" lon="-3.98808">
        <ele>4.7</ele>
        <time>2022-11-12T08:55:27Z</time>
      </trkpt>
      <trkpt lat="47.89223" lon="-3.98805">
        <ele>4.7</ele>
        <time>2022-11-12T08:55:28Z</time>
      </trkpt>
      <trkpt lat="47.89218" lon="-3.98802">
        <ele>4.7</ele>
        <time>2022-11-12T08:55:29Z</time>
      </trkpt>
      <trkpt lat="47.89212" lon="-3.988">
        <ele>4.6</ele>
        <time>2022-11-12T08:55:30Z</time>
      </trkpt>
      <trkpt lat="47.89207" lon="-3.98796">
        <ele>4.6</ele>
        <time>2022-11-12T08:55:31Z</time>
      </trkpt>
      <trkpt lat="47.89201" lon="-3.98792">
        <ele>4.5</ele>
        <time>2022-11-12T08:55:32Z</time>
      </trkpt>
      <trkpt lat="47.89196" lon="-3.98787">
        <ele>4.5</ele>
        <time>2022-11-12T08:55:33Z</time>
      </trkpt>
      <trkpt lat="47.89191" lon="-3.98782">
        <ele>4.5</ele>
        <time>2022-11-12T08:55:34Z</time>
      </trkpt>
      <trkpt lat="47.89186" lon="-3.98778">
        <ele>4.5</ele>
        <time>2022-11-12T08:55:35Z</time>
      </trkpt>
      <trkpt lat="47.89181" lon="-3.98773">
        <ele>4.5</ele>
        <time>2022-11-12T08:55:36Z</time>
      </trkpt>
      <trkpt lat="47.89176" lon="-3.9877">
        <ele>4.5</ele>
        <time>2022-11-12T08:55:37Z</time>
      </trkpt>
      <trkpt lat="47.89171" lon="-3.98766">
        <ele>4.5</ele>
        <time>2022-11-12T08:55:38Z</time>
      </trkpt>
      <trkpt lat="47.89165" lon="-3.98764">
        <ele>4.6</ele>
        <time>2022-11-12T08:55:39Z</time>
      </trkpt>
      <trkpt lat="47.89159" lon="-3.98763">
        <ele>4.6</ele>
        <time>2022-11-12T08:55:40Z</time>
      </trkpt>
      <trkpt lat="47.89153" lon="-3.98763">
        <ele>4.6</ele>
        <time>2022-11-12T08:55:41Z</time>
      </trkpt>
      <trkpt lat="47.89148" lon="-3.98764">
        <ele>4.6</ele>
        <time>2022-11-12T08:55:42Z</time>
      </trkpt>
      <trkpt lat="47.89142" lon="-3.98764">
        <ele>4.7</ele>
        <time>2022-11-12T08:55:43Z</time>
      </trkpt>
      <trkpt lat="47.89136" lon="-3.98762">
        <ele>4.7</ele>
        <time>2022-11-12T08:55:44Z</time>
      </trkpt>
      <trkpt lat="47.89131" lon="-3.98759">
        <ele>4.7</ele>
        <time>2022-11-12T08:55:45Z</time>
      </trkpt>
      <trkpt lat="47.89126" lon="-3.98757">
        <ele>4.8</ele>
        <time>2022-11-12T08:55:46Z</time>
      </trkpt>
      <trkpt lat="47.89121" lon="-3.98754">
        <ele>4.8</ele>
        <time>2022-11-12T08:55:47Z</time>
      </trkpt>
      <trkpt lat="47.89116" lon="-3.98752">
        <ele>4.8</ele>
        <time>2022-11-12T08:55:48Z</time>
      </trkpt>
      <trkpt lat="47.8911" lon="-3.98749">
        <ele>4.9</ele>
        <time>2022-11-12T08:55:49Z</time>
      </trkpt>
      <trkpt lat="47.89105" lon="-3.98745">
        <ele>4.9</ele>
        <time>2022-11-12T08:55:50Z</time>
      </trkpt>
      <trkpt lat="47.891" lon="-3.98742">
        <ele>4.8</ele>
        <time>2022-11-12T08:55:51Z</time>
      </trkpt>
      <trkpt lat="47.89096" lon="-3.98737">
        <ele>4.8</ele>
        <time>2022-11-12T08:55:52Z</time>
      </trkpt>
      <trkpt lat="47.89092" lon="-3.98731">
        <ele>4.7</ele>
        <time>2022-11-12T08:55:53Z</time>
      </trkpt>
      <trkpt lat="47.89088" lon="-3.98725">
        <ele>4.7</ele>
        <time>2022-11-12T08:55:54Z</time>
      </trkpt>
      <trkpt lat="47.89085" lon="-3.98718">
        <ele>4.6</ele>
        <time>2022-11-12T08:55:55Z</time>
      </trkpt>
      <trkpt lat="47.89081" lon="-3.98712">
        <ele>4.6</ele>
        <time>2022-11-12T08:55:56Z</time>
      </trkpt>
      <trkpt lat="47.89078" lon="-3.98706">
        <ele>4.6</ele>
        <time>2022-11-12T08:55:57Z</time>
      </trkpt>
      <trkpt lat="47.89074" lon="-3.98702">
        <ele>4.7</ele>
        <time>2022-11-12T08:55:58Z</time>
      </trkpt>
      <trkpt lat="47.89071" lon="-3.98697">
        <ele>4.7</ele>
        <time>2022-11-12T08:55:59Z</time>
      </trkpt>
      <trkpt lat="47.89068" lon="-3.98694">
        <ele>4.8</ele>
        <time>2022-11-12T08:56:00Z</time>
      </trkpt>
      <trkpt lat="47.89066" lon="-3.98693">
        <ele>4.8</ele>
        <time>2022-11-12T08:56:01Z</time>
      </trkpt>
      <trkpt lat="47.89063" lon="-3.98692">
        <ele>4.9</ele>
        <time>2022-11-12T08:56:02Z</time>
      </trkpt>
      <trkpt lat="47.89062" lon="-3.98692">
        <ele>4.9</ele>
        <time>2022-11-12T08:56:03Z</time>
      </trkpt>
      <trkpt lat="47.89058" lon="-3.9869">
        <ele>4.9</ele>
        <time>2022-11-12T08:56:04Z</time>
      </trkpt>
      <trkpt lat="47.89058" lon="-3.98689">
        <ele>4.9</ele>
        <time>2022-11-12T08:56:05Z</time>
      </trkpt>
      <trkpt lat="47.89056" lon="-3.98686">
        <ele>5</ele>
        <time>2022-11-12T08:56:06Z</time>
      </trkpt>
      <trkpt lat="47.89055" lon="-3.98684">
        <ele>4.9</ele>
        <time>2022-11-12T08:56:07Z</time>
      </trkpt>
      <trkpt lat="47.89053" lon="-3.9868">
        <ele>4.9</ele>
        <time>2022-11-12T08:56:08Z</time>
      </trkpt>
      <trkpt lat="47.89052" lon="-3.98674">
        <ele>4.9</ele>
        <time>2022-11-12T08:56:09Z</time>
      </trkpt>
      <trkpt lat="47.89051" lon="-3.98665">
        <ele>4.8</ele>
        <time>2022-11-12T08:56:10Z</time>
      </trkpt>
      <trkpt lat="47.89049" lon="-3.98657">
        <ele>4.7</ele>
        <time>2022-11-12T08:56:11Z</time>
      </trkpt>
      <trkpt lat="47.89047" lon="-3.9865">
        <ele>4.7</ele>
        <time>2022-11-12T08:56:12Z</time>
      </trkpt>
      <trkpt lat="47.89045" lon="-3.98643">
        <ele>4.7</ele>
        <time>2022-11-12T08:56:13Z</time>
      </trkpt>
      <trkpt lat="47.89042" lon="-3.98636">
        <ele>4.6</ele>
        <time>2022-11-12T08:56:14Z</time>
      </trkpt>
      <trkpt lat="47.89039" lon="-3.9863">
        <ele>4.6</ele>
        <time>2022-11-12T08:56:15Z</time>
      </trkpt>
      <trkpt lat="47.89036" lon="-3.98623">
        <ele>4.6</ele>
        <time>2022-11-12T08:56:16Z</time>
      </trkpt>
      <trkpt lat="47.89033" lon="-3.98616">
        <ele>4.6</ele>
        <time>2022-11-12T08:56:17Z</time>
      </trkpt>
      <trkpt lat="47.8903" lon="-3.98609">
        <ele>4.6</ele>
        <time>2022-11-12T08:56:18Z</time>
      </trkpt>
      <trkpt lat="47.89027" lon="-3.98602">
        <ele>4.6</ele>
        <time>2022-11-12T08:56:19Z</time>
      </trkpt>
      <trkpt lat="47.89024" lon="-3.98595">
        <ele>4.6</ele>
        <time>2022-11-12T08:56:20Z</time>
      </trkpt>
      <trkpt lat="47.89021" lon="-3.98587">
        <ele>4.6</ele>
        <time>2022-11-12T08:56:21Z</time>
      </trkpt>
      <trkpt lat="47.89019" lon="-3.9858">
        <ele>4.7</ele>
        <time>2022-11-12T08:56:22Z</time>
      </trkpt>
      <trkpt lat="47.89016" lon="-3.98573">
        <ele>4.7</ele>
        <time>2022-11-12T08:56:23Z</time>
      </trkpt>
      <trkpt lat="47.89014" lon="-3.98565">
        <ele>4.7</ele>
        <time>2022-11-12T08:56:24Z</time>
      </trkpt>
      <trkpt lat="47.89012" lon="-3.98557">
        <ele>4.8</ele>
        <time>2022-11-12T08:56:25Z</time>
      </trkpt>
      <trkpt lat="47.8901" lon="-3.9855">
        <ele>4.9</ele>
        <time>2022-11-12T08:56:26Z</time>
      </trkpt>
      <trkpt lat="47.89007" lon="-3.98543">
        <ele>5</ele>
        <time>2022-11-12T08:56:27Z</time>
      </trkpt>
      <trkpt lat="47.89006" lon="-3.98538">
        <ele>5.1</ele>
        <time>2022-11-12T08:56:28Z</time>
      </trkpt>
      <trkpt lat="47.89005" lon="-3.98531">
        <ele>5.2</ele>
        <time>2022-11-12T08:56:29Z</time>
      </trkpt>
      <trkpt lat="47.89004" lon="-3.98525">
        <ele>5.3</ele>
        <time>2022-11-12T08:56:30Z</time>
      </trkpt>
      <trkpt lat="47.89003" lon="-3.98519">
        <ele>5.4</ele>
        <time>2022-11-12T08:56:31Z</time>
      </trkpt>
      <trkpt lat="47.89002" lon="-3.98512">
        <ele>5.6</ele>
        <time>2022-11-12T08:56:32Z</time>
      </trkpt>
      <trkpt lat="47.89" lon="-3.98505">
        <ele>5.6</ele>
        <time>2022-11-12T08:56:33Z</time>
      </trkpt>
      <trkpt lat="47.89" lon="-3.98498">
        <ele>5.7</ele>
        <time>2022-11-12T08:56:34Z</time>
      </trkpt>
      <trkpt lat="47.88999" lon="-3.98493">
        <ele>5.8</ele>
        <time>2022-11-12T08:56:35Z</time>
      </trkpt>
      <trkpt lat="47.88998" lon="-3.98485">
        <ele>5.8</ele>
        <time>2022-11-12T08:56:36Z</time>
      </trkpt>
      <trkpt lat="47.88997" lon="-3.98478">
        <ele>5.9</ele>
        <time>2022-11-12T08:56:37Z</time>
      </trkpt>
      <trkpt lat="47.88995" lon="-3.98471">
        <ele>5.9</ele>
        <time>2022-11-12T08:56:38Z</time>
      </trkpt>
      <trkpt lat="47.88995" lon="-3.98463">
        <ele>5.9</ele>
        <time>2022-11-12T08:56:39Z</time>
      </trkpt>
      <trkpt lat="47.88994" lon="-3.98456">
        <ele>5.8</ele>
        <time>2022-11-12T08:56:40Z</time>
      </trkpt>
      <trkpt lat="47.88993" lon="-3.98448">
        <ele>5.8</ele>
        <time>2022-11-12T08:56:41Z</time>
      </trkpt>
      <trkpt lat="47.88992" lon="-3.9844">
        <ele>5.7</ele>
        <time>2022-11-12T08:56:42Z</time>
      </trkpt>
      <trkpt lat="47.88992" lon="-3.98432">
        <ele>5.5</ele>
        <time>2022-11-12T08:56:43Z</time>
      </trkpt>
      <trkpt lat="47.88991" lon="-3.98423">
        <ele>5.4</ele>
        <time>2022-11-12T08:56:44Z</time>
      </trkpt>
      <trkpt lat="47.8899" lon="-3.98415">
        <ele>5.2</ele>
        <time>2022-11-12T08:56:45Z</time>
      </trkpt>
      <trkpt lat="47.8899" lon="-3.98406">
        <ele>5.1</ele>
        <time>2022-11-12T08:56:46Z</time>
      </trkpt>
      <trkpt lat="47.88989" lon="-3.98396">
        <ele>4.9</ele>
        <time>2022-11-12T08:56:47Z</time>
      </trkpt>
      <trkpt lat="47.88988" lon="-3.98388">
        <ele>4.8</ele>
        <time>2022-11-12T08:56:48Z</time>
      </trkpt>
      <trkpt lat="47.88986" lon="-3.9838">
        <ele>4.7</ele>
        <time>2022-11-12T08:56:49Z</time>
      </trkpt>
      <trkpt lat="47.88984" lon="-3.98372">
        <ele>4.6</ele>
        <time>2022-11-12T08:56:50Z</time>
      </trkpt>
      <trkpt lat="47.88981" lon="-3.98364">
        <ele>4.6</ele>
        <time>2022-11-12T08:56:51Z</time>
      </trkpt>
      <trkpt lat="47.88978" lon="-3.98356">
        <ele>4.5</ele>
        <time>2022-11-12T08:56:52Z</time>
      </trkpt>
      <trkpt lat="47.88975" lon="-3.98348">
        <ele>4.4</ele>
        <time>2022-11-12T08:56:53Z</time>
      </trkpt>
      <trkpt lat="47.88971" lon="-3.9834">
        <ele>4.4</ele>
        <time>2022-11-12T08:56:54Z</time>
      </trkpt>
      <trkpt lat="47.88968" lon="-3.98333">
        <ele>4.4</ele>
        <time>2022-11-12T08:56:55Z</time>
      </trkpt>
      <trkpt lat="47.88964" lon="-3.98326">
        <ele>4.4</ele>
        <time>2022-11-12T08:56:56Z</time>
      </trkpt>
      <trkpt lat="47.8896" lon="-3.98319">
        <ele>4.4</ele>
        <time>2022-11-12T08:56:57Z</time>
      </trkpt>
      <trkpt lat="47.88957" lon="-3.98312">
        <ele>4.3</ele>
        <time>2022-11-12T08:56:58Z</time>
      </trkpt>
      <trkpt lat="47.88953" lon="-3.98305">
        <ele>4.3</ele>
        <time>2022-11-12T08:56:59Z</time>
      </trkpt>
      <trkpt lat="47.8895" lon="-3.98298">
        <ele>4.3</ele>
        <time>2022-11-12T08:57:00Z</time>
      </trkpt>
      <trkpt lat="47.88946" lon="-3.98291">
        <ele>4.2</ele>
        <time>2022-11-12T08:57:01Z</time>
      </trkpt>
      <trkpt lat="47.88943" lon="-3.98284">
        <ele>4.2</ele>
        <time>2022-11-12T08:57:02Z</time>
      </trkpt>
      <trkpt lat="47.8894" lon="-3.98276">
        <ele>4.2</ele>
        <time>2022-11-12T08:57:03Z</time>
      </trkpt>
      <trkpt lat="47.88937" lon="-3.98269">
        <ele>4.2</ele>
        <time>2022-11-12T08:57:04Z</time>
      </trkpt>
      <trkpt lat="47.88934" lon="-3.98262">
        <ele>4.2</ele>
        <time>2022-11-12T08:57:05Z</time>
      </trkpt>
      <trkpt lat="47.8893" lon="-3.98256">
        <ele>4.3</ele>
        <time>2022-11-12T08:57:06Z</time>
      </trkpt>
      <trkpt lat="47.88927" lon="-3.98249">
        <ele>4.3</ele>
        <time>2022-11-12T08:57:07Z</time>
      </trkpt>
      <trkpt lat="47.88923" lon="-3.98242">
        <ele>4.3</ele>
        <time>2022-11-12T08:57:08Z</time>
      </trkpt>
      <trkpt lat="47.88919" lon="-3.98235">
        <ele>4.3</ele>
        <time>2022-11-12T08:57:09Z</time>
      </trkpt>
      <trkpt lat="47.88916" lon="-3.98228">
        <ele>4.4</ele>
        <time>2022-11-12T08:57:10Z</time>
      </trkpt>
      <trkpt lat="47.88912" lon="-3.98222">
        <ele>4.4</ele>
        <time>2022-11-12T08:57:11Z</time>
      </trkpt>
      <trkpt lat="47.88908" lon="-3.98216">
        <ele>4.5</ele>
        <time>2022-11-12T08:57:12Z</time>
      </trkpt>
      <trkpt lat="47.88903" lon="-3.9821">
        <ele>4.5</ele>
        <time>2022-11-12T08:57:13Z</time>
      </trkpt>
      <trkpt lat="47.88899" lon="-3.98205">
        <ele>4.6</ele>
        <time>2022-11-12T08:57:14Z</time>
      </trkpt>
      <trkpt lat="47.88895" lon="-3.982">
        <ele>4.7</ele>
        <time>2022-11-12T08:57:15Z</time>
      </trkpt>
      <trkpt lat="47.8889" lon="-3.98196">
        <ele>4.9</ele>
        <time>2022-11-12T08:57:16Z</time>
      </trkpt>
      <trkpt lat="47.88885" lon="-3.98191">
        <ele>5</ele>
        <time>2022-11-12T08:57:17Z</time>
      </trkpt>
      <trkpt lat="47.8888" lon="-3.98187">
        <ele>5.2</ele>
        <time>2022-11-12T08:57:18Z</time>
      </trkpt>
      <trkpt lat="47.88876" lon="-3.98183">
        <ele>5.5</ele>
        <time>2022-11-12T08:57:19Z</time>
      </trkpt>
      <trkpt lat="47.88871" lon="-3.9818">
        <ele>5.7</ele>
        <time>2022-11-12T08:57:20Z</time>
      </trkpt>
      <trkpt lat="47.88868" lon="-3.98177">
        <ele>5.8</ele>
        <time>2022-11-12T08:57:21Z</time>
      </trkpt>
      <trkpt lat="47.88865" lon="-3.98176">
        <ele>6</ele>
        <time>2022-11-12T08:57:22Z</time>
      </trkpt>
      <trkpt lat="47.88864" lon="-3.98175">
        <ele>6</ele>
        <time>2022-11-12T08:57:23Z</time>
      </trkpt>
      <trkpt lat="47.8886" lon="-3.98175">
        <ele>6.2</ele>
        <time>2022-11-12T08:57:24Z</time>
      </trkpt>
      <trkpt lat="47.88857" lon="-3.98174">
        <ele>6.3</ele>
        <time>2022-11-12T08:57:25Z</time>
      </trkpt>
      <trkpt lat="47.88854" lon="-3.98176">
        <ele>6.4</ele>
        <time>2022-11-12T08:57:26Z</time>
      </trkpt>
      <trkpt lat="47.88851" lon="-3.98178">
        <ele>6.4</ele>
        <time>2022-11-12T08:57:27Z</time>
      </trkpt>
      <trkpt lat="47.88848" lon="-3.98181">
        <ele>6.4</ele>
        <time>2022-11-12T08:57:28Z</time>
      </trkpt>
      <trkpt lat="47.88845" lon="-3.98188">
        <ele>6.5</ele>
        <time>2022-11-12T08:57:29Z</time>
      </trkpt>
      <trkpt lat="47.88843" lon="-3.98191">
        <ele>6.5</ele>
        <time>2022-11-12T08:57:30Z</time>
      </trkpt>
      <trkpt lat="47.88841" lon="-3.98193">
        <ele>6.5</ele>
        <time>2022-11-12T08:57:31Z</time>
      </trkpt>
      <trkpt lat="47.88838" lon="-3.98194">
        <ele>6.6</ele>
        <time>2022-11-12T08:57:33Z</time>
      </trkpt>
      <trkpt lat="47.88835" lon="-3.98196">
        <ele>6.6</ele>
        <time>2022-11-12T08:57:34Z</time>
      </trkpt>
      <trkpt lat="47.88833" lon="-3.98197">
        <ele>6.6</ele>
        <time>2022-11-12T08:57:35Z</time>
      </trkpt>
      <trkpt lat="47.88833" lon="-3.98198">
        <ele>6.6</ele>
        <time>2022-11-12T08:57:36Z</time>
      </trkpt>
      <trkpt lat="47.88834" lon="-3.98197">
        <ele>6.6</ele>
        <time>2022-11-12T08:57:37Z</time>
      </trkpt>
      <trkpt lat="47.88834" lon="-3.98196">
        <ele>6.6</ele>
        <time>2022-11-12T08:57:38Z</time>
      </trkpt>
      <trkpt lat="47.88834" lon="-3.98196">
        <ele>6.6</ele>
        <time>2022-11-12T08:57:39Z</time>
      </trkpt>
      <trkpt lat="47.88834" lon="-3.98197">
        <ele>6.6</ele>
        <time>2022-11-12T08:57:41Z</time>
      </trkpt>
      <trkpt lat="47.88833" lon="-3.98197">
        <ele>6.6</ele>
        <time>2022-11-12T08:57:42Z</time>
      </trkpt>
      <trkpt lat="47.88833" lon="-3.98197">
        <ele>6.6</ele>
        <time>2022-11-12T08:57:43Z</time>
      </trkpt>
      <trkpt lat="47.88833" lon="-3.98197">
        <ele>6.6</ele>
        <time>2022-11-12T08:57:44Z</time>
      </trkpt>
      <trkpt lat="47.88833" lon="-3.98197">
        <ele>6.6</ele>
        <time>2022-11-12T08:57:45Z</time>
      </trkpt>
      <trkpt lat="47.88833" lon="-3.98197">
        <ele>6.6</ele>
        <time>2022-11-12T08:57:46Z</time>
      </trkpt>
      <trkpt lat="47.88833" lon="-3.98196">
        <ele>6.6</ele>
        <time>2022-11-12T08:57:47Z</time>
      </trkpt>
      <trkpt lat="47.88833" lon="-3.98196">
        <ele>6.6</ele>
        <time>2022-11-12T08:57:48Z</time>
      </trkpt>
      <trkpt lat="47.88834" lon="-3.98195">
        <ele>6.6</ele>
        <time>2022-11-12T08:57:50Z</time>
      </trkpt>
      <trkpt lat="47.88834" lon="-3.98196">
        <ele>6.6</ele>
        <time>2022-11-12T08:57:51Z</time>
      </trkpt>
      <trkpt lat="47.88834" lon="-3.98196">
        <ele>6.6</ele>
        <time>2022-11-12T08:57:52Z</time>
      </trkpt>
      <trkpt lat="47.88835" lon="-3.98195">
        <ele>6.6</ele>
        <time>2022-11-12T08:57:53Z</time>
      </trkpt>
      <trkpt lat="47.88836" lon="-3.98195">
        <ele>6.7</ele>
        <time>2022-11-12T08:57:54Z</time>
      </trkpt>
      <trkpt lat="47.88836" lon="-3.98195">
        <ele>6.7</ele>
        <time>2022-11-12T08:57:55Z</time>
      </trkpt>
      <trkpt lat="47.88836" lon="-3.98195">
        <ele>6.7</ele>
        <time>2022-11-12T08:57:56Z</time>
      </trkpt>
      <trkpt lat="47.88836" lon="-3.98196">
        <ele>6.7</ele>
        <time>2022-11-12T08:57:57Z</time>
      </trkpt>
      <trkpt lat="47.88837" lon="-3.98196">
        <ele>6.7</ele>
        <time>2022-11-12T08:57:58Z</time>
      </trkpt>
      <trkpt lat="47.88837" lon="-3.98195">
        <ele>6.7</ele>
        <time>2022-11-12T08:58:00Z</time>
      </trkpt>
      <trkpt lat="47.88836" lon="-3.98196">
        <ele>6.7</ele>
        <time>2022-11-12T08:58:02Z</time>
      </trkpt>
      <trkpt lat="47.88835" lon="-3.98198">
        <ele>6.7</ele>
        <time>2022-11-12T08:58:03Z</time>
      </trkpt>
      <trkpt lat="47.88835" lon="-3.98198">
        <ele>6.7</ele>
        <time>2022-11-12T08:58:04Z</time>
      </trkpt>
      <trkpt lat="47.88835" lon="-3.98198">
        <ele>6.7</ele>
        <time>2022-11-12T08:58:05Z</time>
      </trkpt>
      <trkpt lat="47.88835" lon="-3.98197">
        <ele>6.7</ele>
        <time>2022-11-12T08:58:06Z</time>
      </trkpt>
      <trkpt lat="47.88836" lon="-3.98197">
        <ele>6.7</ele>
        <time>2022-11-12T08:58:07Z</time>
      </trkpt>
      <trkpt lat="47.88836" lon="-3.98197">
        <ele>6.7</ele>
        <time>2022-11-12T08:58:08Z</time>
      </trkpt>
      <trkpt lat="47.88836" lon="-3.98196">
        <ele>6.7</ele>
        <time>2022-11-12T08:58:10Z</time>
      </trkpt>
      <trkpt lat="47.88838" lon="-3.98197">
        <ele>6.7</ele>
        <time>2022-11-12T08:58:12Z</time>
      </trkpt>
      <trkpt lat="47.8884" lon="-3.98201">
        <ele>6.7</ele>
        <time>2022-11-12T08:58:13Z</time>
      </trkpt>
      <trkpt lat="47.88839" lon="-3.98205">
        <ele>6.7</ele>
        <time>2022-11-12T08:58:14Z</time>
      </trkpt>
      <trkpt lat="47.88838" lon="-3.9821">
        <ele>6.8</ele>
        <time>2022-11-12T08:58:15Z</time>
      </trkpt>
      <trkpt lat="47.88835" lon="-3.98214">
        <ele>6.8</ele>
        <time>2022-11-12T08:58:16Z</time>
      </trkpt>
      <trkpt lat="47.8883" lon="-3.98222">
        <ele>6.8</ele>
        <time>2022-11-12T08:58:18Z</time>
      </trkpt>
      <trkpt lat="47.88827" lon="-3.98227">
        <ele>6.8</ele>
        <time>2022-11-12T08:58:19Z</time>
      </trkpt>
      <trkpt lat="47.88824" lon="-3.98231">
        <ele>6.8</ele>
        <time>2022-11-12T08:58:20Z</time>
      </trkpt>
      <trkpt lat="47.88822" lon="-3.98237">
        <ele>6.8</ele>
        <time>2022-11-12T08:58:21Z</time>
      </trkpt>
      <trkpt lat="47.88819" lon="-3.98243">
        <ele>6.8</ele>
        <time>2022-11-12T08:58:22Z</time>
      </trkpt>
      <trkpt lat="47.88816" lon="-3.9825">
        <ele>6.9</ele>
        <time>2022-11-12T08:58:23Z</time>
      </trkpt>
      <trkpt lat="47.88812" lon="-3.98258">
        <ele>6.9</ele>
        <time>2022-11-12T08:58:24Z</time>
      </trkpt>
      <trkpt lat="47.88809" lon="-3.98265">
        <ele>6.9</ele>
        <time>2022-11-12T08:58:25Z</time>
      </trkpt>
      <trkpt lat="47.88806" lon="-3.98271">
        <ele>6.9</ele>
        <time>2022-11-12T08:58:26Z</time>
      </trkpt>
      <trkpt lat="47.88802" lon="-3.98278">
        <ele>6.9</ele>
        <time>2022-11-12T08:58:27Z</time>
      </trkpt>
      <trkpt lat="47.88798" lon="-3.98284">
        <ele>6.9</ele>
        <time>2022-11-12T08:58:28Z</time>
      </trkpt>
      <trkpt lat="47.88795" lon="-3.9829">
        <ele>6.9</ele>
        <time>2022-11-12T08:58:29Z</time>
      </trkpt>
      <trkpt lat="47.88792" lon="-3.98297">
        <ele>6.9</ele>
        <time>2022-11-12T08:58:30Z</time>
      </trkpt>
      <trkpt lat="47.88788" lon="-3.98303">
        <ele>6.9</ele>
        <time>2022-11-12T08:58:31Z</time>
      </trkpt>
      <trkpt lat="47.88785" lon="-3.98309">
        <ele>7</ele>
        <time>2022-11-12T08:58:32Z</time>
      </trkpt>
      <trkpt lat="47.88781" lon="-3.98315">
        <ele>7</ele>
        <time>2022-11-12T08:58:33Z</time>
      </trkpt>
      <trkpt lat="47.88778" lon="-3.98322">
        <ele>6.9</ele>
        <time>2022-11-12T08:58:34Z</time>
      </trkpt>
      <trkpt lat="47.88775" lon="-3.98329">
        <ele>6.9</ele>
        <time>2022-11-12T08:58:35Z</time>
      </trkpt>
      <trkpt lat="47.88771" lon="-3.98336">
        <ele>6.9</ele>
        <time>2022-11-12T08:58:36Z</time>
      </trkpt>
      <trkpt lat="47.88768" lon="-3.98343">
        <ele>6.9</ele>
        <time>2022-11-12T08:58:37Z</time>
      </trkpt>
      <trkpt lat="47.88764" lon="-3.98349">
        <ele>6.9</ele>
        <time>2022-11-12T08:58:38Z</time>
      </trkpt>
      <trkpt lat="47.88761" lon="-3.98357">
        <ele>6.9</ele>
        <time>2022-11-12T08:58:39Z</time>
      </trkpt>
      <trkpt lat="47.88758" lon="-3.98365">
        <ele>6.9</ele>
        <time>2022-11-12T08:58:40Z</time>
      </trkpt>
      <trkpt lat="47.88756" lon="-3.98373">
        <ele>6.9</ele>
        <time>2022-11-12T08:58:41Z</time>
      </trkpt>
      <trkpt lat="47.88753" lon="-3.98381">
        <ele>6.9</ele>
        <time>2022-11-12T08:58:42Z</time>
      </trkpt>
      <trkpt lat="47.88751" lon="-3.9839">
        <ele>6.9</ele>
        <time>2022-11-12T08:58:43Z</time>
      </trkpt>
      <trkpt lat="47.88749" lon="-3.98399">
        <ele>6.9</ele>
        <time>2022-11-12T08:58:44Z</time>
      </trkpt>
      <trkpt lat="47.88746" lon="-3.98407">
        <ele>6.8</ele>
        <time>2022-11-12T08:58:45Z</time>
      </trkpt>
      <trkpt lat="47.88743" lon="-3.98415">
        <ele>6.8</ele>
        <time>2022-11-12T08:58:46Z</time>
      </trkpt>
      <trkpt lat="47.8874" lon="-3.98423">
        <ele>6.8</ele>
        <time>2022-11-12T08:58:47Z</time>
      </trkpt>
      <trkpt lat="47.88737" lon="-3.98432">
        <ele>6.7</ele>
        <time>2022-11-12T08:58:48Z</time>
      </trkpt>
      <trkpt lat="47.88735" lon="-3.98441">
        <ele>6.7</ele>
        <time>2022-11-12T08:58:49Z</time>
      </trkpt>
      <trkpt lat="47.88733" lon="-3.9845">
        <ele>6.6</ele>
        <time>2022-11-12T08:58:50Z</time>
      </trkpt>
      <trkpt lat="47.8873" lon="-3.98458">
        <ele>6.6</ele>
        <time>2022-11-12T08:58:51Z</time>
      </trkpt>
      <trkpt lat="47.88728" lon="-3.98467">
        <ele>6.5</ele>
        <time>2022-11-12T08:58:52Z</time>
      </trkpt>
      <trkpt lat="47.88726" lon="-3.98477">
        <ele>6.5</ele>
        <time>2022-11-12T08:58:53Z</time>
      </trkpt>
      <trkpt lat="47.88723" lon="-3.98486">
        <ele>6.4</ele>
        <time>2022-11-12T08:58:54Z</time>
      </trkpt>
      <trkpt lat="47.88721" lon="-3.98495">
        <ele>6.4</ele>
        <time>2022-11-12T08:58:55Z</time>
      </trkpt>
      <trkpt lat="47.88718" lon="-3.98504">
        <ele>6.3</ele>
        <time>2022-11-12T08:58:56Z</time>
      </trkpt>
      <trkpt lat="47.88715" lon="-3.98513">
        <ele>6.3</ele>
        <time>2022-11-12T08:58:57Z</time>
      </trkpt>
      <trkpt lat="47.88712" lon="-3.98523">
        <ele>6.2</ele>
        <time>2022-11-12T08:58:58Z</time>
      </trkpt>
      <trkpt lat="47.88708" lon="-3.98531">
        <ele>6.2</ele>
        <time>2022-11-12T08:58:59Z</time>
      </trkpt>
      <trkpt lat="47.88705" lon="-3.9854">
        <ele>6.1</ele>
        <time>2022-11-12T08:59:00Z</time>
      </trkpt>
      <trkpt lat="47.88701" lon="-3.98548">
        <ele>6.1</ele>
        <time>2022-11-12T08:59:01Z</time>
      </trkpt>
      <trkpt lat="47.88697" lon="-3.98556">
        <ele>6</ele>
        <time>2022-11-12T08:59:02Z</time>
      </trkpt>
      <trkpt lat="47.88693" lon="-3.98564">
        <ele>5.9</ele>
        <time>2022-11-12T08:59:03Z</time>
      </trkpt>
      <trkpt lat="47.88689" lon="-3.98571">
        <ele>5.9</ele>
        <time>2022-11-12T08:59:04Z</time>
      </trkpt>
      <trkpt lat="47.88684" lon="-3.98578">
        <ele>5.8</ele>
        <time>2022-11-12T08:59:05Z</time>
      </trkpt>
      <trkpt lat="47.8868" lon="-3.98585">
        <ele>5.8</ele>
        <time>2022-11-12T08:59:06Z</time>
      </trkpt>
      <trkpt lat="47.88675" lon="-3.98592">
        <ele>5.8</ele>
        <time>2022-11-12T08:59:07Z</time>
      </trkpt>
      <trkpt lat="47.8867" lon="-3.98599">
        <ele>5.7</ele>
        <time>2022-11-12T08:59:08Z</time>
      </trkpt>
      <trkpt lat="47.88665" lon="-3.98606">
        <ele>5.7</ele>
        <time>2022-11-12T08:59:09Z</time>
      </trkpt>
      <trkpt lat="47.8866" lon="-3.98613">
        <ele>5.7</ele>
        <time>2022-11-12T08:59:10Z</time>
      </trkpt>
      <trkpt lat="47.88656" lon="-3.9862">
        <ele>5.8</ele>
        <time>2022-11-12T08:59:11Z</time>
      </trkpt>
      <trkpt lat="47.88651" lon="-3.98626">
        <ele>5.8</ele>
        <time>2022-11-12T08:59:12Z</time>
      </trkpt>
      <trkpt lat="47.88647" lon="-3.98633">
        <ele>5.8</ele>
        <time>2022-11-12T08:59:13Z</time>
      </trkpt>
      <trkpt lat="47.88642" lon="-3.98641">
        <ele>5.8</ele>
        <time>2022-11-12T08:59:14Z</time>
      </trkpt>
      <trkpt lat="47.88638" lon="-3.98648">
        <ele>5.9</ele>
        <time>2022-11-12T08:59:15Z</time>
      </trkpt>
      <trkpt lat="47.88633" lon="-3.98654">
        <ele>5.9</ele>
        <time>2022-11-12T08:59:16Z</time>
      </trkpt>
      <trkpt lat="47.88629" lon="-3.98661">
        <ele>5.9</ele>
        <time>2022-11-12T08:59:17Z</time>
      </trkpt>
      <trkpt lat="47.88625" lon="-3.98668">
        <ele>5.9</ele>
        <time>2022-11-12T08:59:18Z</time>
      </trkpt>
      <trkpt lat="47.8862" lon="-3.98675">
        <ele>5.9</ele>
        <time>2022-11-12T08:59:19Z</time>
      </trkpt>
      <trkpt lat="47.88616" lon="-3.98682">
        <ele>6</ele>
        <time>2022-11-12T08:59:20Z</time>
      </trkpt>
      <trkpt lat="47.88612" lon="-3.98689">
        <ele>6</ele>
        <time>2022-11-12T08:59:21Z</time>
      </trkpt>
      <trkpt lat="47.88608" lon="-3.98696">
        <ele>5.9</ele>
        <time>2022-11-12T08:59:22Z</time>
      </trkpt>
      <trkpt lat="47.88603" lon="-3.98702">
        <ele>5.9</ele>
        <time>2022-11-12T08:59:23Z</time>
      </trkpt>
      <trkpt lat="47.88599" lon="-3.98709">
        <ele>5.9</ele>
        <time>2022-11-12T08:59:24Z</time>
      </trkpt>
      <trkpt lat="47.88595" lon="-3.98716">
        <ele>5.9</ele>
        <time>2022-11-12T08:59:25Z</time>
      </trkpt>
      <trkpt lat="47.88591" lon="-3.98724">
        <ele>5.9</ele>
        <time>2022-11-12T08:59:26Z</time>
      </trkpt>
      <trkpt lat="47.88586" lon="-3.98731">
        <ele>5.9</ele>
        <time>2022-11-12T08:59:27Z</time>
      </trkpt>
      <trkpt lat="47.88582" lon="-3.98738">
        <ele>5.9</ele>
        <time>2022-11-12T08:59:28Z</time>
      </trkpt>
      <trkpt lat="47.88577" lon="-3.98745">
        <ele>5.9</ele>
        <time>2022-11-12T08:59:29Z</time>
      </trkpt>
      <trkpt lat="47.88571" lon="-3.98751">
        <ele>5.9</ele>
        <time>2022-11-12T08:59:30Z</time>
      </trkpt>
      <trkpt lat="47.88566" lon="-3.98756">
        <ele>5.9</ele>
        <time>2022-11-12T08:59:31Z</time>
      </trkpt>
      <trkpt lat="47.8856" lon="-3.98759">
        <ele>5.9</ele>
        <time>2022-11-12T08:59:32Z</time>
      </trkpt>
      <trkpt lat="47.88555" lon="-3.98764">
        <ele>6</ele>
        <time>2022-11-12T08:59:33Z</time>
      </trkpt>
      <trkpt lat="47.88551" lon="-3.9877">
        <ele>6.1</ele>
        <time>2022-11-12T08:59:34Z</time>
      </trkpt>
      <trkpt lat="47.88548" lon="-3.98776">
        <ele>6.1</ele>
        <time>2022-11-12T08:59:35Z</time>
      </trkpt>
      <trkpt lat="47.88543" lon="-3.98782">
        <ele>6.1</ele>
        <time>2022-11-12T08:59:36Z</time>
      </trkpt>
      <trkpt lat="47.88539" lon="-3.98788">
        <ele>6.2</ele>
        <time>2022-11-12T08:59:37Z</time>
      </trkpt>
      <trkpt lat="47.88534" lon="-3.98794">
        <ele>6.2</ele>
        <time>2022-11-12T08:59:38Z</time>
      </trkpt>
      <trkpt lat="47.8853" lon="-3.988">
        <ele>6.2</ele>
        <time>2022-11-12T08:59:39Z</time>
      </trkpt>
      <trkpt lat="47.88525" lon="-3.98806">
        <ele>6.2</ele>
        <time>2022-11-12T08:59:40Z</time>
      </trkpt>
      <trkpt lat="47.8852" lon="-3.98811">
        <ele>6.2</ele>
        <time>2022-11-12T08:59:41Z</time>
      </trkpt>
      <trkpt lat="47.88516" lon="-3.98817">
        <ele>6.3</ele>
        <time>2022-11-12T08:59:42Z</time>
      </trkpt>
      <trkpt lat="47.88511" lon="-3.98823">
        <ele>6.3</ele>
        <time>2022-11-12T08:59:43Z</time>
      </trkpt>
      <trkpt lat="47.88506" lon="-3.98828">
        <ele>6.3</ele>
        <time>2022-11-12T08:59:44Z</time>
      </trkpt>
      <trkpt lat="47.88501" lon="-3.98835">
        <ele>6.3</ele>
        <time>2022-11-12T08:59:45Z</time>
      </trkpt>
      <trkpt lat="47.88497" lon="-3.98841">
        <ele>6.3</ele>
        <time>2022-11-12T08:59:46Z</time>
      </trkpt>
      <trkpt lat="47.88492" lon="-3.98847">
        <ele>6.3</ele>
        <time>2022-11-12T08:59:47Z</time>
      </trkpt>
      <trkpt lat="47.88488" lon="-3.98853">
        <ele>6.3</ele>
        <time>2022-11-12T08:59:48Z</time>
      </trkpt>
      <trkpt lat="47.88483" lon="-3.98859">
        <ele>6.4</ele>
        <time>2022-11-12T08:59:49Z</time>
      </trkpt>
      <trkpt lat="47.88478" lon="-3.98865">
        <ele>6.4</ele>
        <time>2022-11-12T08:59:50Z</time>
      </trkpt>
      <trkpt lat="47.88474" lon="-3.98871">
        <ele>6.4</ele>
        <time>2022-11-12T08:59:51Z</time>
      </trkpt>
      <trkpt lat="47.88469" lon="-3.98877">
        <ele>6.4</ele>
        <time>2022-11-12T08:59:52Z</time>
      </trkpt>
      <trkpt lat="47.88465" lon="-3.98883">
        <ele>6.4</ele>
        <time>2022-11-12T08:59:53Z</time>
      </trkpt>
      <trkpt lat="47.8846" lon="-3.98889">
        <ele>6.4</ele>
        <time>2022-11-12T08:59:54Z</time>
      </trkpt>
      <trkpt lat="47.88456" lon="-3.98894">
        <ele>6.4</ele>
        <time>2022-11-12T08:59:55Z</time>
      </trkpt>
      <trkpt lat="47.88451" lon="-3.989">
        <ele>6.4</ele>
        <time>2022-11-12T08:59:56Z</time>
      </trkpt>
      <trkpt lat="47.88446" lon="-3.98906">
        <ele>6.4</ele>
        <time>2022-11-12T08:59:57Z</time>
      </trkpt>
      <trkpt lat="47.88442" lon="-3.98911">
        <ele>6.4</ele>
        <time>2022-11-12T08:59:58Z</time>
      </trkpt>
      <trkpt lat="47.88437" lon="-3.98917">
        <ele>6.3</ele>
        <time>2022-11-12T08:59:59Z</time>
      </trkpt>
      <trkpt lat="47.88432" lon="-3.98923">
        <ele>6.3</ele>
        <time>2022-11-12T09:00:00Z</time>
      </trkpt>
      <trkpt lat="47.88427" lon="-3.98929">
        <ele>6.3</ele>
        <time>2022-11-12T09:00:01Z</time>
      </trkpt>
      <trkpt lat="47.88422" lon="-3.98934">
        <ele>6.3</ele>
        <time>2022-11-12T09:00:02Z</time>
      </trkpt>
      <trkpt lat="47.88418" lon="-3.9894">
        <ele>6.3</ele>
        <time>2022-11-12T09:00:03Z</time>
      </trkpt>
      <trkpt lat="47.88414" lon="-3.98945">
        <ele>6.3</ele>
        <time>2022-11-12T09:00:04Z</time>
      </trkpt>
      <trkpt lat="47.88409" lon="-3.98951">
        <ele>6.4</ele>
        <time>2022-11-12T09:00:05Z</time>
      </trkpt>
      <trkpt lat="47.88405" lon="-3.98957">
        <ele>6.5</ele>
        <time>2022-11-12T09:00:06Z</time>
      </trkpt>
      <trkpt lat="47.884" lon="-3.98963">
        <ele>6.5</ele>
        <time>2022-11-12T09:00:07Z</time>
      </trkpt>
      <trkpt lat="47.88395" lon="-3.98968">
        <ele>6.6</ele>
        <time>2022-11-12T09:00:08Z</time>
      </trkpt>
      <trkpt lat="47.88391" lon="-3.98973">
        <ele>6.7</ele>
        <time>2022-11-12T09:00:09Z</time>
      </trkpt>
      <trkpt lat="47.88386" lon="-3.98978">
        <ele>6.8</ele>
        <time>2022-11-12T09:00:10Z</time>
      </trkpt>
      <trkpt lat="47.88381" lon="-3.98983">
        <ele>7</ele>
        <time>2022-11-12T09:00:11Z</time>
      </trkpt>
      <trkpt lat="47.88377" lon="-3.98987">
        <ele>7.2</ele>
        <time>2022-11-12T09:00:12Z</time>
      </trkpt>
      <trkpt lat="47.88372" lon="-3.98991">
        <ele>7.3</ele>
        <time>2022-11-12T09:00:13Z</time>
      </trkpt>
      <trkpt lat="47.88368" lon="-3.98995">
        <ele>7.6</ele>
        <time>2022-11-12T09:00:14Z</time>
      </trkpt>
      <trkpt lat="47.88363" lon="-3.98998">
        <ele>7.9</ele>
        <time>2022-11-12T09:00:15Z</time>
      </trkpt>
      <trkpt lat="47.88359" lon="-3.99001">
        <ele>8.2</ele>
        <time>2022-11-12T09:00:16Z</time>
      </trkpt>
      <trkpt lat="47.88356" lon="-3.99003">
        <ele>8.5</ele>
        <time>2022-11-12T09:00:17Z</time>
      </trkpt>
      <trkpt lat="47.88352" lon="-3.99006">
        <ele>8.7</ele>
        <time>2022-11-12T09:00:18Z</time>
      </trkpt>
      <trkpt lat="47.88349" lon="-3.99008">
        <ele>9</ele>
        <time>2022-11-12T09:00:19Z</time>
      </trkpt>
      <trkpt lat="47.88346" lon="-3.9901">
        <ele>9.3</ele>
        <time>2022-11-12T09:00:20Z</time>
      </trkpt>
      <trkpt lat="47.88342" lon="-3.99012">
        <ele>9.6</ele>
        <time>2022-11-12T09:00:21Z</time>
      </trkpt>
      <trkpt lat="47.88339" lon="-3.99014">
        <ele>9.9</ele>
        <time>2022-11-12T09:00:22Z</time>
      </trkpt>
      <trkpt lat="47.88336" lon="-3.99014">
        <ele>10.2</ele>
        <time>2022-11-12T09:00:23Z</time>
      </trkpt>
      <trkpt lat="47.88333" lon="-3.99015">
        <ele>10.4</ele>
        <time>2022-11-12T09:00:24Z</time>
      </trkpt>
      <trkpt lat="47.88327" lon="-3.99016">
        <ele>10.9</ele>
        <time>2022-11-12T09:00:25Z</time>
      </trkpt>
      <trkpt lat="47.88325" lon="-3.99016">
        <ele>11.2</ele>
        <time>2022-11-12T09:00:26Z</time>
      </trkpt>
      <trkpt lat="47.88323" lon="-3.99016">
        <ele>11.4</ele>
        <time>2022-11-12T09:00:27Z</time>
      </trkpt>
      <trkpt lat="47.8832" lon="-3.99017">
        <ele>11.6</ele>
        <time>2022-11-12T09:00:28Z</time>
      </trkpt>
      <trkpt lat="47.88316" lon="-3.99018">
        <ele>11.9</ele>
        <time>2022-11-12T09:00:29Z</time>
      </trkpt>
      <trkpt lat="47.8831" lon="-3.99019">
        <ele>12.5</ele>
        <time>2022-11-12T09:00:31Z</time>
      </trkpt>
      <trkpt lat="47.88306" lon="-3.9902">
        <ele>12.8</ele>
        <time>2022-11-12T09:00:32Z</time>
      </trkpt>
      <trkpt lat="47.88299" lon="-3.99022">
        <ele>13.4</ele>
        <time>2022-11-12T09:00:34Z</time>
      </trkpt>
      <trkpt lat="47.88296" lon="-3.99022">
        <ele>13.7</ele>
        <time>2022-11-12T09:00:35Z</time>
      </trkpt>
      <trkpt lat="47.88292" lon="-3.99023">
        <ele>14</ele>
        <time>2022-11-12T09:00:36Z</time>
      </trkpt>
      <trkpt lat="47.88289" lon="-3.99025">
        <ele>14.3</ele>
        <time>2022-11-12T09:00:37Z</time>
      </trkpt>
      <trkpt lat="47.88285" lon="-3.99025">
        <ele>14.7</ele>
        <time>2022-11-12T09:00:38Z</time>
      </trkpt>
      <trkpt lat="47.88282" lon="-3.99026">
        <ele>15</ele>
        <time>2022-11-12T09:00:39Z</time>
      </trkpt>
      <trkpt lat="47.88278" lon="-3.99026">
        <ele>15.3</ele>
        <time>2022-11-12T09:00:40Z</time>
      </trkpt>
      <trkpt lat="47.88275" lon="-3.99028">
        <ele>15.6</ele>
        <time>2022-11-12T09:00:41Z</time>
      </trkpt>
      <trkpt lat="47.88272" lon="-3.99029">
        <ele>15.9</ele>
        <time>2022-11-12T09:00:42Z</time>
      </trkpt>
      <trkpt lat="47.88268" lon="-3.9903">
        <ele>16.3</ele>
        <time>2022-11-12T09:00:43Z</time>
      </trkpt>
      <trkpt lat="47.88265" lon="-3.99031">
        <ele>16.6</ele>
        <time>2022-11-12T09:00:44Z</time>
      </trkpt>
      <trkpt lat="47.88262" lon="-3.99033">
        <ele>17</ele>
        <time>2022-11-12T09:00:45Z</time>
      </trkpt>
      <trkpt lat="47.88259" lon="-3.99035">
        <ele>17.4</ele>
        <time>2022-11-12T09:00:46Z</time>
      </trkpt>
      <trkpt lat="47.88256" lon="-3.99037">
        <ele>17.7</ele>
        <time>2022-11-12T09:00:47Z</time>
      </trkpt>
      <trkpt lat="47.88253" lon="-3.9904">
        <ele>18</ele>
        <time>2022-11-12T09:00:48Z</time>
      </trkpt>
      <trkpt lat="47.8825" lon="-3.99043">
        <ele>18.3</ele>
        <time>2022-11-12T09:00:49Z</time>
      </trkpt>
      <trkpt lat="47.88248" lon="-3.99046">
        <ele>18.6</ele>
        <time>2022-11-12T09:00:50Z</time>
      </trkpt>
      <trkpt lat="47.88245" lon="-3.99049">
        <ele>18.8</ele>
        <time>2022-11-12T09:00:51Z</time>
      </trkpt>
      <trkpt lat="47.88243" lon="-3.99053">
        <ele>19.1</ele>
        <time>2022-11-12T09:00:52Z</time>
      </trkpt>
      <trkpt lat="47.8824" lon="-3.99057">
        <ele>19.3</ele>
        <time>2022-11-12T09:00:53Z</time>
      </trkpt>
      <trkpt lat="47.88238" lon="-3.99061">
        <ele>19.5</ele>
        <time>2022-11-12T09:00:54Z</time>
      </trkpt>
      <trkpt lat="47.88236" lon="-3.99065">
        <ele>19.6</ele>
        <time>2022-11-12T09:00:55Z</time>
      </trkpt>
      <trkpt lat="47.88233" lon="-3.99069">
        <ele>19.8</ele>
        <time>2022-11-12T09:00:56Z</time>
      </trkpt>
      <trkpt lat="47.88231" lon="-3.99073">
        <ele>19.9</ele>
        <time>2022-11-12T09:00:57Z</time>
      </trkpt>
      <trkpt lat="47.88228" lon="-3.99078">
        <ele>19.9</ele>
        <time>2022-11-12T09:00:58Z</time>
      </trkpt>
      <trkpt lat="47.88225" lon="-3.99083">
        <ele>20</ele>
        <time>2022-11-12T09:00:59Z</time>
      </trkpt>
      <trkpt lat="47.88222" lon="-3.99088">
        <ele>20</ele>
        <time>2022-11-12T09:01:00Z</time>
      </trkpt>
      <trkpt lat="47.88219" lon="-3.99093">
        <ele>19.9</ele>
        <time>2022-11-12T09:01:01Z</time>
      </trkpt>
      <trkpt lat="47.88216" lon="-3.99098">
        <ele>19.9</ele>
        <time>2022-11-12T09:01:02Z</time>
      </trkpt>
      <trkpt lat="47.88212" lon="-3.99105">
        <ele>19.8</ele>
        <time>2022-11-12T09:01:03Z</time>
      </trkpt>
      <trkpt lat="47.88209" lon="-3.99112">
        <ele>19.7</ele>
        <time>2022-11-12T09:01:04Z</time>
      </trkpt>
      <trkpt lat="47.88207" lon="-3.9912">
        <ele>19.7</ele>
        <time>2022-11-12T09:01:05Z</time>
      </trkpt>
      <trkpt lat="47.88204" lon="-3.99127">
        <ele>19.6</ele>
        <time>2022-11-12T09:01:06Z</time>
      </trkpt>
      <trkpt lat="47.88201" lon="-3.99134">
        <ele>19.5</ele>
        <time>2022-11-12T09:01:07Z</time>
      </trkpt>
      <trkpt lat="47.88197" lon="-3.99142">
        <ele>19.5</ele>
        <time>2022-11-12T09:01:08Z</time>
      </trkpt>
      <trkpt lat="47.88194" lon="-3.9915">
        <ele>19.5</ele>
        <time>2022-11-12T09:01:09Z</time>
      </trkpt>
      <trkpt lat="47.88191" lon="-3.99157">
        <ele>19.4</ele>
        <time>2022-11-12T09:01:10Z</time>
      </trkpt>
      <trkpt lat="47.88188" lon="-3.99166">
        <ele>19.4</ele>
        <time>2022-11-12T09:01:11Z</time>
      </trkpt>
      <trkpt lat="47.88185" lon="-3.99174">
        <ele>19.4</ele>
        <time>2022-11-12T09:01:12Z</time>
      </trkpt>
      <trkpt lat="47.88182" lon="-3.99181">
        <ele>19.4</ele>
        <time>2022-11-12T09:01:13Z</time>
      </trkpt>
      <trkpt lat="47.88179" lon="-3.99189">
        <ele>19.4</ele>
        <time>2022-11-12T09:01:14Z</time>
      </trkpt>
      <trkpt lat="47.88176" lon="-3.99197">
        <ele>19.5</ele>
        <time>2022-11-12T09:01:15Z</time>
      </trkpt>
      <trkpt lat="47.88173" lon="-3.99205">
        <ele>19.5</ele>
        <time>2022-11-12T09:01:16Z</time>
      </trkpt>
      <trkpt lat="47.88171" lon="-3.99213">
        <ele>19.6</ele>
        <time>2022-11-12T09:01:17Z</time>
      </trkpt>
      <trkpt lat="47.88168" lon="-3.99221">
        <ele>19.7</ele>
        <time>2022-11-12T09:01:18Z</time>
      </trkpt>
      <trkpt lat="47.88165" lon="-3.99229">
        <ele>19.8</ele>
        <time>2022-11-12T09:01:19Z</time>
      </trkpt>
      <trkpt lat="47.88163" lon="-3.99236">
        <ele>19.9</ele>
        <time>2022-11-12T09:01:20Z</time>
      </trkpt>
      <trkpt lat="47.8816" lon="-3.99244">
        <ele>20</ele>
        <time>2022-11-12T09:01:21Z</time>
      </trkpt>
      <trkpt lat="47.88158" lon="-3.99252">
        <ele>20.1</ele>
        <time>2022-11-12T09:01:22Z</time>
      </trkpt>
      <trkpt lat="47.88156" lon="-3.99259">
        <ele>20.2</ele>
        <time>2022-11-12T09:01:23Z</time>
      </trkpt>
      <trkpt lat="47.88153" lon="-3.99266">
        <ele>20.3</ele>
        <time>2022-11-12T09:01:24Z</time>
      </trkpt>
      <trkpt lat="47.88151" lon="-3.99273">
        <ele>20.5</ele>
        <time>2022-11-12T09:01:25Z</time>
      </trkpt>
      <trkpt lat="47.88148" lon="-3.99279">
        <ele>20.6</ele>
        <time>2022-11-12T09:01:26Z</time>
      </trkpt>
      <trkpt lat="47.88145" lon="-3.99286">
        <ele>20.8</ele>
        <time>2022-11-12T09:01:27Z</time>
      </trkpt>
      <trkpt lat="47.88141" lon="-3.99292">
        <ele>21</ele>
        <time>2022-11-12T09:01:28Z</time>
      </trkpt>
      <trkpt lat="47.88138" lon="-3.99297">
        <ele>21.2</ele>
        <time>2022-11-12T09:01:29Z</time>
      </trkpt>
      <trkpt lat="47.88135" lon="-3.99303">
        <ele>21.4</ele>
        <time>2022-11-12T09:01:30Z</time>
      </trkpt>
      <trkpt lat="47.88131" lon="-3.99309">
        <ele>21.6</ele>
        <time>2022-11-12T09:01:31Z</time>
      </trkpt>
      <trkpt lat="47.88128" lon="-3.99315">
        <ele>21.8</ele>
        <time>2022-11-12T09:01:32Z</time>
      </trkpt>
      <trkpt lat="47.88126" lon="-3.99321">
        <ele>22</ele>
        <time>2022-11-12T09:01:33Z</time>
      </trkpt>
      <trkpt lat="47.88123" lon="-3.99327">
        <ele>22.2</ele>
        <time>2022-11-12T09:01:34Z</time>
      </trkpt>
      <trkpt lat="47.8812" lon="-3.99333">
        <ele>22.4</ele>
        <time>2022-11-12T09:01:35Z</time>
      </trkpt>
      <trkpt lat="47.88117" lon="-3.99339">
        <ele>22.7</ele>
        <time>2022-11-12T09:01:36Z</time>
      </trkpt>
      <trkpt lat="47.88115" lon="-3.99345">
        <ele>22.9</ele>
        <time>2022-11-12T09:01:37Z</time>
      </trkpt>
      <trkpt lat="47.88112" lon="-3.9935">
        <ele>23.1</ele>
        <time>2022-11-12T09:01:38Z</time>
      </trkpt>
      <trkpt lat="47.88109" lon="-3.99356">
        <ele>23.4</ele>
        <time>2022-11-12T09:01:39Z</time>
      </trkpt>
      <trkpt lat="47.88105" lon="-3.9936">
        <ele>23.6</ele>
        <time>2022-11-12T09:01:40Z</time>
      </trkpt>
      <trkpt lat="47.88102" lon="-3.99365">
        <ele>23.9</ele>
        <time>2022-11-12T09:01:41Z</time>
      </trkpt>
      <trkpt lat="47.88098" lon="-3.99367">
        <ele>24.6</ele>
        <time>2022-11-12T09:01:42Z</time>
      </trkpt>
      <trkpt lat="47.88094" lon="-3.99365">
        <ele>24.7</ele>
        <time>2022-11-12T09:01:43Z</time>
      </trkpt>
      <trkpt lat="47.88092" lon="-3.99363">
        <ele>24.8</ele>
        <time>2022-11-12T09:01:44Z</time>
      </trkpt>
      <trkpt lat="47.88089" lon="-3.99359">
        <ele>25</ele>
        <time>2022-11-12T09:01:45Z</time>
      </trkpt>
      <trkpt lat="47.88086" lon="-3.99354">
        <ele>25.1</ele>
        <time>2022-11-12T09:01:46Z</time>
      </trkpt>
      <trkpt lat="47.88083" lon="-3.99349">
        <ele>25.4</ele>
        <time>2022-11-12T09:01:47Z</time>
      </trkpt>
      <trkpt lat="47.88079" lon="-3.99344">
        <ele>25.6</ele>
        <time>2022-11-12T09:01:48Z</time>
      </trkpt>
      <trkpt lat="47.88076" lon="-3.99339">
        <ele>25.9</ele>
        <time>2022-11-12T09:01:49Z</time>
      </trkpt>
      <trkpt lat="47.88073" lon="-3.99335">
        <ele>26.1</ele>
        <time>2022-11-12T09:01:50Z</time>
      </trkpt>
      <trkpt lat="47.88072" lon="-3.99333">
        <ele>26.2</ele>
        <time>2022-11-12T09:01:51Z</time>
      </trkpt>
      <trkpt lat="47.8807" lon="-3.99331">
        <ele>26.4</ele>
        <time>2022-11-12T09:01:52Z</time>
      </trkpt>
      <trkpt lat="47.88064" lon="-3.99326">
        <ele>26.8</ele>
        <time>2022-11-12T09:01:54Z</time>
      </trkpt>
      <trkpt lat="47.8806" lon="-3.99322">
        <ele>27</ele>
        <time>2022-11-12T09:01:55Z</time>
      </trkpt>
      <trkpt lat="47.88056" lon="-3.99317">
        <ele>27.2</ele>
        <time>2022-11-12T09:01:56Z</time>
      </trkpt>
      <trkpt lat="47.88051" lon="-3.99312">
        <ele>27.5</ele>
        <time>2022-11-12T09:01:57Z</time>
      </trkpt>
      <trkpt lat="47.88048" lon="-3.99309">
        <ele>27.6</ele>
        <time>2022-11-12T09:01:58Z</time>
      </trkpt>
      <trkpt lat="47.88045" lon="-3.99304">
        <ele>27.7</ele>
        <time>2022-11-12T09:01:59Z</time>
      </trkpt>
      <trkpt lat="47.8804" lon="-3.99297">
        <ele>27.9</ele>
        <time>2022-11-12T09:02:01Z</time>
      </trkpt>
      <trkpt lat="47.88037" lon="-3.99292">
        <ele>28</ele>
        <time>2022-11-12T09:02:02Z</time>
      </trkpt>
      <trkpt lat="47.88034" lon="-3.99287">
        <ele>28.1</ele>
        <time>2022-11-12T09:02:03Z</time>
      </trkpt>
      <trkpt lat="47.8803" lon="-3.99278">
        <ele>28.2</ele>
        <time>2022-11-12T09:02:05Z</time>
      </trkpt>
      <trkpt lat="47.88025" lon="-3.99267">
        <ele>28.2</ele>
        <time>2022-11-12T09:02:06Z</time>
      </trkpt>
      <trkpt lat="47.88023" lon="-3.9926">
        <ele>28.2</ele>
        <time>2022-11-12T09:02:07Z</time>
      </trkpt>
      <trkpt lat="47.8802" lon="-3.99253">
        <ele>28.2</ele>
        <time>2022-11-12T09:02:08Z</time>
      </trkpt>
      <trkpt lat="47.88018" lon="-3.99246">
        <ele>28.2</ele>
        <time>2022-11-12T09:02:09Z</time>
      </trkpt>
      <trkpt lat="47.88015" lon="-3.99239">
        <ele>28.2</ele>
        <time>2022-11-12T09:02:10Z</time>
      </trkpt>
      <trkpt lat="47.88013" lon="-3.99233">
        <ele>28.2</ele>
        <time>2022-11-12T09:02:11Z</time>
      </trkpt>
      <trkpt lat="47.8801" lon="-3.99226">
        <ele>28.2</ele>
        <time>2022-11-12T09:02:12Z</time>
      </trkpt>
      <trkpt lat="47.88007" lon="-3.9922">
        <ele>28.1</ele>
        <time>2022-11-12T09:02:13Z</time>
      </trkpt>
      <trkpt lat="47.88004" lon="-3.99214">
        <ele>28.1</ele>
        <time>2022-11-12T09:02:14Z</time>
      </trkpt>
      <trkpt lat="47.88" lon="-3.99208">
        <ele>28.1</ele>
        <time>2022-11-12T09:02:15Z</time>
      </trkpt>
      <trkpt lat="47.87996" lon="-3.99203">
        <ele>28.1</ele>
        <time>2022-11-12T09:02:16Z</time>
      </trkpt>
      <trkpt lat="47.87992" lon="-3.99199">
        <ele>28.1</ele>
        <time>2022-11-12T09:02:17Z</time>
      </trkpt>
      <trkpt lat="47.87988" lon="-3.99193">
        <ele>28</ele>
        <time>2022-11-12T09:02:18Z</time>
      </trkpt>
      <trkpt lat="47.87985" lon="-3.99187">
        <ele>28</ele>
        <time>2022-11-12T09:02:19Z</time>
      </trkpt>
      <trkpt lat="47.87983" lon="-3.99179">
        <ele>27.9</ele>
        <time>2022-11-12T09:02:20Z</time>
      </trkpt>
      <trkpt lat="47.8798" lon="-3.99172">
        <ele>27.9</ele>
        <time>2022-11-12T09:02:21Z</time>
      </trkpt>
      <trkpt lat="47.87977" lon="-3.99166">
        <ele>27.8</ele>
        <time>2022-11-12T09:02:22Z</time>
      </trkpt>
      <trkpt lat="47.87973" lon="-3.99159">
        <ele>27.8</ele>
        <time>2022-11-12T09:02:23Z</time>
      </trkpt>
      <trkpt lat="47.87968" lon="-3.99153">
        <ele>27.8</ele>
        <time>2022-11-12T09:02:24Z</time>
      </trkpt>
      <trkpt lat="47.87964" lon="-3.99148">
        <ele>27.8</ele>
        <time>2022-11-12T09:02:25Z</time>
      </trkpt>
      <trkpt lat="47.87959" lon="-3.99143">
        <ele>27.8</ele>
        <time>2022-11-12T09:02:26Z</time>
      </trkpt>
      <trkpt lat="47.87954" lon="-3.99138">
        <ele>27.9</ele>
        <time>2022-11-12T09:02:27Z</time>
      </trkpt>
      <trkpt lat="47.8795" lon="-3.99135">
        <ele>27.9</ele>
        <time>2022-11-12T09:02:28Z</time>
      </trkpt>
      <trkpt lat="47.87945" lon="-3.99132">
        <ele>28.1</ele>
        <time>2022-11-12T09:02:29Z</time>
      </trkpt>
      <trkpt lat="47.8794" lon="-3.99129">
        <ele>28.2</ele>
        <time>2022-11-12T09:02:30Z</time>
      </trkpt>
      <trkpt lat="47.87935" lon="-3.99126">
        <ele>28.3</ele>
        <time>2022-11-12T09:02:31Z</time>
      </trkpt>
      <trkpt lat="47.8793" lon="-3.99123">
        <ele>28.5</ele>
        <time>2022-11-12T09:02:32Z</time>
      </trkpt>
      <trkpt lat="47.87925" lon="-3.9912">
        <ele>28.6</ele>
        <time>2022-11-12T09:02:33Z</time>
      </trkpt>
      <trkpt lat="47.8792" lon="-3.99118">
        <ele>28.8</ele>
        <time>2022-11-12T09:02:34Z</time>
      </trkpt>
      <trkpt lat="47.87916" lon="-3.99117">
        <ele>29</ele>
        <time>2022-11-12T09:02:35Z</time>
      </trkpt>
      <trkpt lat="47.87911" lon="-3.99116">
        <ele>29.2</ele>
        <time>2022-11-12T09:02:36Z</time>
      </trkpt>
      <trkpt lat="47.87907" lon="-3.99115">
        <ele>29.4</ele>
        <time>2022-11-12T09:02:37Z</time>
      </trkpt>
      <trkpt lat="47.87904" lon="-3.99114">
        <ele>29.6</ele>
        <time>2022-11-12T09:02:38Z</time>
      </trkpt>
      <trkpt lat="47.87899" lon="-3.99114">
        <ele>29.9</ele>
        <time>2022-11-12T09:02:39Z</time>
      </trkpt>
      <trkpt lat="47.87895" lon="-3.99112">
        <ele>30.1</ele>
        <time>2022-11-12T09:02:40Z</time>
      </trkpt>
      <trkpt lat="47.87893" lon="-3.99111">
        <ele>30.2</ele>
        <time>2022-11-12T09:02:41Z</time>
      </trkpt>
      <trkpt lat="47.87888" lon="-3.99109">
        <ele>30.5</ele>
        <time>2022-11-12T09:02:42Z</time>
      </trkpt>
      <trkpt lat="47.87884" lon="-3.99106">
        <ele>30.7</ele>
        <time>2022-11-12T09:02:43Z</time>
      </trkpt>
      <trkpt lat="47.8788" lon="-3.99103">
        <ele>30.9</ele>
        <time>2022-11-12T09:02:44Z</time>
      </trkpt>
      <trkpt lat="47.87877" lon="-3.99099">
        <ele>31.1</ele>
        <time>2022-11-12T09:02:45Z</time>
      </trkpt>
      <trkpt lat="47.87876" lon="-3.99097">
        <ele>31.2</ele>
        <time>2022-11-12T09:02:46Z</time>
      </trkpt>
      <trkpt lat="47.8787" lon="-3.99092">
        <ele>31.4</ele>
        <time>2022-11-12T09:02:47Z</time>
      </trkpt>
      <trkpt lat="47.87867" lon="-3.99086">
        <ele>31.6</ele>
        <time>2022-11-12T09:02:48Z</time>
      </trkpt>
      <trkpt lat="47.87866" lon="-3.99082">
        <ele>31.7</ele>
        <time>2022-11-12T09:02:49Z</time>
      </trkpt>
      <trkpt lat="47.87864" lon="-3.99075">
        <ele>32</ele>
        <time>2022-11-12T09:02:50Z</time>
      </trkpt>
      <trkpt lat="47.87861" lon="-3.99067">
        <ele>32.2</ele>
        <time>2022-11-12T09:02:52Z</time>
      </trkpt>
      <trkpt lat="47.87859" lon="-3.99058">
        <ele>32.4</ele>
        <time>2022-11-12T09:02:53Z</time>
      </trkpt>
      <trkpt lat="47.87857" lon="-3.99052">
        <ele>32.6</ele>
        <time>2022-11-12T09:02:54Z</time>
      </trkpt>
      <trkpt lat="47.87854" lon="-3.99047">
        <ele>32.8</ele>
        <time>2022-11-12T09:02:55Z</time>
      </trkpt>
      <trkpt lat="47.8785" lon="-3.99038">
        <ele>33.1</ele>
        <time>2022-11-12T09:02:57Z</time>
      </trkpt>
      <trkpt lat="47.87846" lon="-3.99031">
        <ele>33.3</ele>
        <time>2022-11-12T09:02:58Z</time>
      </trkpt>
      <trkpt lat="47.87842" lon="-3.99027">
        <ele>33.5</ele>
        <time>2022-11-12T09:02:59Z</time>
      </trkpt>
      <trkpt lat="47.87838" lon="-3.99023">
        <ele>33.6</ele>
        <time>2022-11-12T09:03:00Z</time>
      </trkpt>
      <trkpt lat="47.87834" lon="-3.9902">
        <ele>33.8</ele>
        <time>2022-11-12T09:03:01Z</time>
      </trkpt>
      <trkpt lat="47.87831" lon="-3.99016">
        <ele>33.9</ele>
        <time>2022-11-12T09:03:02Z</time>
      </trkpt>
      <trkpt lat="47.87827" lon="-3.99012">
        <ele>34</ele>
        <time>2022-11-12T09:03:03Z</time>
      </trkpt>
      <trkpt lat="47.87822" lon="-3.99009">
        <ele>34</ele>
        <time>2022-11-12T09:03:04Z</time>
      </trkpt>
      <trkpt lat="47.87818" lon="-3.99006">
        <ele>34.1</ele>
        <time>2022-11-12T09:03:05Z</time>
      </trkpt>
      <trkpt lat="47.87814" lon="-3.99003">
        <ele>34.2</ele>
        <time>2022-11-12T09:03:06Z</time>
      </trkpt>
      <trkpt lat="47.8781" lon="-3.99">
        <ele>34.2</ele>
        <time>2022-11-12T09:03:07Z</time>
      </trkpt>
      <trkpt lat="47.87805" lon="-3.98997">
        <ele>34.3</ele>
        <time>2022-11-12T09:03:08Z</time>
      </trkpt>
      <trkpt lat="47.87801" lon="-3.98994">
        <ele>34.3</ele>
        <time>2022-11-12T09:03:09Z</time>
      </trkpt>
      <trkpt lat="47.87796" lon="-3.98991">
        <ele>34.3</ele>
        <time>2022-11-12T09:03:10Z</time>
      </trkpt>
      <trkpt lat="47.87792" lon="-3.98987">
        <ele>34.4</ele>
        <time>2022-11-12T09:03:11Z</time>
      </trkpt>
      <trkpt lat="47.87788" lon="-3.98984">
        <ele>34.4</ele>
        <time>2022-11-12T09:03:12Z</time>
      </trkpt>
      <trkpt lat="47.87783" lon="-3.98981">
        <ele>34.4</ele>
        <time>2022-11-12T09:03:13Z</time>
      </trkpt>
      <trkpt lat="47.87779" lon="-3.98979">
        <ele>34.4</ele>
        <time>2022-11-12T09:03:14Z</time>
      </trkpt>
      <trkpt lat="47.87774" lon="-3.98977">
        <ele>34.4</ele>
        <time>2022-11-12T09:03:15Z</time>
      </trkpt>
      <trkpt lat="47.87769" lon="-3.98976">
        <ele>34.5</ele>
        <time>2022-11-12T09:03:16Z</time>
      </trkpt>
      <trkpt lat="47.87764" lon="-3.98974">
        <ele>34.5</ele>
        <time>2022-11-12T09:03:17Z</time>
      </trkpt>
      <trkpt lat="47.87759" lon="-3.98973">
        <ele>34.5</ele>
        <time>2022-11-12T09:03:18Z</time>
      </trkpt>
      <trkpt lat="47.87755" lon="-3.98972">
        <ele>34.5</ele>
        <time>2022-11-12T09:03:19Z</time>
      </trkpt>
      <trkpt lat="47.8775" lon="-3.98971">
        <ele>34.4</ele>
        <time>2022-11-12T09:03:20Z</time>
      </trkpt>
      <trkpt lat="47.87745" lon="-3.9897">
        <ele>34.4</ele>
        <time>2022-11-12T09:03:21Z</time>
      </trkpt>
      <trkpt lat="47.8774" lon="-3.98969">
        <ele>34.4</ele>
        <time>2022-11-12T09:03:22Z</time>
      </trkpt>
      <trkpt lat="47.87735" lon="-3.98969">
        <ele>34.3</ele>
        <time>2022-11-12T09:03:23Z</time>
      </trkpt>
      <trkpt lat="47.87729" lon="-3.98969">
        <ele>34.3</ele>
        <time>2022-11-12T09:03:24Z</time>
      </trkpt>
      <trkpt lat="47.87724" lon="-3.98968">
        <ele>34.2</ele>
        <time>2022-11-12T09:03:25Z</time>
      </trkpt>
      <trkpt lat="47.87719" lon="-3.98966">
        <ele>34.1</ele>
        <time>2022-11-12T09:03:26Z</time>
      </trkpt>
      <trkpt lat="47.87714" lon="-3.98966">
        <ele>34.1</ele>
        <time>2022-11-12T09:03:27Z</time>
      </trkpt>
      <trkpt lat="47.87708" lon="-3.98967">
        <ele>34</ele>
        <time>2022-11-12T09:03:28Z</time>
      </trkpt>
      <trkpt lat="47.87703" lon="-3.98967">
        <ele>33.9</ele>
        <time>2022-11-12T09:03:29Z</time>
      </trkpt>
      <trkpt lat="47.87697" lon="-3.98966">
        <ele>33.9</ele>
        <time>2022-11-12T09:03:30Z</time>
      </trkpt>
      <trkpt lat="47.87692" lon="-3.98966">
        <ele>33.8</ele>
        <time>2022-11-12T09:03:31Z</time>
      </trkpt>
      <trkpt lat="47.87686" lon="-3.98966">
        <ele>33.7</ele>
        <time>2022-11-12T09:03:32Z</time>
      </trkpt>
      <trkpt lat="47.8768" lon="-3.98966">
        <ele>33.7</ele>
        <time>2022-11-12T09:03:33Z</time>
      </trkpt>
      <trkpt lat="47.87675" lon="-3.98966">
        <ele>33.6</ele>
        <time>2022-11-12T09:03:34Z</time>
      </trkpt>
      <trkpt lat="47.87669" lon="-3.98965">
        <ele>33.5</ele>
        <time>2022-11-12T09:03:35Z</time>
      </trkpt>
      <trkpt lat="47.87663" lon="-3.98965">
        <ele>33.4</ele>
        <time>2022-11-12T09:03:36Z</time>
      </trkpt>
      <trkpt lat="47.87657" lon="-3.98964">
        <ele>33.3</ele>
        <time>2022-11-12T09:03:37Z</time>
      </trkpt>
      <trkpt lat="47.8765" lon="-3.98962">
        <ele>33.2</ele>
        <time>2022-11-12T09:03:38Z</time>
      </trkpt>
      <trkpt lat="47.87644" lon="-3.98962">
        <ele>33.1</ele>
        <time>2022-11-12T09:03:39Z</time>
      </trkpt>
      <trkpt lat="47.87638" lon="-3.98963">
        <ele>32.9</ele>
        <time>2022-11-12T09:03:40Z</time>
      </trkpt>
      <trkpt lat="47.87632" lon="-3.98963">
        <ele>32.8</ele>
        <time>2022-11-12T09:03:41Z</time>
      </trkpt>
      <trkpt lat="47.87626" lon="-3.98963">
        <ele>32.6</ele>
        <time>2022-11-12T09:03:42Z</time>
      </trkpt>
      <trkpt lat="47.87619" lon="-3.98964">
        <ele>32.4</ele>
        <time>2022-11-12T09:03:43Z</time>
      </trkpt>
      <trkpt lat="47.87612" lon="-3.98964">
        <ele>32.1</ele>
        <time>2022-11-12T09:03:44Z</time>
      </trkpt>
      <trkpt lat="47.87606" lon="-3.98965">
        <ele>31.8</ele>
        <time>2022-11-12T09:03:45Z</time>
      </trkpt>
      <trkpt lat="47.87599" lon="-3.98965">
        <ele>31.6</ele>
        <time>2022-11-12T09:03:46Z</time>
      </trkpt>
      <trkpt lat="47.87592" lon="-3.98965">
        <ele>31.2</ele>
        <time>2022-11-12T09:03:47Z</time>
      </trkpt>
      <trkpt lat="47.87584" lon="-3.98965">
        <ele>30.8</ele>
        <time>2022-11-12T09:03:48Z</time>
      </trkpt>
      <trkpt lat="47.87576" lon="-3.98965">
        <ele>30.3</ele>
        <time>2022-11-12T09:03:49Z</time>
      </trkpt>
      <trkpt lat="47.87569" lon="-3.98967">
        <ele>29.9</ele>
        <time>2022-11-12T09:03:50Z</time>
      </trkpt>
      <trkpt lat="47.87562" lon="-3.98968">
        <ele>29.4</ele>
        <time>2022-11-12T09:03:51Z</time>
      </trkpt>
      <trkpt lat="47.87555" lon="-3.9897">
        <ele>28.9</ele>
        <time>2022-11-12T09:03:52Z</time>
      </trkpt>
      <trkpt lat="47.87548" lon="-3.98974">
        <ele>28.4</ele>
        <time>2022-11-12T09:03:53Z</time>
      </trkpt>
      <trkpt lat="47.8754" lon="-3.98979">
        <ele>27.9</ele>
        <time>2022-11-12T09:03:54Z</time>
      </trkpt>
      <trkpt lat="47.87533" lon="-3.98981">
        <ele>27.5</ele>
        <time>2022-11-12T09:03:55Z</time>
      </trkpt>
      <trkpt lat="47.87527" lon="-3.98982">
        <ele>27.1</ele>
        <time>2022-11-12T09:03:56Z</time>
      </trkpt>
      <trkpt lat="47.87523" lon="-3.98988">
        <ele>26.8</ele>
        <time>2022-11-12T09:03:57Z</time>
      </trkpt>
      <trkpt lat="47.8752" lon="-3.98994">
        <ele>26.6</ele>
        <time>2022-11-12T09:03:58Z</time>
      </trkpt>
      <trkpt lat="47.87517" lon="-3.99002">
        <ele>26.4</ele>
        <time>2022-11-12T09:03:59Z</time>
      </trkpt>
      <trkpt lat="47.87514" lon="-3.99009">
        <ele>26.2</ele>
        <time>2022-11-12T09:04:00Z</time>
      </trkpt>
      <trkpt lat="47.8751" lon="-3.99014">
        <ele>26.1</ele>
        <time>2022-11-12T09:04:01Z</time>
      </trkpt>
      <trkpt lat="47.87505" lon="-3.99014">
        <ele>25.9</ele>
        <time>2022-11-12T09:04:02Z</time>
      </trkpt>
      <trkpt lat="47.87501" lon="-3.99009">
        <ele>25.6</ele>
        <time>2022-11-12T09:04:03Z</time>
      </trkpt>
      <trkpt lat="47.87498" lon="-3.99002">
        <ele>25.3</ele>
        <time>2022-11-12T09:04:04Z</time>
      </trkpt>
      <trkpt lat="47.87495" lon="-3.98997">
        <ele>25</ele>
        <time>2022-11-12T09:04:05Z</time>
      </trkpt>
      <trkpt lat="47.87491" lon="-3.98991">
        <ele>24.6</ele>
        <time>2022-11-12T09:04:06Z</time>
      </trkpt>
      <trkpt lat="47.87485" lon="-3.98986">
        <ele>24.1</ele>
        <time>2022-11-12T09:04:07Z</time>
      </trkpt>
      <trkpt lat="47.87478" lon="-3.98981">
        <ele>23.6</ele>
        <time>2022-11-12T09:04:08Z</time>
      </trkpt>
      <trkpt lat="47.8747" lon="-3.98978">
        <ele>23</ele>
        <time>2022-11-12T09:04:09Z</time>
      </trkpt>
      <trkpt lat="47.87463" lon="-3.98974">
        <ele>22.5</ele>
        <time>2022-11-12T09:04:10Z</time>
      </trkpt>
      <trkpt lat="47.87455" lon="-3.98969">
        <ele>21.9</ele>
        <time>2022-11-12T09:04:11Z</time>
      </trkpt>
      <trkpt lat="47.87446" lon="-3.98962">
        <ele>21.3</ele>
        <time>2022-11-12T09:04:12Z</time>
      </trkpt>
      <trkpt lat="47.8744" lon="-3.98955">
        <ele>20.9</ele>
        <time>2022-11-12T09:04:13Z</time>
      </trkpt>
      <trkpt lat="47.87436" lon="-3.98947">
        <ele>20.6</ele>
        <time>2022-11-12T09:04:14Z</time>
      </trkpt>
      <trkpt lat="47.8743" lon="-3.98942">
        <ele>20.4</ele>
        <time>2022-11-12T09:04:15Z</time>
      </trkpt>
      <trkpt lat="47.87426" lon="-3.98943">
        <ele>20.3</ele>
        <time>2022-11-12T09:04:16Z</time>
      </trkpt>
      <trkpt lat="47.87421" lon="-3.98944">
        <ele>20.2</ele>
        <time>2022-11-12T09:04:17Z</time>
      </trkpt>
      <trkpt lat="47.87416" lon="-3.98945">
        <ele>20.2</ele>
        <time>2022-11-12T09:04:18Z</time>
      </trkpt>
      <trkpt lat="47.87411" lon="-3.98948">
        <ele>20.1</ele>
        <time>2022-11-12T09:04:19Z</time>
      </trkpt>
      <trkpt lat="47.87406" lon="-3.98949">
        <ele>20</ele>
        <time>2022-11-12T09:04:20Z</time>
      </trkpt>
      <trkpt lat="47.87401" lon="-3.9895">
        <ele>19.9</ele>
        <time>2022-11-12T09:04:21Z</time>
      </trkpt>
      <trkpt lat="47.87395" lon="-3.9895">
        <ele>19.8</ele>
        <time>2022-11-12T09:04:22Z</time>
      </trkpt>
      <trkpt lat="47.87391" lon="-3.98951">
        <ele>19.7</ele>
        <time>2022-11-12T09:04:23Z</time>
      </trkpt>
      <trkpt lat="47.87387" lon="-3.98951">
        <ele>19.6</ele>
        <time>2022-11-12T09:04:24Z</time>
      </trkpt>
      <trkpt lat="47.87378" lon="-3.9895">
        <ele>19.3</ele>
        <time>2022-11-12T09:04:25Z</time>
      </trkpt>
      <trkpt lat="47.87367" lon="-3.9895">
        <ele>18.9</ele>
        <time>2022-11-12T09:04:26Z</time>
      </trkpt>
      <trkpt lat="47.87358" lon="-3.98949">
        <ele>18.5</ele>
        <time>2022-11-12T09:04:27Z</time>
      </trkpt>
      <trkpt lat="47.87351" lon="-3.98949">
        <ele>18.2</ele>
        <time>2022-11-12T09:04:28Z</time>
      </trkpt>
      <trkpt lat="47.87345" lon="-3.9895">
        <ele>17.9</ele>
        <time>2022-11-12T09:04:29Z</time>
      </trkpt>
      <trkpt lat="47.87338" lon="-3.9895">
        <ele>17.7</ele>
        <time>2022-11-12T09:04:30Z</time>
      </trkpt>
      <trkpt lat="47.87332" lon="-3.98949">
        <ele>17.4</ele>
        <time>2022-11-12T09:04:31Z</time>
      </trkpt>
      <trkpt lat="47.87325" lon="-3.98947">
        <ele>17.2</ele>
        <time>2022-11-12T09:04:32Z</time>
      </trkpt>
      <trkpt lat="47.87318" lon="-3.98945">
        <ele>17</ele>
        <time>2022-11-12T09:04:33Z</time>
      </trkpt>
      <trkpt lat="47.8731" lon="-3.98942">
        <ele>16.8</ele>
        <time>2022-11-12T09:04:34Z</time>
      </trkpt>
      <trkpt lat="47.87303" lon="-3.9894">
        <ele>16.6</ele>
        <time>2022-11-12T09:04:35Z</time>
      </trkpt>
      <trkpt lat="47.87296" lon="-3.98938">
        <ele>16.5</ele>
        <time>2022-11-12T09:04:36Z</time>
      </trkpt>
      <trkpt lat="47.8729" lon="-3.98936">
        <ele>16.4</ele>
        <time>2022-11-12T09:04:37Z</time>
      </trkpt>
      <trkpt lat="47.87283" lon="-3.98934">
        <ele>16.3</ele>
        <time>2022-11-12T09:04:38Z</time>
      </trkpt>
      <trkpt lat="47.87278" lon="-3.98931">
        <ele>16.2</ele>
        <time>2022-11-12T09:04:39Z</time>
      </trkpt>
      <trkpt lat="47.87272" lon="-3.98927">
        <ele>16.1</ele>
        <time>2022-11-12T09:04:40Z</time>
      </trkpt>
      <trkpt lat="47.87266" lon="-3.98924">
        <ele>16.1</ele>
        <time>2022-11-12T09:04:41Z</time>
      </trkpt>
      <trkpt lat="47.8726" lon="-3.9892">
        <ele>15.9</ele>
        <time>2022-11-12T09:04:42Z</time>
      </trkpt>
      <trkpt lat="47.87254" lon="-3.98916">
        <ele>15.7</ele>
        <time>2022-11-12T09:04:43Z</time>
      </trkpt>
      <trkpt lat="47.8725" lon="-3.98912">
        <ele>15.6</ele>
        <time>2022-11-12T09:04:44Z</time>
      </trkpt>
      <trkpt lat="47.87244" lon="-3.98909">
        <ele>15.3</ele>
        <time>2022-11-12T09:04:45Z</time>
      </trkpt>
      <trkpt lat="47.87237" lon="-3.98905">
        <ele>14.9</ele>
        <time>2022-11-12T09:04:46Z</time>
      </trkpt>
      <trkpt lat="47.8723" lon="-3.98903">
        <ele>14.5</ele>
        <time>2022-11-12T09:04:47Z</time>
      </trkpt>
      <trkpt lat="47.87222" lon="-3.98902">
        <ele>14</ele>
        <time>2022-11-12T09:04:48Z</time>
      </trkpt>
      <trkpt lat="47.87214" lon="-3.98904">
        <ele>13.5</ele>
        <time>2022-11-12T09:04:49Z</time>
      </trkpt>
      <trkpt lat="47.87207" lon="-3.98907">
        <ele>13.2</ele>
        <time>2022-11-12T09:04:50Z</time>
      </trkpt>
      <trkpt lat="47.87199" lon="-3.98911">
        <ele>12.9</ele>
        <time>2022-11-12T09:04:51Z</time>
      </trkpt>
      <trkpt lat="47.8719" lon="-3.98913">
        <ele>12.7</ele>
        <time>2022-11-12T09:04:52Z</time>
      </trkpt>
      <trkpt lat="47.87182" lon="-3.98909">
        <ele>12.8</ele>
        <time>2022-11-12T09:04:53Z</time>
      </trkpt>
      <trkpt lat="47.87176" lon="-3.98902">
        <ele>13</ele>
        <time>2022-11-12T09:04:54Z</time>
      </trkpt>
      <trkpt lat="47.87173" lon="-3.98894">
        <ele>13.3</ele>
        <time>2022-11-12T09:04:55Z</time>
      </trkpt>
      <trkpt lat="47.87169" lon="-3.98886">
        <ele>13.7</ele>
        <time>2022-11-12T09:04:56Z</time>
      </trkpt>
      <trkpt lat="47.87166" lon="-3.98878">
        <ele>14</ele>
        <time>2022-11-12T09:04:57Z</time>
      </trkpt>
      <trkpt lat="47.87164" lon="-3.98871">
        <ele>14.5</ele>
        <time>2022-11-12T09:04:58Z</time>
      </trkpt>
      <trkpt lat="47.87161" lon="-3.98865">
        <ele>14.8</ele>
        <time>2022-11-12T09:04:59Z</time>
      </trkpt>
      <trkpt lat="47.87159" lon="-3.98861">
        <ele>15.2</ele>
        <time>2022-11-12T09:05:00Z</time>
      </trkpt>
      <trkpt lat="47.87156" lon="-3.98857">
        <ele>15.5</ele>
        <time>2022-11-12T09:05:01Z</time>
      </trkpt>
      <trkpt lat="47.87153" lon="-3.98851">
        <ele>15.9</ele>
        <time>2022-11-12T09:05:02Z</time>
      </trkpt>
      <trkpt lat="47.87151" lon="-3.98846">
        <ele>16.2</ele>
        <time>2022-11-12T09:05:03Z</time>
      </trkpt>
      <trkpt lat="47.87147" lon="-3.98844">
        <ele>16.4</ele>
        <time>2022-11-12T09:05:04Z</time>
      </trkpt>
      <trkpt lat="47.87145" lon="-3.98843">
        <ele>16.6</ele>
        <time>2022-11-12T09:05:05Z</time>
      </trkpt>
      <trkpt lat="47.87142" lon="-3.98844">
        <ele>17.2</ele>
        <time>2022-11-12T09:05:06Z</time>
      </trkpt>
      <trkpt lat="47.8714" lon="-3.98854">
        <ele>17.2</ele>
        <time>2022-11-12T09:05:07Z</time>
      </trkpt>
      <trkpt lat="47.87139" lon="-3.98861">
        <ele>17.3</ele>
        <time>2022-11-12T09:05:08Z</time>
      </trkpt>
      <trkpt lat="47.87139" lon="-3.98869">
        <ele>17.3</ele>
        <time>2022-11-12T09:05:09Z</time>
      </trkpt>
      <trkpt lat="47.87139" lon="-3.98877">
        <ele>17.3</ele>
        <time>2022-11-12T09:05:10Z</time>
      </trkpt>
      <trkpt lat="47.87138" lon="-3.98885">
        <ele>17.3</ele>
        <time>2022-11-12T09:05:11Z</time>
      </trkpt>
      <trkpt lat="47.87138" lon="-3.98893">
        <ele>17.3</ele>
        <time>2022-11-12T09:05:12Z</time>
      </trkpt>
      <trkpt lat="47.87138" lon="-3.98901">
        <ele>17.3</ele>
        <time>2022-11-12T09:05:13Z</time>
      </trkpt>
      <trkpt lat="47.87137" lon="-3.9891">
        <ele>17.4</ele>
        <time>2022-11-12T09:05:14Z</time>
      </trkpt>
      <trkpt lat="47.87136" lon="-3.98918">
        <ele>17.6</ele>
        <time>2022-11-12T09:05:15Z</time>
      </trkpt>
      <trkpt lat="47.87135" lon="-3.98925">
        <ele>17.8</ele>
        <time>2022-11-12T09:05:16Z</time>
      </trkpt>
      <trkpt lat="47.87134" lon="-3.98933">
        <ele>18</ele>
        <time>2022-11-12T09:05:17Z</time>
      </trkpt>
      <trkpt lat="47.87133" lon="-3.9894">
        <ele>18.2</ele>
        <time>2022-11-12T09:05:18Z</time>
      </trkpt>
      <trkpt lat="47.87131" lon="-3.98947">
        <ele>18.5</ele>
        <time>2022-11-12T09:05:19Z</time>
      </trkpt>
      <trkpt lat="47.8713" lon="-3.98954">
        <ele>18.8</ele>
        <time>2022-11-12T09:05:20Z</time>
      </trkpt>
      <trkpt lat="47.8713" lon="-3.98959">
        <ele>19</ele>
        <time>2022-11-12T09:05:21Z</time>
      </trkpt>
      <trkpt lat="47.87129" lon="-3.98963">
        <ele>19.2</ele>
        <time>2022-11-12T09:05:22Z</time>
      </trkpt>
      <trkpt lat="47.87128" lon="-3.9897">
        <ele>19.4</ele>
        <time>2022-11-12T09:05:23Z</time>
      </trkpt>
      <trkpt lat="47.87127" lon="-3.98976">
        <ele>19.7</ele>
        <time>2022-11-12T09:05:24Z</time>
      </trkpt>
      <trkpt lat="47.87126" lon="-3.98983">
        <ele>20</ele>
        <time>2022-11-12T09:05:25Z</time>
      </trkpt>
      <trkpt lat="47.87125" lon="-3.98989">
        <ele>20.2</ele>
        <time>2022-11-12T09:05:26Z</time>
      </trkpt>
      <trkpt lat="47.87125" lon="-3.98993">
        <ele>20.3</ele>
        <time>2022-11-12T09:05:27Z</time>
      </trkpt>
      <trkpt lat="47.87123" lon="-3.99002">
        <ele>20.7</ele>
        <time>2022-11-12T09:05:29Z</time>
      </trkpt>
      <trkpt lat="47.87122" lon="-3.99011">
        <ele>21</ele>
        <time>2022-11-12T09:05:30Z</time>
      </trkpt>
      <trkpt lat="47.87121" lon="-3.99017">
        <ele>21.2</ele>
        <time>2022-11-12T09:05:31Z</time>
      </trkpt>
      <trkpt lat="47.8712" lon="-3.99023">
        <ele>21.4</ele>
        <time>2022-11-12T09:05:32Z</time>
      </trkpt>
      <trkpt lat="47.8712" lon="-3.99028">
        <ele>21.5</ele>
        <time>2022-11-12T09:05:33Z</time>
      </trkpt>
      <trkpt lat="47.87119" lon="-3.99035">
        <ele>21.7</ele>
        <time>2022-11-12T09:05:34Z</time>
      </trkpt>
      <trkpt lat="47.87119" lon="-3.99046">
        <ele>22</ele>
        <time>2022-11-12T09:05:36Z</time>
      </trkpt>
      <trkpt lat="47.87119" lon="-3.99055">
        <ele>22.2</ele>
        <time>2022-11-12T09:05:37Z</time>
      </trkpt>
      <trkpt lat="47.87119" lon="-3.99061">
        <ele>22.3</ele>
        <time>2022-11-12T09:05:38Z</time>
      </trkpt>
      <trkpt lat="47.87119" lon="-3.99068">
        <ele>22.5</ele>
        <time>2022-11-12T09:05:39Z</time>
      </trkpt>
      <trkpt lat="47.87119" lon="-3.99076">
        <ele>22.6</ele>
        <time>2022-11-12T09:05:41Z</time>
      </trkpt>
      <trkpt lat="47.87119" lon="-3.99083">
        <ele>22.8</ele>
        <time>2022-11-12T09:05:42Z</time>
      </trkpt>
      <trkpt lat="47.87119" lon="-3.99092">
        <ele>23</ele>
        <time>2022-11-12T09:05:43Z</time>
      </trkpt>
      <trkpt lat="47.8712" lon="-3.99099">
        <ele>23.1</ele>
        <time>2022-11-12T09:05:44Z</time>
      </trkpt>
      <trkpt lat="47.8712" lon="-3.99106">
        <ele>23.2</ele>
        <time>2022-11-12T09:05:45Z</time>
      </trkpt>
      <trkpt lat="47.87121" lon="-3.99112">
        <ele>23.4</ele>
        <time>2022-11-12T09:05:46Z</time>
      </trkpt>
      <trkpt lat="47.87122" lon="-3.99122">
        <ele>23.6</ele>
        <time>2022-11-12T09:05:48Z</time>
      </trkpt>
      <trkpt lat="47.87122" lon="-3.99128">
        <ele>23.8</ele>
        <time>2022-11-12T09:05:49Z</time>
      </trkpt>
      <trkpt lat="47.87122" lon="-3.99134">
        <ele>23.9</ele>
        <time>2022-11-12T09:05:50Z</time>
      </trkpt>
      <trkpt lat="47.87123" lon="-3.99143">
        <ele>24.1</ele>
        <time>2022-11-12T09:05:51Z</time>
      </trkpt>
      <trkpt lat="47.87124" lon="-3.99151">
        <ele>24.3</ele>
        <time>2022-11-12T09:05:52Z</time>
      </trkpt>
      <trkpt lat="47.87125" lon="-3.99157">
        <ele>24.5</ele>
        <time>2022-11-12T09:05:53Z</time>
      </trkpt>
      <trkpt lat="47.87126" lon="-3.99164">
        <ele>24.6</ele>
        <time>2022-11-12T09:05:54Z</time>
      </trkpt>
      <trkpt lat="47.87127" lon="-3.9917">
        <ele>24.8</ele>
        <time>2022-11-12T09:05:55Z</time>
      </trkpt>
      <trkpt lat="47.87127" lon="-3.99177">
        <ele>24.9</ele>
        <time>2022-11-12T09:05:56Z</time>
      </trkpt>
      <trkpt lat="47.87128" lon="-3.99184">
        <ele>25.1</ele>
        <time>2022-11-12T09:05:57Z</time>
      </trkpt>
      <trkpt lat="47.87128" lon="-3.99191">
        <ele>25.3</ele>
        <time>2022-11-12T09:05:58Z</time>
      </trkpt>
      <trkpt lat="47.87128" lon="-3.99198">
        <ele>25.4</ele>
        <time>2022-11-12T09:05:59Z</time>
      </trkpt>
      <trkpt lat="47.87129" lon="-3.99204">
        <ele>25.6</ele>
        <time>2022-11-12T09:06:00Z</time>
      </trkpt>
      <trkpt lat="47.87129" lon="-3.99209">
        <ele>25.7</ele>
        <time>2022-11-12T09:06:01Z</time>
      </trkpt>
      <trkpt lat="47.87129" lon="-3.99214">
        <ele>25.8</ele>
        <time>2022-11-12T09:06:02Z</time>
      </trkpt>
      <trkpt lat="47.87129" lon="-3.99222">
        <ele>26</ele>
        <time>2022-11-12T09:06:03Z</time>
      </trkpt>
      <trkpt lat="47.87128" lon="-3.9923">
        <ele>26.1</ele>
        <time>2022-11-12T09:06:04Z</time>
      </trkpt>
      <trkpt lat="47.87128" lon="-3.99235">
        <ele>26.2</ele>
        <time>2022-11-12T09:06:05Z</time>
      </trkpt>
      <trkpt lat="47.87128" lon="-3.99241">
        <ele>26.3</ele>
        <time>2022-11-12T09:06:06Z</time>
      </trkpt>
      <trkpt lat="47.87128" lon="-3.99248">
        <ele>26.5</ele>
        <time>2022-11-12T09:06:08Z</time>
      </trkpt>
      <trkpt lat="47.87127" lon="-3.99255">
        <ele>26.6</ele>
        <time>2022-11-12T09:06:09Z</time>
      </trkpt>
      <trkpt lat="47.87127" lon="-3.99262">
        <ele>26.6</ele>
        <time>2022-11-12T09:06:10Z</time>
      </trkpt>
      <trkpt lat="47.87128" lon="-3.99268">
        <ele>26.7</ele>
        <time>2022-11-12T09:06:11Z</time>
      </trkpt>
      <trkpt lat="47.87128" lon="-3.99277">
        <ele>26.8</ele>
        <time>2022-11-12T09:06:13Z</time>
      </trkpt>
      <trkpt lat="47.87128" lon="-3.99286">
        <ele>26.9</ele>
        <time>2022-11-12T09:06:14Z</time>
      </trkpt>
      <trkpt lat="47.87125" lon="-3.99291">
        <ele>27.1</ele>
        <time>2022-11-12T09:06:15Z</time>
      </trkpt>
      <trkpt lat="47.87119" lon="-3.99294">
        <ele>27.2</ele>
        <time>2022-11-12T09:06:16Z</time>
      </trkpt>
      <trkpt lat="47.87114" lon="-3.99293">
        <ele>27.3</ele>
        <time>2022-11-12T09:06:17Z</time>
      </trkpt>
      <trkpt lat="47.8711" lon="-3.99292">
        <ele>27.3</ele>
        <time>2022-11-12T09:06:18Z</time>
      </trkpt>
      <trkpt lat="47.87106" lon="-3.99291">
        <ele>27.4</ele>
        <time>2022-11-12T09:06:19Z</time>
      </trkpt>
      <trkpt lat="47.87101" lon="-3.9929">
        <ele>27.4</ele>
        <time>2022-11-12T09:06:20Z</time>
      </trkpt>
      <trkpt lat="47.87097" lon="-3.9929">
        <ele>27.5</ele>
        <time>2022-11-12T09:06:21Z</time>
      </trkpt>
      <trkpt lat="47.87091" lon="-3.99288">
        <ele>27.5</ele>
        <time>2022-11-12T09:06:22Z</time>
      </trkpt>
      <trkpt lat="47.87086" lon="-3.99286">
        <ele>27.6</ele>
        <time>2022-11-12T09:06:23Z</time>
      </trkpt>
      <trkpt lat="47.87081" lon="-3.99284">
        <ele>27.6</ele>
        <time>2022-11-12T09:06:24Z</time>
      </trkpt>
      <trkpt lat="47.87077" lon="-3.99282">
        <ele>27.6</ele>
        <time>2022-11-12T09:06:25Z</time>
      </trkpt>
      <trkpt lat="47.87072" lon="-3.9928">
        <ele>27.6</ele>
        <time>2022-11-12T09:06:26Z</time>
      </trkpt>
      <trkpt lat="47.87067" lon="-3.99278">
        <ele>27.6</ele>
        <time>2022-11-12T09:06:27Z</time>
      </trkpt>
      <trkpt lat="47.87062" lon="-3.99276">
        <ele>27.6</ele>
        <time>2022-11-12T09:06:28Z</time>
      </trkpt>
      <trkpt lat="47.87058" lon="-3.99275">
        <ele>27.5</ele>
        <time>2022-11-12T09:06:29Z</time>
      </trkpt>
      <trkpt lat="47.87053" lon="-3.99273">
        <ele>27.5</ele>
        <time>2022-11-12T09:06:30Z</time>
      </trkpt>
      <trkpt lat="47.87048" lon="-3.99271">
        <ele>27.4</ele>
        <time>2022-11-12T09:06:31Z</time>
      </trkpt>
      <trkpt lat="47.87043" lon="-3.99269">
        <ele>27.4</ele>
        <time>2022-11-12T09:06:32Z</time>
      </trkpt>
      <trkpt lat="47.87038" lon="-3.99266">
        <ele>27.3</ele>
        <time>2022-11-12T09:06:33Z</time>
      </trkpt>
      <trkpt lat="47.87032" lon="-3.99264">
        <ele>27.2</ele>
        <time>2022-11-12T09:06:34Z</time>
      </trkpt>
      <trkpt lat="47.87027" lon="-3.99263">
        <ele>27.1</ele>
        <time>2022-11-12T09:06:35Z</time>
      </trkpt>
      <trkpt lat="47.87022" lon="-3.99261">
        <ele>27</ele>
        <time>2022-11-12T09:06:36Z</time>
      </trkpt>
      <trkpt lat="47.87016" lon="-3.99259">
        <ele>26.9</ele>
        <time>2022-11-12T09:06:37Z</time>
      </trkpt>
      <trkpt lat="47.87011" lon="-3.99258">
        <ele>26.8</ele>
        <time>2022-11-12T09:06:38Z</time>
      </trkpt>
      <trkpt lat="47.87006" lon="-3.99256">
        <ele>26.7</ele>
        <time>2022-11-12T09:06:39Z</time>
      </trkpt>
      <trkpt lat="47.87001" lon="-3.99254">
        <ele>26.6</ele>
        <time>2022-11-12T09:06:40Z</time>
      </trkpt>
      <trkpt lat="47.86995" lon="-3.99252">
        <ele>26.5</ele>
        <time>2022-11-12T09:06:41Z</time>
      </trkpt>
      <trkpt lat="47.8699" lon="-3.9925">
        <ele>26.4</ele>
        <time>2022-11-12T09:06:42Z</time>
      </trkpt>
      <trkpt lat="47.86984" lon="-3.99247">
        <ele>26.3</ele>
        <time>2022-11-12T09:06:43Z</time>
      </trkpt>
      <trkpt lat="47.86979" lon="-3.99245">
        <ele>26.2</ele>
        <time>2022-11-12T09:06:44Z</time>
      </trkpt>
      <trkpt lat="47.86973" lon="-3.99242">
        <ele>26.1</ele>
        <time>2022-11-12T09:06:45Z</time>
      </trkpt>
      <trkpt lat="47.86968" lon="-3.9924">
        <ele>26</ele>
        <time>2022-11-12T09:06:46Z</time>
      </trkpt>
      <trkpt lat="47.86963" lon="-3.9924">
        <ele>26</ele>
        <time>2022-11-12T09:06:47Z</time>
      </trkpt>
      <trkpt lat="47.86958" lon="-3.99244">
        <ele>25.9</ele>
        <time>2022-11-12T09:06:48Z</time>
      </trkpt>
      <trkpt lat="47.86956" lon="-3.99251">
        <ele>25.9</ele>
        <time>2022-11-12T09:06:49Z</time>
      </trkpt>
      <trkpt lat="47.86955" lon="-3.99258">
        <ele>25.9</ele>
        <time>2022-11-12T09:06:50Z</time>
      </trkpt>
      <trkpt lat="47.86956" lon="-3.99266">
        <ele>25.9</ele>
        <time>2022-11-12T09:06:51Z</time>
      </trkpt>
      <trkpt lat="47.86957" lon="-3.99274">
        <ele>25.9</ele>
        <time>2022-11-12T09:06:52Z</time>
      </trkpt>
      <trkpt lat="47.86959" lon="-3.99282">
        <ele>25.9</ele>
        <time>2022-11-12T09:06:53Z</time>
      </trkpt>
      <trkpt lat="47.8696" lon="-3.9929">
        <ele>25.9</ele>
        <time>2022-11-12T09:06:54Z</time>
      </trkpt>
      <trkpt lat="47.86961" lon="-3.99298">
        <ele>25.9</ele>
        <time>2022-11-12T09:06:55Z</time>
      </trkpt>
      <trkpt lat="47.86962" lon="-3.99307">
        <ele>25.9</ele>
        <time>2022-11-12T09:06:56Z</time>
      </trkpt>
      <trkpt lat="47.86963" lon="-3.99315">
        <ele>25.9</ele>
        <time>2022-11-12T09:06:57Z</time>
      </trkpt>
      <trkpt lat="47.86965" lon="-3.99323">
        <ele>25.9</ele>
        <time>2022-11-12T09:06:58Z</time>
      </trkpt>
      <trkpt lat="47.86966" lon="-3.99331">
        <ele>25.9</ele>
        <time>2022-11-12T09:06:59Z</time>
      </trkpt>
      <trkpt lat="47.86967" lon="-3.9934">
        <ele>25.9</ele>
        <time>2022-11-12T09:07:00Z</time>
      </trkpt>
      <trkpt lat="47.86969" lon="-3.99348">
        <ele>25.9</ele>
        <time>2022-11-12T09:07:01Z</time>
      </trkpt>
      <trkpt lat="47.8697" lon="-3.99357">
        <ele>25.9</ele>
        <time>2022-11-12T09:07:02Z</time>
      </trkpt>
      <trkpt lat="47.86971" lon="-3.99366">
        <ele>25.9</ele>
        <time>2022-11-12T09:07:03Z</time>
      </trkpt>
      <trkpt lat="47.86971" lon="-3.99374">
        <ele>26</ele>
        <time>2022-11-12T09:07:04Z</time>
      </trkpt>
      <trkpt lat="47.86972" lon="-3.99383">
        <ele>26.1</ele>
        <time>2022-11-12T09:07:05Z</time>
      </trkpt>
      <trkpt lat="47.86972" lon="-3.99391">
        <ele>26.2</ele>
        <time>2022-11-12T09:07:06Z</time>
      </trkpt>
      <trkpt lat="47.86973" lon="-3.99399">
        <ele>26.2</ele>
        <time>2022-11-12T09:07:07Z</time>
      </trkpt>
      <trkpt lat="47.86973" lon="-3.99407">
        <ele>26.3</ele>
        <time>2022-11-12T09:07:08Z</time>
      </trkpt>
      <trkpt lat="47.86973" lon="-3.99413">
        <ele>26.4</ele>
        <time>2022-11-12T09:07:09Z</time>
      </trkpt>
      <trkpt lat="47.86972" lon="-3.99417">
        <ele>26.4</ele>
        <time>2022-11-12T09:07:10Z</time>
      </trkpt>
      <trkpt lat="47.86972" lon="-3.99419">
        <ele>26.4</ele>
        <time>2022-11-12T09:07:11Z</time>
      </trkpt>
      <trkpt lat="47.86969" lon="-3.99422">
        <ele>26.5</ele>
        <time>2022-11-12T09:07:12Z</time>
      </trkpt>
      <trkpt lat="47.86968" lon="-3.99423">
        <ele>26.4</ele>
        <time>2022-11-12T09:07:13Z</time>
      </trkpt>
      <trkpt lat="47.86964" lon="-3.99426">
        <ele>26.4</ele>
        <time>2022-11-12T09:07:14Z</time>
      </trkpt>
      <trkpt lat="47.86962" lon="-3.99427">
        <ele>26.3</ele>
        <time>2022-11-12T09:07:15Z</time>
      </trkpt>
      <trkpt lat="47.86957" lon="-3.99429">
        <ele>26.3</ele>
        <time>2022-11-12T09:07:16Z</time>
      </trkpt>
      <trkpt lat="47.86951" lon="-3.9943">
        <ele>26.2</ele>
        <time>2022-11-12T09:07:17Z</time>
      </trkpt>
      <trkpt lat="47.86946" lon="-3.9943">
        <ele>26.1</ele>
        <time>2022-11-12T09:07:18Z</time>
      </trkpt>
      <trkpt lat="47.8694" lon="-3.99429">
        <ele>26</ele>
        <time>2022-11-12T09:07:19Z</time>
      </trkpt>
      <trkpt lat="47.86935" lon="-3.99428">
        <ele>25.9</ele>
        <time>2022-11-12T09:07:20Z</time>
      </trkpt>
      <trkpt lat="47.8693" lon="-3.99427">
        <ele>25.8</ele>
        <time>2022-11-12T09:07:21Z</time>
      </trkpt>
      <trkpt lat="47.86923" lon="-3.99426">
        <ele>25.7</ele>
        <time>2022-11-12T09:07:22Z</time>
      </trkpt>
      <trkpt lat="47.86917" lon="-3.99424">
        <ele>25.6</ele>
        <time>2022-11-12T09:07:23Z</time>
      </trkpt>
      <trkpt lat="47.86911" lon="-3.99423">
        <ele>25.5</ele>
        <time>2022-11-12T09:07:24Z</time>
      </trkpt>
      <trkpt lat="47.86905" lon="-3.99421">
        <ele>25.4</ele>
        <time>2022-11-12T09:07:25Z</time>
      </trkpt>
      <trkpt lat="47.86899" lon="-3.99419">
        <ele>25.3</ele>
        <time>2022-11-12T09:07:26Z</time>
      </trkpt>
      <trkpt lat="47.86893" lon="-3.99418">
        <ele>25.2</ele>
        <time>2022-11-12T09:07:27Z</time>
      </trkpt>
      <trkpt lat="47.86887" lon="-3.99416">
        <ele>25</ele>
        <time>2022-11-12T09:07:28Z</time>
      </trkpt>
      <trkpt lat="47.86881" lon="-3.99413">
        <ele>24.9</ele>
        <time>2022-11-12T09:07:29Z</time>
      </trkpt>
      <trkpt lat="47.86875" lon="-3.99411">
        <ele>24.8</ele>
        <time>2022-11-12T09:07:30Z</time>
      </trkpt>
      <trkpt lat="47.86868" lon="-3.99409">
        <ele>24.6</ele>
        <time>2022-11-12T09:07:31Z</time>
      </trkpt>
      <trkpt lat="47.86862" lon="-3.99407">
        <ele>24.5</ele>
        <time>2022-11-12T09:07:32Z</time>
      </trkpt>
      <trkpt lat="47.86856" lon="-3.99404">
        <ele>24.4</ele>
        <time>2022-11-12T09:07:33Z</time>
      </trkpt>
      <trkpt lat="47.8685" lon="-3.99401">
        <ele>24.2</ele>
        <time>2022-11-12T09:07:34Z</time>
      </trkpt>
      <trkpt lat="47.86844" lon="-3.99398">
        <ele>24</ele>
        <time>2022-11-12T09:07:35Z</time>
      </trkpt>
      <trkpt lat="47.86838" lon="-3.99395">
        <ele>23.9</ele>
        <time>2022-11-12T09:07:36Z</time>
      </trkpt>
      <trkpt lat="47.86832" lon="-3.99397">
        <ele>23.7</ele>
        <time>2022-11-12T09:07:37Z</time>
      </trkpt>
      <trkpt lat="47.86827" lon="-3.99403">
        <ele>23.6</ele>
        <time>2022-11-12T09:07:38Z</time>
      </trkpt>
      <trkpt lat="47.86824" lon="-3.99411">
        <ele>23.5</ele>
        <time>2022-11-12T09:07:39Z</time>
      </trkpt>
      <trkpt lat="47.86821" lon="-3.9942">
        <ele>23.4</ele>
        <time>2022-11-12T09:07:40Z</time>
      </trkpt>
      <trkpt lat="47.86818" lon="-3.99428">
        <ele>23.4</ele>
        <time>2022-11-12T09:07:41Z</time>
      </trkpt>
      <trkpt lat="47.86815" lon="-3.99434">
        <ele>23.3</ele>
        <time>2022-11-12T09:07:42Z</time>
      </trkpt>
      <trkpt lat="47.86811" lon="-3.99436">
        <ele>23.1</ele>
        <time>2022-11-12T09:07:43Z</time>
      </trkpt>
      <trkpt lat="47.86806" lon="-3.99434">
        <ele>22.9</ele>
        <time>2022-11-12T09:07:44Z</time>
      </trkpt>
      <trkpt lat="47.86802" lon="-3.99431">
        <ele>22.7</ele>
        <time>2022-11-12T09:07:45Z</time>
      </trkpt>
      <trkpt lat="47.86798" lon="-3.9943">
        <ele>22.5</ele>
        <time>2022-11-12T09:07:46Z</time>
      </trkpt>
      <trkpt lat="47.86794" lon="-3.9943">
        <ele>22.4</ele>
        <time>2022-11-12T09:07:47Z</time>
      </trkpt>
      <trkpt lat="47.86793" lon="-3.9943">
        <ele>22.3</ele>
        <time>2022-11-12T09:07:48Z</time>
      </trkpt>
      <trkpt lat="47.86791" lon="-3.99426">
        <ele>22.1</ele>
        <time>2022-11-12T09:07:49Z</time>
      </trkpt>
      <trkpt lat="47.8679" lon="-3.99424">
        <ele>22.1</ele>
        <time>2022-11-12T09:07:50Z</time>
      </trkpt>
      <trkpt lat="47.86786" lon="-3.99424">
        <ele>21.9</ele>
        <time>2022-11-12T09:07:51Z</time>
      </trkpt>
      <trkpt lat="47.86783" lon="-3.99424">
        <ele>21.8</ele>
        <time>2022-11-12T09:07:52Z</time>
      </trkpt>
      <trkpt lat="47.86777" lon="-3.99423">
        <ele>21.6</ele>
        <time>2022-11-12T09:07:53Z</time>
      </trkpt>
      <trkpt lat="47.86774" lon="-3.99422">
        <ele>21.5</ele>
        <time>2022-11-12T09:07:54Z</time>
      </trkpt>
      <trkpt lat="47.86767" lon="-3.99422">
        <ele>21.4</ele>
        <time>2022-11-12T09:07:55Z</time>
      </trkpt>
      <trkpt lat="47.86762" lon="-3.99423">
        <ele>21.3</ele>
        <time>2022-11-12T09:07:56Z</time>
      </trkpt>
      <trkpt lat="47.86757" lon="-3.99422">
        <ele>21.1</ele>
        <time>2022-11-12T09:07:57Z</time>
      </trkpt>
      <trkpt lat="47.86751" lon="-3.99421">
        <ele>21.1</ele>
        <time>2022-11-12T09:07:58Z</time>
      </trkpt>
      <trkpt lat="47.86745" lon="-3.9942">
        <ele>20.9</ele>
        <time>2022-11-12T09:07:59Z</time>
      </trkpt>
      <trkpt lat="47.86739" lon="-3.9942">
        <ele>20.8</ele>
        <time>2022-11-12T09:08:00Z</time>
      </trkpt>
      <trkpt lat="47.86732" lon="-3.9942">
        <ele>20.8</ele>
        <time>2022-11-12T09:08:01Z</time>
      </trkpt>
      <trkpt lat="47.86726" lon="-3.9942">
        <ele>20.7</ele>
        <time>2022-11-12T09:08:02Z</time>
      </trkpt>
      <trkpt lat="47.86721" lon="-3.99419">
        <ele>20.6</ele>
        <time>2022-11-12T09:08:03Z</time>
      </trkpt>
      <trkpt lat="47.86716" lon="-3.99418">
        <ele>20.6</ele>
        <time>2022-11-12T09:08:04Z</time>
      </trkpt>
      <trkpt lat="47.8671" lon="-3.99418">
        <ele>20.5</ele>
        <time>2022-11-12T09:08:05Z</time>
      </trkpt>
      <trkpt lat="47.86704" lon="-3.99417">
        <ele>20.4</ele>
        <time>2022-11-12T09:08:06Z</time>
      </trkpt>
      <trkpt lat="47.86698" lon="-3.99416">
        <ele>20.4</ele>
        <time>2022-11-12T09:08:07Z</time>
      </trkpt>
      <trkpt lat="47.86692" lon="-3.99414">
        <ele>20.3</ele>
        <time>2022-11-12T09:08:08Z</time>
      </trkpt>
      <trkpt lat="47.86686" lon="-3.99413">
        <ele>20.2</ele>
        <time>2022-11-12T09:08:09Z</time>
      </trkpt>
      <trkpt lat="47.86679" lon="-3.99412">
        <ele>20.2</ele>
        <time>2022-11-12T09:08:10Z</time>
      </trkpt>
      <trkpt lat="47.86673" lon="-3.9941">
        <ele>20.1</ele>
        <time>2022-11-12T09:08:11Z</time>
      </trkpt>
      <trkpt lat="47.86668" lon="-3.99409">
        <ele>20</ele>
        <time>2022-11-12T09:08:12Z</time>
      </trkpt>
      <trkpt lat="47.86662" lon="-3.99408">
        <ele>20</ele>
        <time>2022-11-12T09:08:13Z</time>
      </trkpt>
      <trkpt lat="47.86656" lon="-3.99407">
        <ele>19.9</ele>
        <time>2022-11-12T09:08:14Z</time>
      </trkpt>
      <trkpt lat="47.86649" lon="-3.99405">
        <ele>19.8</ele>
        <time>2022-11-12T09:08:15Z</time>
      </trkpt>
      <trkpt lat="47.86644" lon="-3.99406">
        <ele>19.7</ele>
        <time>2022-11-12T09:08:16Z</time>
      </trkpt>
      <trkpt lat="47.86639" lon="-3.99408">
        <ele>19.7</ele>
        <time>2022-11-12T09:08:17Z</time>
      </trkpt>
      <trkpt lat="47.86632" lon="-3.99407">
        <ele>19.5</ele>
        <time>2022-11-12T09:08:18Z</time>
      </trkpt>
      <trkpt lat="47.86627" lon="-3.99406">
        <ele>19.4</ele>
        <time>2022-11-12T09:08:19Z</time>
      </trkpt>
      <trkpt lat="47.8662" lon="-3.99406">
        <ele>19.3</ele>
        <time>2022-11-12T09:08:20Z</time>
      </trkpt>
      <trkpt lat="47.86613" lon="-3.99405">
        <ele>19.3</ele>
        <time>2022-11-12T09:08:21Z</time>
      </trkpt>
      <trkpt lat="47.86607" lon="-3.99405">
        <ele>19.2</ele>
        <time>2022-11-12T09:08:22Z</time>
      </trkpt>
      <trkpt lat="47.86601" lon="-3.99405">
        <ele>19.1</ele>
        <time>2022-11-12T09:08:23Z</time>
      </trkpt>
      <trkpt lat="47.86595" lon="-3.99404">
        <ele>19.1</ele>
        <time>2022-11-12T09:08:24Z</time>
      </trkpt>
      <trkpt lat="47.86589" lon="-3.99402">
        <ele>19</ele>
        <time>2022-11-12T09:08:25Z</time>
      </trkpt>
      <trkpt lat="47.86585" lon="-3.99398">
        <ele>18.9</ele>
        <time>2022-11-12T09:08:26Z</time>
      </trkpt>
      <trkpt lat="47.86581" lon="-3.99393">
        <ele>18.9</ele>
        <time>2022-11-12T09:08:27Z</time>
      </trkpt>
      <trkpt lat="47.86576" lon="-3.99393">
        <ele>18.8</ele>
        <time>2022-11-12T09:08:28Z</time>
      </trkpt>
      <trkpt lat="47.86571" lon="-3.99394">
        <ele>18.7</ele>
        <time>2022-11-12T09:08:29Z</time>
      </trkpt>
      <trkpt lat="47.86565" lon="-3.99393">
        <ele>18.7</ele>
        <time>2022-11-12T09:08:30Z</time>
      </trkpt>
      <trkpt lat="47.8656" lon="-3.99391">
        <ele>18.6</ele>
        <time>2022-11-12T09:08:31Z</time>
      </trkpt>
      <trkpt lat="47.86554" lon="-3.99389">
        <ele>18.6</ele>
        <time>2022-11-12T09:08:32Z</time>
      </trkpt>
      <trkpt lat="47.86548" lon="-3.99388">
        <ele>18.6</ele>
        <time>2022-11-12T09:08:33Z</time>
      </trkpt>
      <trkpt lat="47.86542" lon="-3.99386">
        <ele>18.5</ele>
        <time>2022-11-12T09:08:34Z</time>
      </trkpt>
      <trkpt lat="47.86536" lon="-3.99384">
        <ele>18.5</ele>
        <time>2022-11-12T09:08:35Z</time>
      </trkpt>
      <trkpt lat="47.8653" lon="-3.99382">
        <ele>18.5</ele>
        <time>2022-11-12T09:08:36Z</time>
      </trkpt>
      <trkpt lat="47.86524" lon="-3.99382">
        <ele>18.4</ele>
        <time>2022-11-12T09:08:37Z</time>
      </trkpt>
      <trkpt lat="47.86518" lon="-3.9938">
        <ele>18.4</ele>
        <time>2022-11-12T09:08:38Z</time>
      </trkpt>
      <trkpt lat="47.86512" lon="-3.9938">
        <ele>18.3</ele>
        <time>2022-11-12T09:08:39Z</time>
      </trkpt>
      <trkpt lat="47.86506" lon="-3.99379">
        <ele>18.3</ele>
        <time>2022-11-12T09:08:40Z</time>
      </trkpt>
      <trkpt lat="47.865" lon="-3.99378">
        <ele>18.2</ele>
        <time>2022-11-12T09:08:41Z</time>
      </trkpt>
      <trkpt lat="47.86494" lon="-3.99377">
        <ele>18.2</ele>
        <time>2022-11-12T09:08:42Z</time>
      </trkpt>
      <trkpt lat="47.86488" lon="-3.99375">
        <ele>18.1</ele>
        <time>2022-11-12T09:08:43Z</time>
      </trkpt>
      <trkpt lat="47.86482" lon="-3.99374">
        <ele>18.1</ele>
        <time>2022-11-12T09:08:44Z</time>
      </trkpt>
      <trkpt lat="47.86476" lon="-3.99373">
        <ele>18</ele>
        <time>2022-11-12T09:08:45Z</time>
      </trkpt>
      <trkpt lat="47.8647" lon="-3.99374">
        <ele>18</ele>
        <time>2022-11-12T09:08:46Z</time>
      </trkpt>
      <trkpt lat="47.86464" lon="-3.99375">
        <ele>18</ele>
        <time>2022-11-12T09:08:47Z</time>
      </trkpt>
      <trkpt lat="47.86459" lon="-3.99378">
        <ele>17.9</ele>
        <time>2022-11-12T09:08:48Z</time>
      </trkpt>
      <trkpt lat="47.86453" lon="-3.9938">
        <ele>17.9</ele>
        <time>2022-11-12T09:08:49Z</time>
      </trkpt>
      <trkpt lat="47.86447" lon="-3.99383">
        <ele>17.8</ele>
        <time>2022-11-12T09:08:50Z</time>
      </trkpt>
      <trkpt lat="47.86441" lon="-3.99385">
        <ele>17.8</ele>
        <time>2022-11-12T09:08:51Z</time>
      </trkpt>
      <trkpt lat="47.86436" lon="-3.99386">
        <ele>17.7</ele>
        <time>2022-11-12T09:08:52Z</time>
      </trkpt>
      <trkpt lat="47.8643" lon="-3.99388">
        <ele>17.7</ele>
        <time>2022-11-12T09:08:53Z</time>
      </trkpt>
      <trkpt lat="47.86425" lon="-3.99388">
        <ele>17.6</ele>
        <time>2022-11-12T09:08:54Z</time>
      </trkpt>
      <trkpt lat="47.86419" lon="-3.99385">
        <ele>17.5</ele>
        <time>2022-11-12T09:08:55Z</time>
      </trkpt>
      <trkpt lat="47.86414" lon="-3.99379">
        <ele>17.5</ele>
        <time>2022-11-12T09:08:56Z</time>
      </trkpt>
      <trkpt lat="47.86409" lon="-3.99372">
        <ele>17.4</ele>
        <time>2022-11-12T09:08:57Z</time>
      </trkpt>
      <trkpt lat="47.86406" lon="-3.99366">
        <ele>17.3</ele>
        <time>2022-11-12T09:08:58Z</time>
      </trkpt>
      <trkpt lat="47.86403" lon="-3.99359">
        <ele>17.2</ele>
        <time>2022-11-12T09:08:59Z</time>
      </trkpt>
      <trkpt lat="47.86399" lon="-3.99352">
        <ele>17.2</ele>
        <time>2022-11-12T09:09:00Z</time>
      </trkpt>
      <trkpt lat="47.86396" lon="-3.99344">
        <ele>17.1</ele>
        <time>2022-11-12T09:09:01Z</time>
      </trkpt>
      <trkpt lat="47.86393" lon="-3.99337">
        <ele>17</ele>
        <time>2022-11-12T09:09:02Z</time>
      </trkpt>
      <trkpt lat="47.86388" lon="-3.99329">
        <ele>16.9</ele>
        <time>2022-11-12T09:09:03Z</time>
      </trkpt>
      <trkpt lat="47.86385" lon="-3.99323">
        <ele>16.9</ele>
        <time>2022-11-12T09:09:04Z</time>
      </trkpt>
      <trkpt lat="47.86382" lon="-3.99316">
        <ele>16.8</ele>
        <time>2022-11-12T09:09:05Z</time>
      </trkpt>
      <trkpt lat="47.8638" lon="-3.99313">
        <ele>16.8</ele>
        <time>2022-11-12T09:09:06Z</time>
      </trkpt>
      <trkpt lat="47.86376" lon="-3.99304">
        <ele>16.8</ele>
        <time>2022-11-12T09:09:07Z</time>
      </trkpt>
      <trkpt lat="47.86372" lon="-3.99295">
        <ele>16.7</ele>
        <time>2022-11-12T09:09:08Z</time>
      </trkpt>
      <trkpt lat="47.8637" lon="-3.99288">
        <ele>16.7</ele>
        <time>2022-11-12T09:09:09Z</time>
      </trkpt>
      <trkpt lat="47.86366" lon="-3.99281">
        <ele>16.6</ele>
        <time>2022-11-12T09:09:10Z</time>
      </trkpt>
      <trkpt lat="47.86361" lon="-3.99277">
        <ele>16.6</ele>
        <time>2022-11-12T09:09:11Z</time>
      </trkpt>
      <trkpt lat="47.86355" lon="-3.99275">
        <ele>16.5</ele>
        <time>2022-11-12T09:09:12Z</time>
      </trkpt>
      <trkpt lat="47.8635" lon="-3.99275">
        <ele>16.5</ele>
        <time>2022-11-12T09:09:13Z</time>
      </trkpt>
      <trkpt lat="47.86344" lon="-3.99277">
        <ele>16.4</ele>
        <time>2022-11-12T09:09:14Z</time>
      </trkpt>
      <trkpt lat="47.86339" lon="-3.99279">
        <ele>16.3</ele>
        <time>2022-11-12T09:09:15Z</time>
      </trkpt>
      <trkpt lat="47.86332" lon="-3.99281">
        <ele>16.3</ele>
        <time>2022-11-12T09:09:16Z</time>
      </trkpt>
      <trkpt lat="47.86326" lon="-3.99283">
        <ele>16.2</ele>
        <time>2022-11-12T09:09:17Z</time>
      </trkpt>
      <trkpt lat="47.86321" lon="-3.99284">
        <ele>16.1</ele>
        <time>2022-11-12T09:09:18Z</time>
      </trkpt>
      <trkpt lat="47.86315" lon="-3.99286">
        <ele>16.1</ele>
        <time>2022-11-12T09:09:19Z</time>
      </trkpt>
      <trkpt lat="47.86307" lon="-3.99287">
        <ele>16</ele>
        <time>2022-11-12T09:09:20Z</time>
      </trkpt>
      <trkpt lat="47.86301" lon="-3.99287">
        <ele>15.9</ele>
        <time>2022-11-12T09:09:21Z</time>
      </trkpt>
      <trkpt lat="47.86295" lon="-3.99287">
        <ele>15.8</ele>
        <time>2022-11-12T09:09:22Z</time>
      </trkpt>
      <trkpt lat="47.86289" lon="-3.99287">
        <ele>15.8</ele>
        <time>2022-11-12T09:09:23Z</time>
      </trkpt>
      <trkpt lat="47.86282" lon="-3.99286">
        <ele>15.7</ele>
        <time>2022-11-12T09:09:24Z</time>
      </trkpt>
      <trkpt lat="47.86276" lon="-3.99286">
        <ele>15.6</ele>
        <time>2022-11-12T09:09:25Z</time>
      </trkpt>
      <trkpt lat="47.86269" lon="-3.99285">
        <ele>15.5</ele>
        <time>2022-11-12T09:09:26Z</time>
      </trkpt>
      <trkpt lat="47.86262" lon="-3.99286">
        <ele>15.4</ele>
        <time>2022-11-12T09:09:27Z</time>
      </trkpt>
      <trkpt lat="47.86256" lon="-3.99286">
        <ele>15.3</ele>
        <time>2022-11-12T09:09:28Z</time>
      </trkpt>
      <trkpt lat="47.86248" lon="-3.99285">
        <ele>15.2</ele>
        <time>2022-11-12T09:09:29Z</time>
      </trkpt>
      <trkpt lat="47.86242" lon="-3.99284">
        <ele>15.1</ele>
        <time>2022-11-12T09:09:30Z</time>
      </trkpt>
      <trkpt lat="47.86235" lon="-3.99283">
        <ele>15</ele>
        <time>2022-11-12T09:09:31Z</time>
      </trkpt>
      <trkpt lat="47.86229" lon="-3.99284">
        <ele>14.9</ele>
        <time>2022-11-12T09:09:32Z</time>
      </trkpt>
      <trkpt lat="47.86224" lon="-3.99284">
        <ele>14.8</ele>
        <time>2022-11-12T09:09:33Z</time>
      </trkpt>
      <trkpt lat="47.86219" lon="-3.99284">
        <ele>14.7</ele>
        <time>2022-11-12T09:09:34Z</time>
      </trkpt>
      <trkpt lat="47.86213" lon="-3.99285">
        <ele>14.6</ele>
        <time>2022-11-12T09:09:35Z</time>
      </trkpt>
      <trkpt lat="47.86206" lon="-3.99286">
        <ele>14.4</ele>
        <time>2022-11-12T09:09:36Z</time>
      </trkpt>
      <trkpt lat="47.862" lon="-3.99287">
        <ele>14.3</ele>
        <time>2022-11-12T09:09:37Z</time>
      </trkpt>
      <trkpt lat="47.86193" lon="-3.99288">
        <ele>14.1</ele>
        <time>2022-11-12T09:09:38Z</time>
      </trkpt>
      <trkpt lat="47.86187" lon="-3.99289">
        <ele>14</ele>
        <time>2022-11-12T09:09:39Z</time>
      </trkpt>
      <trkpt lat="47.86181" lon="-3.99291">
        <ele>13.9</ele>
        <time>2022-11-12T09:09:40Z</time>
      </trkpt>
      <trkpt lat="47.86174" lon="-3.99291">
        <ele>13.7</ele>
        <time>2022-11-12T09:09:41Z</time>
      </trkpt>
      <trkpt lat="47.86167" lon="-3.99292">
        <ele>13.6</ele>
        <time>2022-11-12T09:09:42Z</time>
      </trkpt>
      <trkpt lat="47.86161" lon="-3.99293">
        <ele>13.4</ele>
        <time>2022-11-12T09:09:43Z</time>
      </trkpt>
      <trkpt lat="47.86154" lon="-3.99292">
        <ele>13.3</ele>
        <time>2022-11-12T09:09:44Z</time>
      </trkpt>
      <trkpt lat="47.86149" lon="-3.99289">
        <ele>13.1</ele>
        <time>2022-11-12T09:09:45Z</time>
      </trkpt>
      <trkpt lat="47.86144" lon="-3.99282">
        <ele>12.9</ele>
        <time>2022-11-12T09:09:46Z</time>
      </trkpt>
      <trkpt lat="47.8614" lon="-3.99275">
        <ele>12.8</ele>
        <time>2022-11-12T09:09:47Z</time>
      </trkpt>
      <trkpt lat="47.86136" lon="-3.99268">
        <ele>12.6</ele>
        <time>2022-11-12T09:09:48Z</time>
      </trkpt>
      <trkpt lat="47.86132" lon="-3.9926">
        <ele>12.5</ele>
        <time>2022-11-12T09:09:49Z</time>
      </trkpt>
      <trkpt lat="47.86128" lon="-3.99251">
        <ele>12.3</ele>
        <time>2022-11-12T09:09:50Z</time>
      </trkpt>
      <trkpt lat="47.86124" lon="-3.99242">
        <ele>12.2</ele>
        <time>2022-11-12T09:09:51Z</time>
      </trkpt>
      <trkpt lat="47.86119" lon="-3.99235">
        <ele>12.1</ele>
        <time>2022-11-12T09:09:52Z</time>
      </trkpt>
      <trkpt lat="47.86115" lon="-3.99227">
        <ele>12.1</ele>
        <time>2022-11-12T09:09:53Z</time>
      </trkpt>
      <trkpt lat="47.86111" lon="-3.9922">
        <ele>12</ele>
        <time>2022-11-12T09:09:54Z</time>
      </trkpt>
      <trkpt lat="47.86106" lon="-3.99214">
        <ele>11.9</ele>
        <time>2022-11-12T09:09:55Z</time>
      </trkpt>
      <trkpt lat="47.86101" lon="-3.99208">
        <ele>11.9</ele>
        <time>2022-11-12T09:09:56Z</time>
      </trkpt>
      <trkpt lat="47.86095" lon="-3.99203">
        <ele>11.8</ele>
        <time>2022-11-12T09:09:57Z</time>
      </trkpt>
      <trkpt lat="47.86089" lon="-3.99199">
        <ele>11.8</ele>
        <time>2022-11-12T09:09:58Z</time>
      </trkpt>
      <trkpt lat="47.86084" lon="-3.99195">
        <ele>11.7</ele>
        <time>2022-11-12T09:09:59Z</time>
      </trkpt>
      <trkpt lat="47.86079" lon="-3.99191">
        <ele>11.6</ele>
        <time>2022-11-12T09:10:00Z</time>
      </trkpt>
      <trkpt lat="47.86073" lon="-3.99187">
        <ele>11.5</ele>
        <time>2022-11-12T09:10:01Z</time>
      </trkpt>
      <trkpt lat="47.86067" lon="-3.99182">
        <ele>11.5</ele>
        <time>2022-11-12T09:10:02Z</time>
      </trkpt>
      <trkpt lat="47.86061" lon="-3.99177">
        <ele>11.4</ele>
        <time>2022-11-12T09:10:03Z</time>
      </trkpt>
      <trkpt lat="47.86055" lon="-3.99172">
        <ele>11.2</ele>
        <time>2022-11-12T09:10:04Z</time>
      </trkpt>
      <trkpt lat="47.86049" lon="-3.99167">
        <ele>11.2</ele>
        <time>2022-11-12T09:10:05Z</time>
      </trkpt>
      <trkpt lat="47.86044" lon="-3.99161">
        <ele>11.1</ele>
        <time>2022-11-12T09:10:06Z</time>
      </trkpt>
      <trkpt lat="47.86039" lon="-3.99154">
        <ele>11.1</ele>
        <time>2022-11-12T09:10:07Z</time>
      </trkpt>
      <trkpt lat="47.86036" lon="-3.99145">
        <ele>11.1</ele>
        <time>2022-11-12T09:10:08Z</time>
      </trkpt>
      <trkpt lat="47.86033" lon="-3.99136">
        <ele>11.2</ele>
        <time>2022-11-12T09:10:09Z</time>
      </trkpt>
      <trkpt lat="47.86032" lon="-3.99127">
        <ele>11.3</ele>
        <time>2022-11-12T09:10:10Z</time>
      </trkpt>
      <trkpt lat="47.86031" lon="-3.99118">
        <ele>11.4</ele>
        <time>2022-11-12T09:10:11Z</time>
      </trkpt>
      <trkpt lat="47.86029" lon="-3.9911">
        <ele>11.6</ele>
        <time>2022-11-12T09:10:12Z</time>
      </trkpt>
      <trkpt lat="47.86026" lon="-3.99102">
        <ele>11.7</ele>
        <time>2022-11-12T09:10:13Z</time>
      </trkpt>
      <trkpt lat="47.86022" lon="-3.99095">
        <ele>11.8</ele>
        <time>2022-11-12T09:10:14Z</time>
      </trkpt>
      <trkpt lat="47.86017" lon="-3.9909">
        <ele>11.9</ele>
        <time>2022-11-12T09:10:15Z</time>
      </trkpt>
      <trkpt lat="47.86012" lon="-3.99087">
        <ele>12</ele>
        <time>2022-11-12T09:10:16Z</time>
      </trkpt>
      <trkpt lat="47.86006" lon="-3.99085">
        <ele>12.1</ele>
        <time>2022-11-12T09:10:17Z</time>
      </trkpt>
      <trkpt lat="47.86001" lon="-3.99082">
        <ele>12.2</ele>
        <time>2022-11-12T09:10:18Z</time>
      </trkpt>
      <trkpt lat="47.85995" lon="-3.9908">
        <ele>12.4</ele>
        <time>2022-11-12T09:10:19Z</time>
      </trkpt>
      <trkpt lat="47.8599" lon="-3.99078">
        <ele>12.5</ele>
        <time>2022-11-12T09:10:20Z</time>
      </trkpt>
      <trkpt lat="47.85985" lon="-3.99076">
        <ele>12.6</ele>
        <time>2022-11-12T09:10:21Z</time>
      </trkpt>
      <trkpt lat="47.8598" lon="-3.99073">
        <ele>12.7</ele>
        <time>2022-11-12T09:10:22Z</time>
      </trkpt>
      <trkpt lat="47.85974" lon="-3.99071">
        <ele>12.7</ele>
        <time>2022-11-12T09:10:23Z</time>
      </trkpt>
      <trkpt lat="47.85969" lon="-3.99068">
        <ele>12.8</ele>
        <time>2022-11-12T09:10:24Z</time>
      </trkpt>
      <trkpt lat="47.85964" lon="-3.99066">
        <ele>12.8</ele>
        <time>2022-11-12T09:10:25Z</time>
      </trkpt>
      <trkpt lat="47.85958" lon="-3.99063">
        <ele>12.8</ele>
        <time>2022-11-12T09:10:26Z</time>
      </trkpt>
      <trkpt lat="47.85953" lon="-3.99061">
        <ele>12.8</ele>
        <time>2022-11-12T09:10:27Z</time>
      </trkpt>
      <trkpt lat="47.85948" lon="-3.99057">
        <ele>12.7</ele>
        <time>2022-11-12T09:10:28Z</time>
      </trkpt>
      <trkpt lat="47.85944" lon="-3.99054">
        <ele>12.7</ele>
        <time>2022-11-12T09:10:29Z</time>
      </trkpt>
      <trkpt lat="47.85939" lon="-3.99053">
        <ele>12.6</ele>
        <time>2022-11-12T09:10:30Z</time>
      </trkpt>
      <trkpt lat="47.85934" lon="-3.99051">
        <ele>12.5</ele>
        <time>2022-11-12T09:10:31Z</time>
      </trkpt>
      <trkpt lat="47.85929" lon="-3.99048">
        <ele>12.4</ele>
        <time>2022-11-12T09:10:32Z</time>
      </trkpt>
      <trkpt lat="47.85924" lon="-3.99044">
        <ele>12.2</ele>
        <time>2022-11-12T09:10:33Z</time>
      </trkpt>
      <trkpt lat="47.85919" lon="-3.9904">
        <ele>11.9</ele>
        <time>2022-11-12T09:10:34Z</time>
      </trkpt>
      <trkpt lat="47.85913" lon="-3.99038">
        <ele>11.7</ele>
        <time>2022-11-12T09:10:35Z</time>
      </trkpt>
      <trkpt lat="47.85906" lon="-3.99036">
        <ele>11.4</ele>
        <time>2022-11-12T09:10:36Z</time>
      </trkpt>
      <trkpt lat="47.85899" lon="-3.99035">
        <ele>11.2</ele>
        <time>2022-11-12T09:10:37Z</time>
      </trkpt>
      <trkpt lat="47.85892" lon="-3.99034">
        <ele>11</ele>
        <time>2022-11-12T09:10:38Z</time>
      </trkpt>
      <trkpt lat="47.85885" lon="-3.99033">
        <ele>10.7</ele>
        <time>2022-11-12T09:10:39Z</time>
      </trkpt>
      <trkpt lat="47.85876" lon="-3.99032">
        <ele>10.4</ele>
        <time>2022-11-12T09:10:40Z</time>
      </trkpt>
      <trkpt lat="47.85868" lon="-3.9903">
        <ele>10.2</ele>
        <time>2022-11-12T09:10:41Z</time>
      </trkpt>
      <trkpt lat="47.85861" lon="-3.9903">
        <ele>10</ele>
        <time>2022-11-12T09:10:42Z</time>
      </trkpt>
      <trkpt lat="47.85854" lon="-3.9903">
        <ele>9.8</ele>
        <time>2022-11-12T09:10:43Z</time>
      </trkpt>
      <trkpt lat="47.85846" lon="-3.99029">
        <ele>9.6</ele>
        <time>2022-11-12T09:10:44Z</time>
      </trkpt>
      <trkpt lat="47.85838" lon="-3.99028">
        <ele>9.4</ele>
        <time>2022-11-12T09:10:45Z</time>
      </trkpt>
      <trkpt lat="47.85832" lon="-3.99024">
        <ele>9.3</ele>
        <time>2022-11-12T09:10:46Z</time>
      </trkpt>
      <trkpt lat="47.85825" lon="-3.99018">
        <ele>9.3</ele>
        <time>2022-11-12T09:10:47Z</time>
      </trkpt>
      <trkpt lat="47.8582" lon="-3.99011">
        <ele>9.3</ele>
        <time>2022-11-12T09:10:48Z</time>
      </trkpt>
      <trkpt lat="47.85816" lon="-3.99003">
        <ele>9.3</ele>
        <time>2022-11-12T09:10:49Z</time>
      </trkpt>
      <trkpt lat="47.85811" lon="-3.98996">
        <ele>9.4</ele>
        <time>2022-11-12T09:10:50Z</time>
      </trkpt>
      <trkpt lat="47.85806" lon="-3.98991">
        <ele>9.5</ele>
        <time>2022-11-12T09:10:51Z</time>
      </trkpt>
      <trkpt lat="47.858" lon="-3.98988">
        <ele>9.6</ele>
        <time>2022-11-12T09:10:52Z</time>
      </trkpt>
      <trkpt lat="47.85794" lon="-3.98988">
        <ele>9.8</ele>
        <time>2022-11-12T09:10:53Z</time>
      </trkpt>
      <trkpt lat="47.85788" lon="-3.98988">
        <ele>9.9</ele>
        <time>2022-11-12T09:10:54Z</time>
      </trkpt>
      <trkpt lat="47.85782" lon="-3.98989">
        <ele>10.1</ele>
        <time>2022-11-12T09:10:55Z</time>
      </trkpt>
      <trkpt lat="47.85776" lon="-3.98989">
        <ele>10.3</ele>
        <time>2022-11-12T09:10:56Z</time>
      </trkpt>
      <trkpt lat="47.85771" lon="-3.98989">
        <ele>10.4</ele>
        <time>2022-11-12T09:10:57Z</time>
      </trkpt>
      <trkpt lat="47.85765" lon="-3.98989">
        <ele>10.6</ele>
        <time>2022-11-12T09:10:58Z</time>
      </trkpt>
      <trkpt lat="47.85759" lon="-3.9899">
        <ele>10.7</ele>
        <time>2022-11-12T09:10:59Z</time>
      </trkpt>
      <trkpt lat="47.85752" lon="-3.9899">
        <ele>10.9</ele>
        <time>2022-11-12T09:11:00Z</time>
      </trkpt>
      <trkpt lat="47.85746" lon="-3.9899">
        <ele>11</ele>
        <time>2022-11-12T09:11:01Z</time>
      </trkpt>
      <trkpt lat="47.8574" lon="-3.9899">
        <ele>11</ele>
        <time>2022-11-12T09:11:02Z</time>
      </trkpt>
      <trkpt lat="47.85733" lon="-3.9899">
        <ele>11.1</ele>
        <time>2022-11-12T09:11:03Z</time>
      </trkpt>
      <trkpt lat="47.85727" lon="-3.98989">
        <ele>11.1</ele>
        <time>2022-11-12T09:11:04Z</time>
      </trkpt>
      <trkpt lat="47.85721" lon="-3.98989">
        <ele>11.2</ele>
        <time>2022-11-12T09:11:05Z</time>
      </trkpt>
      <trkpt lat="47.85715" lon="-3.98988">
        <ele>11.2</ele>
        <time>2022-11-12T09:11:06Z</time>
      </trkpt>
      <trkpt lat="47.85709" lon="-3.98986">
        <ele>11.3</ele>
        <time>2022-11-12T09:11:07Z</time>
      </trkpt>
      <trkpt lat="47.85703" lon="-3.98985">
        <ele>11.3</ele>
        <time>2022-11-12T09:11:08Z</time>
      </trkpt>
      <trkpt lat="47.85697" lon="-3.98984">
        <ele>11.3</ele>
        <time>2022-11-12T09:11:09Z</time>
      </trkpt>
      <trkpt lat="47.85691" lon="-3.98982">
        <ele>11.3</ele>
        <time>2022-11-12T09:11:10Z</time>
      </trkpt>
      <trkpt lat="47.85685" lon="-3.9898">
        <ele>11.3</ele>
        <time>2022-11-12T09:11:11Z</time>
      </trkpt>
      <trkpt lat="47.85679" lon="-3.98979">
        <ele>11.4</ele>
        <time>2022-11-12T09:11:12Z</time>
      </trkpt>
      <trkpt lat="47.85673" lon="-3.98977">
        <ele>11.4</ele>
        <time>2022-11-12T09:11:13Z</time>
      </trkpt>
      <trkpt lat="47.85668" lon="-3.98977">
        <ele>11.4</ele>
        <time>2022-11-12T09:11:14Z</time>
      </trkpt>
      <trkpt lat="47.85662" lon="-3.98976">
        <ele>11.4</ele>
        <time>2022-11-12T09:11:15Z</time>
      </trkpt>
      <trkpt lat="47.85657" lon="-3.98974">
        <ele>11.4</ele>
        <time>2022-11-12T09:11:16Z</time>
      </trkpt>
      <trkpt lat="47.85652" lon="-3.98974">
        <ele>11.3</ele>
        <time>2022-11-12T09:11:17Z</time>
      </trkpt>
      <trkpt lat="47.85647" lon="-3.98973">
        <ele>11.2</ele>
        <time>2022-11-12T09:11:18Z</time>
      </trkpt>
      <trkpt lat="47.85641" lon="-3.98972">
        <ele>11.1</ele>
        <time>2022-11-12T09:11:19Z</time>
      </trkpt>
      <trkpt lat="47.85635" lon="-3.98971">
        <ele>10.9</ele>
        <time>2022-11-12T09:11:20Z</time>
      </trkpt>
      <trkpt lat="47.85628" lon="-3.98969">
        <ele>10.7</ele>
        <time>2022-11-12T09:11:21Z</time>
      </trkpt>
      <trkpt lat="47.85622" lon="-3.98968">
        <ele>10.5</ele>
        <time>2022-11-12T09:11:22Z</time>
      </trkpt>
      <trkpt lat="47.85616" lon="-3.98967">
        <ele>10.3</ele>
        <time>2022-11-12T09:11:23Z</time>
      </trkpt>
      <trkpt lat="47.85608" lon="-3.98965">
        <ele>10.1</ele>
        <time>2022-11-12T09:11:24Z</time>
      </trkpt>
      <trkpt lat="47.85601" lon="-3.98963">
        <ele>9.9</ele>
        <time>2022-11-12T09:11:25Z</time>
      </trkpt>
      <trkpt lat="47.85594" lon="-3.9896">
        <ele>9.7</ele>
        <time>2022-11-12T09:11:26Z</time>
      </trkpt>
      <trkpt lat="47.85587" lon="-3.98956">
        <ele>9.7</ele>
        <time>2022-11-12T09:11:27Z</time>
      </trkpt>
      <trkpt lat="47.8558" lon="-3.98953">
        <ele>9.6</ele>
        <time>2022-11-12T09:11:28Z</time>
      </trkpt>
      <trkpt lat="47.85573" lon="-3.9895">
        <ele>9.6</ele>
        <time>2022-11-12T09:11:29Z</time>
      </trkpt>
      <trkpt lat="47.85567" lon="-3.98948">
        <ele>9.6</ele>
        <time>2022-11-12T09:11:30Z</time>
      </trkpt>
      <trkpt lat="47.8556" lon="-3.98945">
        <ele>9.7</ele>
        <time>2022-11-12T09:11:31Z</time>
      </trkpt>
      <trkpt lat="47.85554" lon="-3.98943">
        <ele>9.8</ele>
        <time>2022-11-12T09:11:32Z</time>
      </trkpt>
      <trkpt lat="47.85548" lon="-3.9894">
        <ele>9.9</ele>
        <time>2022-11-12T09:11:33Z</time>
      </trkpt>
      <trkpt lat="47.85543" lon="-3.98939">
        <ele>10.1</ele>
        <time>2022-11-12T09:11:34Z</time>
      </trkpt>
      <trkpt lat="47.85537" lon="-3.98937">
        <ele>10.2</ele>
        <time>2022-11-12T09:11:35Z</time>
      </trkpt>
      <trkpt lat="47.85531" lon="-3.98935">
        <ele>10.3</ele>
        <time>2022-11-12T09:11:36Z</time>
      </trkpt>
      <trkpt lat="47.85526" lon="-3.98934">
        <ele>10.4</ele>
        <time>2022-11-12T09:11:37Z</time>
      </trkpt>
      <trkpt lat="47.85521" lon="-3.98934">
        <ele>10.5</ele>
        <time>2022-11-12T09:11:38Z</time>
      </trkpt>
      <trkpt lat="47.85516" lon="-3.98933">
        <ele>10.5</ele>
        <time>2022-11-12T09:11:39Z</time>
      </trkpt>
      <trkpt lat="47.8551" lon="-3.98933">
        <ele>10.4</ele>
        <time>2022-11-12T09:11:40Z</time>
      </trkpt>
      <trkpt lat="47.85505" lon="-3.98933">
        <ele>10.3</ele>
        <time>2022-11-12T09:11:41Z</time>
      </trkpt>
      <trkpt lat="47.85499" lon="-3.98933">
        <ele>10.2</ele>
        <time>2022-11-12T09:11:42Z</time>
      </trkpt>
      <trkpt lat="47.85493" lon="-3.98932">
        <ele>9.9</ele>
        <time>2022-11-12T09:11:43Z</time>
      </trkpt>
      <trkpt lat="47.85487" lon="-3.98932">
        <ele>9.6</ele>
        <time>2022-11-12T09:11:44Z</time>
      </trkpt>
      <trkpt lat="47.85481" lon="-3.98931">
        <ele>9.3</ele>
        <time>2022-11-12T09:11:45Z</time>
      </trkpt>
      <trkpt lat="47.85475" lon="-3.98931">
        <ele>9</ele>
        <time>2022-11-12T09:11:46Z</time>
      </trkpt>
      <trkpt lat="47.8547" lon="-3.98931">
        <ele>8.8</ele>
        <time>2022-11-12T09:11:47Z</time>
      </trkpt>
      <trkpt lat="47.85464" lon="-3.98931">
        <ele>8.5</ele>
        <time>2022-11-12T09:11:48Z</time>
      </trkpt>
      <trkpt lat="47.85458" lon="-3.98932">
        <ele>8.2</ele>
        <time>2022-11-12T09:11:49Z</time>
      </trkpt>
      <trkpt lat="47.85453" lon="-3.98932">
        <ele>8</ele>
        <time>2022-11-12T09:11:50Z</time>
      </trkpt>
      <trkpt lat="47.85448" lon="-3.98931">
        <ele>7.4</ele>
        <time>2022-11-12T09:11:51Z</time>
      </trkpt>
      <trkpt lat="47.85444" lon="-3.9893">
        <ele>7.4</ele>
        <time>2022-11-12T09:11:52Z</time>
      </trkpt>
      <trkpt lat="47.85441" lon="-3.98926">
        <ele>7.4</ele>
        <time>2022-11-12T09:11:53Z</time>
      </trkpt>
      <trkpt lat="47.8544" lon="-3.98925">
        <ele>6.8</ele>
        <time>2022-11-12T09:11:54Z</time>
      </trkpt>
      <trkpt lat="47.85436" lon="-3.98924">
        <ele>7.1</ele>
        <time>2022-11-12T09:11:55Z</time>
      </trkpt>
      <trkpt lat="47.85432" lon="-3.98923">
        <ele>7.1</ele>
        <time>2022-11-12T09:11:56Z</time>
      </trkpt>
      <trkpt lat="47.85428" lon="-3.98923">
        <ele>6.5</ele>
        <time>2022-11-12T09:11:57Z</time>
      </trkpt>
      <trkpt lat="47.85425" lon="-3.98923">
        <ele>6.6</ele>
        <time>2022-11-12T09:11:58Z</time>
      </trkpt>
      <trkpt lat="47.85422" lon="-3.98922">
        <ele>6.6</ele>
        <time>2022-11-12T09:11:59Z</time>
      </trkpt>
      <trkpt lat="47.85417" lon="-3.98923">
        <ele>5.9</ele>
        <time>2022-11-12T09:12:01Z</time>
      </trkpt>
      <trkpt lat="47.85412" lon="-3.98923">
        <ele>5.9</ele>
        <time>2022-11-12T09:12:02Z</time>
      </trkpt>
      <trkpt lat="47.85407" lon="-3.98923">
        <ele>6</ele>
        <time>2022-11-12T09:12:04Z</time>
      </trkpt>
      <trkpt lat="47.85405" lon="-3.98925">
        <ele>5.7</ele>
        <time>2022-11-12T09:12:05Z</time>
      </trkpt>
      <trkpt lat="47.85405" lon="-3.98925">
        <ele>5.7</ele>
        <time>2022-11-12T09:12:06Z</time>
      </trkpt>
      <trkpt lat="47.85406" lon="-3.98925">
        <ele>5.7</ele>
        <time>2022-11-12T09:12:07Z</time>
      </trkpt>
      <trkpt lat="47.85406" lon="-3.98926">
        <ele>5.7</ele>
        <time>2022-11-12T09:12:09Z</time>
      </trkpt>
      <trkpt lat="47.85405" lon="-3.98924">
        <ele>5.7</ele>
        <time>2022-11-12T09:12:10Z</time>
      </trkpt>
      <trkpt lat="47.85405" lon="-3.98922">
        <ele>5.8</ele>
        <time>2022-11-12T09:12:11Z</time>
      </trkpt>
      <trkpt lat="47.85404" lon="-3.98921">
        <ele>5.8</ele>
        <time>2022-11-12T09:12:12Z</time>
      </trkpt>
      <trkpt lat="47.85404" lon="-3.98921">
        <ele>5.8</ele>
        <time>2022-11-12T09:12:14Z</time>
      </trkpt>
      <trkpt lat="47.85404" lon="-3.98921">
        <ele>5.8</ele>
        <time>2022-11-12T09:12:15Z</time>
      </trkpt>
      <trkpt lat="47.85404" lon="-3.98921">
        <ele>5.8</ele>
        <time>2022-11-12T09:12:16Z</time>
      </trkpt>
      <trkpt lat="47.85404" lon="-3.98921">
        <ele>5.9</ele>
        <time>2022-11-12T09:12:17Z</time>
      </trkpt>
      <trkpt lat="47.85404" lon="-3.98921">
        <ele>5.9</ele>
        <time>2022-11-12T09:12:18Z</time>
      </trkpt>
      <trkpt lat="47.85404" lon="-3.98921">
        <ele>5.9</ele>
        <time>2022-11-12T09:12:19Z</time>
      </trkpt>
      <trkpt lat="47.85404" lon="-3.98921">
        <ele>5.9</ele>
        <time>2022-11-12T09:12:20Z</time>
      </trkpt>
      <trkpt lat="47.85404" lon="-3.9892">
        <ele>5.9</ele>
        <time>2022-11-12T09:12:21Z</time>
      </trkpt>
      <trkpt lat="47.85402" lon="-3.98927">
        <ele>5.8</ele>
        <time>2022-11-12T09:12:36Z</time>
      </trkpt>
      <trkpt lat="47.85401" lon="-3.98929">
        <ele>5.8</ele>
        <time>2022-11-12T09:12:37Z</time>
      </trkpt>
      <trkpt lat="47.854" lon="-3.98931">
        <ele>5.8</ele>
        <time>2022-11-12T09:12:38Z</time>
      </trkpt>
      <trkpt lat="47.85399" lon="-3.98932">
        <ele>5.8</ele>
        <time>2022-11-12T09:12:39Z</time>
      </trkpt>
      <trkpt lat="47.85397" lon="-3.98934">
        <ele>5.8</ele>
        <time>2022-11-12T09:12:40Z</time>
      </trkpt>
      <trkpt lat="47.85396" lon="-3.98935">
        <ele>5.8</ele>
        <time>2022-11-12T09:12:41Z</time>
      </trkpt>
      <trkpt lat="47.85393" lon="-3.98936">
        <ele>6</ele>
        <time>2022-11-12T09:12:43Z</time>
      </trkpt>
      <trkpt lat="47.85391" lon="-3.98937">
        <ele>6</ele>
        <time>2022-11-12T09:12:44Z</time>
      </trkpt>
      <trkpt lat="47.8539" lon="-3.98937">
        <ele>6</ele>
        <time>2022-11-12T09:12:45Z</time>
      </trkpt>
      <trkpt lat="47.8539" lon="-3.98937">
        <ele>6</ele>
        <time>2022-11-12T09:12:46Z</time>
      </trkpt>
      <trkpt lat="47.8539" lon="-3.98937">
        <ele>6.1</ele>
        <time>2022-11-12T09:12:47Z</time>
      </trkpt>
      <trkpt lat="47.85391" lon="-3.98937">
        <ele>6.1</ele>
        <time>2022-11-12T09:12:49Z</time>
      </trkpt>
      <trkpt lat="47.8539" lon="-3.98937">
        <ele>6.1</ele>
        <time>2022-11-12T09:12:50Z</time>
      </trkpt>
      <trkpt lat="47.8539" lon="-3.98936">
        <ele>6.1</ele>
        <time>2022-11-12T09:12:51Z</time>
      </trkpt>
      <trkpt lat="47.8539" lon="-3.98932">
        <ele>6.1</ele>
        <time>2022-11-12T09:12:53Z</time>
      </trkpt>
      <trkpt lat="47.8539" lon="-3.9893">
        <ele>6.1</ele>
        <time>2022-11-12T09:12:54Z</time>
      </trkpt>
      <trkpt lat="47.8539" lon="-3.9893">
        <ele>6.1</ele>
        <time>2022-11-12T09:12:55Z</time>
      </trkpt>
      <trkpt lat="47.85389" lon="-3.9893">
        <ele>6.1</ele>
        <time>2022-11-12T09:12:56Z</time>
      </trkpt>
      <trkpt lat="47.8539" lon="-3.9893">
        <ele>6.1</ele>
        <time>2022-11-12T09:12:57Z</time>
      </trkpt>
      <trkpt lat="47.8539" lon="-3.9893">
        <ele>6.1</ele>
        <time>2022-11-12T09:12:58Z</time>
      </trkpt>
      <trkpt lat="47.8539" lon="-3.9893">
        <ele>6.1</ele>
        <time>2022-11-12T09:12:59Z</time>
      </trkpt>
      <trkpt lat="47.8539" lon="-3.9893">
        <ele>6.2</ele>
        <time>2022-11-12T09:13:00Z</time>
      </trkpt>
      <trkpt lat="47.8539" lon="-3.98931">
        <ele>6.2</ele>
        <time>2022-11-12T09:13:01Z</time>
      </trkpt>
      <trkpt lat="47.8539" lon="-3.98931">
        <ele>6.2</ele>
        <time>2022-11-12T09:13:02Z</time>
      </trkpt>
      <trkpt lat="47.8539" lon="-3.98932">
        <ele>6.2</ele>
        <time>2022-11-12T09:13:03Z</time>
      </trkpt>
      <trkpt lat="47.8539" lon="-3.98932">
        <ele>6.2</ele>
        <time>2022-11-12T09:13:04Z</time>
      </trkpt>
      <trkpt lat="47.85391" lon="-3.98932">
        <ele>6.2</ele>
        <time>2022-11-12T09:13:05Z</time>
      </trkpt>
      <trkpt lat="47.85391" lon="-3.98931">
        <ele>6.2</ele>
        <time>2022-11-12T09:13:06Z</time>
      </trkpt>
      <trkpt lat="47.85392" lon="-3.9893">
        <ele>6.2</ele>
        <time>2022-11-12T09:13:07Z</time>
      </trkpt>
      <trkpt lat="47.85392" lon="-3.9893">
        <ele>6.2</ele>
        <time>2022-11-12T09:13:08Z</time>
      </trkpt>
      <trkpt lat="47.85392" lon="-3.9893">
        <ele>6.2</ele>
        <time>2022-11-12T09:13:09Z</time>
      </trkpt>
      <trkpt lat="47.85392" lon="-3.98931">
        <ele>6.2</ele>
        <time>2022-11-12T09:13:10Z</time>
      </trkpt>
      <trkpt lat="47.85391" lon="-3.98932">
        <ele>6.3</ele>
        <time>2022-11-12T09:13:11Z</time>
      </trkpt>
      <trkpt lat="47.8539" lon="-3.98935">
        <ele>6.3</ele>
        <time>2022-11-12T09:13:14Z</time>
      </trkpt>
      <trkpt lat="47.8539" lon="-3.98935">
        <ele>6.3</ele>
        <time>2022-11-12T09:13:15Z</time>
      </trkpt>
      <trkpt lat="47.85391" lon="-3.98935">
        <ele>6.3</ele>
        <time>2022-11-12T09:13:16Z</time>
      </trkpt>
      <trkpt lat="47.85391" lon="-3.98935">
        <ele>6.3</ele>
        <time>2022-11-12T09:13:17Z</time>
      </trkpt>
      <trkpt lat="47.85391" lon="-3.98935">
        <ele>6.3</ele>
        <time>2022-11-12T09:13:18Z</time>
      </trkpt>
      <trkpt lat="47.85391" lon="-3.98934">
        <ele>6.3</ele>
        <time>2022-11-12T09:13:19Z</time>
      </trkpt>
      <trkpt lat="47.85391" lon="-3.98934">
        <ele>6.3</ele>
        <time>2022-11-12T09:13:20Z</time>
      </trkpt>
      <trkpt lat="47.8539" lon="-3.98933">
        <ele>6.3</ele>
        <time>2022-11-12T09:13:21Z</time>
      </trkpt>
      <trkpt lat="47.8539" lon="-3.98934">
        <ele>6.3</ele>
        <time>2022-11-12T09:13:22Z</time>
      </trkpt>
      <trkpt lat="47.8539" lon="-3.98933">
        <ele>6.3</ele>
        <time>2022-11-12T09:13:23Z</time>
      </trkpt>
      <trkpt lat="47.85391" lon="-3.98931">
        <ele>6.3</ele>
        <time>2022-11-12T09:13:24Z</time>
      </trkpt>
      <trkpt lat="47.85392" lon="-3.98929">
        <ele>6.4</ele>
        <time>2022-11-12T09:13:25Z</time>
      </trkpt>
      <trkpt lat="47.85395" lon="-3.98927">
        <ele>6.2</ele>
        <time>2022-11-12T09:13:26Z</time>
      </trkpt>
      <trkpt lat="47.85396" lon="-3.98927">
        <ele>6.2</ele>
        <time>2022-11-12T09:13:27Z</time>
      </trkpt>
      <trkpt lat="47.85399" lon="-3.98926">
        <ele>6.2</ele>
        <time>2022-11-12T09:13:28Z</time>
      </trkpt>
      <trkpt lat="47.854" lon="-3.98925">
        <ele>6.2</ele>
        <time>2022-11-12T09:13:29Z</time>
      </trkpt>
      <trkpt lat="47.85402" lon="-3.98925">
        <ele>6.2</ele>
        <time>2022-11-12T09:13:30Z</time>
      </trkpt>
      <trkpt lat="47.85403" lon="-3.98924">
        <ele>6.2</ele>
        <time>2022-11-12T09:13:31Z</time>
      </trkpt>
      <trkpt lat="47.85405" lon="-3.98923">
        <ele>6.3</ele>
        <time>2022-11-12T09:13:32Z</time>
      </trkpt>
      <trkpt lat="47.85406" lon="-3.98923">
        <ele>6.4</ele>
        <time>2022-11-12T09:13:33Z</time>
      </trkpt>
      <trkpt lat="47.85407" lon="-3.98924">
        <ele>6.6</ele>
        <time>2022-11-12T09:13:34Z</time>
      </trkpt>
      <trkpt lat="47.85408" lon="-3.98924">
        <ele>6.3</ele>
        <time>2022-11-12T09:13:35Z</time>
      </trkpt>
      <trkpt lat="47.85409" lon="-3.98925">
        <ele>6.3</ele>
        <time>2022-11-12T09:13:36Z</time>
      </trkpt>
      <trkpt lat="47.85409" lon="-3.98925">
        <ele>6.4</ele>
        <time>2022-11-12T09:13:37Z</time>
      </trkpt>
      <trkpt lat="47.8541" lon="-3.98925">
        <ele>6.4</ele>
        <time>2022-11-12T09:13:38Z</time>
      </trkpt>
      <trkpt lat="47.85411" lon="-3.98926">
        <ele>6.4</ele>
        <time>2022-11-12T09:13:39Z</time>
      </trkpt>
      <trkpt lat="47.85412" lon="-3.98926">
        <ele>6.4</ele>
        <time>2022-11-12T09:13:40Z</time>
      </trkpt>
      <trkpt lat="47.85412" lon="-3.98927">
        <ele>6.4</ele>
        <time>2022-11-12T09:13:41Z</time>
      </trkpt>
      <trkpt lat="47.85413" lon="-3.98927">
        <ele>6.4</ele>
        <time>2022-11-12T09:13:42Z</time>
      </trkpt>
      <trkpt lat="47.85416" lon="-3.98926">
        <ele>6.4</ele>
        <time>2022-11-12T09:13:43Z</time>
      </trkpt>
      <trkpt lat="47.85417" lon="-3.98925">
        <ele>6.4</ele>
        <time>2022-11-12T09:13:44Z</time>
      </trkpt>
      <trkpt lat="47.85419" lon="-3.98925">
        <ele>7</ele>
        <time>2022-11-12T09:13:45Z</time>
      </trkpt>
      <trkpt lat="47.85423" lon="-3.98924">
        <ele>7</ele>
        <time>2022-11-12T09:13:47Z</time>
      </trkpt>
      <trkpt lat="47.85427" lon="-3.98924">
        <ele>7</ele>
        <time>2022-11-12T09:13:48Z</time>
      </trkpt>
      <trkpt lat="47.85432" lon="-3.98925">
        <ele>7.1</ele>
        <time>2022-11-12T09:13:49Z</time>
      </trkpt>
      <trkpt lat="47.85435" lon="-3.98928">
        <ele>7.1</ele>
        <time>2022-11-12T09:13:50Z</time>
      </trkpt>
      <trkpt lat="47.85436" lon="-3.98932">
        <ele>7.1</ele>
        <time>2022-11-12T09:13:51Z</time>
      </trkpt>
      <trkpt lat="47.85434" lon="-3.98936">
        <ele>7.1</ele>
        <time>2022-11-12T09:13:53Z</time>
      </trkpt>
      <trkpt lat="47.85433" lon="-3.9894">
        <ele>7.1</ele>
        <time>2022-11-12T09:13:54Z</time>
      </trkpt>
      <trkpt lat="47.85433" lon="-3.98945">
        <ele>7.1</ele>
        <time>2022-11-12T09:13:55Z</time>
      </trkpt>
      <trkpt lat="47.85431" lon="-3.98955">
        <ele>7.1</ele>
        <time>2022-11-12T09:13:57Z</time>
      </trkpt>
      <trkpt lat="47.85431" lon="-3.98961">
        <ele>7.1</ele>
        <time>2022-11-12T09:13:58Z</time>
      </trkpt>
      <trkpt lat="47.85431" lon="-3.98967">
        <ele>7.1</ele>
        <time>2022-11-12T09:13:59Z</time>
      </trkpt>
      <trkpt lat="47.8543" lon="-3.98973">
        <ele>7.1</ele>
        <time>2022-11-12T09:14:00Z</time>
      </trkpt>
      <trkpt lat="47.8543" lon="-3.98978">
        <ele>7.1</ele>
        <time>2022-11-12T09:14:01Z</time>
      </trkpt>
      <trkpt lat="47.8543" lon="-3.98984">
        <ele>7.1</ele>
        <time>2022-11-12T09:14:02Z</time>
      </trkpt>
      <trkpt lat="47.8543" lon="-3.98993">
        <ele>7</ele>
        <time>2022-11-12T09:14:04Z</time>
      </trkpt>
      <trkpt lat="47.8543" lon="-3.98997">
        <ele>7</ele>
        <time>2022-11-12T09:14:05Z</time>
      </trkpt>
      <trkpt lat="47.8543" lon="-3.99005">
        <ele>7</ele>
        <time>2022-11-12T09:14:06Z</time>
      </trkpt>
      <trkpt lat="47.85429" lon="-3.99009">
        <ele>7</ele>
        <time>2022-11-12T09:14:07Z</time>
      </trkpt>
      <trkpt lat="47.85428" lon="-3.99013">
        <ele>7</ele>
        <time>2022-11-12T09:14:08Z</time>
      </trkpt>
      <trkpt lat="47.85428" lon="-3.99017">
        <ele>7</ele>
        <time>2022-11-12T09:14:10Z</time>
      </trkpt>
      <trkpt lat="47.85427" lon="-3.99023">
        <ele>7</ele>
        <time>2022-11-12T09:14:11Z</time>
      </trkpt>
      <trkpt lat="47.85427" lon="-3.99028">
        <ele>7.1</ele>
        <time>2022-11-12T09:14:12Z</time>
      </trkpt>
      <trkpt lat="47.85426" lon="-3.99034">
        <ele>7.1</ele>
        <time>2022-11-12T09:14:13Z</time>
      </trkpt>
      <trkpt lat="47.85425" lon="-3.99041">
        <ele>7.2</ele>
        <time>2022-11-12T09:14:14Z</time>
      </trkpt>
      <trkpt lat="47.85425" lon="-3.99053">
        <ele>7.2</ele>
        <time>2022-11-12T09:14:16Z</time>
      </trkpt>
      <trkpt lat="47.85424" lon="-3.99059">
        <ele>7.3</ele>
        <time>2022-11-12T09:14:17Z</time>
      </trkpt>
      <trkpt lat="47.85424" lon="-3.99066">
        <ele>7.3</ele>
        <time>2022-11-12T09:14:18Z</time>
      </trkpt>
      <trkpt lat="47.85423" lon="-3.99072">
        <ele>7.3</ele>
        <time>2022-11-12T09:14:19Z</time>
      </trkpt>
      <trkpt lat="47.85422" lon="-3.99081">
        <ele>7.3</ele>
        <time>2022-11-12T09:14:20Z</time>
      </trkpt>
      <trkpt lat="47.85421" lon="-3.99088">
        <ele>7.4</ele>
        <time>2022-11-12T09:14:21Z</time>
      </trkpt>
      <trkpt lat="47.8542" lon="-3.99096">
        <ele>7.4</ele>
        <time>2022-11-12T09:14:22Z</time>
      </trkpt>
      <trkpt lat="47.85419" lon="-3.99103">
        <ele>7.4</ele>
        <time>2022-11-12T09:14:23Z</time>
      </trkpt>
      <trkpt lat="47.85419" lon="-3.99111">
        <ele>7.4</ele>
        <time>2022-11-12T09:14:24Z</time>
      </trkpt>
      <trkpt lat="47.85418" lon="-3.99119">
        <ele>7.5</ele>
        <time>2022-11-12T09:14:25Z</time>
      </trkpt>
      <trkpt lat="47.85417" lon="-3.99126">
        <ele>7.5</ele>
        <time>2022-11-12T09:14:26Z</time>
      </trkpt>
      <trkpt lat="47.85416" lon="-3.99134">
        <ele>7.5</ele>
        <time>2022-11-12T09:14:27Z</time>
      </trkpt>
      <trkpt lat="47.85416" lon="-3.99142">
        <ele>7.5</ele>
        <time>2022-11-12T09:14:28Z</time>
      </trkpt>
      <trkpt lat="47.85414" lon="-3.9915">
        <ele>7.5</ele>
        <time>2022-11-12T09:14:29Z</time>
      </trkpt>
      <trkpt lat="47.85413" lon="-3.99157">
        <ele>7.6</ele>
        <time>2022-11-12T09:14:30Z</time>
      </trkpt>
      <trkpt lat="47.85412" lon="-3.99164">
        <ele>7.6</ele>
        <time>2022-11-12T09:14:31Z</time>
      </trkpt>
      <trkpt lat="47.85411" lon="-3.99172">
        <ele>7.6</ele>
        <time>2022-11-12T09:14:32Z</time>
      </trkpt>
      <trkpt lat="47.8541" lon="-3.99179">
        <ele>7.6</ele>
        <time>2022-11-12T09:14:33Z</time>
      </trkpt>
      <trkpt lat="47.85409" lon="-3.99186">
        <ele>7.6</ele>
        <time>2022-11-12T09:14:34Z</time>
      </trkpt>
      <trkpt lat="47.85408" lon="-3.99193">
        <ele>7.7</ele>
        <time>2022-11-12T09:14:35Z</time>
      </trkpt>
      <trkpt lat="47.85406" lon="-3.99201">
        <ele>7.7</ele>
        <time>2022-11-12T09:14:36Z</time>
      </trkpt>
      <trkpt lat="47.85405" lon="-3.99208">
        <ele>7.7</ele>
        <time>2022-11-12T09:14:37Z</time>
      </trkpt>
      <trkpt lat="47.85404" lon="-3.99216">
        <ele>7.7</ele>
        <time>2022-11-12T09:14:38Z</time>
      </trkpt>
      <trkpt lat="47.85403" lon="-3.99223">
        <ele>7.7</ele>
        <time>2022-11-12T09:14:39Z</time>
      </trkpt>
      <trkpt lat="47.85402" lon="-3.99229">
        <ele>7.7</ele>
        <time>2022-11-12T09:14:40Z</time>
      </trkpt>
      <trkpt lat="47.85401" lon="-3.99236">
        <ele>7.7</ele>
        <time>2022-11-12T09:14:41Z</time>
      </trkpt>
      <trkpt lat="47.854" lon="-3.99244">
        <ele>7.7</ele>
        <time>2022-11-12T09:14:42Z</time>
      </trkpt>
      <trkpt lat="47.854" lon="-3.99251">
        <ele>7.7</ele>
        <time>2022-11-12T09:14:43Z</time>
      </trkpt>
      <trkpt lat="47.85398" lon="-3.99258">
        <ele>7.7</ele>
        <time>2022-11-12T09:14:44Z</time>
      </trkpt>
      <trkpt lat="47.85397" lon="-3.99265">
        <ele>7.7</ele>
        <time>2022-11-12T09:14:45Z</time>
      </trkpt>
      <trkpt lat="47.85396" lon="-3.99272">
        <ele>7.7</ele>
        <time>2022-11-12T09:14:46Z</time>
      </trkpt>
      <trkpt lat="47.85396" lon="-3.9928">
        <ele>7.7</ele>
        <time>2022-11-12T09:14:47Z</time>
      </trkpt>
      <trkpt lat="47.85397" lon="-3.99286">
        <ele>7.5</ele>
        <time>2022-11-12T09:14:48Z</time>
      </trkpt>
      <trkpt lat="47.854" lon="-3.99291">
        <ele>7.3</ele>
        <time>2022-11-12T09:14:49Z</time>
      </trkpt>
      <trkpt lat="47.85404" lon="-3.99295">
        <ele>7.1</ele>
        <time>2022-11-12T09:14:50Z</time>
      </trkpt>
      <trkpt lat="47.85407" lon="-3.993">
        <ele>6.8</ele>
        <time>2022-11-12T09:14:51Z</time>
      </trkpt>
      <trkpt lat="47.85411" lon="-3.99304">
        <ele>6.5</ele>
        <time>2022-11-12T09:14:52Z</time>
      </trkpt>
      <trkpt lat="47.85416" lon="-3.9931">
        <ele>6.3</ele>
        <time>2022-11-12T09:14:53Z</time>
      </trkpt>
      <trkpt lat="47.8542" lon="-3.99316">
        <ele>6</ele>
        <time>2022-11-12T09:14:54Z</time>
      </trkpt>
      <trkpt lat="47.85423" lon="-3.99321">
        <ele>5.8</ele>
        <time>2022-11-12T09:14:55Z</time>
      </trkpt>
      <trkpt lat="47.85426" lon="-3.99325">
        <ele>5.7</ele>
        <time>2022-11-12T09:14:56Z</time>
      </trkpt>
      <trkpt lat="47.85428" lon="-3.99331">
        <ele>5.5</ele>
        <time>2022-11-12T09:14:57Z</time>
      </trkpt>
      <trkpt lat="47.85428" lon="-3.99335">
        <ele>5.5</ele>
        <time>2022-11-12T09:14:58Z</time>
      </trkpt>
      <trkpt lat="47.8543" lon="-3.99344">
        <ele>5.4</ele>
        <time>2022-11-12T09:14:59Z</time>
      </trkpt>
      <trkpt lat="47.85433" lon="-3.99352">
        <ele>5.2</ele>
        <time>2022-11-12T09:15:00Z</time>
      </trkpt>
      <trkpt lat="47.85436" lon="-3.99359">
        <ele>5.1</ele>
        <time>2022-11-12T09:15:01Z</time>
      </trkpt>
      <trkpt lat="47.85442" lon="-3.99365">
        <ele>4.9</ele>
        <time>2022-11-12T09:15:02Z</time>
      </trkpt>
      <trkpt lat="47.85447" lon="-3.99369">
        <ele>4.8</ele>
        <time>2022-11-12T09:15:03Z</time>
      </trkpt>
      <trkpt lat="47.85453" lon="-3.99374">
        <ele>4.6</ele>
        <time>2022-11-12T09:15:04Z</time>
      </trkpt>
      <trkpt lat="47.8546" lon="-3.99379">
        <ele>4.4</ele>
        <time>2022-11-12T09:15:05Z</time>
      </trkpt>
      <trkpt lat="47.85466" lon="-3.99384">
        <ele>4.3</ele>
        <time>2022-11-12T09:15:06Z</time>
      </trkpt>
      <trkpt lat="47.85472" lon="-3.9939">
        <ele>4.2</ele>
        <time>2022-11-12T09:15:07Z</time>
      </trkpt>
      <trkpt lat="47.85479" lon="-3.99396">
        <ele>4.1</ele>
        <time>2022-11-12T09:15:08Z</time>
      </trkpt>
      <trkpt lat="47.85484" lon="-3.99402">
        <ele>4.1</ele>
        <time>2022-11-12T09:15:09Z</time>
      </trkpt>
      <trkpt lat="47.8549" lon="-3.99408">
        <ele>4.1</ele>
        <time>2022-11-12T09:15:10Z</time>
      </trkpt>
      <trkpt lat="47.85495" lon="-3.99414">
        <ele>4</ele>
        <time>2022-11-12T09:15:11Z</time>
      </trkpt>
      <trkpt lat="47.85499" lon="-3.99421">
        <ele>4</ele>
        <time>2022-11-12T09:15:12Z</time>
      </trkpt>
      <trkpt lat="47.85503" lon="-3.99429">
        <ele>4</ele>
        <time>2022-11-12T09:15:13Z</time>
      </trkpt>
      <trkpt lat="47.85506" lon="-3.99437">
        <ele>3.9</ele>
        <time>2022-11-12T09:15:14Z</time>
      </trkpt>
      <trkpt lat="47.8551" lon="-3.99445">
        <ele>3.9</ele>
        <time>2022-11-12T09:15:15Z</time>
      </trkpt>
      <trkpt lat="47.85514" lon="-3.99452">
        <ele>3.9</ele>
        <time>2022-11-12T09:15:16Z</time>
      </trkpt>
      <trkpt lat="47.85517" lon="-3.9946">
        <ele>3.9</ele>
        <time>2022-11-12T09:15:17Z</time>
      </trkpt>
      <trkpt lat="47.85521" lon="-3.99467">
        <ele>3.9</ele>
        <time>2022-11-12T09:15:18Z</time>
      </trkpt>
      <trkpt lat="47.85524" lon="-3.99474">
        <ele>3.9</ele>
        <time>2022-11-12T09:15:19Z</time>
      </trkpt>
      <trkpt lat="47.85527" lon="-3.99481">
        <ele>3.9</ele>
        <time>2022-11-12T09:15:20Z</time>
      </trkpt>
      <trkpt lat="47.8553" lon="-3.99488">
        <ele>3.9</ele>
        <time>2022-11-12T09:15:21Z</time>
      </trkpt>
      <trkpt lat="47.85533" lon="-3.99496">
        <ele>3.9</ele>
        <time>2022-11-12T09:15:22Z</time>
      </trkpt>
      <trkpt lat="47.85533" lon="-3.99504">
        <ele>3.9</ele>
        <time>2022-11-12T09:15:23Z</time>
      </trkpt>
      <trkpt lat="47.85532" lon="-3.99512">
        <ele>3.9</ele>
        <time>2022-11-12T09:15:24Z</time>
      </trkpt>
      <trkpt lat="47.85531" lon="-3.99519">
        <ele>3.9</ele>
        <time>2022-11-12T09:15:25Z</time>
      </trkpt>
      <trkpt lat="47.8553" lon="-3.99526">
        <ele>3.9</ele>
        <time>2022-11-12T09:15:26Z</time>
      </trkpt>
      <trkpt lat="47.85528" lon="-3.99533">
        <ele>3.9</ele>
        <time>2022-11-12T09:15:27Z</time>
      </trkpt>
      <trkpt lat="47.85526" lon="-3.9954">
        <ele>3.9</ele>
        <time>2022-11-12T09:15:28Z</time>
      </trkpt>
      <trkpt lat="47.85524" lon="-3.99547">
        <ele>3.9</ele>
        <time>2022-11-12T09:15:29Z</time>
      </trkpt>
      <trkpt lat="47.85522" lon="-3.99554">
        <ele>3.9</ele>
        <time>2022-11-12T09:15:30Z</time>
      </trkpt>
      <trkpt lat="47.8552" lon="-3.99562">
        <ele>3.8</ele>
        <time>2022-11-12T09:15:31Z</time>
      </trkpt>
      <trkpt lat="47.85518" lon="-3.99569">
        <ele>3.8</ele>
        <time>2022-11-12T09:15:32Z</time>
      </trkpt>
      <trkpt lat="47.85515" lon="-3.99577">
        <ele>3.8</ele>
        <time>2022-11-12T09:15:33Z</time>
      </trkpt>
      <trkpt lat="47.85512" lon="-3.99585">
        <ele>3.8</ele>
        <time>2022-11-12T09:15:34Z</time>
      </trkpt>
      <trkpt lat="47.85509" lon="-3.99593">
        <ele>3.8</ele>
        <time>2022-11-12T09:15:35Z</time>
      </trkpt>
      <trkpt lat="47.85506" lon="-3.99601">
        <ele>3.7</ele>
        <time>2022-11-12T09:15:36Z</time>
      </trkpt>
      <trkpt lat="47.85503" lon="-3.99609">
        <ele>3.7</ele>
        <time>2022-11-12T09:15:37Z</time>
      </trkpt>
      <trkpt lat="47.855" lon="-3.99617">
        <ele>3.7</ele>
        <time>2022-11-12T09:15:38Z</time>
      </trkpt>
      <trkpt lat="47.85496" lon="-3.99624">
        <ele>3.6</ele>
        <time>2022-11-12T09:15:39Z</time>
      </trkpt>
      <trkpt lat="47.85492" lon="-3.99631">
        <ele>3.6</ele>
        <time>2022-11-12T09:15:40Z</time>
      </trkpt>
      <trkpt lat="47.85488" lon="-3.99639">
        <ele>3.6</ele>
        <time>2022-11-12T09:15:41Z</time>
      </trkpt>
      <trkpt lat="47.85485" lon="-3.99646">
        <ele>3.6</ele>
        <time>2022-11-12T09:15:42Z</time>
      </trkpt>
      <trkpt lat="47.85482" lon="-3.99654">
        <ele>3.6</ele>
        <time>2022-11-12T09:15:43Z</time>
      </trkpt>
      <trkpt lat="47.85478" lon="-3.99662">
        <ele>3.6</ele>
        <time>2022-11-12T09:15:44Z</time>
      </trkpt>
      <trkpt lat="47.85475" lon="-3.99671">
        <ele>3.5</ele>
        <time>2022-11-12T09:15:45Z</time>
      </trkpt>
      <trkpt lat="47.85473" lon="-3.99679">
        <ele>3.5</ele>
        <time>2022-11-12T09:15:46Z</time>
      </trkpt>
      <trkpt lat="47.8547" lon="-3.99688">
        <ele>3.5</ele>
        <time>2022-11-12T09:15:47Z</time>
      </trkpt>
      <trkpt lat="47.85467" lon="-3.99697">
        <ele>3.5</ele>
        <time>2022-11-12T09:15:48Z</time>
      </trkpt>
      <trkpt lat="47.85465" lon="-3.99706">
        <ele>3.4</ele>
        <time>2022-11-12T09:15:49Z</time>
      </trkpt>
      <trkpt lat="47.85463" lon="-3.99716">
        <ele>3.4</ele>
        <time>2022-11-12T09:15:50Z</time>
      </trkpt>
      <trkpt lat="47.85462" lon="-3.99726">
        <ele>3.4</ele>
        <time>2022-11-12T09:15:51Z</time>
      </trkpt>
      <trkpt lat="47.85461" lon="-3.99736">
        <ele>3.4</ele>
        <time>2022-11-12T09:15:52Z</time>
      </trkpt>
      <trkpt lat="47.85461" lon="-3.99745">
        <ele>3.4</ele>
        <time>2022-11-12T09:15:53Z</time>
      </trkpt>
      <trkpt lat="47.85461" lon="-3.99755">
        <ele>3.4</ele>
        <time>2022-11-12T09:15:54Z</time>
      </trkpt>
      <trkpt lat="47.85461" lon="-3.99765">
        <ele>3.4</ele>
        <time>2022-11-12T09:15:55Z</time>
      </trkpt>
      <trkpt lat="47.85462" lon="-3.99774">
        <ele>3.4</ele>
        <time>2022-11-12T09:15:56Z</time>
      </trkpt>
      <trkpt lat="47.85462" lon="-3.99784">
        <ele>3.4</ele>
        <time>2022-11-12T09:15:57Z</time>
      </trkpt>
      <trkpt lat="47.85463" lon="-3.99794">
        <ele>3.4</ele>
        <time>2022-11-12T09:15:58Z</time>
      </trkpt>
      <trkpt lat="47.85464" lon="-3.99803">
        <ele>3.4</ele>
        <time>2022-11-12T09:15:59Z</time>
      </trkpt>
      <trkpt lat="47.85466" lon="-3.99813">
        <ele>3.4</ele>
        <time>2022-11-12T09:16:00Z</time>
      </trkpt>
      <trkpt lat="47.85468" lon="-3.99823">
        <ele>3.4</ele>
        <time>2022-11-12T09:16:01Z</time>
      </trkpt>
      <trkpt lat="47.8547" lon="-3.99833">
        <ele>3.4</ele>
        <time>2022-11-12T09:16:02Z</time>
      </trkpt>
      <trkpt lat="47.85473" lon="-3.99843">
        <ele>3.4</ele>
        <time>2022-11-12T09:16:03Z</time>
      </trkpt>
      <trkpt lat="47.85475" lon="-3.99852">
        <ele>3.4</ele>
        <time>2022-11-12T09:16:04Z</time>
      </trkpt>
      <trkpt lat="47.85477" lon="-3.99863">
        <ele>3.5</ele>
        <time>2022-11-12T09:16:05Z</time>
      </trkpt>
      <trkpt lat="47.85479" lon="-3.99872">
        <ele>3.5</ele>
        <time>2022-11-12T09:16:06Z</time>
      </trkpt>
      <trkpt lat="47.85481" lon="-3.99881">
        <ele>3.6</ele>
        <time>2022-11-12T09:16:07Z</time>
      </trkpt>
      <trkpt lat="47.8548" lon="-3.99889">
        <ele>3.7</ele>
        <time>2022-11-12T09:16:08Z</time>
      </trkpt>
      <trkpt lat="47.8548" lon="-3.99897">
        <ele>3.7</ele>
        <time>2022-11-12T09:16:09Z</time>
      </trkpt>
      <trkpt lat="47.85479" lon="-3.99905">
        <ele>3.7</ele>
        <time>2022-11-12T09:16:10Z</time>
      </trkpt>
      <trkpt lat="47.85478" lon="-3.99914">
        <ele>3.8</ele>
        <time>2022-11-12T09:16:11Z</time>
      </trkpt>
      <trkpt lat="47.85476" lon="-3.9992">
        <ele>3.8</ele>
        <time>2022-11-12T09:16:12Z</time>
      </trkpt>
      <trkpt lat="47.85471" lon="-3.99926">
        <ele>3.7</ele>
        <time>2022-11-12T09:16:13Z</time>
      </trkpt>
      <trkpt lat="47.85465" lon="-3.9993">
        <ele>3.7</ele>
        <time>2022-11-12T09:16:14Z</time>
      </trkpt>
      <trkpt lat="47.8546" lon="-3.99933">
        <ele>3.8</ele>
        <time>2022-11-12T09:16:15Z</time>
      </trkpt>
      <trkpt lat="47.85454" lon="-3.99934">
        <ele>3.8</ele>
        <time>2022-11-12T09:16:16Z</time>
      </trkpt>
      <trkpt lat="47.85447" lon="-3.99933">
        <ele>3.8</ele>
        <time>2022-11-12T09:16:17Z</time>
      </trkpt>
      <trkpt lat="47.8544" lon="-3.99931">
        <ele>3.8</ele>
        <time>2022-11-12T09:16:18Z</time>
      </trkpt>
      <trkpt lat="47.85434" lon="-3.9993">
        <ele>3.9</ele>
        <time>2022-11-12T09:16:19Z</time>
      </trkpt>
      <trkpt lat="47.85428" lon="-3.99929">
        <ele>3.9</ele>
        <time>2022-11-12T09:16:20Z</time>
      </trkpt>
      <trkpt lat="47.85423" lon="-3.9993">
        <ele>3.9</ele>
        <time>2022-11-12T09:16:21Z</time>
      </trkpt>
      <trkpt lat="47.85417" lon="-3.99933">
        <ele>3.8</ele>
        <time>2022-11-12T09:16:22Z</time>
      </trkpt>
      <trkpt lat="47.85411" lon="-3.99937">
        <ele>3.8</ele>
        <time>2022-11-12T09:16:23Z</time>
      </trkpt>
      <trkpt lat="47.85406" lon="-3.9994">
        <ele>3.8</ele>
        <time>2022-11-12T09:16:24Z</time>
      </trkpt>
      <trkpt lat="47.854" lon="-3.99945">
        <ele>3.9</ele>
        <time>2022-11-12T09:16:25Z</time>
      </trkpt>
      <trkpt lat="47.85395" lon="-3.99951">
        <ele>3.9</ele>
        <time>2022-11-12T09:16:26Z</time>
      </trkpt>
      <trkpt lat="47.85391" lon="-3.99959">
        <ele>3.9</ele>
        <time>2022-11-12T09:16:27Z</time>
      </trkpt>
      <trkpt lat="47.85386" lon="-3.99967">
        <ele>3.9</ele>
        <time>2022-11-12T09:16:28Z</time>
      </trkpt>
      <trkpt lat="47.85384" lon="-3.99976">
        <ele>3.9</ele>
        <time>2022-11-12T09:16:29Z</time>
      </trkpt>
      <trkpt lat="47.85382" lon="-3.99984">
        <ele>3.9</ele>
        <time>2022-11-12T09:16:30Z</time>
      </trkpt>
      <trkpt lat="47.85381" lon="-3.99992">
        <ele>3.9</ele>
        <time>2022-11-12T09:16:31Z</time>
      </trkpt>
      <trkpt lat="47.85379" lon="-4.00001">
        <ele>3.9</ele>
        <time>2022-11-12T09:16:32Z</time>
      </trkpt>
      <trkpt lat="47.85378" lon="-4.0001">
        <ele>3.8</ele>
        <time>2022-11-12T09:16:33Z</time>
      </trkpt>
      <trkpt lat="47.85377" lon="-4.00019">
        <ele>3.8</ele>
        <time>2022-11-12T09:16:34Z</time>
      </trkpt>
      <trkpt lat="47.85376" lon="-4.00028">
        <ele>3.7</ele>
        <time>2022-11-12T09:16:35Z</time>
      </trkpt>
      <trkpt lat="47.85374" lon="-4.00037">
        <ele>3.7</ele>
        <time>2022-11-12T09:16:36Z</time>
      </trkpt>
      <trkpt lat="47.85373" lon="-4.00047">
        <ele>3.6</ele>
        <time>2022-11-12T09:16:37Z</time>
      </trkpt>
      <trkpt lat="47.85371" lon="-4.00057">
        <ele>3.6</ele>
        <time>2022-11-12T09:16:38Z</time>
      </trkpt>
      <trkpt lat="47.85369" lon="-4.00066">
        <ele>3.6</ele>
        <time>2022-11-12T09:16:39Z</time>
      </trkpt>
      <trkpt lat="47.85368" lon="-4.00075">
        <ele>3.6</ele>
        <time>2022-11-12T09:16:40Z</time>
      </trkpt>
      <trkpt lat="47.85367" lon="-4.00083">
        <ele>3.6</ele>
        <time>2022-11-12T09:16:41Z</time>
      </trkpt>
      <trkpt lat="47.85366" lon="-4.00093">
        <ele>3.6</ele>
        <time>2022-11-12T09:16:42Z</time>
      </trkpt>
      <trkpt lat="47.85365" lon="-4.00102">
        <ele>3.6</ele>
        <time>2022-11-12T09:16:43Z</time>
      </trkpt>
      <trkpt lat="47.85363" lon="-4.00111">
        <ele>3.6</ele>
        <time>2022-11-12T09:16:44Z</time>
      </trkpt>
      <trkpt lat="47.85362" lon="-4.0012">
        <ele>3.5</ele>
        <time>2022-11-12T09:16:45Z</time>
      </trkpt>
      <trkpt lat="47.85361" lon="-4.00129">
        <ele>3.5</ele>
        <time>2022-11-12T09:16:46Z</time>
      </trkpt>
      <trkpt lat="47.85359" lon="-4.00138">
        <ele>3.5</ele>
        <time>2022-11-12T09:16:47Z</time>
      </trkpt>
      <trkpt lat="47.85358" lon="-4.00148">
        <ele>3.5</ele>
        <time>2022-11-12T09:16:48Z</time>
      </trkpt>
      <trkpt lat="47.85356" lon="-4.00157">
        <ele>3.6</ele>
        <time>2022-11-12T09:16:49Z</time>
      </trkpt>
      <trkpt lat="47.85354" lon="-4.00165">
        <ele>3.6</ele>
        <time>2022-11-12T09:16:50Z</time>
      </trkpt>
      <trkpt lat="47.85353" lon="-4.00175">
        <ele>3.6</ele>
        <time>2022-11-12T09:16:51Z</time>
      </trkpt>
      <trkpt lat="47.85351" lon="-4.00184">
        <ele>3.6</ele>
        <time>2022-11-12T09:16:52Z</time>
      </trkpt>
      <trkpt lat="47.8535" lon="-4.00193">
        <ele>3.7</ele>
        <time>2022-11-12T09:16:53Z</time>
      </trkpt>
      <trkpt lat="47.85348" lon="-4.00202">
        <ele>3.7</ele>
        <time>2022-11-12T09:16:54Z</time>
      </trkpt>
      <trkpt lat="47.85347" lon="-4.00211">
        <ele>3.7</ele>
        <time>2022-11-12T09:16:55Z</time>
      </trkpt>
      <trkpt lat="47.85346" lon="-4.0022">
        <ele>3.7</ele>
        <time>2022-11-12T09:16:56Z</time>
      </trkpt>
      <trkpt lat="47.85344" lon="-4.00228">
        <ele>3.7</ele>
        <time>2022-11-12T09:16:57Z</time>
      </trkpt>
      <trkpt lat="47.85342" lon="-4.00237">
        <ele>3.7</ele>
        <time>2022-11-12T09:16:58Z</time>
      </trkpt>
      <trkpt lat="47.8534" lon="-4.00246">
        <ele>3.7</ele>
        <time>2022-11-12T09:16:59Z</time>
      </trkpt>
      <trkpt lat="47.85338" lon="-4.00255">
        <ele>3.6</ele>
        <time>2022-11-12T09:17:00Z</time>
      </trkpt>
      <trkpt lat="47.85336" lon="-4.00264">
        <ele>3.6</ele>
        <time>2022-11-12T09:17:01Z</time>
      </trkpt>
      <trkpt lat="47.85335" lon="-4.00273">
        <ele>3.6</ele>
        <time>2022-11-12T09:17:02Z</time>
      </trkpt>
      <trkpt lat="47.85334" lon="-4.00283">
        <ele>3.7</ele>
        <time>2022-11-12T09:17:03Z</time>
      </trkpt>
      <trkpt lat="47.85334" lon="-4.00292">
        <ele>3.7</ele>
        <time>2022-11-12T09:17:04Z</time>
      </trkpt>
      <trkpt lat="47.85334" lon="-4.003">
        <ele>3.7</ele>
        <time>2022-11-12T09:17:05Z</time>
      </trkpt>
      <trkpt lat="47.85334" lon="-4.00309">
        <ele>3.7</ele>
        <time>2022-11-12T09:17:06Z</time>
      </trkpt>
      <trkpt lat="47.85334" lon="-4.00319">
        <ele>3.7</ele>
        <time>2022-11-12T09:17:07Z</time>
      </trkpt>
      <trkpt lat="47.85335" lon="-4.00328">
        <ele>3.7</ele>
        <time>2022-11-12T09:17:08Z</time>
      </trkpt>
      <trkpt lat="47.85336" lon="-4.00336">
        <ele>3.7</ele>
        <time>2022-11-12T09:17:09Z</time>
      </trkpt>
      <trkpt lat="47.85338" lon="-4.00344">
        <ele>3.7</ele>
        <time>2022-11-12T09:17:10Z</time>
      </trkpt>
      <trkpt lat="47.85339" lon="-4.00354">
        <ele>3.7</ele>
        <time>2022-11-12T09:17:11Z</time>
      </trkpt>
      <trkpt lat="47.8534" lon="-4.00364">
        <ele>3.7</ele>
        <time>2022-11-12T09:17:12Z</time>
      </trkpt>
      <trkpt lat="47.85341" lon="-4.00374">
        <ele>3.7</ele>
        <time>2022-11-12T09:17:13Z</time>
      </trkpt>
      <trkpt lat="47.85342" lon="-4.00384">
        <ele>3.6</ele>
        <time>2022-11-12T09:17:14Z</time>
      </trkpt>
      <trkpt lat="47.85343" lon="-4.00393">
        <ele>3.6</ele>
        <time>2022-11-12T09:17:15Z</time>
      </trkpt>
      <trkpt lat="47.85343" lon="-4.00403">
        <ele>3.6</ele>
        <time>2022-11-12T09:17:16Z</time>
      </trkpt>
      <trkpt lat="47.85343" lon="-4.00413">
        <ele>3.6</ele>
        <time>2022-11-12T09:17:17Z</time>
      </trkpt>
      <trkpt lat="47.85343" lon="-4.00423">
        <ele>3.6</ele>
        <time>2022-11-12T09:17:18Z</time>
      </trkpt>
      <trkpt lat="47.85343" lon="-4.00432">
        <ele>3.6</ele>
        <time>2022-11-12T09:17:19Z</time>
      </trkpt>
      <trkpt lat="47.85343" lon="-4.00441">
        <ele>3.6</ele>
        <time>2022-11-12T09:17:20Z</time>
      </trkpt>
      <trkpt lat="47.85342" lon="-4.0045">
        <ele>3.6</ele>
        <time>2022-11-12T09:17:21Z</time>
      </trkpt>
      <trkpt lat="47.8534" lon="-4.00459">
        <ele>3.7</ele>
        <time>2022-11-12T09:17:22Z</time>
      </trkpt>
      <trkpt lat="47.85338" lon="-4.00468">
        <ele>3.7</ele>
        <time>2022-11-12T09:17:23Z</time>
      </trkpt>
      <trkpt lat="47.85336" lon="-4.00476">
        <ele>3.8</ele>
        <time>2022-11-12T09:17:24Z</time>
      </trkpt>
      <trkpt lat="47.85333" lon="-4.00484">
        <ele>3.9</ele>
        <time>2022-11-12T09:17:25Z</time>
      </trkpt>
      <trkpt lat="47.85331" lon="-4.00492">
        <ele>3.9</ele>
        <time>2022-11-12T09:17:26Z</time>
      </trkpt>
      <trkpt lat="47.85328" lon="-4.00501">
        <ele>4</ele>
        <time>2022-11-12T09:17:27Z</time>
      </trkpt>
      <trkpt lat="47.85325" lon="-4.00509">
        <ele>4</ele>
        <time>2022-11-12T09:17:28Z</time>
      </trkpt>
      <trkpt lat="47.85323" lon="-4.00518">
        <ele>4.1</ele>
        <time>2022-11-12T09:17:29Z</time>
      </trkpt>
      <trkpt lat="47.85321" lon="-4.00527">
        <ele>4.1</ele>
        <time>2022-11-12T09:17:30Z</time>
      </trkpt>
      <trkpt lat="47.8532" lon="-4.00534">
        <ele>4.1</ele>
        <time>2022-11-12T09:17:31Z</time>
      </trkpt>
      <trkpt lat="47.8532" lon="-4.00543">
        <ele>4.1</ele>
        <time>2022-11-12T09:17:32Z</time>
      </trkpt>
      <trkpt lat="47.85322" lon="-4.00554">
        <ele>4.1</ele>
        <time>2022-11-12T09:17:33Z</time>
      </trkpt>
      <trkpt lat="47.85323" lon="-4.00563">
        <ele>4.1</ele>
        <time>2022-11-12T09:17:34Z</time>
      </trkpt>
      <trkpt lat="47.85325" lon="-4.00572">
        <ele>4.1</ele>
        <time>2022-11-12T09:17:35Z</time>
      </trkpt>
      <trkpt lat="47.85326" lon="-4.00581">
        <ele>4.1</ele>
        <time>2022-11-12T09:17:36Z</time>
      </trkpt>
      <trkpt lat="47.85328" lon="-4.0059">
        <ele>4.1</ele>
        <time>2022-11-12T09:17:37Z</time>
      </trkpt>
      <trkpt lat="47.85329" lon="-4.00599">
        <ele>4.1</ele>
        <time>2022-11-12T09:17:38Z</time>
      </trkpt>
      <trkpt lat="47.8533" lon="-4.00608">
        <ele>4.1</ele>
        <time>2022-11-12T09:17:39Z</time>
      </trkpt>
      <trkpt lat="47.85331" lon="-4.00616">
        <ele>4.1</ele>
        <time>2022-11-12T09:17:40Z</time>
      </trkpt>
      <trkpt lat="47.85331" lon="-4.00625">
        <ele>4.1</ele>
        <time>2022-11-12T09:17:41Z</time>
      </trkpt>
      <trkpt lat="47.85333" lon="-4.00635">
        <ele>4</ele>
        <time>2022-11-12T09:17:42Z</time>
      </trkpt>
      <trkpt lat="47.85333" lon="-4.00645">
        <ele>4</ele>
        <time>2022-11-12T09:17:43Z</time>
      </trkpt>
      <trkpt lat="47.85333" lon="-4.00655">
        <ele>4</ele>
        <time>2022-11-12T09:17:44Z</time>
      </trkpt>
      <trkpt lat="47.85333" lon="-4.00665">
        <ele>4</ele>
        <time>2022-11-12T09:17:45Z</time>
      </trkpt>
      <trkpt lat="47.85334" lon="-4.00675">
        <ele>3.9</ele>
        <time>2022-11-12T09:17:46Z</time>
      </trkpt>
      <trkpt lat="47.85334" lon="-4.00685">
        <ele>3.9</ele>
        <time>2022-11-12T09:17:47Z</time>
      </trkpt>
      <trkpt lat="47.85334" lon="-4.00694">
        <ele>3.8</ele>
        <time>2022-11-12T09:17:48Z</time>
      </trkpt>
      <trkpt lat="47.85333" lon="-4.00703">
        <ele>3.7</ele>
        <time>2022-11-12T09:17:49Z</time>
      </trkpt>
      <trkpt lat="47.85333" lon="-4.00713">
        <ele>3.6</ele>
        <time>2022-11-12T09:17:50Z</time>
      </trkpt>
      <trkpt lat="47.85333" lon="-4.00723">
        <ele>3.6</ele>
        <time>2022-11-12T09:17:51Z</time>
      </trkpt>
      <trkpt lat="47.85333" lon="-4.00732">
        <ele>3.5</ele>
        <time>2022-11-12T09:17:52Z</time>
      </trkpt>
      <trkpt lat="47.85332" lon="-4.00742">
        <ele>3.5</ele>
        <time>2022-11-12T09:17:53Z</time>
      </trkpt>
      <trkpt lat="47.85332" lon="-4.00751">
        <ele>3.4</ele>
        <time>2022-11-12T09:17:54Z</time>
      </trkpt>
      <trkpt lat="47.85331" lon="-4.00761">
        <ele>3.4</ele>
        <time>2022-11-12T09:17:55Z</time>
      </trkpt>
      <trkpt lat="47.85331" lon="-4.0077">
        <ele>3.4</ele>
        <time>2022-11-12T09:17:56Z</time>
      </trkpt>
      <trkpt lat="47.85331" lon="-4.00779">
        <ele>3.4</ele>
        <time>2022-11-12T09:17:57Z</time>
      </trkpt>
      <trkpt lat="47.85331" lon="-4.00788">
        <ele>3.4</ele>
        <time>2022-11-12T09:17:58Z</time>
      </trkpt>
      <trkpt lat="47.8533" lon="-4.00798">
        <ele>3.4</ele>
        <time>2022-11-12T09:17:59Z</time>
      </trkpt>
      <trkpt lat="47.85331" lon="-4.00807">
        <ele>3.3</ele>
        <time>2022-11-12T09:18:00Z</time>
      </trkpt>
      <trkpt lat="47.8533" lon="-4.00816">
        <ele>3.3</ele>
        <time>2022-11-12T09:18:01Z</time>
      </trkpt>
      <trkpt lat="47.85331" lon="-4.00825">
        <ele>3.3</ele>
        <time>2022-11-12T09:18:02Z</time>
      </trkpt>
      <trkpt lat="47.85332" lon="-4.00834">
        <ele>3.3</ele>
        <time>2022-11-12T09:18:03Z</time>
      </trkpt>
      <trkpt lat="47.85332" lon="-4.00843">
        <ele>3.3</ele>
        <time>2022-11-12T09:18:04Z</time>
      </trkpt>
      <trkpt lat="47.85333" lon="-4.00853">
        <ele>3.3</ele>
        <time>2022-11-12T09:18:05Z</time>
      </trkpt>
      <trkpt lat="47.85334" lon="-4.00862">
        <ele>3.3</ele>
        <time>2022-11-12T09:18:06Z</time>
      </trkpt>
      <trkpt lat="47.85335" lon="-4.00871">
        <ele>3.3</ele>
        <time>2022-11-12T09:18:07Z</time>
      </trkpt>
      <trkpt lat="47.85336" lon="-4.00879">
        <ele>3.3</ele>
        <time>2022-11-12T09:18:08Z</time>
      </trkpt>
      <trkpt lat="47.85337" lon="-4.00889">
        <ele>3.3</ele>
        <time>2022-11-12T09:18:09Z</time>
      </trkpt>
      <trkpt lat="47.85338" lon="-4.00899">
        <ele>3.3</ele>
        <time>2022-11-12T09:18:10Z</time>
      </trkpt>
      <trkpt lat="47.85339" lon="-4.00909">
        <ele>3.3</ele>
        <time>2022-11-12T09:18:11Z</time>
      </trkpt>
      <trkpt lat="47.8534" lon="-4.00917">
        <ele>3.3</ele>
        <time>2022-11-12T09:18:12Z</time>
      </trkpt>
      <trkpt lat="47.85342" lon="-4.00927">
        <ele>3.3</ele>
        <time>2022-11-12T09:18:13Z</time>
      </trkpt>
      <trkpt lat="47.85343" lon="-4.00936">
        <ele>3.3</ele>
        <time>2022-11-12T09:18:14Z</time>
      </trkpt>
      <trkpt lat="47.85344" lon="-4.00946">
        <ele>3.3</ele>
        <time>2022-11-12T09:18:15Z</time>
      </trkpt>
      <trkpt lat="47.85346" lon="-4.00956">
        <ele>3.3</ele>
        <time>2022-11-12T09:18:16Z</time>
      </trkpt>
      <trkpt lat="47.85347" lon="-4.00965">
        <ele>3.4</ele>
        <time>2022-11-12T09:18:17Z</time>
      </trkpt>
      <trkpt lat="47.85349" lon="-4.00974">
        <ele>3.5</ele>
        <time>2022-11-12T09:18:18Z</time>
      </trkpt>
      <trkpt lat="47.85351" lon="-4.00982">
        <ele>3.6</ele>
        <time>2022-11-12T09:18:19Z</time>
      </trkpt>
      <trkpt lat="47.85354" lon="-4.00991">
        <ele>3.7</ele>
        <time>2022-11-12T09:18:20Z</time>
      </trkpt>
      <trkpt lat="47.85356" lon="-4.00999">
        <ele>3.8</ele>
        <time>2022-11-12T09:18:21Z</time>
      </trkpt>
      <trkpt lat="47.85358" lon="-4.01007">
        <ele>3.9</ele>
        <time>2022-11-12T09:18:22Z</time>
      </trkpt>
      <trkpt lat="47.8536" lon="-4.01016">
        <ele>4</ele>
        <time>2022-11-12T09:18:23Z</time>
      </trkpt>
      <trkpt lat="47.85361" lon="-4.01025">
        <ele>4</ele>
        <time>2022-11-12T09:18:24Z</time>
      </trkpt>
      <trkpt lat="47.85363" lon="-4.01033">
        <ele>4</ele>
        <time>2022-11-12T09:18:25Z</time>
      </trkpt>
      <trkpt lat="47.85366" lon="-4.01041">
        <ele>4</ele>
        <time>2022-11-12T09:18:26Z</time>
      </trkpt>
      <trkpt lat="47.85369" lon="-4.01049">
        <ele>4</ele>
        <time>2022-11-12T09:18:27Z</time>
      </trkpt>
      <trkpt lat="47.85371" lon="-4.01057">
        <ele>3.9</ele>
        <time>2022-11-12T09:18:28Z</time>
      </trkpt>
      <trkpt lat="47.85372" lon="-4.01065">
        <ele>3.8</ele>
        <time>2022-11-12T09:18:29Z</time>
      </trkpt>
      <trkpt lat="47.85374" lon="-4.01074">
        <ele>3.6</ele>
        <time>2022-11-12T09:18:30Z</time>
      </trkpt>
      <trkpt lat="47.85376" lon="-4.01083">
        <ele>3.5</ele>
        <time>2022-11-12T09:18:31Z</time>
      </trkpt>
      <trkpt lat="47.85379" lon="-4.01091">
        <ele>3.5</ele>
        <time>2022-11-12T09:18:32Z</time>
      </trkpt>
      <trkpt lat="47.85383" lon="-4.01099">
        <ele>3.4</ele>
        <time>2022-11-12T09:18:33Z</time>
      </trkpt>
      <trkpt lat="47.85387" lon="-4.01106">
        <ele>3.4</ele>
        <time>2022-11-12T09:18:34Z</time>
      </trkpt>
      <trkpt lat="47.85391" lon="-4.01114">
        <ele>3.4</ele>
        <time>2022-11-12T09:18:35Z</time>
      </trkpt>
      <trkpt lat="47.85394" lon="-4.01123">
        <ele>3.3</ele>
        <time>2022-11-12T09:18:36Z</time>
      </trkpt>
      <trkpt lat="47.85397" lon="-4.01132">
        <ele>3.3</ele>
        <time>2022-11-12T09:18:37Z</time>
      </trkpt>
      <trkpt lat="47.854" lon="-4.01141">
        <ele>3.3</ele>
        <time>2022-11-12T09:18:38Z</time>
      </trkpt>
      <trkpt lat="47.85402" lon="-4.0115">
        <ele>3.3</ele>
        <time>2022-11-12T09:18:39Z</time>
      </trkpt>
      <trkpt lat="47.85405" lon="-4.01159">
        <ele>3.4</ele>
        <time>2022-11-12T09:18:40Z</time>
      </trkpt>
      <trkpt lat="47.85408" lon="-4.01168">
        <ele>3.4</ele>
        <time>2022-11-12T09:18:41Z</time>
      </trkpt>
      <trkpt lat="47.8541" lon="-4.01177">
        <ele>3.4</ele>
        <time>2022-11-12T09:18:42Z</time>
      </trkpt>
      <trkpt lat="47.85413" lon="-4.01186">
        <ele>3.4</ele>
        <time>2022-11-12T09:18:43Z</time>
      </trkpt>
      <trkpt lat="47.85415" lon="-4.01194">
        <ele>3.4</ele>
        <time>2022-11-12T09:18:44Z</time>
      </trkpt>
      <trkpt lat="47.85418" lon="-4.01203">
        <ele>3.4</ele>
        <time>2022-11-12T09:18:45Z</time>
      </trkpt>
      <trkpt lat="47.85421" lon="-4.01213">
        <ele>3.4</ele>
        <time>2022-11-12T09:18:46Z</time>
      </trkpt>
      <trkpt lat="47.85423" lon="-4.01222">
        <ele>3.5</ele>
        <time>2022-11-12T09:18:47Z</time>
      </trkpt>
      <trkpt lat="47.85426" lon="-4.01231">
        <ele>3.5</ele>
        <time>2022-11-12T09:18:48Z</time>
      </trkpt>
      <trkpt lat="47.85429" lon="-4.0124">
        <ele>3.5</ele>
        <time>2022-11-12T09:18:49Z</time>
      </trkpt>
      <trkpt lat="47.85431" lon="-4.01248">
        <ele>3.5</ele>
        <time>2022-11-12T09:18:50Z</time>
      </trkpt>
      <trkpt lat="47.85434" lon="-4.01257">
        <ele>3.5</ele>
        <time>2022-11-12T09:18:51Z</time>
      </trkpt>
      <trkpt lat="47.85437" lon="-4.01266">
        <ele>3.5</ele>
        <time>2022-11-12T09:18:52Z</time>
      </trkpt>
      <trkpt lat="47.85439" lon="-4.01274">
        <ele>3.5</ele>
        <time>2022-11-12T09:18:53Z</time>
      </trkpt>
      <trkpt lat="47.85442" lon="-4.01283">
        <ele>3.5</ele>
        <time>2022-11-12T09:18:54Z</time>
      </trkpt>
      <trkpt lat="47.85445" lon="-4.01292">
        <ele>3.5</ele>
        <time>2022-11-12T09:18:55Z</time>
      </trkpt>
      <trkpt lat="47.85447" lon="-4.013">
        <ele>3.4</ele>
        <time>2022-11-12T09:18:56Z</time>
      </trkpt>
      <trkpt lat="47.8545" lon="-4.01308">
        <ele>3.4</ele>
        <time>2022-11-12T09:18:57Z</time>
      </trkpt>
      <trkpt lat="47.85453" lon="-4.01317">
        <ele>3.4</ele>
        <time>2022-11-12T09:18:58Z</time>
      </trkpt>
      <trkpt lat="47.85457" lon="-4.01325">
        <ele>3.4</ele>
        <time>2022-11-12T09:18:59Z</time>
      </trkpt>
      <trkpt lat="47.85461" lon="-4.01333">
        <ele>3.4</ele>
        <time>2022-11-12T09:19:00Z</time>
      </trkpt>
      <trkpt lat="47.85465" lon="-4.01341">
        <ele>3.4</ele>
        <time>2022-11-12T09:19:01Z</time>
      </trkpt>
      <trkpt lat="47.85469" lon="-4.01349">
        <ele>3.4</ele>
        <time>2022-11-12T09:19:02Z</time>
      </trkpt>
      <trkpt lat="47.85473" lon="-4.01356">
        <ele>3.4</ele>
        <time>2022-11-12T09:19:03Z</time>
      </trkpt>
      <trkpt lat="47.85478" lon="-4.01364">
        <ele>3.4</ele>
        <time>2022-11-12T09:19:04Z</time>
      </trkpt>
      <trkpt lat="47.85483" lon="-4.01371">
        <ele>3.4</ele>
        <time>2022-11-12T09:19:05Z</time>
      </trkpt>
      <trkpt lat="47.85488" lon="-4.01377">
        <ele>3.4</ele>
        <time>2022-11-12T09:19:06Z</time>
      </trkpt>
      <trkpt lat="47.85493" lon="-4.01383">
        <ele>3.3</ele>
        <time>2022-11-12T09:19:07Z</time>
      </trkpt>
      <trkpt lat="47.85498" lon="-4.01388">
        <ele>3.3</ele>
        <time>2022-11-12T09:19:08Z</time>
      </trkpt>
      <trkpt lat="47.85504" lon="-4.01393">
        <ele>3.3</ele>
        <time>2022-11-12T09:19:09Z</time>
      </trkpt>
      <trkpt lat="47.85509" lon="-4.01399">
        <ele>3.3</ele>
        <time>2022-11-12T09:19:10Z</time>
      </trkpt>
      <trkpt lat="47.85515" lon="-4.01404">
        <ele>3.3</ele>
        <time>2022-11-12T09:19:11Z</time>
      </trkpt>
      <trkpt lat="47.8552" lon="-4.01409">
        <ele>3.3</ele>
        <time>2022-11-12T09:19:12Z</time>
      </trkpt>
      <trkpt lat="47.85526" lon="-4.01413">
        <ele>3.3</ele>
        <time>2022-11-12T09:19:13Z</time>
      </trkpt>
      <trkpt lat="47.85533" lon="-4.01417">
        <ele>3.2</ele>
        <time>2022-11-12T09:19:14Z</time>
      </trkpt>
      <trkpt lat="47.85539" lon="-4.01424">
        <ele>3.2</ele>
        <time>2022-11-12T09:19:15Z</time>
      </trkpt>
      <trkpt lat="47.85544" lon="-4.01431">
        <ele>3.2</ele>
        <time>2022-11-12T09:19:16Z</time>
      </trkpt>
      <trkpt lat="47.85549" lon="-4.01438">
        <ele>3.1</ele>
        <time>2022-11-12T09:19:17Z</time>
      </trkpt>
      <trkpt lat="47.85555" lon="-4.01445">
        <ele>3.1</ele>
        <time>2022-11-12T09:19:18Z</time>
      </trkpt>
      <trkpt lat="47.8556" lon="-4.01453">
        <ele>3.1</ele>
        <time>2022-11-12T09:19:19Z</time>
      </trkpt>
      <trkpt lat="47.85565" lon="-4.0146">
        <ele>3.1</ele>
        <time>2022-11-12T09:19:20Z</time>
      </trkpt>
      <trkpt lat="47.8557" lon="-4.01467">
        <ele>3.1</ele>
        <time>2022-11-12T09:19:21Z</time>
      </trkpt>
      <trkpt lat="47.85576" lon="-4.01474">
        <ele>3.1</ele>
        <time>2022-11-12T09:19:22Z</time>
      </trkpt>
      <trkpt lat="47.85581" lon="-4.01481">
        <ele>3.1</ele>
        <time>2022-11-12T09:19:23Z</time>
      </trkpt>
      <trkpt lat="47.85586" lon="-4.01487">
        <ele>3.1</ele>
        <time>2022-11-12T09:19:24Z</time>
      </trkpt>
      <trkpt lat="47.85591" lon="-4.01493">
        <ele>3.1</ele>
        <time>2022-11-12T09:19:25Z</time>
      </trkpt>
      <trkpt lat="47.85597" lon="-4.01499">
        <ele>3.1</ele>
        <time>2022-11-12T09:19:26Z</time>
      </trkpt>
      <trkpt lat="47.85603" lon="-4.01505">
        <ele>3.1</ele>
        <time>2022-11-12T09:19:27Z</time>
      </trkpt>
      <trkpt lat="47.85609" lon="-4.0151">
        <ele>3.2</ele>
        <time>2022-11-12T09:19:28Z</time>
      </trkpt>
      <trkpt lat="47.85615" lon="-4.01515">
        <ele>3.2</ele>
        <time>2022-11-12T09:19:29Z</time>
      </trkpt>
      <trkpt lat="47.85621" lon="-4.0152">
        <ele>3.2</ele>
        <time>2022-11-12T09:19:30Z</time>
      </trkpt>
      <trkpt lat="47.85627" lon="-4.01525">
        <ele>3.2</ele>
        <time>2022-11-12T09:19:31Z</time>
      </trkpt>
      <trkpt lat="47.85633" lon="-4.01531">
        <ele>3.3</ele>
        <time>2022-11-12T09:19:32Z</time>
      </trkpt>
      <trkpt lat="47.85639" lon="-4.01536">
        <ele>3.3</ele>
        <time>2022-11-12T09:19:33Z</time>
      </trkpt>
      <trkpt lat="47.85645" lon="-4.01542">
        <ele>3.3</ele>
        <time>2022-11-12T09:19:34Z</time>
      </trkpt>
      <trkpt lat="47.85651" lon="-4.01548">
        <ele>3.3</ele>
        <time>2022-11-12T09:19:35Z</time>
      </trkpt>
      <trkpt lat="47.85657" lon="-4.01553">
        <ele>3.3</ele>
        <time>2022-11-12T09:19:36Z</time>
      </trkpt>
      <trkpt lat="47.85663" lon="-4.01559">
        <ele>3.3</ele>
        <time>2022-11-12T09:19:37Z</time>
      </trkpt>
      <trkpt lat="47.85668" lon="-4.01564">
        <ele>3.3</ele>
        <time>2022-11-12T09:19:38Z</time>
      </trkpt>
      <trkpt lat="47.85674" lon="-4.0157">
        <ele>3.3</ele>
        <time>2022-11-12T09:19:39Z</time>
      </trkpt>
      <trkpt lat="47.85679" lon="-4.01576">
        <ele>3.3</ele>
        <time>2022-11-12T09:19:40Z</time>
      </trkpt>
      <trkpt lat="47.85683" lon="-4.01583">
        <ele>3.3</ele>
        <time>2022-11-12T09:19:41Z</time>
      </trkpt>
      <trkpt lat="47.85684" lon="-4.01592">
        <ele>3.4</ele>
        <time>2022-11-12T09:19:42Z</time>
      </trkpt>
      <trkpt lat="47.85683" lon="-4.01601">
        <ele>3.4</ele>
        <time>2022-11-12T09:19:43Z</time>
      </trkpt>
      <trkpt lat="47.85681" lon="-4.0161">
        <ele>3.4</ele>
        <time>2022-11-12T09:19:44Z</time>
      </trkpt>
      <trkpt lat="47.85677" lon="-4.01617">
        <ele>3.4</ele>
        <time>2022-11-12T09:19:45Z</time>
      </trkpt>
      <trkpt lat="47.85673" lon="-4.01624">
        <ele>3.3</ele>
        <time>2022-11-12T09:19:46Z</time>
      </trkpt>
      <trkpt lat="47.85669" lon="-4.01632">
        <ele>3.3</ele>
        <time>2022-11-12T09:19:47Z</time>
      </trkpt>
      <trkpt lat="47.85665" lon="-4.01639">
        <ele>3.3</ele>
        <time>2022-11-12T09:19:48Z</time>
      </trkpt>
      <trkpt lat="47.85661" lon="-4.01647">
        <ele>3.3</ele>
        <time>2022-11-12T09:19:49Z</time>
      </trkpt>
      <trkpt lat="47.85657" lon="-4.01654">
        <ele>3.3</ele>
        <time>2022-11-12T09:19:50Z</time>
      </trkpt>
      <trkpt lat="47.85653" lon="-4.01662">
        <ele>3.4</ele>
        <time>2022-11-12T09:19:51Z</time>
      </trkpt>
      <trkpt lat="47.85649" lon="-4.01668">
        <ele>3.4</ele>
        <time>2022-11-12T09:19:52Z</time>
      </trkpt>
      <trkpt lat="47.85645" lon="-4.01674">
        <ele>3.4</ele>
        <time>2022-11-12T09:19:53Z</time>
      </trkpt>
      <trkpt lat="47.85641" lon="-4.01679">
        <ele>3.4</ele>
        <time>2022-11-12T09:19:54Z</time>
      </trkpt>
      <trkpt lat="47.85641" lon="-4.01685">
        <ele>3.4</ele>
        <time>2022-11-12T09:19:55Z</time>
      </trkpt>
      <trkpt lat="47.85643" lon="-4.01689">
        <ele>3.5</ele>
        <time>2022-11-12T09:19:56Z</time>
      </trkpt>
      <trkpt lat="47.85647" lon="-4.01695">
        <ele>3.5</ele>
        <time>2022-11-12T09:19:57Z</time>
      </trkpt>
      <trkpt lat="47.85652" lon="-4.01699">
        <ele>3.5</ele>
        <time>2022-11-12T09:19:58Z</time>
      </trkpt>
      <trkpt lat="47.85656" lon="-4.01702">
        <ele>3.5</ele>
        <time>2022-11-12T09:19:59Z</time>
      </trkpt>
      <trkpt lat="47.85661" lon="-4.01706">
        <ele>3.5</ele>
        <time>2022-11-12T09:20:00Z</time>
      </trkpt>
      <trkpt lat="47.85666" lon="-4.0171">
        <ele>3.5</ele>
        <time>2022-11-12T09:20:01Z</time>
      </trkpt>
      <trkpt lat="47.85671" lon="-4.01715">
        <ele>3.5</ele>
        <time>2022-11-12T09:20:02Z</time>
      </trkpt>
      <trkpt lat="47.85676" lon="-4.01719">
        <ele>3.5</ele>
        <time>2022-11-12T09:20:03Z</time>
      </trkpt>
      <trkpt lat="47.8568" lon="-4.01725">
        <ele>3.5</ele>
        <time>2022-11-12T09:20:04Z</time>
      </trkpt>
      <trkpt lat="47.85685" lon="-4.0173">
        <ele>3.5</ele>
        <time>2022-11-12T09:20:05Z</time>
      </trkpt>
      <trkpt lat="47.85691" lon="-4.01735">
        <ele>3.5</ele>
        <time>2022-11-12T09:20:06Z</time>
      </trkpt>
      <trkpt lat="47.85696" lon="-4.0174">
        <ele>3.5</ele>
        <time>2022-11-12T09:20:07Z</time>
      </trkpt>
      <trkpt lat="47.85702" lon="-4.01743">
        <ele>3.5</ele>
        <time>2022-11-12T09:20:08Z</time>
      </trkpt>
      <trkpt lat="47.85707" lon="-4.01746">
        <ele>3.5</ele>
        <time>2022-11-12T09:20:09Z</time>
      </trkpt>
      <trkpt lat="47.85713" lon="-4.01749">
        <ele>3.5</ele>
        <time>2022-11-12T09:20:10Z</time>
      </trkpt>
      <trkpt lat="47.85719" lon="-4.0175">
        <ele>3.5</ele>
        <time>2022-11-12T09:20:11Z</time>
      </trkpt>
      <trkpt lat="47.85725" lon="-4.01751">
        <ele>3.5</ele>
        <time>2022-11-12T09:20:12Z</time>
      </trkpt>
      <trkpt lat="47.85732" lon="-4.01751">
        <ele>3.5</ele>
        <time>2022-11-12T09:20:13Z</time>
      </trkpt>
      <trkpt lat="47.85738" lon="-4.01752">
        <ele>3.5</ele>
        <time>2022-11-12T09:20:14Z</time>
      </trkpt>
      <trkpt lat="47.85744" lon="-4.01751">
        <ele>3.5</ele>
        <time>2022-11-12T09:20:15Z</time>
      </trkpt>
      <trkpt lat="47.8575" lon="-4.01751">
        <ele>3.6</ele>
        <time>2022-11-12T09:20:16Z</time>
      </trkpt>
      <trkpt lat="47.85756" lon="-4.01751">
        <ele>3.6</ele>
        <time>2022-11-12T09:20:17Z</time>
      </trkpt>
      <trkpt lat="47.85762" lon="-4.01751">
        <ele>3.6</ele>
        <time>2022-11-12T09:20:18Z</time>
      </trkpt>
      <trkpt lat="47.85768" lon="-4.01751">
        <ele>3.6</ele>
        <time>2022-11-12T09:20:19Z</time>
      </trkpt>
      <trkpt lat="47.85775" lon="-4.01751">
        <ele>3.6</ele>
        <time>2022-11-12T09:20:20Z</time>
      </trkpt>
      <trkpt lat="47.85781" lon="-4.01752">
        <ele>3.6</ele>
        <time>2022-11-12T09:20:21Z</time>
      </trkpt>
      <trkpt lat="47.85787" lon="-4.01753">
        <ele>3.7</ele>
        <time>2022-11-12T09:20:22Z</time>
      </trkpt>
      <trkpt lat="47.85793" lon="-4.01755">
        <ele>3.7</ele>
        <time>2022-11-12T09:20:23Z</time>
      </trkpt>
      <trkpt lat="47.85799" lon="-4.01757">
        <ele>3.7</ele>
        <time>2022-11-12T09:20:24Z</time>
      </trkpt>
      <trkpt lat="47.85806" lon="-4.01758">
        <ele>3.7</ele>
        <time>2022-11-12T09:20:25Z</time>
      </trkpt>
      <trkpt lat="47.85812" lon="-4.01759">
        <ele>3.7</ele>
        <time>2022-11-12T09:20:26Z</time>
      </trkpt>
      <trkpt lat="47.85818" lon="-4.01761">
        <ele>3.7</ele>
        <time>2022-11-12T09:20:27Z</time>
      </trkpt>
      <trkpt lat="47.85824" lon="-4.01763">
        <ele>3.7</ele>
        <time>2022-11-12T09:20:28Z</time>
      </trkpt>
      <trkpt lat="47.8583" lon="-4.01768">
        <ele>3.7</ele>
        <time>2022-11-12T09:20:29Z</time>
      </trkpt>
      <trkpt lat="47.85835" lon="-4.01773">
        <ele>3.7</ele>
        <time>2022-11-12T09:20:30Z</time>
      </trkpt>
      <trkpt lat="47.8584" lon="-4.01777">
        <ele>3.7</ele>
        <time>2022-11-12T09:20:31Z</time>
      </trkpt>
      <trkpt lat="47.85845" lon="-4.01781">
        <ele>3.7</ele>
        <time>2022-11-12T09:20:32Z</time>
      </trkpt>
      <trkpt lat="47.85851" lon="-4.01786">
        <ele>3.8</ele>
        <time>2022-11-12T09:20:33Z</time>
      </trkpt>
      <trkpt lat="47.85856" lon="-4.01791">
        <ele>3.8</ele>
        <time>2022-11-12T09:20:34Z</time>
      </trkpt>
      <trkpt lat="47.85861" lon="-4.01796">
        <ele>3.8</ele>
        <time>2022-11-12T09:20:35Z</time>
      </trkpt>
      <trkpt lat="47.85866" lon="-4.01799">
        <ele>3.7</ele>
        <time>2022-11-12T09:20:36Z</time>
      </trkpt>
      <trkpt lat="47.85872" lon="-4.01801">
        <ele>3.7</ele>
        <time>2022-11-12T09:20:37Z</time>
      </trkpt>
      <trkpt lat="47.85877" lon="-4.01799">
        <ele>3.7</ele>
        <time>2022-11-12T09:20:38Z</time>
      </trkpt>
      <trkpt lat="47.85881" lon="-4.01793">
        <ele>3.6</ele>
        <time>2022-11-12T09:20:39Z</time>
      </trkpt>
      <trkpt lat="47.85883" lon="-4.01787">
        <ele>3.6</ele>
        <time>2022-11-12T09:20:40Z</time>
      </trkpt>
      <trkpt lat="47.85886" lon="-4.01781">
        <ele>3.6</ele>
        <time>2022-11-12T09:20:41Z</time>
      </trkpt>
      <trkpt lat="47.85889" lon="-4.01774">
        <ele>3.6</ele>
        <time>2022-11-12T09:20:42Z</time>
      </trkpt>
      <trkpt lat="47.85893" lon="-4.01767">
        <ele>3.6</ele>
        <time>2022-11-12T09:20:43Z</time>
      </trkpt>
      <trkpt lat="47.85896" lon="-4.01761">
        <ele>3.6</ele>
        <time>2022-11-12T09:20:44Z</time>
      </trkpt>
      <trkpt lat="47.85899" lon="-4.01753">
        <ele>3.6</ele>
        <time>2022-11-12T09:20:45Z</time>
      </trkpt>
      <trkpt lat="47.85902" lon="-4.01746">
        <ele>3.6</ele>
        <time>2022-11-12T09:20:46Z</time>
      </trkpt>
      <trkpt lat="47.85906" lon="-4.0174">
        <ele>3.6</ele>
        <time>2022-11-12T09:20:47Z</time>
      </trkpt>
      <trkpt lat="47.8591" lon="-4.01734">
        <ele>3.7</ele>
        <time>2022-11-12T09:20:48Z</time>
      </trkpt>
      <trkpt lat="47.85913" lon="-4.01727">
        <ele>3.7</ele>
        <time>2022-11-12T09:20:49Z</time>
      </trkpt>
      <trkpt lat="47.85916" lon="-4.01722">
        <ele>3.8</ele>
        <time>2022-11-12T09:20:50Z</time>
      </trkpt>
      <trkpt lat="47.8592" lon="-4.01718">
        <ele>3.9</ele>
        <time>2022-11-12T09:20:51Z</time>
      </trkpt>
      <trkpt lat="47.85924" lon="-4.01716">
        <ele>4</ele>
        <time>2022-11-12T09:20:52Z</time>
      </trkpt>
      <trkpt lat="47.85928" lon="-4.01718">
        <ele>4</ele>
        <time>2022-11-12T09:20:53Z</time>
      </trkpt>
      <trkpt lat="47.85931" lon="-4.01723">
        <ele>4</ele>
        <time>2022-11-12T09:20:54Z</time>
      </trkpt>
      <trkpt lat="47.85933" lon="-4.01728">
        <ele>4</ele>
        <time>2022-11-12T09:20:55Z</time>
      </trkpt>
      <trkpt lat="47.85936" lon="-4.01734">
        <ele>4</ele>
        <time>2022-11-12T09:20:56Z</time>
      </trkpt>
      <trkpt lat="47.85938" lon="-4.01742">
        <ele>3.9</ele>
        <time>2022-11-12T09:20:57Z</time>
      </trkpt>
      <trkpt lat="47.8594" lon="-4.0175">
        <ele>3.9</ele>
        <time>2022-11-12T09:20:58Z</time>
      </trkpt>
      <trkpt lat="47.85942" lon="-4.01757">
        <ele>3.9</ele>
        <time>2022-11-12T09:20:59Z</time>
      </trkpt>
      <trkpt lat="47.85945" lon="-4.01764">
        <ele>3.9</ele>
        <time>2022-11-12T09:21:00Z</time>
      </trkpt>
      <trkpt lat="47.85948" lon="-4.01772">
        <ele>3.9</ele>
        <time>2022-11-12T09:21:01Z</time>
      </trkpt>
      <trkpt lat="47.8595" lon="-4.01779">
        <ele>3.9</ele>
        <time>2022-11-12T09:21:02Z</time>
      </trkpt>
      <trkpt lat="47.85954" lon="-4.01786">
        <ele>3.9</ele>
        <time>2022-11-12T09:21:03Z</time>
      </trkpt>
      <trkpt lat="47.85958" lon="-4.01792">
        <ele>3.9</ele>
        <time>2022-11-12T09:21:04Z</time>
      </trkpt>
      <trkpt lat="47.85961" lon="-4.01797">
        <ele>3.9</ele>
        <time>2022-11-12T09:21:05Z</time>
      </trkpt>
      <trkpt lat="47.85965" lon="-4.01805">
        <ele>3.9</ele>
        <time>2022-11-12T09:21:06Z</time>
      </trkpt>
      <trkpt lat="47.85968" lon="-4.01812">
        <ele>3.9</ele>
        <time>2022-11-12T09:21:07Z</time>
      </trkpt>
      <trkpt lat="47.85972" lon="-4.01819">
        <ele>3.9</ele>
        <time>2022-11-12T09:21:08Z</time>
      </trkpt>
      <trkpt lat="47.85976" lon="-4.01825">
        <ele>3.9</ele>
        <time>2022-11-12T09:21:09Z</time>
      </trkpt>
      <trkpt lat="47.85981" lon="-4.01831">
        <ele>3.9</ele>
        <time>2022-11-12T09:21:10Z</time>
      </trkpt>
      <trkpt lat="47.85986" lon="-4.01837">
        <ele>3.9</ele>
        <time>2022-11-12T09:21:11Z</time>
      </trkpt>
      <trkpt lat="47.8599" lon="-4.01843">
        <ele>4</ele>
        <time>2022-11-12T09:21:12Z</time>
      </trkpt>
      <trkpt lat="47.85994" lon="-4.0185">
        <ele>4</ele>
        <time>2022-11-12T09:21:13Z</time>
      </trkpt>
      <trkpt lat="47.85997" lon="-4.01857">
        <ele>4</ele>
        <time>2022-11-12T09:21:14Z</time>
      </trkpt>
      <trkpt lat="47.86002" lon="-4.01863">
        <ele>4.1</ele>
        <time>2022-11-12T09:21:15Z</time>
      </trkpt>
      <trkpt lat="47.86006" lon="-4.01869">
        <ele>4.1</ele>
        <time>2022-11-12T09:21:16Z</time>
      </trkpt>
      <trkpt lat="47.8601" lon="-4.01875">
        <ele>4.2</ele>
        <time>2022-11-12T09:21:17Z</time>
      </trkpt>
      <trkpt lat="47.86014" lon="-4.0188">
        <ele>4.2</ele>
        <time>2022-11-12T09:21:18Z</time>
      </trkpt>
      <trkpt lat="47.86018" lon="-4.01885">
        <ele>4.3</ele>
        <time>2022-11-12T09:21:19Z</time>
      </trkpt>
      <trkpt lat="47.86023" lon="-4.0189">
        <ele>4.3</ele>
        <time>2022-11-12T09:21:20Z</time>
      </trkpt>
      <trkpt lat="47.86027" lon="-4.01895">
        <ele>4.4</ele>
        <time>2022-11-12T09:21:21Z</time>
      </trkpt>
      <trkpt lat="47.86031" lon="-4.01899">
        <ele>4.4</ele>
        <time>2022-11-12T09:21:22Z</time>
      </trkpt>
      <trkpt lat="47.86035" lon="-4.01904">
        <ele>4.5</ele>
        <time>2022-11-12T09:21:23Z</time>
      </trkpt>
      <trkpt lat="47.8604" lon="-4.01909">
        <ele>4.5</ele>
        <time>2022-11-12T09:21:24Z</time>
      </trkpt>
      <trkpt lat="47.86045" lon="-4.01914">
        <ele>4.5</ele>
        <time>2022-11-12T09:21:25Z</time>
      </trkpt>
      <trkpt lat="47.86049" lon="-4.01919">
        <ele>4.6</ele>
        <time>2022-11-12T09:21:26Z</time>
      </trkpt>
      <trkpt lat="47.86054" lon="-4.01923">
        <ele>4.6</ele>
        <time>2022-11-12T09:21:27Z</time>
      </trkpt>
      <trkpt lat="47.86058" lon="-4.01929">
        <ele>4.7</ele>
        <time>2022-11-12T09:21:28Z</time>
      </trkpt>
      <trkpt lat="47.86062" lon="-4.01933">
        <ele>4.7</ele>
        <time>2022-11-12T09:21:29Z</time>
      </trkpt>
      <trkpt lat="47.86067" lon="-4.01938">
        <ele>4.8</ele>
        <time>2022-11-12T09:21:30Z</time>
      </trkpt>
      <trkpt lat="47.86071" lon="-4.01943">
        <ele>4.8</ele>
        <time>2022-11-12T09:21:31Z</time>
      </trkpt>
      <trkpt lat="47.86075" lon="-4.01949">
        <ele>4.9</ele>
        <time>2022-11-12T09:21:32Z</time>
      </trkpt>
      <trkpt lat="47.86079" lon="-4.01953">
        <ele>4.9</ele>
        <time>2022-11-12T09:21:33Z</time>
      </trkpt>
      <trkpt lat="47.86084" lon="-4.01955">
        <ele>4.9</ele>
        <time>2022-11-12T09:21:34Z</time>
      </trkpt>
      <trkpt lat="47.86087" lon="-4.01959">
        <ele>5</ele>
        <time>2022-11-12T09:21:35Z</time>
      </trkpt>
      <trkpt lat="47.86091" lon="-4.01962">
        <ele>5</ele>
        <time>2022-11-12T09:21:36Z</time>
      </trkpt>
      <trkpt lat="47.86092" lon="-4.01967">
        <ele>5</ele>
        <time>2022-11-12T09:21:37Z</time>
      </trkpt>
      <trkpt lat="47.86093" lon="-4.01973">
        <ele>5</ele>
        <time>2022-11-12T09:21:38Z</time>
      </trkpt>
      <trkpt lat="47.86093" lon="-4.01979">
        <ele>5</ele>
        <time>2022-11-12T09:21:39Z</time>
      </trkpt>
      <trkpt lat="47.86092" lon="-4.01984">
        <ele>4.8</ele>
        <time>2022-11-12T09:21:40Z</time>
      </trkpt>
      <trkpt lat="47.86093" lon="-4.01993">
        <ele>4.8</ele>
        <time>2022-11-12T09:21:41Z</time>
      </trkpt>
      <trkpt lat="47.86094" lon="-4.01999">
        <ele>4.7</ele>
        <time>2022-11-12T09:21:42Z</time>
      </trkpt>
      <trkpt lat="47.86093" lon="-4.02">
        <ele>4.7</ele>
        <time>2022-11-12T09:21:43Z</time>
      </trkpt>
      <trkpt lat="47.86089" lon="-4.02007">
        <ele>4.6</ele>
        <time>2022-11-12T09:21:45Z</time>
      </trkpt>
      <trkpt lat="47.86084" lon="-4.02014">
        <ele>4.5</ele>
        <time>2022-11-12T09:21:46Z</time>
      </trkpt>
      <trkpt lat="47.86078" lon="-4.02023">
        <ele>4.5</ele>
        <time>2022-11-12T09:21:47Z</time>
      </trkpt>
      <trkpt lat="47.86074" lon="-4.02028">
        <ele>4.4</ele>
        <time>2022-11-12T09:21:48Z</time>
      </trkpt>
      <trkpt lat="47.8607" lon="-4.02033">
        <ele>4.4</ele>
        <time>2022-11-12T09:21:49Z</time>
      </trkpt>
      <trkpt lat="47.86066" lon="-4.02037">
        <ele>4.4</ele>
        <time>2022-11-12T09:21:50Z</time>
      </trkpt>
      <trkpt lat="47.86062" lon="-4.02043">
        <ele>4.4</ele>
        <time>2022-11-12T09:21:51Z</time>
      </trkpt>
      <trkpt lat="47.86059" lon="-4.02049">
        <ele>4.5</ele>
        <time>2022-11-12T09:21:52Z</time>
      </trkpt>
      <trkpt lat="47.86056" lon="-4.02056">
        <ele>4.5</ele>
        <time>2022-11-12T09:21:53Z</time>
      </trkpt>
      <trkpt lat="47.86053" lon="-4.02063">
        <ele>4.6</ele>
        <time>2022-11-12T09:21:54Z</time>
      </trkpt>
      <trkpt lat="47.86051" lon="-4.0207">
        <ele>4.6</ele>
        <time>2022-11-12T09:21:55Z</time>
      </trkpt>
      <trkpt lat="47.86048" lon="-4.02077">
        <ele>4.7</ele>
        <time>2022-11-12T09:21:56Z</time>
      </trkpt>
      <trkpt lat="47.86046" lon="-4.02084">
        <ele>4.8</ele>
        <time>2022-11-12T09:21:57Z</time>
      </trkpt>
      <trkpt lat="47.86044" lon="-4.0209">
        <ele>4.9</ele>
        <time>2022-11-12T09:21:58Z</time>
      </trkpt>
      <trkpt lat="47.86043" lon="-4.02097">
        <ele>5</ele>
        <time>2022-11-12T09:21:59Z</time>
      </trkpt>
      <trkpt lat="47.86042" lon="-4.02103">
        <ele>5.1</ele>
        <time>2022-11-12T09:22:00Z</time>
      </trkpt>
      <trkpt lat="47.8604" lon="-4.0211">
        <ele>5.2</ele>
        <time>2022-11-12T09:22:01Z</time>
      </trkpt>
      <trkpt lat="47.86039" lon="-4.02117">
        <ele>5.3</ele>
        <time>2022-11-12T09:22:02Z</time>
      </trkpt>
      <trkpt lat="47.86038" lon="-4.02124">
        <ele>5.4</ele>
        <time>2022-11-12T09:22:03Z</time>
      </trkpt>
      <trkpt lat="47.86036" lon="-4.0213">
        <ele>5.5</ele>
        <time>2022-11-12T09:22:04Z</time>
      </trkpt>
      <trkpt lat="47.86034" lon="-4.02135">
        <ele>5.7</ele>
        <time>2022-11-12T09:22:05Z</time>
      </trkpt>
      <trkpt lat="47.8603" lon="-4.02139">
        <ele>5.8</ele>
        <time>2022-11-12T09:22:06Z</time>
      </trkpt>
      <trkpt lat="47.86028" lon="-4.02141">
        <ele>5.9</ele>
        <time>2022-11-12T09:22:07Z</time>
      </trkpt>
      <trkpt lat="47.86024" lon="-4.02146">
        <ele>6</ele>
        <time>2022-11-12T09:22:08Z</time>
      </trkpt>
      <trkpt lat="47.86021" lon="-4.02154">
        <ele>6.2</ele>
        <time>2022-11-12T09:22:09Z</time>
      </trkpt>
      <trkpt lat="47.8602" lon="-4.02161">
        <ele>6.4</ele>
        <time>2022-11-12T09:22:10Z</time>
      </trkpt>
      <trkpt lat="47.86018" lon="-4.02168">
        <ele>6.5</ele>
        <time>2022-11-12T09:22:11Z</time>
      </trkpt>
      <trkpt lat="47.86017" lon="-4.02175">
        <ele>6.7</ele>
        <time>2022-11-12T09:22:12Z</time>
      </trkpt>
      <trkpt lat="47.86016" lon="-4.02183">
        <ele>6.8</ele>
        <time>2022-11-12T09:22:13Z</time>
      </trkpt>
      <trkpt lat="47.86016" lon="-4.02191">
        <ele>7</ele>
        <time>2022-11-12T09:22:14Z</time>
      </trkpt>
      <trkpt lat="47.86016" lon="-4.02198">
        <ele>7.1</ele>
        <time>2022-11-12T09:22:15Z</time>
      </trkpt>
      <trkpt lat="47.86017" lon="-4.02206">
        <ele>7.3</ele>
        <time>2022-11-12T09:22:16Z</time>
      </trkpt>
      <trkpt lat="47.86018" lon="-4.02214">
        <ele>7.4</ele>
        <time>2022-11-12T09:22:17Z</time>
      </trkpt>
      <trkpt lat="47.86019" lon="-4.02221">
        <ele>7.6</ele>
        <time>2022-11-12T09:22:18Z</time>
      </trkpt>
      <trkpt lat="47.8602" lon="-4.02228">
        <ele>7.7</ele>
        <time>2022-11-12T09:22:19Z</time>
      </trkpt>
      <trkpt lat="47.86021" lon="-4.02235">
        <ele>7.8</ele>
        <time>2022-11-12T09:22:20Z</time>
      </trkpt>
      <trkpt lat="47.86024" lon="-4.02241">
        <ele>8</ele>
        <time>2022-11-12T09:22:21Z</time>
      </trkpt>
      <trkpt lat="47.86025" lon="-4.02248">
        <ele>8.1</ele>
        <time>2022-11-12T09:22:22Z</time>
      </trkpt>
      <trkpt lat="47.86026" lon="-4.02255">
        <ele>8.2</ele>
        <time>2022-11-12T09:22:23Z</time>
      </trkpt>
      <trkpt lat="47.86025" lon="-4.02261">
        <ele>8.3</ele>
        <time>2022-11-12T09:22:24Z</time>
      </trkpt>
      <trkpt lat="47.86021" lon="-4.02265">
        <ele>8.4</ele>
        <time>2022-11-12T09:22:25Z</time>
      </trkpt>
      <trkpt lat="47.86018" lon="-4.02268">
        <ele>8.4</ele>
        <time>2022-11-12T09:22:26Z</time>
      </trkpt>
      <trkpt lat="47.86014" lon="-4.02269">
        <ele>8.5</ele>
        <time>2022-11-12T09:22:27Z</time>
      </trkpt>
      <trkpt lat="47.86011" lon="-4.02269">
        <ele>8.5</ele>
        <time>2022-11-12T09:22:28Z</time>
      </trkpt>
      <trkpt lat="47.86007" lon="-4.02268">
        <ele>8.6</ele>
        <time>2022-11-12T09:22:29Z</time>
      </trkpt>
      <trkpt lat="47.86003" lon="-4.02268">
        <ele>8.7</ele>
        <time>2022-11-12T09:22:30Z</time>
      </trkpt>
      <trkpt lat="47.85998" lon="-4.02268">
        <ele>8.7</ele>
        <time>2022-11-12T09:22:31Z</time>
      </trkpt>
      <trkpt lat="47.85996" lon="-4.02268">
        <ele>8.8</ele>
        <time>2022-11-12T09:22:32Z</time>
      </trkpt>
      <trkpt lat="47.85992" lon="-4.02263">
        <ele>8.8</ele>
        <time>2022-11-12T09:22:34Z</time>
      </trkpt>
      <trkpt lat="47.8599" lon="-4.02262">
        <ele>8.9</ele>
        <time>2022-11-12T09:22:35Z</time>
      </trkpt>
      <trkpt lat="47.85989" lon="-4.02258">
        <ele>8.9</ele>
        <time>2022-11-12T09:22:37Z</time>
      </trkpt>
      <trkpt lat="47.8599" lon="-4.02253">
        <ele>8.9</ele>
        <time>2022-11-12T09:22:38Z</time>
      </trkpt>
      <trkpt lat="47.85991" lon="-4.02251">
        <ele>9</ele>
        <time>2022-11-12T09:22:39Z</time>
      </trkpt>
      <trkpt lat="47.85994" lon="-4.02253">
        <ele>9</ele>
        <time>2022-11-12T09:22:40Z</time>
      </trkpt>
      <trkpt lat="47.85995" lon="-4.02255">
        <ele>9</ele>
        <time>2022-11-12T09:22:41Z</time>
      </trkpt>
      <trkpt lat="47.85996" lon="-4.02255">
        <ele>9</ele>
        <time>2022-11-12T09:22:42Z</time>
      </trkpt>
      <trkpt lat="47.85996" lon="-4.02255">
        <ele>9</ele>
        <time>2022-11-12T09:22:43Z</time>
      </trkpt>
      <trkpt lat="47.85996" lon="-4.02254">
        <ele>9</ele>
        <time>2022-11-12T09:22:44Z</time>
      </trkpt>
      <trkpt lat="47.85996" lon="-4.02254">
        <ele>9</ele>
        <time>2022-11-12T09:22:45Z</time>
      </trkpt>
      <trkpt lat="47.85996" lon="-4.02254">
        <ele>9</ele>
        <time>2022-11-12T09:22:46Z</time>
      </trkpt>
      <trkpt lat="47.85996" lon="-4.02254">
        <ele>9.1</ele>
        <time>2022-11-12T09:22:48Z</time>
      </trkpt>
      <trkpt lat="47.85996" lon="-4.02253">
        <ele>9.1</ele>
        <time>2022-11-12T09:22:49Z</time>
      </trkpt>
      <trkpt lat="47.85995" lon="-4.02252">
        <ele>9.1</ele>
        <time>2022-11-12T09:22:50Z</time>
      </trkpt>
      <trkpt lat="47.85994" lon="-4.02251">
        <ele>9.1</ele>
        <time>2022-11-12T09:22:51Z</time>
      </trkpt>
      <trkpt lat="47.85993" lon="-4.02251">
        <ele>9.1</ele>
        <time>2022-11-12T09:22:52Z</time>
      </trkpt>
      <trkpt lat="47.85991" lon="-4.02251">
        <ele>9.1</ele>
        <time>2022-11-12T09:22:53Z</time>
      </trkpt>
      <trkpt lat="47.8599" lon="-4.02252">
        <ele>9.1</ele>
        <time>2022-11-12T09:22:54Z</time>
      </trkpt>
      <trkpt lat="47.85987" lon="-4.02252">
        <ele>9.2</ele>
        <time>2022-11-12T09:22:56Z</time>
      </trkpt>
      <trkpt lat="47.85987" lon="-4.02252">
        <ele>9.2</ele>
        <time>2022-11-12T09:22:57Z</time>
      </trkpt>
      <trkpt lat="47.85987" lon="-4.02253">
        <ele>9.2</ele>
        <time>2022-11-12T09:22:58Z</time>
      </trkpt>
      <trkpt lat="47.85986" lon="-4.02253">
        <ele>9.2</ele>
        <time>2022-11-12T09:22:59Z</time>
      </trkpt>
      <trkpt lat="47.85986" lon="-4.02253">
        <ele>9.2</ele>
        <time>2022-11-12T09:23:00Z</time>
      </trkpt>
      <trkpt lat="47.85986" lon="-4.02253">
        <ele>9.2</ele>
        <time>2022-11-12T09:23:01Z</time>
      </trkpt>
      <trkpt lat="47.85985" lon="-4.02254">
        <ele>9.2</ele>
        <time>2022-11-12T09:23:02Z</time>
      </trkpt>
      <trkpt lat="47.85985" lon="-4.02254">
        <ele>9.2</ele>
        <time>2022-11-12T09:23:03Z</time>
      </trkpt>
      <trkpt lat="47.85985" lon="-4.02254">
        <ele>9.2</ele>
        <time>2022-11-12T09:23:04Z</time>
      </trkpt>
      <trkpt lat="47.85985" lon="-4.02255">
        <ele>9.2</ele>
        <time>2022-11-12T09:23:05Z</time>
      </trkpt>
      <trkpt lat="47.85984" lon="-4.02255">
        <ele>9.2</ele>
        <time>2022-11-12T09:23:06Z</time>
      </trkpt>
      <trkpt lat="47.85984" lon="-4.02255">
        <ele>9.2</ele>
        <time>2022-11-12T09:23:07Z</time>
      </trkpt>
      <trkpt lat="47.85984" lon="-4.02256">
        <ele>9.2</ele>
        <time>2022-11-12T09:23:08Z</time>
      </trkpt>
      <trkpt lat="47.85984" lon="-4.02258">
        <ele>9.3</ele>
        <time>2022-11-12T09:23:10Z</time>
      </trkpt>
      <trkpt lat="47.85985" lon="-4.02258">
        <ele>9.3</ele>
        <time>2022-11-12T09:23:11Z</time>
      </trkpt>
      <trkpt lat="47.85987" lon="-4.02258">
        <ele>9.3</ele>
        <time>2022-11-12T09:23:14Z</time>
      </trkpt>
      <trkpt lat="47.85989" lon="-4.02259">
        <ele>9.3</ele>
        <time>2022-11-12T09:23:15Z</time>
      </trkpt>
      <trkpt lat="47.85992" lon="-4.02257">
        <ele>9.4</ele>
        <time>2022-11-12T09:23:17Z</time>
      </trkpt>
      <trkpt lat="47.85994" lon="-4.02255">
        <ele>9.4</ele>
        <time>2022-11-12T09:23:18Z</time>
      </trkpt>
      <trkpt lat="47.85995" lon="-4.02254">
        <ele>9.4</ele>
        <time>2022-11-12T09:23:19Z</time>
      </trkpt>
      <trkpt lat="47.85995" lon="-4.02254">
        <ele>9.4</ele>
        <time>2022-11-12T09:23:20Z</time>
      </trkpt>
      <trkpt lat="47.85996" lon="-4.02254">
        <ele>9.4</ele>
        <time>2022-11-12T09:23:21Z</time>
      </trkpt>
      <trkpt lat="47.85996" lon="-4.02255">
        <ele>9.4</ele>
        <time>2022-11-12T09:23:22Z</time>
      </trkpt>
      <trkpt lat="47.85996" lon="-4.02256">
        <ele>9.4</ele>
        <time>2022-11-12T09:23:23Z</time>
      </trkpt>
      <trkpt lat="47.85996" lon="-4.02256">
        <ele>9.4</ele>
        <time>2022-11-12T09:23:24Z</time>
      </trkpt>
      <trkpt lat="47.85996" lon="-4.02257">
        <ele>9.5</ele>
        <time>2022-11-12T09:23:25Z</time>
      </trkpt>
      <trkpt lat="47.85996" lon="-4.02258">
        <ele>9.5</ele>
        <time>2022-11-12T09:23:26Z</time>
      </trkpt>
      <trkpt lat="47.85996" lon="-4.02258">
        <ele>9.5</ele>
        <time>2022-11-12T09:23:27Z</time>
      </trkpt>
      <trkpt lat="47.85997" lon="-4.02259">
        <ele>9.5</ele>
        <time>2022-11-12T09:23:28Z</time>
      </trkpt>
      <trkpt lat="47.85997" lon="-4.0226">
        <ele>9.5</ele>
        <time>2022-11-12T09:23:29Z</time>
      </trkpt>
      <trkpt lat="47.85997" lon="-4.0226">
        <ele>9.5</ele>
        <time>2022-11-12T09:23:30Z</time>
      </trkpt>
      <trkpt lat="47.85997" lon="-4.02261">
        <ele>9.5</ele>
        <time>2022-11-12T09:23:31Z</time>
      </trkpt>
      <trkpt lat="47.85997" lon="-4.02262">
        <ele>9.5</ele>
        <time>2022-11-12T09:23:33Z</time>
      </trkpt>
      <trkpt lat="47.85997" lon="-4.02262">
        <ele>9.5</ele>
        <time>2022-11-12T09:23:34Z</time>
      </trkpt>
      <trkpt lat="47.85997" lon="-4.02263">
        <ele>9.5</ele>
        <time>2022-11-12T09:23:35Z</time>
      </trkpt>
      <trkpt lat="47.85997" lon="-4.02267">
        <ele>9.5</ele>
        <time>2022-11-12T09:23:36Z</time>
      </trkpt>
      <trkpt lat="47.86002" lon="-4.0227">
        <ele>9.6</ele>
        <time>2022-11-12T09:23:38Z</time>
      </trkpt>
      <trkpt lat="47.86006" lon="-4.02269">
        <ele>9.7</ele>
        <time>2022-11-12T09:23:39Z</time>
      </trkpt>
      <trkpt lat="47.86009" lon="-4.02267">
        <ele>9.7</ele>
        <time>2022-11-12T09:23:40Z</time>
      </trkpt>
      <trkpt lat="47.86013" lon="-4.02266">
        <ele>9.8</ele>
        <time>2022-11-12T09:23:41Z</time>
      </trkpt>
      <trkpt lat="47.86016" lon="-4.02265">
        <ele>9.8</ele>
        <time>2022-11-12T09:23:42Z</time>
      </trkpt>
      <trkpt lat="47.86021" lon="-4.02265">
        <ele>9.9</ele>
        <time>2022-11-12T09:23:43Z</time>
      </trkpt>
      <trkpt lat="47.86024" lon="-4.02262">
        <ele>9.9</ele>
        <time>2022-11-12T09:23:44Z</time>
      </trkpt>
      <trkpt lat="47.86029" lon="-4.0226">
        <ele>10</ele>
        <time>2022-11-12T09:23:46Z</time>
      </trkpt>
      <trkpt lat="47.86034" lon="-4.02264">
        <ele>10</ele>
        <time>2022-11-12T09:23:47Z</time>
      </trkpt>
      <trkpt lat="47.86035" lon="-4.02269">
        <ele>10</ele>
        <time>2022-11-12T09:23:48Z</time>
      </trkpt>
      <trkpt lat="47.86034" lon="-4.02276">
        <ele>10.1</ele>
        <time>2022-11-12T09:23:49Z</time>
      </trkpt>
      <trkpt lat="47.86033" lon="-4.02284">
        <ele>10.2</ele>
        <time>2022-11-12T09:23:50Z</time>
      </trkpt>
      <trkpt lat="47.86029" lon="-4.0229">
        <ele>10.2</ele>
        <time>2022-11-12T09:23:51Z</time>
      </trkpt>
      <trkpt lat="47.86019" lon="-4.02291">
        <ele>10.2</ele>
        <time>2022-11-12T09:23:52Z</time>
      </trkpt>
      <trkpt lat="47.86014" lon="-4.02292">
        <ele>10.3</ele>
        <time>2022-11-12T09:23:53Z</time>
      </trkpt>
      <trkpt lat="47.86005" lon="-4.02288">
        <ele>10.3</ele>
        <time>2022-11-12T09:23:54Z</time>
      </trkpt>
      <trkpt lat="47.85999" lon="-4.02285">
        <ele>10.3</ele>
        <time>2022-11-12T09:23:55Z</time>
      </trkpt>
      <trkpt lat="47.85994" lon="-4.02285">
        <ele>10.3</ele>
        <time>2022-11-12T09:23:56Z</time>
      </trkpt>
      <trkpt lat="47.85989" lon="-4.02284">
        <ele>10.3</ele>
        <time>2022-11-12T09:23:57Z</time>
      </trkpt>
      <trkpt lat="47.85984" lon="-4.02283">
        <ele>10.2</ele>
        <time>2022-11-12T09:23:58Z</time>
      </trkpt>
      <trkpt lat="47.8598" lon="-4.0228">
        <ele>10.2</ele>
        <time>2022-11-12T09:23:59Z</time>
      </trkpt>
      <trkpt lat="47.85976" lon="-4.02276">
        <ele>10.2</ele>
        <time>2022-11-12T09:24:00Z</time>
      </trkpt>
      <trkpt lat="47.85972" lon="-4.02271">
        <ele>10.1</ele>
        <time>2022-11-12T09:24:01Z</time>
      </trkpt>
      <trkpt lat="47.85968" lon="-4.02265">
        <ele>10</ele>
        <time>2022-11-12T09:24:02Z</time>
      </trkpt>
      <trkpt lat="47.85965" lon="-4.02259">
        <ele>10</ele>
        <time>2022-11-12T09:24:03Z</time>
      </trkpt>
      <trkpt lat="47.85962" lon="-4.02252">
        <ele>9.9</ele>
        <time>2022-11-12T09:24:04Z</time>
      </trkpt>
      <trkpt lat="47.8596" lon="-4.02244">
        <ele>9.9</ele>
        <time>2022-11-12T09:24:05Z</time>
      </trkpt>
      <trkpt lat="47.85957" lon="-4.02238">
        <ele>9.8</ele>
        <time>2022-11-12T09:24:06Z</time>
      </trkpt>
      <trkpt lat="47.85954" lon="-4.02231">
        <ele>9.8</ele>
        <time>2022-11-12T09:24:07Z</time>
      </trkpt>
      <trkpt lat="47.8595" lon="-4.02224">
        <ele>9.8</ele>
        <time>2022-11-12T09:24:08Z</time>
      </trkpt>
      <trkpt lat="47.85947" lon="-4.02218">
        <ele>9.8</ele>
        <time>2022-11-12T09:24:09Z</time>
      </trkpt>
      <trkpt lat="47.85942" lon="-4.02213">
        <ele>9.8</ele>
        <time>2022-11-12T09:24:10Z</time>
      </trkpt>
      <trkpt lat="47.85937" lon="-4.02209">
        <ele>9.8</ele>
        <time>2022-11-12T09:24:11Z</time>
      </trkpt>
      <trkpt lat="47.85932" lon="-4.02206">
        <ele>9.8</ele>
        <time>2022-11-12T09:24:12Z</time>
      </trkpt>
      <trkpt lat="47.85926" lon="-4.02202">
        <ele>9.8</ele>
        <time>2022-11-12T09:24:13Z</time>
      </trkpt>
      <trkpt lat="47.85921" lon="-4.02198">
        <ele>9.8</ele>
        <time>2022-11-12T09:24:14Z</time>
      </trkpt>
      <trkpt lat="47.85916" lon="-4.02194">
        <ele>9.8</ele>
        <time>2022-11-12T09:24:15Z</time>
      </trkpt>
      <trkpt lat="47.85911" lon="-4.02192">
        <ele>9.8</ele>
        <time>2022-11-12T09:24:16Z</time>
      </trkpt>
      <trkpt lat="47.85906" lon="-4.02189">
        <ele>9.8</ele>
        <time>2022-11-12T09:24:17Z</time>
      </trkpt>
      <trkpt lat="47.85902" lon="-4.02187">
        <ele>9.7</ele>
        <time>2022-11-12T09:24:18Z</time>
      </trkpt>
      <trkpt lat="47.85896" lon="-4.02184">
        <ele>9.7</ele>
        <time>2022-11-12T09:24:19Z</time>
      </trkpt>
      <trkpt lat="47.85891" lon="-4.0218">
        <ele>9.7</ele>
        <time>2022-11-12T09:24:20Z</time>
      </trkpt>
      <trkpt lat="47.85885" lon="-4.02177">
        <ele>9.6</ele>
        <time>2022-11-12T09:24:21Z</time>
      </trkpt>
      <trkpt lat="47.8588" lon="-4.02174">
        <ele>9.6</ele>
        <time>2022-11-12T09:24:22Z</time>
      </trkpt>
      <trkpt lat="47.85874" lon="-4.0217">
        <ele>9.5</ele>
        <time>2022-11-12T09:24:23Z</time>
      </trkpt>
      <trkpt lat="47.85868" lon="-4.02168">
        <ele>9.5</ele>
        <time>2022-11-12T09:24:24Z</time>
      </trkpt>
      <trkpt lat="47.85863" lon="-4.02165">
        <ele>9.4</ele>
        <time>2022-11-12T09:24:25Z</time>
      </trkpt>
      <trkpt lat="47.85857" lon="-4.02163">
        <ele>9.4</ele>
        <time>2022-11-12T09:24:26Z</time>
      </trkpt>
      <trkpt lat="47.85851" lon="-4.0216">
        <ele>9.3</ele>
        <time>2022-11-12T09:24:27Z</time>
      </trkpt>
      <trkpt lat="47.85845" lon="-4.02158">
        <ele>9.3</ele>
        <time>2022-11-12T09:24:28Z</time>
      </trkpt>
      <trkpt lat="47.85839" lon="-4.02156">
        <ele>9.2</ele>
        <time>2022-11-12T09:24:29Z</time>
      </trkpt>
      <trkpt lat="47.85833" lon="-4.02154">
        <ele>9.1</ele>
        <time>2022-11-12T09:24:30Z</time>
      </trkpt>
      <trkpt lat="47.85827" lon="-4.02153">
        <ele>9</ele>
        <time>2022-11-12T09:24:31Z</time>
      </trkpt>
      <trkpt lat="47.8582" lon="-4.02152">
        <ele>9</ele>
        <time>2022-11-12T09:24:32Z</time>
      </trkpt>
      <trkpt lat="47.85814" lon="-4.02151">
        <ele>8.9</ele>
        <time>2022-11-12T09:24:33Z</time>
      </trkpt>
      <trkpt lat="47.85808" lon="-4.02151">
        <ele>8.8</ele>
        <time>2022-11-12T09:24:34Z</time>
      </trkpt>
      <trkpt lat="47.85801" lon="-4.02151">
        <ele>8.7</ele>
        <time>2022-11-12T09:24:35Z</time>
      </trkpt>
      <trkpt lat="47.85795" lon="-4.02152">
        <ele>8.6</ele>
        <time>2022-11-12T09:24:36Z</time>
      </trkpt>
      <trkpt lat="47.85789" lon="-4.02152">
        <ele>8.5</ele>
        <time>2022-11-12T09:24:37Z</time>
      </trkpt>
      <trkpt lat="47.85783" lon="-4.02153">
        <ele>8.4</ele>
        <time>2022-11-12T09:24:38Z</time>
      </trkpt>
      <trkpt lat="47.85777" lon="-4.02154">
        <ele>8.3</ele>
        <time>2022-11-12T09:24:39Z</time>
      </trkpt>
      <trkpt lat="47.8577" lon="-4.02154">
        <ele>8.2</ele>
        <time>2022-11-12T09:24:40Z</time>
      </trkpt>
      <trkpt lat="47.85764" lon="-4.02153">
        <ele>8.1</ele>
        <time>2022-11-12T09:24:41Z</time>
      </trkpt>
      <trkpt lat="47.85757" lon="-4.02151">
        <ele>8</ele>
        <time>2022-11-12T09:24:42Z</time>
      </trkpt>
      <trkpt lat="47.85751" lon="-4.0215">
        <ele>7.9</ele>
        <time>2022-11-12T09:24:43Z</time>
      </trkpt>
      <trkpt lat="47.85744" lon="-4.02147">
        <ele>7.9</ele>
        <time>2022-11-12T09:24:44Z</time>
      </trkpt>
      <trkpt lat="47.85738" lon="-4.02145">
        <ele>7.8</ele>
        <time>2022-11-12T09:24:45Z</time>
      </trkpt>
      <trkpt lat="47.85732" lon="-4.02144">
        <ele>7.7</ele>
        <time>2022-11-12T09:24:46Z</time>
      </trkpt>
      <trkpt lat="47.85725" lon="-4.02142">
        <ele>7.6</ele>
        <time>2022-11-12T09:24:47Z</time>
      </trkpt>
      <trkpt lat="47.85719" lon="-4.0214">
        <ele>7.6</ele>
        <time>2022-11-12T09:24:48Z</time>
      </trkpt>
      <trkpt lat="47.85713" lon="-4.02138">
        <ele>7.5</ele>
        <time>2022-11-12T09:24:49Z</time>
      </trkpt>
      <trkpt lat="47.85707" lon="-4.02136">
        <ele>7.5</ele>
        <time>2022-11-12T09:24:50Z</time>
      </trkpt>
      <trkpt lat="47.85701" lon="-4.02133">
        <ele>7.4</ele>
        <time>2022-11-12T09:24:51Z</time>
      </trkpt>
      <trkpt lat="47.85695" lon="-4.02131">
        <ele>7.3</ele>
        <time>2022-11-12T09:24:52Z</time>
      </trkpt>
      <trkpt lat="47.8569" lon="-4.02128">
        <ele>7.3</ele>
        <time>2022-11-12T09:24:53Z</time>
      </trkpt>
      <trkpt lat="47.85685" lon="-4.02125">
        <ele>7.2</ele>
        <time>2022-11-12T09:24:54Z</time>
      </trkpt>
      <trkpt lat="47.8568" lon="-4.02124">
        <ele>7.2</ele>
        <time>2022-11-12T09:24:55Z</time>
      </trkpt>
      <trkpt lat="47.85676" lon="-4.02125">
        <ele>7</ele>
        <time>2022-11-12T09:24:56Z</time>
      </trkpt>
      <trkpt lat="47.85673" lon="-4.02129">
        <ele>6.9</ele>
        <time>2022-11-12T09:24:57Z</time>
      </trkpt>
      <trkpt lat="47.85672" lon="-4.02131">
        <ele>6.9</ele>
        <time>2022-11-12T09:24:58Z</time>
      </trkpt>
      <trkpt lat="47.8567" lon="-4.02138">
        <ele>6.8</ele>
        <time>2022-11-12T09:24:59Z</time>
      </trkpt>
      <trkpt lat="47.8567" lon="-4.02146">
        <ele>6.8</ele>
        <time>2022-11-12T09:25:00Z</time>
      </trkpt>
      <trkpt lat="47.8567" lon="-4.02154">
        <ele>6.7</ele>
        <time>2022-11-12T09:25:01Z</time>
      </trkpt>
      <trkpt lat="47.85672" lon="-4.02162">
        <ele>6.6</ele>
        <time>2022-11-12T09:25:02Z</time>
      </trkpt>
      <trkpt lat="47.85672" lon="-4.0217">
        <ele>6.5</ele>
        <time>2022-11-12T09:25:03Z</time>
      </trkpt>
      <trkpt lat="47.85671" lon="-4.02178">
        <ele>6.4</ele>
        <time>2022-11-12T09:25:04Z</time>
      </trkpt>
      <trkpt lat="47.8567" lon="-4.02186">
        <ele>6.4</ele>
        <time>2022-11-12T09:25:05Z</time>
      </trkpt>
      <trkpt lat="47.85669" lon="-4.02193">
        <ele>6.3</ele>
        <time>2022-11-12T09:25:06Z</time>
      </trkpt>
      <trkpt lat="47.85666" lon="-4.02202">
        <ele>6.3</ele>
        <time>2022-11-12T09:25:07Z</time>
      </trkpt>
      <trkpt lat="47.85663" lon="-4.0221">
        <ele>6.2</ele>
        <time>2022-11-12T09:25:08Z</time>
      </trkpt>
      <trkpt lat="47.8566" lon="-4.02217">
        <ele>6.2</ele>
        <time>2022-11-12T09:25:09Z</time>
      </trkpt>
      <trkpt lat="47.85656" lon="-4.02224">
        <ele>6.2</ele>
        <time>2022-11-12T09:25:10Z</time>
      </trkpt>
      <trkpt lat="47.85652" lon="-4.02231">
        <ele>6.1</ele>
        <time>2022-11-12T09:25:11Z</time>
      </trkpt>
      <trkpt lat="47.85648" lon="-4.02238">
        <ele>6.1</ele>
        <time>2022-11-12T09:25:12Z</time>
      </trkpt>
      <trkpt lat="47.85644" lon="-4.02245">
        <ele>6.1</ele>
        <time>2022-11-12T09:25:13Z</time>
      </trkpt>
      <trkpt lat="47.8564" lon="-4.02252">
        <ele>6</ele>
        <time>2022-11-12T09:25:14Z</time>
      </trkpt>
      <trkpt lat="47.85635" lon="-4.02258">
        <ele>6</ele>
        <time>2022-11-12T09:25:15Z</time>
      </trkpt>
      <trkpt lat="47.85629" lon="-4.02264">
        <ele>6</ele>
        <time>2022-11-12T09:25:16Z</time>
      </trkpt>
      <trkpt lat="47.85624" lon="-4.02268">
        <ele>5.9</ele>
        <time>2022-11-12T09:25:17Z</time>
      </trkpt>
      <trkpt lat="47.85619" lon="-4.02269">
        <ele>5.9</ele>
        <time>2022-11-12T09:25:18Z</time>
      </trkpt>
      <trkpt lat="47.85613" lon="-4.02266">
        <ele>5.8</ele>
        <time>2022-11-12T09:25:19Z</time>
      </trkpt>
      <trkpt lat="47.85608" lon="-4.02261">
        <ele>5.6</ele>
        <time>2022-11-12T09:25:20Z</time>
      </trkpt>
      <trkpt lat="47.85603" lon="-4.02255">
        <ele>5.5</ele>
        <time>2022-11-12T09:25:21Z</time>
      </trkpt>
      <trkpt lat="47.85599" lon="-4.0225">
        <ele>5.4</ele>
        <time>2022-11-12T09:25:22Z</time>
      </trkpt>
      <trkpt lat="47.85594" lon="-4.02243">
        <ele>5.2</ele>
        <time>2022-11-12T09:25:23Z</time>
      </trkpt>
      <trkpt lat="47.85589" lon="-4.02237">
        <ele>5</ele>
        <time>2022-11-12T09:25:24Z</time>
      </trkpt>
      <trkpt lat="47.85583" lon="-4.02231">
        <ele>4.9</ele>
        <time>2022-11-12T09:25:25Z</time>
      </trkpt>
      <trkpt lat="47.85577" lon="-4.02225">
        <ele>4.7</ele>
        <time>2022-11-12T09:25:26Z</time>
      </trkpt>
      <trkpt lat="47.85572" lon="-4.02218">
        <ele>4.6</ele>
        <time>2022-11-12T09:25:27Z</time>
      </trkpt>
      <trkpt lat="47.85568" lon="-4.02211">
        <ele>4.5</ele>
        <time>2022-11-12T09:25:28Z</time>
      </trkpt>
      <trkpt lat="47.85564" lon="-4.02205">
        <ele>4.4</ele>
        <time>2022-11-12T09:25:29Z</time>
      </trkpt>
      <trkpt lat="47.8556" lon="-4.02199">
        <ele>4.3</ele>
        <time>2022-11-12T09:25:30Z</time>
      </trkpt>
      <trkpt lat="47.85556" lon="-4.02192">
        <ele>4.2</ele>
        <time>2022-11-12T09:25:31Z</time>
      </trkpt>
      <trkpt lat="47.85552" lon="-4.02185">
        <ele>4.1</ele>
        <time>2022-11-12T09:25:32Z</time>
      </trkpt>
      <trkpt lat="47.85547" lon="-4.02177">
        <ele>4</ele>
        <time>2022-11-12T09:25:33Z</time>
      </trkpt>
      <trkpt lat="47.85542" lon="-4.0217">
        <ele>3.9</ele>
        <time>2022-11-12T09:25:34Z</time>
      </trkpt>
      <trkpt lat="47.85538" lon="-4.02163">
        <ele>3.8</ele>
        <time>2022-11-12T09:25:35Z</time>
      </trkpt>
      <trkpt lat="47.85533" lon="-4.02155">
        <ele>3.7</ele>
        <time>2022-11-12T09:25:36Z</time>
      </trkpt>
      <trkpt lat="47.85528" lon="-4.02147">
        <ele>3.7</ele>
        <time>2022-11-12T09:25:37Z</time>
      </trkpt>
      <trkpt lat="47.85523" lon="-4.0214">
        <ele>3.7</ele>
        <time>2022-11-12T09:25:38Z</time>
      </trkpt>
      <trkpt lat="47.85518" lon="-4.02133">
        <ele>3.6</ele>
        <time>2022-11-12T09:25:39Z</time>
      </trkpt>
      <trkpt lat="47.85514" lon="-4.02125">
        <ele>3.6</ele>
        <time>2022-11-12T09:25:40Z</time>
      </trkpt>
      <trkpt lat="47.8551" lon="-4.02118">
        <ele>3.6</ele>
        <time>2022-11-12T09:25:41Z</time>
      </trkpt>
      <trkpt lat="47.85506" lon="-4.0211">
        <ele>3.6</ele>
        <time>2022-11-12T09:25:42Z</time>
      </trkpt>
      <trkpt lat="47.85503" lon="-4.02102">
        <ele>3.6</ele>
        <time>2022-11-12T09:25:43Z</time>
      </trkpt>
      <trkpt lat="47.855" lon="-4.02095">
        <ele>3.6</ele>
        <time>2022-11-12T09:25:44Z</time>
      </trkpt>
      <trkpt lat="47.85497" lon="-4.02087">
        <ele>3.6</ele>
        <time>2022-11-12T09:25:45Z</time>
      </trkpt>
      <trkpt lat="47.85494" lon="-4.02079">
        <ele>3.6</ele>
        <time>2022-11-12T09:25:46Z</time>
      </trkpt>
      <trkpt lat="47.85491" lon="-4.02071">
        <ele>3.6</ele>
        <time>2022-11-12T09:25:47Z</time>
      </trkpt>
      <trkpt lat="47.85487" lon="-4.02063">
        <ele>3.5</ele>
        <time>2022-11-12T09:25:48Z</time>
      </trkpt>
      <trkpt lat="47.85485" lon="-4.02055">
        <ele>3.5</ele>
        <time>2022-11-12T09:25:49Z</time>
      </trkpt>
      <trkpt lat="47.85482" lon="-4.02047">
        <ele>3.5</ele>
        <time>2022-11-12T09:25:50Z</time>
      </trkpt>
      <trkpt lat="47.85478" lon="-4.02039">
        <ele>3.5</ele>
        <time>2022-11-12T09:25:51Z</time>
      </trkpt>
      <trkpt lat="47.85475" lon="-4.02032">
        <ele>3.5</ele>
        <time>2022-11-12T09:25:52Z</time>
      </trkpt>
      <trkpt lat="47.85471" lon="-4.02024">
        <ele>3.5</ele>
        <time>2022-11-12T09:25:53Z</time>
      </trkpt>
      <trkpt lat="47.85466" lon="-4.02018">
        <ele>3.5</ele>
        <time>2022-11-12T09:25:54Z</time>
      </trkpt>
      <trkpt lat="47.85461" lon="-4.02011">
        <ele>3.5</ele>
        <time>2022-11-12T09:25:55Z</time>
      </trkpt>
      <trkpt lat="47.85456" lon="-4.02006">
        <ele>3.5</ele>
        <time>2022-11-12T09:25:56Z</time>
      </trkpt>
      <trkpt lat="47.85451" lon="-4.02">
        <ele>3.5</ele>
        <time>2022-11-12T09:25:57Z</time>
      </trkpt>
      <trkpt lat="47.85445" lon="-4.01996">
        <ele>3.5</ele>
        <time>2022-11-12T09:25:58Z</time>
      </trkpt>
      <trkpt lat="47.8544" lon="-4.01992">
        <ele>3.5</ele>
        <time>2022-11-12T09:25:59Z</time>
      </trkpt>
      <trkpt lat="47.85434" lon="-4.01988">
        <ele>3.5</ele>
        <time>2022-11-12T09:26:00Z</time>
      </trkpt>
      <trkpt lat="47.85428" lon="-4.01984">
        <ele>3.5</ele>
        <time>2022-11-12T09:26:01Z</time>
      </trkpt>
      <trkpt lat="47.85423" lon="-4.01981">
        <ele>3.5</ele>
        <time>2022-11-12T09:26:02Z</time>
      </trkpt>
      <trkpt lat="47.85417" lon="-4.01977">
        <ele>3.5</ele>
        <time>2022-11-12T09:26:03Z</time>
      </trkpt>
      <trkpt lat="47.85411" lon="-4.01974">
        <ele>3.5</ele>
        <time>2022-11-12T09:26:04Z</time>
      </trkpt>
      <trkpt lat="47.85405" lon="-4.01972">
        <ele>3.5</ele>
        <time>2022-11-12T09:26:05Z</time>
      </trkpt>
      <trkpt lat="47.85399" lon="-4.0197">
        <ele>3.5</ele>
        <time>2022-11-12T09:26:06Z</time>
      </trkpt>
      <trkpt lat="47.85393" lon="-4.01969">
        <ele>3.5</ele>
        <time>2022-11-12T09:26:07Z</time>
      </trkpt>
      <trkpt lat="47.85386" lon="-4.01968">
        <ele>3.5</ele>
        <time>2022-11-12T09:26:08Z</time>
      </trkpt>
      <trkpt lat="47.8538" lon="-4.01969">
        <ele>3.5</ele>
        <time>2022-11-12T09:26:09Z</time>
      </trkpt>
      <trkpt lat="47.85374" lon="-4.0197">
        <ele>3.5</ele>
        <time>2022-11-12T09:26:10Z</time>
      </trkpt>
      <trkpt lat="47.85368" lon="-4.01973">
        <ele>3.5</ele>
        <time>2022-11-12T09:26:11Z</time>
      </trkpt>
      <trkpt lat="47.85362" lon="-4.01978">
        <ele>3.5</ele>
        <time>2022-11-12T09:26:12Z</time>
      </trkpt>
      <trkpt lat="47.85358" lon="-4.01985">
        <ele>3.5</ele>
        <time>2022-11-12T09:26:13Z</time>
      </trkpt>
      <trkpt lat="47.85353" lon="-4.01993">
        <ele>3.5</ele>
        <time>2022-11-12T09:26:14Z</time>
      </trkpt>
      <trkpt lat="47.8535" lon="-4.02002">
        <ele>3.5</ele>
        <time>2022-11-12T09:26:15Z</time>
      </trkpt>
      <trkpt lat="47.85347" lon="-4.02011">
        <ele>3.5</ele>
        <time>2022-11-12T09:26:16Z</time>
      </trkpt>
      <trkpt lat="47.85344" lon="-4.02019">
        <ele>3.5</ele>
        <time>2022-11-12T09:26:17Z</time>
      </trkpt>
      <trkpt lat="47.85341" lon="-4.02029">
        <ele>3.5</ele>
        <time>2022-11-12T09:26:18Z</time>
      </trkpt>
      <trkpt lat="47.85339" lon="-4.02038">
        <ele>3.5</ele>
        <time>2022-11-12T09:26:19Z</time>
      </trkpt>
      <trkpt lat="47.85336" lon="-4.02047">
        <ele>3.4</ele>
        <time>2022-11-12T09:26:20Z</time>
      </trkpt>
      <trkpt lat="47.85334" lon="-4.02057">
        <ele>3.4</ele>
        <time>2022-11-12T09:26:21Z</time>
      </trkpt>
      <trkpt lat="47.85333" lon="-4.02067">
        <ele>3.4</ele>
        <time>2022-11-12T09:26:22Z</time>
      </trkpt>
      <trkpt lat="47.85331" lon="-4.02077">
        <ele>3.4</ele>
        <time>2022-11-12T09:26:23Z</time>
      </trkpt>
      <trkpt lat="47.8533" lon="-4.02086">
        <ele>3.4</ele>
        <time>2022-11-12T09:26:24Z</time>
      </trkpt>
      <trkpt lat="47.85328" lon="-4.02096">
        <ele>3.4</ele>
        <time>2022-11-12T09:26:25Z</time>
      </trkpt>
      <trkpt lat="47.85326" lon="-4.02106">
        <ele>3.3</ele>
        <time>2022-11-12T09:26:26Z</time>
      </trkpt>
      <trkpt lat="47.85325" lon="-4.02116">
        <ele>3.3</ele>
        <time>2022-11-12T09:26:27Z</time>
      </trkpt>
      <trkpt lat="47.85323" lon="-4.02126">
        <ele>3.3</ele>
        <time>2022-11-12T09:26:28Z</time>
      </trkpt>
      <trkpt lat="47.85322" lon="-4.02136">
        <ele>3.3</ele>
        <time>2022-11-12T09:26:29Z</time>
      </trkpt>
      <trkpt lat="47.85321" lon="-4.02146">
        <ele>3.3</ele>
        <time>2022-11-12T09:26:30Z</time>
      </trkpt>
      <trkpt lat="47.8532" lon="-4.02156">
        <ele>3.3</ele>
        <time>2022-11-12T09:26:31Z</time>
      </trkpt>
      <trkpt lat="47.85318" lon="-4.02166">
        <ele>3.3</ele>
        <time>2022-11-12T09:26:32Z</time>
      </trkpt>
      <trkpt lat="47.85317" lon="-4.02177">
        <ele>3.2</ele>
        <time>2022-11-12T09:26:33Z</time>
      </trkpt>
      <trkpt lat="47.85316" lon="-4.02186">
        <ele>3.2</ele>
        <time>2022-11-12T09:26:34Z</time>
      </trkpt>
      <trkpt lat="47.85313" lon="-4.02196">
        <ele>3.2</ele>
        <time>2022-11-12T09:26:35Z</time>
      </trkpt>
      <trkpt lat="47.85311" lon="-4.02206">
        <ele>3.2</ele>
        <time>2022-11-12T09:26:36Z</time>
      </trkpt>
      <trkpt lat="47.85309" lon="-4.02215">
        <ele>3.2</ele>
        <time>2022-11-12T09:26:37Z</time>
      </trkpt>
      <trkpt lat="47.85306" lon="-4.02224">
        <ele>3.2</ele>
        <time>2022-11-12T09:26:38Z</time>
      </trkpt>
      <trkpt lat="47.85303" lon="-4.02233">
        <ele>3.2</ele>
        <time>2022-11-12T09:26:39Z</time>
      </trkpt>
      <trkpt lat="47.853" lon="-4.02242">
        <ele>3.2</ele>
        <time>2022-11-12T09:26:40Z</time>
      </trkpt>
      <trkpt lat="47.85296" lon="-4.0225">
        <ele>3.2</ele>
        <time>2022-11-12T09:26:41Z</time>
      </trkpt>
      <trkpt lat="47.85293" lon="-4.02258">
        <ele>3.2</ele>
        <time>2022-11-12T09:26:42Z</time>
      </trkpt>
      <trkpt lat="47.85289" lon="-4.02266">
        <ele>3.2</ele>
        <time>2022-11-12T09:26:43Z</time>
      </trkpt>
      <trkpt lat="47.85286" lon="-4.02275">
        <ele>3.2</ele>
        <time>2022-11-12T09:26:44Z</time>
      </trkpt>
      <trkpt lat="47.85284" lon="-4.02284">
        <ele>3.3</ele>
        <time>2022-11-12T09:26:45Z</time>
      </trkpt>
      <trkpt lat="47.85282" lon="-4.02292">
        <ele>3.3</ele>
        <time>2022-11-12T09:26:46Z</time>
      </trkpt>
      <trkpt lat="47.8528" lon="-4.02301">
        <ele>3.3</ele>
        <time>2022-11-12T09:26:47Z</time>
      </trkpt>
      <trkpt lat="47.85278" lon="-4.0231">
        <ele>3.3</ele>
        <time>2022-11-12T09:26:48Z</time>
      </trkpt>
      <trkpt lat="47.85276" lon="-4.02319">
        <ele>3.4</ele>
        <time>2022-11-12T09:26:49Z</time>
      </trkpt>
      <trkpt lat="47.85274" lon="-4.02328">
        <ele>3.4</ele>
        <time>2022-11-12T09:26:50Z</time>
      </trkpt>
      <trkpt lat="47.85272" lon="-4.02336">
        <ele>3.4</ele>
        <time>2022-11-12T09:26:51Z</time>
      </trkpt>
      <trkpt lat="47.8527" lon="-4.02345">
        <ele>3.4</ele>
        <time>2022-11-12T09:26:52Z</time>
      </trkpt>
      <trkpt lat="47.85267" lon="-4.02353">
        <ele>3.4</ele>
        <time>2022-11-12T09:26:53Z</time>
      </trkpt>
      <trkpt lat="47.85265" lon="-4.02362">
        <ele>3.5</ele>
        <time>2022-11-12T09:26:54Z</time>
      </trkpt>
      <trkpt lat="47.85262" lon="-4.0237">
        <ele>3.5</ele>
        <time>2022-11-12T09:26:55Z</time>
      </trkpt>
      <trkpt lat="47.8526" lon="-4.02379">
        <ele>3.5</ele>
        <time>2022-11-12T09:26:56Z</time>
      </trkpt>
      <trkpt lat="47.85258" lon="-4.02387">
        <ele>3.5</ele>
        <time>2022-11-12T09:26:57Z</time>
      </trkpt>
      <trkpt lat="47.85256" lon="-4.02396">
        <ele>3.5</ele>
        <time>2022-11-12T09:26:58Z</time>
      </trkpt>
      <trkpt lat="47.85255" lon="-4.02406">
        <ele>3.5</ele>
        <time>2022-11-12T09:26:59Z</time>
      </trkpt>
      <trkpt lat="47.85254" lon="-4.02415">
        <ele>3.4</ele>
        <time>2022-11-12T09:27:00Z</time>
      </trkpt>
      <trkpt lat="47.85253" lon="-4.02425">
        <ele>3.4</ele>
        <time>2022-11-12T09:27:01Z</time>
      </trkpt>
      <trkpt lat="47.85254" lon="-4.02435">
        <ele>3.4</ele>
        <time>2022-11-12T09:27:02Z</time>
      </trkpt>
      <trkpt lat="47.85254" lon="-4.02444">
        <ele>3.5</ele>
        <time>2022-11-12T09:27:03Z</time>
      </trkpt>
      <trkpt lat="47.85256" lon="-4.02454">
        <ele>3.5</ele>
        <time>2022-11-12T09:27:04Z</time>
      </trkpt>
      <trkpt lat="47.85258" lon="-4.02463">
        <ele>3.5</ele>
        <time>2022-11-12T09:27:05Z</time>
      </trkpt>
      <trkpt lat="47.85259" lon="-4.02472">
        <ele>3.5</ele>
        <time>2022-11-12T09:27:06Z</time>
      </trkpt>
      <trkpt lat="47.8526" lon="-4.02483">
        <ele>3.6</ele>
        <time>2022-11-12T09:27:07Z</time>
      </trkpt>
      <trkpt lat="47.85262" lon="-4.02493">
        <ele>3.6</ele>
        <time>2022-11-12T09:27:08Z</time>
      </trkpt>
      <trkpt lat="47.85263" lon="-4.02502">
        <ele>3.6</ele>
        <time>2022-11-12T09:27:09Z</time>
      </trkpt>
      <trkpt lat="47.85264" lon="-4.02512">
        <ele>3.7</ele>
        <time>2022-11-12T09:27:10Z</time>
      </trkpt>
      <trkpt lat="47.85265" lon="-4.02521">
        <ele>3.7</ele>
        <time>2022-11-12T09:27:11Z</time>
      </trkpt>
      <trkpt lat="47.85265" lon="-4.02529">
        <ele>3.8</ele>
        <time>2022-11-12T09:27:12Z</time>
      </trkpt>
      <trkpt lat="47.85266" lon="-4.02536">
        <ele>3.8</ele>
        <time>2022-11-12T09:27:13Z</time>
      </trkpt>
      <trkpt lat="47.85267" lon="-4.02543">
        <ele>3.8</ele>
        <time>2022-11-12T09:27:14Z</time>
      </trkpt>
      <trkpt lat="47.85268" lon="-4.0255">
        <ele>3.8</ele>
        <time>2022-11-12T09:27:15Z</time>
      </trkpt>
      <trkpt lat="47.85268" lon="-4.02557">
        <ele>3.8</ele>
        <time>2022-11-12T09:27:16Z</time>
      </trkpt>
      <trkpt lat="47.85268" lon="-4.02566">
        <ele>3.8</ele>
        <time>2022-11-12T09:27:17Z</time>
      </trkpt>
      <trkpt lat="47.85267" lon="-4.02574">
        <ele>3.8</ele>
        <time>2022-11-12T09:27:18Z</time>
      </trkpt>
      <trkpt lat="47.85267" lon="-4.02583">
        <ele>3.7</ele>
        <time>2022-11-12T09:27:19Z</time>
      </trkpt>
      <trkpt lat="47.85266" lon="-4.02592">
        <ele>3.7</ele>
        <time>2022-11-12T09:27:20Z</time>
      </trkpt>
      <trkpt lat="47.85266" lon="-4.02601">
        <ele>3.6</ele>
        <time>2022-11-12T09:27:21Z</time>
      </trkpt>
      <trkpt lat="47.85266" lon="-4.0261">
        <ele>3.6</ele>
        <time>2022-11-12T09:27:22Z</time>
      </trkpt>
      <trkpt lat="47.85266" lon="-4.0262">
        <ele>3.5</ele>
        <time>2022-11-12T09:27:23Z</time>
      </trkpt>
      <trkpt lat="47.85265" lon="-4.02629">
        <ele>3.5</ele>
        <time>2022-11-12T09:27:24Z</time>
      </trkpt>
      <trkpt lat="47.85264" lon="-4.02639">
        <ele>3.5</ele>
        <time>2022-11-12T09:27:25Z</time>
      </trkpt>
      <trkpt lat="47.85261" lon="-4.02648">
        <ele>3.4</ele>
        <time>2022-11-12T09:27:26Z</time>
      </trkpt>
      <trkpt lat="47.8526" lon="-4.02658">
        <ele>3.4</ele>
        <time>2022-11-12T09:27:27Z</time>
      </trkpt>
      <trkpt lat="47.8526" lon="-4.02668">
        <ele>3.3</ele>
        <time>2022-11-12T09:27:28Z</time>
      </trkpt>
      <trkpt lat="47.85262" lon="-4.02678">
        <ele>3.3</ele>
        <time>2022-11-12T09:27:29Z</time>
      </trkpt>
      <trkpt lat="47.85263" lon="-4.02688">
        <ele>3.3</ele>
        <time>2022-11-12T09:27:30Z</time>
      </trkpt>
      <trkpt lat="47.85264" lon="-4.02698">
        <ele>3.2</ele>
        <time>2022-11-12T09:27:31Z</time>
      </trkpt>
      <trkpt lat="47.85264" lon="-4.02707">
        <ele>3.2</ele>
        <time>2022-11-12T09:27:32Z</time>
      </trkpt>
      <trkpt lat="47.85264" lon="-4.02717">
        <ele>3.2</ele>
        <time>2022-11-12T09:27:33Z</time>
      </trkpt>
      <trkpt lat="47.85265" lon="-4.02727">
        <ele>3.2</ele>
        <time>2022-11-12T09:27:34Z</time>
      </trkpt>
      <trkpt lat="47.85265" lon="-4.02737">
        <ele>3.2</ele>
        <time>2022-11-12T09:27:35Z</time>
      </trkpt>
      <trkpt lat="47.85266" lon="-4.02747">
        <ele>3.3</ele>
        <time>2022-11-12T09:27:36Z</time>
      </trkpt>
      <trkpt lat="47.85266" lon="-4.02757">
        <ele>3.3</ele>
        <time>2022-11-12T09:27:37Z</time>
      </trkpt>
      <trkpt lat="47.85267" lon="-4.02766">
        <ele>3.3</ele>
        <time>2022-11-12T09:27:38Z</time>
      </trkpt>
      <trkpt lat="47.85268" lon="-4.02776">
        <ele>3.4</ele>
        <time>2022-11-12T09:27:39Z</time>
      </trkpt>
      <trkpt lat="47.85268" lon="-4.02786">
        <ele>3.4</ele>
        <time>2022-11-12T09:27:40Z</time>
      </trkpt>
      <trkpt lat="47.85268" lon="-4.02795">
        <ele>3.4</ele>
        <time>2022-11-12T09:27:41Z</time>
      </trkpt>
      <trkpt lat="47.85269" lon="-4.02805">
        <ele>3.5</ele>
        <time>2022-11-12T09:27:42Z</time>
      </trkpt>
      <trkpt lat="47.8527" lon="-4.02814">
        <ele>3.5</ele>
        <time>2022-11-12T09:27:43Z</time>
      </trkpt>
      <trkpt lat="47.85271" lon="-4.02824">
        <ele>3.5</ele>
        <time>2022-11-12T09:27:44Z</time>
      </trkpt>
      <trkpt lat="47.85272" lon="-4.02834">
        <ele>3.5</ele>
        <time>2022-11-12T09:27:45Z</time>
      </trkpt>
      <trkpt lat="47.85272" lon="-4.02844">
        <ele>3.5</ele>
        <time>2022-11-12T09:27:46Z</time>
      </trkpt>
      <trkpt lat="47.85273" lon="-4.02853">
        <ele>3.5</ele>
        <time>2022-11-12T09:27:47Z</time>
      </trkpt>
      <trkpt lat="47.85273" lon="-4.02863">
        <ele>3.6</ele>
        <time>2022-11-12T09:27:48Z</time>
      </trkpt>
      <trkpt lat="47.85274" lon="-4.02873">
        <ele>3.6</ele>
        <time>2022-11-12T09:27:49Z</time>
      </trkpt>
      <trkpt lat="47.85275" lon="-4.02883">
        <ele>3.6</ele>
        <time>2022-11-12T09:27:50Z</time>
      </trkpt>
      <trkpt lat="47.85278" lon="-4.02892">
        <ele>3.7</ele>
        <time>2022-11-12T09:27:51Z</time>
      </trkpt>
      <trkpt lat="47.85281" lon="-4.02899">
        <ele>3.7</ele>
        <time>2022-11-12T09:27:52Z</time>
      </trkpt>
      <trkpt lat="47.85285" lon="-4.02906">
        <ele>3.7</ele>
        <time>2022-11-12T09:27:53Z</time>
      </trkpt>
      <trkpt lat="47.85288" lon="-4.02911">
        <ele>3.7</ele>
        <time>2022-11-12T09:27:54Z</time>
      </trkpt>
      <trkpt lat="47.85293" lon="-4.02915">
        <ele>3.8</ele>
        <time>2022-11-12T09:27:55Z</time>
      </trkpt>
      <trkpt lat="47.85296" lon="-4.0292">
        <ele>3.8</ele>
        <time>2022-11-12T09:27:56Z</time>
      </trkpt>
      <trkpt lat="47.853" lon="-4.02923">
        <ele>3.8</ele>
        <time>2022-11-12T09:27:57Z</time>
      </trkpt>
      <trkpt lat="47.85305" lon="-4.02928">
        <ele>3.8</ele>
        <time>2022-11-12T09:27:58Z</time>
      </trkpt>
      <trkpt lat="47.8531" lon="-4.02932">
        <ele>3.8</ele>
        <time>2022-11-12T09:27:59Z</time>
      </trkpt>
      <trkpt lat="47.85315" lon="-4.02935">
        <ele>3.8</ele>
        <time>2022-11-12T09:28:00Z</time>
      </trkpt>
      <trkpt lat="47.85321" lon="-4.02936">
        <ele>3.8</ele>
        <time>2022-11-12T09:28:01Z</time>
      </trkpt>
      <trkpt lat="47.85327" lon="-4.02937">
        <ele>3.8</ele>
        <time>2022-11-12T09:28:02Z</time>
      </trkpt>
      <trkpt lat="47.85333" lon="-4.02938">
        <ele>3.8</ele>
        <time>2022-11-12T09:28:03Z</time>
      </trkpt>
      <trkpt lat="47.85339" lon="-4.02939">
        <ele>3.8</ele>
        <time>2022-11-12T09:28:04Z</time>
      </trkpt>
      <trkpt lat="47.85344" lon="-4.02939">
        <ele>3.8</ele>
        <time>2022-11-12T09:28:05Z</time>
      </trkpt>
      <trkpt lat="47.8535" lon="-4.0294">
        <ele>3.9</ele>
        <time>2022-11-12T09:28:06Z</time>
      </trkpt>
      <trkpt lat="47.85356" lon="-4.0294">
        <ele>3.9</ele>
        <time>2022-11-12T09:28:07Z</time>
      </trkpt>
      <trkpt lat="47.85362" lon="-4.02941">
        <ele>4</ele>
        <time>2022-11-12T09:28:08Z</time>
      </trkpt>
      <trkpt lat="47.85368" lon="-4.02943">
        <ele>4.1</ele>
        <time>2022-11-12T09:28:09Z</time>
      </trkpt>
      <trkpt lat="47.85374" lon="-4.02944">
        <ele>4.1</ele>
        <time>2022-11-12T09:28:10Z</time>
      </trkpt>
      <trkpt lat="47.85379" lon="-4.02946">
        <ele>4.2</ele>
        <time>2022-11-12T09:28:11Z</time>
      </trkpt>
      <trkpt lat="47.85384" lon="-4.02948">
        <ele>4.1</ele>
        <time>2022-11-12T09:28:12Z</time>
      </trkpt>
      <trkpt lat="47.85391" lon="-4.02949">
        <ele>4</ele>
        <time>2022-11-12T09:28:13Z</time>
      </trkpt>
      <trkpt lat="47.85397" lon="-4.02952">
        <ele>3.9</ele>
        <time>2022-11-12T09:28:14Z</time>
      </trkpt>
      <trkpt lat="47.85403" lon="-4.02954">
        <ele>3.8</ele>
        <time>2022-11-12T09:28:15Z</time>
      </trkpt>
      <trkpt lat="47.85409" lon="-4.02957">
        <ele>3.7</ele>
        <time>2022-11-12T09:28:16Z</time>
      </trkpt>
      <trkpt lat="47.85416" lon="-4.0296">
        <ele>3.7</ele>
        <time>2022-11-12T09:28:17Z</time>
      </trkpt>
      <trkpt lat="47.85422" lon="-4.02963">
        <ele>3.7</ele>
        <time>2022-11-12T09:28:18Z</time>
      </trkpt>
      <trkpt lat="47.85428" lon="-4.02966">
        <ele>3.7</ele>
        <time>2022-11-12T09:28:19Z</time>
      </trkpt>
      <trkpt lat="47.85434" lon="-4.02965">
        <ele>3.7</ele>
        <time>2022-11-12T09:28:20Z</time>
      </trkpt>
      <trkpt lat="47.8544" lon="-4.02965">
        <ele>3.8</ele>
        <time>2022-11-12T09:28:21Z</time>
      </trkpt>
      <trkpt lat="47.85445" lon="-4.02964">
        <ele>3.8</ele>
        <time>2022-11-12T09:28:22Z</time>
      </trkpt>
      <trkpt lat="47.8545" lon="-4.02959">
        <ele>3.8</ele>
        <time>2022-11-12T09:28:23Z</time>
      </trkpt>
      <trkpt lat="47.85456" lon="-4.02954">
        <ele>3.8</ele>
        <time>2022-11-12T09:28:24Z</time>
      </trkpt>
      <trkpt lat="47.8546" lon="-4.02947">
        <ele>3.8</ele>
        <time>2022-11-12T09:28:25Z</time>
      </trkpt>
      <trkpt lat="47.85464" lon="-4.02941">
        <ele>3.7</ele>
        <time>2022-11-12T09:28:26Z</time>
      </trkpt>
      <trkpt lat="47.85468" lon="-4.02935">
        <ele>3.7</ele>
        <time>2022-11-12T09:28:27Z</time>
      </trkpt>
      <trkpt lat="47.85472" lon="-4.02927">
        <ele>3.7</ele>
        <time>2022-11-12T09:28:28Z</time>
      </trkpt>
      <trkpt lat="47.85475" lon="-4.0292">
        <ele>3.6</ele>
        <time>2022-11-12T09:28:29Z</time>
      </trkpt>
      <trkpt lat="47.85479" lon="-4.02912">
        <ele>3.6</ele>
        <time>2022-11-12T09:28:30Z</time>
      </trkpt>
      <trkpt lat="47.85483" lon="-4.02905">
        <ele>3.6</ele>
        <time>2022-11-12T09:28:31Z</time>
      </trkpt>
      <trkpt lat="47.85488" lon="-4.029">
        <ele>3.6</ele>
        <time>2022-11-12T09:28:32Z</time>
      </trkpt>
      <trkpt lat="47.85494" lon="-4.02896">
        <ele>3.6</ele>
        <time>2022-11-12T09:28:33Z</time>
      </trkpt>
      <trkpt lat="47.85499" lon="-4.02892">
        <ele>3.6</ele>
        <time>2022-11-12T09:28:34Z</time>
      </trkpt>
      <trkpt lat="47.85505" lon="-4.02889">
        <ele>3.6</ele>
        <time>2022-11-12T09:28:35Z</time>
      </trkpt>
      <trkpt lat="47.85511" lon="-4.02888">
        <ele>3.5</ele>
        <time>2022-11-12T09:28:36Z</time>
      </trkpt>
      <trkpt lat="47.85518" lon="-4.02888">
        <ele>3.5</ele>
        <time>2022-11-12T09:28:37Z</time>
      </trkpt>
      <trkpt lat="47.85524" lon="-4.0289">
        <ele>3.5</ele>
        <time>2022-11-12T09:28:38Z</time>
      </trkpt>
      <trkpt lat="47.8553" lon="-4.02892">
        <ele>3.5</ele>
        <time>2022-11-12T09:28:39Z</time>
      </trkpt>
      <trkpt lat="47.85536" lon="-4.02893">
        <ele>3.5</ele>
        <time>2022-11-12T09:28:40Z</time>
      </trkpt>
      <trkpt lat="47.85543" lon="-4.02895">
        <ele>3.5</ele>
        <time>2022-11-12T09:28:41Z</time>
      </trkpt>
      <trkpt lat="47.85549" lon="-4.02897">
        <ele>3.5</ele>
        <time>2022-11-12T09:28:42Z</time>
      </trkpt>
      <trkpt lat="47.85555" lon="-4.02899">
        <ele>3.5</ele>
        <time>2022-11-12T09:28:43Z</time>
      </trkpt>
      <trkpt lat="47.8556" lon="-4.02902">
        <ele>3.5</ele>
        <time>2022-11-12T09:28:44Z</time>
      </trkpt>
      <trkpt lat="47.85566" lon="-4.02904">
        <ele>3.6</ele>
        <time>2022-11-12T09:28:45Z</time>
      </trkpt>
      <trkpt lat="47.85572" lon="-4.02906">
        <ele>3.6</ele>
        <time>2022-11-12T09:28:46Z</time>
      </trkpt>
      <trkpt lat="47.85577" lon="-4.02907">
        <ele>3.6</ele>
        <time>2022-11-12T09:28:47Z</time>
      </trkpt>
      <trkpt lat="47.85583" lon="-4.02907">
        <ele>3.6</ele>
        <time>2022-11-12T09:28:48Z</time>
      </trkpt>
      <trkpt lat="47.85589" lon="-4.02905">
        <ele>3.6</ele>
        <time>2022-11-12T09:28:49Z</time>
      </trkpt>
      <trkpt lat="47.85595" lon="-4.02902">
        <ele>3.6</ele>
        <time>2022-11-12T09:28:50Z</time>
      </trkpt>
      <trkpt lat="47.85601" lon="-4.02899">
        <ele>3.6</ele>
        <time>2022-11-12T09:28:51Z</time>
      </trkpt>
      <trkpt lat="47.85607" lon="-4.02895">
        <ele>3.6</ele>
        <time>2022-11-12T09:28:52Z</time>
      </trkpt>
      <trkpt lat="47.85612" lon="-4.02891">
        <ele>3.6</ele>
        <time>2022-11-12T09:28:53Z</time>
      </trkpt>
      <trkpt lat="47.85618" lon="-4.02887">
        <ele>3.6</ele>
        <time>2022-11-12T09:28:54Z</time>
      </trkpt>
      <trkpt lat="47.85623" lon="-4.02883">
        <ele>3.6</ele>
        <time>2022-11-12T09:28:55Z</time>
      </trkpt>
      <trkpt lat="47.85628" lon="-4.02877">
        <ele>3.6</ele>
        <time>2022-11-12T09:28:56Z</time>
      </trkpt>
      <trkpt lat="47.85633" lon="-4.02872">
        <ele>3.6</ele>
        <time>2022-11-12T09:28:57Z</time>
      </trkpt>
      <trkpt lat="47.85639" lon="-4.02868">
        <ele>3.6</ele>
        <time>2022-11-12T09:28:58Z</time>
      </trkpt>
      <trkpt lat="47.85645" lon="-4.02865">
        <ele>3.6</ele>
        <time>2022-11-12T09:28:59Z</time>
      </trkpt>
      <trkpt lat="47.85651" lon="-4.02862">
        <ele>3.7</ele>
        <time>2022-11-12T09:29:00Z</time>
      </trkpt>
      <trkpt lat="47.85657" lon="-4.0286">
        <ele>3.7</ele>
        <time>2022-11-12T09:29:01Z</time>
      </trkpt>
      <trkpt lat="47.85663" lon="-4.02858">
        <ele>3.7</ele>
        <time>2022-11-12T09:29:02Z</time>
      </trkpt>
      <trkpt lat="47.85668" lon="-4.02855">
        <ele>3.8</ele>
        <time>2022-11-12T09:29:03Z</time>
      </trkpt>
      <trkpt lat="47.85674" lon="-4.02849">
        <ele>3.8</ele>
        <time>2022-11-12T09:29:04Z</time>
      </trkpt>
      <trkpt lat="47.85679" lon="-4.02844">
        <ele>3.8</ele>
        <time>2022-11-12T09:29:05Z</time>
      </trkpt>
      <trkpt lat="47.85684" lon="-4.02837">
        <ele>3.7</ele>
        <time>2022-11-12T09:29:06Z</time>
      </trkpt>
      <trkpt lat="47.8569" lon="-4.02831">
        <ele>3.7</ele>
        <time>2022-11-12T09:29:07Z</time>
      </trkpt>
      <trkpt lat="47.85696" lon="-4.02827">
        <ele>3.7</ele>
        <time>2022-11-12T09:29:08Z</time>
      </trkpt>
      <trkpt lat="47.85701" lon="-4.02823">
        <ele>3.6</ele>
        <time>2022-11-12T09:29:09Z</time>
      </trkpt>
      <trkpt lat="47.85707" lon="-4.0282">
        <ele>3.6</ele>
        <time>2022-11-12T09:29:10Z</time>
      </trkpt>
      <trkpt lat="47.85713" lon="-4.02818">
        <ele>3.6</ele>
        <time>2022-11-12T09:29:11Z</time>
      </trkpt>
      <trkpt lat="47.8572" lon="-4.02816">
        <ele>3.6</ele>
        <time>2022-11-12T09:29:12Z</time>
      </trkpt>
      <trkpt lat="47.85726" lon="-4.02815">
        <ele>3.6</ele>
        <time>2022-11-12T09:29:13Z</time>
      </trkpt>
      <trkpt lat="47.85732" lon="-4.02814">
        <ele>3.6</ele>
        <time>2022-11-12T09:29:14Z</time>
      </trkpt>
      <trkpt lat="47.85738" lon="-4.02813">
        <ele>3.7</ele>
        <time>2022-11-12T09:29:15Z</time>
      </trkpt>
      <trkpt lat="47.85744" lon="-4.0281">
        <ele>3.7</ele>
        <time>2022-11-12T09:29:16Z</time>
      </trkpt>
      <trkpt lat="47.85749" lon="-4.02808">
        <ele>3.7</ele>
        <time>2022-11-12T09:29:17Z</time>
      </trkpt>
      <trkpt lat="47.85756" lon="-4.02806">
        <ele>3.7</ele>
        <time>2022-11-12T09:29:18Z</time>
      </trkpt>
      <trkpt lat="47.85761" lon="-4.02804">
        <ele>3.7</ele>
        <time>2022-11-12T09:29:19Z</time>
      </trkpt>
      <trkpt lat="47.85767" lon="-4.02801">
        <ele>3.7</ele>
        <time>2022-11-12T09:29:20Z</time>
      </trkpt>
      <trkpt lat="47.85774" lon="-4.028">
        <ele>3.7</ele>
        <time>2022-11-12T09:29:21Z</time>
      </trkpt>
      <trkpt lat="47.8578" lon="-4.02798">
        <ele>3.8</ele>
        <time>2022-11-12T09:29:22Z</time>
      </trkpt>
      <trkpt lat="47.85786" lon="-4.02796">
        <ele>3.8</ele>
        <time>2022-11-12T09:29:23Z</time>
      </trkpt>
      <trkpt lat="47.85793" lon="-4.02795">
        <ele>3.8</ele>
        <time>2022-11-12T09:29:24Z</time>
      </trkpt>
      <trkpt lat="47.85799" lon="-4.02795">
        <ele>3.9</ele>
        <time>2022-11-12T09:29:25Z</time>
      </trkpt>
      <trkpt lat="47.85804" lon="-4.02797">
        <ele>3.9</ele>
        <time>2022-11-12T09:29:26Z</time>
      </trkpt>
      <trkpt lat="47.85809" lon="-4.02802">
        <ele>3.9</ele>
        <time>2022-11-12T09:29:27Z</time>
      </trkpt>
      <trkpt lat="47.8581" lon="-4.02811">
        <ele>3.9</ele>
        <time>2022-11-12T09:29:28Z</time>
      </trkpt>
      <trkpt lat="47.85809" lon="-4.0282">
        <ele>3.8</ele>
        <time>2022-11-12T09:29:29Z</time>
      </trkpt>
      <trkpt lat="47.85808" lon="-4.02829">
        <ele>3.8</ele>
        <time>2022-11-12T09:29:30Z</time>
      </trkpt>
      <trkpt lat="47.85807" lon="-4.02838">
        <ele>3.8</ele>
        <time>2022-11-12T09:29:31Z</time>
      </trkpt>
      <trkpt lat="47.85807" lon="-4.02847">
        <ele>3.7</ele>
        <time>2022-11-12T09:29:32Z</time>
      </trkpt>
      <trkpt lat="47.85806" lon="-4.02855">
        <ele>3.7</ele>
        <time>2022-11-12T09:29:33Z</time>
      </trkpt>
      <trkpt lat="47.85806" lon="-4.02864">
        <ele>3.7</ele>
        <time>2022-11-12T09:29:34Z</time>
      </trkpt>
      <trkpt lat="47.85806" lon="-4.02872">
        <ele>3.7</ele>
        <time>2022-11-12T09:29:35Z</time>
      </trkpt>
      <trkpt lat="47.85805" lon="-4.0288">
        <ele>3.7</ele>
        <time>2022-11-12T09:29:36Z</time>
      </trkpt>
      <trkpt lat="47.85801" lon="-4.02886">
        <ele>3.7</ele>
        <time>2022-11-12T09:29:37Z</time>
      </trkpt>
      <trkpt lat="47.85795" lon="-4.0289">
        <ele>3.7</ele>
        <time>2022-11-12T09:29:38Z</time>
      </trkpt>
      <trkpt lat="47.8579" lon="-4.02893">
        <ele>3.7</ele>
        <time>2022-11-12T09:29:39Z</time>
      </trkpt>
      <trkpt lat="47.85784" lon="-4.02894">
        <ele>3.7</ele>
        <time>2022-11-12T09:29:40Z</time>
      </trkpt>
      <trkpt lat="47.85778" lon="-4.02896">
        <ele>3.7</ele>
        <time>2022-11-12T09:29:41Z</time>
      </trkpt>
      <trkpt lat="47.85773" lon="-4.02898">
        <ele>3.8</ele>
        <time>2022-11-12T09:29:42Z</time>
      </trkpt>
      <trkpt lat="47.85767" lon="-4.02902">
        <ele>3.8</ele>
        <time>2022-11-12T09:29:43Z</time>
      </trkpt>
      <trkpt lat="47.85762" lon="-4.02905">
        <ele>3.8</ele>
        <time>2022-11-12T09:29:44Z</time>
      </trkpt>
      <trkpt lat="47.85757" lon="-4.02909">
        <ele>3.8</ele>
        <time>2022-11-12T09:29:45Z</time>
      </trkpt>
      <trkpt lat="47.85751" lon="-4.02913">
        <ele>3.7</ele>
        <time>2022-11-12T09:29:46Z</time>
      </trkpt>
      <trkpt lat="47.85746" lon="-4.02916">
        <ele>3.7</ele>
        <time>2022-11-12T09:29:47Z</time>
      </trkpt>
      <trkpt lat="47.85741" lon="-4.0292">
        <ele>3.7</ele>
        <time>2022-11-12T09:29:48Z</time>
      </trkpt>
      <trkpt lat="47.85735" lon="-4.02924">
        <ele>3.7</ele>
        <time>2022-11-12T09:29:49Z</time>
      </trkpt>
      <trkpt lat="47.8573" lon="-4.02929">
        <ele>3.7</ele>
        <time>2022-11-12T09:29:50Z</time>
      </trkpt>
      <trkpt lat="47.85724" lon="-4.02933">
        <ele>3.8</ele>
        <time>2022-11-12T09:29:51Z</time>
      </trkpt>
      <trkpt lat="47.85719" lon="-4.02936">
        <ele>3.8</ele>
        <time>2022-11-12T09:29:52Z</time>
      </trkpt>
      <trkpt lat="47.85713" lon="-4.02939">
        <ele>3.8</ele>
        <time>2022-11-12T09:29:53Z</time>
      </trkpt>
      <trkpt lat="47.85707" lon="-4.02941">
        <ele>3.8</ele>
        <time>2022-11-12T09:29:54Z</time>
      </trkpt>
      <trkpt lat="47.85702" lon="-4.02944">
        <ele>3.8</ele>
        <time>2022-11-12T09:29:55Z</time>
      </trkpt>
      <trkpt lat="47.85696" lon="-4.02946">
        <ele>3.8</ele>
        <time>2022-11-12T09:29:56Z</time>
      </trkpt>
      <trkpt lat="47.8569" lon="-4.02949">
        <ele>3.7</ele>
        <time>2022-11-12T09:29:57Z</time>
      </trkpt>
      <trkpt lat="47.85684" lon="-4.02952">
        <ele>3.7</ele>
        <time>2022-11-12T09:29:58Z</time>
      </trkpt>
      <trkpt lat="47.85679" lon="-4.02956">
        <ele>3.7</ele>
        <time>2022-11-12T09:29:59Z</time>
      </trkpt>
      <trkpt lat="47.85673" lon="-4.0296">
        <ele>3.7</ele>
        <time>2022-11-12T09:30:00Z</time>
      </trkpt>
      <trkpt lat="47.85668" lon="-4.02964">
        <ele>3.7</ele>
        <time>2022-11-12T09:30:01Z</time>
      </trkpt>
      <trkpt lat="47.85663" lon="-4.02967">
        <ele>3.7</ele>
        <time>2022-11-12T09:30:02Z</time>
      </trkpt>
      <trkpt lat="47.85658" lon="-4.0297">
        <ele>3.6</ele>
        <time>2022-11-12T09:30:03Z</time>
      </trkpt>
      <trkpt lat="47.85652" lon="-4.02973">
        <ele>3.6</ele>
        <time>2022-11-12T09:30:04Z</time>
      </trkpt>
      <trkpt lat="47.85646" lon="-4.02976">
        <ele>3.6</ele>
        <time>2022-11-12T09:30:05Z</time>
      </trkpt>
      <trkpt lat="47.8564" lon="-4.02979">
        <ele>3.6</ele>
        <time>2022-11-12T09:30:06Z</time>
      </trkpt>
      <trkpt lat="47.85634" lon="-4.02982">
        <ele>3.6</ele>
        <time>2022-11-12T09:30:07Z</time>
      </trkpt>
      <trkpt lat="47.85629" lon="-4.02987">
        <ele>3.6</ele>
        <time>2022-11-12T09:30:08Z</time>
      </trkpt>
      <trkpt lat="47.85625" lon="-4.02994">
        <ele>3.6</ele>
        <time>2022-11-12T09:30:09Z</time>
      </trkpt>
      <trkpt lat="47.85621" lon="-4.03002">
        <ele>3.7</ele>
        <time>2022-11-12T09:30:10Z</time>
      </trkpt>
      <trkpt lat="47.85618" lon="-4.0301">
        <ele>3.7</ele>
        <time>2022-11-12T09:30:11Z</time>
      </trkpt>
      <trkpt lat="47.85614" lon="-4.03018">
        <ele>3.7</ele>
        <time>2022-11-12T09:30:12Z</time>
      </trkpt>
      <trkpt lat="47.85612" lon="-4.03026">
        <ele>3.8</ele>
        <time>2022-11-12T09:30:13Z</time>
      </trkpt>
      <trkpt lat="47.8561" lon="-4.03034">
        <ele>3.8</ele>
        <time>2022-11-12T09:30:14Z</time>
      </trkpt>
      <trkpt lat="47.85608" lon="-4.03043">
        <ele>3.8</ele>
        <time>2022-11-12T09:30:15Z</time>
      </trkpt>
      <trkpt lat="47.85606" lon="-4.03051">
        <ele>3.9</ele>
        <time>2022-11-12T09:30:16Z</time>
      </trkpt>
      <trkpt lat="47.85605" lon="-4.0306">
        <ele>3.9</ele>
        <time>2022-11-12T09:30:17Z</time>
      </trkpt>
      <trkpt lat="47.85604" lon="-4.03068">
        <ele>3.9</ele>
        <time>2022-11-12T09:30:18Z</time>
      </trkpt>
      <trkpt lat="47.85604" lon="-4.03078">
        <ele>3.9</ele>
        <time>2022-11-12T09:30:19Z</time>
      </trkpt>
      <trkpt lat="47.85604" lon="-4.03087">
        <ele>3.9</ele>
        <time>2022-11-12T09:30:20Z</time>
      </trkpt>
      <trkpt lat="47.85605" lon="-4.03095">
        <ele>3.9</ele>
        <time>2022-11-12T09:30:21Z</time>
      </trkpt>
      <trkpt lat="47.85606" lon="-4.03104">
        <ele>3.9</ele>
        <time>2022-11-12T09:30:22Z</time>
      </trkpt>
      <trkpt lat="47.85606" lon="-4.03114">
        <ele>3.9</ele>
        <time>2022-11-12T09:30:23Z</time>
      </trkpt>
      <trkpt lat="47.85607" lon="-4.03123">
        <ele>3.8</ele>
        <time>2022-11-12T09:30:24Z</time>
      </trkpt>
      <trkpt lat="47.85608" lon="-4.03133">
        <ele>3.8</ele>
        <time>2022-11-12T09:30:25Z</time>
      </trkpt>
      <trkpt lat="47.8561" lon="-4.03142">
        <ele>3.8</ele>
        <time>2022-11-12T09:30:26Z</time>
      </trkpt>
      <trkpt lat="47.85612" lon="-4.03151">
        <ele>3.8</ele>
        <time>2022-11-12T09:30:27Z</time>
      </trkpt>
      <trkpt lat="47.85614" lon="-4.0316">
        <ele>3.7</ele>
        <time>2022-11-12T09:30:28Z</time>
      </trkpt>
      <trkpt lat="47.85617" lon="-4.03169">
        <ele>3.7</ele>
        <time>2022-11-12T09:30:29Z</time>
      </trkpt>
      <trkpt lat="47.8562" lon="-4.03177">
        <ele>3.7</ele>
        <time>2022-11-12T09:30:30Z</time>
      </trkpt>
      <trkpt lat="47.85623" lon="-4.03185">
        <ele>3.7</ele>
        <time>2022-11-12T09:30:31Z</time>
      </trkpt>
      <trkpt lat="47.85628" lon="-4.03192">
        <ele>3.7</ele>
        <time>2022-11-12T09:30:32Z</time>
      </trkpt>
      <trkpt lat="47.85633" lon="-4.03198">
        <ele>3.7</ele>
        <time>2022-11-12T09:30:33Z</time>
      </trkpt>
      <trkpt lat="47.85638" lon="-4.03204">
        <ele>3.7</ele>
        <time>2022-11-12T09:30:34Z</time>
      </trkpt>
      <trkpt lat="47.85643" lon="-4.0321">
        <ele>3.8</ele>
        <time>2022-11-12T09:30:35Z</time>
      </trkpt>
      <trkpt lat="47.85648" lon="-4.03216">
        <ele>3.8</ele>
        <time>2022-11-12T09:30:36Z</time>
      </trkpt>
      <trkpt lat="47.85653" lon="-4.03223">
        <ele>3.8</ele>
        <time>2022-11-12T09:30:37Z</time>
      </trkpt>
      <trkpt lat="47.85658" lon="-4.03229">
        <ele>3.8</ele>
        <time>2022-11-12T09:30:38Z</time>
      </trkpt>
      <trkpt lat="47.85663" lon="-4.03235">
        <ele>3.8</ele>
        <time>2022-11-12T09:30:39Z</time>
      </trkpt>
      <trkpt lat="47.85668" lon="-4.03241">
        <ele>3.8</ele>
        <time>2022-11-12T09:30:40Z</time>
      </trkpt>
      <trkpt lat="47.85673" lon="-4.03248">
        <ele>3.8</ele>
        <time>2022-11-12T09:30:41Z</time>
      </trkpt>
      <trkpt lat="47.85678" lon="-4.03255">
        <ele>3.8</ele>
        <time>2022-11-12T09:30:42Z</time>
      </trkpt>
      <trkpt lat="47.85683" lon="-4.03261">
        <ele>3.7</ele>
        <time>2022-11-12T09:30:43Z</time>
      </trkpt>
      <trkpt lat="47.85688" lon="-4.03268">
        <ele>3.7</ele>
        <time>2022-11-12T09:30:44Z</time>
      </trkpt>
      <trkpt lat="47.85693" lon="-4.03275">
        <ele>3.7</ele>
        <time>2022-11-12T09:30:45Z</time>
      </trkpt>
      <trkpt lat="47.85698" lon="-4.03282">
        <ele>3.7</ele>
        <time>2022-11-12T09:30:46Z</time>
      </trkpt>
      <trkpt lat="47.85703" lon="-4.03288">
        <ele>3.7</ele>
        <time>2022-11-12T09:30:47Z</time>
      </trkpt>
      <trkpt lat="47.85708" lon="-4.03294">
        <ele>3.6</ele>
        <time>2022-11-12T09:30:48Z</time>
      </trkpt>
      <trkpt lat="47.85714" lon="-4.03299">
        <ele>3.6</ele>
        <time>2022-11-12T09:30:49Z</time>
      </trkpt>
      <trkpt lat="47.85721" lon="-4.03302">
        <ele>3.6</ele>
        <time>2022-11-12T09:30:50Z</time>
      </trkpt>
      <trkpt lat="47.85727" lon="-4.03304">
        <ele>3.6</ele>
        <time>2022-11-12T09:30:51Z</time>
      </trkpt>
      <trkpt lat="47.85734" lon="-4.03306">
        <ele>3.6</ele>
        <time>2022-11-12T09:30:52Z</time>
      </trkpt>
      <trkpt lat="47.8574" lon="-4.03308">
        <ele>3.7</ele>
        <time>2022-11-12T09:30:53Z</time>
      </trkpt>
      <trkpt lat="47.85747" lon="-4.03308">
        <ele>3.7</ele>
        <time>2022-11-12T09:30:54Z</time>
      </trkpt>
      <trkpt lat="47.85753" lon="-4.03308">
        <ele>3.7</ele>
        <time>2022-11-12T09:30:55Z</time>
      </trkpt>
      <trkpt lat="47.85759" lon="-4.03309">
        <ele>3.7</ele>
        <time>2022-11-12T09:30:56Z</time>
      </trkpt>
      <trkpt lat="47.85765" lon="-4.0331">
        <ele>3.7</ele>
        <time>2022-11-12T09:30:57Z</time>
      </trkpt>
      <trkpt lat="47.85771" lon="-4.03311">
        <ele>3.7</ele>
        <time>2022-11-12T09:30:58Z</time>
      </trkpt>
      <trkpt lat="47.85778" lon="-4.03312">
        <ele>3.7</ele>
        <time>2022-11-12T09:30:59Z</time>
      </trkpt>
      <trkpt lat="47.85784" lon="-4.03313">
        <ele>3.8</ele>
        <time>2022-11-12T09:31:00Z</time>
      </trkpt>
      <trkpt lat="47.85789" lon="-4.03313">
        <ele>3.8</ele>
        <time>2022-11-12T09:31:01Z</time>
      </trkpt>
      <trkpt lat="47.85795" lon="-4.03314">
        <ele>3.7</ele>
        <time>2022-11-12T09:31:02Z</time>
      </trkpt>
      <trkpt lat="47.858" lon="-4.03318">
        <ele>3.7</ele>
        <time>2022-11-12T09:31:03Z</time>
      </trkpt>
      <trkpt lat="47.85805" lon="-4.03323">
        <ele>3.6</ele>
        <time>2022-11-12T09:31:04Z</time>
      </trkpt>
      <trkpt lat="47.85811" lon="-4.03327">
        <ele>3.6</ele>
        <time>2022-11-12T09:31:05Z</time>
      </trkpt>
      <trkpt lat="47.85816" lon="-4.03332">
        <ele>3.6</ele>
        <time>2022-11-12T09:31:06Z</time>
      </trkpt>
      <trkpt lat="47.85821" lon="-4.03338">
        <ele>3.6</ele>
        <time>2022-11-12T09:31:07Z</time>
      </trkpt>
      <trkpt lat="47.85825" lon="-4.03345">
        <ele>3.6</ele>
        <time>2022-11-12T09:31:08Z</time>
      </trkpt>
      <trkpt lat="47.85828" lon="-4.03352">
        <ele>3.7</ele>
        <time>2022-11-12T09:31:09Z</time>
      </trkpt>
      <trkpt lat="47.85831" lon="-4.03359">
        <ele>3.7</ele>
        <time>2022-11-12T09:31:10Z</time>
      </trkpt>
      <trkpt lat="47.85833" lon="-4.03368">
        <ele>3.7</ele>
        <time>2022-11-12T09:31:11Z</time>
      </trkpt>
      <trkpt lat="47.85834" lon="-4.03377">
        <ele>3.8</ele>
        <time>2022-11-12T09:31:12Z</time>
      </trkpt>
      <trkpt lat="47.85833" lon="-4.03386">
        <ele>3.8</ele>
        <time>2022-11-12T09:31:13Z</time>
      </trkpt>
      <trkpt lat="47.8583" lon="-4.03395">
        <ele>3.8</ele>
        <time>2022-11-12T09:31:14Z</time>
      </trkpt>
      <trkpt lat="47.85827" lon="-4.03403">
        <ele>3.8</ele>
        <time>2022-11-12T09:31:15Z</time>
      </trkpt>
      <trkpt lat="47.85823" lon="-4.0341">
        <ele>3.8</ele>
        <time>2022-11-12T09:31:16Z</time>
      </trkpt>
      <trkpt lat="47.85819" lon="-4.03416">
        <ele>3.8</ele>
        <time>2022-11-12T09:31:17Z</time>
      </trkpt>
      <trkpt lat="47.85814" lon="-4.03422">
        <ele>3.8</ele>
        <time>2022-11-12T09:31:18Z</time>
      </trkpt>
      <trkpt lat="47.85809" lon="-4.03428">
        <ele>3.7</ele>
        <time>2022-11-12T09:31:19Z</time>
      </trkpt>
      <trkpt lat="47.85804" lon="-4.03435">
        <ele>3.7</ele>
        <time>2022-11-12T09:31:20Z</time>
      </trkpt>
      <trkpt lat="47.858" lon="-4.03442">
        <ele>3.6</ele>
        <time>2022-11-12T09:31:21Z</time>
      </trkpt>
      <trkpt lat="47.85795" lon="-4.03449">
        <ele>3.6</ele>
        <time>2022-11-12T09:31:22Z</time>
      </trkpt>
      <trkpt lat="47.8579" lon="-4.03456">
        <ele>3.6</ele>
        <time>2022-11-12T09:31:23Z</time>
      </trkpt>
      <trkpt lat="47.85786" lon="-4.03464">
        <ele>3.6</ele>
        <time>2022-11-12T09:31:24Z</time>
      </trkpt>
      <trkpt lat="47.85781" lon="-4.03471">
        <ele>3.6</ele>
        <time>2022-11-12T09:31:25Z</time>
      </trkpt>
      <trkpt lat="47.85776" lon="-4.03477">
        <ele>3.6</ele>
        <time>2022-11-12T09:31:26Z</time>
      </trkpt>
      <trkpt lat="47.85772" lon="-4.03484">
        <ele>3.6</ele>
        <time>2022-11-12T09:31:27Z</time>
      </trkpt>
      <trkpt lat="47.85767" lon="-4.03491">
        <ele>3.6</ele>
        <time>2022-11-12T09:31:28Z</time>
      </trkpt>
      <trkpt lat="47.85762" lon="-4.03498">
        <ele>3.6</ele>
        <time>2022-11-12T09:31:29Z</time>
      </trkpt>
      <trkpt lat="47.85758" lon="-4.03505">
        <ele>3.6</ele>
        <time>2022-11-12T09:31:30Z</time>
      </trkpt>
      <trkpt lat="47.85753" lon="-4.03512">
        <ele>3.6</ele>
        <time>2022-11-12T09:31:31Z</time>
      </trkpt>
      <trkpt lat="47.85748" lon="-4.03519">
        <ele>3.6</ele>
        <time>2022-11-12T09:31:32Z</time>
      </trkpt>
      <trkpt lat="47.85744" lon="-4.03526">
        <ele>3.6</ele>
        <time>2022-11-12T09:31:33Z</time>
      </trkpt>
      <trkpt lat="47.85739" lon="-4.03532">
        <ele>3.7</ele>
        <time>2022-11-12T09:31:34Z</time>
      </trkpt>
      <trkpt lat="47.85735" lon="-4.03538">
        <ele>3.8</ele>
        <time>2022-11-12T09:31:35Z</time>
      </trkpt>
      <trkpt lat="47.8573" lon="-4.03545">
        <ele>3.8</ele>
        <time>2022-11-12T09:31:36Z</time>
      </trkpt>
      <trkpt lat="47.85726" lon="-4.03551">
        <ele>3.9</ele>
        <time>2022-11-12T09:31:37Z</time>
      </trkpt>
      <trkpt lat="47.85722" lon="-4.03558">
        <ele>3.9</ele>
        <time>2022-11-12T09:31:38Z</time>
      </trkpt>
      <trkpt lat="47.85718" lon="-4.03564">
        <ele>4</ele>
        <time>2022-11-12T09:31:39Z</time>
      </trkpt>
      <trkpt lat="47.85714" lon="-4.03572">
        <ele>4</ele>
        <time>2022-11-12T09:31:40Z</time>
      </trkpt>
      <trkpt lat="47.8571" lon="-4.03579">
        <ele>4.1</ele>
        <time>2022-11-12T09:31:41Z</time>
      </trkpt>
      <trkpt lat="47.85706" lon="-4.03587">
        <ele>4.1</ele>
        <time>2022-11-12T09:31:42Z</time>
      </trkpt>
      <trkpt lat="47.85703" lon="-4.03595">
        <ele>4.1</ele>
        <time>2022-11-12T09:31:43Z</time>
      </trkpt>
      <trkpt lat="47.85699" lon="-4.03602">
        <ele>4.2</ele>
        <time>2022-11-12T09:31:44Z</time>
      </trkpt>
      <trkpt lat="47.85696" lon="-4.0361">
        <ele>4.2</ele>
        <time>2022-11-12T09:31:45Z</time>
      </trkpt>
      <trkpt lat="47.85692" lon="-4.03618">
        <ele>4.2</ele>
        <time>2022-11-12T09:31:46Z</time>
      </trkpt>
      <trkpt lat="47.85689" lon="-4.03626">
        <ele>4.2</ele>
        <time>2022-11-12T09:31:47Z</time>
      </trkpt>
      <trkpt lat="47.85685" lon="-4.03633">
        <ele>4.2</ele>
        <time>2022-11-12T09:31:48Z</time>
      </trkpt>
      <trkpt lat="47.85681" lon="-4.03641">
        <ele>4.2</ele>
        <time>2022-11-12T09:31:49Z</time>
      </trkpt>
      <trkpt lat="47.85678" lon="-4.0365">
        <ele>4.2</ele>
        <time>2022-11-12T09:31:50Z</time>
      </trkpt>
      <trkpt lat="47.85674" lon="-4.03658">
        <ele>4.2</ele>
        <time>2022-11-12T09:31:51Z</time>
      </trkpt>
      <trkpt lat="47.85671" lon="-4.03666">
        <ele>4.2</ele>
        <time>2022-11-12T09:31:52Z</time>
      </trkpt>
      <trkpt lat="47.85668" lon="-4.03674">
        <ele>4.2</ele>
        <time>2022-11-12T09:31:53Z</time>
      </trkpt>
      <trkpt lat="47.85665" lon="-4.03683">
        <ele>4.2</ele>
        <time>2022-11-12T09:31:54Z</time>
      </trkpt>
      <trkpt lat="47.85662" lon="-4.03691">
        <ele>4.2</ele>
        <time>2022-11-12T09:31:55Z</time>
      </trkpt>
      <trkpt lat="47.85659" lon="-4.03699">
        <ele>4.2</ele>
        <time>2022-11-12T09:31:56Z</time>
      </trkpt>
      <trkpt lat="47.85656" lon="-4.03708">
        <ele>4.2</ele>
        <time>2022-11-12T09:31:57Z</time>
      </trkpt>
      <trkpt lat="47.85654" lon="-4.03717">
        <ele>4.2</ele>
        <time>2022-11-12T09:31:58Z</time>
      </trkpt>
      <trkpt lat="47.85651" lon="-4.03726">
        <ele>4.2</ele>
        <time>2022-11-12T09:31:59Z</time>
      </trkpt>
      <trkpt lat="47.85649" lon="-4.03735">
        <ele>4.2</ele>
        <time>2022-11-12T09:32:00Z</time>
      </trkpt>
      <trkpt lat="47.85646" lon="-4.03744">
        <ele>4.2</ele>
        <time>2022-11-12T09:32:01Z</time>
      </trkpt>
      <trkpt lat="47.85644" lon="-4.03753">
        <ele>4.2</ele>
        <time>2022-11-12T09:32:02Z</time>
      </trkpt>
      <trkpt lat="47.85642" lon="-4.03762">
        <ele>4.1</ele>
        <time>2022-11-12T09:32:03Z</time>
      </trkpt>
      <trkpt lat="47.8564" lon="-4.03772">
        <ele>4.1</ele>
        <time>2022-11-12T09:32:04Z</time>
      </trkpt>
      <trkpt lat="47.85638" lon="-4.03781">
        <ele>4.1</ele>
        <time>2022-11-12T09:32:05Z</time>
      </trkpt>
      <trkpt lat="47.85636" lon="-4.03791">
        <ele>4.1</ele>
        <time>2022-11-12T09:32:06Z</time>
      </trkpt>
      <trkpt lat="47.85634" lon="-4.038">
        <ele>4</ele>
        <time>2022-11-12T09:32:07Z</time>
      </trkpt>
      <trkpt lat="47.85633" lon="-4.0381">
        <ele>4</ele>
        <time>2022-11-12T09:32:08Z</time>
      </trkpt>
      <trkpt lat="47.85631" lon="-4.03819">
        <ele>4</ele>
        <time>2022-11-12T09:32:09Z</time>
      </trkpt>
      <trkpt lat="47.85631" lon="-4.03828">
        <ele>3.9</ele>
        <time>2022-11-12T09:32:10Z</time>
      </trkpt>
      <trkpt lat="47.85629" lon="-4.03837">
        <ele>3.9</ele>
        <time>2022-11-12T09:32:11Z</time>
      </trkpt>
      <trkpt lat="47.85627" lon="-4.03846">
        <ele>3.9</ele>
        <time>2022-11-12T09:32:12Z</time>
      </trkpt>
      <trkpt lat="47.85624" lon="-4.03855">
        <ele>3.8</ele>
        <time>2022-11-12T09:32:13Z</time>
      </trkpt>
      <trkpt lat="47.85621" lon="-4.03863">
        <ele>3.8</ele>
        <time>2022-11-12T09:32:14Z</time>
      </trkpt>
      <trkpt lat="47.85616" lon="-4.03871">
        <ele>3.8</ele>
        <time>2022-11-12T09:32:15Z</time>
      </trkpt>
      <trkpt lat="47.85611" lon="-4.03877">
        <ele>3.8</ele>
        <time>2022-11-12T09:32:16Z</time>
      </trkpt>
      <trkpt lat="47.85606" lon="-4.03884">
        <ele>3.9</ele>
        <time>2022-11-12T09:32:17Z</time>
      </trkpt>
      <trkpt lat="47.85601" lon="-4.0389">
        <ele>3.9</ele>
        <time>2022-11-12T09:32:18Z</time>
      </trkpt>
      <trkpt lat="47.85596" lon="-4.03896">
        <ele>3.9</ele>
        <time>2022-11-12T09:32:19Z</time>
      </trkpt>
      <trkpt lat="47.85592" lon="-4.03902">
        <ele>4</ele>
        <time>2022-11-12T09:32:20Z</time>
      </trkpt>
      <trkpt lat="47.85587" lon="-4.03906">
        <ele>4</ele>
        <time>2022-11-12T09:32:21Z</time>
      </trkpt>
      <trkpt lat="47.85581" lon="-4.03908">
        <ele>4.1</ele>
        <time>2022-11-12T09:32:22Z</time>
      </trkpt>
      <trkpt lat="47.85576" lon="-4.03907">
        <ele>4.1</ele>
        <time>2022-11-12T09:32:23Z</time>
      </trkpt>
      <trkpt lat="47.8557" lon="-4.03903">
        <ele>4.1</ele>
        <time>2022-11-12T09:32:24Z</time>
      </trkpt>
      <trkpt lat="47.85566" lon="-4.03899">
        <ele>4.1</ele>
        <time>2022-11-12T09:32:25Z</time>
      </trkpt>
      <trkpt lat="47.85564" lon="-4.03891">
        <ele>4</ele>
        <time>2022-11-12T09:32:26Z</time>
      </trkpt>
      <trkpt lat="47.85564" lon="-4.03883">
        <ele>3.9</ele>
        <time>2022-11-12T09:32:27Z</time>
      </trkpt>
      <trkpt lat="47.85566" lon="-4.03875">
        <ele>3.9</ele>
        <time>2022-11-12T09:32:28Z</time>
      </trkpt>
      <trkpt lat="47.85568" lon="-4.03866">
        <ele>3.9</ele>
        <time>2022-11-12T09:32:29Z</time>
      </trkpt>
      <trkpt lat="47.85569" lon="-4.03858">
        <ele>3.9</ele>
        <time>2022-11-12T09:32:30Z</time>
      </trkpt>
      <trkpt lat="47.85571" lon="-4.03849">
        <ele>3.9</ele>
        <time>2022-11-12T09:32:31Z</time>
      </trkpt>
      <trkpt lat="47.85572" lon="-4.0384">
        <ele>3.9</ele>
        <time>2022-11-12T09:32:32Z</time>
      </trkpt>
      <trkpt lat="47.85573" lon="-4.03831">
        <ele>3.9</ele>
        <time>2022-11-12T09:32:33Z</time>
      </trkpt>
      <trkpt lat="47.85573" lon="-4.03822">
        <ele>3.9</ele>
        <time>2022-11-12T09:32:34Z</time>
      </trkpt>
      <trkpt lat="47.85573" lon="-4.03813">
        <ele>3.9</ele>
        <time>2022-11-12T09:32:35Z</time>
      </trkpt>
      <trkpt lat="47.85573" lon="-4.03803">
        <ele>3.8</ele>
        <time>2022-11-12T09:32:36Z</time>
      </trkpt>
      <trkpt lat="47.85573" lon="-4.03794">
        <ele>3.8</ele>
        <time>2022-11-12T09:32:37Z</time>
      </trkpt>
      <trkpt lat="47.85573" lon="-4.03784">
        <ele>3.8</ele>
        <time>2022-11-12T09:32:38Z</time>
      </trkpt>
      <trkpt lat="47.85573" lon="-4.03775">
        <ele>3.8</ele>
        <time>2022-11-12T09:32:39Z</time>
      </trkpt>
      <trkpt lat="47.85572" lon="-4.03766">
        <ele>3.7</ele>
        <time>2022-11-12T09:32:40Z</time>
      </trkpt>
      <trkpt lat="47.85571" lon="-4.03757">
        <ele>3.7</ele>
        <time>2022-11-12T09:32:41Z</time>
      </trkpt>
      <trkpt lat="47.8557" lon="-4.03747">
        <ele>3.7</ele>
        <time>2022-11-12T09:32:42Z</time>
      </trkpt>
      <trkpt lat="47.85569" lon="-4.03738">
        <ele>3.6</ele>
        <time>2022-11-12T09:32:43Z</time>
      </trkpt>
      <trkpt lat="47.85568" lon="-4.03728">
        <ele>3.6</ele>
        <time>2022-11-12T09:32:44Z</time>
      </trkpt>
      <trkpt lat="47.85567" lon="-4.03719">
        <ele>3.6</ele>
        <time>2022-11-12T09:32:45Z</time>
      </trkpt>
      <trkpt lat="47.85566" lon="-4.03709">
        <ele>3.6</ele>
        <time>2022-11-12T09:32:46Z</time>
      </trkpt>
      <trkpt lat="47.85565" lon="-4.037">
        <ele>3.6</ele>
        <time>2022-11-12T09:32:47Z</time>
      </trkpt>
      <trkpt lat="47.85563" lon="-4.03691">
        <ele>3.6</ele>
        <time>2022-11-12T09:32:48Z</time>
      </trkpt>
      <trkpt lat="47.85561" lon="-4.03682">
        <ele>3.6</ele>
        <time>2022-11-12T09:32:49Z</time>
      </trkpt>
      <trkpt lat="47.8556" lon="-4.03673">
        <ele>3.6</ele>
        <time>2022-11-12T09:32:50Z</time>
      </trkpt>
      <trkpt lat="47.85558" lon="-4.03664">
        <ele>3.6</ele>
        <time>2022-11-12T09:32:51Z</time>
      </trkpt>
      <trkpt lat="47.85557" lon="-4.03656">
        <ele>3.6</ele>
        <time>2022-11-12T09:32:52Z</time>
      </trkpt>
      <trkpt lat="47.85555" lon="-4.03647">
        <ele>3.6</ele>
        <time>2022-11-12T09:32:53Z</time>
      </trkpt>
      <trkpt lat="47.85554" lon="-4.03638">
        <ele>3.6</ele>
        <time>2022-11-12T09:32:54Z</time>
      </trkpt>
      <trkpt lat="47.85552" lon="-4.03629">
        <ele>3.6</ele>
        <time>2022-11-12T09:32:55Z</time>
      </trkpt>
      <trkpt lat="47.85551" lon="-4.03621">
        <ele>3.6</ele>
        <time>2022-11-12T09:32:56Z</time>
      </trkpt>
      <trkpt lat="47.85549" lon="-4.03612">
        <ele>3.5</ele>
        <time>2022-11-12T09:32:57Z</time>
      </trkpt>
      <trkpt lat="47.85548" lon="-4.03603">
        <ele>3.5</ele>
        <time>2022-11-12T09:32:58Z</time>
      </trkpt>
      <trkpt lat="47.85547" lon="-4.03594">
        <ele>3.5</ele>
        <time>2022-11-12T09:32:59Z</time>
      </trkpt>
      <trkpt lat="47.85545" lon="-4.03586">
        <ele>3.5</ele>
        <time>2022-11-12T09:33:00Z</time>
      </trkpt>
      <trkpt lat="47.85544" lon="-4.03578">
        <ele>3.5</ele>
        <time>2022-11-12T09:33:01Z</time>
      </trkpt>
      <trkpt lat="47.85543" lon="-4.03569">
        <ele>3.5</ele>
        <time>2022-11-12T09:33:02Z</time>
      </trkpt>
      <trkpt lat="47.85542" lon="-4.0356">
        <ele>3.5</ele>
        <time>2022-11-12T09:33:03Z</time>
      </trkpt>
      <trkpt lat="47.8554" lon="-4.03551">
        <ele>3.5</ele>
        <time>2022-11-12T09:33:04Z</time>
      </trkpt>
      <trkpt lat="47.85539" lon="-4.03542">
        <ele>3.5</ele>
        <time>2022-11-12T09:33:05Z</time>
      </trkpt>
      <trkpt lat="47.85537" lon="-4.03532">
        <ele>3.5</ele>
        <time>2022-11-12T09:33:06Z</time>
      </trkpt>
      <trkpt lat="47.85535" lon="-4.03524">
        <ele>3.5</ele>
        <time>2022-11-12T09:33:07Z</time>
      </trkpt>
      <trkpt lat="47.85533" lon="-4.03516">
        <ele>3.5</ele>
        <time>2022-11-12T09:33:08Z</time>
      </trkpt>
      <trkpt lat="47.8553" lon="-4.0351">
        <ele>3.5</ele>
        <time>2022-11-12T09:33:09Z</time>
      </trkpt>
      <trkpt lat="47.85526" lon="-4.03505">
        <ele>3.5</ele>
        <time>2022-11-12T09:33:10Z</time>
      </trkpt>
      <trkpt lat="47.85522" lon="-4.03499">
        <ele>3.5</ele>
        <time>2022-11-12T09:33:11Z</time>
      </trkpt>
      <trkpt lat="47.85519" lon="-4.03492">
        <ele>3.5</ele>
        <time>2022-11-12T09:33:12Z</time>
      </trkpt>
      <trkpt lat="47.85516" lon="-4.03487">
        <ele>3.5</ele>
        <time>2022-11-12T09:33:13Z</time>
      </trkpt>
      <trkpt lat="47.85511" lon="-4.03482">
        <ele>3.4</ele>
        <time>2022-11-12T09:33:14Z</time>
      </trkpt>
      <trkpt lat="47.85506" lon="-4.03479">
        <ele>3.4</ele>
        <time>2022-11-12T09:33:15Z</time>
      </trkpt>
      <trkpt lat="47.855" lon="-4.03476">
        <ele>3.4</ele>
        <time>2022-11-12T09:33:16Z</time>
      </trkpt>
      <trkpt lat="47.85494" lon="-4.03474">
        <ele>3.3</ele>
        <time>2022-11-12T09:33:17Z</time>
      </trkpt>
      <trkpt lat="47.85489" lon="-4.0347">
        <ele>3.3</ele>
        <time>2022-11-12T09:33:18Z</time>
      </trkpt>
      <trkpt lat="47.85484" lon="-4.03465">
        <ele>3.3</ele>
        <time>2022-11-12T09:33:19Z</time>
      </trkpt>
      <trkpt lat="47.8548" lon="-4.0346">
        <ele>3.3</ele>
        <time>2022-11-12T09:33:20Z</time>
      </trkpt>
      <trkpt lat="47.85475" lon="-4.03456">
        <ele>3.2</ele>
        <time>2022-11-12T09:33:21Z</time>
      </trkpt>
      <trkpt lat="47.8547" lon="-4.03452">
        <ele>3.2</ele>
        <time>2022-11-12T09:33:22Z</time>
      </trkpt>
      <trkpt lat="47.85465" lon="-4.03449">
        <ele>3.1</ele>
        <time>2022-11-12T09:33:23Z</time>
      </trkpt>
      <trkpt lat="47.8546" lon="-4.03445">
        <ele>3.1</ele>
        <time>2022-11-12T09:33:24Z</time>
      </trkpt>
      <trkpt lat="47.85454" lon="-4.03441">
        <ele>3</ele>
        <time>2022-11-12T09:33:25Z</time>
      </trkpt>
      <trkpt lat="47.85449" lon="-4.03437">
        <ele>3</ele>
        <time>2022-11-12T09:33:26Z</time>
      </trkpt>
      <trkpt lat="47.85443" lon="-4.03432">
        <ele>3</ele>
        <time>2022-11-12T09:33:27Z</time>
      </trkpt>
      <trkpt lat="47.85438" lon="-4.03428">
        <ele>3</ele>
        <time>2022-11-12T09:33:28Z</time>
      </trkpt>
      <trkpt lat="47.85433" lon="-4.03423">
        <ele>3.1</ele>
        <time>2022-11-12T09:33:29Z</time>
      </trkpt>
      <trkpt lat="47.85428" lon="-4.03419">
        <ele>3.1</ele>
        <time>2022-11-12T09:33:30Z</time>
      </trkpt>
      <trkpt lat="47.85422" lon="-4.03415">
        <ele>3.2</ele>
        <time>2022-11-12T09:33:31Z</time>
      </trkpt>
      <trkpt lat="47.85417" lon="-4.03411">
        <ele>3.3</ele>
        <time>2022-11-12T09:33:32Z</time>
      </trkpt>
      <trkpt lat="47.85412" lon="-4.03406">
        <ele>3.4</ele>
        <time>2022-11-12T09:33:33Z</time>
      </trkpt>
      <trkpt lat="47.85408" lon="-4.03401">
        <ele>3.4</ele>
        <time>2022-11-12T09:33:34Z</time>
      </trkpt>
      <trkpt lat="47.85403" lon="-4.03396">
        <ele>3.5</ele>
        <time>2022-11-12T09:33:35Z</time>
      </trkpt>
      <trkpt lat="47.85398" lon="-4.03391">
        <ele>3.5</ele>
        <time>2022-11-12T09:33:36Z</time>
      </trkpt>
      <trkpt lat="47.85393" lon="-4.03385">
        <ele>3.5</ele>
        <time>2022-11-12T09:33:37Z</time>
      </trkpt>
      <trkpt lat="47.85388" lon="-4.03379">
        <ele>3.5</ele>
        <time>2022-11-12T09:33:38Z</time>
      </trkpt>
      <trkpt lat="47.85383" lon="-4.03373">
        <ele>3.5</ele>
        <time>2022-11-12T09:33:39Z</time>
      </trkpt>
      <trkpt lat="47.85379" lon="-4.03366">
        <ele>3.4</ele>
        <time>2022-11-12T09:33:40Z</time>
      </trkpt>
      <trkpt lat="47.85374" lon="-4.0336">
        <ele>3.4</ele>
        <time>2022-11-12T09:33:41Z</time>
      </trkpt>
      <trkpt lat="47.85369" lon="-4.03353">
        <ele>3.3</ele>
        <time>2022-11-12T09:33:42Z</time>
      </trkpt>
      <trkpt lat="47.85364" lon="-4.03347">
        <ele>3.3</ele>
        <time>2022-11-12T09:33:43Z</time>
      </trkpt>
      <trkpt lat="47.85359" lon="-4.03341">
        <ele>3.3</ele>
        <time>2022-11-12T09:33:44Z</time>
      </trkpt>
      <trkpt lat="47.85354" lon="-4.03335">
        <ele>3.3</ele>
        <time>2022-11-12T09:33:45Z</time>
      </trkpt>
      <trkpt lat="47.85349" lon="-4.03331">
        <ele>3.4</ele>
        <time>2022-11-12T09:33:46Z</time>
      </trkpt>
      <trkpt lat="47.85343" lon="-4.03328">
        <ele>3.4</ele>
        <time>2022-11-12T09:33:47Z</time>
      </trkpt>
      <trkpt lat="47.85336" lon="-4.03325">
        <ele>3.5</ele>
        <time>2022-11-12T09:33:48Z</time>
      </trkpt>
      <trkpt lat="47.8533" lon="-4.03324">
        <ele>3.6</ele>
        <time>2022-11-12T09:33:49Z</time>
      </trkpt>
      <trkpt lat="47.85325" lon="-4.03324">
        <ele>3.8</ele>
        <time>2022-11-12T09:33:50Z</time>
      </trkpt>
      <trkpt lat="47.8532" lon="-4.03324">
        <ele>3.9</ele>
        <time>2022-11-12T09:33:51Z</time>
      </trkpt>
      <trkpt lat="47.85314" lon="-4.03324">
        <ele>4.1</ele>
        <time>2022-11-12T09:33:52Z</time>
      </trkpt>
      <trkpt lat="47.85309" lon="-4.03323">
        <ele>4.2</ele>
        <time>2022-11-12T09:33:53Z</time>
      </trkpt>
      <trkpt lat="47.85304" lon="-4.03322">
        <ele>4.3</ele>
        <time>2022-11-12T09:33:54Z</time>
      </trkpt>
      <trkpt lat="47.85299" lon="-4.03325">
        <ele>4.4</ele>
        <time>2022-11-12T09:33:55Z</time>
      </trkpt>
      <trkpt lat="47.85293" lon="-4.03329">
        <ele>4.1</ele>
        <time>2022-11-12T09:33:56Z</time>
      </trkpt>
      <trkpt lat="47.85287" lon="-4.03334">
        <ele>3.9</ele>
        <time>2022-11-12T09:33:57Z</time>
      </trkpt>
      <trkpt lat="47.85281" lon="-4.03339">
        <ele>3.7</ele>
        <time>2022-11-12T09:33:58Z</time>
      </trkpt>
      <trkpt lat="47.85274" lon="-4.03342">
        <ele>3.5</ele>
        <time>2022-11-12T09:33:59Z</time>
      </trkpt>
      <trkpt lat="47.85267" lon="-4.03344">
        <ele>3.4</ele>
        <time>2022-11-12T09:34:00Z</time>
      </trkpt>
      <trkpt lat="47.8526" lon="-4.03346">
        <ele>3.3</ele>
        <time>2022-11-12T09:34:01Z</time>
      </trkpt>
      <trkpt lat="47.85253" lon="-4.03346">
        <ele>3.3</ele>
        <time>2022-11-12T09:34:02Z</time>
      </trkpt>
      <trkpt lat="47.85246" lon="-4.03348">
        <ele>3.2</ele>
        <time>2022-11-12T09:34:03Z</time>
      </trkpt>
      <trkpt lat="47.85239" lon="-4.03348">
        <ele>3.2</ele>
        <time>2022-11-12T09:34:04Z</time>
      </trkpt>
      <trkpt lat="47.85232" lon="-4.0335">
        <ele>3.2</ele>
        <time>2022-11-12T09:34:05Z</time>
      </trkpt>
      <trkpt lat="47.85225" lon="-4.0335">
        <ele>3.3</ele>
        <time>2022-11-12T09:34:06Z</time>
      </trkpt>
      <trkpt lat="47.85219" lon="-4.03351">
        <ele>3.3</ele>
        <time>2022-11-12T09:34:07Z</time>
      </trkpt>
      <trkpt lat="47.85212" lon="-4.03352">
        <ele>3.3</ele>
        <time>2022-11-12T09:34:08Z</time>
      </trkpt>
      <trkpt lat="47.85206" lon="-4.03351">
        <ele>3.4</ele>
        <time>2022-11-12T09:34:09Z</time>
      </trkpt>
      <trkpt lat="47.85199" lon="-4.0335">
        <ele>3.4</ele>
        <time>2022-11-12T09:34:10Z</time>
      </trkpt>
      <trkpt lat="47.85193" lon="-4.03349">
        <ele>3.4</ele>
        <time>2022-11-12T09:34:11Z</time>
      </trkpt>
      <trkpt lat="47.85186" lon="-4.03348">
        <ele>3.5</ele>
        <time>2022-11-12T09:34:12Z</time>
      </trkpt>
      <trkpt lat="47.8518" lon="-4.03347">
        <ele>3.5</ele>
        <time>2022-11-12T09:34:13Z</time>
      </trkpt>
      <trkpt lat="47.85174" lon="-4.03347">
        <ele>3.5</ele>
        <time>2022-11-12T09:34:14Z</time>
      </trkpt>
      <trkpt lat="47.85168" lon="-4.03346">
        <ele>3.5</ele>
        <time>2022-11-12T09:34:15Z</time>
      </trkpt>
      <trkpt lat="47.85162" lon="-4.03345">
        <ele>3.6</ele>
        <time>2022-11-12T09:34:16Z</time>
      </trkpt>
      <trkpt lat="47.85155" lon="-4.03344">
        <ele>3.6</ele>
        <time>2022-11-12T09:34:17Z</time>
      </trkpt>
      <trkpt lat="47.85149" lon="-4.03343">
        <ele>3.7</ele>
        <time>2022-11-12T09:34:18Z</time>
      </trkpt>
      <trkpt lat="47.85142" lon="-4.03344">
        <ele>3.7</ele>
        <time>2022-11-12T09:34:19Z</time>
      </trkpt>
      <trkpt lat="47.85136" lon="-4.03346">
        <ele>3.8</ele>
        <time>2022-11-12T09:34:20Z</time>
      </trkpt>
      <trkpt lat="47.8513" lon="-4.0335">
        <ele>3.8</ele>
        <time>2022-11-12T09:34:21Z</time>
      </trkpt>
      <trkpt lat="47.85125" lon="-4.03356">
        <ele>3.8</ele>
        <time>2022-11-12T09:34:22Z</time>
      </trkpt>
      <trkpt lat="47.85121" lon="-4.03363">
        <ele>3.8</ele>
        <time>2022-11-12T09:34:23Z</time>
      </trkpt>
      <trkpt lat="47.85117" lon="-4.03371">
        <ele>3.8</ele>
        <time>2022-11-12T09:34:24Z</time>
      </trkpt>
      <trkpt lat="47.85114" lon="-4.03379">
        <ele>3.8</ele>
        <time>2022-11-12T09:34:25Z</time>
      </trkpt>
      <trkpt lat="47.85111" lon="-4.03387">
        <ele>3.8</ele>
        <time>2022-11-12T09:34:26Z</time>
      </trkpt>
      <trkpt lat="47.85108" lon="-4.03395">
        <ele>3.8</ele>
        <time>2022-11-12T09:34:27Z</time>
      </trkpt>
      <trkpt lat="47.85105" lon="-4.03404">
        <ele>3.8</ele>
        <time>2022-11-12T09:34:28Z</time>
      </trkpt>
      <trkpt lat="47.85104" lon="-4.03413">
        <ele>3.9</ele>
        <time>2022-11-12T09:34:29Z</time>
      </trkpt>
      <trkpt lat="47.85101" lon="-4.03422">
        <ele>3.9</ele>
        <time>2022-11-12T09:34:30Z</time>
      </trkpt>
      <trkpt lat="47.85098" lon="-4.0343">
        <ele>3.9</ele>
        <time>2022-11-12T09:34:31Z</time>
      </trkpt>
      <trkpt lat="47.85096" lon="-4.03439">
        <ele>3.9</ele>
        <time>2022-11-12T09:34:32Z</time>
      </trkpt>
      <trkpt lat="47.85094" lon="-4.03448">
        <ele>3.9</ele>
        <time>2022-11-12T09:34:33Z</time>
      </trkpt>
      <trkpt lat="47.85092" lon="-4.03457">
        <ele>3.9</ele>
        <time>2022-11-12T09:34:34Z</time>
      </trkpt>
      <trkpt lat="47.8509" lon="-4.03466">
        <ele>4</ele>
        <time>2022-11-12T09:34:35Z</time>
      </trkpt>
      <trkpt lat="47.85088" lon="-4.03474">
        <ele>4</ele>
        <time>2022-11-12T09:34:36Z</time>
      </trkpt>
      <trkpt lat="47.85086" lon="-4.03483">
        <ele>4</ele>
        <time>2022-11-12T09:34:37Z</time>
      </trkpt>
      <trkpt lat="47.85085" lon="-4.03492">
        <ele>4</ele>
        <time>2022-11-12T09:34:38Z</time>
      </trkpt>
      <trkpt lat="47.85084" lon="-4.03501">
        <ele>4</ele>
        <time>2022-11-12T09:34:39Z</time>
      </trkpt>
      <trkpt lat="47.85082" lon="-4.03511">
        <ele>4</ele>
        <time>2022-11-12T09:34:40Z</time>
      </trkpt>
      <trkpt lat="47.85081" lon="-4.0352">
        <ele>3.9</ele>
        <time>2022-11-12T09:34:41Z</time>
      </trkpt>
      <trkpt lat="47.85081" lon="-4.0353">
        <ele>3.9</ele>
        <time>2022-11-12T09:34:42Z</time>
      </trkpt>
      <trkpt lat="47.85081" lon="-4.03539">
        <ele>3.9</ele>
        <time>2022-11-12T09:34:43Z</time>
      </trkpt>
      <trkpt lat="47.85081" lon="-4.03549">
        <ele>3.9</ele>
        <time>2022-11-12T09:34:44Z</time>
      </trkpt>
      <trkpt lat="47.85082" lon="-4.03559">
        <ele>3.8</ele>
        <time>2022-11-12T09:34:45Z</time>
      </trkpt>
      <trkpt lat="47.85083" lon="-4.03568">
        <ele>3.8</ele>
        <time>2022-11-12T09:34:46Z</time>
      </trkpt>
      <trkpt lat="47.85084" lon="-4.03577">
        <ele>3.8</ele>
        <time>2022-11-12T09:34:47Z</time>
      </trkpt>
      <trkpt lat="47.85085" lon="-4.03582">
        <ele>3.8</ele>
        <time>2022-11-12T09:34:48Z</time>
      </trkpt>
      <trkpt lat="47.85085" lon="-4.03585">
        <ele>3.7</ele>
        <time>2022-11-12T09:34:49Z</time>
      </trkpt>
      <trkpt lat="47.85085" lon="-4.03586">
        <ele>3.7</ele>
        <time>2022-11-12T09:34:50Z</time>
      </trkpt>
      <trkpt lat="47.85085" lon="-4.03588">
        <ele>3.7</ele>
        <time>2022-11-12T09:34:51Z</time>
      </trkpt>
      <trkpt lat="47.85085" lon="-4.03593">
        <ele>3.7</ele>
        <time>2022-11-12T09:34:52Z</time>
      </trkpt>
      <trkpt lat="47.85085" lon="-4.03595">
        <ele>3.7</ele>
        <time>2022-11-12T09:34:53Z</time>
      </trkpt>
      <trkpt lat="47.85086" lon="-4.03602">
        <ele>3.7</ele>
        <time>2022-11-12T09:34:54Z</time>
      </trkpt>
      <trkpt lat="47.85086" lon="-4.03606">
        <ele>3.7</ele>
        <time>2022-11-12T09:34:55Z</time>
      </trkpt>
      <trkpt lat="47.85088" lon="-4.03611">
        <ele>3.6</ele>
        <time>2022-11-12T09:34:57Z</time>
      </trkpt>
      <trkpt lat="47.85089" lon="-4.03628">
        <ele>3.6</ele>
        <time>2022-11-12T09:34:58Z</time>
      </trkpt>
      <trkpt lat="47.8509" lon="-4.03636">
        <ele>3.6</ele>
        <time>2022-11-12T09:34:59Z</time>
      </trkpt>
      <trkpt lat="47.85091" lon="-4.03644">
        <ele>3.6</ele>
        <time>2022-11-12T09:35:00Z</time>
      </trkpt>
      <trkpt lat="47.85093" lon="-4.03652">
        <ele>3.6</ele>
        <time>2022-11-12T09:35:01Z</time>
      </trkpt>
      <trkpt lat="47.85094" lon="-4.0366">
        <ele>3.6</ele>
        <time>2022-11-12T09:35:02Z</time>
      </trkpt>
      <trkpt lat="47.85095" lon="-4.03668">
        <ele>3.6</ele>
        <time>2022-11-12T09:35:03Z</time>
      </trkpt>
      <trkpt lat="47.85096" lon="-4.03677">
        <ele>3.6</ele>
        <time>2022-11-12T09:35:04Z</time>
      </trkpt>
      <trkpt lat="47.85098" lon="-4.03684">
        <ele>3.6</ele>
        <time>2022-11-12T09:35:05Z</time>
      </trkpt>
      <trkpt lat="47.851" lon="-4.03692">
        <ele>3.6</ele>
        <time>2022-11-12T09:35:06Z</time>
      </trkpt>
      <trkpt lat="47.85102" lon="-4.037">
        <ele>3.6</ele>
        <time>2022-11-12T09:35:07Z</time>
      </trkpt>
      <trkpt lat="47.85103" lon="-4.03709">
        <ele>3.6</ele>
        <time>2022-11-12T09:35:08Z</time>
      </trkpt>
      <trkpt lat="47.85102" lon="-4.03717">
        <ele>3.6</ele>
        <time>2022-11-12T09:35:09Z</time>
      </trkpt>
      <trkpt lat="47.85098" lon="-4.03723">
        <ele>3.6</ele>
        <time>2022-11-12T09:35:10Z</time>
      </trkpt>
      <trkpt lat="47.85092" lon="-4.03725">
        <ele>3.6</ele>
        <time>2022-11-12T09:35:11Z</time>
      </trkpt>
      <trkpt lat="47.85087" lon="-4.03726">
        <ele>3.6</ele>
        <time>2022-11-12T09:35:12Z</time>
      </trkpt>
      <trkpt lat="47.85081" lon="-4.03726">
        <ele>3.6</ele>
        <time>2022-11-12T09:35:13Z</time>
      </trkpt>
      <trkpt lat="47.85076" lon="-4.03727">
        <ele>3.7</ele>
        <time>2022-11-12T09:35:14Z</time>
      </trkpt>
      <trkpt lat="47.8507" lon="-4.03727">
        <ele>3.7</ele>
        <time>2022-11-12T09:35:15Z</time>
      </trkpt>
      <trkpt lat="47.85064" lon="-4.03726">
        <ele>3.7</ele>
        <time>2022-11-12T09:35:16Z</time>
      </trkpt>
      <trkpt lat="47.85058" lon="-4.03726">
        <ele>3.6</ele>
        <time>2022-11-12T09:35:17Z</time>
      </trkpt>
      <trkpt lat="47.85053" lon="-4.03725">
        <ele>3.6</ele>
        <time>2022-11-12T09:35:18Z</time>
      </trkpt>
      <trkpt lat="47.85047" lon="-4.03725">
        <ele>3.6</ele>
        <time>2022-11-12T09:35:19Z</time>
      </trkpt>
      <trkpt lat="47.85041" lon="-4.03724">
        <ele>3.6</ele>
        <time>2022-11-12T09:35:20Z</time>
      </trkpt>
      <trkpt lat="47.85035" lon="-4.03723">
        <ele>3.6</ele>
        <time>2022-11-12T09:35:21Z</time>
      </trkpt>
      <trkpt lat="47.85029" lon="-4.03723">
        <ele>3.6</ele>
        <time>2022-11-12T09:35:22Z</time>
      </trkpt>
      <trkpt lat="47.85023" lon="-4.03723">
        <ele>3.5</ele>
        <time>2022-11-12T09:35:23Z</time>
      </trkpt>
      <trkpt lat="47.85016" lon="-4.03723">
        <ele>3.5</ele>
        <time>2022-11-12T09:35:24Z</time>
      </trkpt>
      <trkpt lat="47.8501" lon="-4.03723">
        <ele>3.5</ele>
        <time>2022-11-12T09:35:25Z</time>
      </trkpt>
      <trkpt lat="47.85004" lon="-4.03723">
        <ele>3.5</ele>
        <time>2022-11-12T09:35:26Z</time>
      </trkpt>
      <trkpt lat="47.84998" lon="-4.03723">
        <ele>3.5</ele>
        <time>2022-11-12T09:35:27Z</time>
      </trkpt>
      <trkpt lat="47.84991" lon="-4.03723">
        <ele>3.5</ele>
        <time>2022-11-12T09:35:28Z</time>
      </trkpt>
      <trkpt lat="47.84985" lon="-4.03723">
        <ele>3.5</ele>
        <time>2022-11-12T09:35:29Z</time>
      </trkpt>
      <trkpt lat="47.84979" lon="-4.03722">
        <ele>3.5</ele>
        <time>2022-11-12T09:35:30Z</time>
      </trkpt>
      <trkpt lat="47.84973" lon="-4.03721">
        <ele>3.5</ele>
        <time>2022-11-12T09:35:31Z</time>
      </trkpt>
      <trkpt lat="47.84967" lon="-4.03719">
        <ele>3.5</ele>
        <time>2022-11-12T09:35:32Z</time>
      </trkpt>
      <trkpt lat="47.8496" lon="-4.03718">
        <ele>3.6</ele>
        <time>2022-11-12T09:35:33Z</time>
      </trkpt>
      <trkpt lat="47.84954" lon="-4.03716">
        <ele>3.6</ele>
        <time>2022-11-12T09:35:34Z</time>
      </trkpt>
      <trkpt lat="47.84949" lon="-4.03715">
        <ele>3.7</ele>
        <time>2022-11-12T09:35:35Z</time>
      </trkpt>
      <trkpt lat="47.84943" lon="-4.03714">
        <ele>3.8</ele>
        <time>2022-11-12T09:35:36Z</time>
      </trkpt>
      <trkpt lat="47.84938" lon="-4.03713">
        <ele>3.9</ele>
        <time>2022-11-12T09:35:37Z</time>
      </trkpt>
      <trkpt lat="47.84932" lon="-4.03712">
        <ele>4</ele>
        <time>2022-11-12T09:35:38Z</time>
      </trkpt>
      <trkpt lat="47.84926" lon="-4.0371">
        <ele>4.1</ele>
        <time>2022-11-12T09:35:39Z</time>
      </trkpt>
      <trkpt lat="47.84921" lon="-4.03709">
        <ele>4.2</ele>
        <time>2022-11-12T09:35:40Z</time>
      </trkpt>
      <trkpt lat="47.84915" lon="-4.03707">
        <ele>4.3</ele>
        <time>2022-11-12T09:35:41Z</time>
      </trkpt>
      <trkpt lat="47.8491" lon="-4.03705">
        <ele>4.4</ele>
        <time>2022-11-12T09:35:42Z</time>
      </trkpt>
      <trkpt lat="47.84904" lon="-4.03702">
        <ele>4.5</ele>
        <time>2022-11-12T09:35:43Z</time>
      </trkpt>
      <trkpt lat="47.84899" lon="-4.03699">
        <ele>4.6</ele>
        <time>2022-11-12T09:35:44Z</time>
      </trkpt>
      <trkpt lat="47.84893" lon="-4.03695">
        <ele>4.6</ele>
        <time>2022-11-12T09:35:45Z</time>
      </trkpt>
      <trkpt lat="47.84887" lon="-4.03691">
        <ele>4.6</ele>
        <time>2022-11-12T09:35:46Z</time>
      </trkpt>
      <trkpt lat="47.84882" lon="-4.03687">
        <ele>4.6</ele>
        <time>2022-11-12T09:35:47Z</time>
      </trkpt>
      <trkpt lat="47.84876" lon="-4.03683">
        <ele>4.6</ele>
        <time>2022-11-12T09:35:48Z</time>
      </trkpt>
      <trkpt lat="47.8487" lon="-4.03679">
        <ele>4.5</ele>
        <time>2022-11-12T09:35:49Z</time>
      </trkpt>
      <trkpt lat="47.84865" lon="-4.03674">
        <ele>4.5</ele>
        <time>2022-11-12T09:35:50Z</time>
      </trkpt>
      <trkpt lat="47.8486" lon="-4.0367">
        <ele>4.4</ele>
        <time>2022-11-12T09:35:51Z</time>
      </trkpt>
      <trkpt lat="47.84854" lon="-4.03666">
        <ele>4.4</ele>
        <time>2022-11-12T09:35:52Z</time>
      </trkpt>
      <trkpt lat="47.84849" lon="-4.03661">
        <ele>4.3</ele>
        <time>2022-11-12T09:35:53Z</time>
      </trkpt>
      <trkpt lat="47.84844" lon="-4.03657">
        <ele>4.3</ele>
        <time>2022-11-12T09:35:54Z</time>
      </trkpt>
      <trkpt lat="47.84839" lon="-4.03653">
        <ele>4.3</ele>
        <time>2022-11-12T09:35:55Z</time>
      </trkpt>
      <trkpt lat="47.84834" lon="-4.03648">
        <ele>4.3</ele>
        <time>2022-11-12T09:35:56Z</time>
      </trkpt>
      <trkpt lat="47.84829" lon="-4.03643">
        <ele>4.3</ele>
        <time>2022-11-12T09:35:57Z</time>
      </trkpt>
      <trkpt lat="47.84825" lon="-4.03638">
        <ele>4.3</ele>
        <time>2022-11-12T09:35:58Z</time>
      </trkpt>
      <trkpt lat="47.8482" lon="-4.03633">
        <ele>4.3</ele>
        <time>2022-11-12T09:35:59Z</time>
      </trkpt>
      <trkpt lat="47.84815" lon="-4.03628">
        <ele>4.5</ele>
        <time>2022-11-12T09:36:00Z</time>
      </trkpt>
      <trkpt lat="47.84811" lon="-4.03623">
        <ele>4.6</ele>
        <time>2022-11-12T09:36:01Z</time>
      </trkpt>
      <trkpt lat="47.84807" lon="-4.03618">
        <ele>4.7</ele>
        <time>2022-11-12T09:36:02Z</time>
      </trkpt>
      <trkpt lat="47.84803" lon="-4.03613">
        <ele>4.9</ele>
        <time>2022-11-12T09:36:03Z</time>
      </trkpt>
      <trkpt lat="47.84799" lon="-4.03609">
        <ele>5</ele>
        <time>2022-11-12T09:36:04Z</time>
      </trkpt>
      <trkpt lat="47.84796" lon="-4.03605">
        <ele>5.2</ele>
        <time>2022-11-12T09:36:05Z</time>
      </trkpt>
      <trkpt lat="47.84792" lon="-4.03602">
        <ele>5.3</ele>
        <time>2022-11-12T09:36:06Z</time>
      </trkpt>
      <trkpt lat="47.8479" lon="-4.03601">
        <ele>5.4</ele>
        <time>2022-11-12T09:36:07Z</time>
      </trkpt>
      <trkpt lat="47.84786" lon="-4.036">
        <ele>5.5</ele>
        <time>2022-11-12T09:36:08Z</time>
      </trkpt>
      <trkpt lat="47.84783" lon="-4.03599">
        <ele>5.5</ele>
        <time>2022-11-12T09:36:09Z</time>
      </trkpt>
      <trkpt lat="47.8478" lon="-4.03601">
        <ele>5.6</ele>
        <time>2022-11-12T09:36:10Z</time>
      </trkpt>
      <trkpt lat="47.84779" lon="-4.03603">
        <ele>5.6</ele>
        <time>2022-11-12T09:36:11Z</time>
      </trkpt>
      <trkpt lat="47.84777" lon="-4.03605">
        <ele>5.7</ele>
        <time>2022-11-12T09:36:12Z</time>
      </trkpt>
      <trkpt lat="47.84777" lon="-4.03604">
        <ele>5.7</ele>
        <time>2022-11-12T09:36:14Z</time>
      </trkpt>
      <trkpt lat="47.84777" lon="-4.03605">
        <ele>5.7</ele>
        <time>2022-11-12T09:36:15Z</time>
      </trkpt>
      <trkpt lat="47.84777" lon="-4.03604">
        <ele>5.7</ele>
        <time>2022-11-12T09:36:17Z</time>
      </trkpt>
      <trkpt lat="47.84777" lon="-4.03604">
        <ele>5.7</ele>
        <time>2022-11-12T09:36:18Z</time>
      </trkpt>
      <trkpt lat="47.84777" lon="-4.03603">
        <ele>5.7</ele>
        <time>2022-11-12T09:36:19Z</time>
      </trkpt>
      <trkpt lat="47.84777" lon="-4.03603">
        <ele>5.7</ele>
        <time>2022-11-12T09:36:20Z</time>
      </trkpt>
      <trkpt lat="47.84777" lon="-4.03603">
        <ele>5.7</ele>
        <time>2022-11-12T09:36:22Z</time>
      </trkpt>
      <trkpt lat="47.84778" lon="-4.03602">
        <ele>5.7</ele>
        <time>2022-11-12T09:36:23Z</time>
      </trkpt>
      <trkpt lat="47.84778" lon="-4.03602">
        <ele>5.7</ele>
        <time>2022-11-12T09:36:24Z</time>
      </trkpt>
      <trkpt lat="47.84778" lon="-4.03602">
        <ele>5.7</ele>
        <time>2022-11-12T09:36:25Z</time>
      </trkpt>
      <trkpt lat="47.84778" lon="-4.03602">
        <ele>5.7</ele>
        <time>2022-11-12T09:36:27Z</time>
      </trkpt>
      <trkpt lat="47.84778" lon="-4.03601">
        <ele>5.7</ele>
        <time>2022-11-12T09:36:28Z</time>
      </trkpt>
      <trkpt lat="47.84778" lon="-4.03601">
        <ele>5.7</ele>
        <time>2022-11-12T09:36:29Z</time>
      </trkpt>
      <trkpt lat="47.84779" lon="-4.03601">
        <ele>5.7</ele>
        <time>2022-11-12T09:36:30Z</time>
      </trkpt>
      <trkpt lat="47.84779" lon="-4.036">
        <ele>5.7</ele>
        <time>2022-11-12T09:36:31Z</time>
      </trkpt>
      <trkpt lat="47.84779" lon="-4.03601">
        <ele>5.7</ele>
        <time>2022-11-12T09:36:32Z</time>
      </trkpt>
      <trkpt lat="47.84779" lon="-4.03601">
        <ele>5.7</ele>
        <time>2022-11-12T09:36:33Z</time>
      </trkpt>
      <trkpt lat="47.84779" lon="-4.03601">
        <ele>5.7</ele>
        <time>2022-11-12T09:36:34Z</time>
      </trkpt>
      <trkpt lat="47.84779" lon="-4.03602">
        <ele>5.7</ele>
        <time>2022-11-12T09:36:35Z</time>
      </trkpt>
      <trkpt lat="47.84779" lon="-4.03602">
        <ele>5.7</ele>
        <time>2022-11-12T09:36:36Z</time>
      </trkpt>
      <trkpt lat="47.84779" lon="-4.03602">
        <ele>5.7</ele>
        <time>2022-11-12T09:36:37Z</time>
      </trkpt>
      <trkpt lat="47.84779" lon="-4.03603">
        <ele>5.7</ele>
        <time>2022-11-12T09:36:38Z</time>
      </trkpt>
      <trkpt lat="47.84779" lon="-4.03603">
        <ele>5.7</ele>
        <time>2022-11-12T09:36:39Z</time>
      </trkpt>
      <trkpt lat="47.84779" lon="-4.03603">
        <ele>5.7</ele>
        <time>2022-11-12T09:36:40Z</time>
      </trkpt>
      <trkpt lat="47.84779" lon="-4.03603">
        <ele>5.7</ele>
        <time>2022-11-12T09:36:41Z</time>
      </trkpt>
      <trkpt lat="47.84778" lon="-4.03602">
        <ele>5.8</ele>
        <time>2022-11-12T09:36:42Z</time>
      </trkpt>
      <trkpt lat="47.84778" lon="-4.03602">
        <ele>5.8</ele>
        <time>2022-11-12T09:36:43Z</time>
      </trkpt>
      <trkpt lat="47.84778" lon="-4.03602">
        <ele>5.8</ele>
        <time>2022-11-12T09:36:44Z</time>
      </trkpt>
      <trkpt lat="47.84779" lon="-4.03602">
        <ele>5.8</ele>
        <time>2022-11-12T09:36:45Z</time>
      </trkpt>
      <trkpt lat="47.84779" lon="-4.03603">
        <ele>5.8</ele>
        <time>2022-11-12T09:36:46Z</time>
      </trkpt>
      <trkpt lat="47.84779" lon="-4.03603">
        <ele>5.8</ele>
        <time>2022-11-12T09:36:47Z</time>
      </trkpt>
      <trkpt lat="47.84779" lon="-4.03603">
        <ele>5.8</ele>
        <time>2022-11-12T09:36:48Z</time>
      </trkpt>
      <trkpt lat="47.84779" lon="-4.03603">
        <ele>5.8</ele>
        <time>2022-11-12T09:36:49Z</time>
      </trkpt>
      <trkpt lat="47.84776" lon="-4.03606">
        <ele>5.8</ele>
        <time>2022-11-12T09:36:52Z</time>
      </trkpt>
      <trkpt lat="47.84776" lon="-4.03606">
        <ele>5.8</ele>
        <time>2022-11-12T09:36:53Z</time>
      </trkpt>
      <trkpt lat="47.84775" lon="-4.03607">
        <ele>5.8</ele>
        <time>2022-11-12T09:36:54Z</time>
      </trkpt>
      <trkpt lat="47.84775" lon="-4.03607">
        <ele>5.8</ele>
        <time>2022-11-12T09:36:55Z</time>
      </trkpt>
      <trkpt lat="47.84776" lon="-4.03607">
        <ele>5.8</ele>
        <time>2022-11-12T09:36:56Z</time>
      </trkpt>
      <trkpt lat="47.84776" lon="-4.03607">
        <ele>5.8</ele>
        <time>2022-11-12T09:36:57Z</time>
      </trkpt>
      <trkpt lat="47.84777" lon="-4.03608">
        <ele>5.8</ele>
        <time>2022-11-12T09:36:58Z</time>
      </trkpt>
      <trkpt lat="47.84778" lon="-4.03609">
        <ele>5.8</ele>
        <time>2022-11-12T09:36:59Z</time>
      </trkpt>
      <trkpt lat="47.84778" lon="-4.0361">
        <ele>5.8</ele>
        <time>2022-11-12T09:37:00Z</time>
      </trkpt>
      <trkpt lat="47.84777" lon="-4.03612">
        <ele>5.8</ele>
        <time>2022-11-12T09:37:01Z</time>
      </trkpt>
      <trkpt lat="47.84777" lon="-4.03613">
        <ele>5.8</ele>
        <time>2022-11-12T09:37:02Z</time>
      </trkpt>
      <trkpt lat="47.84776" lon="-4.03615">
        <ele>5.8</ele>
        <time>2022-11-12T09:37:03Z</time>
      </trkpt>
      <trkpt lat="47.84776" lon="-4.03616">
        <ele>5.9</ele>
        <time>2022-11-12T09:37:04Z</time>
      </trkpt>
      <trkpt lat="47.84774" lon="-4.03623">
        <ele>5.9</ele>
        <time>2022-11-12T09:37:05Z</time>
      </trkpt>
      <trkpt lat="47.84766" lon="-4.03636">
        <ele>5.9</ele>
        <time>2022-11-12T09:37:07Z</time>
      </trkpt>
      <trkpt lat="47.84762" lon="-4.0364">
        <ele>5.9</ele>
        <time>2022-11-12T09:37:08Z</time>
      </trkpt>
      <trkpt lat="47.84757" lon="-4.03644">
        <ele>5.9</ele>
        <time>2022-11-12T09:37:09Z</time>
      </trkpt>
      <trkpt lat="47.84753" lon="-4.03649">
        <ele>5.9</ele>
        <time>2022-11-12T09:37:10Z</time>
      </trkpt>
      <trkpt lat="47.84749" lon="-4.03653">
        <ele>5.9</ele>
        <time>2022-11-12T09:37:11Z</time>
      </trkpt>
      <trkpt lat="47.84745" lon="-4.03659">
        <ele>5.8</ele>
        <time>2022-11-12T09:37:12Z</time>
      </trkpt>
      <trkpt lat="47.8474" lon="-4.03665">
        <ele>5.8</ele>
        <time>2022-11-12T09:37:13Z</time>
      </trkpt>
      <trkpt lat="47.84736" lon="-4.03671">
        <ele>5.8</ele>
        <time>2022-11-12T09:37:14Z</time>
      </trkpt>
      <trkpt lat="47.84732" lon="-4.03676">
        <ele>5.8</ele>
        <time>2022-11-12T09:37:15Z</time>
      </trkpt>
      <trkpt lat="47.84727" lon="-4.03682">
        <ele>5.8</ele>
        <time>2022-11-12T09:37:16Z</time>
      </trkpt>
      <trkpt lat="47.84723" lon="-4.03688">
        <ele>5.8</ele>
        <time>2022-11-12T09:37:17Z</time>
      </trkpt>
      <trkpt lat="47.84718" lon="-4.03694">
        <ele>5.8</ele>
        <time>2022-11-12T09:37:18Z</time>
      </trkpt>
      <trkpt lat="47.84714" lon="-4.037">
        <ele>5.8</ele>
        <time>2022-11-12T09:37:19Z</time>
      </trkpt>
      <trkpt lat="47.84709" lon="-4.03706">
        <ele>5.8</ele>
        <time>2022-11-12T09:37:20Z</time>
      </trkpt>
      <trkpt lat="47.84704" lon="-4.03711">
        <ele>5.8</ele>
        <time>2022-11-12T09:37:21Z</time>
      </trkpt>
      <trkpt lat="47.84699" lon="-4.03716">
        <ele>5.8</ele>
        <time>2022-11-12T09:37:22Z</time>
      </trkpt>
      <trkpt lat="47.84694" lon="-4.03721">
        <ele>5.8</ele>
        <time>2022-11-12T09:37:23Z</time>
      </trkpt>
      <trkpt lat="47.8469" lon="-4.03727">
        <ele>5.8</ele>
        <time>2022-11-12T09:37:24Z</time>
      </trkpt>
      <trkpt lat="47.84685" lon="-4.03732">
        <ele>5.8</ele>
        <time>2022-11-12T09:37:25Z</time>
      </trkpt>
      <trkpt lat="47.8468" lon="-4.03738">
        <ele>5.8</ele>
        <time>2022-11-12T09:37:26Z</time>
      </trkpt>
      <trkpt lat="47.84676" lon="-4.03744">
        <ele>5.8</ele>
        <time>2022-11-12T09:37:27Z</time>
      </trkpt>
      <trkpt lat="47.84672" lon="-4.03751">
        <ele>5.8</ele>
        <time>2022-11-12T09:37:28Z</time>
      </trkpt>
      <trkpt lat="47.84667" lon="-4.03757">
        <ele>5.8</ele>
        <time>2022-11-12T09:37:29Z</time>
      </trkpt>
      <trkpt lat="47.84662" lon="-4.03762">
        <ele>5.8</ele>
        <time>2022-11-12T09:37:30Z</time>
      </trkpt>
      <trkpt lat="47.84657" lon="-4.03768">
        <ele>5.8</ele>
        <time>2022-11-12T09:37:31Z</time>
      </trkpt>
      <trkpt lat="47.84653" lon="-4.03774">
        <ele>5.8</ele>
        <time>2022-11-12T09:37:32Z</time>
      </trkpt>
      <trkpt lat="47.84648" lon="-4.03781">
        <ele>5.8</ele>
        <time>2022-11-12T09:37:33Z</time>
      </trkpt>
      <trkpt lat="47.84643" lon="-4.03786">
        <ele>5.8</ele>
        <time>2022-11-12T09:37:34Z</time>
      </trkpt>
      <trkpt lat="47.84638" lon="-4.03793">
        <ele>5.8</ele>
        <time>2022-11-12T09:37:35Z</time>
      </trkpt>
      <trkpt lat="47.84633" lon="-4.03799">
        <ele>5.8</ele>
        <time>2022-11-12T09:37:36Z</time>
      </trkpt>
      <trkpt lat="47.84627" lon="-4.03805">
        <ele>5.8</ele>
        <time>2022-11-12T09:37:37Z</time>
      </trkpt>
      <trkpt lat="47.84622" lon="-4.03811">
        <ele>5.7</ele>
        <time>2022-11-12T09:37:38Z</time>
      </trkpt>
      <trkpt lat="47.84617" lon="-4.03817">
        <ele>5.7</ele>
        <time>2022-11-12T09:37:39Z</time>
      </trkpt>
      <trkpt lat="47.84612" lon="-4.03823">
        <ele>5.7</ele>
        <time>2022-11-12T09:37:40Z</time>
      </trkpt>
      <trkpt lat="47.84606" lon="-4.03828">
        <ele>5.7</ele>
        <time>2022-11-12T09:37:41Z</time>
      </trkpt>
      <trkpt lat="47.84601" lon="-4.03835">
        <ele>5.7</ele>
        <time>2022-11-12T09:37:42Z</time>
      </trkpt>
      <trkpt lat="47.84596" lon="-4.03842">
        <ele>5.7</ele>
        <time>2022-11-12T09:37:43Z</time>
      </trkpt>
      <trkpt lat="47.8459" lon="-4.03848">
        <ele>5.7</ele>
        <time>2022-11-12T09:37:44Z</time>
      </trkpt>
      <trkpt lat="47.84585" lon="-4.03854">
        <ele>5.7</ele>
        <time>2022-11-12T09:37:45Z</time>
      </trkpt>
      <trkpt lat="47.8458" lon="-4.03861">
        <ele>6</ele>
        <time>2022-11-12T09:37:46Z</time>
      </trkpt>
      <trkpt lat="47.84575" lon="-4.03867">
        <ele>6</ele>
        <time>2022-11-12T09:37:47Z</time>
      </trkpt>
      <trkpt lat="47.84571" lon="-4.03873">
        <ele>6</ele>
        <time>2022-11-12T09:37:48Z</time>
      </trkpt>
      <trkpt lat="47.84566" lon="-4.0388">
        <ele>6</ele>
        <time>2022-11-12T09:37:49Z</time>
      </trkpt>
      <trkpt lat="47.84561" lon="-4.03886">
        <ele>6</ele>
        <time>2022-11-12T09:37:50Z</time>
      </trkpt>
      <trkpt lat="47.84556" lon="-4.03893">
        <ele>6</ele>
        <time>2022-11-12T09:37:51Z</time>
      </trkpt>
      <trkpt lat="47.84551" lon="-4.03899">
        <ele>6</ele>
        <time>2022-11-12T09:37:52Z</time>
      </trkpt>
      <trkpt lat="47.84546" lon="-4.03905">
        <ele>6</ele>
        <time>2022-11-12T09:37:53Z</time>
      </trkpt>
      <trkpt lat="47.84541" lon="-4.03912">
        <ele>6</ele>
        <time>2022-11-12T09:37:54Z</time>
      </trkpt>
      <trkpt lat="47.84536" lon="-4.03918">
        <ele>6</ele>
        <time>2022-11-12T09:37:55Z</time>
      </trkpt>
      <trkpt lat="47.84531" lon="-4.03924">
        <ele>6</ele>
        <time>2022-11-12T09:37:56Z</time>
      </trkpt>
      <trkpt lat="47.84526" lon="-4.03931">
        <ele>6</ele>
        <time>2022-11-12T09:37:57Z</time>
      </trkpt>
      <trkpt lat="47.84521" lon="-4.03937">
        <ele>6</ele>
        <time>2022-11-12T09:37:58Z</time>
      </trkpt>
      <trkpt lat="47.84516" lon="-4.03943">
        <ele>6</ele>
        <time>2022-11-12T09:37:59Z</time>
      </trkpt>
      <trkpt lat="47.84511" lon="-4.03949">
        <ele>5.9</ele>
        <time>2022-11-12T09:38:00Z</time>
      </trkpt>
      <trkpt lat="47.84505" lon="-4.03955">
        <ele>5.9</ele>
        <time>2022-11-12T09:38:01Z</time>
      </trkpt>
      <trkpt lat="47.845" lon="-4.03961">
        <ele>5.9</ele>
        <time>2022-11-12T09:38:02Z</time>
      </trkpt>
      <trkpt lat="47.84495" lon="-4.03968">
        <ele>5.9</ele>
        <time>2022-11-12T09:38:03Z</time>
      </trkpt>
      <trkpt lat="47.8449" lon="-4.03975">
        <ele>6</ele>
        <time>2022-11-12T09:38:04Z</time>
      </trkpt>
      <trkpt lat="47.84485" lon="-4.03982">
        <ele>6</ele>
        <time>2022-11-12T09:38:05Z</time>
      </trkpt>
      <trkpt lat="47.84481" lon="-4.03989">
        <ele>6</ele>
        <time>2022-11-12T09:38:06Z</time>
      </trkpt>
      <trkpt lat="47.84476" lon="-4.03996">
        <ele>6</ele>
        <time>2022-11-12T09:38:07Z</time>
      </trkpt>
      <trkpt lat="47.84472" lon="-4.04004">
        <ele>6</ele>
        <time>2022-11-12T09:38:08Z</time>
      </trkpt>
      <trkpt lat="47.84468" lon="-4.04013">
        <ele>6</ele>
        <time>2022-11-12T09:38:09Z</time>
      </trkpt>
      <trkpt lat="47.84465" lon="-4.04021">
        <ele>6</ele>
        <time>2022-11-12T09:38:10Z</time>
      </trkpt>
      <trkpt lat="47.84462" lon="-4.04031">
        <ele>6.1</ele>
        <time>2022-11-12T09:38:11Z</time>
      </trkpt>
      <trkpt lat="47.84462" lon="-4.04041">
        <ele>6.1</ele>
        <time>2022-11-12T09:38:12Z</time>
      </trkpt>
      <trkpt lat="47.84465" lon="-4.04051">
        <ele>6.2</ele>
        <time>2022-11-12T09:38:13Z</time>
      </trkpt>
      <trkpt lat="47.84469" lon="-4.04058">
        <ele>6.3</ele>
        <time>2022-11-12T09:38:14Z</time>
      </trkpt>
      <trkpt lat="47.84475" lon="-4.04064">
        <ele>6.4</ele>
        <time>2022-11-12T09:38:15Z</time>
      </trkpt>
      <trkpt lat="47.8448" lon="-4.0407">
        <ele>6.4</ele>
        <time>2022-11-12T09:38:16Z</time>
      </trkpt>
      <trkpt lat="47.84485" lon="-4.04076">
        <ele>6.5</ele>
        <time>2022-11-12T09:38:17Z</time>
      </trkpt>
      <trkpt lat="47.84489" lon="-4.04083">
        <ele>6.6</ele>
        <time>2022-11-12T09:38:18Z</time>
      </trkpt>
      <trkpt lat="47.84493" lon="-4.04089">
        <ele>6.6</ele>
        <time>2022-11-12T09:38:19Z</time>
      </trkpt>
      <trkpt lat="47.84498" lon="-4.04096">
        <ele>6.7</ele>
        <time>2022-11-12T09:38:20Z</time>
      </trkpt>
      <trkpt lat="47.84502" lon="-4.04102">
        <ele>6.8</ele>
        <time>2022-11-12T09:38:21Z</time>
      </trkpt>
      <trkpt lat="47.84507" lon="-4.04108">
        <ele>6.9</ele>
        <time>2022-11-12T09:38:22Z</time>
      </trkpt>
      <trkpt lat="47.84512" lon="-4.04114">
        <ele>6.9</ele>
        <time>2022-11-12T09:38:23Z</time>
      </trkpt>
      <trkpt lat="47.84517" lon="-4.0412">
        <ele>6.9</ele>
        <time>2022-11-12T09:38:24Z</time>
      </trkpt>
      <trkpt lat="47.84522" lon="-4.04125">
        <ele>7</ele>
        <time>2022-11-12T09:38:25Z</time>
      </trkpt>
      <trkpt lat="47.84528" lon="-4.04127">
        <ele>7</ele>
        <time>2022-11-12T09:38:26Z</time>
      </trkpt>
      <trkpt lat="47.84533" lon="-4.04129">
        <ele>7</ele>
        <time>2022-11-12T09:38:27Z</time>
      </trkpt>
      <trkpt lat="47.84538" lon="-4.04131">
        <ele>6.9</ele>
        <time>2022-11-12T09:38:28Z</time>
      </trkpt>
      <trkpt lat="47.84542" lon="-4.04133">
        <ele>6.9</ele>
        <time>2022-11-12T09:38:29Z</time>
      </trkpt>
      <trkpt lat="47.84544" lon="-4.04136">
        <ele>6.9</ele>
        <time>2022-11-12T09:38:30Z</time>
      </trkpt>
      <trkpt lat="47.84545" lon="-4.04141">
        <ele>6.8</ele>
        <time>2022-11-12T09:38:31Z</time>
      </trkpt>
      <trkpt lat="47.84545" lon="-4.04143">
        <ele>6.8</ele>
        <time>2022-11-12T09:38:32Z</time>
      </trkpt>
      <trkpt lat="47.84544" lon="-4.04145">
        <ele>6.7</ele>
        <time>2022-11-12T09:38:33Z</time>
      </trkpt>
      <trkpt lat="47.84544" lon="-4.04147">
        <ele>6.7</ele>
        <time>2022-11-12T09:38:34Z</time>
      </trkpt>
      <trkpt lat="47.84544" lon="-4.04148">
        <ele>6.7</ele>
        <time>2022-11-12T09:38:35Z</time>
      </trkpt>
      <trkpt lat="47.84544" lon="-4.04147">
        <ele>6.7</ele>
        <time>2022-11-12T09:38:36Z</time>
      </trkpt>
      <trkpt lat="47.84544" lon="-4.04147">
        <ele>6.7</ele>
        <time>2022-11-12T09:38:37Z</time>
      </trkpt>
      <trkpt lat="47.84544" lon="-4.04147">
        <ele>6.7</ele>
        <time>2022-11-12T09:38:38Z</time>
      </trkpt>
      <trkpt lat="47.84545" lon="-4.04146">
        <ele>6.7</ele>
        <time>2022-11-12T09:38:39Z</time>
      </trkpt>
      <trkpt lat="47.84545" lon="-4.04146">
        <ele>6.7</ele>
        <time>2022-11-12T09:38:40Z</time>
      </trkpt>
      <trkpt lat="47.84545" lon="-4.04146">
        <ele>6.7</ele>
        <time>2022-11-12T09:38:41Z</time>
      </trkpt>
      <trkpt lat="47.84545" lon="-4.04146">
        <ele>6.7</ele>
        <time>2022-11-12T09:38:42Z</time>
      </trkpt>
      <trkpt lat="47.84545" lon="-4.04145">
        <ele>6.7</ele>
        <time>2022-11-12T09:38:43Z</time>
      </trkpt>
      <trkpt lat="47.84545" lon="-4.04145">
        <ele>6.7</ele>
        <time>2022-11-12T09:38:44Z</time>
      </trkpt>
      <trkpt lat="47.84545" lon="-4.04145">
        <ele>6.7</ele>
        <time>2022-11-12T09:38:45Z</time>
      </trkpt>
      <trkpt lat="47.84545" lon="-4.04145">
        <ele>6.7</ele>
        <time>2022-11-12T09:38:46Z</time>
      </trkpt>
      <trkpt lat="47.84546" lon="-4.04144">
        <ele>6.7</ele>
        <time>2022-11-12T09:38:48Z</time>
      </trkpt>
      <trkpt lat="47.84546" lon="-4.04144">
        <ele>6.7</ele>
        <time>2022-11-12T09:38:49Z</time>
      </trkpt>
      <trkpt lat="47.84546" lon="-4.04144">
        <ele>6.7</ele>
        <time>2022-11-12T09:38:51Z</time>
      </trkpt>
      <trkpt lat="47.84546" lon="-4.04144">
        <ele>6.7</ele>
        <time>2022-11-12T09:38:52Z</time>
      </trkpt>
      <trkpt lat="47.84546" lon="-4.04143">
        <ele>6.6</ele>
        <time>2022-11-12T09:38:53Z</time>
      </trkpt>
      <trkpt lat="47.84546" lon="-4.04143">
        <ele>6.6</ele>
        <time>2022-11-12T09:38:54Z</time>
      </trkpt>
      <trkpt lat="47.84546" lon="-4.04143">
        <ele>6.6</ele>
        <time>2022-11-12T09:38:55Z</time>
      </trkpt>
      <trkpt lat="47.84546" lon="-4.04142">
        <ele>6.6</ele>
        <time>2022-11-12T09:38:56Z</time>
      </trkpt>
      <trkpt lat="47.84546" lon="-4.04142">
        <ele>6.6</ele>
        <time>2022-11-12T09:38:57Z</time>
      </trkpt>
      <trkpt lat="47.84546" lon="-4.04143">
        <ele>6.6</ele>
        <time>2022-11-12T09:38:58Z</time>
      </trkpt>
      <trkpt lat="47.84546" lon="-4.04143">
        <ele>6.6</ele>
        <time>2022-11-12T09:38:59Z</time>
      </trkpt>
      <trkpt lat="47.84545" lon="-4.04144">
        <ele>6.6</ele>
        <time>2022-11-12T09:39:00Z</time>
      </trkpt>
      <trkpt lat="47.84545" lon="-4.04144">
        <ele>6.6</ele>
        <time>2022-11-12T09:39:01Z</time>
      </trkpt>
      <trkpt lat="47.84545" lon="-4.04145">
        <ele>6.6</ele>
        <time>2022-11-12T09:39:02Z</time>
      </trkpt>
      <trkpt lat="47.84545" lon="-4.04145">
        <ele>6.5</ele>
        <time>2022-11-12T09:39:03Z</time>
      </trkpt>
      <trkpt lat="47.84544" lon="-4.04146">
        <ele>6.5</ele>
        <time>2022-11-12T09:39:04Z</time>
      </trkpt>
      <trkpt lat="47.84544" lon="-4.04147">
        <ele>6.5</ele>
        <time>2022-11-12T09:39:05Z</time>
      </trkpt>
      <trkpt lat="47.84544" lon="-4.04147">
        <ele>6.5</ele>
        <time>2022-11-12T09:39:06Z</time>
      </trkpt>
      <trkpt lat="47.84543" lon="-4.04148">
        <ele>6.5</ele>
        <time>2022-11-12T09:39:08Z</time>
      </trkpt>
      <trkpt lat="47.84543" lon="-4.04148">
        <ele>6.5</ele>
        <time>2022-11-12T09:39:09Z</time>
      </trkpt>
      <trkpt lat="47.84543" lon="-4.04149">
        <ele>6.5</ele>
        <time>2022-11-12T09:39:10Z</time>
      </trkpt>
      <trkpt lat="47.84543" lon="-4.04149">
        <ele>6.5</ele>
        <time>2022-11-12T09:39:11Z</time>
      </trkpt>
      <trkpt lat="47.84544" lon="-4.04149">
        <ele>6.4</ele>
        <time>2022-11-12T09:39:12Z</time>
      </trkpt>
      <trkpt lat="47.84545" lon="-4.04149">
        <ele>6.4</ele>
        <time>2022-11-12T09:39:13Z</time>
      </trkpt>
      <trkpt lat="47.84545" lon="-4.04149">
        <ele>6.4</ele>
        <time>2022-11-12T09:39:14Z</time>
      </trkpt>
      <trkpt lat="47.84545" lon="-4.04149">
        <ele>6.4</ele>
        <time>2022-11-12T09:39:15Z</time>
      </trkpt>
      <trkpt lat="47.84545" lon="-4.04149">
        <ele>6.4</ele>
        <time>2022-11-12T09:39:16Z</time>
      </trkpt>
      <trkpt lat="47.84544" lon="-4.04149">
        <ele>6.4</ele>
        <time>2022-11-12T09:39:17Z</time>
      </trkpt>
      <trkpt lat="47.84544" lon="-4.04149">
        <ele>6.4</ele>
        <time>2022-11-12T09:39:18Z</time>
      </trkpt>
      <trkpt lat="47.84544" lon="-4.04148">
        <ele>6.4</ele>
        <time>2022-11-12T09:39:19Z</time>
      </trkpt>
      <trkpt lat="47.84543" lon="-4.04145">
        <ele>6.3</ele>
        <time>2022-11-12T09:39:20Z</time>
      </trkpt>
      <trkpt lat="47.84547" lon="-4.04141">
        <ele>6.2</ele>
        <time>2022-11-12T09:39:21Z</time>
      </trkpt>
      <trkpt lat="47.84548" lon="-4.0414">
        <ele>6.1</ele>
        <time>2022-11-12T09:39:22Z</time>
      </trkpt>
      <trkpt lat="47.84552" lon="-4.04139">
        <ele>6</ele>
        <time>2022-11-12T09:39:23Z</time>
      </trkpt>
      <trkpt lat="47.84556" lon="-4.04139">
        <ele>5.9</ele>
        <time>2022-11-12T09:39:24Z</time>
      </trkpt>
      <trkpt lat="47.84564" lon="-4.04139">
        <ele>5.7</ele>
        <time>2022-11-12T09:39:26Z</time>
      </trkpt>
      <trkpt lat="47.84568" lon="-4.04139">
        <ele>5.6</ele>
        <time>2022-11-12T09:39:27Z</time>
      </trkpt>
      <trkpt lat="47.84575" lon="-4.04139">
        <ele>5.5</ele>
        <time>2022-11-12T09:39:28Z</time>
      </trkpt>
      <trkpt lat="47.84581" lon="-4.04139">
        <ele>5.3</ele>
        <time>2022-11-12T09:39:29Z</time>
      </trkpt>
      <trkpt lat="47.84588" lon="-4.04137">
        <ele>5.2</ele>
        <time>2022-11-12T09:39:30Z</time>
      </trkpt>
      <trkpt lat="47.84593" lon="-4.04135">
        <ele>5</ele>
        <time>2022-11-12T09:39:31Z</time>
      </trkpt>
      <trkpt lat="47.84599" lon="-4.04132">
        <ele>4.9</ele>
        <time>2022-11-12T09:39:32Z</time>
      </trkpt>
      <trkpt lat="47.84605" lon="-4.04131">
        <ele>4.8</ele>
        <time>2022-11-12T09:39:33Z</time>
      </trkpt>
      <trkpt lat="47.84611" lon="-4.0413">
        <ele>4.7</ele>
        <time>2022-11-12T09:39:34Z</time>
      </trkpt>
      <trkpt lat="47.84617" lon="-4.04128">
        <ele>4.6</ele>
        <time>2022-11-12T09:39:35Z</time>
      </trkpt>
      <trkpt lat="47.84623" lon="-4.04128">
        <ele>4.5</ele>
        <time>2022-11-12T09:39:36Z</time>
      </trkpt>
      <trkpt lat="47.84629" lon="-4.04126">
        <ele>4.5</ele>
        <time>2022-11-12T09:39:37Z</time>
      </trkpt>
      <trkpt lat="47.84634" lon="-4.04125">
        <ele>4.4</ele>
        <time>2022-11-12T09:39:38Z</time>
      </trkpt>
      <trkpt lat="47.8464" lon="-4.04123">
        <ele>4.4</ele>
        <time>2022-11-12T09:39:39Z</time>
      </trkpt>
      <trkpt lat="47.84646" lon="-4.04122">
        <ele>4.4</ele>
        <time>2022-11-12T09:39:40Z</time>
      </trkpt>
      <trkpt lat="47.84651" lon="-4.04125">
        <ele>4.4</ele>
        <time>2022-11-12T09:39:41Z</time>
      </trkpt>
      <trkpt lat="47.84655" lon="-4.0413">
        <ele>4.4</ele>
        <time>2022-11-12T09:39:42Z</time>
      </trkpt>
      <trkpt lat="47.8466" lon="-4.04137">
        <ele>4.4</ele>
        <time>2022-11-12T09:39:43Z</time>
      </trkpt>
      <trkpt lat="47.84664" lon="-4.04144">
        <ele>4.4</ele>
        <time>2022-11-12T09:39:44Z</time>
      </trkpt>
      <trkpt lat="47.84668" lon="-4.04151">
        <ele>4.4</ele>
        <time>2022-11-12T09:39:45Z</time>
      </trkpt>
      <trkpt lat="47.84672" lon="-4.04156">
        <ele>4.4</ele>
        <time>2022-11-12T09:39:46Z</time>
      </trkpt>
      <trkpt lat="47.84677" lon="-4.04162">
        <ele>4.4</ele>
        <time>2022-11-12T09:39:47Z</time>
      </trkpt>
      <trkpt lat="47.84681" lon="-4.04167">
        <ele>4.5</ele>
        <time>2022-11-12T09:39:48Z</time>
      </trkpt>
      <trkpt lat="47.84685" lon="-4.04174">
        <ele>4.5</ele>
        <time>2022-11-12T09:39:49Z</time>
      </trkpt>
      <trkpt lat="47.84689" lon="-4.0418">
        <ele>4.6</ele>
        <time>2022-11-12T09:39:50Z</time>
      </trkpt>
      <trkpt lat="47.84693" lon="-4.04187">
        <ele>4.7</ele>
        <time>2022-11-12T09:39:51Z</time>
      </trkpt>
      <trkpt lat="47.84697" lon="-4.04193">
        <ele>4.7</ele>
        <time>2022-11-12T09:39:52Z</time>
      </trkpt>
      <trkpt lat="47.84701" lon="-4.04198">
        <ele>4.8</ele>
        <time>2022-11-12T09:39:53Z</time>
      </trkpt>
      <trkpt lat="47.84705" lon="-4.04204">
        <ele>4.8</ele>
        <time>2022-11-12T09:39:54Z</time>
      </trkpt>
      <trkpt lat="47.84709" lon="-4.0421">
        <ele>4.9</ele>
        <time>2022-11-12T09:39:55Z</time>
      </trkpt>
      <trkpt lat="47.84713" lon="-4.04216">
        <ele>5</ele>
        <time>2022-11-12T09:39:56Z</time>
      </trkpt>
      <trkpt lat="47.84717" lon="-4.04222">
        <ele>5</ele>
        <time>2022-11-12T09:39:57Z</time>
      </trkpt>
      <trkpt lat="47.84721" lon="-4.04227">
        <ele>5</ele>
        <time>2022-11-12T09:39:58Z</time>
      </trkpt>
      <trkpt lat="47.84725" lon="-4.04232">
        <ele>5.1</ele>
        <time>2022-11-12T09:39:59Z</time>
      </trkpt>
      <trkpt lat="47.8473" lon="-4.04237">
        <ele>5.1</ele>
        <time>2022-11-12T09:40:00Z</time>
      </trkpt>
      <trkpt lat="47.84734" lon="-4.04242">
        <ele>5.1</ele>
        <time>2022-11-12T09:40:01Z</time>
      </trkpt>
      <trkpt lat="47.84737" lon="-4.04248">
        <ele>5.1</ele>
        <time>2022-11-12T09:40:02Z</time>
      </trkpt>
      <trkpt lat="47.84742" lon="-4.04254">
        <ele>5.2</ele>
        <time>2022-11-12T09:40:03Z</time>
      </trkpt>
      <trkpt lat="47.84745" lon="-4.0426">
        <ele>5.2</ele>
        <time>2022-11-12T09:40:04Z</time>
      </trkpt>
      <trkpt lat="47.84749" lon="-4.04265">
        <ele>5.2</ele>
        <time>2022-11-12T09:40:05Z</time>
      </trkpt>
      <trkpt lat="47.84753" lon="-4.04271">
        <ele>5.2</ele>
        <time>2022-11-12T09:40:06Z</time>
      </trkpt>
      <trkpt lat="47.84758" lon="-4.04276">
        <ele>5.3</ele>
        <time>2022-11-12T09:40:07Z</time>
      </trkpt>
      <trkpt lat="47.84762" lon="-4.04281">
        <ele>5.3</ele>
        <time>2022-11-12T09:40:08Z</time>
      </trkpt>
      <trkpt lat="47.84766" lon="-4.04288">
        <ele>5.3</ele>
        <time>2022-11-12T09:40:09Z</time>
      </trkpt>
      <trkpt lat="47.84771" lon="-4.04293">
        <ele>5.3</ele>
        <time>2022-11-12T09:40:10Z</time>
      </trkpt>
      <trkpt lat="47.84775" lon="-4.043">
        <ele>5.3</ele>
        <time>2022-11-12T09:40:11Z</time>
      </trkpt>
      <trkpt lat="47.84779" lon="-4.04306">
        <ele>5.4</ele>
        <time>2022-11-12T09:40:12Z</time>
      </trkpt>
      <trkpt lat="47.84784" lon="-4.04312">
        <ele>5.4</ele>
        <time>2022-11-12T09:40:13Z</time>
      </trkpt>
      <trkpt lat="47.84788" lon="-4.0432">
        <ele>5.5</ele>
        <time>2022-11-12T09:40:14Z</time>
      </trkpt>
      <trkpt lat="47.84791" lon="-4.04328">
        <ele>5.6</ele>
        <time>2022-11-12T09:40:15Z</time>
      </trkpt>
      <trkpt lat="47.84794" lon="-4.04337">
        <ele>5.7</ele>
        <time>2022-11-12T09:40:16Z</time>
      </trkpt>
      <trkpt lat="47.84797" lon="-4.04345">
        <ele>5.7</ele>
        <time>2022-11-12T09:40:17Z</time>
      </trkpt>
      <trkpt lat="47.84802" lon="-4.04351">
        <ele>5.8</ele>
        <time>2022-11-12T09:40:18Z</time>
      </trkpt>
      <trkpt lat="47.84807" lon="-4.04358">
        <ele>5.9</ele>
        <time>2022-11-12T09:40:19Z</time>
      </trkpt>
      <trkpt lat="47.84811" lon="-4.04365">
        <ele>5.9</ele>
        <time>2022-11-12T09:40:20Z</time>
      </trkpt>
      <trkpt lat="47.84816" lon="-4.04371">
        <ele>5.9</ele>
        <time>2022-11-12T09:40:21Z</time>
      </trkpt>
      <trkpt lat="47.84821" lon="-4.04378">
        <ele>6</ele>
        <time>2022-11-12T09:40:22Z</time>
      </trkpt>
      <trkpt lat="47.84826" lon="-4.04385">
        <ele>5.9</ele>
        <time>2022-11-12T09:40:23Z</time>
      </trkpt>
      <trkpt lat="47.84832" lon="-4.04391">
        <ele>5.9</ele>
        <time>2022-11-12T09:40:24Z</time>
      </trkpt>
      <trkpt lat="47.84837" lon="-4.04398">
        <ele>5.8</ele>
        <time>2022-11-12T09:40:25Z</time>
      </trkpt>
      <trkpt lat="47.84843" lon="-4.04404">
        <ele>5.8</ele>
        <time>2022-11-12T09:40:26Z</time>
      </trkpt>
      <trkpt lat="47.84849" lon="-4.0441">
        <ele>5.7</ele>
        <time>2022-11-12T09:40:27Z</time>
      </trkpt>
      <trkpt lat="47.84854" lon="-4.04416">
        <ele>5.6</ele>
        <time>2022-11-12T09:40:28Z</time>
      </trkpt>
      <trkpt lat="47.8486" lon="-4.04423">
        <ele>5.6</ele>
        <time>2022-11-12T09:40:29Z</time>
      </trkpt>
      <trkpt lat="47.84866" lon="-4.04429">
        <ele>5.5</ele>
        <time>2022-11-12T09:40:30Z</time>
      </trkpt>
      <trkpt lat="47.84872" lon="-4.04436">
        <ele>5.5</ele>
        <time>2022-11-12T09:40:31Z</time>
      </trkpt>
      <trkpt lat="47.84878" lon="-4.04442">
        <ele>5.4</ele>
        <time>2022-11-12T09:40:32Z</time>
      </trkpt>
      <trkpt lat="47.84883" lon="-4.04449">
        <ele>5.4</ele>
        <time>2022-11-12T09:40:33Z</time>
      </trkpt>
      <trkpt lat="47.84889" lon="-4.04456">
        <ele>5.3</ele>
        <time>2022-11-12T09:40:34Z</time>
      </trkpt>
      <trkpt lat="47.84894" lon="-4.04462">
        <ele>5.3</ele>
        <time>2022-11-12T09:40:35Z</time>
      </trkpt>
      <trkpt lat="47.849" lon="-4.04469">
        <ele>5.2</ele>
        <time>2022-11-12T09:40:36Z</time>
      </trkpt>
      <trkpt lat="47.84906" lon="-4.04475">
        <ele>5.2</ele>
        <time>2022-11-12T09:40:37Z</time>
      </trkpt>
      <trkpt lat="47.84912" lon="-4.04481">
        <ele>5.2</ele>
        <time>2022-11-12T09:40:38Z</time>
      </trkpt>
      <trkpt lat="47.84918" lon="-4.04486">
        <ele>5.1</ele>
        <time>2022-11-12T09:40:39Z</time>
      </trkpt>
      <trkpt lat="47.84925" lon="-4.04491">
        <ele>5</ele>
        <time>2022-11-12T09:40:40Z</time>
      </trkpt>
      <trkpt lat="47.84932" lon="-4.04495">
        <ele>4.9</ele>
        <time>2022-11-12T09:40:41Z</time>
      </trkpt>
      <trkpt lat="47.84939" lon="-4.04497">
        <ele>4.8</ele>
        <time>2022-11-12T09:40:42Z</time>
      </trkpt>
      <trkpt lat="47.84946" lon="-4.04498">
        <ele>4.8</ele>
        <time>2022-11-12T09:40:43Z</time>
      </trkpt>
      <trkpt lat="47.84953" lon="-4.04499">
        <ele>4.6</ele>
        <time>2022-11-12T09:40:44Z</time>
      </trkpt>
      <trkpt lat="47.8496" lon="-4.04502">
        <ele>4.6</ele>
        <time>2022-11-12T09:40:45Z</time>
      </trkpt>
      <trkpt lat="47.84967" lon="-4.04506">
        <ele>4.5</ele>
        <time>2022-11-12T09:40:46Z</time>
      </trkpt>
      <trkpt lat="47.84974" lon="-4.04511">
        <ele>4.4</ele>
        <time>2022-11-12T09:40:47Z</time>
      </trkpt>
      <trkpt lat="47.84981" lon="-4.04516">
        <ele>4.3</ele>
        <time>2022-11-12T09:40:48Z</time>
      </trkpt>
      <trkpt lat="47.84988" lon="-4.04522">
        <ele>4.3</ele>
        <time>2022-11-12T09:40:49Z</time>
      </trkpt>
      <trkpt lat="47.84994" lon="-4.04528">
        <ele>4.2</ele>
        <time>2022-11-12T09:40:50Z</time>
      </trkpt>
      <trkpt lat="47.85" lon="-4.04535">
        <ele>4.2</ele>
        <time>2022-11-12T09:40:51Z</time>
      </trkpt>
      <trkpt lat="47.85006" lon="-4.04541">
        <ele>4.2</ele>
        <time>2022-11-12T09:40:52Z</time>
      </trkpt>
      <trkpt lat="47.85011" lon="-4.04547">
        <ele>4.2</ele>
        <time>2022-11-12T09:40:53Z</time>
      </trkpt>
      <trkpt lat="47.85017" lon="-4.04552">
        <ele>4.2</ele>
        <time>2022-11-12T09:40:54Z</time>
      </trkpt>
      <trkpt lat="47.85023" lon="-4.04558">
        <ele>4.2</ele>
        <time>2022-11-12T09:40:55Z</time>
      </trkpt>
      <trkpt lat="47.85029" lon="-4.04563">
        <ele>4.2</ele>
        <time>2022-11-12T09:40:56Z</time>
      </trkpt>
      <trkpt lat="47.85035" lon="-4.0457">
        <ele>4.2</ele>
        <time>2022-11-12T09:40:57Z</time>
      </trkpt>
      <trkpt lat="47.8504" lon="-4.04576">
        <ele>4.2</ele>
        <time>2022-11-12T09:40:58Z</time>
      </trkpt>
      <trkpt lat="47.85046" lon="-4.04582">
        <ele>4.2</ele>
        <time>2022-11-12T09:40:59Z</time>
      </trkpt>
      <trkpt lat="47.85051" lon="-4.04589">
        <ele>4.3</ele>
        <time>2022-11-12T09:41:00Z</time>
      </trkpt>
      <trkpt lat="47.85056" lon="-4.04596">
        <ele>4.3</ele>
        <time>2022-11-12T09:41:01Z</time>
      </trkpt>
      <trkpt lat="47.85062" lon="-4.04603">
        <ele>4.3</ele>
        <time>2022-11-12T09:41:02Z</time>
      </trkpt>
      <trkpt lat="47.85067" lon="-4.0461">
        <ele>4.3</ele>
        <time>2022-11-12T09:41:03Z</time>
      </trkpt>
      <trkpt lat="47.85072" lon="-4.04616">
        <ele>4.3</ele>
        <time>2022-11-12T09:41:04Z</time>
      </trkpt>
      <trkpt lat="47.85077" lon="-4.04623">
        <ele>4.3</ele>
        <time>2022-11-12T09:41:05Z</time>
      </trkpt>
      <trkpt lat="47.85082" lon="-4.0463">
        <ele>4.3</ele>
        <time>2022-11-12T09:41:06Z</time>
      </trkpt>
      <trkpt lat="47.85086" lon="-4.04636">
        <ele>4.3</ele>
        <time>2022-11-12T09:41:07Z</time>
      </trkpt>
      <trkpt lat="47.85091" lon="-4.04643">
        <ele>4.3</ele>
        <time>2022-11-12T09:41:08Z</time>
      </trkpt>
      <trkpt lat="47.85096" lon="-4.0465">
        <ele>4.3</ele>
        <time>2022-11-12T09:41:09Z</time>
      </trkpt>
      <trkpt lat="47.85102" lon="-4.04654">
        <ele>4.3</ele>
        <time>2022-11-12T09:41:10Z</time>
      </trkpt>
      <trkpt lat="47.85109" lon="-4.04656">
        <ele>4.3</ele>
        <time>2022-11-12T09:41:11Z</time>
      </trkpt>
      <trkpt lat="47.85115" lon="-4.04659">
        <ele>4.2</ele>
        <time>2022-11-12T09:41:12Z</time>
      </trkpt>
      <trkpt lat="47.8512" lon="-4.04666">
        <ele>4.2</ele>
        <time>2022-11-12T09:41:13Z</time>
      </trkpt>
      <trkpt lat="47.85123" lon="-4.04675">
        <ele>4.2</ele>
        <time>2022-11-12T09:41:14Z</time>
      </trkpt>
      <trkpt lat="47.85125" lon="-4.04685">
        <ele>4.2</ele>
        <time>2022-11-12T09:41:15Z</time>
      </trkpt>
      <trkpt lat="47.85127" lon="-4.04695">
        <ele>4.2</ele>
        <time>2022-11-12T09:41:16Z</time>
      </trkpt>
      <trkpt lat="47.85131" lon="-4.04704">
        <ele>4.2</ele>
        <time>2022-11-12T09:41:17Z</time>
      </trkpt>
      <trkpt lat="47.85136" lon="-4.04711">
        <ele>4.2</ele>
        <time>2022-11-12T09:41:18Z</time>
      </trkpt>
      <trkpt lat="47.85141" lon="-4.04719">
        <ele>4.2</ele>
        <time>2022-11-12T09:41:19Z</time>
      </trkpt>
      <trkpt lat="47.85147" lon="-4.04726">
        <ele>4.2</ele>
        <time>2022-11-12T09:41:20Z</time>
      </trkpt>
      <trkpt lat="47.85152" lon="-4.04733">
        <ele>4.2</ele>
        <time>2022-11-12T09:41:21Z</time>
      </trkpt>
      <trkpt lat="47.85157" lon="-4.0474">
        <ele>4.2</ele>
        <time>2022-11-12T09:41:22Z</time>
      </trkpt>
      <trkpt lat="47.85162" lon="-4.04747">
        <ele>4.1</ele>
        <time>2022-11-12T09:41:23Z</time>
      </trkpt>
      <trkpt lat="47.85167" lon="-4.04755">
        <ele>4.1</ele>
        <time>2022-11-12T09:41:24Z</time>
      </trkpt>
      <trkpt lat="47.85173" lon="-4.04763">
        <ele>4.1</ele>
        <time>2022-11-12T09:41:25Z</time>
      </trkpt>
      <trkpt lat="47.85178" lon="-4.0477">
        <ele>4</ele>
        <time>2022-11-12T09:41:26Z</time>
      </trkpt>
      <trkpt lat="47.85183" lon="-4.04778">
        <ele>4</ele>
        <time>2022-11-12T09:41:27Z</time>
      </trkpt>
      <trkpt lat="47.85187" lon="-4.04785">
        <ele>4</ele>
        <time>2022-11-12T09:41:28Z</time>
      </trkpt>
      <trkpt lat="47.85192" lon="-4.04793">
        <ele>4</ele>
        <time>2022-11-12T09:41:29Z</time>
      </trkpt>
      <trkpt lat="47.85196" lon="-4.04801">
        <ele>4</ele>
        <time>2022-11-12T09:41:30Z</time>
      </trkpt>
      <trkpt lat="47.85201" lon="-4.04809">
        <ele>4</ele>
        <time>2022-11-12T09:41:31Z</time>
      </trkpt>
      <trkpt lat="47.85205" lon="-4.04816">
        <ele>4</ele>
        <time>2022-11-12T09:41:32Z</time>
      </trkpt>
      <trkpt lat="47.8521" lon="-4.04824">
        <ele>4</ele>
        <time>2022-11-12T09:41:33Z</time>
      </trkpt>
      <trkpt lat="47.85215" lon="-4.04832">
        <ele>3.9</ele>
        <time>2022-11-12T09:41:34Z</time>
      </trkpt>
      <trkpt lat="47.85219" lon="-4.0484">
        <ele>3.9</ele>
        <time>2022-11-12T09:41:35Z</time>
      </trkpt>
      <trkpt lat="47.85224" lon="-4.04847">
        <ele>3.9</ele>
        <time>2022-11-12T09:41:36Z</time>
      </trkpt>
      <trkpt lat="47.8523" lon="-4.04855">
        <ele>3.9</ele>
        <time>2022-11-12T09:41:37Z</time>
      </trkpt>
      <trkpt lat="47.85235" lon="-4.04863">
        <ele>3.9</ele>
        <time>2022-11-12T09:41:38Z</time>
      </trkpt>
      <trkpt lat="47.8524" lon="-4.0487">
        <ele>3.9</ele>
        <time>2022-11-12T09:41:39Z</time>
      </trkpt>
      <trkpt lat="47.85245" lon="-4.04877">
        <ele>3.9</ele>
        <time>2022-11-12T09:41:40Z</time>
      </trkpt>
      <trkpt lat="47.8525" lon="-4.04885">
        <ele>4</ele>
        <time>2022-11-12T09:41:41Z</time>
      </trkpt>
      <trkpt lat="47.85255" lon="-4.04893">
        <ele>4</ele>
        <time>2022-11-12T09:41:42Z</time>
      </trkpt>
      <trkpt lat="47.8526" lon="-4.049">
        <ele>4</ele>
        <time>2022-11-12T09:41:43Z</time>
      </trkpt>
      <trkpt lat="47.85265" lon="-4.04908">
        <ele>4</ele>
        <time>2022-11-12T09:41:44Z</time>
      </trkpt>
      <trkpt lat="47.8527" lon="-4.04915">
        <ele>4.1</ele>
        <time>2022-11-12T09:41:45Z</time>
      </trkpt>
      <trkpt lat="47.85276" lon="-4.04922">
        <ele>4.1</ele>
        <time>2022-11-12T09:41:46Z</time>
      </trkpt>
      <trkpt lat="47.85282" lon="-4.04929">
        <ele>4.1</ele>
        <time>2022-11-12T09:41:47Z</time>
      </trkpt>
      <trkpt lat="47.85288" lon="-4.04937">
        <ele>4.1</ele>
        <time>2022-11-12T09:41:48Z</time>
      </trkpt>
      <trkpt lat="47.85293" lon="-4.04945">
        <ele>4.1</ele>
        <time>2022-11-12T09:41:49Z</time>
      </trkpt>
      <trkpt lat="47.85298" lon="-4.04953">
        <ele>4.1</ele>
        <time>2022-11-12T09:41:50Z</time>
      </trkpt>
      <trkpt lat="47.85303" lon="-4.04962">
        <ele>4.1</ele>
        <time>2022-11-12T09:41:51Z</time>
      </trkpt>
      <trkpt lat="47.85309" lon="-4.04971">
        <ele>4.1</ele>
        <time>2022-11-12T09:41:52Z</time>
      </trkpt>
      <trkpt lat="47.85314" lon="-4.04979">
        <ele>4.1</ele>
        <time>2022-11-12T09:41:53Z</time>
      </trkpt>
      <trkpt lat="47.85319" lon="-4.04988">
        <ele>4</ele>
        <time>2022-11-12T09:41:54Z</time>
      </trkpt>
      <trkpt lat="47.85324" lon="-4.04997">
        <ele>4</ele>
        <time>2022-11-12T09:41:55Z</time>
      </trkpt>
      <trkpt lat="47.85329" lon="-4.05006">
        <ele>4.1</ele>
        <time>2022-11-12T09:41:56Z</time>
      </trkpt>
      <trkpt lat="47.85334" lon="-4.05015">
        <ele>4.1</ele>
        <time>2022-11-12T09:41:57Z</time>
      </trkpt>
      <trkpt lat="47.85339" lon="-4.05023">
        <ele>4.1</ele>
        <time>2022-11-12T09:41:58Z</time>
      </trkpt>
      <trkpt lat="47.85344" lon="-4.05032">
        <ele>4.2</ele>
        <time>2022-11-12T09:41:59Z</time>
      </trkpt>
      <trkpt lat="47.8535" lon="-4.0504">
        <ele>4.2</ele>
        <time>2022-11-12T09:42:00Z</time>
      </trkpt>
      <trkpt lat="47.85355" lon="-4.05048">
        <ele>4.3</ele>
        <time>2022-11-12T09:42:01Z</time>
      </trkpt>
      <trkpt lat="47.8536" lon="-4.05056">
        <ele>4.3</ele>
        <time>2022-11-12T09:42:02Z</time>
      </trkpt>
      <trkpt lat="47.85365" lon="-4.05064">
        <ele>4.3</ele>
        <time>2022-11-12T09:42:03Z</time>
      </trkpt>
      <trkpt lat="47.8537" lon="-4.05073">
        <ele>4.3</ele>
        <time>2022-11-12T09:42:04Z</time>
      </trkpt>
      <trkpt lat="47.85375" lon="-4.05082">
        <ele>4.3</ele>
        <time>2022-11-12T09:42:05Z</time>
      </trkpt>
      <trkpt lat="47.8538" lon="-4.0509">
        <ele>4.3</ele>
        <time>2022-11-12T09:42:06Z</time>
      </trkpt>
      <trkpt lat="47.85385" lon="-4.05099">
        <ele>4.2</ele>
        <time>2022-11-12T09:42:07Z</time>
      </trkpt>
      <trkpt lat="47.8539" lon="-4.05109">
        <ele>4.2</ele>
        <time>2022-11-12T09:42:08Z</time>
      </trkpt>
      <trkpt lat="47.85394" lon="-4.05119">
        <ele>4.1</ele>
        <time>2022-11-12T09:42:09Z</time>
      </trkpt>
      <trkpt lat="47.85398" lon="-4.05128">
        <ele>4.1</ele>
        <time>2022-11-12T09:42:10Z</time>
      </trkpt>
      <trkpt lat="47.85402" lon="-4.05138">
        <ele>4</ele>
        <time>2022-11-12T09:42:11Z</time>
      </trkpt>
      <trkpt lat="47.85406" lon="-4.05148">
        <ele>4</ele>
        <time>2022-11-12T09:42:12Z</time>
      </trkpt>
      <trkpt lat="47.85411" lon="-4.05157">
        <ele>4</ele>
        <time>2022-11-12T09:42:13Z</time>
      </trkpt>
      <trkpt lat="47.85415" lon="-4.05166">
        <ele>4</ele>
        <time>2022-11-12T09:42:14Z</time>
      </trkpt>
      <trkpt lat="47.85419" lon="-4.05175">
        <ele>4</ele>
        <time>2022-11-12T09:42:15Z</time>
      </trkpt>
      <trkpt lat="47.85422" lon="-4.05185">
        <ele>4.1</ele>
        <time>2022-11-12T09:42:16Z</time>
      </trkpt>
      <trkpt lat="47.85425" lon="-4.05194">
        <ele>4.1</ele>
        <time>2022-11-12T09:42:17Z</time>
      </trkpt>
      <trkpt lat="47.8543" lon="-4.052">
        <ele>4.1</ele>
        <time>2022-11-12T09:42:18Z</time>
      </trkpt>
      <trkpt lat="47.85436" lon="-4.05202">
        <ele>4.1</ele>
        <time>2022-11-12T09:42:19Z</time>
      </trkpt>
      <trkpt lat="47.85441" lon="-4.052">
        <ele>4.1</ele>
        <time>2022-11-12T09:42:20Z</time>
      </trkpt>
      <trkpt lat="47.85446" lon="-4.05194">
        <ele>4.1</ele>
        <time>2022-11-12T09:42:21Z</time>
      </trkpt>
      <trkpt lat="47.85449" lon="-4.05187">
        <ele>4.1</ele>
        <time>2022-11-12T09:42:22Z</time>
      </trkpt>
      <trkpt lat="47.85452" lon="-4.05179">
        <ele>4.1</ele>
        <time>2022-11-12T09:42:23Z</time>
      </trkpt>
      <trkpt lat="47.85453" lon="-4.05172">
        <ele>4.1</ele>
        <time>2022-11-12T09:42:24Z</time>
      </trkpt>
      <trkpt lat="47.85455" lon="-4.05165">
        <ele>4.1</ele>
        <time>2022-11-12T09:42:25Z</time>
      </trkpt>
      <trkpt lat="47.85457" lon="-4.05159">
        <ele>4</ele>
        <time>2022-11-12T09:42:26Z</time>
      </trkpt>
      <trkpt lat="47.85461" lon="-4.05154">
        <ele>4</ele>
        <time>2022-11-12T09:42:27Z</time>
      </trkpt>
      <trkpt lat="47.85466" lon="-4.05151">
        <ele>4</ele>
        <time>2022-11-12T09:42:28Z</time>
      </trkpt>
      <trkpt lat="47.85472" lon="-4.05149">
        <ele>4</ele>
        <time>2022-11-12T09:42:29Z</time>
      </trkpt>
      <trkpt lat="47.85478" lon="-4.05148">
        <ele>3.9</ele>
        <time>2022-11-12T09:42:30Z</time>
      </trkpt>
      <trkpt lat="47.85485" lon="-4.05146">
        <ele>3.9</ele>
        <time>2022-11-12T09:42:31Z</time>
      </trkpt>
      <trkpt lat="47.85491" lon="-4.05145">
        <ele>3.9</ele>
        <time>2022-11-12T09:42:32Z</time>
      </trkpt>
      <trkpt lat="47.85497" lon="-4.05143">
        <ele>3.9</ele>
        <time>2022-11-12T09:42:33Z</time>
      </trkpt>
      <trkpt lat="47.85503" lon="-4.05142">
        <ele>3.9</ele>
        <time>2022-11-12T09:42:34Z</time>
      </trkpt>
      <trkpt lat="47.85509" lon="-4.05142">
        <ele>3.9</ele>
        <time>2022-11-12T09:42:35Z</time>
      </trkpt>
      <trkpt lat="47.85515" lon="-4.05141">
        <ele>3.9</ele>
        <time>2022-11-12T09:42:36Z</time>
      </trkpt>
      <trkpt lat="47.85521" lon="-4.0514">
        <ele>3.9</ele>
        <time>2022-11-12T09:42:37Z</time>
      </trkpt>
      <trkpt lat="47.85527" lon="-4.05139">
        <ele>3.9</ele>
        <time>2022-11-12T09:42:38Z</time>
      </trkpt>
      <trkpt lat="47.85533" lon="-4.05139">
        <ele>3.9</ele>
        <time>2022-11-12T09:42:39Z</time>
      </trkpt>
      <trkpt lat="47.85539" lon="-4.05139">
        <ele>3.9</ele>
        <time>2022-11-12T09:42:40Z</time>
      </trkpt>
      <trkpt lat="47.85545" lon="-4.05138">
        <ele>4</ele>
        <time>2022-11-12T09:42:41Z</time>
      </trkpt>
      <trkpt lat="47.85551" lon="-4.05138">
        <ele>4</ele>
        <time>2022-11-12T09:42:42Z</time>
      </trkpt>
      <trkpt lat="47.85557" lon="-4.05137">
        <ele>4</ele>
        <time>2022-11-12T09:42:43Z</time>
      </trkpt>
      <trkpt lat="47.85563" lon="-4.05137">
        <ele>4.1</ele>
        <time>2022-11-12T09:42:44Z</time>
      </trkpt>
      <trkpt lat="47.85569" lon="-4.05136">
        <ele>4.1</ele>
        <time>2022-11-12T09:42:45Z</time>
      </trkpt>
      <trkpt lat="47.85574" lon="-4.05135">
        <ele>4.2</ele>
        <time>2022-11-12T09:42:46Z</time>
      </trkpt>
      <trkpt lat="47.85579" lon="-4.05132">
        <ele>4.3</ele>
        <time>2022-11-12T09:42:47Z</time>
      </trkpt>
      <trkpt lat="47.85584" lon="-4.05127">
        <ele>4.3</ele>
        <time>2022-11-12T09:42:48Z</time>
      </trkpt>
      <trkpt lat="47.85589" lon="-4.05123">
        <ele>4.3</ele>
        <time>2022-11-12T09:42:49Z</time>
      </trkpt>
      <trkpt lat="47.85593" lon="-4.05119">
        <ele>4.4</ele>
        <time>2022-11-12T09:42:50Z</time>
      </trkpt>
      <trkpt lat="47.85598" lon="-4.05118">
        <ele>4.4</ele>
        <time>2022-11-12T09:42:51Z</time>
      </trkpt>
      <trkpt lat="47.85602" lon="-4.05121">
        <ele>4.5</ele>
        <time>2022-11-12T09:42:52Z</time>
      </trkpt>
      <trkpt lat="47.85606" lon="-4.05123">
        <ele>4.5</ele>
        <time>2022-11-12T09:42:53Z</time>
      </trkpt>
      <trkpt lat="47.85609" lon="-4.05121">
        <ele>4.5</ele>
        <time>2022-11-12T09:42:54Z</time>
      </trkpt>
      <trkpt lat="47.8561" lon="-4.0512">
        <ele>4.5</ele>
        <time>2022-11-12T09:42:55Z</time>
      </trkpt>
      <trkpt lat="47.8561" lon="-4.05119">
        <ele>4.5</ele>
        <time>2022-11-12T09:42:56Z</time>
      </trkpt>
      <trkpt lat="47.8561" lon="-4.05119">
        <ele>4.6</ele>
        <time>2022-11-12T09:42:57Z</time>
      </trkpt>
      <trkpt lat="47.8561" lon="-4.0512">
        <ele>4.6</ele>
        <time>2022-11-12T09:42:58Z</time>
      </trkpt>
      <trkpt lat="47.8561" lon="-4.0512">
        <ele>4.6</ele>
        <time>2022-11-12T09:42:59Z</time>
      </trkpt>
      <trkpt lat="47.8561" lon="-4.05121">
        <ele>4.6</ele>
        <time>2022-11-12T09:43:00Z</time>
      </trkpt>
      <trkpt lat="47.85609" lon="-4.05121">
        <ele>4.6</ele>
        <time>2022-11-12T09:43:01Z</time>
      </trkpt>
      <trkpt lat="47.85609" lon="-4.05121">
        <ele>4.6</ele>
        <time>2022-11-12T09:43:02Z</time>
      </trkpt>
      <trkpt lat="47.85609" lon="-4.05122">
        <ele>4.6</ele>
        <time>2022-11-12T09:43:03Z</time>
      </trkpt>
      <trkpt lat="47.85609" lon="-4.05122">
        <ele>4.6</ele>
        <time>2022-11-12T09:43:04Z</time>
      </trkpt>
      <trkpt lat="47.85609" lon="-4.05122">
        <ele>4.6</ele>
        <time>2022-11-12T09:43:05Z</time>
      </trkpt>
      <trkpt lat="47.85609" lon="-4.05123">
        <ele>4.6</ele>
        <time>2022-11-12T09:43:06Z</time>
      </trkpt>
      <trkpt lat="47.85608" lon="-4.05123">
        <ele>4.6</ele>
        <time>2022-11-12T09:43:07Z</time>
      </trkpt>
      <trkpt lat="47.85608" lon="-4.05123">
        <ele>4.6</ele>
        <time>2022-11-12T09:43:08Z</time>
      </trkpt>
      <trkpt lat="47.85608" lon="-4.05124">
        <ele>4.6</ele>
        <time>2022-11-12T09:43:09Z</time>
      </trkpt>
      <trkpt lat="47.85608" lon="-4.05124">
        <ele>4.6</ele>
        <time>2022-11-12T09:43:54Z</time>
      </trkpt>
      <trkpt lat="47.85608" lon="-4.05124">
        <ele>4.6</ele>
        <time>2022-11-12T09:43:55Z</time>
      </trkpt>
      <trkpt lat="47.85607" lon="-4.05125">
        <ele>4.6</ele>
        <time>2022-11-12T09:43:56Z</time>
      </trkpt>
      <trkpt lat="47.85607" lon="-4.05125">
        <ele>4.6</ele>
        <time>2022-11-12T09:43:57Z</time>
      </trkpt>
      <trkpt lat="47.85604" lon="-4.05124">
        <ele>4.7</ele>
        <time>2022-11-12T09:43:58Z</time>
      </trkpt>
      <trkpt lat="47.85602" lon="-4.05122">
        <ele>4.7</ele>
        <time>2022-11-12T09:43:59Z</time>
      </trkpt>
      <trkpt lat="47.85601" lon="-4.05117">
        <ele>4.7</ele>
        <time>2022-11-12T09:44:00Z</time>
      </trkpt>
      <trkpt lat="47.85602" lon="-4.05111">
        <ele>4.8</ele>
        <time>2022-11-12T09:44:01Z</time>
      </trkpt>
      <trkpt lat="47.85606" lon="-4.05108">
        <ele>4.8</ele>
        <time>2022-11-12T09:44:02Z</time>
      </trkpt>
      <trkpt lat="47.85614" lon="-4.05099">
        <ele>4.9</ele>
        <time>2022-11-12T09:44:04Z</time>
      </trkpt>
      <trkpt lat="47.85618" lon="-4.05095">
        <ele>5</ele>
        <time>2022-11-12T09:44:05Z</time>
      </trkpt>
      <trkpt lat="47.85622" lon="-4.0509">
        <ele>5.1</ele>
        <time>2022-11-12T09:44:06Z</time>
      </trkpt>
      <trkpt lat="47.85626" lon="-4.05086">
        <ele>5.2</ele>
        <time>2022-11-12T09:44:07Z</time>
      </trkpt>
      <trkpt lat="47.8563" lon="-4.05081">
        <ele>5.2</ele>
        <time>2022-11-12T09:44:08Z</time>
      </trkpt>
      <trkpt lat="47.85634" lon="-4.05077">
        <ele>5.3</ele>
        <time>2022-11-12T09:44:09Z</time>
      </trkpt>
      <trkpt lat="47.85639" lon="-4.05072">
        <ele>5.4</ele>
        <time>2022-11-12T09:44:10Z</time>
      </trkpt>
      <trkpt lat="47.85643" lon="-4.05068">
        <ele>5.5</ele>
        <time>2022-11-12T09:44:11Z</time>
      </trkpt>
      <trkpt lat="47.85647" lon="-4.05063">
        <ele>5.5</ele>
        <time>2022-11-12T09:44:12Z</time>
      </trkpt>
      <trkpt lat="47.85652" lon="-4.05059">
        <ele>5.6</ele>
        <time>2022-11-12T09:44:13Z</time>
      </trkpt>
      <trkpt lat="47.85656" lon="-4.05055">
        <ele>5.7</ele>
        <time>2022-11-12T09:44:14Z</time>
      </trkpt>
      <trkpt lat="47.8566" lon="-4.05051">
        <ele>5.8</ele>
        <time>2022-11-12T09:44:15Z</time>
      </trkpt>
      <trkpt lat="47.85664" lon="-4.05046">
        <ele>5.8</ele>
        <time>2022-11-12T09:44:16Z</time>
      </trkpt>
      <trkpt lat="47.85668" lon="-4.05042">
        <ele>5.9</ele>
        <time>2022-11-12T09:44:17Z</time>
      </trkpt>
      <trkpt lat="47.85673" lon="-4.05037">
        <ele>6</ele>
        <time>2022-11-12T09:44:18Z</time>
      </trkpt>
      <trkpt lat="47.85678" lon="-4.05034">
        <ele>6.1</ele>
        <time>2022-11-12T09:44:19Z</time>
      </trkpt>
      <trkpt lat="47.85684" lon="-4.05032">
        <ele>6.2</ele>
        <time>2022-11-12T09:44:20Z</time>
      </trkpt>
      <trkpt lat="47.8569" lon="-4.05029">
        <ele>6.2</ele>
        <time>2022-11-12T09:44:21Z</time>
      </trkpt>
      <trkpt lat="47.85695" lon="-4.05029">
        <ele>6.3</ele>
        <time>2022-11-12T09:44:22Z</time>
      </trkpt>
      <trkpt lat="47.85701" lon="-4.05029">
        <ele>6.4</ele>
        <time>2022-11-12T09:44:23Z</time>
      </trkpt>
      <trkpt lat="47.85707" lon="-4.05031">
        <ele>6.5</ele>
        <time>2022-11-12T09:44:24Z</time>
      </trkpt>
      <trkpt lat="47.85712" lon="-4.05033">
        <ele>6.6</ele>
        <time>2022-11-12T09:44:25Z</time>
      </trkpt>
      <trkpt lat="47.85718" lon="-4.05035">
        <ele>6.7</ele>
        <time>2022-11-12T09:44:26Z</time>
      </trkpt>
      <trkpt lat="47.85723" lon="-4.05038">
        <ele>6.8</ele>
        <time>2022-11-12T09:44:27Z</time>
      </trkpt>
      <trkpt lat="47.85728" lon="-4.05041">
        <ele>6.8</ele>
        <time>2022-11-12T09:44:28Z</time>
      </trkpt>
      <trkpt lat="47.85734" lon="-4.05045">
        <ele>6.9</ele>
        <time>2022-11-12T09:44:29Z</time>
      </trkpt>
      <trkpt lat="47.85739" lon="-4.05048">
        <ele>7</ele>
        <time>2022-11-12T09:44:30Z</time>
      </trkpt>
      <trkpt lat="47.85744" lon="-4.05053">
        <ele>7</ele>
        <time>2022-11-12T09:44:31Z</time>
      </trkpt>
      <trkpt lat="47.85749" lon="-4.05057">
        <ele>7.1</ele>
        <time>2022-11-12T09:44:32Z</time>
      </trkpt>
      <trkpt lat="47.85754" lon="-4.05061">
        <ele>7.1</ele>
        <time>2022-11-12T09:44:33Z</time>
      </trkpt>
      <trkpt lat="47.8576" lon="-4.05065">
        <ele>7.2</ele>
        <time>2022-11-12T09:44:34Z</time>
      </trkpt>
      <trkpt lat="47.85765" lon="-4.0507">
        <ele>7.2</ele>
        <time>2022-11-12T09:44:35Z</time>
      </trkpt>
      <trkpt lat="47.8577" lon="-4.05073">
        <ele>7.3</ele>
        <time>2022-11-12T09:44:36Z</time>
      </trkpt>
      <trkpt lat="47.85776" lon="-4.05077">
        <ele>7.3</ele>
        <time>2022-11-12T09:44:37Z</time>
      </trkpt>
      <trkpt lat="47.85782" lon="-4.05081">
        <ele>7.4</ele>
        <time>2022-11-12T09:44:38Z</time>
      </trkpt>
      <trkpt lat="47.85786" lon="-4.05085">
        <ele>7.4</ele>
        <time>2022-11-12T09:44:39Z</time>
      </trkpt>
      <trkpt lat="47.85791" lon="-4.05088">
        <ele>7.5</ele>
        <time>2022-11-12T09:44:40Z</time>
      </trkpt>
      <trkpt lat="47.85796" lon="-4.05093">
        <ele>7.5</ele>
        <time>2022-11-12T09:44:41Z</time>
      </trkpt>
      <trkpt lat="47.85802" lon="-4.05098">
        <ele>7.6</ele>
        <time>2022-11-12T09:44:42Z</time>
      </trkpt>
      <trkpt lat="47.85807" lon="-4.05101">
        <ele>7.6</ele>
        <time>2022-11-12T09:44:43Z</time>
      </trkpt>
      <trkpt lat="47.85812" lon="-4.05105">
        <ele>7.7</ele>
        <time>2022-11-12T09:44:44Z</time>
      </trkpt>
      <trkpt lat="47.85817" lon="-4.05109">
        <ele>7.7</ele>
        <time>2022-11-12T09:44:45Z</time>
      </trkpt>
      <trkpt lat="47.85822" lon="-4.05112">
        <ele>7.7</ele>
        <time>2022-11-12T09:44:46Z</time>
      </trkpt>
      <trkpt lat="47.85828" lon="-4.05116">
        <ele>7.8</ele>
        <time>2022-11-12T09:44:47Z</time>
      </trkpt>
      <trkpt lat="47.85833" lon="-4.05119">
        <ele>7.9</ele>
        <time>2022-11-12T09:44:48Z</time>
      </trkpt>
      <trkpt lat="47.85839" lon="-4.05122">
        <ele>7.9</ele>
        <time>2022-11-12T09:44:49Z</time>
      </trkpt>
      <trkpt lat="47.85844" lon="-4.05124">
        <ele>8</ele>
        <time>2022-11-12T09:44:50Z</time>
      </trkpt>
      <trkpt lat="47.8585" lon="-4.05126">
        <ele>8</ele>
        <time>2022-11-12T09:44:51Z</time>
      </trkpt>
      <trkpt lat="47.85855" lon="-4.05128">
        <ele>8.1</ele>
        <time>2022-11-12T09:44:52Z</time>
      </trkpt>
      <trkpt lat="47.85861" lon="-4.05129">
        <ele>8.1</ele>
        <time>2022-11-12T09:44:53Z</time>
      </trkpt>
      <trkpt lat="47.85867" lon="-4.05131">
        <ele>8.1</ele>
        <time>2022-11-12T09:44:54Z</time>
      </trkpt>
      <trkpt lat="47.85873" lon="-4.05133">
        <ele>8.2</ele>
        <time>2022-11-12T09:44:55Z</time>
      </trkpt>
      <trkpt lat="47.85879" lon="-4.05134">
        <ele>8.2</ele>
        <time>2022-11-12T09:44:56Z</time>
      </trkpt>
      <trkpt lat="47.85885" lon="-4.05135">
        <ele>8.2</ele>
        <time>2022-11-12T09:44:57Z</time>
      </trkpt>
      <trkpt lat="47.85892" lon="-4.05135">
        <ele>8.2</ele>
        <time>2022-11-12T09:44:58Z</time>
      </trkpt>
      <trkpt lat="47.85898" lon="-4.05136">
        <ele>8.2</ele>
        <time>2022-11-12T09:44:59Z</time>
      </trkpt>
      <trkpt lat="47.85904" lon="-4.05137">
        <ele>8.2</ele>
        <time>2022-11-12T09:45:00Z</time>
      </trkpt>
      <trkpt lat="47.8591" lon="-4.05138">
        <ele>8.2</ele>
        <time>2022-11-12T09:45:01Z</time>
      </trkpt>
      <trkpt lat="47.85916" lon="-4.05138">
        <ele>8.2</ele>
        <time>2022-11-12T09:45:02Z</time>
      </trkpt>
      <trkpt lat="47.85922" lon="-4.05139">
        <ele>8.3</ele>
        <time>2022-11-12T09:45:03Z</time>
      </trkpt>
      <trkpt lat="47.85928" lon="-4.0514">
        <ele>8.3</ele>
        <time>2022-11-12T09:45:04Z</time>
      </trkpt>
      <trkpt lat="47.85934" lon="-4.0514">
        <ele>8.3</ele>
        <time>2022-11-12T09:45:05Z</time>
      </trkpt>
      <trkpt lat="47.85941" lon="-4.0514">
        <ele>8.4</ele>
        <time>2022-11-12T09:45:06Z</time>
      </trkpt>
      <trkpt lat="47.85947" lon="-4.05141">
        <ele>8.4</ele>
        <time>2022-11-12T09:45:07Z</time>
      </trkpt>
      <trkpt lat="47.85953" lon="-4.05142">
        <ele>8.5</ele>
        <time>2022-11-12T09:45:08Z</time>
      </trkpt>
      <trkpt lat="47.85959" lon="-4.05142">
        <ele>8.6</ele>
        <time>2022-11-12T09:45:09Z</time>
      </trkpt>
      <trkpt lat="47.85965" lon="-4.05142">
        <ele>8.6</ele>
        <time>2022-11-12T09:45:10Z</time>
      </trkpt>
      <trkpt lat="47.85971" lon="-4.05144">
        <ele>8.7</ele>
        <time>2022-11-12T09:45:11Z</time>
      </trkpt>
      <trkpt lat="47.85976" lon="-4.05146">
        <ele>8.8</ele>
        <time>2022-11-12T09:45:12Z</time>
      </trkpt>
      <trkpt lat="47.85982" lon="-4.05151">
        <ele>8.8</ele>
        <time>2022-11-12T09:45:13Z</time>
      </trkpt>
      <trkpt lat="47.85987" lon="-4.05156">
        <ele>8.8</ele>
        <time>2022-11-12T09:45:14Z</time>
      </trkpt>
      <trkpt lat="47.85993" lon="-4.05161">
        <ele>8.8</ele>
        <time>2022-11-12T09:45:15Z</time>
      </trkpt>
      <trkpt lat="47.85998" lon="-4.05167">
        <ele>8.8</ele>
        <time>2022-11-12T09:45:16Z</time>
      </trkpt>
      <trkpt lat="47.86004" lon="-4.05172">
        <ele>8.8</ele>
        <time>2022-11-12T09:45:17Z</time>
      </trkpt>
      <trkpt lat="47.86009" lon="-4.05177">
        <ele>8.8</ele>
        <time>2022-11-12T09:45:18Z</time>
      </trkpt>
      <trkpt lat="47.86014" lon="-4.05182">
        <ele>8.8</ele>
        <time>2022-11-12T09:45:19Z</time>
      </trkpt>
      <trkpt lat="47.86019" lon="-4.05187">
        <ele>8.8</ele>
        <time>2022-11-12T09:45:20Z</time>
      </trkpt>
      <trkpt lat="47.86024" lon="-4.05192">
        <ele>8.8</ele>
        <time>2022-11-12T09:45:21Z</time>
      </trkpt>
      <trkpt lat="47.86028" lon="-4.05196">
        <ele>8.8</ele>
        <time>2022-11-12T09:45:22Z</time>
      </trkpt>
      <trkpt lat="47.86033" lon="-4.05201">
        <ele>8.8</ele>
        <time>2022-11-12T09:45:23Z</time>
      </trkpt>
      <trkpt lat="47.86038" lon="-4.05206">
        <ele>8.8</ele>
        <time>2022-11-12T09:45:24Z</time>
      </trkpt>
      <trkpt lat="47.86043" lon="-4.05211">
        <ele>8.8</ele>
        <time>2022-11-12T09:45:25Z</time>
      </trkpt>
      <trkpt lat="47.86048" lon="-4.05215">
        <ele>8.8</ele>
        <time>2022-11-12T09:45:26Z</time>
      </trkpt>
      <trkpt lat="47.86053" lon="-4.05219">
        <ele>8.8</ele>
        <time>2022-11-12T09:45:27Z</time>
      </trkpt>
      <trkpt lat="47.86058" lon="-4.05223">
        <ele>8.8</ele>
        <time>2022-11-12T09:45:28Z</time>
      </trkpt>
      <trkpt lat="47.86064" lon="-4.05225">
        <ele>8.7</ele>
        <time>2022-11-12T09:45:29Z</time>
      </trkpt>
      <trkpt lat="47.8607" lon="-4.05225">
        <ele>8.7</ele>
        <time>2022-11-12T09:45:30Z</time>
      </trkpt>
      <trkpt lat="47.86075" lon="-4.05226">
        <ele>8.7</ele>
        <time>2022-11-12T09:45:31Z</time>
      </trkpt>
      <trkpt lat="47.8608" lon="-4.0523">
        <ele>8.6</ele>
        <time>2022-11-12T09:45:32Z</time>
      </trkpt>
      <trkpt lat="47.86083" lon="-4.05237">
        <ele>8.5</ele>
        <time>2022-11-12T09:45:33Z</time>
      </trkpt>
      <trkpt lat="47.86087" lon="-4.05243">
        <ele>8.4</ele>
        <time>2022-11-12T09:45:34Z</time>
      </trkpt>
      <trkpt lat="47.86091" lon="-4.0525">
        <ele>8.3</ele>
        <time>2022-11-12T09:45:35Z</time>
      </trkpt>
      <trkpt lat="47.86096" lon="-4.05256">
        <ele>8.2</ele>
        <time>2022-11-12T09:45:36Z</time>
      </trkpt>
      <trkpt lat="47.861" lon="-4.05262">
        <ele>8.1</ele>
        <time>2022-11-12T09:45:37Z</time>
      </trkpt>
      <trkpt lat="47.86104" lon="-4.05268">
        <ele>8</ele>
        <time>2022-11-12T09:45:38Z</time>
      </trkpt>
      <trkpt lat="47.86109" lon="-4.05274">
        <ele>7.9</ele>
        <time>2022-11-12T09:45:39Z</time>
      </trkpt>
      <trkpt lat="47.86114" lon="-4.05279">
        <ele>7.8</ele>
        <time>2022-11-12T09:45:40Z</time>
      </trkpt>
      <trkpt lat="47.8612" lon="-4.05284">
        <ele>7.8</ele>
        <time>2022-11-12T09:45:41Z</time>
      </trkpt>
      <trkpt lat="47.86125" lon="-4.05289">
        <ele>7.7</ele>
        <time>2022-11-12T09:45:42Z</time>
      </trkpt>
      <trkpt lat="47.86131" lon="-4.05294">
        <ele>7.6</ele>
        <time>2022-11-12T09:45:43Z</time>
      </trkpt>
      <trkpt lat="47.86136" lon="-4.053">
        <ele>7.6</ele>
        <time>2022-11-12T09:45:44Z</time>
      </trkpt>
      <trkpt lat="47.86142" lon="-4.05305">
        <ele>7.5</ele>
        <time>2022-11-12T09:45:45Z</time>
      </trkpt>
      <trkpt lat="47.86148" lon="-4.05311">
        <ele>7.4</ele>
        <time>2022-11-12T09:45:46Z</time>
      </trkpt>
      <trkpt lat="47.86154" lon="-4.05316">
        <ele>7.3</ele>
        <time>2022-11-12T09:45:47Z</time>
      </trkpt>
      <trkpt lat="47.8616" lon="-4.05321">
        <ele>7.2</ele>
        <time>2022-11-12T09:45:48Z</time>
      </trkpt>
      <trkpt lat="47.86165" lon="-4.05327">
        <ele>7.1</ele>
        <time>2022-11-12T09:45:49Z</time>
      </trkpt>
      <trkpt lat="47.86171" lon="-4.05332">
        <ele>7.1</ele>
        <time>2022-11-12T09:45:50Z</time>
      </trkpt>
      <trkpt lat="47.86177" lon="-4.05338">
        <ele>7</ele>
        <time>2022-11-12T09:45:51Z</time>
      </trkpt>
      <trkpt lat="47.86183" lon="-4.05343">
        <ele>6.9</ele>
        <time>2022-11-12T09:45:52Z</time>
      </trkpt>
      <trkpt lat="47.86189" lon="-4.0535">
        <ele>6.9</ele>
        <time>2022-11-12T09:45:53Z</time>
      </trkpt>
      <trkpt lat="47.86195" lon="-4.05355">
        <ele>6.8</ele>
        <time>2022-11-12T09:45:54Z</time>
      </trkpt>
      <trkpt lat="47.862" lon="-4.05362">
        <ele>6.8</ele>
        <time>2022-11-12T09:45:55Z</time>
      </trkpt>
      <trkpt lat="47.86206" lon="-4.05368">
        <ele>6.7</ele>
        <time>2022-11-12T09:45:56Z</time>
      </trkpt>
      <trkpt lat="47.8621" lon="-4.05376">
        <ele>6.7</ele>
        <time>2022-11-12T09:45:57Z</time>
      </trkpt>
      <trkpt lat="47.86211" lon="-4.05384">
        <ele>6.6</ele>
        <time>2022-11-12T09:45:58Z</time>
      </trkpt>
      <trkpt lat="47.8621" lon="-4.05392">
        <ele>6.5</ele>
        <time>2022-11-12T09:45:59Z</time>
      </trkpt>
      <trkpt lat="47.86207" lon="-4.054">
        <ele>6.4</ele>
        <time>2022-11-12T09:46:00Z</time>
      </trkpt>
      <trkpt lat="47.86206" lon="-4.05408">
        <ele>6.3</ele>
        <time>2022-11-12T09:46:01Z</time>
      </trkpt>
      <trkpt lat="47.86206" lon="-4.05415">
        <ele>6.2</ele>
        <time>2022-11-12T09:46:02Z</time>
      </trkpt>
      <trkpt lat="47.86207" lon="-4.05421">
        <ele>6.1</ele>
        <time>2022-11-12T09:46:03Z</time>
      </trkpt>
      <trkpt lat="47.86208" lon="-4.05424">
        <ele>6.1</ele>
        <time>2022-11-12T09:46:04Z</time>
      </trkpt>
      <trkpt lat="47.86209" lon="-4.0543">
        <ele>6</ele>
        <time>2022-11-12T09:46:05Z</time>
      </trkpt>
      <trkpt lat="47.8621" lon="-4.05437">
        <ele>5.9</ele>
        <time>2022-11-12T09:46:06Z</time>
      </trkpt>
      <trkpt lat="47.86211" lon="-4.05445">
        <ele>5.8</ele>
        <time>2022-11-12T09:46:07Z</time>
      </trkpt>
      <trkpt lat="47.86212" lon="-4.05454">
        <ele>5.8</ele>
        <time>2022-11-12T09:46:08Z</time>
      </trkpt>
      <trkpt lat="47.86212" lon="-4.05463">
        <ele>5.7</ele>
        <time>2022-11-12T09:46:09Z</time>
      </trkpt>
      <trkpt lat="47.86212" lon="-4.05472">
        <ele>5.6</ele>
        <time>2022-11-12T09:46:10Z</time>
      </trkpt>
      <trkpt lat="47.86212" lon="-4.05481">
        <ele>5.6</ele>
        <time>2022-11-12T09:46:11Z</time>
      </trkpt>
      <trkpt lat="47.86212" lon="-4.05491">
        <ele>5.5</ele>
        <time>2022-11-12T09:46:12Z</time>
      </trkpt>
      <trkpt lat="47.86213" lon="-4.055">
        <ele>5.5</ele>
        <time>2022-11-12T09:46:13Z</time>
      </trkpt>
      <trkpt lat="47.86215" lon="-4.05509">
        <ele>5.4</ele>
        <time>2022-11-12T09:46:14Z</time>
      </trkpt>
      <trkpt lat="47.86216" lon="-4.05517">
        <ele>5.3</ele>
        <time>2022-11-12T09:46:15Z</time>
      </trkpt>
      <trkpt lat="47.86217" lon="-4.05527">
        <ele>5.3</ele>
        <time>2022-11-12T09:46:16Z</time>
      </trkpt>
      <trkpt lat="47.86217" lon="-4.05536">
        <ele>5.2</ele>
        <time>2022-11-12T09:46:17Z</time>
      </trkpt>
      <trkpt lat="47.8622" lon="-4.05545">
        <ele>5.2</ele>
        <time>2022-11-12T09:46:18Z</time>
      </trkpt>
      <trkpt lat="47.86222" lon="-4.05552">
        <ele>5.1</ele>
        <time>2022-11-12T09:46:19Z</time>
      </trkpt>
      <trkpt lat="47.86221" lon="-4.0556">
        <ele>5</ele>
        <time>2022-11-12T09:46:20Z</time>
      </trkpt>
      <trkpt lat="47.86218" lon="-4.05568">
        <ele>4.9</ele>
        <time>2022-11-12T09:46:21Z</time>
      </trkpt>
      <trkpt lat="47.86214" lon="-4.05575">
        <ele>4.8</ele>
        <time>2022-11-12T09:46:22Z</time>
      </trkpt>
      <trkpt lat="47.86211" lon="-4.05583">
        <ele>4.6</ele>
        <time>2022-11-12T09:46:23Z</time>
      </trkpt>
      <trkpt lat="47.86209" lon="-4.05591">
        <ele>4.5</ele>
        <time>2022-11-12T09:46:24Z</time>
      </trkpt>
      <trkpt lat="47.86206" lon="-4.056">
        <ele>4.4</ele>
        <time>2022-11-12T09:46:25Z</time>
      </trkpt>
      <trkpt lat="47.86204" lon="-4.05609">
        <ele>4.4</ele>
        <time>2022-11-12T09:46:26Z</time>
      </trkpt>
      <trkpt lat="47.86202" lon="-4.05616">
        <ele>4.4</ele>
        <time>2022-11-12T09:46:27Z</time>
      </trkpt>
      <trkpt lat="47.86204" lon="-4.05626">
        <ele>4.4</ele>
        <time>2022-11-12T09:46:28Z</time>
      </trkpt>
      <trkpt lat="47.86207" lon="-4.05635">
        <ele>4.4</ele>
        <time>2022-11-12T09:46:29Z</time>
      </trkpt>
      <trkpt lat="47.8621" lon="-4.05643">
        <ele>4.4</ele>
        <time>2022-11-12T09:46:30Z</time>
      </trkpt>
      <trkpt lat="47.86213" lon="-4.0565">
        <ele>4.5</ele>
        <time>2022-11-12T09:46:31Z</time>
      </trkpt>
      <trkpt lat="47.86217" lon="-4.05656">
        <ele>4.6</ele>
        <time>2022-11-12T09:46:32Z</time>
      </trkpt>
      <trkpt lat="47.86221" lon="-4.05663">
        <ele>4.6</ele>
        <time>2022-11-12T09:46:33Z</time>
      </trkpt>
      <trkpt lat="47.86226" lon="-4.05668">
        <ele>4.7</ele>
        <time>2022-11-12T09:46:34Z</time>
      </trkpt>
      <trkpt lat="47.8623" lon="-4.05673">
        <ele>4.7</ele>
        <time>2022-11-12T09:46:35Z</time>
      </trkpt>
      <trkpt lat="47.86234" lon="-4.05679">
        <ele>4.8</ele>
        <time>2022-11-12T09:46:36Z</time>
      </trkpt>
      <trkpt lat="47.86239" lon="-4.05687">
        <ele>4.9</ele>
        <time>2022-11-12T09:46:37Z</time>
      </trkpt>
      <trkpt lat="47.86243" lon="-4.05694">
        <ele>5</ele>
        <time>2022-11-12T09:46:38Z</time>
      </trkpt>
      <trkpt lat="47.86247" lon="-4.05701">
        <ele>5</ele>
        <time>2022-11-12T09:46:39Z</time>
      </trkpt>
      <trkpt lat="47.86251" lon="-4.05708">
        <ele>5.1</ele>
        <time>2022-11-12T09:46:40Z</time>
      </trkpt>
      <trkpt lat="47.86256" lon="-4.05713">
        <ele>5.2</ele>
        <time>2022-11-12T09:46:41Z</time>
      </trkpt>
      <trkpt lat="47.86261" lon="-4.05719">
        <ele>5.3</ele>
        <time>2022-11-12T09:46:42Z</time>
      </trkpt>
      <trkpt lat="47.86264" lon="-4.05726">
        <ele>5.3</ele>
        <time>2022-11-12T09:46:43Z</time>
      </trkpt>
      <trkpt lat="47.86269" lon="-4.05731">
        <ele>5.4</ele>
        <time>2022-11-12T09:46:44Z</time>
      </trkpt>
      <trkpt lat="47.86273" lon="-4.05737">
        <ele>5.5</ele>
        <time>2022-11-12T09:46:45Z</time>
      </trkpt>
      <trkpt lat="47.86277" lon="-4.05744">
        <ele>5.6</ele>
        <time>2022-11-12T09:46:46Z</time>
      </trkpt>
      <trkpt lat="47.86281" lon="-4.0575">
        <ele>5.7</ele>
        <time>2022-11-12T09:46:47Z</time>
      </trkpt>
      <trkpt lat="47.86284" lon="-4.05756">
        <ele>5.8</ele>
        <time>2022-11-12T09:46:48Z</time>
      </trkpt>
      <trkpt lat="47.86287" lon="-4.05762">
        <ele>5.9</ele>
        <time>2022-11-12T09:46:49Z</time>
      </trkpt>
      <trkpt lat="47.8629" lon="-4.05768">
        <ele>6</ele>
        <time>2022-11-12T09:46:50Z</time>
      </trkpt>
      <trkpt lat="47.86293" lon="-4.05774">
        <ele>6.1</ele>
        <time>2022-11-12T09:46:51Z</time>
      </trkpt>
      <trkpt lat="47.86295" lon="-4.05781">
        <ele>6.2</ele>
        <time>2022-11-12T09:46:52Z</time>
      </trkpt>
      <trkpt lat="47.86298" lon="-4.05788">
        <ele>6.4</ele>
        <time>2022-11-12T09:46:53Z</time>
      </trkpt>
      <trkpt lat="47.863" lon="-4.05796">
        <ele>6.5</ele>
        <time>2022-11-12T09:46:54Z</time>
      </trkpt>
      <trkpt lat="47.86305" lon="-4.05801">
        <ele>6.7</ele>
        <time>2022-11-12T09:46:55Z</time>
      </trkpt>
      <trkpt lat="47.8631" lon="-4.05804">
        <ele>6.9</ele>
        <time>2022-11-12T09:46:56Z</time>
      </trkpt>
      <trkpt lat="47.86315" lon="-4.05803">
        <ele>7</ele>
        <time>2022-11-12T09:46:57Z</time>
      </trkpt>
      <trkpt lat="47.86321" lon="-4.058">
        <ele>7.2</ele>
        <time>2022-11-12T09:46:58Z</time>
      </trkpt>
      <trkpt lat="47.86326" lon="-4.05796">
        <ele>7.3</ele>
        <time>2022-11-12T09:46:59Z</time>
      </trkpt>
      <trkpt lat="47.86331" lon="-4.05793">
        <ele>7.5</ele>
        <time>2022-11-12T09:47:00Z</time>
      </trkpt>
      <trkpt lat="47.86336" lon="-4.05791">
        <ele>7.6</ele>
        <time>2022-11-12T09:47:01Z</time>
      </trkpt>
      <trkpt lat="47.86341" lon="-4.05788">
        <ele>7.7</ele>
        <time>2022-11-12T09:47:02Z</time>
      </trkpt>
      <trkpt lat="47.86346" lon="-4.05785">
        <ele>7.8</ele>
        <time>2022-11-12T09:47:03Z</time>
      </trkpt>
      <trkpt lat="47.86351" lon="-4.05782">
        <ele>7.9</ele>
        <time>2022-11-12T09:47:04Z</time>
      </trkpt>
      <trkpt lat="47.86355" lon="-4.05778">
        <ele>8</ele>
        <time>2022-11-12T09:47:05Z</time>
      </trkpt>
      <trkpt lat="47.8636" lon="-4.05776">
        <ele>8.1</ele>
        <time>2022-11-12T09:47:06Z</time>
      </trkpt>
      <trkpt lat="47.86365" lon="-4.05774">
        <ele>8.2</ele>
        <time>2022-11-12T09:47:07Z</time>
      </trkpt>
      <trkpt lat="47.8637" lon="-4.05772">
        <ele>8.2</ele>
        <time>2022-11-12T09:47:08Z</time>
      </trkpt>
      <trkpt lat="47.86375" lon="-4.0577">
        <ele>8.3</ele>
        <time>2022-11-12T09:47:09Z</time>
      </trkpt>
      <trkpt lat="47.8638" lon="-4.05769">
        <ele>8.3</ele>
        <time>2022-11-12T09:47:10Z</time>
      </trkpt>
      <trkpt lat="47.86384" lon="-4.05772">
        <ele>8.4</ele>
        <time>2022-11-12T09:47:11Z</time>
      </trkpt>
      <trkpt lat="47.86389" lon="-4.05776">
        <ele>8.4</ele>
        <time>2022-11-12T09:47:12Z</time>
      </trkpt>
      <trkpt lat="47.86391" lon="-4.05782">
        <ele>8.5</ele>
        <time>2022-11-12T09:47:13Z</time>
      </trkpt>
      <trkpt lat="47.86392" lon="-4.05791">
        <ele>8.5</ele>
        <time>2022-11-12T09:47:14Z</time>
      </trkpt>
      <trkpt lat="47.86393" lon="-4.05799">
        <ele>8.5</ele>
        <time>2022-11-12T09:47:15Z</time>
      </trkpt>
      <trkpt lat="47.86394" lon="-4.05807">
        <ele>8.5</ele>
        <time>2022-11-12T09:47:16Z</time>
      </trkpt>
      <trkpt lat="47.86396" lon="-4.05815">
        <ele>8.5</ele>
        <time>2022-11-12T09:47:17Z</time>
      </trkpt>
      <trkpt lat="47.86398" lon="-4.05823">
        <ele>8.5</ele>
        <time>2022-11-12T09:47:18Z</time>
      </trkpt>
      <trkpt lat="47.864" lon="-4.05831">
        <ele>8.5</ele>
        <time>2022-11-12T09:47:19Z</time>
      </trkpt>
      <trkpt lat="47.86403" lon="-4.05839">
        <ele>8.5</ele>
        <time>2022-11-12T09:47:20Z</time>
      </trkpt>
      <trkpt lat="47.86405" lon="-4.05847">
        <ele>8.5</ele>
        <time>2022-11-12T09:47:21Z</time>
      </trkpt>
      <trkpt lat="47.86406" lon="-4.05855">
        <ele>8.5</ele>
        <time>2022-11-12T09:47:22Z</time>
      </trkpt>
      <trkpt lat="47.86408" lon="-4.05863">
        <ele>8.5</ele>
        <time>2022-11-12T09:47:23Z</time>
      </trkpt>
      <trkpt lat="47.8641" lon="-4.05871">
        <ele>8.6</ele>
        <time>2022-11-12T09:47:24Z</time>
      </trkpt>
      <trkpt lat="47.86412" lon="-4.05879">
        <ele>8.6</ele>
        <time>2022-11-12T09:47:25Z</time>
      </trkpt>
      <trkpt lat="47.86413" lon="-4.05887">
        <ele>8.6</ele>
        <time>2022-11-12T09:47:26Z</time>
      </trkpt>
      <trkpt lat="47.86414" lon="-4.05895">
        <ele>8.7</ele>
        <time>2022-11-12T09:47:27Z</time>
      </trkpt>
      <trkpt lat="47.86416" lon="-4.05904">
        <ele>8.7</ele>
        <time>2022-11-12T09:47:28Z</time>
      </trkpt>
      <trkpt lat="47.86418" lon="-4.0591">
        <ele>8.7</ele>
        <time>2022-11-12T09:47:29Z</time>
      </trkpt>
      <trkpt lat="47.86421" lon="-4.05915">
        <ele>8.7</ele>
        <time>2022-11-12T09:47:30Z</time>
      </trkpt>
      <trkpt lat="47.86425" lon="-4.05916">
        <ele>8.7</ele>
        <time>2022-11-12T09:47:31Z</time>
      </trkpt>
      <trkpt lat="47.86428" lon="-4.05914">
        <ele>8.7</ele>
        <time>2022-11-12T09:47:32Z</time>
      </trkpt>
      <trkpt lat="47.86433" lon="-4.0591">
        <ele>8.8</ele>
        <time>2022-11-12T09:47:33Z</time>
      </trkpt>
      <trkpt lat="47.86436" lon="-4.05905">
        <ele>8.8</ele>
        <time>2022-11-12T09:47:34Z</time>
      </trkpt>
      <trkpt lat="47.86439" lon="-4.05899">
        <ele>8.9</ele>
        <time>2022-11-12T09:47:35Z</time>
      </trkpt>
      <trkpt lat="47.86442" lon="-4.05892">
        <ele>8.9</ele>
        <time>2022-11-12T09:47:36Z</time>
      </trkpt>
      <trkpt lat="47.86445" lon="-4.05886">
        <ele>9</ele>
        <time>2022-11-12T09:47:37Z</time>
      </trkpt>
      <trkpt lat="47.86449" lon="-4.0588">
        <ele>9</ele>
        <time>2022-11-12T09:47:38Z</time>
      </trkpt>
      <trkpt lat="47.86453" lon="-4.05874">
        <ele>9.1</ele>
        <time>2022-11-12T09:47:39Z</time>
      </trkpt>
      <trkpt lat="47.86457" lon="-4.05867">
        <ele>9.1</ele>
        <time>2022-11-12T09:47:40Z</time>
      </trkpt>
      <trkpt lat="47.86461" lon="-4.0586">
        <ele>9.2</ele>
        <time>2022-11-12T09:47:41Z</time>
      </trkpt>
      <trkpt lat="47.86465" lon="-4.05854">
        <ele>9.3</ele>
        <time>2022-11-12T09:47:42Z</time>
      </trkpt>
      <trkpt lat="47.86469" lon="-4.05848">
        <ele>9.3</ele>
        <time>2022-11-12T09:47:43Z</time>
      </trkpt>
      <trkpt lat="47.86473" lon="-4.05842">
        <ele>9.4</ele>
        <time>2022-11-12T09:47:44Z</time>
      </trkpt>
      <trkpt lat="47.86477" lon="-4.05836">
        <ele>9.5</ele>
        <time>2022-11-12T09:47:45Z</time>
      </trkpt>
      <trkpt lat="47.86482" lon="-4.0583">
        <ele>9.5</ele>
        <time>2022-11-12T09:47:46Z</time>
      </trkpt>
      <trkpt lat="47.86487" lon="-4.05825">
        <ele>9.6</ele>
        <time>2022-11-12T09:47:47Z</time>
      </trkpt>
      <trkpt lat="47.86492" lon="-4.05821">
        <ele>9.8</ele>
        <time>2022-11-12T09:47:48Z</time>
      </trkpt>
      <trkpt lat="47.86498" lon="-4.05819">
        <ele>9.9</ele>
        <time>2022-11-12T09:47:49Z</time>
      </trkpt>
      <trkpt lat="47.86504" lon="-4.05818">
        <ele>10</ele>
        <time>2022-11-12T09:47:50Z</time>
      </trkpt>
      <trkpt lat="47.8651" lon="-4.05818">
        <ele>10.2</ele>
        <time>2022-11-12T09:47:51Z</time>
      </trkpt>
      <trkpt lat="47.86516" lon="-4.05818">
        <ele>10.3</ele>
        <time>2022-11-12T09:47:52Z</time>
      </trkpt>
      <trkpt lat="47.86522" lon="-4.05818">
        <ele>10.4</ele>
        <time>2022-11-12T09:47:53Z</time>
      </trkpt>
      <trkpt lat="47.86527" lon="-4.05818">
        <ele>10.5</ele>
        <time>2022-11-12T09:47:54Z</time>
      </trkpt>
      <trkpt lat="47.86533" lon="-4.05819">
        <ele>10.6</ele>
        <time>2022-11-12T09:47:55Z</time>
      </trkpt>
      <trkpt lat="47.86539" lon="-4.05819">
        <ele>10.7</ele>
        <time>2022-11-12T09:47:56Z</time>
      </trkpt>
      <trkpt lat="47.86545" lon="-4.05819">
        <ele>10.8</ele>
        <time>2022-11-12T09:47:57Z</time>
      </trkpt>
      <trkpt lat="47.8655" lon="-4.0582">
        <ele>10.9</ele>
        <time>2022-11-12T09:47:58Z</time>
      </trkpt>
      <trkpt lat="47.86555" lon="-4.05821">
        <ele>11</ele>
        <time>2022-11-12T09:47:59Z</time>
      </trkpt>
      <trkpt lat="47.8656" lon="-4.05822">
        <ele>11.1</ele>
        <time>2022-11-12T09:48:00Z</time>
      </trkpt>
      <trkpt lat="47.86565" lon="-4.05821">
        <ele>11.2</ele>
        <time>2022-11-12T09:48:01Z</time>
      </trkpt>
      <trkpt lat="47.86571" lon="-4.05821">
        <ele>11.3</ele>
        <time>2022-11-12T09:48:02Z</time>
      </trkpt>
      <trkpt lat="47.86575" lon="-4.05823">
        <ele>11.4</ele>
        <time>2022-11-12T09:48:03Z</time>
      </trkpt>
      <trkpt lat="47.8658" lon="-4.05824">
        <ele>11.5</ele>
        <time>2022-11-12T09:48:04Z</time>
      </trkpt>
      <trkpt lat="47.86586" lon="-4.05825">
        <ele>11.6</ele>
        <time>2022-11-12T09:48:05Z</time>
      </trkpt>
      <trkpt lat="47.86591" lon="-4.05827">
        <ele>11.7</ele>
        <time>2022-11-12T09:48:06Z</time>
      </trkpt>
      <trkpt lat="47.86597" lon="-4.05828">
        <ele>11.8</ele>
        <time>2022-11-12T09:48:07Z</time>
      </trkpt>
      <trkpt lat="47.86602" lon="-4.05829">
        <ele>11.8</ele>
        <time>2022-11-12T09:48:08Z</time>
      </trkpt>
      <trkpt lat="47.86608" lon="-4.0583">
        <ele>11.9</ele>
        <time>2022-11-12T09:48:09Z</time>
      </trkpt>
      <trkpt lat="47.86613" lon="-4.05832">
        <ele>12</ele>
        <time>2022-11-12T09:48:10Z</time>
      </trkpt>
      <trkpt lat="47.86618" lon="-4.05833">
        <ele>12.1</ele>
        <time>2022-11-12T09:48:11Z</time>
      </trkpt>
      <trkpt lat="47.86624" lon="-4.05835">
        <ele>12.2</ele>
        <time>2022-11-12T09:48:12Z</time>
      </trkpt>
      <trkpt lat="47.86629" lon="-4.05838">
        <ele>12.2</ele>
        <time>2022-11-12T09:48:13Z</time>
      </trkpt>
      <trkpt lat="47.86633" lon="-4.05843">
        <ele>12.2</ele>
        <time>2022-11-12T09:48:14Z</time>
      </trkpt>
      <trkpt lat="47.86636" lon="-4.05851">
        <ele>12.1</ele>
        <time>2022-11-12T09:48:15Z</time>
      </trkpt>
      <trkpt lat="47.86637" lon="-4.05859">
        <ele>12</ele>
        <time>2022-11-12T09:48:16Z</time>
      </trkpt>
      <trkpt lat="47.86637" lon="-4.05867">
        <ele>11.9</ele>
        <time>2022-11-12T09:48:17Z</time>
      </trkpt>
      <trkpt lat="47.86638" lon="-4.05875">
        <ele>11.8</ele>
        <time>2022-11-12T09:48:18Z</time>
      </trkpt>
      <trkpt lat="47.86638" lon="-4.05884">
        <ele>11.7</ele>
        <time>2022-11-12T09:48:19Z</time>
      </trkpt>
      <trkpt lat="47.86638" lon="-4.05892">
        <ele>11.6</ele>
        <time>2022-11-12T09:48:20Z</time>
      </trkpt>
      <trkpt lat="47.86638" lon="-4.059">
        <ele>11.5</ele>
        <time>2022-11-12T09:48:21Z</time>
      </trkpt>
      <trkpt lat="47.86638" lon="-4.05909">
        <ele>11.4</ele>
        <time>2022-11-12T09:48:22Z</time>
      </trkpt>
      <trkpt lat="47.86638" lon="-4.05919">
        <ele>11.3</ele>
        <time>2022-11-12T09:48:23Z</time>
      </trkpt>
      <trkpt lat="47.86638" lon="-4.05928">
        <ele>11.2</ele>
        <time>2022-11-12T09:48:24Z</time>
      </trkpt>
      <trkpt lat="47.86637" lon="-4.05937">
        <ele>11</ele>
        <time>2022-11-12T09:48:25Z</time>
      </trkpt>
      <trkpt lat="47.86637" lon="-4.05946">
        <ele>10.9</ele>
        <time>2022-11-12T09:48:26Z</time>
      </trkpt>
      <trkpt lat="47.86636" lon="-4.05954">
        <ele>10.8</ele>
        <time>2022-11-12T09:48:27Z</time>
      </trkpt>
      <trkpt lat="47.86636" lon="-4.05963">
        <ele>10.7</ele>
        <time>2022-11-12T09:48:28Z</time>
      </trkpt>
      <trkpt lat="47.86635" lon="-4.05972">
        <ele>10.6</ele>
        <time>2022-11-12T09:48:29Z</time>
      </trkpt>
      <trkpt lat="47.86633" lon="-4.05982">
        <ele>10.4</ele>
        <time>2022-11-12T09:48:30Z</time>
      </trkpt>
      <trkpt lat="47.86629" lon="-4.0599">
        <ele>10.3</ele>
        <time>2022-11-12T09:48:31Z</time>
      </trkpt>
      <trkpt lat="47.86625" lon="-4.05998">
        <ele>10.2</ele>
        <time>2022-11-12T09:48:32Z</time>
      </trkpt>
      <trkpt lat="47.8662" lon="-4.06005">
        <ele>10.1</ele>
        <time>2022-11-12T09:48:33Z</time>
      </trkpt>
      <trkpt lat="47.86615" lon="-4.06011">
        <ele>10</ele>
        <time>2022-11-12T09:48:34Z</time>
      </trkpt>
      <trkpt lat="47.8661" lon="-4.06018">
        <ele>9.9</ele>
        <time>2022-11-12T09:48:35Z</time>
      </trkpt>
      <trkpt lat="47.86606" lon="-4.06025">
        <ele>9.7</ele>
        <time>2022-11-12T09:48:36Z</time>
      </trkpt>
      <trkpt lat="47.86601" lon="-4.06032">
        <ele>9.6</ele>
        <time>2022-11-12T09:48:37Z</time>
      </trkpt>
      <trkpt lat="47.86597" lon="-4.06041">
        <ele>9.4</ele>
        <time>2022-11-12T09:48:38Z</time>
      </trkpt>
      <trkpt lat="47.86595" lon="-4.06051">
        <ele>9.1</ele>
        <time>2022-11-12T09:48:39Z</time>
      </trkpt>
      <trkpt lat="47.86595" lon="-4.06062">
        <ele>8.9</ele>
        <time>2022-11-12T09:48:40Z</time>
      </trkpt>
      <trkpt lat="47.86597" lon="-4.06073">
        <ele>8.5</ele>
        <time>2022-11-12T09:48:41Z</time>
      </trkpt>
      <trkpt lat="47.866" lon="-4.06084">
        <ele>8.1</ele>
        <time>2022-11-12T09:48:42Z</time>
      </trkpt>
      <trkpt lat="47.86602" lon="-4.06094">
        <ele>7.8</ele>
        <time>2022-11-12T09:48:43Z</time>
      </trkpt>
      <trkpt lat="47.86605" lon="-4.06104">
        <ele>7.5</ele>
        <time>2022-11-12T09:48:44Z</time>
      </trkpt>
      <trkpt lat="47.86609" lon="-4.06114">
        <ele>7.1</ele>
        <time>2022-11-12T09:48:45Z</time>
      </trkpt>
      <trkpt lat="47.86613" lon="-4.06125">
        <ele>6.5</ele>
        <time>2022-11-12T09:48:46Z</time>
      </trkpt>
      <trkpt lat="47.86616" lon="-4.06135">
        <ele>6.1</ele>
        <time>2022-11-12T09:48:47Z</time>
      </trkpt>
      <trkpt lat="47.86617" lon="-4.06144">
        <ele>5.8</ele>
        <time>2022-11-12T09:48:48Z</time>
      </trkpt>
      <trkpt lat="47.86616" lon="-4.06152">
        <ele>5.6</ele>
        <time>2022-11-12T09:48:49Z</time>
      </trkpt>
      <trkpt lat="47.86613" lon="-4.0616">
        <ele>5.3</ele>
        <time>2022-11-12T09:48:50Z</time>
      </trkpt>
      <trkpt lat="47.86608" lon="-4.06167">
        <ele>5.1</ele>
        <time>2022-11-12T09:48:51Z</time>
      </trkpt>
      <trkpt lat="47.86603" lon="-4.06172">
        <ele>5</ele>
        <time>2022-11-12T09:48:52Z</time>
      </trkpt>
      <trkpt lat="47.86599" lon="-4.06176">
        <ele>4.9</ele>
        <time>2022-11-12T09:48:53Z</time>
      </trkpt>
      <trkpt lat="47.86597" lon="-4.06181">
        <ele>4.9</ele>
        <time>2022-11-12T09:48:54Z</time>
      </trkpt>
      <trkpt lat="47.86597" lon="-4.06186">
        <ele>4.8</ele>
        <time>2022-11-12T09:48:55Z</time>
      </trkpt>
      <trkpt lat="47.866" lon="-4.06194">
        <ele>4.8</ele>
        <time>2022-11-12T09:48:56Z</time>
      </trkpt>
      <trkpt lat="47.86604" lon="-4.06198">
        <ele>4.8</ele>
        <time>2022-11-12T09:48:57Z</time>
      </trkpt>
      <trkpt lat="47.86609" lon="-4.06199">
        <ele>5</ele>
        <time>2022-11-12T09:48:58Z</time>
      </trkpt>
      <trkpt lat="47.86613" lon="-4.062">
        <ele>5.2</ele>
        <time>2022-11-12T09:48:59Z</time>
      </trkpt>
      <trkpt lat="47.86617" lon="-4.062">
        <ele>5.4</ele>
        <time>2022-11-12T09:49:00Z</time>
      </trkpt>
      <trkpt lat="47.8662" lon="-4.06201">
        <ele>5.5</ele>
        <time>2022-11-12T09:49:01Z</time>
      </trkpt>
      <trkpt lat="47.86625" lon="-4.06204">
        <ele>5.8</ele>
        <time>2022-11-12T09:49:02Z</time>
      </trkpt>
      <trkpt lat="47.86629" lon="-4.06205">
        <ele>6</ele>
        <time>2022-11-12T09:49:03Z</time>
      </trkpt>
      <trkpt lat="47.8664" lon="-4.06208">
        <ele>6.8</ele>
        <time>2022-11-12T09:49:05Z</time>
      </trkpt>
      <trkpt lat="47.86644" lon="-4.06209">
        <ele>7.1</ele>
        <time>2022-11-12T09:49:06Z</time>
      </trkpt>
      <trkpt lat="47.86647" lon="-4.06209">
        <ele>7.3</ele>
        <time>2022-11-12T09:49:07Z</time>
      </trkpt>
      <trkpt lat="47.86649" lon="-4.0621">
        <ele>7.4</ele>
        <time>2022-11-12T09:49:08Z</time>
      </trkpt>
      <trkpt lat="47.86655" lon="-4.06209">
        <ele>7.8</ele>
        <time>2022-11-12T09:49:09Z</time>
      </trkpt>
      <trkpt lat="47.86659" lon="-4.0621">
        <ele>8</ele>
        <time>2022-11-12T09:49:10Z</time>
      </trkpt>
      <trkpt lat="47.86665" lon="-4.06209">
        <ele>8.2</ele>
        <time>2022-11-12T09:49:11Z</time>
      </trkpt>
      <trkpt lat="47.86671" lon="-4.06208">
        <ele>8.5</ele>
        <time>2022-11-12T09:49:12Z</time>
      </trkpt>
      <trkpt lat="47.86677" lon="-4.06206">
        <ele>8.6</ele>
        <time>2022-11-12T09:49:13Z</time>
      </trkpt>
      <trkpt lat="47.86682" lon="-4.06204">
        <ele>8.8</ele>
        <time>2022-11-12T09:49:14Z</time>
      </trkpt>
      <trkpt lat="47.86686" lon="-4.06202">
        <ele>8.9</ele>
        <time>2022-11-12T09:49:15Z</time>
      </trkpt>
      <trkpt lat="47.8669" lon="-4.062">
        <ele>9</ele>
        <time>2022-11-12T09:49:16Z</time>
      </trkpt>
      <trkpt lat="47.86694" lon="-4.062">
        <ele>9.1</ele>
        <time>2022-11-12T09:49:17Z</time>
      </trkpt>
      <trkpt lat="47.86696" lon="-4.06199">
        <ele>9.1</ele>
        <time>2022-11-12T09:49:18Z</time>
      </trkpt>
      <trkpt lat="47.86702" lon="-4.06198">
        <ele>9.2</ele>
        <time>2022-11-12T09:49:20Z</time>
      </trkpt>
      <trkpt lat="47.8671" lon="-4.06195">
        <ele>9.4</ele>
        <time>2022-11-12T09:49:21Z</time>
      </trkpt>
      <trkpt lat="47.86712" lon="-4.06196">
        <ele>9.4</ele>
        <time>2022-11-12T09:49:22Z</time>
      </trkpt>
      <trkpt lat="47.86719" lon="-4.06197">
        <ele>9.5</ele>
        <time>2022-11-12T09:49:24Z</time>
      </trkpt>
      <trkpt lat="47.86722" lon="-4.06201">
        <ele>9.4</ele>
        <time>2022-11-12T09:49:25Z</time>
      </trkpt>
      <trkpt lat="47.86723" lon="-4.06207">
        <ele>9.4</ele>
        <time>2022-11-12T09:49:26Z</time>
      </trkpt>
      <trkpt lat="47.86723" lon="-4.06222">
        <ele>9.1</ele>
        <time>2022-11-12T09:49:27Z</time>
      </trkpt>
      <trkpt lat="47.86724" lon="-4.0623">
        <ele>8.9</ele>
        <time>2022-11-12T09:49:28Z</time>
      </trkpt>
      <trkpt lat="47.86725" lon="-4.06238">
        <ele>8.7</ele>
        <time>2022-11-12T09:49:29Z</time>
      </trkpt>
      <trkpt lat="47.86726" lon="-4.06247">
        <ele>8.5</ele>
        <time>2022-11-12T09:49:30Z</time>
      </trkpt>
      <trkpt lat="47.86726" lon="-4.06256">
        <ele>8.2</ele>
        <time>2022-11-12T09:49:31Z</time>
      </trkpt>
      <trkpt lat="47.86727" lon="-4.06266">
        <ele>7.8</ele>
        <time>2022-11-12T09:49:32Z</time>
      </trkpt>
      <trkpt lat="47.86728" lon="-4.06276">
        <ele>7.3</ele>
        <time>2022-11-12T09:49:33Z</time>
      </trkpt>
      <trkpt lat="47.86729" lon="-4.06286">
        <ele>6.7</ele>
        <time>2022-11-12T09:49:34Z</time>
      </trkpt>
      <trkpt lat="47.86732" lon="-4.06297">
        <ele>6</ele>
        <time>2022-11-12T09:49:35Z</time>
      </trkpt>
      <trkpt lat="47.86737" lon="-4.06308">
        <ele>5.3</ele>
        <time>2022-11-12T09:49:36Z</time>
      </trkpt>
      <trkpt lat="47.86741" lon="-4.06319">
        <ele>5</ele>
        <time>2022-11-12T09:49:37Z</time>
      </trkpt>
      <trkpt lat="47.86745" lon="-4.0633">
        <ele>4.9</ele>
        <time>2022-11-12T09:49:38Z</time>
      </trkpt>
      <trkpt lat="47.8675" lon="-4.06341">
        <ele>4.9</ele>
        <time>2022-11-12T09:49:39Z</time>
      </trkpt>
      <trkpt lat="47.86753" lon="-4.06352">
        <ele>5</ele>
        <time>2022-11-12T09:49:40Z</time>
      </trkpt>
      <trkpt lat="47.86754" lon="-4.06363">
        <ele>5.1</ele>
        <time>2022-11-12T09:49:41Z</time>
      </trkpt>
      <trkpt lat="47.86754" lon="-4.06372">
        <ele>5.1</ele>
        <time>2022-11-12T09:49:42Z</time>
      </trkpt>
      <trkpt lat="47.86754" lon="-4.06378">
        <ele>5.3</ele>
        <time>2022-11-12T09:49:43Z</time>
      </trkpt>
      <trkpt lat="47.86751" lon="-4.06382">
        <ele>5.3</ele>
        <time>2022-11-12T09:49:44Z</time>
      </trkpt>
      <trkpt lat="47.8675" lon="-4.06382">
        <ele>5.3</ele>
        <time>2022-11-12T09:49:45Z</time>
      </trkpt>
      <trkpt lat="47.86747" lon="-4.06382">
        <ele>5.3</ele>
        <time>2022-11-12T09:49:46Z</time>
      </trkpt>
      <trkpt lat="47.86745" lon="-4.06382">
        <ele>5.3</ele>
        <time>2022-11-12T09:49:47Z</time>
      </trkpt>
      <trkpt lat="47.86741" lon="-4.06381">
        <ele>5.3</ele>
        <time>2022-11-12T09:49:48Z</time>
      </trkpt>
      <trkpt lat="47.86734" lon="-4.06382">
        <ele>5.2</ele>
        <time>2022-11-12T09:49:49Z</time>
      </trkpt>
      <trkpt lat="47.86727" lon="-4.06383">
        <ele>5</ele>
        <time>2022-11-12T09:49:50Z</time>
      </trkpt>
      <trkpt lat="47.8672" lon="-4.06384">
        <ele>4.7</ele>
        <time>2022-11-12T09:49:51Z</time>
      </trkpt>
      <trkpt lat="47.86713" lon="-4.06386">
        <ele>4.5</ele>
        <time>2022-11-12T09:49:52Z</time>
      </trkpt>
      <trkpt lat="47.86706" lon="-4.06388">
        <ele>4.3</ele>
        <time>2022-11-12T09:49:53Z</time>
      </trkpt>
      <trkpt lat="47.86699" lon="-4.06389">
        <ele>4.2</ele>
        <time>2022-11-12T09:49:54Z</time>
      </trkpt>
      <trkpt lat="47.86692" lon="-4.06391">
        <ele>4.1</ele>
        <time>2022-11-12T09:49:55Z</time>
      </trkpt>
      <trkpt lat="47.86685" lon="-4.06393">
        <ele>4.1</ele>
        <time>2022-11-12T09:49:56Z</time>
      </trkpt>
      <trkpt lat="47.86679" lon="-4.06392">
        <ele>4.1</ele>
        <time>2022-11-12T09:49:57Z</time>
      </trkpt>
      <trkpt lat="47.86672" lon="-4.06391">
        <ele>4.1</ele>
        <time>2022-11-12T09:49:58Z</time>
      </trkpt>
      <trkpt lat="47.86666" lon="-4.06394">
        <ele>4.1</ele>
        <time>2022-11-12T09:49:59Z</time>
      </trkpt>
      <trkpt lat="47.8666" lon="-4.06397">
        <ele>4.1</ele>
        <time>2022-11-12T09:50:00Z</time>
      </trkpt>
      <trkpt lat="47.86652" lon="-4.06398">
        <ele>4.1</ele>
        <time>2022-11-12T09:50:01Z</time>
      </trkpt>
      <trkpt lat="47.86645" lon="-4.06401">
        <ele>4.2</ele>
        <time>2022-11-12T09:50:02Z</time>
      </trkpt>
      <trkpt lat="47.86641" lon="-4.06403">
        <ele>4.2</ele>
        <time>2022-11-12T09:50:03Z</time>
      </trkpt>
      <trkpt lat="47.86638" lon="-4.06406">
        <ele>4.2</ele>
        <time>2022-11-12T09:50:04Z</time>
      </trkpt>
      <trkpt lat="47.86635" lon="-4.06411">
        <ele>4.3</ele>
        <time>2022-11-12T09:50:05Z</time>
      </trkpt>
      <trkpt lat="47.86634" lon="-4.06413">
        <ele>4.3</ele>
        <time>2022-11-12T09:50:06Z</time>
      </trkpt>
      <trkpt lat="47.8663" lon="-4.06416">
        <ele>4.4</ele>
        <time>2022-11-12T09:50:07Z</time>
      </trkpt>
      <trkpt lat="47.86624" lon="-4.06418">
        <ele>4.4</ele>
        <time>2022-11-12T09:50:08Z</time>
      </trkpt>
      <trkpt lat="47.86618" lon="-4.06418">
        <ele>4.5</ele>
        <time>2022-11-12T09:50:09Z</time>
      </trkpt>
      <trkpt lat="47.86612" lon="-4.06418">
        <ele>4.6</ele>
        <time>2022-11-12T09:50:10Z</time>
      </trkpt>
      <trkpt lat="47.86606" lon="-4.06418">
        <ele>4.7</ele>
        <time>2022-11-12T09:50:11Z</time>
      </trkpt>
      <trkpt lat="47.866" lon="-4.06418">
        <ele>4.7</ele>
        <time>2022-11-12T09:50:12Z</time>
      </trkpt>
      <trkpt lat="47.86594" lon="-4.06417">
        <ele>4.8</ele>
        <time>2022-11-12T09:50:13Z</time>
      </trkpt>
      <trkpt lat="47.8659" lon="-4.06419">
        <ele>4.8</ele>
        <time>2022-11-12T09:50:14Z</time>
      </trkpt>
      <trkpt lat="47.86585" lon="-4.06422">
        <ele>4.8</ele>
        <time>2022-11-12T09:50:15Z</time>
      </trkpt>
      <trkpt lat="47.86583" lon="-4.06431">
        <ele>4.9</ele>
        <time>2022-11-12T09:50:17Z</time>
      </trkpt>
      <trkpt lat="47.86583" lon="-4.06435">
        <ele>4.9</ele>
        <time>2022-11-12T09:50:18Z</time>
      </trkpt>
      <trkpt lat="47.86583" lon="-4.06441">
        <ele>4.9</ele>
        <time>2022-11-12T09:50:19Z</time>
      </trkpt>
      <trkpt lat="47.86582" lon="-4.06447">
        <ele>5</ele>
        <time>2022-11-12T09:50:20Z</time>
      </trkpt>
      <trkpt lat="47.86581" lon="-4.06454">
        <ele>5.2</ele>
        <time>2022-11-12T09:50:21Z</time>
      </trkpt>
      <trkpt lat="47.86581" lon="-4.06463">
        <ele>5.4</ele>
        <time>2022-11-12T09:50:23Z</time>
      </trkpt>
      <trkpt lat="47.8658" lon="-4.06472">
        <ele>5.6</ele>
        <time>2022-11-12T09:50:24Z</time>
      </trkpt>
      <trkpt lat="47.8658" lon="-4.06476">
        <ele>5.7</ele>
        <time>2022-11-12T09:50:25Z</time>
      </trkpt>
      <trkpt lat="47.8658" lon="-4.06481">
        <ele>5.9</ele>
        <time>2022-11-12T09:50:26Z</time>
      </trkpt>
      <trkpt lat="47.8658" lon="-4.06492">
        <ele>6.2</ele>
        <time>2022-11-12T09:50:27Z</time>
      </trkpt>
      <trkpt lat="47.8658" lon="-4.06501">
        <ele>6.4</ele>
        <time>2022-11-12T09:50:28Z</time>
      </trkpt>
      <trkpt lat="47.8658" lon="-4.06509">
        <ele>6.6</ele>
        <time>2022-11-12T09:50:29Z</time>
      </trkpt>
      <trkpt lat="47.86579" lon="-4.06517">
        <ele>6.8</ele>
        <time>2022-11-12T09:50:30Z</time>
      </trkpt>
      <trkpt lat="47.86577" lon="-4.06525">
        <ele>7</ele>
        <time>2022-11-12T09:50:31Z</time>
      </trkpt>
      <trkpt lat="47.86576" lon="-4.06532">
        <ele>7</ele>
        <time>2022-11-12T09:50:32Z</time>
      </trkpt>
      <trkpt lat="47.86575" lon="-4.0654">
        <ele>7</ele>
        <time>2022-11-12T09:50:33Z</time>
      </trkpt>
      <trkpt lat="47.86574" lon="-4.06547">
        <ele>7.1</ele>
        <time>2022-11-12T09:50:34Z</time>
      </trkpt>
      <trkpt lat="47.86573" lon="-4.06555">
        <ele>7.1</ele>
        <time>2022-11-12T09:50:35Z</time>
      </trkpt>
      <trkpt lat="47.86572" lon="-4.06562">
        <ele>7.2</ele>
        <time>2022-11-12T09:50:36Z</time>
      </trkpt>
      <trkpt lat="47.86571" lon="-4.0657">
        <ele>7.2</ele>
        <time>2022-11-12T09:50:37Z</time>
      </trkpt>
      <trkpt lat="47.8657" lon="-4.06577">
        <ele>7.3</ele>
        <time>2022-11-12T09:50:38Z</time>
      </trkpt>
      <trkpt lat="47.86569" lon="-4.06585">
        <ele>7.3</ele>
        <time>2022-11-12T09:50:39Z</time>
      </trkpt>
      <trkpt lat="47.86568" lon="-4.06593">
        <ele>7.3</ele>
        <time>2022-11-12T09:50:40Z</time>
      </trkpt>
      <trkpt lat="47.86567" lon="-4.066">
        <ele>7.3</ele>
        <time>2022-11-12T09:50:41Z</time>
      </trkpt>
      <trkpt lat="47.86565" lon="-4.06607">
        <ele>7.3</ele>
        <time>2022-11-12T09:50:42Z</time>
      </trkpt>
      <trkpt lat="47.86563" lon="-4.06613">
        <ele>7.3</ele>
        <time>2022-11-12T09:50:43Z</time>
      </trkpt>
      <trkpt lat="47.86559" lon="-4.06618">
        <ele>7.2</ele>
        <time>2022-11-12T09:50:44Z</time>
      </trkpt>
      <trkpt lat="47.86555" lon="-4.06621">
        <ele>7.2</ele>
        <time>2022-11-12T09:50:45Z</time>
      </trkpt>
      <trkpt lat="47.8655" lon="-4.06625">
        <ele>7.2</ele>
        <time>2022-11-12T09:50:46Z</time>
      </trkpt>
      <trkpt lat="47.86545" lon="-4.06628">
        <ele>7.1</ele>
        <time>2022-11-12T09:50:47Z</time>
      </trkpt>
      <trkpt lat="47.8654" lon="-4.06631">
        <ele>7.1</ele>
        <time>2022-11-12T09:50:48Z</time>
      </trkpt>
      <trkpt lat="47.86536" lon="-4.06638">
        <ele>7</ele>
        <time>2022-11-12T09:50:49Z</time>
      </trkpt>
      <trkpt lat="47.86533" lon="-4.06645">
        <ele>6.9</ele>
        <time>2022-11-12T09:50:50Z</time>
      </trkpt>
      <trkpt lat="47.86531" lon="-4.06654">
        <ele>6.8</ele>
        <time>2022-11-12T09:50:51Z</time>
      </trkpt>
      <trkpt lat="47.8653" lon="-4.06663">
        <ele>6.7</ele>
        <time>2022-11-12T09:50:52Z</time>
      </trkpt>
      <trkpt lat="47.8653" lon="-4.06672">
        <ele>6.6</ele>
        <time>2022-11-12T09:50:53Z</time>
      </trkpt>
      <trkpt lat="47.8653" lon="-4.06682">
        <ele>6.5</ele>
        <time>2022-11-12T09:50:54Z</time>
      </trkpt>
      <trkpt lat="47.8653" lon="-4.06693">
        <ele>6.4</ele>
        <time>2022-11-12T09:50:55Z</time>
      </trkpt>
      <trkpt lat="47.86529" lon="-4.06703">
        <ele>6.3</ele>
        <time>2022-11-12T09:50:56Z</time>
      </trkpt>
      <trkpt lat="47.86527" lon="-4.06712">
        <ele>6.3</ele>
        <time>2022-11-12T09:50:57Z</time>
      </trkpt>
      <trkpt lat="47.86524" lon="-4.06721">
        <ele>6.2</ele>
        <time>2022-11-12T09:50:58Z</time>
      </trkpt>
      <trkpt lat="47.8652" lon="-4.06729">
        <ele>6.2</ele>
        <time>2022-11-12T09:50:59Z</time>
      </trkpt>
      <trkpt lat="47.86516" lon="-4.06737">
        <ele>6.1</ele>
        <time>2022-11-12T09:51:00Z</time>
      </trkpt>
      <trkpt lat="47.86513" lon="-4.06745">
        <ele>6</ele>
        <time>2022-11-12T09:51:01Z</time>
      </trkpt>
      <trkpt lat="47.86509" lon="-4.06753">
        <ele>5.9</ele>
        <time>2022-11-12T09:51:02Z</time>
      </trkpt>
      <trkpt lat="47.86506" lon="-4.06761">
        <ele>5.9</ele>
        <time>2022-11-12T09:51:03Z</time>
      </trkpt>
      <trkpt lat="47.86504" lon="-4.0677">
        <ele>5.9</ele>
        <time>2022-11-12T09:51:04Z</time>
      </trkpt>
      <trkpt lat="47.86504" lon="-4.06778">
        <ele>5.9</ele>
        <time>2022-11-12T09:51:05Z</time>
      </trkpt>
      <trkpt lat="47.86506" lon="-4.06785">
        <ele>6</ele>
        <time>2022-11-12T09:51:06Z</time>
      </trkpt>
      <trkpt lat="47.86508" lon="-4.0679">
        <ele>6.1</ele>
        <time>2022-11-12T09:51:07Z</time>
      </trkpt>
      <trkpt lat="47.86512" lon="-4.06794">
        <ele>6.3</ele>
        <time>2022-11-12T09:51:08Z</time>
      </trkpt>
      <trkpt lat="47.86517" lon="-4.06796">
        <ele>6.4</ele>
        <time>2022-11-12T09:51:09Z</time>
      </trkpt>
      <trkpt lat="47.8652" lon="-4.06799">
        <ele>6.5</ele>
        <time>2022-11-12T09:51:10Z</time>
      </trkpt>
      <trkpt lat="47.86523" lon="-4.06801">
        <ele>6.6</ele>
        <time>2022-11-12T09:51:11Z</time>
      </trkpt>
      <trkpt lat="47.86527" lon="-4.06806">
        <ele>6.7</ele>
        <time>2022-11-12T09:51:12Z</time>
      </trkpt>
      <trkpt lat="47.86533" lon="-4.0681">
        <ele>6.9</ele>
        <time>2022-11-12T09:51:13Z</time>
      </trkpt>
      <trkpt lat="47.86538" lon="-4.06814">
        <ele>7.1</ele>
        <time>2022-11-12T09:51:14Z</time>
      </trkpt>
      <trkpt lat="47.86543" lon="-4.06818">
        <ele>7.2</ele>
        <time>2022-11-12T09:51:15Z</time>
      </trkpt>
      <trkpt lat="47.86548" lon="-4.06822">
        <ele>7.3</ele>
        <time>2022-11-12T09:51:16Z</time>
      </trkpt>
      <trkpt lat="47.86554" lon="-4.06826">
        <ele>7.4</ele>
        <time>2022-11-12T09:51:17Z</time>
      </trkpt>
      <trkpt lat="47.8656" lon="-4.0683">
        <ele>7.6</ele>
        <time>2022-11-12T09:51:18Z</time>
      </trkpt>
      <trkpt lat="47.86566" lon="-4.06833">
        <ele>7.7</ele>
        <time>2022-11-12T09:51:19Z</time>
      </trkpt>
      <trkpt lat="47.86572" lon="-4.06835">
        <ele>7.8</ele>
        <time>2022-11-12T09:51:20Z</time>
      </trkpt>
      <trkpt lat="47.86578" lon="-4.06836">
        <ele>7.9</ele>
        <time>2022-11-12T09:51:21Z</time>
      </trkpt>
      <trkpt lat="47.86584" lon="-4.06837">
        <ele>8</ele>
        <time>2022-11-12T09:51:22Z</time>
      </trkpt>
      <trkpt lat="47.8659" lon="-4.06838">
        <ele>8.1</ele>
        <time>2022-11-12T09:51:23Z</time>
      </trkpt>
      <trkpt lat="47.86596" lon="-4.06837">
        <ele>8.2</ele>
        <time>2022-11-12T09:51:24Z</time>
      </trkpt>
      <trkpt lat="47.86601" lon="-4.06836">
        <ele>8.3</ele>
        <time>2022-11-12T09:51:25Z</time>
      </trkpt>
      <trkpt lat="47.86607" lon="-4.06834">
        <ele>8.4</ele>
        <time>2022-11-12T09:51:26Z</time>
      </trkpt>
      <trkpt lat="47.86613" lon="-4.06832">
        <ele>8.6</ele>
        <time>2022-11-12T09:51:27Z</time>
      </trkpt>
      <trkpt lat="47.86619" lon="-4.0683">
        <ele>8.7</ele>
        <time>2022-11-12T09:51:28Z</time>
      </trkpt>
      <trkpt lat="47.86625" lon="-4.06827">
        <ele>8.8</ele>
        <time>2022-11-12T09:51:29Z</time>
      </trkpt>
      <trkpt lat="47.86631" lon="-4.06824">
        <ele>9</ele>
        <time>2022-11-12T09:51:30Z</time>
      </trkpt>
      <trkpt lat="47.86636" lon="-4.06822">
        <ele>9.1</ele>
        <time>2022-11-12T09:51:31Z</time>
      </trkpt>
      <trkpt lat="47.86642" lon="-4.0682">
        <ele>9.2</ele>
        <time>2022-11-12T09:51:32Z</time>
      </trkpt>
      <trkpt lat="47.86648" lon="-4.06816">
        <ele>9.4</ele>
        <time>2022-11-12T09:51:33Z</time>
      </trkpt>
      <trkpt lat="47.86654" lon="-4.06812">
        <ele>9.5</ele>
        <time>2022-11-12T09:51:34Z</time>
      </trkpt>
      <trkpt lat="47.86659" lon="-4.06808">
        <ele>9.6</ele>
        <time>2022-11-12T09:51:35Z</time>
      </trkpt>
      <trkpt lat="47.86665" lon="-4.06802">
        <ele>9.7</ele>
        <time>2022-11-12T09:51:36Z</time>
      </trkpt>
      <trkpt lat="47.86669" lon="-4.06796">
        <ele>9.9</ele>
        <time>2022-11-12T09:51:37Z</time>
      </trkpt>
      <trkpt lat="47.86673" lon="-4.0679">
        <ele>10</ele>
        <time>2022-11-12T09:51:38Z</time>
      </trkpt>
      <trkpt lat="47.86678" lon="-4.06783">
        <ele>10.1</ele>
        <time>2022-11-12T09:51:39Z</time>
      </trkpt>
      <trkpt lat="47.86682" lon="-4.06777">
        <ele>10.2</ele>
        <time>2022-11-12T09:51:40Z</time>
      </trkpt>
      <trkpt lat="47.86686" lon="-4.0677">
        <ele>10.3</ele>
        <time>2022-11-12T09:51:41Z</time>
      </trkpt>
      <trkpt lat="47.8669" lon="-4.06764">
        <ele>10.5</ele>
        <time>2022-11-12T09:51:42Z</time>
      </trkpt>
      <trkpt lat="47.86694" lon="-4.06758">
        <ele>10.6</ele>
        <time>2022-11-12T09:51:43Z</time>
      </trkpt>
      <trkpt lat="47.86698" lon="-4.06752">
        <ele>10.8</ele>
        <time>2022-11-12T09:51:44Z</time>
      </trkpt>
      <trkpt lat="47.86702" lon="-4.06746">
        <ele>10.9</ele>
        <time>2022-11-12T09:51:45Z</time>
      </trkpt>
      <trkpt lat="47.86706" lon="-4.0674">
        <ele>11</ele>
        <time>2022-11-12T09:51:46Z</time>
      </trkpt>
      <trkpt lat="47.86709" lon="-4.06735">
        <ele>11.2</ele>
        <time>2022-11-12T09:51:47Z</time>
      </trkpt>
      <trkpt lat="47.86713" lon="-4.06729">
        <ele>11.3</ele>
        <time>2022-11-12T09:51:48Z</time>
      </trkpt>
      <trkpt lat="47.86717" lon="-4.06723">
        <ele>11.5</ele>
        <time>2022-11-12T09:51:49Z</time>
      </trkpt>
      <trkpt lat="47.86721" lon="-4.06717">
        <ele>11.6</ele>
        <time>2022-11-12T09:51:50Z</time>
      </trkpt>
      <trkpt lat="47.86725" lon="-4.06711">
        <ele>11.7</ele>
        <time>2022-11-12T09:51:51Z</time>
      </trkpt>
      <trkpt lat="47.86729" lon="-4.06705">
        <ele>11.8</ele>
        <time>2022-11-12T09:51:52Z</time>
      </trkpt>
      <trkpt lat="47.86733" lon="-4.06699">
        <ele>11.8</ele>
        <time>2022-11-12T09:51:53Z</time>
      </trkpt>
      <trkpt lat="47.86738" lon="-4.06694">
        <ele>11.9</ele>
        <time>2022-11-12T09:51:54Z</time>
      </trkpt>
      <trkpt lat="47.86743" lon="-4.06688">
        <ele>12</ele>
        <time>2022-11-12T09:51:55Z</time>
      </trkpt>
      <trkpt lat="47.86748" lon="-4.06682">
        <ele>12</ele>
        <time>2022-11-12T09:51:56Z</time>
      </trkpt>
      <trkpt lat="47.86753" lon="-4.06677">
        <ele>12.1</ele>
        <time>2022-11-12T09:51:57Z</time>
      </trkpt>
      <trkpt lat="47.86758" lon="-4.06672">
        <ele>12.1</ele>
        <time>2022-11-12T09:51:58Z</time>
      </trkpt>
      <trkpt lat="47.86763" lon="-4.06667">
        <ele>12.1</ele>
        <time>2022-11-12T09:51:59Z</time>
      </trkpt>
      <trkpt lat="47.86768" lon="-4.06662">
        <ele>12.2</ele>
        <time>2022-11-12T09:52:00Z</time>
      </trkpt>
      <trkpt lat="47.86773" lon="-4.06657">
        <ele>12.2</ele>
        <time>2022-11-12T09:52:01Z</time>
      </trkpt>
      <trkpt lat="47.86779" lon="-4.06652">
        <ele>12.2</ele>
        <time>2022-11-12T09:52:02Z</time>
      </trkpt>
      <trkpt lat="47.86784" lon="-4.06648">
        <ele>12.2</ele>
        <time>2022-11-12T09:52:03Z</time>
      </trkpt>
      <trkpt lat="47.86789" lon="-4.06643">
        <ele>12.2</ele>
        <time>2022-11-12T09:52:04Z</time>
      </trkpt>
      <trkpt lat="47.86795" lon="-4.06639">
        <ele>12.2</ele>
        <time>2022-11-12T09:52:05Z</time>
      </trkpt>
      <trkpt lat="47.868" lon="-4.06634">
        <ele>12.2</ele>
        <time>2022-11-12T09:52:06Z</time>
      </trkpt>
      <trkpt lat="47.86805" lon="-4.0663">
        <ele>12.2</ele>
        <time>2022-11-12T09:52:07Z</time>
      </trkpt>
      <trkpt lat="47.86811" lon="-4.06625">
        <ele>12.2</ele>
        <time>2022-11-12T09:52:08Z</time>
      </trkpt>
      <trkpt lat="47.86816" lon="-4.0662">
        <ele>12.2</ele>
        <time>2022-11-12T09:52:09Z</time>
      </trkpt>
      <trkpt lat="47.86821" lon="-4.06615">
        <ele>12.2</ele>
        <time>2022-11-12T09:52:10Z</time>
      </trkpt>
      <trkpt lat="47.86826" lon="-4.06611">
        <ele>12.2</ele>
        <time>2022-11-12T09:52:11Z</time>
      </trkpt>
      <trkpt lat="47.86831" lon="-4.06606">
        <ele>12.2</ele>
        <time>2022-11-12T09:52:12Z</time>
      </trkpt>
      <trkpt lat="47.86837" lon="-4.06601">
        <ele>12.2</ele>
        <time>2022-11-12T09:52:13Z</time>
      </trkpt>
      <trkpt lat="47.86842" lon="-4.06597">
        <ele>12.2</ele>
        <time>2022-11-12T09:52:14Z</time>
      </trkpt>
      <trkpt lat="47.86847" lon="-4.06592">
        <ele>12.2</ele>
        <time>2022-11-12T09:52:15Z</time>
      </trkpt>
      <trkpt lat="47.86852" lon="-4.06587">
        <ele>12.2</ele>
        <time>2022-11-12T09:52:16Z</time>
      </trkpt>
      <trkpt lat="47.86858" lon="-4.06583">
        <ele>12.2</ele>
        <time>2022-11-12T09:52:17Z</time>
      </trkpt>
      <trkpt lat="47.86863" lon="-4.06578">
        <ele>12.2</ele>
        <time>2022-11-12T09:52:18Z</time>
      </trkpt>
      <trkpt lat="47.86868" lon="-4.06573">
        <ele>12.1</ele>
        <time>2022-11-12T09:52:19Z</time>
      </trkpt>
      <trkpt lat="47.86873" lon="-4.06568">
        <ele>12.1</ele>
        <time>2022-11-12T09:52:20Z</time>
      </trkpt>
      <trkpt lat="47.86879" lon="-4.06564">
        <ele>12.2</ele>
        <time>2022-11-12T09:52:21Z</time>
      </trkpt>
      <trkpt lat="47.86884" lon="-4.06559">
        <ele>12.2</ele>
        <time>2022-11-12T09:52:22Z</time>
      </trkpt>
      <trkpt lat="47.86889" lon="-4.06555">
        <ele>12.2</ele>
        <time>2022-11-12T09:52:23Z</time>
      </trkpt>
      <trkpt lat="47.86894" lon="-4.0655">
        <ele>12.2</ele>
        <time>2022-11-12T09:52:24Z</time>
      </trkpt>
      <trkpt lat="47.86899" lon="-4.06546">
        <ele>12.3</ele>
        <time>2022-11-12T09:52:25Z</time>
      </trkpt>
      <trkpt lat="47.86904" lon="-4.06541">
        <ele>12.3</ele>
        <time>2022-11-12T09:52:26Z</time>
      </trkpt>
      <trkpt lat="47.86909" lon="-4.06536">
        <ele>12.3</ele>
        <time>2022-11-12T09:52:27Z</time>
      </trkpt>
      <trkpt lat="47.86915" lon="-4.06532">
        <ele>12.3</ele>
        <time>2022-11-12T09:52:28Z</time>
      </trkpt>
      <trkpt lat="47.8692" lon="-4.06528">
        <ele>12.4</ele>
        <time>2022-11-12T09:52:29Z</time>
      </trkpt>
      <trkpt lat="47.86925" lon="-4.06524">
        <ele>12.4</ele>
        <time>2022-11-12T09:52:30Z</time>
      </trkpt>
      <trkpt lat="47.86931" lon="-4.0652">
        <ele>12.5</ele>
        <time>2022-11-12T09:52:31Z</time>
      </trkpt>
      <trkpt lat="47.86936" lon="-4.06517">
        <ele>12.5</ele>
        <time>2022-11-12T09:52:32Z</time>
      </trkpt>
      <trkpt lat="47.86941" lon="-4.06514">
        <ele>12.6</ele>
        <time>2022-11-12T09:52:33Z</time>
      </trkpt>
      <trkpt lat="47.86947" lon="-4.06512">
        <ele>12.6</ele>
        <time>2022-11-12T09:52:34Z</time>
      </trkpt>
      <trkpt lat="47.86953" lon="-4.06509">
        <ele>12.7</ele>
        <time>2022-11-12T09:52:35Z</time>
      </trkpt>
      <trkpt lat="47.86959" lon="-4.06507">
        <ele>12.7</ele>
        <time>2022-11-12T09:52:36Z</time>
      </trkpt>
      <trkpt lat="47.86965" lon="-4.06505">
        <ele>12.8</ele>
        <time>2022-11-12T09:52:37Z</time>
      </trkpt>
      <trkpt lat="47.8697" lon="-4.06503">
        <ele>12.9</ele>
        <time>2022-11-12T09:52:38Z</time>
      </trkpt>
      <trkpt lat="47.86976" lon="-4.06501">
        <ele>12.9</ele>
        <time>2022-11-12T09:52:39Z</time>
      </trkpt>
      <trkpt lat="47.86982" lon="-4.06499">
        <ele>12.9</ele>
        <time>2022-11-12T09:52:40Z</time>
      </trkpt>
      <trkpt lat="47.86988" lon="-4.06497">
        <ele>13</ele>
        <time>2022-11-12T09:52:41Z</time>
      </trkpt>
      <trkpt lat="47.86994" lon="-4.06495">
        <ele>13</ele>
        <time>2022-11-12T09:52:42Z</time>
      </trkpt>
      <trkpt lat="47.87" lon="-4.06493">
        <ele>13</ele>
        <time>2022-11-12T09:52:43Z</time>
      </trkpt>
      <trkpt lat="47.87006" lon="-4.06491">
        <ele>13.1</ele>
        <time>2022-11-12T09:52:44Z</time>
      </trkpt>
      <trkpt lat="47.87012" lon="-4.0649">
        <ele>13.1</ele>
        <time>2022-11-12T09:52:45Z</time>
      </trkpt>
      <trkpt lat="47.87017" lon="-4.06487">
        <ele>13.1</ele>
        <time>2022-11-12T09:52:46Z</time>
      </trkpt>
      <trkpt lat="47.87023" lon="-4.06484">
        <ele>13.1</ele>
        <time>2022-11-12T09:52:47Z</time>
      </trkpt>
      <trkpt lat="47.87028" lon="-4.0648">
        <ele>13.1</ele>
        <time>2022-11-12T09:52:48Z</time>
      </trkpt>
      <trkpt lat="47.87033" lon="-4.06476">
        <ele>13.1</ele>
        <time>2022-11-12T09:52:49Z</time>
      </trkpt>
      <trkpt lat="47.87037" lon="-4.0647">
        <ele>13.2</ele>
        <time>2022-11-12T09:52:50Z</time>
      </trkpt>
      <trkpt lat="47.87041" lon="-4.06464">
        <ele>13.2</ele>
        <time>2022-11-12T09:52:51Z</time>
      </trkpt>
      <trkpt lat="47.87046" lon="-4.06461">
        <ele>13.2</ele>
        <time>2022-11-12T09:52:52Z</time>
      </trkpt>
      <trkpt lat="47.87051" lon="-4.06463">
        <ele>13.2</ele>
        <time>2022-11-12T09:52:53Z</time>
      </trkpt>
      <trkpt lat="47.87055" lon="-4.06469">
        <ele>13.2</ele>
        <time>2022-11-12T09:52:54Z</time>
      </trkpt>
      <trkpt lat="47.87056" lon="-4.06476">
        <ele>13.2</ele>
        <time>2022-11-12T09:52:55Z</time>
      </trkpt>
      <trkpt lat="47.87058" lon="-4.06483">
        <ele>13.2</ele>
        <time>2022-11-12T09:52:56Z</time>
      </trkpt>
      <trkpt lat="47.8706" lon="-4.06489">
        <ele>13.2</ele>
        <time>2022-11-12T09:52:57Z</time>
      </trkpt>
      <trkpt lat="47.87064" lon="-4.06497">
        <ele>13.2</ele>
        <time>2022-11-12T09:52:58Z</time>
      </trkpt>
      <trkpt lat="47.87067" lon="-4.06505">
        <ele>13.2</ele>
        <time>2022-11-12T09:52:59Z</time>
      </trkpt>
      <trkpt lat="47.8707" lon="-4.06514">
        <ele>13.1</ele>
        <time>2022-11-12T09:53:00Z</time>
      </trkpt>
      <trkpt lat="47.87073" lon="-4.06521">
        <ele>13</ele>
        <time>2022-11-12T09:53:01Z</time>
      </trkpt>
      <trkpt lat="47.87076" lon="-4.06529">
        <ele>12.9</ele>
        <time>2022-11-12T09:53:02Z</time>
      </trkpt>
      <trkpt lat="47.87079" lon="-4.06536">
        <ele>12.7</ele>
        <time>2022-11-12T09:53:03Z</time>
      </trkpt>
      <trkpt lat="47.87082" lon="-4.06545">
        <ele>12.6</ele>
        <time>2022-11-12T09:53:04Z</time>
      </trkpt>
      <trkpt lat="47.87086" lon="-4.06555">
        <ele>12.4</ele>
        <time>2022-11-12T09:53:05Z</time>
      </trkpt>
      <trkpt lat="47.87089" lon="-4.06563">
        <ele>12.3</ele>
        <time>2022-11-12T09:53:06Z</time>
      </trkpt>
      <trkpt lat="47.87093" lon="-4.06572">
        <ele>12.1</ele>
        <time>2022-11-12T09:53:07Z</time>
      </trkpt>
      <trkpt lat="47.87097" lon="-4.06582">
        <ele>12</ele>
        <time>2022-11-12T09:53:08Z</time>
      </trkpt>
      <trkpt lat="47.871" lon="-4.06591">
        <ele>11.8</ele>
        <time>2022-11-12T09:53:09Z</time>
      </trkpt>
      <trkpt lat="47.87104" lon="-4.06601">
        <ele>11.6</ele>
        <time>2022-11-12T09:53:10Z</time>
      </trkpt>
      <trkpt lat="47.87108" lon="-4.0661">
        <ele>11.3</ele>
        <time>2022-11-12T09:53:11Z</time>
      </trkpt>
      <trkpt lat="47.87111" lon="-4.0662">
        <ele>11.1</ele>
        <time>2022-11-12T09:53:12Z</time>
      </trkpt>
      <trkpt lat="47.87115" lon="-4.06631">
        <ele>10.8</ele>
        <time>2022-11-12T09:53:13Z</time>
      </trkpt>
      <trkpt lat="47.87118" lon="-4.06641">
        <ele>10.5</ele>
        <time>2022-11-12T09:53:14Z</time>
      </trkpt>
      <trkpt lat="47.87121" lon="-4.06652">
        <ele>10.3</ele>
        <time>2022-11-12T09:53:15Z</time>
      </trkpt>
      <trkpt lat="47.87125" lon="-4.06664">
        <ele>10.1</ele>
        <time>2022-11-12T09:53:16Z</time>
      </trkpt>
      <trkpt lat="47.87128" lon="-4.06675">
        <ele>10.1</ele>
        <time>2022-11-12T09:53:17Z</time>
      </trkpt>
      <trkpt lat="47.87132" lon="-4.06687">
        <ele>10.1</ele>
        <time>2022-11-12T09:53:18Z</time>
      </trkpt>
      <trkpt lat="47.87135" lon="-4.06698">
        <ele>10.1</ele>
        <time>2022-11-12T09:53:19Z</time>
      </trkpt>
      <trkpt lat="47.87139" lon="-4.06709">
        <ele>10.2</ele>
        <time>2022-11-12T09:53:20Z</time>
      </trkpt>
      <trkpt lat="47.87142" lon="-4.0672">
        <ele>10.3</ele>
        <time>2022-11-12T09:53:21Z</time>
      </trkpt>
      <trkpt lat="47.87145" lon="-4.0673">
        <ele>10.4</ele>
        <time>2022-11-12T09:53:22Z</time>
      </trkpt>
      <trkpt lat="47.87148" lon="-4.06739">
        <ele>10.6</ele>
        <time>2022-11-12T09:53:23Z</time>
      </trkpt>
      <trkpt lat="47.87151" lon="-4.06748">
        <ele>10.8</ele>
        <time>2022-11-12T09:53:24Z</time>
      </trkpt>
      <trkpt lat="47.87153" lon="-4.06757">
        <ele>11</ele>
        <time>2022-11-12T09:53:25Z</time>
      </trkpt>
      <trkpt lat="47.87155" lon="-4.06765">
        <ele>11.3</ele>
        <time>2022-11-12T09:53:26Z</time>
      </trkpt>
      <trkpt lat="47.87158" lon="-4.06773">
        <ele>11.5</ele>
        <time>2022-11-12T09:53:27Z</time>
      </trkpt>
      <trkpt lat="47.8716" lon="-4.06781">
        <ele>11.8</ele>
        <time>2022-11-12T09:53:28Z</time>
      </trkpt>
      <trkpt lat="47.87162" lon="-4.06789">
        <ele>12.1</ele>
        <time>2022-11-12T09:53:29Z</time>
      </trkpt>
      <trkpt lat="47.87165" lon="-4.06797">
        <ele>12.4</ele>
        <time>2022-11-12T09:53:30Z</time>
      </trkpt>
      <trkpt lat="47.87167" lon="-4.06805">
        <ele>12.6</ele>
        <time>2022-11-12T09:53:31Z</time>
      </trkpt>
      <trkpt lat="47.87169" lon="-4.06812">
        <ele>12.9</ele>
        <time>2022-11-12T09:53:32Z</time>
      </trkpt>
      <trkpt lat="47.87171" lon="-4.0682">
        <ele>13.1</ele>
        <time>2022-11-12T09:53:33Z</time>
      </trkpt>
      <trkpt lat="47.87174" lon="-4.06828">
        <ele>13.4</ele>
        <time>2022-11-12T09:53:34Z</time>
      </trkpt>
      <trkpt lat="47.87177" lon="-4.06835">
        <ele>13.6</ele>
        <time>2022-11-12T09:53:35Z</time>
      </trkpt>
      <trkpt lat="47.87179" lon="-4.06843">
        <ele>13.9</ele>
        <time>2022-11-12T09:53:36Z</time>
      </trkpt>
      <trkpt lat="47.87182" lon="-4.06851">
        <ele>14.2</ele>
        <time>2022-11-12T09:53:37Z</time>
      </trkpt>
      <trkpt lat="47.87185" lon="-4.06859">
        <ele>14.4</ele>
        <time>2022-11-12T09:53:38Z</time>
      </trkpt>
      <trkpt lat="47.87188" lon="-4.06866">
        <ele>14.6</ele>
        <time>2022-11-12T09:53:39Z</time>
      </trkpt>
      <trkpt lat="47.8719" lon="-4.06872">
        <ele>14.8</ele>
        <time>2022-11-12T09:53:40Z</time>
      </trkpt>
      <trkpt lat="47.87193" lon="-4.06879">
        <ele>14.9</ele>
        <time>2022-11-12T09:53:41Z</time>
      </trkpt>
      <trkpt lat="47.87196" lon="-4.06886">
        <ele>15.1</ele>
        <time>2022-11-12T09:53:42Z</time>
      </trkpt>
      <trkpt lat="47.87198" lon="-4.06893">
        <ele>15.2</ele>
        <time>2022-11-12T09:53:43Z</time>
      </trkpt>
      <trkpt lat="47.87201" lon="-4.06899">
        <ele>15.4</ele>
        <time>2022-11-12T09:53:44Z</time>
      </trkpt>
      <trkpt lat="47.87204" lon="-4.06906">
        <ele>15.5</ele>
        <time>2022-11-12T09:53:45Z</time>
      </trkpt>
      <trkpt lat="47.87207" lon="-4.06913">
        <ele>15.6</ele>
        <time>2022-11-12T09:53:46Z</time>
      </trkpt>
      <trkpt lat="47.8721" lon="-4.0692">
        <ele>15.8</ele>
        <time>2022-11-12T09:53:47Z</time>
      </trkpt>
      <trkpt lat="47.87213" lon="-4.06927">
        <ele>15.9</ele>
        <time>2022-11-12T09:53:48Z</time>
      </trkpt>
      <trkpt lat="47.87216" lon="-4.06934">
        <ele>16</ele>
        <time>2022-11-12T09:53:49Z</time>
      </trkpt>
      <trkpt lat="47.87219" lon="-4.0694">
        <ele>16.2</ele>
        <time>2022-11-12T09:53:50Z</time>
      </trkpt>
      <trkpt lat="47.87222" lon="-4.06947">
        <ele>16.3</ele>
        <time>2022-11-12T09:53:51Z</time>
      </trkpt>
      <trkpt lat="47.87225" lon="-4.06954">
        <ele>16.4</ele>
        <time>2022-11-12T09:53:52Z</time>
      </trkpt>
      <trkpt lat="47.87228" lon="-4.06961">
        <ele>16.5</ele>
        <time>2022-11-12T09:53:53Z</time>
      </trkpt>
      <trkpt lat="47.87231" lon="-4.06967">
        <ele>16.5</ele>
        <time>2022-11-12T09:53:54Z</time>
      </trkpt>
      <trkpt lat="47.87235" lon="-4.06974">
        <ele>16.6</ele>
        <time>2022-11-12T09:53:55Z</time>
      </trkpt>
      <trkpt lat="47.87238" lon="-4.0698">
        <ele>16.7</ele>
        <time>2022-11-12T09:53:56Z</time>
      </trkpt>
      <trkpt lat="47.87242" lon="-4.06986">
        <ele>16.7</ele>
        <time>2022-11-12T09:53:57Z</time>
      </trkpt>
      <trkpt lat="47.87245" lon="-4.06991">
        <ele>16.7</ele>
        <time>2022-11-12T09:53:58Z</time>
      </trkpt>
      <trkpt lat="47.8725" lon="-4.06997">
        <ele>16.7</ele>
        <time>2022-11-12T09:53:59Z</time>
      </trkpt>
      <trkpt lat="47.87254" lon="-4.07004">
        <ele>16.7</ele>
        <time>2022-11-12T09:54:00Z</time>
      </trkpt>
      <trkpt lat="47.87259" lon="-4.0701">
        <ele>16.6</ele>
        <time>2022-11-12T09:54:01Z</time>
      </trkpt>
      <trkpt lat="47.87265" lon="-4.07015">
        <ele>16.6</ele>
        <time>2022-11-12T09:54:02Z</time>
      </trkpt>
      <trkpt lat="47.8727" lon="-4.0702">
        <ele>16.6</ele>
        <time>2022-11-12T09:54:03Z</time>
      </trkpt>
      <trkpt lat="47.87276" lon="-4.07025">
        <ele>16.6</ele>
        <time>2022-11-12T09:54:04Z</time>
      </trkpt>
      <trkpt lat="47.87282" lon="-4.07029">
        <ele>16.6</ele>
        <time>2022-11-12T09:54:05Z</time>
      </trkpt>
      <trkpt lat="47.87287" lon="-4.07033">
        <ele>16.6</ele>
        <time>2022-11-12T09:54:06Z</time>
      </trkpt>
      <trkpt lat="47.87292" lon="-4.07037">
        <ele>16.6</ele>
        <time>2022-11-12T09:54:07Z</time>
      </trkpt>
      <trkpt lat="47.87297" lon="-4.07041">
        <ele>16.6</ele>
        <time>2022-11-12T09:54:08Z</time>
      </trkpt>
      <trkpt lat="47.87303" lon="-4.07045">
        <ele>16.6</ele>
        <time>2022-11-12T09:54:09Z</time>
      </trkpt>
      <trkpt lat="47.87309" lon="-4.07049">
        <ele>16.6</ele>
        <time>2022-11-12T09:54:10Z</time>
      </trkpt>
      <trkpt lat="47.87315" lon="-4.07053">
        <ele>16.6</ele>
        <time>2022-11-12T09:54:11Z</time>
      </trkpt>
      <trkpt lat="47.87321" lon="-4.07057">
        <ele>16.6</ele>
        <time>2022-11-12T09:54:12Z</time>
      </trkpt>
      <trkpt lat="47.87327" lon="-4.07061">
        <ele>16.6</ele>
        <time>2022-11-12T09:54:13Z</time>
      </trkpt>
      <trkpt lat="47.87334" lon="-4.07065">
        <ele>16.6</ele>
        <time>2022-11-12T09:54:14Z</time>
      </trkpt>
      <trkpt lat="47.8734" lon="-4.07069">
        <ele>16.6</ele>
        <time>2022-11-12T09:54:15Z</time>
      </trkpt>
      <trkpt lat="47.87346" lon="-4.07073">
        <ele>16.6</ele>
        <time>2022-11-12T09:54:16Z</time>
      </trkpt>
      <trkpt lat="47.87352" lon="-4.07078">
        <ele>16.7</ele>
        <time>2022-11-12T09:54:17Z</time>
      </trkpt>
      <trkpt lat="47.87358" lon="-4.07081">
        <ele>16.7</ele>
        <time>2022-11-12T09:54:18Z</time>
      </trkpt>
      <trkpt lat="47.87365" lon="-4.07085">
        <ele>16.7</ele>
        <time>2022-11-12T09:54:19Z</time>
      </trkpt>
      <trkpt lat="47.87371" lon="-4.07089">
        <ele>16.8</ele>
        <time>2022-11-12T09:54:20Z</time>
      </trkpt>
      <trkpt lat="47.87389" lon="-4.07102">
        <ele>16.9</ele>
        <time>2022-11-12T09:54:23Z</time>
      </trkpt>
      <trkpt lat="47.87394" lon="-4.07105">
        <ele>16.9</ele>
        <time>2022-11-12T09:54:24Z</time>
      </trkpt>
      <trkpt lat="47.874" lon="-4.07109">
        <ele>17</ele>
        <time>2022-11-12T09:54:25Z</time>
      </trkpt>
      <trkpt lat="47.87406" lon="-4.07112">
        <ele>17</ele>
        <time>2022-11-12T09:54:26Z</time>
      </trkpt>
      <trkpt lat="47.87412" lon="-4.07116">
        <ele>17.1</ele>
        <time>2022-11-12T09:54:27Z</time>
      </trkpt>
      <trkpt lat="47.87417" lon="-4.0712">
        <ele>17.2</ele>
        <time>2022-11-12T09:54:28Z</time>
      </trkpt>
      <trkpt lat="47.87422" lon="-4.07123">
        <ele>17.3</ele>
        <time>2022-11-12T09:54:29Z</time>
      </trkpt>
      <trkpt lat="47.87427" lon="-4.07127">
        <ele>17.4</ele>
        <time>2022-11-12T09:54:30Z</time>
      </trkpt>
      <trkpt lat="47.87433" lon="-4.0713">
        <ele>17.6</ele>
        <time>2022-11-12T09:54:31Z</time>
      </trkpt>
      <trkpt lat="47.87438" lon="-4.07134">
        <ele>17.7</ele>
        <time>2022-11-12T09:54:32Z</time>
      </trkpt>
      <trkpt lat="47.87443" lon="-4.07137">
        <ele>17.9</ele>
        <time>2022-11-12T09:54:33Z</time>
      </trkpt>
      <trkpt lat="47.87448" lon="-4.07141">
        <ele>18</ele>
        <time>2022-11-12T09:54:34Z</time>
      </trkpt>
      <trkpt lat="47.87454" lon="-4.07144">
        <ele>18.2</ele>
        <time>2022-11-12T09:54:35Z</time>
      </trkpt>
      <trkpt lat="47.87459" lon="-4.07147">
        <ele>18.3</ele>
        <time>2022-11-12T09:54:36Z</time>
      </trkpt>
      <trkpt lat="47.87464" lon="-4.07151">
        <ele>18.5</ele>
        <time>2022-11-12T09:54:37Z</time>
      </trkpt>
      <trkpt lat="47.8747" lon="-4.07154">
        <ele>18.7</ele>
        <time>2022-11-12T09:54:38Z</time>
      </trkpt>
      <trkpt lat="47.87475" lon="-4.07157">
        <ele>18.9</ele>
        <time>2022-11-12T09:54:39Z</time>
      </trkpt>
      <trkpt lat="47.8748" lon="-4.0716">
        <ele>19.1</ele>
        <time>2022-11-12T09:54:40Z</time>
      </trkpt>
      <trkpt lat="47.87484" lon="-4.07164">
        <ele>19.3</ele>
        <time>2022-11-12T09:54:41Z</time>
      </trkpt>
      <trkpt lat="47.87489" lon="-4.07167">
        <ele>19.5</ele>
        <time>2022-11-12T09:54:42Z</time>
      </trkpt>
      <trkpt lat="47.87494" lon="-4.0717">
        <ele>19.7</ele>
        <time>2022-11-12T09:54:43Z</time>
      </trkpt>
      <trkpt lat="47.875" lon="-4.07173">
        <ele>19.9</ele>
        <time>2022-11-12T09:54:44Z</time>
      </trkpt>
      <trkpt lat="47.87505" lon="-4.07177">
        <ele>20.1</ele>
        <time>2022-11-12T09:54:45Z</time>
      </trkpt>
      <trkpt lat="47.8751" lon="-4.0718">
        <ele>20.3</ele>
        <time>2022-11-12T09:54:46Z</time>
      </trkpt>
      <trkpt lat="47.87514" lon="-4.07184">
        <ele>20.5</ele>
        <time>2022-11-12T09:54:47Z</time>
      </trkpt>
      <trkpt lat="47.87519" lon="-4.07188">
        <ele>20.7</ele>
        <time>2022-11-12T09:54:48Z</time>
      </trkpt>
      <trkpt lat="47.87524" lon="-4.07191">
        <ele>20.8</ele>
        <time>2022-11-12T09:54:49Z</time>
      </trkpt>
      <trkpt lat="47.87529" lon="-4.07195">
        <ele>21</ele>
        <time>2022-11-12T09:54:50Z</time>
      </trkpt>
      <trkpt lat="47.87534" lon="-4.07198">
        <ele>21.1</ele>
        <time>2022-11-12T09:54:51Z</time>
      </trkpt>
      <trkpt lat="47.87539" lon="-4.07201">
        <ele>21.2</ele>
        <time>2022-11-12T09:54:52Z</time>
      </trkpt>
      <trkpt lat="47.87544" lon="-4.07205">
        <ele>21.2</ele>
        <time>2022-11-12T09:54:53Z</time>
      </trkpt>
      <trkpt lat="47.87549" lon="-4.07209">
        <ele>21.3</ele>
        <time>2022-11-12T09:54:54Z</time>
      </trkpt>
      <trkpt lat="47.87554" lon="-4.07214">
        <ele>21.3</ele>
        <time>2022-11-12T09:54:55Z</time>
      </trkpt>
      <trkpt lat="47.87558" lon="-4.07217">
        <ele>21.3</ele>
        <time>2022-11-12T09:54:56Z</time>
      </trkpt>
      <trkpt lat="47.87564" lon="-4.07222">
        <ele>21.3</ele>
        <time>2022-11-12T09:54:57Z</time>
      </trkpt>
      <trkpt lat="47.87569" lon="-4.07226">
        <ele>21.3</ele>
        <time>2022-11-12T09:54:58Z</time>
      </trkpt>
      <trkpt lat="47.87573" lon="-4.07231">
        <ele>21.2</ele>
        <time>2022-11-12T09:54:59Z</time>
      </trkpt>
      <trkpt lat="47.87578" lon="-4.07237">
        <ele>21.2</ele>
        <time>2022-11-12T09:55:00Z</time>
      </trkpt>
      <trkpt lat="47.87582" lon="-4.07244">
        <ele>21.1</ele>
        <time>2022-11-12T09:55:01Z</time>
      </trkpt>
      <trkpt lat="47.87586" lon="-4.0725">
        <ele>21</ele>
        <time>2022-11-12T09:55:02Z</time>
      </trkpt>
      <trkpt lat="47.8759" lon="-4.07258">
        <ele>20.8</ele>
        <time>2022-11-12T09:55:03Z</time>
      </trkpt>
      <trkpt lat="47.87595" lon="-4.07264">
        <ele>20.7</ele>
        <time>2022-11-12T09:55:04Z</time>
      </trkpt>
      <trkpt lat="47.876" lon="-4.07271">
        <ele>20.6</ele>
        <time>2022-11-12T09:55:05Z</time>
      </trkpt>
      <trkpt lat="47.87605" lon="-4.07277">
        <ele>20.5</ele>
        <time>2022-11-12T09:55:06Z</time>
      </trkpt>
      <trkpt lat="47.8761" lon="-4.07284">
        <ele>20.4</ele>
        <time>2022-11-12T09:55:07Z</time>
      </trkpt>
      <trkpt lat="47.87615" lon="-4.07291">
        <ele>20.3</ele>
        <time>2022-11-12T09:55:08Z</time>
      </trkpt>
      <trkpt lat="47.8762" lon="-4.07298">
        <ele>20.2</ele>
        <time>2022-11-12T09:55:09Z</time>
      </trkpt>
      <trkpt lat="47.87624" lon="-4.07306">
        <ele>20</ele>
        <time>2022-11-12T09:55:10Z</time>
      </trkpt>
      <trkpt lat="47.87627" lon="-4.07316">
        <ele>19.9</ele>
        <time>2022-11-12T09:55:11Z</time>
      </trkpt>
      <trkpt lat="47.8763" lon="-4.07326">
        <ele>19.7</ele>
        <time>2022-11-12T09:55:12Z</time>
      </trkpt>
      <trkpt lat="47.87632" lon="-4.07336">
        <ele>19.6</ele>
        <time>2022-11-12T09:55:13Z</time>
      </trkpt>
      <trkpt lat="47.87633" lon="-4.07347">
        <ele>19.4</ele>
        <time>2022-11-12T09:55:14Z</time>
      </trkpt>
      <trkpt lat="47.87634" lon="-4.07358">
        <ele>19.3</ele>
        <time>2022-11-12T09:55:15Z</time>
      </trkpt>
      <trkpt lat="47.87635" lon="-4.07369">
        <ele>19.2</ele>
        <time>2022-11-12T09:55:16Z</time>
      </trkpt>
      <trkpt lat="47.87635" lon="-4.0738">
        <ele>19.1</ele>
        <time>2022-11-12T09:55:17Z</time>
      </trkpt>
      <trkpt lat="47.87635" lon="-4.07391">
        <ele>19</ele>
        <time>2022-11-12T09:55:18Z</time>
      </trkpt>
      <trkpt lat="47.87634" lon="-4.07401">
        <ele>19</ele>
        <time>2022-11-12T09:55:19Z</time>
      </trkpt>
      <trkpt lat="47.87633" lon="-4.07411">
        <ele>19</ele>
        <time>2022-11-12T09:55:20Z</time>
      </trkpt>
      <trkpt lat="47.8763" lon="-4.07422">
        <ele>19</ele>
        <time>2022-11-12T09:55:21Z</time>
      </trkpt>
      <trkpt lat="47.87627" lon="-4.07431">
        <ele>19</ele>
        <time>2022-11-12T09:55:22Z</time>
      </trkpt>
      <trkpt lat="47.87624" lon="-4.0744">
        <ele>19</ele>
        <time>2022-11-12T09:55:23Z</time>
      </trkpt>
      <trkpt lat="47.87622" lon="-4.0745">
        <ele>19</ele>
        <time>2022-11-12T09:55:24Z</time>
      </trkpt>
      <trkpt lat="47.87619" lon="-4.07459">
        <ele>19</ele>
        <time>2022-11-12T09:55:25Z</time>
      </trkpt>
      <trkpt lat="47.87616" lon="-4.07469">
        <ele>19</ele>
        <time>2022-11-12T09:55:26Z</time>
      </trkpt>
      <trkpt lat="47.87613" lon="-4.07478">
        <ele>19</ele>
        <time>2022-11-12T09:55:27Z</time>
      </trkpt>
      <trkpt lat="47.8761" lon="-4.07487">
        <ele>19</ele>
        <time>2022-11-12T09:55:28Z</time>
      </trkpt>
      <trkpt lat="47.87607" lon="-4.07495">
        <ele>18.9</ele>
        <time>2022-11-12T09:55:29Z</time>
      </trkpt>
      <trkpt lat="47.87603" lon="-4.07504">
        <ele>18.9</ele>
        <time>2022-11-12T09:55:30Z</time>
      </trkpt>
      <trkpt lat="47.876" lon="-4.07513">
        <ele>18.9</ele>
        <time>2022-11-12T09:55:31Z</time>
      </trkpt>
      <trkpt lat="47.87597" lon="-4.07522">
        <ele>18.9</ele>
        <time>2022-11-12T09:55:32Z</time>
      </trkpt>
      <trkpt lat="47.87593" lon="-4.07531">
        <ele>18.8</ele>
        <time>2022-11-12T09:55:33Z</time>
      </trkpt>
      <trkpt lat="47.87589" lon="-4.07539">
        <ele>18.7</ele>
        <time>2022-11-12T09:55:34Z</time>
      </trkpt>
      <trkpt lat="47.87585" lon="-4.07548">
        <ele>18.7</ele>
        <time>2022-11-12T09:55:35Z</time>
      </trkpt>
      <trkpt lat="47.87581" lon="-4.07556">
        <ele>18.6</ele>
        <time>2022-11-12T09:55:36Z</time>
      </trkpt>
      <trkpt lat="47.87578" lon="-4.07565">
        <ele>18.5</ele>
        <time>2022-11-12T09:55:37Z</time>
      </trkpt>
      <trkpt lat="47.87574" lon="-4.07574">
        <ele>18.4</ele>
        <time>2022-11-12T09:55:38Z</time>
      </trkpt>
      <trkpt lat="47.87569" lon="-4.07582">
        <ele>18.3</ele>
        <time>2022-11-12T09:55:39Z</time>
      </trkpt>
      <trkpt lat="47.87565" lon="-4.07591">
        <ele>18.2</ele>
        <time>2022-11-12T09:55:40Z</time>
      </trkpt>
      <trkpt lat="47.8756" lon="-4.07599">
        <ele>18</ele>
        <time>2022-11-12T09:55:41Z</time>
      </trkpt>
      <trkpt lat="47.87555" lon="-4.07607">
        <ele>17.9</ele>
        <time>2022-11-12T09:55:42Z</time>
      </trkpt>
      <trkpt lat="47.8755" lon="-4.07615">
        <ele>17.7</ele>
        <time>2022-11-12T09:55:43Z</time>
      </trkpt>
      <trkpt lat="47.87545" lon="-4.07623">
        <ele>17.6</ele>
        <time>2022-11-12T09:55:44Z</time>
      </trkpt>
      <trkpt lat="47.8754" lon="-4.07631">
        <ele>17.3</ele>
        <time>2022-11-12T09:55:45Z</time>
      </trkpt>
      <trkpt lat="47.87536" lon="-4.07639">
        <ele>17.1</ele>
        <time>2022-11-12T09:55:46Z</time>
      </trkpt>
      <trkpt lat="47.87532" lon="-4.07649">
        <ele>16.7</ele>
        <time>2022-11-12T09:55:47Z</time>
      </trkpt>
      <trkpt lat="47.87529" lon="-4.0766">
        <ele>16.2</ele>
        <time>2022-11-12T09:55:48Z</time>
      </trkpt>
      <trkpt lat="47.87527" lon="-4.07672">
        <ele>15.6</ele>
        <time>2022-11-12T09:55:49Z</time>
      </trkpt>
      <trkpt lat="47.87527" lon="-4.07684">
        <ele>15</ele>
        <time>2022-11-12T09:55:50Z</time>
      </trkpt>
      <trkpt lat="47.87527" lon="-4.07695">
        <ele>14.4</ele>
        <time>2022-11-12T09:55:51Z</time>
      </trkpt>
      <trkpt lat="47.87528" lon="-4.07705">
        <ele>13.8</ele>
        <time>2022-11-12T09:55:52Z</time>
      </trkpt>
      <trkpt lat="47.87529" lon="-4.07715">
        <ele>13.1</ele>
        <time>2022-11-12T09:55:53Z</time>
      </trkpt>
      <trkpt lat="47.8753" lon="-4.07725">
        <ele>12.3</ele>
        <time>2022-11-12T09:55:54Z</time>
      </trkpt>
      <trkpt lat="47.87531" lon="-4.07736">
        <ele>11.4</ele>
        <time>2022-11-12T09:55:55Z</time>
      </trkpt>
      <trkpt lat="47.87533" lon="-4.07748">
        <ele>10.4</ele>
        <time>2022-11-12T09:55:56Z</time>
      </trkpt>
      <trkpt lat="47.87535" lon="-4.0776">
        <ele>9.5</ele>
        <time>2022-11-12T09:55:57Z</time>
      </trkpt>
      <trkpt lat="47.87538" lon="-4.07773">
        <ele>8.5</ele>
        <time>2022-11-12T09:55:58Z</time>
      </trkpt>
      <trkpt lat="47.8754" lon="-4.07786">
        <ele>7.5</ele>
        <time>2022-11-12T09:55:59Z</time>
      </trkpt>
      <trkpt lat="47.87543" lon="-4.07799">
        <ele>6.7</ele>
        <time>2022-11-12T09:56:00Z</time>
      </trkpt>
      <trkpt lat="47.87545" lon="-4.0781">
        <ele>6</ele>
        <time>2022-11-12T09:56:01Z</time>
      </trkpt>
      <trkpt lat="47.87546" lon="-4.0782">
        <ele>5.6</ele>
        <time>2022-11-12T09:56:02Z</time>
      </trkpt>
      <trkpt lat="47.87545" lon="-4.07827">
        <ele>4.9</ele>
        <time>2022-11-12T09:56:03Z</time>
      </trkpt>
      <trkpt lat="47.87543" lon="-4.07832">
        <ele>4.8</ele>
        <time>2022-11-12T09:56:04Z</time>
      </trkpt>
      <trkpt lat="47.8754" lon="-4.07833">
        <ele>4.8</ele>
        <time>2022-11-12T09:56:05Z</time>
      </trkpt>
      <trkpt lat="47.87537" lon="-4.07834">
        <ele>4.7</ele>
        <time>2022-11-12T09:56:06Z</time>
      </trkpt>
      <trkpt lat="47.87532" lon="-4.07834">
        <ele>4.7</ele>
        <time>2022-11-12T09:56:07Z</time>
      </trkpt>
      <trkpt lat="47.87527" lon="-4.07832">
        <ele>4.6</ele>
        <time>2022-11-12T09:56:08Z</time>
      </trkpt>
      <trkpt lat="47.87521" lon="-4.0783">
        <ele>4.6</ele>
        <time>2022-11-12T09:56:09Z</time>
      </trkpt>
      <trkpt lat="47.87515" lon="-4.07828">
        <ele>4.6</ele>
        <time>2022-11-12T09:56:10Z</time>
      </trkpt>
      <trkpt lat="47.87509" lon="-4.07826">
        <ele>4.6</ele>
        <time>2022-11-12T09:56:11Z</time>
      </trkpt>
      <trkpt lat="47.87503" lon="-4.07823">
        <ele>4.6</ele>
        <time>2022-11-12T09:56:12Z</time>
      </trkpt>
      <trkpt lat="47.87497" lon="-4.07821">
        <ele>4.6</ele>
        <time>2022-11-12T09:56:13Z</time>
      </trkpt>
      <trkpt lat="47.8749" lon="-4.07819">
        <ele>4.7</ele>
        <time>2022-11-12T09:56:14Z</time>
      </trkpt>
      <trkpt lat="47.87484" lon="-4.07817">
        <ele>4.7</ele>
        <time>2022-11-12T09:56:15Z</time>
      </trkpt>
      <trkpt lat="47.87478" lon="-4.07816">
        <ele>4.7</ele>
        <time>2022-11-12T09:56:16Z</time>
      </trkpt>
      <trkpt lat="47.87472" lon="-4.07815">
        <ele>4.7</ele>
        <time>2022-11-12T09:56:17Z</time>
      </trkpt>
      <trkpt lat="47.87467" lon="-4.07815">
        <ele>4.8</ele>
        <time>2022-11-12T09:56:18Z</time>
      </trkpt>
      <trkpt lat="47.87461" lon="-4.07814">
        <ele>4.8</ele>
        <time>2022-11-12T09:56:19Z</time>
      </trkpt>
      <trkpt lat="47.87455" lon="-4.07813">
        <ele>4.8</ele>
        <time>2022-11-12T09:56:20Z</time>
      </trkpt>
      <trkpt lat="47.87449" lon="-4.07813">
        <ele>4.8</ele>
        <time>2022-11-12T09:56:21Z</time>
      </trkpt>
      <trkpt lat="47.87444" lon="-4.07813">
        <ele>4.9</ele>
        <time>2022-11-12T09:56:22Z</time>
      </trkpt>
      <trkpt lat="47.87438" lon="-4.07814">
        <ele>4.9</ele>
        <time>2022-11-12T09:56:23Z</time>
      </trkpt>
      <trkpt lat="47.87432" lon="-4.07815">
        <ele>4.7</ele>
        <time>2022-11-12T09:56:24Z</time>
      </trkpt>
      <trkpt lat="47.87428" lon="-4.07819">
        <ele>4.7</ele>
        <time>2022-11-12T09:56:25Z</time>
      </trkpt>
      <trkpt lat="47.87424" lon="-4.07823">
        <ele>4.5</ele>
        <time>2022-11-12T09:56:26Z</time>
      </trkpt>
      <trkpt lat="47.8742" lon="-4.07829">
        <ele>4.4</ele>
        <time>2022-11-12T09:56:27Z</time>
      </trkpt>
      <trkpt lat="47.87416" lon="-4.07836">
        <ele>4.2</ele>
        <time>2022-11-12T09:56:28Z</time>
      </trkpt>
      <trkpt lat="47.87411" lon="-4.07842">
        <ele>4</ele>
        <time>2022-11-12T09:56:29Z</time>
      </trkpt>
      <trkpt lat="47.87405" lon="-4.07846">
        <ele>3.9</ele>
        <time>2022-11-12T09:56:30Z</time>
      </trkpt>
      <trkpt lat="47.874" lon="-4.07852">
        <ele>3.8</ele>
        <time>2022-11-12T09:56:31Z</time>
      </trkpt>
      <trkpt lat="47.87396" lon="-4.07859">
        <ele>3.7</ele>
        <time>2022-11-12T09:56:32Z</time>
      </trkpt>
      <trkpt lat="47.87391" lon="-4.07864">
        <ele>3.7</ele>
        <time>2022-11-12T09:56:33Z</time>
      </trkpt>
      <trkpt lat="47.87387" lon="-4.07869">
        <ele>3.7</ele>
        <time>2022-11-12T09:56:34Z</time>
      </trkpt>
      <trkpt lat="47.87384" lon="-4.07874">
        <ele>3.8</ele>
        <time>2022-11-12T09:56:35Z</time>
      </trkpt>
      <trkpt lat="47.8738" lon="-4.07879">
        <ele>3.9</ele>
        <time>2022-11-12T09:56:36Z</time>
      </trkpt>
      <trkpt lat="47.87375" lon="-4.07882">
        <ele>4</ele>
        <time>2022-11-12T09:56:37Z</time>
      </trkpt>
      <trkpt lat="47.87371" lon="-4.07885">
        <ele>4.1</ele>
        <time>2022-11-12T09:56:38Z</time>
      </trkpt>
      <trkpt lat="47.87367" lon="-4.07889">
        <ele>4.2</ele>
        <time>2022-11-12T09:56:39Z</time>
      </trkpt>
      <trkpt lat="47.87364" lon="-4.07892">
        <ele>4.3</ele>
        <time>2022-11-12T09:56:40Z</time>
      </trkpt>
      <trkpt lat="47.87362" lon="-4.07895">
        <ele>4.4</ele>
        <time>2022-11-12T09:56:41Z</time>
      </trkpt>
      <trkpt lat="47.87359" lon="-4.07898">
        <ele>4.5</ele>
        <time>2022-11-12T09:56:42Z</time>
      </trkpt>
      <trkpt lat="47.87358" lon="-4.07899">
        <ele>4.5</ele>
        <time>2022-11-12T09:56:43Z</time>
      </trkpt>
      <trkpt lat="47.87357" lon="-4.07902">
        <ele>4.5</ele>
        <time>2022-11-12T09:56:44Z</time>
      </trkpt>
      <trkpt lat="47.87357" lon="-4.07903">
        <ele>4.6</ele>
        <time>2022-11-12T09:56:45Z</time>
      </trkpt>
      <trkpt lat="47.87357" lon="-4.07904">
        <ele>4.6</ele>
        <time>2022-11-12T09:56:46Z</time>
      </trkpt>
      <trkpt lat="47.87357" lon="-4.07905">
        <ele>4.6</ele>
        <time>2022-11-12T09:56:47Z</time>
      </trkpt>
      <trkpt lat="47.87357" lon="-4.07907">
        <ele>4.6</ele>
        <time>2022-11-12T09:56:48Z</time>
      </trkpt>
      <trkpt lat="47.87357" lon="-4.07908">
        <ele>4.6</ele>
        <time>2022-11-12T09:56:49Z</time>
      </trkpt>
      <trkpt lat="47.87356" lon="-4.07909">
        <ele>4.6</ele>
        <time>2022-11-12T09:56:50Z</time>
      </trkpt>
      <trkpt lat="47.87356" lon="-4.0791">
        <ele>4.6</ele>
        <time>2022-11-12T09:56:52Z</time>
      </trkpt>
      <trkpt lat="47.87356" lon="-4.07911">
        <ele>4.6</ele>
        <time>2022-11-12T09:56:53Z</time>
      </trkpt>
      <trkpt lat="47.87356" lon="-4.07912">
        <ele>4.6</ele>
        <time>2022-11-12T09:56:55Z</time>
      </trkpt>
      <trkpt lat="47.87356" lon="-4.07913">
        <ele>4.6</ele>
        <time>2022-11-12T09:57:05Z</time>
      </trkpt>
      <trkpt lat="47.87356" lon="-4.07914">
        <ele>4.6</ele>
        <time>2022-11-12T09:57:06Z</time>
      </trkpt>
      <trkpt lat="47.87356" lon="-4.07915">
        <ele>4.6</ele>
        <time>2022-11-12T09:57:07Z</time>
      </trkpt>
      <trkpt lat="47.87355" lon="-4.07916">
        <ele>4.7</ele>
        <time>2022-11-12T09:57:08Z</time>
      </trkpt>
      <trkpt lat="47.87356" lon="-4.07916">
        <ele>4.7</ele>
        <time>2022-11-12T09:57:09Z</time>
      </trkpt>
      <trkpt lat="47.87356" lon="-4.07917">
        <ele>4.7</ele>
        <time>2022-11-12T09:57:10Z</time>
      </trkpt>
      <trkpt lat="47.87356" lon="-4.07918">
        <ele>4.7</ele>
        <time>2022-11-12T09:57:12Z</time>
      </trkpt>
      <trkpt lat="47.87357" lon="-4.07918">
        <ele>4.7</ele>
        <time>2022-11-12T09:57:13Z</time>
      </trkpt>
      <trkpt lat="47.87357" lon="-4.07919">
        <ele>4.7</ele>
        <time>2022-11-12T09:57:14Z</time>
      </trkpt>
      <trkpt lat="47.87358" lon="-4.0792">
        <ele>4.7</ele>
        <time>2022-11-12T09:57:15Z</time>
      </trkpt>
      <trkpt lat="47.87358" lon="-4.0792">
        <ele>4.7</ele>
        <time>2022-11-12T09:57:16Z</time>
      </trkpt>
      <trkpt lat="47.87358" lon="-4.07921">
        <ele>4.7</ele>
        <time>2022-11-12T09:57:17Z</time>
      </trkpt>
      <trkpt lat="47.87359" lon="-4.07922">
        <ele>4.7</ele>
        <time>2022-11-12T09:57:18Z</time>
      </trkpt>
      <trkpt lat="47.87359" lon="-4.07923">
        <ele>4.7</ele>
        <time>2022-11-12T09:57:19Z</time>
      </trkpt>
      <trkpt lat="47.8736" lon="-4.07923">
        <ele>4.7</ele>
        <time>2022-11-12T09:57:20Z</time>
      </trkpt>
      <trkpt lat="47.8736" lon="-4.07924">
        <ele>4.7</ele>
        <time>2022-11-12T09:57:22Z</time>
      </trkpt>
      <trkpt lat="47.8736" lon="-4.07925">
        <ele>4.7</ele>
        <time>2022-11-12T09:57:23Z</time>
      </trkpt>
      <trkpt lat="47.87361" lon="-4.07925">
        <ele>4.7</ele>
        <time>2022-11-12T09:57:24Z</time>
      </trkpt>
      <trkpt lat="47.87361" lon="-4.07926">
        <ele>4.7</ele>
        <time>2022-11-12T09:57:25Z</time>
      </trkpt>
      <trkpt lat="47.87361" lon="-4.07927">
        <ele>4.7</ele>
        <time>2022-11-12T09:57:26Z</time>
      </trkpt>
      <trkpt lat="47.87362" lon="-4.07928">
        <ele>4.7</ele>
        <time>2022-11-12T09:57:27Z</time>
      </trkpt>
      <trkpt lat="47.87362" lon="-4.07928">
        <ele>4.7</ele>
        <time>2022-11-12T09:57:28Z</time>
      </trkpt>
      <trkpt lat="47.87363" lon="-4.07929">
        <ele>4.7</ele>
        <time>2022-11-12T09:57:29Z</time>
      </trkpt>
      <trkpt lat="47.87363" lon="-4.0793">
        <ele>4.7</ele>
        <time>2022-11-12T09:57:50Z</time>
      </trkpt>
      <trkpt lat="47.87363" lon="-4.0793">
        <ele>4.7</ele>
        <time>2022-11-12T09:57:51Z</time>
      </trkpt>
      <trkpt lat="47.87364" lon="-4.07931">
        <ele>4.7</ele>
        <time>2022-11-12T09:57:52Z</time>
      </trkpt>
      <trkpt lat="47.87365" lon="-4.07935">
        <ele>4.7</ele>
        <time>2022-11-12T09:57:53Z</time>
      </trkpt>
      <trkpt lat="47.87367" lon="-4.07938">
        <ele>4.7</ele>
        <time>2022-11-12T09:57:54Z</time>
      </trkpt>
      <trkpt lat="47.87369" lon="-4.07943">
        <ele>4.7</ele>
        <time>2022-11-12T09:57:55Z</time>
      </trkpt>
      <trkpt lat="47.87371" lon="-4.07948">
        <ele>4.7</ele>
        <time>2022-11-12T09:57:56Z</time>
      </trkpt>
      <trkpt lat="47.87375" lon="-4.07956">
        <ele>4.7</ele>
        <time>2022-11-12T09:57:58Z</time>
      </trkpt>
      <trkpt lat="47.87377" lon="-4.07962">
        <ele>4.6</ele>
        <time>2022-11-12T09:58:00Z</time>
      </trkpt>
      <trkpt lat="47.8738" lon="-4.07969">
        <ele>4.6</ele>
        <time>2022-11-12T09:58:01Z</time>
      </trkpt>
      <trkpt lat="47.87381" lon="-4.07973">
        <ele>4.6</ele>
        <time>2022-11-12T09:58:02Z</time>
      </trkpt>
      <trkpt lat="47.87383" lon="-4.07977">
        <ele>4.6</ele>
        <time>2022-11-12T09:58:03Z</time>
      </trkpt>
      <trkpt lat="47.87385" lon="-4.07981">
        <ele>4.6</ele>
        <time>2022-11-12T09:58:04Z</time>
      </trkpt>
      <trkpt lat="47.87386" lon="-4.07984">
        <ele>4.6</ele>
        <time>2022-11-12T09:58:05Z</time>
      </trkpt>
      <trkpt lat="47.87388" lon="-4.07988">
        <ele>4.6</ele>
        <time>2022-11-12T09:58:06Z</time>
      </trkpt>
      <trkpt lat="47.8739" lon="-4.0799">
        <ele>4.6</ele>
        <time>2022-11-12T09:58:07Z</time>
      </trkpt>
      <trkpt lat="47.87393" lon="-4.07993">
        <ele>4.6</ele>
        <time>2022-11-12T09:58:09Z</time>
      </trkpt>
      <trkpt lat="47.87395" lon="-4.07999">
        <ele>4.6</ele>
        <time>2022-11-12T09:58:10Z</time>
      </trkpt>
      <trkpt lat="47.87395" lon="-4.08003">
        <ele>4.6</ele>
        <time>2022-11-12T09:58:11Z</time>
      </trkpt>
      <trkpt lat="47.87396" lon="-4.08006">
        <ele>4.6</ele>
        <time>2022-11-12T09:58:12Z</time>
      </trkpt>
      <trkpt lat="47.87396" lon="-4.08007">
        <ele>4.7</ele>
        <time>2022-11-12T09:58:13Z</time>
      </trkpt>
      <trkpt lat="47.87396" lon="-4.08009">
        <ele>4.7</ele>
        <time>2022-11-12T09:58:14Z</time>
      </trkpt>
      <trkpt lat="47.87396" lon="-4.08015">
        <ele>4.7</ele>
        <time>2022-11-12T09:58:16Z</time>
      </trkpt>
      <trkpt lat="47.87396" lon="-4.0802">
        <ele>4.8</ele>
        <time>2022-11-12T09:58:17Z</time>
      </trkpt>
      <trkpt lat="47.87397" lon="-4.08024">
        <ele>4.9</ele>
        <time>2022-11-12T09:58:18Z</time>
      </trkpt>
      <trkpt lat="47.87397" lon="-4.0803">
        <ele>5</ele>
        <time>2022-11-12T09:58:19Z</time>
      </trkpt>
      <trkpt lat="47.87397" lon="-4.08034">
        <ele>5.1</ele>
        <time>2022-11-12T09:58:20Z</time>
      </trkpt>
      <trkpt lat="47.87397" lon="-4.08037">
        <ele>5.1</ele>
        <time>2022-11-12T09:58:21Z</time>
      </trkpt>
      <trkpt lat="47.87397" lon="-4.08043">
        <ele>5.3</ele>
        <time>2022-11-12T09:58:23Z</time>
      </trkpt>
      <trkpt lat="47.87398" lon="-4.08047">
        <ele>5.3</ele>
        <time>2022-11-12T09:58:24Z</time>
      </trkpt>
      <trkpt lat="47.87398" lon="-4.08052">
        <ele>5.4</ele>
        <time>2022-11-12T09:58:25Z</time>
      </trkpt>
      <trkpt lat="47.87399" lon="-4.08066">
        <ele>5.7</ele>
        <time>2022-11-12T09:58:27Z</time>
      </trkpt>
      <trkpt lat="47.874" lon="-4.08072">
        <ele>5.8</ele>
        <time>2022-11-12T09:58:29Z</time>
      </trkpt>
      <trkpt lat="47.874" lon="-4.08079">
        <ele>5.9</ele>
        <time>2022-11-12T09:58:30Z</time>
      </trkpt>
      <trkpt lat="47.87401" lon="-4.08087">
        <ele>6</ele>
        <time>2022-11-12T09:58:31Z</time>
      </trkpt>
      <trkpt lat="47.87402" lon="-4.08094">
        <ele>6</ele>
        <time>2022-11-12T09:58:32Z</time>
      </trkpt>
      <trkpt lat="47.87402" lon="-4.08101">
        <ele>6.1</ele>
        <time>2022-11-12T09:58:33Z</time>
      </trkpt>
      <trkpt lat="47.87403" lon="-4.08106">
        <ele>6.1</ele>
        <time>2022-11-12T09:58:34Z</time>
      </trkpt>
      <trkpt lat="47.87403" lon="-4.08111">
        <ele>6.1</ele>
        <time>2022-11-12T09:58:35Z</time>
      </trkpt>
      <trkpt lat="47.874" lon="-4.08118">
        <ele>6.2</ele>
        <time>2022-11-12T09:58:36Z</time>
      </trkpt>
      <trkpt lat="47.87396" lon="-4.08122">
        <ele>6.2</ele>
        <time>2022-11-12T09:58:37Z</time>
      </trkpt>
      <trkpt lat="47.87393" lon="-4.08123">
        <ele>6.2</ele>
        <time>2022-11-12T09:58:39Z</time>
      </trkpt>
      <trkpt lat="47.87388" lon="-4.08125">
        <ele>6.2</ele>
        <time>2022-11-12T09:58:40Z</time>
      </trkpt>
      <trkpt lat="47.87383" lon="-4.08128">
        <ele>6.1</ele>
        <time>2022-11-12T09:58:41Z</time>
      </trkpt>
      <trkpt lat="47.87379" lon="-4.08129">
        <ele>6.1</ele>
        <time>2022-11-12T09:58:42Z</time>
      </trkpt>
      <trkpt lat="47.87374" lon="-4.08129">
        <ele>6.1</ele>
        <time>2022-11-12T09:58:43Z</time>
      </trkpt>
      <trkpt lat="47.87366" lon="-4.08131">
        <ele>5.9</ele>
        <time>2022-11-12T09:58:44Z</time>
      </trkpt>
      <trkpt lat="47.87361" lon="-4.08133">
        <ele>5.8</ele>
        <time>2022-11-12T09:58:45Z</time>
      </trkpt>
      <trkpt lat="47.87359" lon="-4.08137">
        <ele>5.7</ele>
        <time>2022-11-12T09:58:46Z</time>
      </trkpt>
      <trkpt lat="47.87358" lon="-4.08142">
        <ele>5.6</ele>
        <time>2022-11-12T09:58:47Z</time>
      </trkpt>
      <trkpt lat="47.87357" lon="-4.08144">
        <ele>5.6</ele>
        <time>2022-11-12T09:58:48Z</time>
      </trkpt>
      <trkpt lat="47.87357" lon="-4.08151">
        <ele>5.4</ele>
        <time>2022-11-12T09:58:49Z</time>
      </trkpt>
      <trkpt lat="47.87356" lon="-4.08162">
        <ele>5.2</ele>
        <time>2022-11-12T09:58:50Z</time>
      </trkpt>
      <trkpt lat="47.87355" lon="-4.08171">
        <ele>5</ele>
        <time>2022-11-12T09:58:51Z</time>
      </trkpt>
      <trkpt lat="47.87355" lon="-4.08179">
        <ele>4.8</ele>
        <time>2022-11-12T09:58:52Z</time>
      </trkpt>
      <trkpt lat="47.87357" lon="-4.08187">
        <ele>4.7</ele>
        <time>2022-11-12T09:58:53Z</time>
      </trkpt>
      <trkpt lat="47.87359" lon="-4.08195">
        <ele>4.5</ele>
        <time>2022-11-12T09:58:54Z</time>
      </trkpt>
      <trkpt lat="47.87361" lon="-4.08203">
        <ele>4.4</ele>
        <time>2022-11-12T09:58:55Z</time>
      </trkpt>
      <trkpt lat="47.87362" lon="-4.08211">
        <ele>4.2</ele>
        <time>2022-11-12T09:58:56Z</time>
      </trkpt>
      <trkpt lat="47.87363" lon="-4.08217">
        <ele>4.1</ele>
        <time>2022-11-12T09:58:57Z</time>
      </trkpt>
      <trkpt lat="47.87364" lon="-4.08223">
        <ele>4</ele>
        <time>2022-11-12T09:58:58Z</time>
      </trkpt>
      <trkpt lat="47.87365" lon="-4.08229">
        <ele>4</ele>
        <time>2022-11-12T09:58:59Z</time>
      </trkpt>
      <trkpt lat="47.87365" lon="-4.08233">
        <ele>4</ele>
        <time>2022-11-12T09:59:00Z</time>
      </trkpt>
      <trkpt lat="47.87365" lon="-4.08239">
        <ele>4</ele>
        <time>2022-11-12T09:59:01Z</time>
      </trkpt>
      <trkpt lat="47.87365" lon="-4.08244">
        <ele>4</ele>
        <time>2022-11-12T09:59:02Z</time>
      </trkpt>
      <trkpt lat="47.87366" lon="-4.0825">
        <ele>4</ele>
        <time>2022-11-12T09:59:03Z</time>
      </trkpt>
      <trkpt lat="47.87367" lon="-4.08259">
        <ele>4</ele>
        <time>2022-11-12T09:59:05Z</time>
      </trkpt>
      <trkpt lat="47.87367" lon="-4.08268">
        <ele>4</ele>
        <time>2022-11-12T09:59:06Z</time>
      </trkpt>
      <trkpt lat="47.87369" lon="-4.08277">
        <ele>4</ele>
        <time>2022-11-12T09:59:07Z</time>
      </trkpt>
      <trkpt lat="47.8737" lon="-4.08285">
        <ele>4</ele>
        <time>2022-11-12T09:59:08Z</time>
      </trkpt>
      <trkpt lat="47.8737" lon="-4.08292">
        <ele>4</ele>
        <time>2022-11-12T09:59:09Z</time>
      </trkpt>
      <trkpt lat="47.87371" lon="-4.08299">
        <ele>4</ele>
        <time>2022-11-12T09:59:10Z</time>
      </trkpt>
      <trkpt lat="47.87371" lon="-4.08306">
        <ele>4.1</ele>
        <time>2022-11-12T09:59:11Z</time>
      </trkpt>
      <trkpt lat="47.87372" lon="-4.08313">
        <ele>4.1</ele>
        <time>2022-11-12T09:59:12Z</time>
      </trkpt>
      <trkpt lat="47.87373" lon="-4.08321">
        <ele>4.1</ele>
        <time>2022-11-12T09:59:13Z</time>
      </trkpt>
      <trkpt lat="47.87374" lon="-4.08328">
        <ele>4.1</ele>
        <time>2022-11-12T09:59:14Z</time>
      </trkpt>
      <trkpt lat="47.87374" lon="-4.08334">
        <ele>4.1</ele>
        <time>2022-11-12T09:59:15Z</time>
      </trkpt>
      <trkpt lat="47.87374" lon="-4.0834">
        <ele>4.1</ele>
        <time>2022-11-12T09:59:17Z</time>
      </trkpt>
      <trkpt lat="47.87373" lon="-4.08347">
        <ele>4.1</ele>
        <time>2022-11-12T09:59:18Z</time>
      </trkpt>
      <trkpt lat="47.87367" lon="-4.08351">
        <ele>4.1</ele>
        <time>2022-11-12T09:59:19Z</time>
      </trkpt>
      <trkpt lat="47.87365" lon="-4.08353">
        <ele>4.1</ele>
        <time>2022-11-12T09:59:20Z</time>
      </trkpt>
      <trkpt lat="47.87363" lon="-4.08358">
        <ele>4.1</ele>
        <time>2022-11-12T09:59:21Z</time>
      </trkpt>
      <trkpt lat="47.8736" lon="-4.08362">
        <ele>4.1</ele>
        <time>2022-11-12T09:59:22Z</time>
      </trkpt>
      <trkpt lat="47.87355" lon="-4.08368">
        <ele>4.1</ele>
        <time>2022-11-12T09:59:23Z</time>
      </trkpt>
      <trkpt lat="47.8735" lon="-4.08375">
        <ele>4.1</ele>
        <time>2022-11-12T09:59:25Z</time>
      </trkpt>
      <trkpt lat="47.87347" lon="-4.08379">
        <ele>4.1</ele>
        <time>2022-11-12T09:59:26Z</time>
      </trkpt>
      <trkpt lat="47.87342" lon="-4.08388">
        <ele>4.1</ele>
        <time>2022-11-12T09:59:27Z</time>
      </trkpt>
      <trkpt lat="47.87339" lon="-4.08393">
        <ele>4.1</ele>
        <time>2022-11-12T09:59:28Z</time>
      </trkpt>
      <trkpt lat="47.87336" lon="-4.08399">
        <ele>4.1</ele>
        <time>2022-11-12T09:59:29Z</time>
      </trkpt>
      <trkpt lat="47.87334" lon="-4.08405">
        <ele>4.1</ele>
        <time>2022-11-12T09:59:30Z</time>
      </trkpt>
      <trkpt lat="47.87331" lon="-4.0841">
        <ele>4.1</ele>
        <time>2022-11-12T09:59:31Z</time>
      </trkpt>
      <trkpt lat="47.87328" lon="-4.08416">
        <ele>4.1</ele>
        <time>2022-11-12T09:59:32Z</time>
      </trkpt>
      <trkpt lat="47.87326" lon="-4.08422">
        <ele>4.1</ele>
        <time>2022-11-12T09:59:33Z</time>
      </trkpt>
      <trkpt lat="47.87323" lon="-4.08427">
        <ele>4.1</ele>
        <time>2022-11-12T09:59:34Z</time>
      </trkpt>
      <trkpt lat="47.87318" lon="-4.0843">
        <ele>4.1</ele>
        <time>2022-11-12T09:59:35Z</time>
      </trkpt>
      <trkpt lat="47.87313" lon="-4.08432">
        <ele>4.2</ele>
        <time>2022-11-12T09:59:36Z</time>
      </trkpt>
      <trkpt lat="47.87309" lon="-4.08434">
        <ele>4.2</ele>
        <time>2022-11-12T09:59:37Z</time>
      </trkpt>
      <trkpt lat="47.87304" lon="-4.08437">
        <ele>4.2</ele>
        <time>2022-11-12T09:59:38Z</time>
      </trkpt>
      <trkpt lat="47.87299" lon="-4.08439">
        <ele>4.2</ele>
        <time>2022-11-12T09:59:39Z</time>
      </trkpt>
      <trkpt lat="47.87295" lon="-4.08439">
        <ele>4.2</ele>
        <time>2022-11-12T09:59:40Z</time>
      </trkpt>
      <trkpt lat="47.87291" lon="-4.08438">
        <ele>4.3</ele>
        <time>2022-11-12T09:59:41Z</time>
      </trkpt>
      <trkpt lat="47.87285" lon="-4.08436">
        <ele>4.3</ele>
        <time>2022-11-12T09:59:42Z</time>
      </trkpt>
      <trkpt lat="47.87279" lon="-4.08432">
        <ele>4.3</ele>
        <time>2022-11-12T09:59:43Z</time>
      </trkpt>
      <trkpt lat="47.87273" lon="-4.08429">
        <ele>4.4</ele>
        <time>2022-11-12T09:59:44Z</time>
      </trkpt>
      <trkpt lat="47.87268" lon="-4.08425">
        <ele>4.4</ele>
        <time>2022-11-12T09:59:45Z</time>
      </trkpt>
      <trkpt lat="47.87263" lon="-4.08422">
        <ele>4.4</ele>
        <time>2022-11-12T09:59:46Z</time>
      </trkpt>
      <trkpt lat="47.87257" lon="-4.08418">
        <ele>4.4</ele>
        <time>2022-11-12T09:59:47Z</time>
      </trkpt>
      <trkpt lat="47.87251" lon="-4.08414">
        <ele>4.4</ele>
        <time>2022-11-12T09:59:48Z</time>
      </trkpt>
      <trkpt lat="47.87245" lon="-4.0841">
        <ele>4.3</ele>
        <time>2022-11-12T09:59:49Z</time>
      </trkpt>
      <trkpt lat="47.8724" lon="-4.08406">
        <ele>4.2</ele>
        <time>2022-11-12T09:59:50Z</time>
      </trkpt>
      <trkpt lat="47.87235" lon="-4.08402">
        <ele>4.1</ele>
        <time>2022-11-12T09:59:51Z</time>
      </trkpt>
      <trkpt lat="47.8723" lon="-4.08397">
        <ele>4</ele>
        <time>2022-11-12T09:59:52Z</time>
      </trkpt>
      <trkpt lat="47.87227" lon="-4.08391">
        <ele>4</ele>
        <time>2022-11-12T09:59:53Z</time>
      </trkpt>
      <trkpt lat="47.87225" lon="-4.08383">
        <ele>3.9</ele>
        <time>2022-11-12T09:59:54Z</time>
      </trkpt>
      <trkpt lat="47.87221" lon="-4.08374">
        <ele>3.8</ele>
        <time>2022-11-12T09:59:55Z</time>
      </trkpt>
      <trkpt lat="47.87217" lon="-4.08367">
        <ele>3.7</ele>
        <time>2022-11-12T09:59:56Z</time>
      </trkpt>
      <trkpt lat="47.87213" lon="-4.08359">
        <ele>3.7</ele>
        <time>2022-11-12T09:59:57Z</time>
      </trkpt>
      <trkpt lat="47.87209" lon="-4.08352">
        <ele>3.7</ele>
        <time>2022-11-12T09:59:58Z</time>
      </trkpt>
      <trkpt lat="47.87205" lon="-4.08345">
        <ele>3.7</ele>
        <time>2022-11-12T09:59:59Z</time>
      </trkpt>
      <trkpt lat="47.87201" lon="-4.08339">
        <ele>3.7</ele>
        <time>2022-11-12T10:00:00Z</time>
      </trkpt>
      <trkpt lat="47.87197" lon="-4.08332">
        <ele>3.7</ele>
        <time>2022-11-12T10:00:01Z</time>
      </trkpt>
      <trkpt lat="47.87194" lon="-4.08324">
        <ele>3.8</ele>
        <time>2022-11-12T10:00:02Z</time>
      </trkpt>
      <trkpt lat="47.87191" lon="-4.08316">
        <ele>3.9</ele>
        <time>2022-11-12T10:00:03Z</time>
      </trkpt>
      <trkpt lat="47.87188" lon="-4.0831">
        <ele>4</ele>
        <time>2022-11-12T10:00:04Z</time>
      </trkpt>
      <trkpt lat="47.87183" lon="-4.08306">
        <ele>4.1</ele>
        <time>2022-11-12T10:00:05Z</time>
      </trkpt>
      <trkpt lat="47.87179" lon="-4.08305">
        <ele>4.2</ele>
        <time>2022-11-12T10:00:06Z</time>
      </trkpt>
      <trkpt lat="47.87174" lon="-4.08303">
        <ele>4.3</ele>
        <time>2022-11-12T10:00:07Z</time>
      </trkpt>
      <trkpt lat="47.8717" lon="-4.08301">
        <ele>4.4</ele>
        <time>2022-11-12T10:00:08Z</time>
      </trkpt>
      <trkpt lat="47.87166" lon="-4.083">
        <ele>4.5</ele>
        <time>2022-11-12T10:00:09Z</time>
      </trkpt>
      <trkpt lat="47.87162" lon="-4.08299">
        <ele>4.6</ele>
        <time>2022-11-12T10:00:10Z</time>
      </trkpt>
      <trkpt lat="47.87157" lon="-4.08298">
        <ele>4.7</ele>
        <time>2022-11-12T10:00:11Z</time>
      </trkpt>
      <trkpt lat="47.87152" lon="-4.08297">
        <ele>4.8</ele>
        <time>2022-11-12T10:00:12Z</time>
      </trkpt>
      <trkpt lat="47.87146" lon="-4.08294">
        <ele>4.8</ele>
        <time>2022-11-12T10:00:13Z</time>
      </trkpt>
      <trkpt lat="47.87141" lon="-4.08292">
        <ele>4.8</ele>
        <time>2022-11-12T10:00:14Z</time>
      </trkpt>
      <trkpt lat="47.87135" lon="-4.08291">
        <ele>4.8</ele>
        <time>2022-11-12T10:00:15Z</time>
      </trkpt>
      <trkpt lat="47.8713" lon="-4.08289">
        <ele>4.8</ele>
        <time>2022-11-12T10:00:16Z</time>
      </trkpt>
      <trkpt lat="47.87124" lon="-4.08288">
        <ele>4.8</ele>
        <time>2022-11-12T10:00:17Z</time>
      </trkpt>
      <trkpt lat="47.87118" lon="-4.08286">
        <ele>4.8</ele>
        <time>2022-11-12T10:00:18Z</time>
      </trkpt>
      <trkpt lat="47.87111" lon="-4.08284">
        <ele>4.8</ele>
        <time>2022-11-12T10:00:19Z</time>
      </trkpt>
      <trkpt lat="47.87105" lon="-4.08282">
        <ele>4.8</ele>
        <time>2022-11-12T10:00:20Z</time>
      </trkpt>
      <trkpt lat="47.87099" lon="-4.0828">
        <ele>4.9</ele>
        <time>2022-11-12T10:00:21Z</time>
      </trkpt>
      <trkpt lat="47.87093" lon="-4.08279">
        <ele>4.9</ele>
        <time>2022-11-12T10:00:22Z</time>
      </trkpt>
      <trkpt lat="47.87086" lon="-4.08277">
        <ele>5</ele>
        <time>2022-11-12T10:00:23Z</time>
      </trkpt>
      <trkpt lat="47.8708" lon="-4.08275">
        <ele>5.1</ele>
        <time>2022-11-12T10:00:24Z</time>
      </trkpt>
      <trkpt lat="47.87074" lon="-4.08273">
        <ele>5.2</ele>
        <time>2022-11-12T10:00:25Z</time>
      </trkpt>
      <trkpt lat="47.87068" lon="-4.08271">
        <ele>5.3</ele>
        <time>2022-11-12T10:00:26Z</time>
      </trkpt>
      <trkpt lat="47.87062" lon="-4.0827">
        <ele>5.3</ele>
        <time>2022-11-12T10:00:27Z</time>
      </trkpt>
      <trkpt lat="47.87057" lon="-4.08269">
        <ele>5.4</ele>
        <time>2022-11-12T10:00:28Z</time>
      </trkpt>
      <trkpt lat="47.87051" lon="-4.08268">
        <ele>5.4</ele>
        <time>2022-11-12T10:00:29Z</time>
      </trkpt>
      <trkpt lat="47.87045" lon="-4.08267">
        <ele>5.4</ele>
        <time>2022-11-12T10:00:30Z</time>
      </trkpt>
      <trkpt lat="47.87039" lon="-4.08266">
        <ele>5.3</ele>
        <time>2022-11-12T10:00:31Z</time>
      </trkpt>
      <trkpt lat="47.87034" lon="-4.08265">
        <ele>5.2</ele>
        <time>2022-11-12T10:00:32Z</time>
      </trkpt>
      <trkpt lat="47.87027" lon="-4.08263">
        <ele>5</ele>
        <time>2022-11-12T10:00:33Z</time>
      </trkpt>
      <trkpt lat="47.87021" lon="-4.08262">
        <ele>4.9</ele>
        <time>2022-11-12T10:00:34Z</time>
      </trkpt>
      <trkpt lat="47.87014" lon="-4.0826">
        <ele>4.7</ele>
        <time>2022-11-12T10:00:35Z</time>
      </trkpt>
      <trkpt lat="47.87009" lon="-4.08258">
        <ele>4.6</ele>
        <time>2022-11-12T10:00:36Z</time>
      </trkpt>
      <trkpt lat="47.87003" lon="-4.08257">
        <ele>4.4</ele>
        <time>2022-11-12T10:00:37Z</time>
      </trkpt>
      <trkpt lat="47.86999" lon="-4.08252">
        <ele>4.2</ele>
        <time>2022-11-12T10:00:38Z</time>
      </trkpt>
      <trkpt lat="47.86998" lon="-4.08246">
        <ele>4.2</ele>
        <time>2022-11-12T10:00:39Z</time>
      </trkpt>
      <trkpt lat="47.86998" lon="-4.0824">
        <ele>4.1</ele>
        <time>2022-11-12T10:00:40Z</time>
      </trkpt>
      <trkpt lat="47.86999" lon="-4.08234">
        <ele>4.1</ele>
        <time>2022-11-12T10:00:41Z</time>
      </trkpt>
      <trkpt lat="47.87" lon="-4.08229">
        <ele>4</ele>
        <time>2022-11-12T10:00:42Z</time>
      </trkpt>
      <trkpt lat="47.87001" lon="-4.0822">
        <ele>3.9</ele>
        <time>2022-11-12T10:00:43Z</time>
      </trkpt>
      <trkpt lat="47.87002" lon="-4.08211">
        <ele>3.9</ele>
        <time>2022-11-12T10:00:44Z</time>
      </trkpt>
      <trkpt lat="47.87002" lon="-4.08203">
        <ele>3.8</ele>
        <time>2022-11-12T10:00:45Z</time>
      </trkpt>
      <trkpt lat="47.87001" lon="-4.08194">
        <ele>3.8</ele>
        <time>2022-11-12T10:00:46Z</time>
      </trkpt>
      <trkpt lat="47.87" lon="-4.08185">
        <ele>3.8</ele>
        <time>2022-11-12T10:00:47Z</time>
      </trkpt>
      <trkpt lat="47.87" lon="-4.08177">
        <ele>3.7</ele>
        <time>2022-11-12T10:00:48Z</time>
      </trkpt>
      <trkpt lat="47.86999" lon="-4.08168">
        <ele>3.7</ele>
        <time>2022-11-12T10:00:49Z</time>
      </trkpt>
      <trkpt lat="47.86999" lon="-4.0816">
        <ele>3.7</ele>
        <time>2022-11-12T10:00:50Z</time>
      </trkpt>
      <trkpt lat="47.86999" lon="-4.08152">
        <ele>3.7</ele>
        <time>2022-11-12T10:00:51Z</time>
      </trkpt>
      <trkpt lat="47.86999" lon="-4.08144">
        <ele>3.8</ele>
        <time>2022-11-12T10:00:52Z</time>
      </trkpt>
      <trkpt lat="47.86999" lon="-4.08136">
        <ele>3.8</ele>
        <time>2022-11-12T10:00:53Z</time>
      </trkpt>
      <trkpt lat="47.86997" lon="-4.08129">
        <ele>3.8</ele>
        <time>2022-11-12T10:00:54Z</time>
      </trkpt>
      <trkpt lat="47.86995" lon="-4.08121">
        <ele>3.8</ele>
        <time>2022-11-12T10:00:55Z</time>
      </trkpt>
      <trkpt lat="47.86993" lon="-4.08113">
        <ele>3.8</ele>
        <time>2022-11-12T10:00:56Z</time>
      </trkpt>
      <trkpt lat="47.86991" lon="-4.08105">
        <ele>3.7</ele>
        <time>2022-11-12T10:00:57Z</time>
      </trkpt>
      <trkpt lat="47.86989" lon="-4.08098">
        <ele>3.7</ele>
        <time>2022-11-12T10:00:58Z</time>
      </trkpt>
      <trkpt lat="47.86985" lon="-4.08091">
        <ele>3.7</ele>
        <time>2022-11-12T10:00:59Z</time>
      </trkpt>
      <trkpt lat="47.86981" lon="-4.08086">
        <ele>3.6</ele>
        <time>2022-11-12T10:01:00Z</time>
      </trkpt>
      <trkpt lat="47.86976" lon="-4.08083">
        <ele>3.6</ele>
        <time>2022-11-12T10:01:01Z</time>
      </trkpt>
      <trkpt lat="47.8697" lon="-4.08081">
        <ele>3.5</ele>
        <time>2022-11-12T10:01:02Z</time>
      </trkpt>
      <trkpt lat="47.86964" lon="-4.0808">
        <ele>3.5</ele>
        <time>2022-11-12T10:01:03Z</time>
      </trkpt>
      <trkpt lat="47.86959" lon="-4.08079">
        <ele>3.5</ele>
        <time>2022-11-12T10:01:04Z</time>
      </trkpt>
      <trkpt lat="47.86953" lon="-4.08078">
        <ele>3.4</ele>
        <time>2022-11-12T10:01:05Z</time>
      </trkpt>
      <trkpt lat="47.86948" lon="-4.08077">
        <ele>3.4</ele>
        <time>2022-11-12T10:01:06Z</time>
      </trkpt>
      <trkpt lat="47.86942" lon="-4.08076">
        <ele>3.4</ele>
        <time>2022-11-12T10:01:07Z</time>
      </trkpt>
      <trkpt lat="47.86937" lon="-4.08074">
        <ele>3.4</ele>
        <time>2022-11-12T10:01:08Z</time>
      </trkpt>
      <trkpt lat="47.86932" lon="-4.08072">
        <ele>3.4</ele>
        <time>2022-11-12T10:01:09Z</time>
      </trkpt>
      <trkpt lat="47.86926" lon="-4.08069">
        <ele>3.4</ele>
        <time>2022-11-12T10:01:10Z</time>
      </trkpt>
      <trkpt lat="47.86921" lon="-4.08066">
        <ele>3.4</ele>
        <time>2022-11-12T10:01:11Z</time>
      </trkpt>
      <trkpt lat="47.86917" lon="-4.08063">
        <ele>3.4</ele>
        <time>2022-11-12T10:01:12Z</time>
      </trkpt>
      <trkpt lat="47.86911" lon="-4.0806">
        <ele>3.4</ele>
        <time>2022-11-12T10:01:13Z</time>
      </trkpt>
      <trkpt lat="47.86906" lon="-4.08057">
        <ele>3.3</ele>
        <time>2022-11-12T10:01:14Z</time>
      </trkpt>
      <trkpt lat="47.86901" lon="-4.08054">
        <ele>3.3</ele>
        <time>2022-11-12T10:01:15Z</time>
      </trkpt>
      <trkpt lat="47.86896" lon="-4.08051">
        <ele>3.3</ele>
        <time>2022-11-12T10:01:16Z</time>
      </trkpt>
      <trkpt lat="47.86891" lon="-4.08046">
        <ele>3.3</ele>
        <time>2022-11-12T10:01:17Z</time>
      </trkpt>
      <trkpt lat="47.86886" lon="-4.08041">
        <ele>3.3</ele>
        <time>2022-11-12T10:01:18Z</time>
      </trkpt>
      <trkpt lat="47.86881" lon="-4.08037">
        <ele>3.3</ele>
        <time>2022-11-12T10:01:19Z</time>
      </trkpt>
      <trkpt lat="47.86876" lon="-4.08032">
        <ele>3.3</ele>
        <time>2022-11-12T10:01:20Z</time>
      </trkpt>
      <trkpt lat="47.86872" lon="-4.08026">
        <ele>3.3</ele>
        <time>2022-11-12T10:01:21Z</time>
      </trkpt>
      <trkpt lat="47.86867" lon="-4.08021">
        <ele>3.3</ele>
        <time>2022-11-12T10:01:22Z</time>
      </trkpt>
      <trkpt lat="47.86862" lon="-4.08017">
        <ele>3.3</ele>
        <time>2022-11-12T10:01:23Z</time>
      </trkpt>
      <trkpt lat="47.86857" lon="-4.08013">
        <ele>3.3</ele>
        <time>2022-11-12T10:01:24Z</time>
      </trkpt>
      <trkpt lat="47.86853" lon="-4.08009">
        <ele>3.3</ele>
        <time>2022-11-12T10:01:25Z</time>
      </trkpt>
      <trkpt lat="47.86849" lon="-4.08007">
        <ele>3.3</ele>
        <time>2022-11-12T10:01:26Z</time>
      </trkpt>
      <trkpt lat="47.86844" lon="-4.08004">
        <ele>3.3</ele>
        <time>2022-11-12T10:01:27Z</time>
      </trkpt>
      <trkpt lat="47.8684" lon="-4.08">
        <ele>3.4</ele>
        <time>2022-11-12T10:01:28Z</time>
      </trkpt>
      <trkpt lat="47.86835" lon="-4.07997">
        <ele>3.4</ele>
        <time>2022-11-12T10:01:29Z</time>
      </trkpt>
      <trkpt lat="47.8683" lon="-4.07993">
        <ele>3.4</ele>
        <time>2022-11-12T10:01:30Z</time>
      </trkpt>
      <trkpt lat="47.86825" lon="-4.0799">
        <ele>3.4</ele>
        <time>2022-11-12T10:01:31Z</time>
      </trkpt>
      <trkpt lat="47.86821" lon="-4.07985">
        <ele>3.4</ele>
        <time>2022-11-12T10:01:32Z</time>
      </trkpt>
      <trkpt lat="47.86816" lon="-4.0798">
        <ele>3.4</ele>
        <time>2022-11-12T10:01:33Z</time>
      </trkpt>
      <trkpt lat="47.86811" lon="-4.07975">
        <ele>3.5</ele>
        <time>2022-11-12T10:01:34Z</time>
      </trkpt>
      <trkpt lat="47.86807" lon="-4.07971">
        <ele>3.5</ele>
        <time>2022-11-12T10:01:35Z</time>
      </trkpt>
      <trkpt lat="47.86802" lon="-4.07966">
        <ele>3.5</ele>
        <time>2022-11-12T10:01:36Z</time>
      </trkpt>
      <trkpt lat="47.86797" lon="-4.07962">
        <ele>3.5</ele>
        <time>2022-11-12T10:01:37Z</time>
      </trkpt>
      <trkpt lat="47.86793" lon="-4.07957">
        <ele>3.5</ele>
        <time>2022-11-12T10:01:38Z</time>
      </trkpt>
      <trkpt lat="47.86788" lon="-4.07954">
        <ele>3.5</ele>
        <time>2022-11-12T10:01:39Z</time>
      </trkpt>
      <trkpt lat="47.86783" lon="-4.07949">
        <ele>3.5</ele>
        <time>2022-11-12T10:01:40Z</time>
      </trkpt>
      <trkpt lat="47.86779" lon="-4.07944">
        <ele>3.5</ele>
        <time>2022-11-12T10:01:41Z</time>
      </trkpt>
      <trkpt lat="47.86775" lon="-4.07938">
        <ele>3.5</ele>
        <time>2022-11-12T10:01:42Z</time>
      </trkpt>
      <trkpt lat="47.86772" lon="-4.07931">
        <ele>3.6</ele>
        <time>2022-11-12T10:01:43Z</time>
      </trkpt>
      <trkpt lat="47.86769" lon="-4.07924">
        <ele>3.6</ele>
        <time>2022-11-12T10:01:44Z</time>
      </trkpt>
      <trkpt lat="47.86766" lon="-4.07918">
        <ele>3.6</ele>
        <time>2022-11-12T10:01:45Z</time>
      </trkpt>
      <trkpt lat="47.86763" lon="-4.07912">
        <ele>3.6</ele>
        <time>2022-11-12T10:01:46Z</time>
      </trkpt>
      <trkpt lat="47.86759" lon="-4.07904">
        <ele>3.6</ele>
        <time>2022-11-12T10:01:47Z</time>
      </trkpt>
      <trkpt lat="47.86756" lon="-4.07897">
        <ele>3.7</ele>
        <time>2022-11-12T10:01:48Z</time>
      </trkpt>
      <trkpt lat="47.86754" lon="-4.0789">
        <ele>3.7</ele>
        <time>2022-11-12T10:01:49Z</time>
      </trkpt>
      <trkpt lat="47.86751" lon="-4.07884">
        <ele>3.8</ele>
        <time>2022-11-12T10:01:50Z</time>
      </trkpt>
      <trkpt lat="47.86748" lon="-4.07877">
        <ele>3.8</ele>
        <time>2022-11-12T10:01:51Z</time>
      </trkpt>
      <trkpt lat="47.86746" lon="-4.07871">
        <ele>3.8</ele>
        <time>2022-11-12T10:01:52Z</time>
      </trkpt>
      <trkpt lat="47.86743" lon="-4.07864">
        <ele>3.9</ele>
        <time>2022-11-12T10:01:53Z</time>
      </trkpt>
      <trkpt lat="47.8674" lon="-4.07857">
        <ele>3.9</ele>
        <time>2022-11-12T10:01:54Z</time>
      </trkpt>
      <trkpt lat="47.86738" lon="-4.0785">
        <ele>3.8</ele>
        <time>2022-11-12T10:01:55Z</time>
      </trkpt>
      <trkpt lat="47.86736" lon="-4.07841">
        <ele>3.8</ele>
        <time>2022-11-12T10:01:56Z</time>
      </trkpt>
      <trkpt lat="47.86734" lon="-4.07833">
        <ele>3.8</ele>
        <time>2022-11-12T10:01:57Z</time>
      </trkpt>
      <trkpt lat="47.86733" lon="-4.07824">
        <ele>3.8</ele>
        <time>2022-11-12T10:01:58Z</time>
      </trkpt>
      <trkpt lat="47.86732" lon="-4.07816">
        <ele>3.7</ele>
        <time>2022-11-12T10:01:59Z</time>
      </trkpt>
      <trkpt lat="47.8673" lon="-4.07807">
        <ele>3.7</ele>
        <time>2022-11-12T10:02:00Z</time>
      </trkpt>
      <trkpt lat="47.86727" lon="-4.07799">
        <ele>3.7</ele>
        <time>2022-11-12T10:02:01Z</time>
      </trkpt>
      <trkpt lat="47.86724" lon="-4.07793">
        <ele>3.7</ele>
        <time>2022-11-12T10:02:02Z</time>
      </trkpt>
      <trkpt lat="47.8672" lon="-4.07787">
        <ele>3.7</ele>
        <time>2022-11-12T10:02:03Z</time>
      </trkpt>
      <trkpt lat="47.86716" lon="-4.07783">
        <ele>3.7</ele>
        <time>2022-11-12T10:02:04Z</time>
      </trkpt>
      <trkpt lat="47.8671" lon="-4.07781">
        <ele>3.8</ele>
        <time>2022-11-12T10:02:05Z</time>
      </trkpt>
      <trkpt lat="47.86705" lon="-4.07781">
        <ele>3.8</ele>
        <time>2022-11-12T10:02:06Z</time>
      </trkpt>
      <trkpt lat="47.867" lon="-4.07782">
        <ele>3.8</ele>
        <time>2022-11-12T10:02:07Z</time>
      </trkpt>
      <trkpt lat="47.86694" lon="-4.07783">
        <ele>3.8</ele>
        <time>2022-11-12T10:02:08Z</time>
      </trkpt>
      <trkpt lat="47.86689" lon="-4.07784">
        <ele>3.7</ele>
        <time>2022-11-12T10:02:09Z</time>
      </trkpt>
      <trkpt lat="47.86683" lon="-4.07785">
        <ele>3.7</ele>
        <time>2022-11-12T10:02:10Z</time>
      </trkpt>
      <trkpt lat="47.86678" lon="-4.07787">
        <ele>3.6</ele>
        <time>2022-11-12T10:02:11Z</time>
      </trkpt>
      <trkpt lat="47.86672" lon="-4.07789">
        <ele>3.6</ele>
        <time>2022-11-12T10:02:12Z</time>
      </trkpt>
      <trkpt lat="47.86666" lon="-4.0779">
        <ele>3.5</ele>
        <time>2022-11-12T10:02:13Z</time>
      </trkpt>
      <trkpt lat="47.86661" lon="-4.07791">
        <ele>3.5</ele>
        <time>2022-11-12T10:02:14Z</time>
      </trkpt>
      <trkpt lat="47.86656" lon="-4.07792">
        <ele>3.5</ele>
        <time>2022-11-12T10:02:15Z</time>
      </trkpt>
      <trkpt lat="47.86651" lon="-4.07793">
        <ele>3.5</ele>
        <time>2022-11-12T10:02:16Z</time>
      </trkpt>
      <trkpt lat="47.86647" lon="-4.07795">
        <ele>3.5</ele>
        <time>2022-11-12T10:02:17Z</time>
      </trkpt>
      <trkpt lat="47.86643" lon="-4.07799">
        <ele>3.4</ele>
        <time>2022-11-12T10:02:18Z</time>
      </trkpt>
      <trkpt lat="47.86641" lon="-4.07805">
        <ele>3.4</ele>
        <time>2022-11-12T10:02:19Z</time>
      </trkpt>
      <trkpt lat="47.86639" lon="-4.07812">
        <ele>3.5</ele>
        <time>2022-11-12T10:02:20Z</time>
      </trkpt>
      <trkpt lat="47.8664" lon="-4.0782">
        <ele>3.6</ele>
        <time>2022-11-12T10:02:21Z</time>
      </trkpt>
      <trkpt lat="47.86641" lon="-4.07829">
        <ele>3.7</ele>
        <time>2022-11-12T10:02:22Z</time>
      </trkpt>
      <trkpt lat="47.86643" lon="-4.07836">
        <ele>3.8</ele>
        <time>2022-11-12T10:02:23Z</time>
      </trkpt>
      <trkpt lat="47.86645" lon="-4.07844">
        <ele>3.9</ele>
        <time>2022-11-12T10:02:24Z</time>
      </trkpt>
      <trkpt lat="47.86645" lon="-4.07853">
        <ele>4.1</ele>
        <time>2022-11-12T10:02:25Z</time>
      </trkpt>
      <trkpt lat="47.86646" lon="-4.07861">
        <ele>4.2</ele>
        <time>2022-11-12T10:02:26Z</time>
      </trkpt>
      <trkpt lat="47.86647" lon="-4.0787">
        <ele>4.4</ele>
        <time>2022-11-12T10:02:27Z</time>
      </trkpt>
      <trkpt lat="47.86648" lon="-4.07878">
        <ele>4.7</ele>
        <time>2022-11-12T10:02:28Z</time>
      </trkpt>
      <trkpt lat="47.86649" lon="-4.07886">
        <ele>4.9</ele>
        <time>2022-11-12T10:02:29Z</time>
      </trkpt>
      <trkpt lat="47.86649" lon="-4.07895">
        <ele>5.2</ele>
        <time>2022-11-12T10:02:30Z</time>
      </trkpt>
      <trkpt lat="47.8665" lon="-4.07901">
        <ele>5.4</ele>
        <time>2022-11-12T10:02:31Z</time>
      </trkpt>
      <trkpt lat="47.8665" lon="-4.07907">
        <ele>5.6</ele>
        <time>2022-11-12T10:02:32Z</time>
      </trkpt>
      <trkpt lat="47.86649" lon="-4.07916">
        <ele>5.9</ele>
        <time>2022-11-12T10:02:33Z</time>
      </trkpt>
      <trkpt lat="47.86649" lon="-4.07924">
        <ele>6.2</ele>
        <time>2022-11-12T10:02:34Z</time>
      </trkpt>
      <trkpt lat="47.8665" lon="-4.07931">
        <ele>6.4</ele>
        <time>2022-11-12T10:02:35Z</time>
      </trkpt>
      <trkpt lat="47.86651" lon="-4.07939">
        <ele>6.7</ele>
        <time>2022-11-12T10:02:36Z</time>
      </trkpt>
      <trkpt lat="47.86652" lon="-4.07947">
        <ele>7</ele>
        <time>2022-11-12T10:02:37Z</time>
      </trkpt>
      <trkpt lat="47.86652" lon="-4.07955">
        <ele>7.2</ele>
        <time>2022-11-12T10:02:38Z</time>
      </trkpt>
      <trkpt lat="47.86652" lon="-4.07963">
        <ele>7.5</ele>
        <time>2022-11-12T10:02:39Z</time>
      </trkpt>
      <trkpt lat="47.86652" lon="-4.07971">
        <ele>7.7</ele>
        <time>2022-11-12T10:02:40Z</time>
      </trkpt>
      <trkpt lat="47.86653" lon="-4.07978">
        <ele>7.9</ele>
        <time>2022-11-12T10:02:41Z</time>
      </trkpt>
      <trkpt lat="47.86653" lon="-4.07985">
        <ele>8.1</ele>
        <time>2022-11-12T10:02:42Z</time>
      </trkpt>
      <trkpt lat="47.86653" lon="-4.07993">
        <ele>8.3</ele>
        <time>2022-11-12T10:02:43Z</time>
      </trkpt>
      <trkpt lat="47.86653" lon="-4.08">
        <ele>8.5</ele>
        <time>2022-11-12T10:02:44Z</time>
      </trkpt>
      <trkpt lat="47.86651" lon="-4.08006">
        <ele>8.7</ele>
        <time>2022-11-12T10:02:45Z</time>
      </trkpt>
      <trkpt lat="47.8665" lon="-4.08013">
        <ele>8.8</ele>
        <time>2022-11-12T10:02:46Z</time>
      </trkpt>
      <trkpt lat="47.8665" lon="-4.08022">
        <ele>9</ele>
        <time>2022-11-12T10:02:47Z</time>
      </trkpt>
      <trkpt lat="47.86649" lon="-4.0803">
        <ele>9.1</ele>
        <time>2022-11-12T10:02:48Z</time>
      </trkpt>
      <trkpt lat="47.86649" lon="-4.08038">
        <ele>9.2</ele>
        <time>2022-11-12T10:02:49Z</time>
      </trkpt>
      <trkpt lat="47.86648" lon="-4.08046">
        <ele>9.4</ele>
        <time>2022-11-12T10:02:50Z</time>
      </trkpt>
      <trkpt lat="47.86648" lon="-4.08053">
        <ele>9.5</ele>
        <time>2022-11-12T10:02:51Z</time>
      </trkpt>
      <trkpt lat="47.86649" lon="-4.08061">
        <ele>9.6</ele>
        <time>2022-11-12T10:02:52Z</time>
      </trkpt>
      <trkpt lat="47.8665" lon="-4.08069">
        <ele>9.7</ele>
        <time>2022-11-12T10:02:53Z</time>
      </trkpt>
      <trkpt lat="47.86651" lon="-4.08076">
        <ele>9.8</ele>
        <time>2022-11-12T10:02:54Z</time>
      </trkpt>
      <trkpt lat="47.86652" lon="-4.08084">
        <ele>9.9</ele>
        <time>2022-11-12T10:02:55Z</time>
      </trkpt>
      <trkpt lat="47.86652" lon="-4.08092">
        <ele>10</ele>
        <time>2022-11-12T10:02:56Z</time>
      </trkpt>
      <trkpt lat="47.86653" lon="-4.08099">
        <ele>10.1</ele>
        <time>2022-11-12T10:02:57Z</time>
      </trkpt>
      <trkpt lat="47.86654" lon="-4.08106">
        <ele>10.2</ele>
        <time>2022-11-12T10:02:58Z</time>
      </trkpt>
      <trkpt lat="47.86655" lon="-4.08114">
        <ele>10.3</ele>
        <time>2022-11-12T10:02:59Z</time>
      </trkpt>
      <trkpt lat="47.86655" lon="-4.08121">
        <ele>10.4</ele>
        <time>2022-11-12T10:03:00Z</time>
      </trkpt>
      <trkpt lat="47.86656" lon="-4.08129">
        <ele>10.5</ele>
        <time>2022-11-12T10:03:01Z</time>
      </trkpt>
      <trkpt lat="47.86657" lon="-4.08137">
        <ele>10.6</ele>
        <time>2022-11-12T10:03:02Z</time>
      </trkpt>
      <trkpt lat="47.86659" lon="-4.08145">
        <ele>10.6</ele>
        <time>2022-11-12T10:03:03Z</time>
      </trkpt>
      <trkpt lat="47.86661" lon="-4.08153">
        <ele>10.7</ele>
        <time>2022-11-12T10:03:04Z</time>
      </trkpt>
      <trkpt lat="47.86663" lon="-4.08161">
        <ele>10.8</ele>
        <time>2022-11-12T10:03:05Z</time>
      </trkpt>
      <trkpt lat="47.86666" lon="-4.08168">
        <ele>10.8</ele>
        <time>2022-11-12T10:03:06Z</time>
      </trkpt>
      <trkpt lat="47.86668" lon="-4.08174">
        <ele>10.8</ele>
        <time>2022-11-12T10:03:07Z</time>
      </trkpt>
      <trkpt lat="47.86671" lon="-4.08181">
        <ele>10.8</ele>
        <time>2022-11-12T10:03:08Z</time>
      </trkpt>
      <trkpt lat="47.86673" lon="-4.08189">
        <ele>10.9</ele>
        <time>2022-11-12T10:03:09Z</time>
      </trkpt>
      <trkpt lat="47.86674" lon="-4.08198">
        <ele>10.9</ele>
        <time>2022-11-12T10:03:10Z</time>
      </trkpt>
      <trkpt lat="47.86675" lon="-4.08207">
        <ele>10.9</ele>
        <time>2022-11-12T10:03:11Z</time>
      </trkpt>
      <trkpt lat="47.86676" lon="-4.08217">
        <ele>10.9</ele>
        <time>2022-11-12T10:03:12Z</time>
      </trkpt>
      <trkpt lat="47.86677" lon="-4.08226">
        <ele>10.9</ele>
        <time>2022-11-12T10:03:13Z</time>
      </trkpt>
      <trkpt lat="47.86677" lon="-4.08235">
        <ele>10.9</ele>
        <time>2022-11-12T10:03:14Z</time>
      </trkpt>
      <trkpt lat="47.86676" lon="-4.08244">
        <ele>10.9</ele>
        <time>2022-11-12T10:03:15Z</time>
      </trkpt>
      <trkpt lat="47.86676" lon="-4.08253">
        <ele>10.9</ele>
        <time>2022-11-12T10:03:16Z</time>
      </trkpt>
      <trkpt lat="47.86677" lon="-4.08262">
        <ele>10.8</ele>
        <time>2022-11-12T10:03:17Z</time>
      </trkpt>
      <trkpt lat="47.86676" lon="-4.08271">
        <ele>10.8</ele>
        <time>2022-11-12T10:03:18Z</time>
      </trkpt>
      <trkpt lat="47.86675" lon="-4.0828">
        <ele>10.8</ele>
        <time>2022-11-12T10:03:19Z</time>
      </trkpt>
      <trkpt lat="47.86675" lon="-4.0829">
        <ele>10.7</ele>
        <time>2022-11-12T10:03:20Z</time>
      </trkpt>
      <trkpt lat="47.86673" lon="-4.08299">
        <ele>10.7</ele>
        <time>2022-11-12T10:03:21Z</time>
      </trkpt>
      <trkpt lat="47.86672" lon="-4.08308">
        <ele>10.6</ele>
        <time>2022-11-12T10:03:22Z</time>
      </trkpt>
      <trkpt lat="47.86672" lon="-4.08317">
        <ele>10.6</ele>
        <time>2022-11-12T10:03:23Z</time>
      </trkpt>
      <trkpt lat="47.8667" lon="-4.08326">
        <ele>10.5</ele>
        <time>2022-11-12T10:03:24Z</time>
      </trkpt>
      <trkpt lat="47.86669" lon="-4.08335">
        <ele>10.5</ele>
        <time>2022-11-12T10:03:25Z</time>
      </trkpt>
      <trkpt lat="47.86668" lon="-4.08344">
        <ele>10.4</ele>
        <time>2022-11-12T10:03:26Z</time>
      </trkpt>
      <trkpt lat="47.86667" lon="-4.08353">
        <ele>10.3</ele>
        <time>2022-11-12T10:03:27Z</time>
      </trkpt>
      <trkpt lat="47.86667" lon="-4.08363">
        <ele>10.1</ele>
        <time>2022-11-12T10:03:28Z</time>
      </trkpt>
      <trkpt lat="47.86666" lon="-4.08373">
        <ele>10</ele>
        <time>2022-11-12T10:03:29Z</time>
      </trkpt>
      <trkpt lat="47.86664" lon="-4.08383">
        <ele>9.9</ele>
        <time>2022-11-12T10:03:30Z</time>
      </trkpt>
      <trkpt lat="47.86663" lon="-4.08393">
        <ele>9.7</ele>
        <time>2022-11-12T10:03:31Z</time>
      </trkpt>
      <trkpt lat="47.86662" lon="-4.08404">
        <ele>9.6</ele>
        <time>2022-11-12T10:03:32Z</time>
      </trkpt>
      <trkpt lat="47.8666" lon="-4.08414">
        <ele>9.5</ele>
        <time>2022-11-12T10:03:33Z</time>
      </trkpt>
      <trkpt lat="47.86658" lon="-4.08423">
        <ele>9.4</ele>
        <time>2022-11-12T10:03:34Z</time>
      </trkpt>
      <trkpt lat="47.86657" lon="-4.08433">
        <ele>9.3</ele>
        <time>2022-11-12T10:03:35Z</time>
      </trkpt>
      <trkpt lat="47.86655" lon="-4.08443">
        <ele>9.3</ele>
        <time>2022-11-12T10:03:36Z</time>
      </trkpt>
      <trkpt lat="47.86655" lon="-4.08452">
        <ele>9.3</ele>
        <time>2022-11-12T10:03:37Z</time>
      </trkpt>
      <trkpt lat="47.86657" lon="-4.08461">
        <ele>9.3</ele>
        <time>2022-11-12T10:03:38Z</time>
      </trkpt>
      <trkpt lat="47.8666" lon="-4.08468">
        <ele>9.5</ele>
        <time>2022-11-12T10:03:39Z</time>
      </trkpt>
      <trkpt lat="47.86665" lon="-4.08474">
        <ele>9.7</ele>
        <time>2022-11-12T10:03:40Z</time>
      </trkpt>
      <trkpt lat="47.8667" lon="-4.08479">
        <ele>9.9</ele>
        <time>2022-11-12T10:03:41Z</time>
      </trkpt>
      <trkpt lat="47.86675" lon="-4.08484">
        <ele>10.1</ele>
        <time>2022-11-12T10:03:42Z</time>
      </trkpt>
      <trkpt lat="47.8668" lon="-4.08488">
        <ele>10.2</ele>
        <time>2022-11-12T10:03:43Z</time>
      </trkpt>
      <trkpt lat="47.86685" lon="-4.08491">
        <ele>10.4</ele>
        <time>2022-11-12T10:03:44Z</time>
      </trkpt>
      <trkpt lat="47.8669" lon="-4.08495">
        <ele>10.6</ele>
        <time>2022-11-12T10:03:45Z</time>
      </trkpt>
      <trkpt lat="47.86695" lon="-4.08498">
        <ele>10.8</ele>
        <time>2022-11-12T10:03:46Z</time>
      </trkpt>
      <trkpt lat="47.867" lon="-4.08502">
        <ele>10.9</ele>
        <time>2022-11-12T10:03:47Z</time>
      </trkpt>
      <trkpt lat="47.86705" lon="-4.08505">
        <ele>11.1</ele>
        <time>2022-11-12T10:03:48Z</time>
      </trkpt>
      <trkpt lat="47.8671" lon="-4.08509">
        <ele>11.3</ele>
        <time>2022-11-12T10:03:49Z</time>
      </trkpt>
      <trkpt lat="47.86715" lon="-4.08513">
        <ele>11.4</ele>
        <time>2022-11-12T10:03:50Z</time>
      </trkpt>
      <trkpt lat="47.86721" lon="-4.08517">
        <ele>11.6</ele>
        <time>2022-11-12T10:03:51Z</time>
      </trkpt>
      <trkpt lat="47.86726" lon="-4.08521">
        <ele>11.7</ele>
        <time>2022-11-12T10:03:52Z</time>
      </trkpt>
      <trkpt lat="47.86731" lon="-4.08524">
        <ele>11.8</ele>
        <time>2022-11-12T10:03:53Z</time>
      </trkpt>
      <trkpt lat="47.86736" lon="-4.08529">
        <ele>11.9</ele>
        <time>2022-11-12T10:03:54Z</time>
      </trkpt>
      <trkpt lat="47.86741" lon="-4.08533">
        <ele>12</ele>
        <time>2022-11-12T10:03:55Z</time>
      </trkpt>
      <trkpt lat="47.86746" lon="-4.08538">
        <ele>12.1</ele>
        <time>2022-11-12T10:03:56Z</time>
      </trkpt>
      <trkpt lat="47.86751" lon="-4.08543">
        <ele>12.2</ele>
        <time>2022-11-12T10:03:57Z</time>
      </trkpt>
      <trkpt lat="47.86756" lon="-4.08548">
        <ele>12.3</ele>
        <time>2022-11-12T10:03:58Z</time>
      </trkpt>
      <trkpt lat="47.86761" lon="-4.08552">
        <ele>12.4</ele>
        <time>2022-11-12T10:03:59Z</time>
      </trkpt>
      <trkpt lat="47.86765" lon="-4.08557">
        <ele>12.4</ele>
        <time>2022-11-12T10:04:00Z</time>
      </trkpt>
      <trkpt lat="47.86769" lon="-4.08562">
        <ele>12.5</ele>
        <time>2022-11-12T10:04:01Z</time>
      </trkpt>
      <trkpt lat="47.86774" lon="-4.08568">
        <ele>12.6</ele>
        <time>2022-11-12T10:04:02Z</time>
      </trkpt>
      <trkpt lat="47.86778" lon="-4.08574">
        <ele>12.7</ele>
        <time>2022-11-12T10:04:03Z</time>
      </trkpt>
      <trkpt lat="47.86783" lon="-4.08579">
        <ele>12.8</ele>
        <time>2022-11-12T10:04:04Z</time>
      </trkpt>
      <trkpt lat="47.86789" lon="-4.08585">
        <ele>12.9</ele>
        <time>2022-11-12T10:04:05Z</time>
      </trkpt>
      <trkpt lat="47.86794" lon="-4.0859">
        <ele>12.9</ele>
        <time>2022-11-12T10:04:06Z</time>
      </trkpt>
      <trkpt lat="47.868" lon="-4.08593">
        <ele>13</ele>
        <time>2022-11-12T10:04:07Z</time>
      </trkpt>
      <trkpt lat="47.86806" lon="-4.08597">
        <ele>13.1</ele>
        <time>2022-11-12T10:04:08Z</time>
      </trkpt>
      <trkpt lat="47.86812" lon="-4.08601">
        <ele>13.2</ele>
        <time>2022-11-12T10:04:09Z</time>
      </trkpt>
      <trkpt lat="47.86817" lon="-4.08604">
        <ele>13.3</ele>
        <time>2022-11-12T10:04:10Z</time>
      </trkpt>
      <trkpt lat="47.86823" lon="-4.08608">
        <ele>13.5</ele>
        <time>2022-11-12T10:04:11Z</time>
      </trkpt>
      <trkpt lat="47.86828" lon="-4.08612">
        <ele>13.7</ele>
        <time>2022-11-12T10:04:12Z</time>
      </trkpt>
      <trkpt lat="47.86834" lon="-4.08615">
        <ele>13.9</ele>
        <time>2022-11-12T10:04:13Z</time>
      </trkpt>
      <trkpt lat="47.8684" lon="-4.08618">
        <ele>13.9</ele>
        <time>2022-11-12T10:04:14Z</time>
      </trkpt>
      <trkpt lat="47.86846" lon="-4.0862">
        <ele>13.9</ele>
        <time>2022-11-12T10:04:15Z</time>
      </trkpt>
      <trkpt lat="47.86852" lon="-4.0862">
        <ele>13.8</ele>
        <time>2022-11-12T10:04:16Z</time>
      </trkpt>
      <trkpt lat="47.86859" lon="-4.08621">
        <ele>13.8</ele>
        <time>2022-11-12T10:04:17Z</time>
      </trkpt>
      <trkpt lat="47.86864" lon="-4.0862">
        <ele>13.8</ele>
        <time>2022-11-12T10:04:18Z</time>
      </trkpt>
      <trkpt lat="47.8687" lon="-4.08621">
        <ele>13.8</ele>
        <time>2022-11-12T10:04:19Z</time>
      </trkpt>
      <trkpt lat="47.86877" lon="-4.08621">
        <ele>13.9</ele>
        <time>2022-11-12T10:04:20Z</time>
      </trkpt>
      <trkpt lat="47.86883" lon="-4.08622">
        <ele>13.9</ele>
        <time>2022-11-12T10:04:21Z</time>
      </trkpt>
      <trkpt lat="47.86889" lon="-4.08622">
        <ele>14</ele>
        <time>2022-11-12T10:04:22Z</time>
      </trkpt>
      <trkpt lat="47.86894" lon="-4.08623">
        <ele>14.1</ele>
        <time>2022-11-12T10:04:23Z</time>
      </trkpt>
      <trkpt lat="47.869" lon="-4.08623">
        <ele>14.1</ele>
        <time>2022-11-12T10:04:24Z</time>
      </trkpt>
      <trkpt lat="47.86906" lon="-4.08624">
        <ele>14.2</ele>
        <time>2022-11-12T10:04:25Z</time>
      </trkpt>
      <trkpt lat="47.86912" lon="-4.08624">
        <ele>14.3</ele>
        <time>2022-11-12T10:04:26Z</time>
      </trkpt>
      <trkpt lat="47.86918" lon="-4.08625">
        <ele>14.4</ele>
        <time>2022-11-12T10:04:27Z</time>
      </trkpt>
      <trkpt lat="47.86924" lon="-4.08625">
        <ele>14.4</ele>
        <time>2022-11-12T10:04:28Z</time>
      </trkpt>
      <trkpt lat="47.8693" lon="-4.08626">
        <ele>14.5</ele>
        <time>2022-11-12T10:04:29Z</time>
      </trkpt>
      <trkpt lat="47.86936" lon="-4.08627">
        <ele>14.6</ele>
        <time>2022-11-12T10:04:30Z</time>
      </trkpt>
      <trkpt lat="47.86941" lon="-4.08626">
        <ele>14.6</ele>
        <time>2022-11-12T10:04:31Z</time>
      </trkpt>
      <trkpt lat="47.86947" lon="-4.08627">
        <ele>14.7</ele>
        <time>2022-11-12T10:04:32Z</time>
      </trkpt>
      <trkpt lat="47.86953" lon="-4.08628">
        <ele>14.8</ele>
        <time>2022-11-12T10:04:33Z</time>
      </trkpt>
      <trkpt lat="47.86958" lon="-4.0863">
        <ele>14.8</ele>
        <time>2022-11-12T10:04:34Z</time>
      </trkpt>
      <trkpt lat="47.86964" lon="-4.08632">
        <ele>14.9</ele>
        <time>2022-11-12T10:04:35Z</time>
      </trkpt>
      <trkpt lat="47.8697" lon="-4.08633">
        <ele>15</ele>
        <time>2022-11-12T10:04:36Z</time>
      </trkpt>
      <trkpt lat="47.86976" lon="-4.08635">
        <ele>15.1</ele>
        <time>2022-11-12T10:04:37Z</time>
      </trkpt>
      <trkpt lat="47.86982" lon="-4.08637">
        <ele>15.2</ele>
        <time>2022-11-12T10:04:38Z</time>
      </trkpt>
      <trkpt lat="47.86987" lon="-4.0864">
        <ele>15.3</ele>
        <time>2022-11-12T10:04:39Z</time>
      </trkpt>
      <trkpt lat="47.86994" lon="-4.08641">
        <ele>15.4</ele>
        <time>2022-11-12T10:04:40Z</time>
      </trkpt>
      <trkpt lat="47.86999" lon="-4.08644">
        <ele>15.6</ele>
        <time>2022-11-12T10:04:41Z</time>
      </trkpt>
      <trkpt lat="47.87005" lon="-4.08647">
        <ele>15.7</ele>
        <time>2022-11-12T10:04:42Z</time>
      </trkpt>
      <trkpt lat="47.8701" lon="-4.0865">
        <ele>15.8</ele>
        <time>2022-11-12T10:04:43Z</time>
      </trkpt>
      <trkpt lat="47.87016" lon="-4.08653">
        <ele>15.9</ele>
        <time>2022-11-12T10:04:44Z</time>
      </trkpt>
      <trkpt lat="47.87021" lon="-4.08655">
        <ele>16.1</ele>
        <time>2022-11-12T10:04:45Z</time>
      </trkpt>
      <trkpt lat="47.87027" lon="-4.08658">
        <ele>16.2</ele>
        <time>2022-11-12T10:04:46Z</time>
      </trkpt>
      <trkpt lat="47.87032" lon="-4.08662">
        <ele>16.3</ele>
        <time>2022-11-12T10:04:47Z</time>
      </trkpt>
      <trkpt lat="47.87037" lon="-4.08665">
        <ele>16.4</ele>
        <time>2022-11-12T10:04:48Z</time>
      </trkpt>
      <trkpt lat="47.87043" lon="-4.08667">
        <ele>16.4</ele>
        <time>2022-11-12T10:04:49Z</time>
      </trkpt>
      <trkpt lat="47.87048" lon="-4.08669">
        <ele>16.5</ele>
        <time>2022-11-12T10:04:50Z</time>
      </trkpt>
      <trkpt lat="47.87054" lon="-4.08672">
        <ele>16.6</ele>
        <time>2022-11-12T10:04:51Z</time>
      </trkpt>
      <trkpt lat="47.8706" lon="-4.08674">
        <ele>16.7</ele>
        <time>2022-11-12T10:04:52Z</time>
      </trkpt>
      <trkpt lat="47.87066" lon="-4.08674">
        <ele>16.8</ele>
        <time>2022-11-12T10:04:53Z</time>
      </trkpt>
      <trkpt lat="47.87072" lon="-4.08674">
        <ele>16.8</ele>
        <time>2022-11-12T10:04:54Z</time>
      </trkpt>
      <trkpt lat="47.87078" lon="-4.08674">
        <ele>16.9</ele>
        <time>2022-11-12T10:04:55Z</time>
      </trkpt>
      <trkpt lat="47.87084" lon="-4.08674">
        <ele>16.9</ele>
        <time>2022-11-12T10:04:56Z</time>
      </trkpt>
      <trkpt lat="47.8709" lon="-4.08673">
        <ele>17</ele>
        <time>2022-11-12T10:04:57Z</time>
      </trkpt>
      <trkpt lat="47.87097" lon="-4.08672">
        <ele>17</ele>
        <time>2022-11-12T10:04:58Z</time>
      </trkpt>
      <trkpt lat="47.87104" lon="-4.08672">
        <ele>17</ele>
        <time>2022-11-12T10:04:59Z</time>
      </trkpt>
      <trkpt lat="47.8711" lon="-4.08672">
        <ele>17</ele>
        <time>2022-11-12T10:05:00Z</time>
      </trkpt>
      <trkpt lat="47.87117" lon="-4.08672">
        <ele>17</ele>
        <time>2022-11-12T10:05:01Z</time>
      </trkpt>
      <trkpt lat="47.87124" lon="-4.08672">
        <ele>17</ele>
        <time>2022-11-12T10:05:02Z</time>
      </trkpt>
      <trkpt lat="47.8713" lon="-4.08672">
        <ele>17</ele>
        <time>2022-11-12T10:05:03Z</time>
      </trkpt>
      <trkpt lat="47.87137" lon="-4.08673">
        <ele>17</ele>
        <time>2022-11-12T10:05:04Z</time>
      </trkpt>
      <trkpt lat="47.87144" lon="-4.08674">
        <ele>17</ele>
        <time>2022-11-12T10:05:05Z</time>
      </trkpt>
      <trkpt lat="47.87151" lon="-4.08675">
        <ele>17</ele>
        <time>2022-11-12T10:05:06Z</time>
      </trkpt>
      <trkpt lat="47.87158" lon="-4.08676">
        <ele>16.9</ele>
        <time>2022-11-12T10:05:07Z</time>
      </trkpt>
      <trkpt lat="47.87165" lon="-4.08677">
        <ele>16.9</ele>
        <time>2022-11-12T10:05:08Z</time>
      </trkpt>
      <trkpt lat="47.87172" lon="-4.08678">
        <ele>16.8</ele>
        <time>2022-11-12T10:05:09Z</time>
      </trkpt>
      <trkpt lat="47.87179" lon="-4.08679">
        <ele>16.8</ele>
        <time>2022-11-12T10:05:10Z</time>
      </trkpt>
      <trkpt lat="47.87185" lon="-4.08681">
        <ele>16.7</ele>
        <time>2022-11-12T10:05:11Z</time>
      </trkpt>
      <trkpt lat="47.87192" lon="-4.08682">
        <ele>16.7</ele>
        <time>2022-11-12T10:05:12Z</time>
      </trkpt>
      <trkpt lat="47.87199" lon="-4.08683">
        <ele>16.6</ele>
        <time>2022-11-12T10:05:13Z</time>
      </trkpt>
      <trkpt lat="47.87206" lon="-4.08684">
        <ele>16.5</ele>
        <time>2022-11-12T10:05:14Z</time>
      </trkpt>
      <trkpt lat="47.87213" lon="-4.08685">
        <ele>16.4</ele>
        <time>2022-11-12T10:05:15Z</time>
      </trkpt>
      <trkpt lat="47.8722" lon="-4.08687">
        <ele>16.3</ele>
        <time>2022-11-12T10:05:16Z</time>
      </trkpt>
      <trkpt lat="47.87227" lon="-4.08689">
        <ele>16.1</ele>
        <time>2022-11-12T10:05:17Z</time>
      </trkpt>
      <trkpt lat="47.87234" lon="-4.0869">
        <ele>16</ele>
        <time>2022-11-12T10:05:18Z</time>
      </trkpt>
      <trkpt lat="47.87242" lon="-4.08691">
        <ele>15.9</ele>
        <time>2022-11-12T10:05:19Z</time>
      </trkpt>
      <trkpt lat="47.87249" lon="-4.08693">
        <ele>15.8</ele>
        <time>2022-11-12T10:05:20Z</time>
      </trkpt>
      <trkpt lat="47.87256" lon="-4.08695">
        <ele>15.7</ele>
        <time>2022-11-12T10:05:21Z</time>
      </trkpt>
      <trkpt lat="47.87263" lon="-4.08696">
        <ele>15.6</ele>
        <time>2022-11-12T10:05:22Z</time>
      </trkpt>
      <trkpt lat="47.8727" lon="-4.08698">
        <ele>15.4</ele>
        <time>2022-11-12T10:05:23Z</time>
      </trkpt>
      <trkpt lat="47.87278" lon="-4.087">
        <ele>15.2</ele>
        <time>2022-11-12T10:05:24Z</time>
      </trkpt>
      <trkpt lat="47.87286" lon="-4.08701">
        <ele>15</ele>
        <time>2022-11-12T10:05:25Z</time>
      </trkpt>
      <trkpt lat="47.87293" lon="-4.08703">
        <ele>14.7</ele>
        <time>2022-11-12T10:05:26Z</time>
      </trkpt>
      <trkpt lat="47.87301" lon="-4.08704">
        <ele>14.4</ele>
        <time>2022-11-12T10:05:27Z</time>
      </trkpt>
      <trkpt lat="47.87309" lon="-4.08706">
        <ele>14.2</ele>
        <time>2022-11-12T10:05:28Z</time>
      </trkpt>
      <trkpt lat="47.87317" lon="-4.08707">
        <ele>13.9</ele>
        <time>2022-11-12T10:05:29Z</time>
      </trkpt>
      <trkpt lat="47.87324" lon="-4.08709">
        <ele>13.8</ele>
        <time>2022-11-12T10:05:30Z</time>
      </trkpt>
      <trkpt lat="47.87332" lon="-4.0871">
        <ele>13.6</ele>
        <time>2022-11-12T10:05:31Z</time>
      </trkpt>
      <trkpt lat="47.8734" lon="-4.08712">
        <ele>13.5</ele>
        <time>2022-11-12T10:05:32Z</time>
      </trkpt>
      <trkpt lat="47.87348" lon="-4.08713">
        <ele>13.4</ele>
        <time>2022-11-12T10:05:33Z</time>
      </trkpt>
      <trkpt lat="47.87356" lon="-4.08715">
        <ele>13.4</ele>
        <time>2022-11-12T10:05:34Z</time>
      </trkpt>
      <trkpt lat="47.87364" lon="-4.08717">
        <ele>13.4</ele>
        <time>2022-11-12T10:05:35Z</time>
      </trkpt>
      <trkpt lat="47.87372" lon="-4.08719">
        <ele>13.4</ele>
        <time>2022-11-12T10:05:36Z</time>
      </trkpt>
      <trkpt lat="47.8738" lon="-4.08721">
        <ele>13.5</ele>
        <time>2022-11-12T10:05:37Z</time>
      </trkpt>
      <trkpt lat="47.87387" lon="-4.08724">
        <ele>13.6</ele>
        <time>2022-11-12T10:05:38Z</time>
      </trkpt>
      <trkpt lat="47.87394" lon="-4.08725">
        <ele>13.8</ele>
        <time>2022-11-12T10:05:39Z</time>
      </trkpt>
      <trkpt lat="47.87401" lon="-4.08727">
        <ele>13.9</ele>
        <time>2022-11-12T10:05:40Z</time>
      </trkpt>
      <trkpt lat="47.87408" lon="-4.08729">
        <ele>14.1</ele>
        <time>2022-11-12T10:05:41Z</time>
      </trkpt>
      <trkpt lat="47.87415" lon="-4.08731">
        <ele>14.2</ele>
        <time>2022-11-12T10:05:42Z</time>
      </trkpt>
      <trkpt lat="47.87421" lon="-4.08732">
        <ele>14.4</ele>
        <time>2022-11-12T10:05:43Z</time>
      </trkpt>
      <trkpt lat="47.87428" lon="-4.08734">
        <ele>14.6</ele>
        <time>2022-11-12T10:05:44Z</time>
      </trkpt>
      <trkpt lat="47.87435" lon="-4.08736">
        <ele>14.7</ele>
        <time>2022-11-12T10:05:45Z</time>
      </trkpt>
      <trkpt lat="47.87441" lon="-4.08737">
        <ele>14.9</ele>
        <time>2022-11-12T10:05:46Z</time>
      </trkpt>
      <trkpt lat="47.87447" lon="-4.08739">
        <ele>15.1</ele>
        <time>2022-11-12T10:05:47Z</time>
      </trkpt>
      <trkpt lat="47.87454" lon="-4.0874">
        <ele>15.3</ele>
        <time>2022-11-12T10:05:48Z</time>
      </trkpt>
      <trkpt lat="47.8746" lon="-4.08741">
        <ele>15.5</ele>
        <time>2022-11-12T10:05:49Z</time>
      </trkpt>
      <trkpt lat="47.87466" lon="-4.08743">
        <ele>15.7</ele>
        <time>2022-11-12T10:05:50Z</time>
      </trkpt>
      <trkpt lat="47.87472" lon="-4.08745">
        <ele>15.9</ele>
        <time>2022-11-12T10:05:51Z</time>
      </trkpt>
      <trkpt lat="47.87478" lon="-4.08747">
        <ele>16</ele>
        <time>2022-11-12T10:05:52Z</time>
      </trkpt>
      <trkpt lat="47.87484" lon="-4.08749">
        <ele>16.2</ele>
        <time>2022-11-12T10:05:53Z</time>
      </trkpt>
      <trkpt lat="47.8749" lon="-4.08749">
        <ele>16.3</ele>
        <time>2022-11-12T10:05:54Z</time>
      </trkpt>
      <trkpt lat="47.87496" lon="-4.08749">
        <ele>16.3</ele>
        <time>2022-11-12T10:05:55Z</time>
      </trkpt>
      <trkpt lat="47.87503" lon="-4.0875">
        <ele>16.5</ele>
        <time>2022-11-12T10:05:56Z</time>
      </trkpt>
      <trkpt lat="47.87509" lon="-4.08751">
        <ele>16.7</ele>
        <time>2022-11-12T10:05:57Z</time>
      </trkpt>
      <trkpt lat="47.87515" lon="-4.08753">
        <ele>16.8</ele>
        <time>2022-11-12T10:05:58Z</time>
      </trkpt>
      <trkpt lat="47.87522" lon="-4.08755">
        <ele>17</ele>
        <time>2022-11-12T10:05:59Z</time>
      </trkpt>
      <trkpt lat="47.87528" lon="-4.08756">
        <ele>17.1</ele>
        <time>2022-11-12T10:06:00Z</time>
      </trkpt>
      <trkpt lat="47.87535" lon="-4.08757">
        <ele>17.1</ele>
        <time>2022-11-12T10:06:01Z</time>
      </trkpt>
      <trkpt lat="47.87541" lon="-4.08758">
        <ele>17.2</ele>
        <time>2022-11-12T10:06:02Z</time>
      </trkpt>
      <trkpt lat="47.87548" lon="-4.08759">
        <ele>17.3</ele>
        <time>2022-11-12T10:06:03Z</time>
      </trkpt>
      <trkpt lat="47.87554" lon="-4.0876">
        <ele>17.4</ele>
        <time>2022-11-12T10:06:04Z</time>
      </trkpt>
      <trkpt lat="47.87561" lon="-4.08761">
        <ele>17.5</ele>
        <time>2022-11-12T10:06:05Z</time>
      </trkpt>
      <trkpt lat="47.87568" lon="-4.08761">
        <ele>17.5</ele>
        <time>2022-11-12T10:06:06Z</time>
      </trkpt>
      <trkpt lat="47.87574" lon="-4.08762">
        <ele>17.6</ele>
        <time>2022-11-12T10:06:07Z</time>
      </trkpt>
      <trkpt lat="47.87581" lon="-4.08763">
        <ele>17.6</ele>
        <time>2022-11-12T10:06:08Z</time>
      </trkpt>
      <trkpt lat="47.87587" lon="-4.08764">
        <ele>17.6</ele>
        <time>2022-11-12T10:06:09Z</time>
      </trkpt>
      <trkpt lat="47.87594" lon="-4.08765">
        <ele>17.7</ele>
        <time>2022-11-12T10:06:10Z</time>
      </trkpt>
      <trkpt lat="47.87601" lon="-4.08766">
        <ele>17.7</ele>
        <time>2022-11-12T10:06:11Z</time>
      </trkpt>
      <trkpt lat="47.87608" lon="-4.08767">
        <ele>17.7</ele>
        <time>2022-11-12T10:06:12Z</time>
      </trkpt>
      <trkpt lat="47.87614" lon="-4.08768">
        <ele>17.8</ele>
        <time>2022-11-12T10:06:13Z</time>
      </trkpt>
      <trkpt lat="47.87621" lon="-4.08769">
        <ele>17.8</ele>
        <time>2022-11-12T10:06:14Z</time>
      </trkpt>
      <trkpt lat="47.87628" lon="-4.0877">
        <ele>17.8</ele>
        <time>2022-11-12T10:06:15Z</time>
      </trkpt>
      <trkpt lat="47.87634" lon="-4.08771">
        <ele>17.8</ele>
        <time>2022-11-12T10:06:16Z</time>
      </trkpt>
      <trkpt lat="47.87641" lon="-4.08773">
        <ele>17.9</ele>
        <time>2022-11-12T10:06:17Z</time>
      </trkpt>
      <trkpt lat="47.87648" lon="-4.08774">
        <ele>17.9</ele>
        <time>2022-11-12T10:06:18Z</time>
      </trkpt>
      <trkpt lat="47.87654" lon="-4.08774">
        <ele>17.9</ele>
        <time>2022-11-12T10:06:19Z</time>
      </trkpt>
      <trkpt lat="47.87661" lon="-4.08775">
        <ele>17.9</ele>
        <time>2022-11-12T10:06:20Z</time>
      </trkpt>
      <trkpt lat="47.87667" lon="-4.08776">
        <ele>18</ele>
        <time>2022-11-12T10:06:21Z</time>
      </trkpt>
      <trkpt lat="47.87674" lon="-4.08777">
        <ele>18</ele>
        <time>2022-11-12T10:06:22Z</time>
      </trkpt>
      <trkpt lat="47.8768" lon="-4.08778">
        <ele>18.1</ele>
        <time>2022-11-12T10:06:23Z</time>
      </trkpt>
      <trkpt lat="47.87687" lon="-4.08779">
        <ele>18.1</ele>
        <time>2022-11-12T10:06:24Z</time>
      </trkpt>
      <trkpt lat="47.87693" lon="-4.0878">
        <ele>18.2</ele>
        <time>2022-11-12T10:06:25Z</time>
      </trkpt>
      <trkpt lat="47.877" lon="-4.08781">
        <ele>18.2</ele>
        <time>2022-11-12T10:06:26Z</time>
      </trkpt>
      <trkpt lat="47.87707" lon="-4.08782">
        <ele>18.3</ele>
        <time>2022-11-12T10:06:27Z</time>
      </trkpt>
      <trkpt lat="47.87713" lon="-4.08783">
        <ele>18.3</ele>
        <time>2022-11-12T10:06:28Z</time>
      </trkpt>
      <trkpt lat="47.8772" lon="-4.08784">
        <ele>18.4</ele>
        <time>2022-11-12T10:06:29Z</time>
      </trkpt>
      <trkpt lat="47.87727" lon="-4.08785">
        <ele>18.5</ele>
        <time>2022-11-12T10:06:30Z</time>
      </trkpt>
      <trkpt lat="47.87733" lon="-4.08785">
        <ele>18.6</ele>
        <time>2022-11-12T10:06:31Z</time>
      </trkpt>
      <trkpt lat="47.8774" lon="-4.08786">
        <ele>18.7</ele>
        <time>2022-11-12T10:06:32Z</time>
      </trkpt>
      <trkpt lat="47.87746" lon="-4.08786">
        <ele>18.8</ele>
        <time>2022-11-12T10:06:33Z</time>
      </trkpt>
      <trkpt lat="47.87752" lon="-4.08785">
        <ele>18.8</ele>
        <time>2022-11-12T10:06:34Z</time>
      </trkpt>
      <trkpt lat="47.87758" lon="-4.08783">
        <ele>18.9</ele>
        <time>2022-11-12T10:06:35Z</time>
      </trkpt>
      <trkpt lat="47.87763" lon="-4.08783">
        <ele>18.9</ele>
        <time>2022-11-12T10:06:36Z</time>
      </trkpt>
      <trkpt lat="47.87769" lon="-4.08786">
        <ele>19</ele>
        <time>2022-11-12T10:06:37Z</time>
      </trkpt>
      <trkpt lat="47.87775" lon="-4.0879">
        <ele>19</ele>
        <time>2022-11-12T10:06:38Z</time>
      </trkpt>
      <trkpt lat="47.87781" lon="-4.08795">
        <ele>19</ele>
        <time>2022-11-12T10:06:39Z</time>
      </trkpt>
      <trkpt lat="47.87787" lon="-4.08798">
        <ele>19</ele>
        <time>2022-11-12T10:06:40Z</time>
      </trkpt>
      <trkpt lat="47.87794" lon="-4.08801">
        <ele>19.1</ele>
        <time>2022-11-12T10:06:41Z</time>
      </trkpt>
      <trkpt lat="47.878" lon="-4.08804">
        <ele>19.1</ele>
        <time>2022-11-12T10:06:42Z</time>
      </trkpt>
      <trkpt lat="47.87807" lon="-4.08806">
        <ele>19.2</ele>
        <time>2022-11-12T10:06:43Z</time>
      </trkpt>
      <trkpt lat="47.87813" lon="-4.08808">
        <ele>19.2</ele>
        <time>2022-11-12T10:06:44Z</time>
      </trkpt>
      <trkpt lat="47.87819" lon="-4.08811">
        <ele>19.3</ele>
        <time>2022-11-12T10:06:45Z</time>
      </trkpt>
      <trkpt lat="47.87825" lon="-4.08815">
        <ele>19.3</ele>
        <time>2022-11-12T10:06:46Z</time>
      </trkpt>
      <trkpt lat="47.87831" lon="-4.08819">
        <ele>19.3</ele>
        <time>2022-11-12T10:06:47Z</time>
      </trkpt>
      <trkpt lat="47.87837" lon="-4.08822">
        <ele>19.4</ele>
        <time>2022-11-12T10:06:48Z</time>
      </trkpt>
      <trkpt lat="47.87843" lon="-4.08824">
        <ele>19.4</ele>
        <time>2022-11-12T10:06:49Z</time>
      </trkpt>
      <trkpt lat="47.8785" lon="-4.08827">
        <ele>19.5</ele>
        <time>2022-11-12T10:06:50Z</time>
      </trkpt>
      <trkpt lat="47.87856" lon="-4.0883">
        <ele>19.5</ele>
        <time>2022-11-12T10:06:51Z</time>
      </trkpt>
      <trkpt lat="47.87862" lon="-4.08832">
        <ele>19.6</ele>
        <time>2022-11-12T10:06:52Z</time>
      </trkpt>
      <trkpt lat="47.87868" lon="-4.08834">
        <ele>19.6</ele>
        <time>2022-11-12T10:06:53Z</time>
      </trkpt>
      <trkpt lat="47.87874" lon="-4.08837">
        <ele>19.7</ele>
        <time>2022-11-12T10:06:54Z</time>
      </trkpt>
      <trkpt lat="47.87881" lon="-4.08839">
        <ele>19.7</ele>
        <time>2022-11-12T10:06:55Z</time>
      </trkpt>
      <trkpt lat="47.87888" lon="-4.08842">
        <ele>19.7</ele>
        <time>2022-11-12T10:06:56Z</time>
      </trkpt>
      <trkpt lat="47.87894" lon="-4.08845">
        <ele>19.8</ele>
        <time>2022-11-12T10:06:57Z</time>
      </trkpt>
      <trkpt lat="47.87901" lon="-4.08847">
        <ele>19.8</ele>
        <time>2022-11-12T10:06:58Z</time>
      </trkpt>
      <trkpt lat="47.87907" lon="-4.08849">
        <ele>19.8</ele>
        <time>2022-11-12T10:06:59Z</time>
      </trkpt>
      <trkpt lat="47.87913" lon="-4.08849">
        <ele>19.9</ele>
        <time>2022-11-12T10:07:00Z</time>
      </trkpt>
      <trkpt lat="47.8792" lon="-4.0885">
        <ele>19.9</ele>
        <time>2022-11-12T10:07:01Z</time>
      </trkpt>
      <trkpt lat="47.87926" lon="-4.0885">
        <ele>19.9</ele>
        <time>2022-11-12T10:07:02Z</time>
      </trkpt>
      <trkpt lat="47.87933" lon="-4.0885">
        <ele>20</ele>
        <time>2022-11-12T10:07:03Z</time>
      </trkpt>
      <trkpt lat="47.87939" lon="-4.08849">
        <ele>20.1</ele>
        <time>2022-11-12T10:07:04Z</time>
      </trkpt>
      <trkpt lat="47.87946" lon="-4.08849">
        <ele>20.1</ele>
        <time>2022-11-12T10:07:05Z</time>
      </trkpt>
      <trkpt lat="47.87952" lon="-4.0885">
        <ele>20.2</ele>
        <time>2022-11-12T10:07:06Z</time>
      </trkpt>
      <trkpt lat="47.87958" lon="-4.0885">
        <ele>20.2</ele>
        <time>2022-11-12T10:07:07Z</time>
      </trkpt>
      <trkpt lat="47.87963" lon="-4.08848">
        <ele>20.2</ele>
        <time>2022-11-12T10:07:08Z</time>
      </trkpt>
      <trkpt lat="47.87967" lon="-4.08843">
        <ele>20.2</ele>
        <time>2022-11-12T10:07:09Z</time>
      </trkpt>
      <trkpt lat="47.87968" lon="-4.08836">
        <ele>20.2</ele>
        <time>2022-11-12T10:07:10Z</time>
      </trkpt>
      <trkpt lat="47.87967" lon="-4.0883">
        <ele>20.2</ele>
        <time>2022-11-12T10:07:11Z</time>
      </trkpt>
      <trkpt lat="47.87967" lon="-4.08821">
        <ele>20.2</ele>
        <time>2022-11-12T10:07:12Z</time>
      </trkpt>
      <trkpt lat="47.87965" lon="-4.08812">
        <ele>20.2</ele>
        <time>2022-11-12T10:07:13Z</time>
      </trkpt>
      <trkpt lat="47.87964" lon="-4.08804">
        <ele>20.2</ele>
        <time>2022-11-12T10:07:14Z</time>
      </trkpt>
      <trkpt lat="47.87964" lon="-4.08796">
        <ele>20.2</ele>
        <time>2022-11-12T10:07:15Z</time>
      </trkpt>
      <trkpt lat="47.87963" lon="-4.08788">
        <ele>20.2</ele>
        <time>2022-11-12T10:07:16Z</time>
      </trkpt>
      <trkpt lat="47.87963" lon="-4.08779">
        <ele>20.2</ele>
        <time>2022-11-12T10:07:17Z</time>
      </trkpt>
      <trkpt lat="47.87962" lon="-4.08772">
        <ele>20.2</ele>
        <time>2022-11-12T10:07:18Z</time>
      </trkpt>
      <trkpt lat="47.87962" lon="-4.08764">
        <ele>20.3</ele>
        <time>2022-11-12T10:07:19Z</time>
      </trkpt>
      <trkpt lat="47.87961" lon="-4.08756">
        <ele>20.3</ele>
        <time>2022-11-12T10:07:20Z</time>
      </trkpt>
      <trkpt lat="47.87959" lon="-4.08747">
        <ele>20.4</ele>
        <time>2022-11-12T10:07:21Z</time>
      </trkpt>
      <trkpt lat="47.87957" lon="-4.08738">
        <ele>20.4</ele>
        <time>2022-11-12T10:07:22Z</time>
      </trkpt>
      <trkpt lat="47.87955" lon="-4.08729">
        <ele>20.5</ele>
        <time>2022-11-12T10:07:23Z</time>
      </trkpt>
      <trkpt lat="47.87954" lon="-4.08719">
        <ele>20.6</ele>
        <time>2022-11-12T10:07:24Z</time>
      </trkpt>
      <trkpt lat="47.87952" lon="-4.0871">
        <ele>20.6</ele>
        <time>2022-11-12T10:07:25Z</time>
      </trkpt>
      <trkpt lat="47.87952" lon="-4.08702">
        <ele>20.7</ele>
        <time>2022-11-12T10:07:26Z</time>
      </trkpt>
      <trkpt lat="47.87952" lon="-4.08693">
        <ele>20.7</ele>
        <time>2022-11-12T10:07:27Z</time>
      </trkpt>
      <trkpt lat="47.87951" lon="-4.08685">
        <ele>20.7</ele>
        <time>2022-11-12T10:07:28Z</time>
      </trkpt>
      <trkpt lat="47.87951" lon="-4.08677">
        <ele>20.6</ele>
        <time>2022-11-12T10:07:29Z</time>
      </trkpt>
      <trkpt lat="47.8795" lon="-4.08668">
        <ele>20.6</ele>
        <time>2022-11-12T10:07:30Z</time>
      </trkpt>
      <trkpt lat="47.8795" lon="-4.0866">
        <ele>20.6</ele>
        <time>2022-11-12T10:07:31Z</time>
      </trkpt>
      <trkpt lat="47.87949" lon="-4.08651">
        <ele>20.6</ele>
        <time>2022-11-12T10:07:32Z</time>
      </trkpt>
      <trkpt lat="47.87948" lon="-4.08642">
        <ele>20.5</ele>
        <time>2022-11-12T10:07:33Z</time>
      </trkpt>
      <trkpt lat="47.87948" lon="-4.08634">
        <ele>20.4</ele>
        <time>2022-11-12T10:07:34Z</time>
      </trkpt>
      <trkpt lat="47.87946" lon="-4.08627">
        <ele>20.3</ele>
        <time>2022-11-12T10:07:35Z</time>
      </trkpt>
      <trkpt lat="47.87945" lon="-4.08618">
        <ele>20.3</ele>
        <time>2022-11-12T10:07:36Z</time>
      </trkpt>
      <trkpt lat="47.87944" lon="-4.08606">
        <ele>20.2</ele>
        <time>2022-11-12T10:07:37Z</time>
      </trkpt>
      <trkpt lat="47.87943" lon="-4.08597">
        <ele>20.1</ele>
        <time>2022-11-12T10:07:38Z</time>
      </trkpt>
      <trkpt lat="47.87942" lon="-4.08588">
        <ele>20.1</ele>
        <time>2022-11-12T10:07:39Z</time>
      </trkpt>
      <trkpt lat="47.87942" lon="-4.08581">
        <ele>20</ele>
        <time>2022-11-12T10:07:40Z</time>
      </trkpt>
      <trkpt lat="47.87943" lon="-4.08575">
        <ele>20</ele>
        <time>2022-11-12T10:07:41Z</time>
      </trkpt>
      <trkpt lat="47.87945" lon="-4.08572">
        <ele>19.9</ele>
        <time>2022-11-12T10:07:42Z</time>
      </trkpt>
      <trkpt lat="47.87948" lon="-4.08571">
        <ele>19.9</ele>
        <time>2022-11-12T10:07:43Z</time>
      </trkpt>
      <trkpt lat="47.87952" lon="-4.08571">
        <ele>19.9</ele>
        <time>2022-11-12T10:07:44Z</time>
      </trkpt>
      <trkpt lat="47.87957" lon="-4.08571">
        <ele>19.9</ele>
        <time>2022-11-12T10:07:45Z</time>
      </trkpt>
      <trkpt lat="47.8796" lon="-4.08571">
        <ele>19.9</ele>
        <time>2022-11-12T10:07:46Z</time>
      </trkpt>
      <trkpt lat="47.87966" lon="-4.08571">
        <ele>19.9</ele>
        <time>2022-11-12T10:07:47Z</time>
      </trkpt>
      <trkpt lat="47.87972" lon="-4.0857">
        <ele>19.8</ele>
        <time>2022-11-12T10:07:48Z</time>
      </trkpt>
      <trkpt lat="47.87977" lon="-4.0857">
        <ele>19.8</ele>
        <time>2022-11-12T10:07:49Z</time>
      </trkpt>
      <trkpt lat="47.87982" lon="-4.0857">
        <ele>19.8</ele>
        <time>2022-11-12T10:07:50Z</time>
      </trkpt>
      <trkpt lat="47.87987" lon="-4.08571">
        <ele>19.9</ele>
        <time>2022-11-12T10:07:51Z</time>
      </trkpt>
      <trkpt lat="47.87992" lon="-4.08572">
        <ele>19.9</ele>
        <time>2022-11-12T10:07:52Z</time>
      </trkpt>
      <trkpt lat="47.87996" lon="-4.08572">
        <ele>19.9</ele>
        <time>2022-11-12T10:07:53Z</time>
      </trkpt>
      <trkpt lat="47.88001" lon="-4.08573">
        <ele>20</ele>
        <time>2022-11-12T10:07:54Z</time>
      </trkpt>
      <trkpt lat="47.88004" lon="-4.08573">
        <ele>20.1</ele>
        <time>2022-11-12T10:07:55Z</time>
      </trkpt>
      <trkpt lat="47.8801" lon="-4.08574">
        <ele>20.1</ele>
        <time>2022-11-12T10:07:56Z</time>
      </trkpt>
      <trkpt lat="47.88015" lon="-4.08574">
        <ele>20.2</ele>
        <time>2022-11-12T10:07:57Z</time>
      </trkpt>
      <trkpt lat="47.88018" lon="-4.08572">
        <ele>20.2</ele>
        <time>2022-11-12T10:07:58Z</time>
      </trkpt>
      <trkpt lat="47.88022" lon="-4.08572">
        <ele>20.3</ele>
        <time>2022-11-12T10:08:00Z</time>
      </trkpt>
      <trkpt lat="47.88028" lon="-4.08572">
        <ele>20.3</ele>
        <time>2022-11-12T10:08:01Z</time>
      </trkpt>
      <trkpt lat="47.88034" lon="-4.08571">
        <ele>20.4</ele>
        <time>2022-11-12T10:08:03Z</time>
      </trkpt>
      <trkpt lat="47.88042" lon="-4.08564">
        <ele>20.6</ele>
        <time>2022-11-12T10:08:04Z</time>
      </trkpt>
      <trkpt lat="47.88046" lon="-4.08559">
        <ele>20.6</ele>
        <time>2022-11-12T10:08:05Z</time>
      </trkpt>
      <trkpt lat="47.8805" lon="-4.08557">
        <ele>20.7</ele>
        <time>2022-11-12T10:08:06Z</time>
      </trkpt>
      <trkpt lat="47.88052" lon="-4.08556">
        <ele>20.7</ele>
        <time>2022-11-12T10:08:07Z</time>
      </trkpt>
      <trkpt lat="47.88059" lon="-4.08555">
        <ele>20.8</ele>
        <time>2022-11-12T10:08:09Z</time>
      </trkpt>
      <trkpt lat="47.88063" lon="-4.08556">
        <ele>20.8</ele>
        <time>2022-11-12T10:08:10Z</time>
      </trkpt>
      <trkpt lat="47.88068" lon="-4.08557">
        <ele>20.8</ele>
        <time>2022-11-12T10:08:11Z</time>
      </trkpt>
      <trkpt lat="47.88076" lon="-4.08557">
        <ele>20.9</ele>
        <time>2022-11-12T10:08:12Z</time>
      </trkpt>
      <trkpt lat="47.88081" lon="-4.08557">
        <ele>20.9</ele>
        <time>2022-11-12T10:08:13Z</time>
      </trkpt>
      <trkpt lat="47.88086" lon="-4.08557">
        <ele>20.9</ele>
        <time>2022-11-12T10:08:14Z</time>
      </trkpt>
      <trkpt lat="47.88091" lon="-4.08558">
        <ele>20.9</ele>
        <time>2022-11-12T10:08:15Z</time>
      </trkpt>
      <trkpt lat="47.88101" lon="-4.08558">
        <ele>21</ele>
        <time>2022-11-12T10:08:17Z</time>
      </trkpt>
      <trkpt lat="47.8811" lon="-4.08559">
        <ele>21</ele>
        <time>2022-11-12T10:08:19Z</time>
      </trkpt>
      <trkpt lat="47.88115" lon="-4.08559">
        <ele>21</ele>
        <time>2022-11-12T10:08:20Z</time>
      </trkpt>
      <trkpt lat="47.8812" lon="-4.08559">
        <ele>21</ele>
        <time>2022-11-12T10:08:21Z</time>
      </trkpt>
      <trkpt lat="47.88124" lon="-4.08561">
        <ele>21</ele>
        <time>2022-11-12T10:08:22Z</time>
      </trkpt>
      <trkpt lat="47.88129" lon="-4.08561">
        <ele>21</ele>
        <time>2022-11-12T10:08:23Z</time>
      </trkpt>
      <trkpt lat="47.88134" lon="-4.0856">
        <ele>21</ele>
        <time>2022-11-12T10:08:24Z</time>
      </trkpt>
      <trkpt lat="47.8814" lon="-4.0856">
        <ele>21</ele>
        <time>2022-11-12T10:08:25Z</time>
      </trkpt>
      <trkpt lat="47.88144" lon="-4.0856">
        <ele>21</ele>
        <time>2022-11-12T10:08:26Z</time>
      </trkpt>
      <trkpt lat="47.88147" lon="-4.08558">
        <ele>21</ele>
        <time>2022-11-12T10:08:27Z</time>
      </trkpt>
      <trkpt lat="47.88159" lon="-4.08553">
        <ele>20.8</ele>
        <time>2022-11-12T10:08:29Z</time>
      </trkpt>
      <trkpt lat="47.88164" lon="-4.08552">
        <ele>20.7</ele>
        <time>2022-11-12T10:08:30Z</time>
      </trkpt>
      <trkpt lat="47.8817" lon="-4.08552">
        <ele>20.6</ele>
        <time>2022-11-12T10:08:31Z</time>
      </trkpt>
      <trkpt lat="47.88176" lon="-4.08552">
        <ele>20.5</ele>
        <time>2022-11-12T10:08:32Z</time>
      </trkpt>
      <trkpt lat="47.88181" lon="-4.08552">
        <ele>20.3</ele>
        <time>2022-11-12T10:08:33Z</time>
      </trkpt>
      <trkpt lat="47.88186" lon="-4.08553">
        <ele>20.2</ele>
        <time>2022-11-12T10:08:34Z</time>
      </trkpt>
      <trkpt lat="47.88191" lon="-4.08553">
        <ele>20.1</ele>
        <time>2022-11-12T10:08:35Z</time>
      </trkpt>
      <trkpt lat="47.88198" lon="-4.08552">
        <ele>20</ele>
        <time>2022-11-12T10:08:36Z</time>
      </trkpt>
      <trkpt lat="47.88202" lon="-4.08552">
        <ele>20</ele>
        <time>2022-11-12T10:08:37Z</time>
      </trkpt>
      <trkpt lat="47.88206" lon="-4.08552">
        <ele>20</ele>
        <time>2022-11-12T10:08:38Z</time>
      </trkpt>
      <trkpt lat="47.88212" lon="-4.08553">
        <ele>19.9</ele>
        <time>2022-11-12T10:08:39Z</time>
      </trkpt>
      <trkpt lat="47.88217" lon="-4.08552">
        <ele>19.9</ele>
        <time>2022-11-12T10:08:40Z</time>
      </trkpt>
      <trkpt lat="47.88223" lon="-4.08551">
        <ele>19.8</ele>
        <time>2022-11-12T10:08:41Z</time>
      </trkpt>
      <trkpt lat="47.88228" lon="-4.08551">
        <ele>19.8</ele>
        <time>2022-11-12T10:08:42Z</time>
      </trkpt>
      <trkpt lat="47.88233" lon="-4.08552">
        <ele>19.7</ele>
        <time>2022-11-12T10:08:43Z</time>
      </trkpt>
      <trkpt lat="47.88239" lon="-4.08552">
        <ele>19.6</ele>
        <time>2022-11-12T10:08:44Z</time>
      </trkpt>
      <trkpt lat="47.88244" lon="-4.08553">
        <ele>19.5</ele>
        <time>2022-11-12T10:08:45Z</time>
      </trkpt>
      <trkpt lat="47.8825" lon="-4.08554">
        <ele>19.3</ele>
        <time>2022-11-12T10:08:46Z</time>
      </trkpt>
      <trkpt lat="47.88255" lon="-4.08555">
        <ele>19.1</ele>
        <time>2022-11-12T10:08:47Z</time>
      </trkpt>
      <trkpt lat="47.88261" lon="-4.08555">
        <ele>18.9</ele>
        <time>2022-11-12T10:08:48Z</time>
      </trkpt>
      <trkpt lat="47.88266" lon="-4.08556">
        <ele>18.7</ele>
        <time>2022-11-12T10:08:49Z</time>
      </trkpt>
      <trkpt lat="47.88269" lon="-4.08557">
        <ele>18.6</ele>
        <time>2022-11-12T10:08:50Z</time>
      </trkpt>
      <trkpt lat="47.88274" lon="-4.08558">
        <ele>18.4</ele>
        <time>2022-11-12T10:08:51Z</time>
      </trkpt>
      <trkpt lat="47.88282" lon="-4.0856">
        <ele>18.2</ele>
        <time>2022-11-12T10:08:52Z</time>
      </trkpt>
      <trkpt lat="47.88289" lon="-4.08561">
        <ele>17.9</ele>
        <time>2022-11-12T10:08:53Z</time>
      </trkpt>
      <trkpt lat="47.88296" lon="-4.08561">
        <ele>17.6</ele>
        <time>2022-11-12T10:08:54Z</time>
      </trkpt>
      <trkpt lat="47.88302" lon="-4.08562">
        <ele>17.3</ele>
        <time>2022-11-12T10:08:55Z</time>
      </trkpt>
      <trkpt lat="47.88308" lon="-4.08563">
        <ele>17</ele>
        <time>2022-11-12T10:08:56Z</time>
      </trkpt>
      <trkpt lat="47.88315" lon="-4.08564">
        <ele>16.7</ele>
        <time>2022-11-12T10:08:57Z</time>
      </trkpt>
      <trkpt lat="47.88322" lon="-4.08566">
        <ele>16.3</ele>
        <time>2022-11-12T10:08:58Z</time>
      </trkpt>
      <trkpt lat="47.88329" lon="-4.08567">
        <ele>16</ele>
        <time>2022-11-12T10:08:59Z</time>
      </trkpt>
      <trkpt lat="47.88335" lon="-4.08568">
        <ele>15.6</ele>
        <time>2022-11-12T10:09:00Z</time>
      </trkpt>
      <trkpt lat="47.8834" lon="-4.08569">
        <ele>15.3</ele>
        <time>2022-11-12T10:09:01Z</time>
      </trkpt>
      <trkpt lat="47.88346" lon="-4.0857">
        <ele>15</ele>
        <time>2022-11-12T10:09:02Z</time>
      </trkpt>
      <trkpt lat="47.88351" lon="-4.0857">
        <ele>14.6</ele>
        <time>2022-11-12T10:09:03Z</time>
      </trkpt>
      <trkpt lat="47.88356" lon="-4.0857">
        <ele>14.3</ele>
        <time>2022-11-12T10:09:04Z</time>
      </trkpt>
      <trkpt lat="47.88359" lon="-4.0857">
        <ele>14</ele>
        <time>2022-11-12T10:09:05Z</time>
      </trkpt>
      <trkpt lat="47.88363" lon="-4.0857">
        <ele>13.7</ele>
        <time>2022-11-12T10:09:06Z</time>
      </trkpt>
      <trkpt lat="47.88364" lon="-4.08571">
        <ele>13.6</ele>
        <time>2022-11-12T10:09:07Z</time>
      </trkpt>
      <trkpt lat="47.88368" lon="-4.0857">
        <ele>13.3</ele>
        <time>2022-11-12T10:09:08Z</time>
      </trkpt>
      <trkpt lat="47.88373" lon="-4.08567">
        <ele>12.8</ele>
        <time>2022-11-12T10:09:09Z</time>
      </trkpt>
      <trkpt lat="47.88378" lon="-4.08562">
        <ele>12.6</ele>
        <time>2022-11-12T10:09:10Z</time>
      </trkpt>
      <trkpt lat="47.88383" lon="-4.08555">
        <ele>12.4</ele>
        <time>2022-11-12T10:09:11Z</time>
      </trkpt>
      <trkpt lat="47.88389" lon="-4.0855">
        <ele>12.2</ele>
        <time>2022-11-12T10:09:12Z</time>
      </trkpt>
      <trkpt lat="47.88395" lon="-4.08544">
        <ele>12.1</ele>
        <time>2022-11-12T10:09:13Z</time>
      </trkpt>
      <trkpt lat="47.88401" lon="-4.08539">
        <ele>11.9</ele>
        <time>2022-11-12T10:09:14Z</time>
      </trkpt>
      <trkpt lat="47.88408" lon="-4.08535">
        <ele>11.8</ele>
        <time>2022-11-12T10:09:15Z</time>
      </trkpt>
      <trkpt lat="47.88415" lon="-4.08532">
        <ele>11.7</ele>
        <time>2022-11-12T10:09:16Z</time>
      </trkpt>
      <trkpt lat="47.88422" lon="-4.08529">
        <ele>11.6</ele>
        <time>2022-11-12T10:09:17Z</time>
      </trkpt>
      <trkpt lat="47.88429" lon="-4.08528">
        <ele>11.6</ele>
        <time>2022-11-12T10:09:18Z</time>
      </trkpt>
      <trkpt lat="47.88436" lon="-4.08527">
        <ele>11.6</ele>
        <time>2022-11-12T10:09:19Z</time>
      </trkpt>
      <trkpt lat="47.88443" lon="-4.08528">
        <ele>11.7</ele>
        <time>2022-11-12T10:09:20Z</time>
      </trkpt>
      <trkpt lat="47.8845" lon="-4.08529">
        <ele>11.8</ele>
        <time>2022-11-12T10:09:21Z</time>
      </trkpt>
      <trkpt lat="47.88456" lon="-4.0853">
        <ele>12</ele>
        <time>2022-11-12T10:09:22Z</time>
      </trkpt>
      <trkpt lat="47.88463" lon="-4.08532">
        <ele>12.1</ele>
        <time>2022-11-12T10:09:23Z</time>
      </trkpt>
      <trkpt lat="47.88469" lon="-4.08535">
        <ele>12.3</ele>
        <time>2022-11-12T10:09:24Z</time>
      </trkpt>
      <trkpt lat="47.88475" lon="-4.08538">
        <ele>12.6</ele>
        <time>2022-11-12T10:09:25Z</time>
      </trkpt>
      <trkpt lat="47.88481" lon="-4.08542">
        <ele>12.8</ele>
        <time>2022-11-12T10:09:26Z</time>
      </trkpt>
      <trkpt lat="47.88487" lon="-4.08545">
        <ele>13</ele>
        <time>2022-11-12T10:09:27Z</time>
      </trkpt>
      <trkpt lat="47.88492" lon="-4.08549">
        <ele>13.2</ele>
        <time>2022-11-12T10:09:28Z</time>
      </trkpt>
      <trkpt lat="47.88498" lon="-4.08554">
        <ele>13.4</ele>
        <time>2022-11-12T10:09:29Z</time>
      </trkpt>
      <trkpt lat="47.88503" lon="-4.08558">
        <ele>13.6</ele>
        <time>2022-11-12T10:09:30Z</time>
      </trkpt>
      <trkpt lat="47.88509" lon="-4.08561">
        <ele>13.7</ele>
        <time>2022-11-12T10:09:31Z</time>
      </trkpt>
      <trkpt lat="47.88514" lon="-4.08564">
        <ele>13.9</ele>
        <time>2022-11-12T10:09:32Z</time>
      </trkpt>
      <trkpt lat="47.8852" lon="-4.08568">
        <ele>14.1</ele>
        <time>2022-11-12T10:09:33Z</time>
      </trkpt>
      <trkpt lat="47.88525" lon="-4.08571">
        <ele>14.3</ele>
        <time>2022-11-12T10:09:34Z</time>
      </trkpt>
      <trkpt lat="47.8853" lon="-4.08575">
        <ele>14.4</ele>
        <time>2022-11-12T10:09:35Z</time>
      </trkpt>
      <trkpt lat="47.88536" lon="-4.08578">
        <ele>14.6</ele>
        <time>2022-11-12T10:09:36Z</time>
      </trkpt>
      <trkpt lat="47.88541" lon="-4.08581">
        <ele>14.8</ele>
        <time>2022-11-12T10:09:37Z</time>
      </trkpt>
      <trkpt lat="47.88546" lon="-4.08585">
        <ele>15</ele>
        <time>2022-11-12T10:09:38Z</time>
      </trkpt>
      <trkpt lat="47.88552" lon="-4.08589">
        <ele>15.1</ele>
        <time>2022-11-12T10:09:39Z</time>
      </trkpt>
      <trkpt lat="47.88557" lon="-4.08593">
        <ele>15.3</ele>
        <time>2022-11-12T10:09:40Z</time>
      </trkpt>
      <trkpt lat="47.88562" lon="-4.08596">
        <ele>15.4</ele>
        <time>2022-11-12T10:09:41Z</time>
      </trkpt>
      <trkpt lat="47.88567" lon="-4.08599">
        <ele>15.6</ele>
        <time>2022-11-12T10:09:42Z</time>
      </trkpt>
      <trkpt lat="47.88572" lon="-4.08603">
        <ele>15.8</ele>
        <time>2022-11-12T10:09:43Z</time>
      </trkpt>
      <trkpt lat="47.88577" lon="-4.08606">
        <ele>16</ele>
        <time>2022-11-12T10:09:44Z</time>
      </trkpt>
      <trkpt lat="47.88583" lon="-4.08609">
        <ele>16.1</ele>
        <time>2022-11-12T10:09:45Z</time>
      </trkpt>
      <trkpt lat="47.88588" lon="-4.08613">
        <ele>16.3</ele>
        <time>2022-11-12T10:09:46Z</time>
      </trkpt>
      <trkpt lat="47.88593" lon="-4.08616">
        <ele>16.5</ele>
        <time>2022-11-12T10:09:47Z</time>
      </trkpt>
      <trkpt lat="47.88598" lon="-4.08619">
        <ele>16.7</ele>
        <time>2022-11-12T10:09:48Z</time>
      </trkpt>
      <trkpt lat="47.88603" lon="-4.08622">
        <ele>16.9</ele>
        <time>2022-11-12T10:09:49Z</time>
      </trkpt>
      <trkpt lat="47.88609" lon="-4.08624">
        <ele>17</ele>
        <time>2022-11-12T10:09:50Z</time>
      </trkpt>
      <trkpt lat="47.88614" lon="-4.08626">
        <ele>17.2</ele>
        <time>2022-11-12T10:09:51Z</time>
      </trkpt>
      <trkpt lat="47.8862" lon="-4.08628">
        <ele>17.4</ele>
        <time>2022-11-12T10:09:52Z</time>
      </trkpt>
      <trkpt lat="47.88626" lon="-4.08631">
        <ele>17.6</ele>
        <time>2022-11-12T10:09:53Z</time>
      </trkpt>
      <trkpt lat="47.88631" lon="-4.08633">
        <ele>17.7</ele>
        <time>2022-11-12T10:09:54Z</time>
      </trkpt>
      <trkpt lat="47.88637" lon="-4.08636">
        <ele>17.9</ele>
        <time>2022-11-12T10:09:55Z</time>
      </trkpt>
      <trkpt lat="47.88643" lon="-4.08638">
        <ele>18</ele>
        <time>2022-11-12T10:09:56Z</time>
      </trkpt>
      <trkpt lat="47.88649" lon="-4.0864">
        <ele>18.1</ele>
        <time>2022-11-12T10:09:57Z</time>
      </trkpt>
      <trkpt lat="47.88654" lon="-4.08641">
        <ele>18.3</ele>
        <time>2022-11-12T10:09:58Z</time>
      </trkpt>
      <trkpt lat="47.8866" lon="-4.08644">
        <ele>18.4</ele>
        <time>2022-11-12T10:09:59Z</time>
      </trkpt>
      <trkpt lat="47.88666" lon="-4.08646">
        <ele>18.6</ele>
        <time>2022-11-12T10:10:00Z</time>
      </trkpt>
      <trkpt lat="47.88672" lon="-4.08648">
        <ele>18.7</ele>
        <time>2022-11-12T10:10:01Z</time>
      </trkpt>
      <trkpt lat="47.88678" lon="-4.0865">
        <ele>18.8</ele>
        <time>2022-11-12T10:10:02Z</time>
      </trkpt>
      <trkpt lat="47.88683" lon="-4.08653">
        <ele>19</ele>
        <time>2022-11-12T10:10:03Z</time>
      </trkpt>
      <trkpt lat="47.88689" lon="-4.08654">
        <ele>19.1</ele>
        <time>2022-11-12T10:10:04Z</time>
      </trkpt>
      <trkpt lat="47.88694" lon="-4.08656">
        <ele>19.2</ele>
        <time>2022-11-12T10:10:05Z</time>
      </trkpt>
      <trkpt lat="47.887" lon="-4.08658">
        <ele>19.3</ele>
        <time>2022-11-12T10:10:06Z</time>
      </trkpt>
      <trkpt lat="47.88705" lon="-4.08661">
        <ele>19.4</ele>
        <time>2022-11-12T10:10:07Z</time>
      </trkpt>
      <trkpt lat="47.8871" lon="-4.08663">
        <ele>19.5</ele>
        <time>2022-11-12T10:10:08Z</time>
      </trkpt>
      <trkpt lat="47.88716" lon="-4.08665">
        <ele>19.6</ele>
        <time>2022-11-12T10:10:09Z</time>
      </trkpt>
      <trkpt lat="47.88721" lon="-4.08668">
        <ele>19.6</ele>
        <time>2022-11-12T10:10:10Z</time>
      </trkpt>
      <trkpt lat="47.88727" lon="-4.0867">
        <ele>19.7</ele>
        <time>2022-11-12T10:10:11Z</time>
      </trkpt>
      <trkpt lat="47.88732" lon="-4.08672">
        <ele>19.8</ele>
        <time>2022-11-12T10:10:12Z</time>
      </trkpt>
      <trkpt lat="47.88737" lon="-4.08675">
        <ele>19.9</ele>
        <time>2022-11-12T10:10:13Z</time>
      </trkpt>
      <trkpt lat="47.88742" lon="-4.08678">
        <ele>20</ele>
        <time>2022-11-12T10:10:14Z</time>
      </trkpt>
      <trkpt lat="47.88747" lon="-4.0868">
        <ele>20.1</ele>
        <time>2022-11-12T10:10:15Z</time>
      </trkpt>
      <trkpt lat="47.88752" lon="-4.08683">
        <ele>20.2</ele>
        <time>2022-11-12T10:10:16Z</time>
      </trkpt>
      <trkpt lat="47.88757" lon="-4.08686">
        <ele>20.3</ele>
        <time>2022-11-12T10:10:17Z</time>
      </trkpt>
      <trkpt lat="47.88763" lon="-4.08689">
        <ele>20.3</ele>
        <time>2022-11-12T10:10:18Z</time>
      </trkpt>
      <trkpt lat="47.88768" lon="-4.08691">
        <ele>20.4</ele>
        <time>2022-11-12T10:10:19Z</time>
      </trkpt>
      <trkpt lat="47.88773" lon="-4.08694">
        <ele>20.5</ele>
        <time>2022-11-12T10:10:20Z</time>
      </trkpt>
      <trkpt lat="47.88778" lon="-4.08696">
        <ele>20.6</ele>
        <time>2022-11-12T10:10:21Z</time>
      </trkpt>
      <trkpt lat="47.88783" lon="-4.08698">
        <ele>20.7</ele>
        <time>2022-11-12T10:10:22Z</time>
      </trkpt>
      <trkpt lat="47.88788" lon="-4.08701">
        <ele>20.8</ele>
        <time>2022-11-12T10:10:23Z</time>
      </trkpt>
      <trkpt lat="47.88793" lon="-4.08703">
        <ele>20.9</ele>
        <time>2022-11-12T10:10:24Z</time>
      </trkpt>
      <trkpt lat="47.88799" lon="-4.08705">
        <ele>20.9</ele>
        <time>2022-11-12T10:10:25Z</time>
      </trkpt>
      <trkpt lat="47.88804" lon="-4.08708">
        <ele>21</ele>
        <time>2022-11-12T10:10:26Z</time>
      </trkpt>
      <trkpt lat="47.88809" lon="-4.08711">
        <ele>21.1</ele>
        <time>2022-11-12T10:10:27Z</time>
      </trkpt>
      <trkpt lat="47.88814" lon="-4.08714">
        <ele>21.2</ele>
        <time>2022-11-12T10:10:28Z</time>
      </trkpt>
      <trkpt lat="47.88819" lon="-4.08717">
        <ele>21.3</ele>
        <time>2022-11-12T10:10:29Z</time>
      </trkpt>
      <trkpt lat="47.88825" lon="-4.08719">
        <ele>21.3</ele>
        <time>2022-11-12T10:10:30Z</time>
      </trkpt>
      <trkpt lat="47.8883" lon="-4.08722">
        <ele>21.4</ele>
        <time>2022-11-12T10:10:31Z</time>
      </trkpt>
      <trkpt lat="47.88836" lon="-4.08725">
        <ele>21.5</ele>
        <time>2022-11-12T10:10:32Z</time>
      </trkpt>
      <trkpt lat="47.88841" lon="-4.08728">
        <ele>21.5</ele>
        <time>2022-11-12T10:10:33Z</time>
      </trkpt>
      <trkpt lat="47.88847" lon="-4.0873">
        <ele>21.6</ele>
        <time>2022-11-12T10:10:34Z</time>
      </trkpt>
      <trkpt lat="47.88852" lon="-4.08733">
        <ele>21.6</ele>
        <time>2022-11-12T10:10:35Z</time>
      </trkpt>
      <trkpt lat="47.88857" lon="-4.08736">
        <ele>21.7</ele>
        <time>2022-11-12T10:10:36Z</time>
      </trkpt>
      <trkpt lat="47.88863" lon="-4.08739">
        <ele>21.8</ele>
        <time>2022-11-12T10:10:37Z</time>
      </trkpt>
      <trkpt lat="47.88868" lon="-4.08742">
        <ele>21.9</ele>
        <time>2022-11-12T10:10:38Z</time>
      </trkpt>
      <trkpt lat="47.88874" lon="-4.08746">
        <ele>21.9</ele>
        <time>2022-11-12T10:10:39Z</time>
      </trkpt>
      <trkpt lat="47.88879" lon="-4.08749">
        <ele>22</ele>
        <time>2022-11-12T10:10:40Z</time>
      </trkpt>
      <trkpt lat="47.88884" lon="-4.08753">
        <ele>22.1</ele>
        <time>2022-11-12T10:10:41Z</time>
      </trkpt>
      <trkpt lat="47.8889" lon="-4.08755">
        <ele>22.1</ele>
        <time>2022-11-12T10:10:42Z</time>
      </trkpt>
      <trkpt lat="47.88895" lon="-4.08753">
        <ele>22.1</ele>
        <time>2022-11-12T10:10:43Z</time>
      </trkpt>
      <trkpt lat="47.889" lon="-4.08748">
        <ele>21.9</ele>
        <time>2022-11-12T10:10:44Z</time>
      </trkpt>
      <trkpt lat="47.88904" lon="-4.0874">
        <ele>21.6</ele>
        <time>2022-11-12T10:10:45Z</time>
      </trkpt>
      <trkpt lat="47.88907" lon="-4.08733">
        <ele>21.4</ele>
        <time>2022-11-12T10:10:46Z</time>
      </trkpt>
      <trkpt lat="47.8891" lon="-4.08725">
        <ele>21.2</ele>
        <time>2022-11-12T10:10:47Z</time>
      </trkpt>
      <trkpt lat="47.88914" lon="-4.08717">
        <ele>21</ele>
        <time>2022-11-12T10:10:48Z</time>
      </trkpt>
      <trkpt lat="47.88919" lon="-4.08709">
        <ele>20.9</ele>
        <time>2022-11-12T10:10:49Z</time>
      </trkpt>
      <trkpt lat="47.88923" lon="-4.08702">
        <ele>20.7</ele>
        <time>2022-11-12T10:10:50Z</time>
      </trkpt>
      <trkpt lat="47.88928" lon="-4.08693">
        <ele>20.6</ele>
        <time>2022-11-12T10:10:51Z</time>
      </trkpt>
      <trkpt lat="47.88933" lon="-4.08685">
        <ele>20.5</ele>
        <time>2022-11-12T10:10:52Z</time>
      </trkpt>
      <trkpt lat="47.88938" lon="-4.08677">
        <ele>20.3</ele>
        <time>2022-11-12T10:10:53Z</time>
      </trkpt>
      <trkpt lat="47.88943" lon="-4.08669">
        <ele>20.2</ele>
        <time>2022-11-12T10:10:54Z</time>
      </trkpt>
      <trkpt lat="47.88948" lon="-4.08661">
        <ele>20.1</ele>
        <time>2022-11-12T10:10:55Z</time>
      </trkpt>
      <trkpt lat="47.88953" lon="-4.08653">
        <ele>20</ele>
        <time>2022-11-12T10:10:56Z</time>
      </trkpt>
      <trkpt lat="47.88958" lon="-4.08645">
        <ele>20</ele>
        <time>2022-11-12T10:10:57Z</time>
      </trkpt>
      <trkpt lat="47.88962" lon="-4.08637">
        <ele>20</ele>
        <time>2022-11-12T10:10:58Z</time>
      </trkpt>
      <trkpt lat="47.88966" lon="-4.0863">
        <ele>20.1</ele>
        <time>2022-11-12T10:10:59Z</time>
      </trkpt>
      <trkpt lat="47.88971" lon="-4.08622">
        <ele>20.2</ele>
        <time>2022-11-12T10:11:00Z</time>
      </trkpt>
      <trkpt lat="47.88975" lon="-4.08614">
        <ele>20.2</ele>
        <time>2022-11-12T10:11:01Z</time>
      </trkpt>
      <trkpt lat="47.88979" lon="-4.08607">
        <ele>20.3</ele>
        <time>2022-11-12T10:11:02Z</time>
      </trkpt>
      <trkpt lat="47.88982" lon="-4.08599">
        <ele>20.3</ele>
        <time>2022-11-12T10:11:03Z</time>
      </trkpt>
      <trkpt lat="47.88986" lon="-4.08592">
        <ele>20.3</ele>
        <time>2022-11-12T10:11:04Z</time>
      </trkpt>
      <trkpt lat="47.8899" lon="-4.08586">
        <ele>20.4</ele>
        <time>2022-11-12T10:11:05Z</time>
      </trkpt>
      <trkpt lat="47.88994" lon="-4.08578">
        <ele>20.5</ele>
        <time>2022-11-12T10:11:06Z</time>
      </trkpt>
      <trkpt lat="47.88998" lon="-4.08571">
        <ele>20.5</ele>
        <time>2022-11-12T10:11:07Z</time>
      </trkpt>
      <trkpt lat="47.89002" lon="-4.08563">
        <ele>20.6</ele>
        <time>2022-11-12T10:11:08Z</time>
      </trkpt>
      <trkpt lat="47.89005" lon="-4.08556">
        <ele>20.7</ele>
        <time>2022-11-12T10:11:09Z</time>
      </trkpt>
      <trkpt lat="47.89009" lon="-4.08549">
        <ele>20.8</ele>
        <time>2022-11-12T10:11:10Z</time>
      </trkpt>
      <trkpt lat="47.89013" lon="-4.08542">
        <ele>20.8</ele>
        <time>2022-11-12T10:11:11Z</time>
      </trkpt>
      <trkpt lat="47.89017" lon="-4.08536">
        <ele>20.9</ele>
        <time>2022-11-12T10:11:12Z</time>
      </trkpt>
      <trkpt lat="47.89021" lon="-4.08529">
        <ele>21</ele>
        <time>2022-11-12T10:11:13Z</time>
      </trkpt>
      <trkpt lat="47.89024" lon="-4.08521">
        <ele>21</ele>
        <time>2022-11-12T10:11:14Z</time>
      </trkpt>
      <trkpt lat="47.89028" lon="-4.08514">
        <ele>21.1</ele>
        <time>2022-11-12T10:11:15Z</time>
      </trkpt>
      <trkpt lat="47.89031" lon="-4.08507">
        <ele>21.2</ele>
        <time>2022-11-12T10:11:16Z</time>
      </trkpt>
      <trkpt lat="47.89035" lon="-4.08499">
        <ele>21.3</ele>
        <time>2022-11-12T10:11:17Z</time>
      </trkpt>
      <trkpt lat="47.89038" lon="-4.08492">
        <ele>21.4</ele>
        <time>2022-11-12T10:11:18Z</time>
      </trkpt>
      <trkpt lat="47.89041" lon="-4.08484">
        <ele>21.5</ele>
        <time>2022-11-12T10:11:19Z</time>
      </trkpt>
      <trkpt lat="47.89044" lon="-4.08477">
        <ele>21.6</ele>
        <time>2022-11-12T10:11:20Z</time>
      </trkpt>
      <trkpt lat="47.89046" lon="-4.08468">
        <ele>21.7</ele>
        <time>2022-11-12T10:11:21Z</time>
      </trkpt>
      <trkpt lat="47.89049" lon="-4.0846">
        <ele>21.8</ele>
        <time>2022-11-12T10:11:22Z</time>
      </trkpt>
      <trkpt lat="47.89051" lon="-4.08452">
        <ele>22</ele>
        <time>2022-11-12T10:11:23Z</time>
      </trkpt>
      <trkpt lat="47.89053" lon="-4.08445">
        <ele>22.1</ele>
        <time>2022-11-12T10:11:24Z</time>
      </trkpt>
      <trkpt lat="47.89055" lon="-4.08438">
        <ele>22.2</ele>
        <time>2022-11-12T10:11:25Z</time>
      </trkpt>
      <trkpt lat="47.89057" lon="-4.08432">
        <ele>22.3</ele>
        <time>2022-11-12T10:11:26Z</time>
      </trkpt>
      <trkpt lat="47.89059" lon="-4.08424">
        <ele>22.5</ele>
        <time>2022-11-12T10:11:27Z</time>
      </trkpt>
      <trkpt lat="47.89061" lon="-4.08417">
        <ele>22.6</ele>
        <time>2022-11-12T10:11:28Z</time>
      </trkpt>
      <trkpt lat="47.89063" lon="-4.08409">
        <ele>22.8</ele>
        <time>2022-11-12T10:11:29Z</time>
      </trkpt>
      <trkpt lat="47.89065" lon="-4.08401">
        <ele>22.9</ele>
        <time>2022-11-12T10:11:30Z</time>
      </trkpt>
      <trkpt lat="47.89066" lon="-4.08394">
        <ele>23.1</ele>
        <time>2022-11-12T10:11:31Z</time>
      </trkpt>
      <trkpt lat="47.89067" lon="-4.08386">
        <ele>23.2</ele>
        <time>2022-11-12T10:11:32Z</time>
      </trkpt>
      <trkpt lat="47.89068" lon="-4.08378">
        <ele>23.3</ele>
        <time>2022-11-12T10:11:33Z</time>
      </trkpt>
      <trkpt lat="47.89069" lon="-4.0837">
        <ele>23.4</ele>
        <time>2022-11-12T10:11:34Z</time>
      </trkpt>
      <trkpt lat="47.89071" lon="-4.08362">
        <ele>23.5</ele>
        <time>2022-11-12T10:11:35Z</time>
      </trkpt>
      <trkpt lat="47.89072" lon="-4.08353">
        <ele>23.7</ele>
        <time>2022-11-12T10:11:36Z</time>
      </trkpt>
      <trkpt lat="47.89074" lon="-4.08345">
        <ele>23.8</ele>
        <time>2022-11-12T10:11:37Z</time>
      </trkpt>
      <trkpt lat="47.89075" lon="-4.08337">
        <ele>23.9</ele>
        <time>2022-11-12T10:11:38Z</time>
      </trkpt>
      <trkpt lat="47.89077" lon="-4.08329">
        <ele>24</ele>
        <time>2022-11-12T10:11:39Z</time>
      </trkpt>
      <trkpt lat="47.89078" lon="-4.0832">
        <ele>24.1</ele>
        <time>2022-11-12T10:11:40Z</time>
      </trkpt>
      <trkpt lat="47.89079" lon="-4.08312">
        <ele>24.1</ele>
        <time>2022-11-12T10:11:41Z</time>
      </trkpt>
      <trkpt lat="47.8908" lon="-4.08304">
        <ele>24.1</ele>
        <time>2022-11-12T10:11:42Z</time>
      </trkpt>
      <trkpt lat="47.89081" lon="-4.08296">
        <ele>24.2</ele>
        <time>2022-11-12T10:11:43Z</time>
      </trkpt>
      <trkpt lat="47.89082" lon="-4.08287">
        <ele>24.2</ele>
        <time>2022-11-12T10:11:44Z</time>
      </trkpt>
      <trkpt lat="47.89083" lon="-4.08279">
        <ele>24.2</ele>
        <time>2022-11-12T10:11:45Z</time>
      </trkpt>
      <trkpt lat="47.89084" lon="-4.0827">
        <ele>24.2</ele>
        <time>2022-11-12T10:11:46Z</time>
      </trkpt>
      <trkpt lat="47.89086" lon="-4.08261">
        <ele>24.2</ele>
        <time>2022-11-12T10:11:47Z</time>
      </trkpt>
      <trkpt lat="47.89088" lon="-4.08253">
        <ele>24.2</ele>
        <time>2022-11-12T10:11:48Z</time>
      </trkpt>
      <trkpt lat="47.89089" lon="-4.08244">
        <ele>24.2</ele>
        <time>2022-11-12T10:11:49Z</time>
      </trkpt>
      <trkpt lat="47.8909" lon="-4.08236">
        <ele>24.2</ele>
        <time>2022-11-12T10:11:50Z</time>
      </trkpt>
      <trkpt lat="47.89092" lon="-4.08227">
        <ele>24.2</ele>
        <time>2022-11-12T10:11:51Z</time>
      </trkpt>
      <trkpt lat="47.89094" lon="-4.08218">
        <ele>24.2</ele>
        <time>2022-11-12T10:11:52Z</time>
      </trkpt>
      <trkpt lat="47.89095" lon="-4.08209">
        <ele>24.1</ele>
        <time>2022-11-12T10:11:53Z</time>
      </trkpt>
      <trkpt lat="47.89096" lon="-4.082">
        <ele>24.1</ele>
        <time>2022-11-12T10:11:54Z</time>
      </trkpt>
      <trkpt lat="47.89097" lon="-4.08192">
        <ele>24.1</ele>
        <time>2022-11-12T10:11:55Z</time>
      </trkpt>
      <trkpt lat="47.89098" lon="-4.08184">
        <ele>24.1</ele>
        <time>2022-11-12T10:11:56Z</time>
      </trkpt>
      <trkpt lat="47.891" lon="-4.08176">
        <ele>24.1</ele>
        <time>2022-11-12T10:11:57Z</time>
      </trkpt>
      <trkpt lat="47.89102" lon="-4.08167">
        <ele>24.1</ele>
        <time>2022-11-12T10:11:58Z</time>
      </trkpt>
      <trkpt lat="47.89104" lon="-4.08158">
        <ele>24.1</ele>
        <time>2022-11-12T10:11:59Z</time>
      </trkpt>
      <trkpt lat="47.89107" lon="-4.0815">
        <ele>24.1</ele>
        <time>2022-11-12T10:12:00Z</time>
      </trkpt>
      <trkpt lat="47.8911" lon="-4.08142">
        <ele>24.1</ele>
        <time>2022-11-12T10:12:01Z</time>
      </trkpt>
      <trkpt lat="47.89113" lon="-4.08135">
        <ele>24.1</ele>
        <time>2022-11-12T10:12:02Z</time>
      </trkpt>
      <trkpt lat="47.89115" lon="-4.08126">
        <ele>24.1</ele>
        <time>2022-11-12T10:12:03Z</time>
      </trkpt>
      <trkpt lat="47.89117" lon="-4.08118">
        <ele>24.1</ele>
        <time>2022-11-12T10:12:04Z</time>
      </trkpt>
      <trkpt lat="47.89118" lon="-4.0811">
        <ele>24.1</ele>
        <time>2022-11-12T10:12:05Z</time>
      </trkpt>
      <trkpt lat="47.89119" lon="-4.08103">
        <ele>24.1</ele>
        <time>2022-11-12T10:12:06Z</time>
      </trkpt>
      <trkpt lat="47.8912" lon="-4.08096">
        <ele>24.1</ele>
        <time>2022-11-12T10:12:07Z</time>
      </trkpt>
      <trkpt lat="47.8912" lon="-4.08088">
        <ele>24.1</ele>
        <time>2022-11-12T10:12:08Z</time>
      </trkpt>
      <trkpt lat="47.89121" lon="-4.08081">
        <ele>24.2</ele>
        <time>2022-11-12T10:12:09Z</time>
      </trkpt>
      <trkpt lat="47.89121" lon="-4.08073">
        <ele>24.2</ele>
        <time>2022-11-12T10:12:10Z</time>
      </trkpt>
      <trkpt lat="47.89122" lon="-4.08064">
        <ele>24.3</ele>
        <time>2022-11-12T10:12:11Z</time>
      </trkpt>
      <trkpt lat="47.89123" lon="-4.08058">
        <ele>24.3</ele>
        <time>2022-11-12T10:12:12Z</time>
      </trkpt>
      <trkpt lat="47.89123" lon="-4.08052">
        <ele>24.4</ele>
        <time>2022-11-12T10:12:13Z</time>
      </trkpt>
      <trkpt lat="47.89123" lon="-4.08045">
        <ele>24.4</ele>
        <time>2022-11-12T10:12:14Z</time>
      </trkpt>
      <trkpt lat="47.89124" lon="-4.08036">
        <ele>24.5</ele>
        <time>2022-11-12T10:12:15Z</time>
      </trkpt>
      <trkpt lat="47.89125" lon="-4.0803">
        <ele>24.5</ele>
        <time>2022-11-12T10:12:16Z</time>
      </trkpt>
      <trkpt lat="47.89125" lon="-4.08025">
        <ele>24.5</ele>
        <time>2022-11-12T10:12:17Z</time>
      </trkpt>
      <trkpt lat="47.89126" lon="-4.08019">
        <ele>24.5</ele>
        <time>2022-11-12T10:12:18Z</time>
      </trkpt>
      <trkpt lat="47.89128" lon="-4.0801">
        <ele>24.5</ele>
        <time>2022-11-12T10:12:19Z</time>
      </trkpt>
      <trkpt lat="47.89131" lon="-4.08004">
        <ele>24.5</ele>
        <time>2022-11-12T10:12:20Z</time>
      </trkpt>
      <trkpt lat="47.89134" lon="-4.07999">
        <ele>24.5</ele>
        <time>2022-11-12T10:12:21Z</time>
      </trkpt>
      <trkpt lat="47.89139" lon="-4.07995">
        <ele>24.5</ele>
        <time>2022-11-12T10:12:22Z</time>
      </trkpt>
      <trkpt lat="47.89144" lon="-4.07993">
        <ele>24.5</ele>
        <time>2022-11-12T10:12:23Z</time>
      </trkpt>
      <trkpt lat="47.89149" lon="-4.0799">
        <ele>24.5</ele>
        <time>2022-11-12T10:12:24Z</time>
      </trkpt>
      <trkpt lat="47.89153" lon="-4.07987">
        <ele>24.6</ele>
        <time>2022-11-12T10:12:25Z</time>
      </trkpt>
      <trkpt lat="47.89158" lon="-4.07984">
        <ele>24.6</ele>
        <time>2022-11-12T10:12:26Z</time>
      </trkpt>
      <trkpt lat="47.89161" lon="-4.07982">
        <ele>24.6</ele>
        <time>2022-11-12T10:12:27Z</time>
      </trkpt>
      <trkpt lat="47.89165" lon="-4.07979">
        <ele>24.6</ele>
        <time>2022-11-12T10:12:29Z</time>
      </trkpt>
      <trkpt lat="47.89169" lon="-4.07975">
        <ele>24.6</ele>
        <time>2022-11-12T10:12:30Z</time>
      </trkpt>
      <trkpt lat="47.89169" lon="-4.07969">
        <ele>24.5</ele>
        <time>2022-11-12T10:12:31Z</time>
      </trkpt>
      <trkpt lat="47.89167" lon="-4.07964">
        <ele>24.5</ele>
        <time>2022-11-12T10:12:32Z</time>
      </trkpt>
      <trkpt lat="47.89167" lon="-4.07961">
        <ele>24.4</ele>
        <time>2022-11-12T10:12:33Z</time>
      </trkpt>
      <trkpt lat="47.89166" lon="-4.07958">
        <ele>24.4</ele>
        <time>2022-11-12T10:12:34Z</time>
      </trkpt>
      <trkpt lat="47.89165" lon="-4.07954">
        <ele>24.3</ele>
        <time>2022-11-12T10:12:35Z</time>
      </trkpt>
      <trkpt lat="47.89165" lon="-4.07953">
        <ele>24.3</ele>
        <time>2022-11-12T10:12:36Z</time>
      </trkpt>
      <trkpt lat="47.89165" lon="-4.07948">
        <ele>24.2</ele>
        <time>2022-11-12T10:12:37Z</time>
      </trkpt>
      <trkpt lat="47.89166" lon="-4.07944">
        <ele>24.1</ele>
        <time>2022-11-12T10:12:38Z</time>
      </trkpt>
      <trkpt lat="47.89166" lon="-4.07938">
        <ele>24</ele>
        <time>2022-11-12T10:12:39Z</time>
      </trkpt>
      <trkpt lat="47.89167" lon="-4.07935">
        <ele>23.9</ele>
        <time>2022-11-12T10:12:40Z</time>
      </trkpt>
      <trkpt lat="47.89165" lon="-4.07931">
        <ele>23.8</ele>
        <time>2022-11-12T10:12:41Z</time>
      </trkpt>
      <trkpt lat="47.89164" lon="-4.07924">
        <ele>23.6</ele>
        <time>2022-11-12T10:12:42Z</time>
      </trkpt>
      <trkpt lat="47.89163" lon="-4.07915">
        <ele>23.3</ele>
        <time>2022-11-12T10:12:43Z</time>
      </trkpt>
      <trkpt lat="47.89162" lon="-4.07908">
        <ele>23</ele>
        <time>2022-11-12T10:12:44Z</time>
      </trkpt>
      <trkpt lat="47.89162" lon="-4.07903">
        <ele>22.9</ele>
        <time>2022-11-12T10:12:45Z</time>
      </trkpt>
      <trkpt lat="47.89162" lon="-4.07895">
        <ele>22.7</ele>
        <time>2022-11-12T10:12:47Z</time>
      </trkpt>
      <trkpt lat="47.89161" lon="-4.07877">
        <ele>22.2</ele>
        <time>2022-11-12T10:12:48Z</time>
      </trkpt>
      <trkpt lat="47.8916" lon="-4.07869">
        <ele>21.9</ele>
        <time>2022-11-12T10:12:49Z</time>
      </trkpt>
      <trkpt lat="47.8916" lon="-4.0786">
        <ele>21.7</ele>
        <time>2022-11-12T10:12:50Z</time>
      </trkpt>
      <trkpt lat="47.89159" lon="-4.07851">
        <ele>21.4</ele>
        <time>2022-11-12T10:12:51Z</time>
      </trkpt>
      <trkpt lat="47.89157" lon="-4.07843">
        <ele>21.1</ele>
        <time>2022-11-12T10:12:52Z</time>
      </trkpt>
      <trkpt lat="47.89156" lon="-4.07836">
        <ele>20.9</ele>
        <time>2022-11-12T10:12:53Z</time>
      </trkpt>
      <trkpt lat="47.89156" lon="-4.07831">
        <ele>20.7</ele>
        <time>2022-11-12T10:12:54Z</time>
      </trkpt>
      <trkpt lat="47.89155" lon="-4.0783">
        <ele>20.7</ele>
        <time>2022-11-12T10:12:56Z</time>
      </trkpt>
      <trkpt lat="47.89155" lon="-4.07827">
        <ele>20.6</ele>
        <time>2022-11-12T10:12:57Z</time>
      </trkpt>
      <trkpt lat="47.89155" lon="-4.07826">
        <ele>20.5</ele>
        <time>2022-11-12T10:12:58Z</time>
      </trkpt>
      <trkpt lat="47.89155" lon="-4.07824">
        <ele>20.5</ele>
        <time>2022-11-12T10:12:59Z</time>
      </trkpt>
      <trkpt lat="47.89154" lon="-4.07823">
        <ele>20.5</ele>
        <time>2022-11-12T10:13:01Z</time>
      </trkpt>
      <trkpt lat="47.89154" lon="-4.07823">
        <ele>20.4</ele>
        <time>2022-11-12T10:13:02Z</time>
      </trkpt>
      <trkpt lat="47.89154" lon="-4.07822">
        <ele>20.4</ele>
        <time>2022-11-12T10:13:03Z</time>
      </trkpt>
      <trkpt lat="47.89153" lon="-4.07821">
        <ele>20.4</ele>
        <time>2022-11-12T10:13:04Z</time>
      </trkpt>
      <trkpt lat="47.89153" lon="-4.0782">
        <ele>20.4</ele>
        <time>2022-11-12T10:13:05Z</time>
      </trkpt>
      <trkpt lat="47.89153" lon="-4.0782">
        <ele>20.3</ele>
        <time>2022-11-12T10:13:06Z</time>
      </trkpt>
      <trkpt lat="47.89152" lon="-4.07819">
        <ele>20.3</ele>
        <time>2022-11-12T10:13:07Z</time>
      </trkpt>
      <trkpt lat="47.89152" lon="-4.07818">
        <ele>20.3</ele>
        <time>2022-11-12T10:13:08Z</time>
      </trkpt>
      <trkpt lat="47.89151" lon="-4.07817">
        <ele>20.3</ele>
        <time>2022-11-12T10:13:09Z</time>
      </trkpt>
      <trkpt lat="47.89151" lon="-4.07817">
        <ele>20.2</ele>
        <time>2022-11-12T10:13:10Z</time>
      </trkpt>
      <trkpt lat="47.89151" lon="-4.07816">
        <ele>20.2</ele>
        <time>2022-11-12T10:13:11Z</time>
      </trkpt>
      <trkpt lat="47.8915" lon="-4.07815">
        <ele>20.2</ele>
        <time>2022-11-12T10:13:23Z</time>
      </trkpt>
      <trkpt lat="47.8915" lon="-4.07814">
        <ele>20.2</ele>
        <time>2022-11-12T10:13:24Z</time>
      </trkpt>
      <trkpt lat="47.8915" lon="-4.07814">
        <ele>20.1</ele>
        <time>2022-11-12T10:13:25Z</time>
      </trkpt>
      <trkpt lat="47.89147" lon="-4.0781">
        <ele>20</ele>
        <time>2022-11-12T10:13:26Z</time>
      </trkpt>
      <trkpt lat="47.89145" lon="-4.07806">
        <ele>19.9</ele>
        <time>2022-11-12T10:13:27Z</time>
      </trkpt>
      <trkpt lat="47.89145" lon="-4.07802">
        <ele>19.8</ele>
        <time>2022-11-12T10:13:28Z</time>
      </trkpt>
      <trkpt lat="47.89144" lon="-4.07797">
        <ele>19.6</ele>
        <time>2022-11-12T10:13:29Z</time>
      </trkpt>
      <trkpt lat="47.89143" lon="-4.07791">
        <ele>19.5</ele>
        <time>2022-11-12T10:13:30Z</time>
      </trkpt>
      <trkpt lat="47.89141" lon="-4.07784">
        <ele>19.3</ele>
        <time>2022-11-12T10:13:31Z</time>
      </trkpt>
      <trkpt lat="47.89139" lon="-4.07778">
        <ele>19.2</ele>
        <time>2022-11-12T10:13:32Z</time>
      </trkpt>
      <trkpt lat="47.89139" lon="-4.07772">
        <ele>19</ele>
        <time>2022-11-12T10:13:33Z</time>
      </trkpt>
      <trkpt lat="47.89137" lon="-4.07766">
        <ele>18.9</ele>
        <time>2022-11-12T10:13:34Z</time>
      </trkpt>
      <trkpt lat="47.89136" lon="-4.0776">
        <ele>18.8</ele>
        <time>2022-11-12T10:13:35Z</time>
      </trkpt>
      <trkpt lat="47.89134" lon="-4.07753">
        <ele>18.6</ele>
        <time>2022-11-12T10:13:36Z</time>
      </trkpt>
      <trkpt lat="47.89133" lon="-4.07748">
        <ele>18.5</ele>
        <time>2022-11-12T10:13:37Z</time>
      </trkpt>
      <trkpt lat="47.89134" lon="-4.07743">
        <ele>18.4</ele>
        <time>2022-11-12T10:13:38Z</time>
      </trkpt>
      <trkpt lat="47.89136" lon="-4.07738">
        <ele>18.2</ele>
        <time>2022-11-12T10:13:40Z</time>
      </trkpt>
      <trkpt lat="47.89136" lon="-4.07732">
        <ele>18.1</ele>
        <time>2022-11-12T10:13:41Z</time>
      </trkpt>
      <trkpt lat="47.89135" lon="-4.07729">
        <ele>18</ele>
        <time>2022-11-12T10:13:42Z</time>
      </trkpt>
      <trkpt lat="47.89134" lon="-4.07726">
        <ele>17.9</ele>
        <time>2022-11-12T10:13:43Z</time>
      </trkpt>
      <trkpt lat="47.89133" lon="-4.07723">
        <ele>17.8</ele>
        <time>2022-11-12T10:13:45Z</time>
      </trkpt>
      <trkpt lat="47.89132" lon="-4.07716">
        <ele>17.7</ele>
        <time>2022-11-12T10:13:46Z</time>
      </trkpt>
      <trkpt lat="47.89132" lon="-4.07714">
        <ele>17.7</ele>
        <time>2022-11-12T10:13:47Z</time>
      </trkpt>
      <trkpt lat="47.8913" lon="-4.07708">
        <ele>17.5</ele>
        <time>2022-11-12T10:13:48Z</time>
      </trkpt>
      <trkpt lat="47.89129" lon="-4.07701">
        <ele>17.4</ele>
        <time>2022-11-12T10:13:49Z</time>
      </trkpt>
      <trkpt lat="47.89128" lon="-4.07695">
        <ele>17.3</ele>
        <time>2022-11-12T10:13:50Z</time>
      </trkpt>
      <trkpt lat="47.89128" lon="-4.07688">
        <ele>17.1</ele>
        <time>2022-11-12T10:13:51Z</time>
      </trkpt>
      <trkpt lat="47.89127" lon="-4.0768">
        <ele>17</ele>
        <time>2022-11-12T10:13:52Z</time>
      </trkpt>
      <trkpt lat="47.89125" lon="-4.07675">
        <ele>16.8</ele>
        <time>2022-11-12T10:13:53Z</time>
      </trkpt>
      <trkpt lat="47.89125" lon="-4.07669">
        <ele>16.7</ele>
        <time>2022-11-12T10:13:54Z</time>
      </trkpt>
      <trkpt lat="47.89123" lon="-4.07664">
        <ele>16.6</ele>
        <time>2022-11-12T10:13:55Z</time>
      </trkpt>
      <trkpt lat="47.89123" lon="-4.07658">
        <ele>16.5</ele>
        <time>2022-11-12T10:13:56Z</time>
      </trkpt>
      <trkpt lat="47.89118" lon="-4.07644">
        <ele>16.2</ele>
        <time>2022-11-12T10:13:58Z</time>
      </trkpt>
      <trkpt lat="47.89115" lon="-4.07636">
        <ele>16</ele>
        <time>2022-11-12T10:13:59Z</time>
      </trkpt>
      <trkpt lat="47.89115" lon="-4.0763">
        <ele>15.9</ele>
        <time>2022-11-12T10:14:00Z</time>
      </trkpt>
      <trkpt lat="47.89116" lon="-4.07625">
        <ele>15.8</ele>
        <time>2022-11-12T10:14:01Z</time>
      </trkpt>
      <trkpt lat="47.89115" lon="-4.07618">
        <ele>15.7</ele>
        <time>2022-11-12T10:14:02Z</time>
      </trkpt>
      <trkpt lat="47.89115" lon="-4.07609">
        <ele>15.5</ele>
        <time>2022-11-12T10:14:04Z</time>
      </trkpt>
      <trkpt lat="47.89115" lon="-4.07602">
        <ele>15.4</ele>
        <time>2022-11-12T10:14:05Z</time>
      </trkpt>
      <trkpt lat="47.89112" lon="-4.07592">
        <ele>15.2</ele>
        <time>2022-11-12T10:14:06Z</time>
      </trkpt>
      <trkpt lat="47.8911" lon="-4.07587">
        <ele>15.1</ele>
        <time>2022-11-12T10:14:07Z</time>
      </trkpt>
      <trkpt lat="47.89108" lon="-4.07581">
        <ele>15</ele>
        <time>2022-11-12T10:14:08Z</time>
      </trkpt>
      <trkpt lat="47.89107" lon="-4.07574">
        <ele>14.9</ele>
        <time>2022-11-12T10:14:09Z</time>
      </trkpt>
      <trkpt lat="47.89105" lon="-4.07569">
        <ele>14.8</ele>
        <time>2022-11-12T10:14:10Z</time>
      </trkpt>
      <trkpt lat="47.89103" lon="-4.07563">
        <ele>14.7</ele>
        <time>2022-11-12T10:14:11Z</time>
      </trkpt>
      <trkpt lat="47.89101" lon="-4.07559">
        <ele>14.7</ele>
        <time>2022-11-12T10:14:12Z</time>
      </trkpt>
      <trkpt lat="47.89102" lon="-4.07553">
        <ele>14.6</ele>
        <time>2022-11-12T10:14:13Z</time>
      </trkpt>
      <trkpt lat="47.89101" lon="-4.07547">
        <ele>14.5</ele>
        <time>2022-11-12T10:14:14Z</time>
      </trkpt>
      <trkpt lat="47.891" lon="-4.07542">
        <ele>14.4</ele>
        <time>2022-11-12T10:14:15Z</time>
      </trkpt>
      <trkpt lat="47.89096" lon="-4.07536">
        <ele>14.3</ele>
        <time>2022-11-12T10:14:16Z</time>
      </trkpt>
      <trkpt lat="47.89092" lon="-4.07533">
        <ele>14.2</ele>
        <time>2022-11-12T10:14:17Z</time>
      </trkpt>
      <trkpt lat="47.89086" lon="-4.0753">
        <ele>14.1</ele>
        <time>2022-11-12T10:14:18Z</time>
      </trkpt>
      <trkpt lat="47.89082" lon="-4.07527">
        <ele>14</ele>
        <time>2022-11-12T10:14:19Z</time>
      </trkpt>
      <trkpt lat="47.89078" lon="-4.07523">
        <ele>13.9</ele>
        <time>2022-11-12T10:14:20Z</time>
      </trkpt>
      <trkpt lat="47.89075" lon="-4.0752">
        <ele>13.9</ele>
        <time>2022-11-12T10:14:21Z</time>
      </trkpt>
      <trkpt lat="47.89069" lon="-4.07518">
        <ele>13.8</ele>
        <time>2022-11-12T10:14:22Z</time>
      </trkpt>
      <trkpt lat="47.89065" lon="-4.07516">
        <ele>13.7</ele>
        <time>2022-11-12T10:14:23Z</time>
      </trkpt>
      <trkpt lat="47.89062" lon="-4.07513">
        <ele>13.7</ele>
        <time>2022-11-12T10:14:24Z</time>
      </trkpt>
      <trkpt lat="47.8906" lon="-4.07511">
        <ele>13.6</ele>
        <time>2022-11-12T10:14:25Z</time>
      </trkpt>
      <trkpt lat="47.89056" lon="-4.07504">
        <ele>13.5</ele>
        <time>2022-11-12T10:14:26Z</time>
      </trkpt>
      <trkpt lat="47.8905" lon="-4.07498">
        <ele>13.4</ele>
        <time>2022-11-12T10:14:27Z</time>
      </trkpt>
      <trkpt lat="47.89044" lon="-4.07494">
        <ele>13.3</ele>
        <time>2022-11-12T10:14:28Z</time>
      </trkpt>
      <trkpt lat="47.89039" lon="-4.07492">
        <ele>13.3</ele>
        <time>2022-11-12T10:14:29Z</time>
      </trkpt>
      <trkpt lat="47.89034" lon="-4.07489">
        <ele>13.3</ele>
        <time>2022-11-12T10:14:30Z</time>
      </trkpt>
      <trkpt lat="47.8903" lon="-4.07486">
        <ele>13.3</ele>
        <time>2022-11-12T10:14:31Z</time>
      </trkpt>
      <trkpt lat="47.89025" lon="-4.07484">
        <ele>13.3</ele>
        <time>2022-11-12T10:14:32Z</time>
      </trkpt>
      <trkpt lat="47.89019" lon="-4.07484">
        <ele>13.2</ele>
        <time>2022-11-12T10:14:33Z</time>
      </trkpt>
      <trkpt lat="47.89016" lon="-4.07485">
        <ele>13.2</ele>
        <time>2022-11-12T10:14:34Z</time>
      </trkpt>
      <trkpt lat="47.89009" lon="-4.07486">
        <ele>13.2</ele>
        <time>2022-11-12T10:14:35Z</time>
      </trkpt>
      <trkpt lat="47.89005" lon="-4.07486">
        <ele>13.2</ele>
        <time>2022-11-12T10:14:36Z</time>
      </trkpt>
      <trkpt lat="47.88996" lon="-4.07486">
        <ele>13.2</ele>
        <time>2022-11-12T10:14:38Z</time>
      </trkpt>
      <trkpt lat="47.88991" lon="-4.07486">
        <ele>13.2</ele>
        <time>2022-11-12T10:14:39Z</time>
      </trkpt>
      <trkpt lat="47.88985" lon="-4.07486">
        <ele>13.2</ele>
        <time>2022-11-12T10:14:40Z</time>
      </trkpt>
      <trkpt lat="47.8898" lon="-4.07487">
        <ele>13.2</ele>
        <time>2022-11-12T10:14:41Z</time>
      </trkpt>
      <trkpt lat="47.88975" lon="-4.07487">
        <ele>13.2</ele>
        <time>2022-11-12T10:14:42Z</time>
      </trkpt>
      <trkpt lat="47.8897" lon="-4.07488">
        <ele>13.2</ele>
        <time>2022-11-12T10:14:43Z</time>
      </trkpt>
      <trkpt lat="47.88965" lon="-4.07488">
        <ele>13.2</ele>
        <time>2022-11-12T10:14:44Z</time>
      </trkpt>
      <trkpt lat="47.8896" lon="-4.07488">
        <ele>13.1</ele>
        <time>2022-11-12T10:14:45Z</time>
      </trkpt>
      <trkpt lat="47.88955" lon="-4.07487">
        <ele>13.1</ele>
        <time>2022-11-12T10:14:46Z</time>
      </trkpt>
      <trkpt lat="47.8895" lon="-4.07486">
        <ele>13.1</ele>
        <time>2022-11-12T10:14:47Z</time>
      </trkpt>
      <trkpt lat="47.88944" lon="-4.07484">
        <ele>13.1</ele>
        <time>2022-11-12T10:14:48Z</time>
      </trkpt>
      <trkpt lat="47.88939" lon="-4.07483">
        <ele>13.1</ele>
        <time>2022-11-12T10:14:49Z</time>
      </trkpt>
      <trkpt lat="47.88934" lon="-4.07482">
        <ele>13.2</ele>
        <time>2022-11-12T10:14:50Z</time>
      </trkpt>
      <trkpt lat="47.88929" lon="-4.07481">
        <ele>13.2</ele>
        <time>2022-11-12T10:14:51Z</time>
      </trkpt>
      <trkpt lat="47.88923" lon="-4.07481">
        <ele>13.2</ele>
        <time>2022-11-12T10:14:52Z</time>
      </trkpt>
      <trkpt lat="47.88918" lon="-4.07481">
        <ele>13.2</ele>
        <time>2022-11-12T10:14:53Z</time>
      </trkpt>
      <trkpt lat="47.88912" lon="-4.07483">
        <ele>13.2</ele>
        <time>2022-11-12T10:14:54Z</time>
      </trkpt>
      <trkpt lat="47.88907" lon="-4.07485">
        <ele>13.2</ele>
        <time>2022-11-12T10:14:55Z</time>
      </trkpt>
      <trkpt lat="47.88902" lon="-4.07487">
        <ele>13.2</ele>
        <time>2022-11-12T10:14:56Z</time>
      </trkpt>
      <trkpt lat="47.88898" lon="-4.07491">
        <ele>13.2</ele>
        <time>2022-11-12T10:14:57Z</time>
      </trkpt>
      <trkpt lat="47.88893" lon="-4.07495">
        <ele>13.2</ele>
        <time>2022-11-12T10:14:58Z</time>
      </trkpt>
      <trkpt lat="47.88889" lon="-4.07499">
        <ele>13.2</ele>
        <time>2022-11-12T10:14:59Z</time>
      </trkpt>
      <trkpt lat="47.88885" lon="-4.07503">
        <ele>13.1</ele>
        <time>2022-11-12T10:15:00Z</time>
      </trkpt>
      <trkpt lat="47.88881" lon="-4.07509">
        <ele>13.1</ele>
        <time>2022-11-12T10:15:01Z</time>
      </trkpt>
      <trkpt lat="47.88877" lon="-4.07514">
        <ele>13.1</ele>
        <time>2022-11-12T10:15:02Z</time>
      </trkpt>
      <trkpt lat="47.88873" lon="-4.07518">
        <ele>13</ele>
        <time>2022-11-12T10:15:03Z</time>
      </trkpt>
      <trkpt lat="47.88869" lon="-4.07523">
        <ele>13</ele>
        <time>2022-11-12T10:15:04Z</time>
      </trkpt>
      <trkpt lat="47.88866" lon="-4.07527">
        <ele>13</ele>
        <time>2022-11-12T10:15:05Z</time>
      </trkpt>
      <trkpt lat="47.88862" lon="-4.07531">
        <ele>13</ele>
        <time>2022-11-12T10:15:06Z</time>
      </trkpt>
      <trkpt lat="47.88858" lon="-4.07536">
        <ele>13</ele>
        <time>2022-11-12T10:15:07Z</time>
      </trkpt>
      <trkpt lat="47.88855" lon="-4.07541">
        <ele>13</ele>
        <time>2022-11-12T10:15:08Z</time>
      </trkpt>
      <trkpt lat="47.88852" lon="-4.07547">
        <ele>12.9</ele>
        <time>2022-11-12T10:15:09Z</time>
      </trkpt>
      <trkpt lat="47.88849" lon="-4.07553">
        <ele>12.9</ele>
        <time>2022-11-12T10:15:10Z</time>
      </trkpt>
      <trkpt lat="47.88846" lon="-4.07559">
        <ele>12.9</ele>
        <time>2022-11-12T10:15:11Z</time>
      </trkpt>
      <trkpt lat="47.88843" lon="-4.07565">
        <ele>12.9</ele>
        <time>2022-11-12T10:15:12Z</time>
      </trkpt>
      <trkpt lat="47.8884" lon="-4.07571">
        <ele>12.9</ele>
        <time>2022-11-12T10:15:13Z</time>
      </trkpt>
      <trkpt lat="47.88837" lon="-4.07578">
        <ele>12.9</ele>
        <time>2022-11-12T10:15:14Z</time>
      </trkpt>
      <trkpt lat="47.88834" lon="-4.07583">
        <ele>12.9</ele>
        <time>2022-11-12T10:15:15Z</time>
      </trkpt>
      <trkpt lat="47.88831" lon="-4.07589">
        <ele>12.9</ele>
        <time>2022-11-12T10:15:16Z</time>
      </trkpt>
      <trkpt lat="47.88827" lon="-4.07594">
        <ele>12.8</ele>
        <time>2022-11-12T10:15:17Z</time>
      </trkpt>
      <trkpt lat="47.88824" lon="-4.07599">
        <ele>12.8</ele>
        <time>2022-11-12T10:15:18Z</time>
      </trkpt>
      <trkpt lat="47.8882" lon="-4.07603">
        <ele>12.8</ele>
        <time>2022-11-12T10:15:19Z</time>
      </trkpt>
      <trkpt lat="47.88816" lon="-4.07607">
        <ele>12.8</ele>
        <time>2022-11-12T10:15:20Z</time>
      </trkpt>
      <trkpt lat="47.88813" lon="-4.07612">
        <ele>12.8</ele>
        <time>2022-11-12T10:15:21Z</time>
      </trkpt>
      <trkpt lat="47.88809" lon="-4.07617">
        <ele>12.8</ele>
        <time>2022-11-12T10:15:22Z</time>
      </trkpt>
      <trkpt lat="47.88805" lon="-4.07622">
        <ele>12.8</ele>
        <time>2022-11-12T10:15:23Z</time>
      </trkpt>
      <trkpt lat="47.88802" lon="-4.07627">
        <ele>12.8</ele>
        <time>2022-11-12T10:15:24Z</time>
      </trkpt>
      <trkpt lat="47.88799" lon="-4.07633">
        <ele>12.8</ele>
        <time>2022-11-12T10:15:25Z</time>
      </trkpt>
      <trkpt lat="47.88796" lon="-4.07638">
        <ele>12.8</ele>
        <time>2022-11-12T10:15:26Z</time>
      </trkpt>
      <trkpt lat="47.88793" lon="-4.07646">
        <ele>12.8</ele>
        <time>2022-11-12T10:15:27Z</time>
      </trkpt>
      <trkpt lat="47.88789" lon="-4.07653">
        <ele>12.8</ele>
        <time>2022-11-12T10:15:28Z</time>
      </trkpt>
      <trkpt lat="47.88787" lon="-4.0766">
        <ele>12.8</ele>
        <time>2022-11-12T10:15:29Z</time>
      </trkpt>
      <trkpt lat="47.88784" lon="-4.07666">
        <ele>12.9</ele>
        <time>2022-11-12T10:15:30Z</time>
      </trkpt>
      <trkpt lat="47.8878" lon="-4.07671">
        <ele>12.9</ele>
        <time>2022-11-12T10:15:31Z</time>
      </trkpt>
      <trkpt lat="47.88776" lon="-4.07676">
        <ele>12.9</ele>
        <time>2022-11-12T10:15:32Z</time>
      </trkpt>
      <trkpt lat="47.88772" lon="-4.0768">
        <ele>12.9</ele>
        <time>2022-11-12T10:15:33Z</time>
      </trkpt>
      <trkpt lat="47.88769" lon="-4.07685">
        <ele>12.9</ele>
        <time>2022-11-12T10:15:34Z</time>
      </trkpt>
      <trkpt lat="47.88767" lon="-4.07687">
        <ele>12.9</ele>
        <time>2022-11-12T10:15:35Z</time>
      </trkpt>
      <trkpt lat="47.88763" lon="-4.07694">
        <ele>12.9</ele>
        <time>2022-11-12T10:15:37Z</time>
      </trkpt>
      <trkpt lat="47.88761" lon="-4.07698">
        <ele>12.9</ele>
        <time>2022-11-12T10:15:38Z</time>
      </trkpt>
      <trkpt lat="47.8876" lon="-4.07702">
        <ele>12.9</ele>
        <time>2022-11-12T10:15:39Z</time>
      </trkpt>
      <trkpt lat="47.88758" lon="-4.07707">
        <ele>12.9</ele>
        <time>2022-11-12T10:15:40Z</time>
      </trkpt>
      <trkpt lat="47.88757" lon="-4.07709">
        <ele>12.9</ele>
        <time>2022-11-12T10:15:41Z</time>
      </trkpt>
      <trkpt lat="47.88755" lon="-4.07716">
        <ele>13</ele>
        <time>2022-11-12T10:15:42Z</time>
      </trkpt>
      <trkpt lat="47.88754" lon="-4.07722">
        <ele>13</ele>
        <time>2022-11-12T10:15:43Z</time>
      </trkpt>
      <trkpt lat="47.88752" lon="-4.07731">
        <ele>13</ele>
        <time>2022-11-12T10:15:45Z</time>
      </trkpt>
      <trkpt lat="47.88749" lon="-4.07737">
        <ele>13</ele>
        <time>2022-11-12T10:15:46Z</time>
      </trkpt>
      <trkpt lat="47.88746" lon="-4.07745">
        <ele>13</ele>
        <time>2022-11-12T10:15:47Z</time>
      </trkpt>
      <trkpt lat="47.88743" lon="-4.07752">
        <ele>13</ele>
        <time>2022-11-12T10:15:48Z</time>
      </trkpt>
      <trkpt lat="47.88741" lon="-4.07758">
        <ele>13</ele>
        <time>2022-11-12T10:15:49Z</time>
      </trkpt>
      <trkpt lat="47.88739" lon="-4.07762">
        <ele>13</ele>
        <time>2022-11-12T10:15:50Z</time>
      </trkpt>
      <trkpt lat="47.88734" lon="-4.0777">
        <ele>12.9</ele>
        <time>2022-11-12T10:15:51Z</time>
      </trkpt>
      <trkpt lat="47.8873" lon="-4.07775">
        <ele>12.9</ele>
        <time>2022-11-12T10:15:52Z</time>
      </trkpt>
      <trkpt lat="47.88726" lon="-4.07779">
        <ele>12.8</ele>
        <time>2022-11-12T10:15:53Z</time>
      </trkpt>
      <trkpt lat="47.88722" lon="-4.07785">
        <ele>12.7</ele>
        <time>2022-11-12T10:15:54Z</time>
      </trkpt>
      <trkpt lat="47.88719" lon="-4.07793">
        <ele>12.6</ele>
        <time>2022-11-12T10:15:55Z</time>
      </trkpt>
      <trkpt lat="47.88717" lon="-4.078">
        <ele>12.6</ele>
        <time>2022-11-12T10:15:56Z</time>
      </trkpt>
      <trkpt lat="47.88713" lon="-4.07808">
        <ele>12.5</ele>
        <time>2022-11-12T10:15:57Z</time>
      </trkpt>
      <trkpt lat="47.88711" lon="-4.07815">
        <ele>12.4</ele>
        <time>2022-11-12T10:15:58Z</time>
      </trkpt>
      <trkpt lat="47.88709" lon="-4.07823">
        <ele>12.4</ele>
        <time>2022-11-12T10:15:59Z</time>
      </trkpt>
      <trkpt lat="47.88706" lon="-4.0783">
        <ele>12.3</ele>
        <time>2022-11-12T10:16:00Z</time>
      </trkpt>
      <trkpt lat="47.88704" lon="-4.07836">
        <ele>12.3</ele>
        <time>2022-11-12T10:16:01Z</time>
      </trkpt>
      <trkpt lat="47.88701" lon="-4.07844">
        <ele>12.3</ele>
        <time>2022-11-12T10:16:02Z</time>
      </trkpt>
      <trkpt lat="47.88697" lon="-4.0785">
        <ele>12.3</ele>
        <time>2022-11-12T10:16:03Z</time>
      </trkpt>
      <trkpt lat="47.88692" lon="-4.07855">
        <ele>12.2</ele>
        <time>2022-11-12T10:16:04Z</time>
      </trkpt>
      <trkpt lat="47.88688" lon="-4.07859">
        <ele>12.2</ele>
        <time>2022-11-12T10:16:05Z</time>
      </trkpt>
      <trkpt lat="47.88683" lon="-4.07861">
        <ele>12.1</ele>
        <time>2022-11-12T10:16:06Z</time>
      </trkpt>
      <trkpt lat="47.88677" lon="-4.07863">
        <ele>12.1</ele>
        <time>2022-11-12T10:16:07Z</time>
      </trkpt>
      <trkpt lat="47.88672" lon="-4.07863">
        <ele>12</ele>
        <time>2022-11-12T10:16:08Z</time>
      </trkpt>
      <trkpt lat="47.88666" lon="-4.07865">
        <ele>12</ele>
        <time>2022-11-12T10:16:09Z</time>
      </trkpt>
      <trkpt lat="47.88661" lon="-4.07867">
        <ele>12</ele>
        <time>2022-11-12T10:16:10Z</time>
      </trkpt>
      <trkpt lat="47.88656" lon="-4.07871">
        <ele>12</ele>
        <time>2022-11-12T10:16:11Z</time>
      </trkpt>
      <trkpt lat="47.88651" lon="-4.07872">
        <ele>12</ele>
        <time>2022-11-12T10:16:12Z</time>
      </trkpt>
      <trkpt lat="47.88645" lon="-4.07874">
        <ele>12</ele>
        <time>2022-11-12T10:16:13Z</time>
      </trkpt>
      <trkpt lat="47.8864" lon="-4.07878">
        <ele>12</ele>
        <time>2022-11-12T10:16:14Z</time>
      </trkpt>
      <trkpt lat="47.88636" lon="-4.07881">
        <ele>11.9</ele>
        <time>2022-11-12T10:16:15Z</time>
      </trkpt>
      <trkpt lat="47.88632" lon="-4.07883">
        <ele>11.9</ele>
        <time>2022-11-12T10:16:16Z</time>
      </trkpt>
      <trkpt lat="47.88628" lon="-4.07886">
        <ele>11.9</ele>
        <time>2022-11-12T10:16:17Z</time>
      </trkpt>
      <trkpt lat="47.88622" lon="-4.0789">
        <ele>11.9</ele>
        <time>2022-11-12T10:16:18Z</time>
      </trkpt>
      <trkpt lat="47.88616" lon="-4.07892">
        <ele>11.9</ele>
        <time>2022-11-12T10:16:19Z</time>
      </trkpt>
      <trkpt lat="47.88612" lon="-4.07895">
        <ele>11.9</ele>
        <time>2022-11-12T10:16:20Z</time>
      </trkpt>
      <trkpt lat="47.88609" lon="-4.07896">
        <ele>11.8</ele>
        <time>2022-11-12T10:16:21Z</time>
      </trkpt>
      <trkpt lat="47.88604" lon="-4.07898">
        <ele>11.8</ele>
        <time>2022-11-12T10:16:22Z</time>
      </trkpt>
      <trkpt lat="47.88598" lon="-4.079">
        <ele>11.9</ele>
        <time>2022-11-12T10:16:23Z</time>
      </trkpt>
      <trkpt lat="47.88593" lon="-4.07902">
        <ele>11.9</ele>
        <time>2022-11-12T10:16:24Z</time>
      </trkpt>
      <trkpt lat="47.88589" lon="-4.07903">
        <ele>11.9</ele>
        <time>2022-11-12T10:16:25Z</time>
      </trkpt>
      <trkpt lat="47.88583" lon="-4.07904">
        <ele>11.9</ele>
        <time>2022-11-12T10:16:26Z</time>
      </trkpt>
      <trkpt lat="47.88578" lon="-4.07905">
        <ele>11.9</ele>
        <time>2022-11-12T10:16:27Z</time>
      </trkpt>
      <trkpt lat="47.88573" lon="-4.07905">
        <ele>12</ele>
        <time>2022-11-12T10:16:28Z</time>
      </trkpt>
      <trkpt lat="47.88569" lon="-4.07905">
        <ele>12</ele>
        <time>2022-11-12T10:16:29Z</time>
      </trkpt>
      <trkpt lat="47.88564" lon="-4.07902">
        <ele>12</ele>
        <time>2022-11-12T10:16:30Z</time>
      </trkpt>
      <trkpt lat="47.88559" lon="-4.079">
        <ele>12</ele>
        <time>2022-11-12T10:16:31Z</time>
      </trkpt>
      <trkpt lat="47.88554" lon="-4.07895">
        <ele>12.1</ele>
        <time>2022-11-12T10:16:32Z</time>
      </trkpt>
      <trkpt lat="47.88551" lon="-4.07891">
        <ele>12.2</ele>
        <time>2022-11-12T10:16:33Z</time>
      </trkpt>
      <trkpt lat="47.88549" lon="-4.07883">
        <ele>12.3</ele>
        <time>2022-11-12T10:16:35Z</time>
      </trkpt>
      <trkpt lat="47.88547" lon="-4.07874">
        <ele>13</ele>
        <time>2022-11-12T10:16:36Z</time>
      </trkpt>
      <trkpt lat="47.88547" lon="-4.07869">
        <ele>13.3</ele>
        <time>2022-11-12T10:16:37Z</time>
      </trkpt>
      <trkpt lat="47.88547" lon="-4.07865">
        <ele>13.5</ele>
        <time>2022-11-12T10:16:38Z</time>
      </trkpt>
      <trkpt lat="47.88548" lon="-4.07861">
        <ele>13.8</ele>
        <time>2022-11-12T10:16:39Z</time>
      </trkpt>
      <trkpt lat="47.88549" lon="-4.07856">
        <ele>14</ele>
        <time>2022-11-12T10:16:40Z</time>
      </trkpt>
      <trkpt lat="47.8855" lon="-4.07851">
        <ele>14.4</ele>
        <time>2022-11-12T10:16:41Z</time>
      </trkpt>
      <trkpt lat="47.8855" lon="-4.07845">
        <ele>14.7</ele>
        <time>2022-11-12T10:16:42Z</time>
      </trkpt>
      <trkpt lat="47.88552" lon="-4.07837">
        <ele>15.2</ele>
        <time>2022-11-12T10:16:44Z</time>
      </trkpt>
      <trkpt lat="47.88553" lon="-4.07831">
        <ele>15.5</ele>
        <time>2022-11-12T10:16:45Z</time>
      </trkpt>
      <trkpt lat="47.88552" lon="-4.07824">
        <ele>15.9</ele>
        <time>2022-11-12T10:16:46Z</time>
      </trkpt>
      <trkpt lat="47.88552" lon="-4.07819">
        <ele>16.2</ele>
        <time>2022-11-12T10:16:47Z</time>
      </trkpt>
      <trkpt lat="47.88552" lon="-4.07813">
        <ele>16.5</ele>
        <time>2022-11-12T10:16:48Z</time>
      </trkpt>
      <trkpt lat="47.88553" lon="-4.07804">
        <ele>17</ele>
        <time>2022-11-12T10:16:50Z</time>
      </trkpt>
      <trkpt lat="47.88553" lon="-4.07797">
        <ele>17.3</ele>
        <time>2022-11-12T10:16:51Z</time>
      </trkpt>
      <trkpt lat="47.88553" lon="-4.07792">
        <ele>17.6</ele>
        <time>2022-11-12T10:16:52Z</time>
      </trkpt>
      <trkpt lat="47.88553" lon="-4.07788">
        <ele>17.9</ele>
        <time>2022-11-12T10:16:53Z</time>
      </trkpt>
      <trkpt lat="47.88554" lon="-4.07782">
        <ele>18.2</ele>
        <time>2022-11-12T10:16:54Z</time>
      </trkpt>
      <trkpt lat="47.88554" lon="-4.07771">
        <ele>18.7</ele>
        <time>2022-11-12T10:16:56Z</time>
      </trkpt>
      <trkpt lat="47.88555" lon="-4.07766">
        <ele>19</ele>
        <time>2022-11-12T10:16:57Z</time>
      </trkpt>
      <trkpt lat="47.88555" lon="-4.07758">
        <ele>19.4</ele>
        <time>2022-11-12T10:16:59Z</time>
      </trkpt>
      <trkpt lat="47.88556" lon="-4.0775">
        <ele>19.7</ele>
        <time>2022-11-12T10:17:00Z</time>
      </trkpt>
      <trkpt lat="47.88556" lon="-4.07741">
        <ele>20</ele>
        <time>2022-11-12T10:17:02Z</time>
      </trkpt>
      <trkpt lat="47.88555" lon="-4.07735">
        <ele>20.2</ele>
        <time>2022-11-12T10:17:03Z</time>
      </trkpt>
      <trkpt lat="47.88554" lon="-4.07729">
        <ele>20.4</ele>
        <time>2022-11-12T10:17:04Z</time>
      </trkpt>
      <trkpt lat="47.88552" lon="-4.07726">
        <ele>20.5</ele>
        <time>2022-11-12T10:17:05Z</time>
      </trkpt>
      <trkpt lat="47.8855" lon="-4.07723">
        <ele>20.8</ele>
        <time>2022-11-12T10:17:06Z</time>
      </trkpt>
      <trkpt lat="47.88546" lon="-4.07719">
        <ele>20.8</ele>
        <time>2022-11-12T10:17:07Z</time>
      </trkpt>
      <trkpt lat="47.8854" lon="-4.07719">
        <ele>20.7</ele>
        <time>2022-11-12T10:17:09Z</time>
      </trkpt>
      <trkpt lat="47.88534" lon="-4.0772">
        <ele>20.6</ele>
        <time>2022-11-12T10:17:10Z</time>
      </trkpt>
      <trkpt lat="47.88528" lon="-4.07721">
        <ele>20.5</ele>
        <time>2022-11-12T10:17:11Z</time>
      </trkpt>
      <trkpt lat="47.88522" lon="-4.07721">
        <ele>20.4</ele>
        <time>2022-11-12T10:17:12Z</time>
      </trkpt>
      <trkpt lat="47.88517" lon="-4.07722">
        <ele>20.3</ele>
        <time>2022-11-12T10:17:13Z</time>
      </trkpt>
      <trkpt lat="47.88513" lon="-4.07721">
        <ele>20.2</ele>
        <time>2022-11-12T10:17:14Z</time>
      </trkpt>
      <trkpt lat="47.88508" lon="-4.07723">
        <ele>20.1</ele>
        <time>2022-11-12T10:17:15Z</time>
      </trkpt>
      <trkpt lat="47.88503" lon="-4.07724">
        <ele>20</ele>
        <time>2022-11-12T10:17:16Z</time>
      </trkpt>
      <trkpt lat="47.88499" lon="-4.07727">
        <ele>19.9</ele>
        <time>2022-11-12T10:17:18Z</time>
      </trkpt>
      <trkpt lat="47.88493" lon="-4.07727">
        <ele>19.8</ele>
        <time>2022-11-12T10:17:19Z</time>
      </trkpt>
      <trkpt lat="47.88486" lon="-4.07728">
        <ele>19.6</ele>
        <time>2022-11-12T10:17:20Z</time>
      </trkpt>
      <trkpt lat="47.88481" lon="-4.07728">
        <ele>19.6</ele>
        <time>2022-11-12T10:17:22Z</time>
      </trkpt>
      <trkpt lat="47.88471" lon="-4.0773">
        <ele>19.5</ele>
        <time>2022-11-12T10:17:23Z</time>
      </trkpt>
      <trkpt lat="47.88465" lon="-4.0773">
        <ele>19.4</ele>
        <time>2022-11-12T10:17:24Z</time>
      </trkpt>
      <trkpt lat="47.8846" lon="-4.07731">
        <ele>19.5</ele>
        <time>2022-11-12T10:17:25Z</time>
      </trkpt>
      <trkpt lat="47.88455" lon="-4.0773">
        <ele>19.5</ele>
        <time>2022-11-12T10:17:26Z</time>
      </trkpt>
      <trkpt lat="47.88449" lon="-4.07729">
        <ele>19.5</ele>
        <time>2022-11-12T10:17:27Z</time>
      </trkpt>
      <trkpt lat="47.88443" lon="-4.07728">
        <ele>19.6</ele>
        <time>2022-11-12T10:17:28Z</time>
      </trkpt>
      <trkpt lat="47.88439" lon="-4.07728">
        <ele>19.7</ele>
        <time>2022-11-12T10:17:29Z</time>
      </trkpt>
      <trkpt lat="47.88435" lon="-4.07727">
        <ele>19.8</ele>
        <time>2022-11-12T10:17:30Z</time>
      </trkpt>
      <trkpt lat="47.88432" lon="-4.07726">
        <ele>19.8</ele>
        <time>2022-11-12T10:17:31Z</time>
      </trkpt>
      <trkpt lat="47.88429" lon="-4.07725">
        <ele>19.9</ele>
        <time>2022-11-12T10:17:32Z</time>
      </trkpt>
      <trkpt lat="47.88424" lon="-4.07726">
        <ele>19.9</ele>
        <time>2022-11-12T10:17:33Z</time>
      </trkpt>
      <trkpt lat="47.8842" lon="-4.07726">
        <ele>20</ele>
        <time>2022-11-12T10:17:34Z</time>
      </trkpt>
      <trkpt lat="47.88415" lon="-4.07727">
        <ele>20</ele>
        <time>2022-11-12T10:17:35Z</time>
      </trkpt>
      <trkpt lat="47.88408" lon="-4.07729">
        <ele>20</ele>
        <time>2022-11-12T10:17:36Z</time>
      </trkpt>
      <trkpt lat="47.88403" lon="-4.0773">
        <ele>20</ele>
        <time>2022-11-12T10:17:37Z</time>
      </trkpt>
      <trkpt lat="47.88397" lon="-4.07731">
        <ele>19.8</ele>
        <time>2022-11-12T10:17:38Z</time>
      </trkpt>
      <trkpt lat="47.88392" lon="-4.07732">
        <ele>19.7</ele>
        <time>2022-11-12T10:17:39Z</time>
      </trkpt>
      <trkpt lat="47.88387" lon="-4.07733">
        <ele>19.5</ele>
        <time>2022-11-12T10:17:40Z</time>
      </trkpt>
      <trkpt lat="47.88381" lon="-4.07734">
        <ele>19.3</ele>
        <time>2022-11-12T10:17:41Z</time>
      </trkpt>
      <trkpt lat="47.88375" lon="-4.07735">
        <ele>19.1</ele>
        <time>2022-11-12T10:17:42Z</time>
      </trkpt>
      <trkpt lat="47.88369" lon="-4.07736">
        <ele>18.9</ele>
        <time>2022-11-12T10:17:43Z</time>
      </trkpt>
      <trkpt lat="47.88362" lon="-4.07736">
        <ele>18.7</ele>
        <time>2022-11-12T10:17:44Z</time>
      </trkpt>
      <trkpt lat="47.88356" lon="-4.07737">
        <ele>18.5</ele>
        <time>2022-11-12T10:17:45Z</time>
      </trkpt>
      <trkpt lat="47.88352" lon="-4.07736">
        <ele>18.1</ele>
        <time>2022-11-12T10:17:46Z</time>
      </trkpt>
      <trkpt lat="47.88348" lon="-4.07736">
        <ele>18.1</ele>
        <time>2022-11-12T10:17:47Z</time>
      </trkpt>
      <trkpt lat="47.88346" lon="-4.07731">
        <ele>18.1</ele>
        <time>2022-11-12T10:17:49Z</time>
      </trkpt>
      <trkpt lat="47.88346" lon="-4.07729">
        <ele>18.1</ele>
        <time>2022-11-12T10:17:50Z</time>
      </trkpt>
      <trkpt lat="47.88347" lon="-4.07725">
        <ele>18.1</ele>
        <time>2022-11-12T10:17:51Z</time>
      </trkpt>
      <trkpt lat="47.88347" lon="-4.07722">
        <ele>18.1</ele>
        <time>2022-11-12T10:17:52Z</time>
      </trkpt>
      <trkpt lat="47.8835" lon="-4.07714">
        <ele>18</ele>
        <time>2022-11-12T10:17:54Z</time>
      </trkpt>
      <trkpt lat="47.88351" lon="-4.07709">
        <ele>18</ele>
        <time>2022-11-12T10:17:55Z</time>
      </trkpt>
      <trkpt lat="47.88351" lon="-4.07707">
        <ele>18</ele>
        <time>2022-11-12T10:17:56Z</time>
      </trkpt>
      <trkpt lat="47.8835" lon="-4.07697">
        <ele>18</ele>
        <time>2022-11-12T10:17:58Z</time>
      </trkpt>
      <trkpt lat="47.8835" lon="-4.07683">
        <ele>18</ele>
        <time>2022-11-12T10:17:59Z</time>
      </trkpt>
      <trkpt lat="47.88352" lon="-4.07677">
        <ele>18</ele>
        <time>2022-11-12T10:18:00Z</time>
      </trkpt>
      <trkpt lat="47.88354" lon="-4.07671">
        <ele>18</ele>
        <time>2022-11-12T10:18:02Z</time>
      </trkpt>
      <trkpt lat="47.88358" lon="-4.07659">
        <ele>18</ele>
        <time>2022-11-12T10:18:03Z</time>
      </trkpt>
      <trkpt lat="47.88361" lon="-4.07654">
        <ele>18</ele>
        <time>2022-11-12T10:18:04Z</time>
      </trkpt>
      <trkpt lat="47.88364" lon="-4.07649">
        <ele>18</ele>
        <time>2022-11-12T10:18:05Z</time>
      </trkpt>
      <trkpt lat="47.88365" lon="-4.07646">
        <ele>18</ele>
        <time>2022-11-12T10:18:06Z</time>
      </trkpt>
      <trkpt lat="47.88366" lon="-4.07639">
        <ele>17.9</ele>
        <time>2022-11-12T10:18:08Z</time>
      </trkpt>
      <trkpt lat="47.88366" lon="-4.07631">
        <ele>17.8</ele>
        <time>2022-11-12T10:18:09Z</time>
      </trkpt>
      <trkpt lat="47.88365" lon="-4.07621">
        <ele>17.7</ele>
        <time>2022-11-12T10:18:10Z</time>
      </trkpt>
      <trkpt lat="47.88364" lon="-4.07615">
        <ele>17.6</ele>
        <time>2022-11-12T10:18:11Z</time>
      </trkpt>
      <trkpt lat="47.88362" lon="-4.07609">
        <ele>17.5</ele>
        <time>2022-11-12T10:18:12Z</time>
      </trkpt>
      <trkpt lat="47.88361" lon="-4.076">
        <ele>17.4</ele>
        <time>2022-11-12T10:18:13Z</time>
      </trkpt>
      <trkpt lat="47.8836" lon="-4.07592">
        <ele>17.3</ele>
        <time>2022-11-12T10:18:14Z</time>
      </trkpt>
      <trkpt lat="47.88359" lon="-4.07586">
        <ele>17.3</ele>
        <time>2022-11-12T10:18:15Z</time>
      </trkpt>
      <trkpt lat="47.88358" lon="-4.07579">
        <ele>17.2</ele>
        <time>2022-11-12T10:18:16Z</time>
      </trkpt>
      <trkpt lat="47.88357" lon="-4.07569">
        <ele>17.1</ele>
        <time>2022-11-12T10:18:17Z</time>
      </trkpt>
      <trkpt lat="47.88355" lon="-4.07563">
        <ele>17.1</ele>
        <time>2022-11-12T10:18:18Z</time>
      </trkpt>
      <trkpt lat="47.88355" lon="-4.07559">
        <ele>17.1</ele>
        <time>2022-11-12T10:18:19Z</time>
      </trkpt>
      <trkpt lat="47.88354" lon="-4.07541">
        <ele>16.9</ele>
        <time>2022-11-12T10:18:21Z</time>
      </trkpt>
      <trkpt lat="47.88354" lon="-4.07534">
        <ele>16.9</ele>
        <time>2022-11-12T10:18:22Z</time>
      </trkpt>
      <trkpt lat="47.88354" lon="-4.07528">
        <ele>16.9</ele>
        <time>2022-11-12T10:18:23Z</time>
      </trkpt>
      <trkpt lat="47.88355" lon="-4.07511">
        <ele>16.7</ele>
        <time>2022-11-12T10:18:25Z</time>
      </trkpt>
      <trkpt lat="47.88356" lon="-4.07503">
        <ele>16.6</ele>
        <time>2022-11-12T10:18:26Z</time>
      </trkpt>
      <trkpt lat="47.88358" lon="-4.07495">
        <ele>16.5</ele>
        <time>2022-11-12T10:18:27Z</time>
      </trkpt>
      <trkpt lat="47.88359" lon="-4.07487">
        <ele>16.5</ele>
        <time>2022-11-12T10:18:28Z</time>
      </trkpt>
      <trkpt lat="47.88361" lon="-4.07479">
        <ele>16.4</ele>
        <time>2022-11-12T10:18:29Z</time>
      </trkpt>
      <trkpt lat="47.88362" lon="-4.07471">
        <ele>16.4</ele>
        <time>2022-11-12T10:18:30Z</time>
      </trkpt>
      <trkpt lat="47.88363" lon="-4.07464">
        <ele>16.3</ele>
        <time>2022-11-12T10:18:31Z</time>
      </trkpt>
      <trkpt lat="47.88364" lon="-4.07455">
        <ele>16.3</ele>
        <time>2022-11-12T10:18:32Z</time>
      </trkpt>
      <trkpt lat="47.88366" lon="-4.07446">
        <ele>16.2</ele>
        <time>2022-11-12T10:18:33Z</time>
      </trkpt>
      <trkpt lat="47.88367" lon="-4.07437">
        <ele>16.2</ele>
        <time>2022-11-12T10:18:34Z</time>
      </trkpt>
      <trkpt lat="47.8837" lon="-4.07428">
        <ele>16.1</ele>
        <time>2022-11-12T10:18:35Z</time>
      </trkpt>
      <trkpt lat="47.88373" lon="-4.07419">
        <ele>16.1</ele>
        <time>2022-11-12T10:18:36Z</time>
      </trkpt>
      <trkpt lat="47.88376" lon="-4.07412">
        <ele>16.1</ele>
        <time>2022-11-12T10:18:37Z</time>
      </trkpt>
      <trkpt lat="47.8838" lon="-4.07406">
        <ele>16</ele>
        <time>2022-11-12T10:18:38Z</time>
      </trkpt>
      <trkpt lat="47.88383" lon="-4.07401">
        <ele>16</ele>
        <time>2022-11-12T10:18:39Z</time>
      </trkpt>
      <trkpt lat="47.88387" lon="-4.07394">
        <ele>16</ele>
        <time>2022-11-12T10:18:40Z</time>
      </trkpt>
      <trkpt lat="47.88392" lon="-4.07388">
        <ele>16</ele>
        <time>2022-11-12T10:18:41Z</time>
      </trkpt>
      <trkpt lat="47.88396" lon="-4.07382">
        <ele>16.1</ele>
        <time>2022-11-12T10:18:42Z</time>
      </trkpt>
      <trkpt lat="47.88399" lon="-4.07377">
        <ele>16.2</ele>
        <time>2022-11-12T10:18:43Z</time>
      </trkpt>
      <trkpt lat="47.88403" lon="-4.07372">
        <ele>16.3</ele>
        <time>2022-11-12T10:18:44Z</time>
      </trkpt>
      <trkpt lat="47.88406" lon="-4.07365">
        <ele>16.5</ele>
        <time>2022-11-12T10:18:45Z</time>
      </trkpt>
      <trkpt lat="47.88408" lon="-4.07358">
        <ele>16.7</ele>
        <time>2022-11-12T10:18:46Z</time>
      </trkpt>
      <trkpt lat="47.8841" lon="-4.07354">
        <ele>16.8</ele>
        <time>2022-11-12T10:18:47Z</time>
      </trkpt>
      <trkpt lat="47.88412" lon="-4.07347">
        <ele>17</ele>
        <time>2022-11-12T10:18:48Z</time>
      </trkpt>
      <trkpt lat="47.88413" lon="-4.07342">
        <ele>17.1</ele>
        <time>2022-11-12T10:18:49Z</time>
      </trkpt>
      <trkpt lat="47.88414" lon="-4.07336">
        <ele>17.2</ele>
        <time>2022-11-12T10:18:50Z</time>
      </trkpt>
      <trkpt lat="47.88416" lon="-4.07329">
        <ele>17.4</ele>
        <time>2022-11-12T10:18:51Z</time>
      </trkpt>
      <trkpt lat="47.88418" lon="-4.0732">
        <ele>17.7</ele>
        <time>2022-11-12T10:18:52Z</time>
      </trkpt>
      <trkpt lat="47.8842" lon="-4.07313">
        <ele>17.9</ele>
        <time>2022-11-12T10:18:53Z</time>
      </trkpt>
      <trkpt lat="47.8842" lon="-4.07308">
        <ele>18</ele>
        <time>2022-11-12T10:18:55Z</time>
      </trkpt>
      <trkpt lat="47.88421" lon="-4.07302">
        <ele>18.2</ele>
        <time>2022-11-12T10:18:56Z</time>
      </trkpt>
      <trkpt lat="47.88424" lon="-4.07296">
        <ele>18.4</ele>
        <time>2022-11-12T10:18:57Z</time>
      </trkpt>
      <trkpt lat="47.88427" lon="-4.07288">
        <ele>18.7</ele>
        <time>2022-11-12T10:18:58Z</time>
      </trkpt>
      <trkpt lat="47.8843" lon="-4.07282">
        <ele>18.9</ele>
        <time>2022-11-12T10:18:59Z</time>
      </trkpt>
      <trkpt lat="47.88431" lon="-4.07279">
        <ele>19.1</ele>
        <time>2022-11-12T10:19:00Z</time>
      </trkpt>
      <trkpt lat="47.88435" lon="-4.07273">
        <ele>19.3</ele>
        <time>2022-11-12T10:19:02Z</time>
      </trkpt>
      <trkpt lat="47.8844" lon="-4.07268">
        <ele>19.6</ele>
        <time>2022-11-12T10:19:03Z</time>
      </trkpt>
      <trkpt lat="47.88443" lon="-4.07263">
        <ele>19.8</ele>
        <time>2022-11-12T10:19:04Z</time>
      </trkpt>
      <trkpt lat="47.88445" lon="-4.07259">
        <ele>20</ele>
        <time>2022-11-12T10:19:05Z</time>
      </trkpt>
      <trkpt lat="47.88447" lon="-4.07252">
        <ele>20.2</ele>
        <time>2022-11-12T10:19:06Z</time>
      </trkpt>
      <trkpt lat="47.88449" lon="-4.07242">
        <ele>20.4</ele>
        <time>2022-11-12T10:19:08Z</time>
      </trkpt>
      <trkpt lat="47.88451" lon="-4.07235">
        <ele>20.5</ele>
        <time>2022-11-12T10:19:09Z</time>
      </trkpt>
      <trkpt lat="47.88452" lon="-4.07229">
        <ele>20.6</ele>
        <time>2022-11-12T10:19:10Z</time>
      </trkpt>
      <trkpt lat="47.88454" lon="-4.07224">
        <ele>20.6</ele>
        <time>2022-11-12T10:19:11Z</time>
      </trkpt>
      <trkpt lat="47.88456" lon="-4.07218">
        <ele>20.7</ele>
        <time>2022-11-12T10:19:12Z</time>
      </trkpt>
      <trkpt lat="47.88459" lon="-4.07212">
        <ele>20.7</ele>
        <time>2022-11-12T10:19:13Z</time>
      </trkpt>
      <trkpt lat="47.88461" lon="-4.07206">
        <ele>20.7</ele>
        <time>2022-11-12T10:19:14Z</time>
      </trkpt>
      <trkpt lat="47.88463" lon="-4.072">
        <ele>20.8</ele>
        <time>2022-11-12T10:19:15Z</time>
      </trkpt>
      <trkpt lat="47.88463" lon="-4.07194">
        <ele>20.8</ele>
        <time>2022-11-12T10:19:16Z</time>
      </trkpt>
      <trkpt lat="47.88465" lon="-4.07188">
        <ele>20.9</ele>
        <time>2022-11-12T10:19:17Z</time>
      </trkpt>
      <trkpt lat="47.88468" lon="-4.07184">
        <ele>20.9</ele>
        <time>2022-11-12T10:19:18Z</time>
      </trkpt>
      <trkpt lat="47.88471" lon="-4.0718">
        <ele>21</ele>
        <time>2022-11-12T10:19:19Z</time>
      </trkpt>
      <trkpt lat="47.88475" lon="-4.07176">
        <ele>21.1</ele>
        <time>2022-11-12T10:19:20Z</time>
      </trkpt>
      <trkpt lat="47.88478" lon="-4.07174">
        <ele>21.1</ele>
        <time>2022-11-12T10:19:21Z</time>
      </trkpt>
      <trkpt lat="47.8848" lon="-4.0717">
        <ele>21.2</ele>
        <time>2022-11-12T10:19:22Z</time>
      </trkpt>
      <trkpt lat="47.88484" lon="-4.07168">
        <ele>21.3</ele>
        <time>2022-11-12T10:19:23Z</time>
      </trkpt>
      <trkpt lat="47.88487" lon="-4.07168">
        <ele>21.4</ele>
        <time>2022-11-12T10:19:24Z</time>
      </trkpt>
      <trkpt lat="47.8849" lon="-4.0717">
        <ele>21.5</ele>
        <time>2022-11-12T10:19:25Z</time>
      </trkpt>
      <trkpt lat="47.88492" lon="-4.0717">
        <ele>21.5</ele>
        <time>2022-11-12T10:19:26Z</time>
      </trkpt>
      <trkpt lat="47.88496" lon="-4.07169">
        <ele>21.7</ele>
        <time>2022-11-12T10:19:28Z</time>
      </trkpt>
      <trkpt lat="47.88501" lon="-4.07168">
        <ele>21.8</ele>
        <time>2022-11-12T10:19:29Z</time>
      </trkpt>
      <trkpt lat="47.88504" lon="-4.07169">
        <ele>21.9</ele>
        <time>2022-11-12T10:19:31Z</time>
      </trkpt>
      <trkpt lat="47.88509" lon="-4.0717">
        <ele>22</ele>
        <time>2022-11-12T10:19:32Z</time>
      </trkpt>
      <trkpt lat="47.88511" lon="-4.07168">
        <ele>22.1</ele>
        <time>2022-11-12T10:19:33Z</time>
      </trkpt>
      <trkpt lat="47.88514" lon="-4.07164">
        <ele>22.1</ele>
        <time>2022-11-12T10:19:34Z</time>
      </trkpt>
      <trkpt lat="47.88515" lon="-4.07161">
        <ele>22.2</ele>
        <time>2022-11-12T10:19:36Z</time>
      </trkpt>
      <trkpt lat="47.88517" lon="-4.07158">
        <ele>22.2</ele>
        <time>2022-11-12T10:19:37Z</time>
      </trkpt>
      <trkpt lat="47.8852" lon="-4.07154">
        <ele>22.2</ele>
        <time>2022-11-12T10:19:38Z</time>
      </trkpt>
      <trkpt lat="47.88524" lon="-4.07153">
        <ele>22.2</ele>
        <time>2022-11-12T10:19:39Z</time>
      </trkpt>
      <trkpt lat="47.88525" lon="-4.07153">
        <ele>22.2</ele>
        <time>2022-11-12T10:19:40Z</time>
      </trkpt>
      <trkpt lat="47.88528" lon="-4.07153">
        <ele>22.2</ele>
        <time>2022-11-12T10:19:41Z</time>
      </trkpt>
      <trkpt lat="47.88529" lon="-4.07152">
        <ele>22.2</ele>
        <time>2022-11-12T10:19:42Z</time>
      </trkpt>
      <trkpt lat="47.88532" lon="-4.07147">
        <ele>22.1</ele>
        <time>2022-11-12T10:19:43Z</time>
      </trkpt>
      <trkpt lat="47.88534" lon="-4.07141">
        <ele>22</ele>
        <time>2022-11-12T10:19:44Z</time>
      </trkpt>
      <trkpt lat="47.88534" lon="-4.07135">
        <ele>22</ele>
        <time>2022-11-12T10:19:45Z</time>
      </trkpt>
      <trkpt lat="47.88536" lon="-4.07131">
        <ele>21.9</ele>
        <time>2022-11-12T10:19:46Z</time>
      </trkpt>
      <trkpt lat="47.88537" lon="-4.07125">
        <ele>21.8</ele>
        <time>2022-11-12T10:19:47Z</time>
      </trkpt>
      <trkpt lat="47.88539" lon="-4.07121">
        <ele>21.7</ele>
        <time>2022-11-12T10:19:48Z</time>
      </trkpt>
      <trkpt lat="47.88542" lon="-4.07116">
        <ele>21.7</ele>
        <time>2022-11-12T10:19:49Z</time>
      </trkpt>
      <trkpt lat="47.88546" lon="-4.07112">
        <ele>21.6</ele>
        <time>2022-11-12T10:19:50Z</time>
      </trkpt>
      <trkpt lat="47.88551" lon="-4.07109">
        <ele>21.4</ele>
        <time>2022-11-12T10:19:51Z</time>
      </trkpt>
      <trkpt lat="47.88555" lon="-4.07105">
        <ele>21.3</ele>
        <time>2022-11-12T10:19:52Z</time>
      </trkpt>
      <trkpt lat="47.88554" lon="-4.07101">
        <ele>21.3</ele>
        <time>2022-11-12T10:19:53Z</time>
      </trkpt>
      <trkpt lat="47.88553" lon="-4.07096">
        <ele>21.2</ele>
        <time>2022-11-12T10:19:54Z</time>
      </trkpt>
      <trkpt lat="47.88551" lon="-4.07093">
        <ele>21.1</ele>
        <time>2022-11-12T10:19:55Z</time>
      </trkpt>
      <trkpt lat="47.8855" lon="-4.07088">
        <ele>21.1</ele>
        <time>2022-11-12T10:19:56Z</time>
      </trkpt>
      <trkpt lat="47.88549" lon="-4.07088">
        <ele>21</ele>
        <time>2022-11-12T10:19:57Z</time>
      </trkpt>
      <trkpt lat="47.88548" lon="-4.07086">
        <ele>21</ele>
        <time>2022-11-12T10:19:58Z</time>
      </trkpt>
      <trkpt lat="47.88548" lon="-4.0708">
        <ele>20.9</ele>
        <time>2022-11-12T10:19:59Z</time>
      </trkpt>
      <trkpt lat="47.8855" lon="-4.07077">
        <ele>20.8</ele>
        <time>2022-11-12T10:20:00Z</time>
      </trkpt>
      <trkpt lat="47.88552" lon="-4.07073">
        <ele>20.8</ele>
        <time>2022-11-12T10:20:01Z</time>
      </trkpt>
      <trkpt lat="47.88555" lon="-4.07068">
        <ele>20.7</ele>
        <time>2022-11-12T10:20:02Z</time>
      </trkpt>
      <trkpt lat="47.88556" lon="-4.07063">
        <ele>20.6</ele>
        <time>2022-11-12T10:20:03Z</time>
      </trkpt>
      <trkpt lat="47.88556" lon="-4.07059">
        <ele>20.5</ele>
        <time>2022-11-12T10:20:04Z</time>
      </trkpt>
      <trkpt lat="47.88555" lon="-4.07046">
        <ele>20.4</ele>
        <time>2022-11-12T10:20:06Z</time>
      </trkpt>
      <trkpt lat="47.88554" lon="-4.07042">
        <ele>20.4</ele>
        <time>2022-11-12T10:20:07Z</time>
      </trkpt>
      <trkpt lat="47.88555" lon="-4.07035">
        <ele>20.4</ele>
        <time>2022-11-12T10:20:09Z</time>
      </trkpt>
      <trkpt lat="47.88557" lon="-4.07029">
        <ele>20.3</ele>
        <time>2022-11-12T10:20:10Z</time>
      </trkpt>
      <trkpt lat="47.88561" lon="-4.07024">
        <ele>20.3</ele>
        <time>2022-11-12T10:20:11Z</time>
      </trkpt>
      <trkpt lat="47.88566" lon="-4.07018">
        <ele>20.4</ele>
        <time>2022-11-12T10:20:12Z</time>
      </trkpt>
      <trkpt lat="47.88569" lon="-4.07013">
        <ele>20.4</ele>
        <time>2022-11-12T10:20:13Z</time>
      </trkpt>
      <trkpt lat="47.88571" lon="-4.07009">
        <ele>20.4</ele>
        <time>2022-11-12T10:20:14Z</time>
      </trkpt>
      <trkpt lat="47.88573" lon="-4.07005">
        <ele>20.4</ele>
        <time>2022-11-12T10:20:15Z</time>
      </trkpt>
      <trkpt lat="47.88574" lon="-4.07004">
        <ele>20.4</ele>
        <time>2022-11-12T10:20:16Z</time>
      </trkpt>
      <trkpt lat="47.88574" lon="-4.07003">
        <ele>20.4</ele>
        <time>2022-11-12T10:20:18Z</time>
      </trkpt>
      <trkpt lat="47.88574" lon="-4.07003">
        <ele>20.4</ele>
        <time>2022-11-12T10:20:20Z</time>
      </trkpt>
      <trkpt lat="47.88574" lon="-4.07003">
        <ele>20.4</ele>
        <time>2022-11-12T10:20:21Z</time>
      </trkpt>
      <trkpt lat="47.88574" lon="-4.07003">
        <ele>20.4</ele>
        <time>2022-11-12T10:20:22Z</time>
      </trkpt>
      <trkpt lat="47.88574" lon="-4.07002">
        <ele>20.4</ele>
        <time>2022-11-12T10:20:23Z</time>
      </trkpt>
      <trkpt lat="47.88574" lon="-4.07002">
        <ele>20.4</ele>
        <time>2022-11-12T10:20:25Z</time>
      </trkpt>
      <trkpt lat="47.88574" lon="-4.07002">
        <ele>20.4</ele>
        <time>2022-11-12T10:20:26Z</time>
      </trkpt>
      <trkpt lat="47.88575" lon="-4.07002">
        <ele>20.4</ele>
        <time>2022-11-12T10:20:27Z</time>
      </trkpt>
      <trkpt lat="47.88575" lon="-4.07001">
        <ele>20.4</ele>
        <time>2022-11-12T10:20:28Z</time>
      </trkpt>
      <trkpt lat="47.88575" lon="-4.07001">
        <ele>20.4</ele>
        <time>2022-11-12T10:20:30Z</time>
      </trkpt>
      <trkpt lat="47.88575" lon="-4.07001">
        <ele>20.4</ele>
        <time>2022-11-12T10:21:51Z</time>
      </trkpt>
      <trkpt lat="47.88575" lon="-4.07001">
        <ele>20.4</ele>
        <time>2022-11-12T10:21:52Z</time>
      </trkpt>
      <trkpt lat="47.88575" lon="-4.07">
        <ele>20.4</ele>
        <time>2022-11-12T10:21:53Z</time>
      </trkpt>
      <trkpt lat="47.88575" lon="-4.07">
        <ele>20.4</ele>
        <time>2022-11-12T10:21:54Z</time>
      </trkpt>
      <trkpt lat="47.88575" lon="-4.07">
        <ele>20.4</ele>
        <time>2022-11-12T10:21:55Z</time>
      </trkpt>
      <trkpt lat="47.88575" lon="-4.07">
        <ele>20.4</ele>
        <time>2022-11-12T10:21:56Z</time>
      </trkpt>
      <trkpt lat="47.88575" lon="-4.06999">
        <ele>20.4</ele>
        <time>2022-11-12T10:21:57Z</time>
      </trkpt>
      <trkpt lat="47.88575" lon="-4.06999">
        <ele>20.4</ele>
        <time>2022-11-12T10:21:58Z</time>
      </trkpt>
      <trkpt lat="47.88575" lon="-4.06999">
        <ele>20.4</ele>
        <time>2022-11-12T10:21:59Z</time>
      </trkpt>
      <trkpt lat="47.88575" lon="-4.06999">
        <ele>20.4</ele>
        <time>2022-11-12T10:22:00Z</time>
      </trkpt>
      <trkpt lat="47.88576" lon="-4.06998">
        <ele>20.4</ele>
        <time>2022-11-12T10:22:01Z</time>
      </trkpt>
      <trkpt lat="47.88576" lon="-4.06997">
        <ele>20.4</ele>
        <time>2022-11-12T10:22:02Z</time>
      </trkpt>
      <trkpt lat="47.88577" lon="-4.06995">
        <ele>20.4</ele>
        <time>2022-11-12T10:22:03Z</time>
      </trkpt>
      <trkpt lat="47.88577" lon="-4.06994">
        <ele>20.4</ele>
        <time>2022-11-12T10:22:04Z</time>
      </trkpt>
      <trkpt lat="47.88576" lon="-4.06993">
        <ele>20.5</ele>
        <time>2022-11-12T10:22:05Z</time>
      </trkpt>
      <trkpt lat="47.88576" lon="-4.06992">
        <ele>20.5</ele>
        <time>2022-11-12T10:22:06Z</time>
      </trkpt>
      <trkpt lat="47.88576" lon="-4.06991">
        <ele>20.5</ele>
        <time>2022-11-12T10:22:07Z</time>
      </trkpt>
      <trkpt lat="47.88577" lon="-4.06989">
        <ele>20.5</ele>
        <time>2022-11-12T10:22:08Z</time>
      </trkpt>
      <trkpt lat="47.88577" lon="-4.06989">
        <ele>20.5</ele>
        <time>2022-11-12T10:22:09Z</time>
      </trkpt>
      <trkpt lat="47.88577" lon="-4.06987">
        <ele>20.5</ele>
        <time>2022-11-12T10:22:10Z</time>
      </trkpt>
      <trkpt lat="47.88578" lon="-4.06982">
        <ele>20.5</ele>
        <time>2022-11-12T10:22:12Z</time>
      </trkpt>
      <trkpt lat="47.8858" lon="-4.06978">
        <ele>20.5</ele>
        <time>2022-11-12T10:22:13Z</time>
      </trkpt>
      <trkpt lat="47.88582" lon="-4.06974">
        <ele>20.5</ele>
        <time>2022-11-12T10:22:14Z</time>
      </trkpt>
      <trkpt lat="47.88584" lon="-4.0697">
        <ele>20.5</ele>
        <time>2022-11-12T10:22:15Z</time>
      </trkpt>
      <trkpt lat="47.88585" lon="-4.06969">
        <ele>20.6</ele>
        <time>2022-11-12T10:22:16Z</time>
      </trkpt>
      <trkpt lat="47.88586" lon="-4.06965">
        <ele>20.6</ele>
        <time>2022-11-12T10:22:17Z</time>
      </trkpt>
      <trkpt lat="47.88586" lon="-4.06963">
        <ele>20.6</ele>
        <time>2022-11-12T10:22:18Z</time>
      </trkpt>
      <trkpt lat="47.88586" lon="-4.06958">
        <ele>20.6</ele>
        <time>2022-11-12T10:22:19Z</time>
      </trkpt>
      <trkpt lat="47.88588" lon="-4.06953">
        <ele>20.6</ele>
        <time>2022-11-12T10:22:20Z</time>
      </trkpt>
      <trkpt lat="47.88588" lon="-4.06952">
        <ele>20.6</ele>
        <time>2022-11-12T10:22:21Z</time>
      </trkpt>
      <trkpt lat="47.8859" lon="-4.06948">
        <ele>20.6</ele>
        <time>2022-11-12T10:22:22Z</time>
      </trkpt>
      <trkpt lat="47.88591" lon="-4.06947">
        <ele>20.6</ele>
        <time>2022-11-12T10:22:23Z</time>
      </trkpt>
      <trkpt lat="47.88592" lon="-4.06943">
        <ele>20.7</ele>
        <time>2022-11-12T10:22:24Z</time>
      </trkpt>
      <trkpt lat="47.88593" lon="-4.06941">
        <ele>20.7</ele>
        <time>2022-11-12T10:22:25Z</time>
      </trkpt>
      <trkpt lat="47.88593" lon="-4.06938">
        <ele>20.7</ele>
        <time>2022-11-12T10:22:26Z</time>
      </trkpt>
      <trkpt lat="47.88594" lon="-4.06936">
        <ele>20.7</ele>
        <time>2022-11-12T10:22:27Z</time>
      </trkpt>
      <trkpt lat="47.88594" lon="-4.06935">
        <ele>20.7</ele>
        <time>2022-11-12T10:22:28Z</time>
      </trkpt>
      <trkpt lat="47.88594" lon="-4.06934">
        <ele>20.7</ele>
        <time>2022-11-12T10:22:29Z</time>
      </trkpt>
      <trkpt lat="47.88594" lon="-4.06933">
        <ele>20.7</ele>
        <time>2022-11-12T10:22:30Z</time>
      </trkpt>
      <trkpt lat="47.88595" lon="-4.06933">
        <ele>20.7</ele>
        <time>2022-11-12T10:22:31Z</time>
      </trkpt>
      <trkpt lat="47.88596" lon="-4.0693">
        <ele>20.7</ele>
        <time>2022-11-12T10:22:32Z</time>
      </trkpt>
      <trkpt lat="47.88597" lon="-4.06928">
        <ele>20.7</ele>
        <time>2022-11-12T10:22:33Z</time>
      </trkpt>
      <trkpt lat="47.88597" lon="-4.06926">
        <ele>20.8</ele>
        <time>2022-11-12T10:22:34Z</time>
      </trkpt>
      <trkpt lat="47.88598" lon="-4.06921">
        <ele>20.8</ele>
        <time>2022-11-12T10:22:35Z</time>
      </trkpt>
      <trkpt lat="47.88599" lon="-4.0692">
        <ele>20.8</ele>
        <time>2022-11-12T10:22:36Z</time>
      </trkpt>
      <trkpt lat="47.88601" lon="-4.06915">
        <ele>20.9</ele>
        <time>2022-11-12T10:22:37Z</time>
      </trkpt>
      <trkpt lat="47.88601" lon="-4.06913">
        <ele>20.9</ele>
        <time>2022-11-12T10:22:38Z</time>
      </trkpt>
      <trkpt lat="47.88602" lon="-4.06912">
        <ele>20.9</ele>
        <time>2022-11-12T10:22:39Z</time>
      </trkpt>
      <trkpt lat="47.88603" lon="-4.0691">
        <ele>20.9</ele>
        <time>2022-11-12T10:22:40Z</time>
      </trkpt>
      <trkpt lat="47.88607" lon="-4.06903">
        <ele>21</ele>
        <time>2022-11-12T10:22:42Z</time>
      </trkpt>
      <trkpt lat="47.88609" lon="-4.069">
        <ele>21.1</ele>
        <time>2022-11-12T10:22:43Z</time>
      </trkpt>
      <trkpt lat="47.88612" lon="-4.06896">
        <ele>21.1</ele>
        <time>2022-11-12T10:22:45Z</time>
      </trkpt>
      <trkpt lat="47.88615" lon="-4.0689">
        <ele>21.2</ele>
        <time>2022-11-12T10:22:46Z</time>
      </trkpt>
      <trkpt lat="47.88618" lon="-4.06884">
        <ele>21.4</ele>
        <time>2022-11-12T10:22:47Z</time>
      </trkpt>
      <trkpt lat="47.88623" lon="-4.06877">
        <ele>21.5</ele>
        <time>2022-11-12T10:22:49Z</time>
      </trkpt>
      <trkpt lat="47.88626" lon="-4.06872">
        <ele>21.6</ele>
        <time>2022-11-12T10:22:50Z</time>
      </trkpt>
      <trkpt lat="47.8863" lon="-4.06865">
        <ele>21.8</ele>
        <time>2022-11-12T10:22:51Z</time>
      </trkpt>
      <trkpt lat="47.88633" lon="-4.0686">
        <ele>21.8</ele>
        <time>2022-11-12T10:22:52Z</time>
      </trkpt>
      <trkpt lat="47.88635" lon="-4.06856">
        <ele>21.9</ele>
        <time>2022-11-12T10:22:53Z</time>
      </trkpt>
      <trkpt lat="47.88638" lon="-4.06851">
        <ele>22</ele>
        <time>2022-11-12T10:22:54Z</time>
      </trkpt>
      <trkpt lat="47.8864" lon="-4.06846">
        <ele>22.1</ele>
        <time>2022-11-12T10:22:55Z</time>
      </trkpt>
      <trkpt lat="47.88644" lon="-4.06841">
        <ele>22.2</ele>
        <time>2022-11-12T10:22:57Z</time>
      </trkpt>
      <trkpt lat="47.88647" lon="-4.06836">
        <ele>22.3</ele>
        <time>2022-11-12T10:22:58Z</time>
      </trkpt>
      <trkpt lat="47.88649" lon="-4.06833">
        <ele>22.4</ele>
        <time>2022-11-12T10:22:59Z</time>
      </trkpt>
      <trkpt lat="47.88653" lon="-4.06828">
        <ele>22.5</ele>
        <time>2022-11-12T10:23:00Z</time>
      </trkpt>
      <trkpt lat="47.88655" lon="-4.06825">
        <ele>23.2</ele>
        <time>2022-11-12T10:23:01Z</time>
      </trkpt>
      <trkpt lat="47.88658" lon="-4.06823">
        <ele>23.3</ele>
        <time>2022-11-12T10:23:02Z</time>
      </trkpt>
      <trkpt lat="47.88661" lon="-4.06821">
        <ele>23.4</ele>
        <time>2022-11-12T10:23:03Z</time>
      </trkpt>
      <trkpt lat="47.88664" lon="-4.0682">
        <ele>23.6</ele>
        <time>2022-11-12T10:23:04Z</time>
      </trkpt>
      <trkpt lat="47.88668" lon="-4.06819">
        <ele>23.7</ele>
        <time>2022-11-12T10:23:05Z</time>
      </trkpt>
      <trkpt lat="47.88672" lon="-4.06819">
        <ele>23.6</ele>
        <time>2022-11-12T10:23:06Z</time>
      </trkpt>
      <trkpt lat="47.88677" lon="-4.06819">
        <ele>23.6</ele>
        <time>2022-11-12T10:23:07Z</time>
      </trkpt>
      <trkpt lat="47.8868" lon="-4.06818">
        <ele>23.6</ele>
        <time>2022-11-12T10:23:08Z</time>
      </trkpt>
      <trkpt lat="47.88683" lon="-4.06818">
        <ele>23.5</ele>
        <time>2022-11-12T10:23:09Z</time>
      </trkpt>
      <trkpt lat="47.88684" lon="-4.0682">
        <ele>23.5</ele>
        <time>2022-11-12T10:23:10Z</time>
      </trkpt>
      <trkpt lat="47.88682" lon="-4.06822">
        <ele>23.5</ele>
        <time>2022-11-12T10:23:11Z</time>
      </trkpt>
      <trkpt lat="47.88678" lon="-4.06822">
        <ele>23.4</ele>
        <time>2022-11-12T10:23:12Z</time>
      </trkpt>
      <trkpt lat="47.88678" lon="-4.06822">
        <ele>23.4</ele>
        <time>2022-11-12T10:23:13Z</time>
      </trkpt>
      <trkpt lat="47.88673" lon="-4.0682">
        <ele>23.3</ele>
        <time>2022-11-12T10:23:14Z</time>
      </trkpt>
      <trkpt lat="47.88672" lon="-4.06819">
        <ele>23.3</ele>
        <time>2022-11-12T10:23:15Z</time>
      </trkpt>
      <trkpt lat="47.88669" lon="-4.06818">
        <ele>23.3</ele>
        <time>2022-11-12T10:23:16Z</time>
      </trkpt>
      <trkpt lat="47.88666" lon="-4.06817">
        <ele>23.2</ele>
        <time>2022-11-12T10:23:17Z</time>
      </trkpt>
      <trkpt lat="47.88662" lon="-4.06817">
        <ele>23.2</ele>
        <time>2022-11-12T10:23:18Z</time>
      </trkpt>
      <trkpt lat="47.88659" lon="-4.06816">
        <ele>23.1</ele>
        <time>2022-11-12T10:23:19Z</time>
      </trkpt>
      <trkpt lat="47.88655" lon="-4.06814">
        <ele>23</ele>
        <time>2022-11-12T10:23:20Z</time>
      </trkpt>
      <trkpt lat="47.88652" lon="-4.06812">
        <ele>23</ele>
        <time>2022-11-12T10:23:21Z</time>
      </trkpt>
      <trkpt lat="47.8865" lon="-4.06808">
        <ele>22.9</ele>
        <time>2022-11-12T10:23:22Z</time>
      </trkpt>
      <trkpt lat="47.88648" lon="-4.06804">
        <ele>23</ele>
        <time>2022-11-12T10:23:23Z</time>
      </trkpt>
      <trkpt lat="47.88647" lon="-4.06797">
        <ele>23.2</ele>
        <time>2022-11-12T10:23:24Z</time>
      </trkpt>
      <trkpt lat="47.88647" lon="-4.06789">
        <ele>23.4</ele>
        <time>2022-11-12T10:23:25Z</time>
      </trkpt>
      <trkpt lat="47.88647" lon="-4.06784">
        <ele>23.6</ele>
        <time>2022-11-12T10:23:26Z</time>
      </trkpt>
      <trkpt lat="47.88646" lon="-4.06775">
        <ele>23.8</ele>
        <time>2022-11-12T10:23:28Z</time>
      </trkpt>
      <trkpt lat="47.88645" lon="-4.06768">
        <ele>24.1</ele>
        <time>2022-11-12T10:23:29Z</time>
      </trkpt>
      <trkpt lat="47.88645" lon="-4.06762">
        <ele>24.3</ele>
        <time>2022-11-12T10:23:30Z</time>
      </trkpt>
      <trkpt lat="47.88644" lon="-4.06757">
        <ele>24.5</ele>
        <time>2022-11-12T10:23:31Z</time>
      </trkpt>
      <trkpt lat="47.88644" lon="-4.06751">
        <ele>24.7</ele>
        <time>2022-11-12T10:23:32Z</time>
      </trkpt>
      <trkpt lat="47.88645" lon="-4.06744">
        <ele>24.9</ele>
        <time>2022-11-12T10:23:34Z</time>
      </trkpt>
      <trkpt lat="47.88646" lon="-4.0674">
        <ele>25.1</ele>
        <time>2022-11-12T10:23:35Z</time>
      </trkpt>
      <trkpt lat="47.88647" lon="-4.06737">
        <ele>25.4</ele>
        <time>2022-11-12T10:23:36Z</time>
      </trkpt>
      <trkpt lat="47.8865" lon="-4.06734">
        <ele>25.4</ele>
        <time>2022-11-12T10:23:37Z</time>
      </trkpt>
      <trkpt lat="47.88655" lon="-4.06731">
        <ele>25.6</ele>
        <time>2022-11-12T10:23:38Z</time>
      </trkpt>
      <trkpt lat="47.8866" lon="-4.06728">
        <ele>25.7</ele>
        <time>2022-11-12T10:23:39Z</time>
      </trkpt>
      <trkpt lat="47.88663" lon="-4.06727">
        <ele>25.8</ele>
        <time>2022-11-12T10:23:40Z</time>
      </trkpt>
      <trkpt lat="47.8867" lon="-4.06722">
        <ele>26</ele>
        <time>2022-11-12T10:23:42Z</time>
      </trkpt>
      <trkpt lat="47.88674" lon="-4.06718">
        <ele>26.2</ele>
        <time>2022-11-12T10:23:43Z</time>
      </trkpt>
      <trkpt lat="47.88678" lon="-4.06716">
        <ele>26.3</ele>
        <time>2022-11-12T10:23:44Z</time>
      </trkpt>
      <trkpt lat="47.88682" lon="-4.06712">
        <ele>26.4</ele>
        <time>2022-11-12T10:23:45Z</time>
      </trkpt>
      <trkpt lat="47.88686" lon="-4.06709">
        <ele>26.5</ele>
        <time>2022-11-12T10:23:46Z</time>
      </trkpt>
      <trkpt lat="47.88691" lon="-4.06705">
        <ele>26.6</ele>
        <time>2022-11-12T10:23:48Z</time>
      </trkpt>
      <trkpt lat="47.88697" lon="-4.06701">
        <ele>26.8</ele>
        <time>2022-11-12T10:23:49Z</time>
      </trkpt>
      <trkpt lat="47.88705" lon="-4.06695">
        <ele>27</ele>
        <time>2022-11-12T10:23:51Z</time>
      </trkpt>
      <trkpt lat="47.88708" lon="-4.06691">
        <ele>27.1</ele>
        <time>2022-11-12T10:23:52Z</time>
      </trkpt>
      <trkpt lat="47.88712" lon="-4.06689">
        <ele>27.2</ele>
        <time>2022-11-12T10:23:53Z</time>
      </trkpt>
      <trkpt lat="47.88717" lon="-4.06685">
        <ele>27.3</ele>
        <time>2022-11-12T10:23:54Z</time>
      </trkpt>
      <trkpt lat="47.88722" lon="-4.06683">
        <ele>27.4</ele>
        <time>2022-11-12T10:23:55Z</time>
      </trkpt>
      <trkpt lat="47.88726" lon="-4.0668">
        <ele>27.5</ele>
        <time>2022-11-12T10:23:56Z</time>
      </trkpt>
      <trkpt lat="47.88731" lon="-4.06677">
        <ele>27.6</ele>
        <time>2022-11-12T10:23:57Z</time>
      </trkpt>
      <trkpt lat="47.88736" lon="-4.06675">
        <ele>27.6</ele>
        <time>2022-11-12T10:23:58Z</time>
      </trkpt>
      <trkpt lat="47.88741" lon="-4.06674">
        <ele>27.7</ele>
        <time>2022-11-12T10:23:59Z</time>
      </trkpt>
      <trkpt lat="47.88745" lon="-4.06672">
        <ele>27.8</ele>
        <time>2022-11-12T10:24:00Z</time>
      </trkpt>
      <trkpt lat="47.8875" lon="-4.06671">
        <ele>27.9</ele>
        <time>2022-11-12T10:24:01Z</time>
      </trkpt>
      <trkpt lat="47.88755" lon="-4.0667">
        <ele>28</ele>
        <time>2022-11-12T10:24:02Z</time>
      </trkpt>
      <trkpt lat="47.8876" lon="-4.06669">
        <ele>28</ele>
        <time>2022-11-12T10:24:03Z</time>
      </trkpt>
      <trkpt lat="47.88765" lon="-4.06668">
        <ele>28.1</ele>
        <time>2022-11-12T10:24:04Z</time>
      </trkpt>
      <trkpt lat="47.8877" lon="-4.06667">
        <ele>28.2</ele>
        <time>2022-11-12T10:24:05Z</time>
      </trkpt>
      <trkpt lat="47.88776" lon="-4.06666">
        <ele>28.3</ele>
        <time>2022-11-12T10:24:06Z</time>
      </trkpt>
      <trkpt lat="47.88781" lon="-4.06665">
        <ele>28.3</ele>
        <time>2022-11-12T10:24:07Z</time>
      </trkpt>
      <trkpt lat="47.88786" lon="-4.06665">
        <ele>28.4</ele>
        <time>2022-11-12T10:24:08Z</time>
      </trkpt>
      <trkpt lat="47.88791" lon="-4.06664">
        <ele>28.5</ele>
        <time>2022-11-12T10:24:09Z</time>
      </trkpt>
      <trkpt lat="47.88796" lon="-4.06663">
        <ele>28.5</ele>
        <time>2022-11-12T10:24:10Z</time>
      </trkpt>
      <trkpt lat="47.88801" lon="-4.06663">
        <ele>28.6</ele>
        <time>2022-11-12T10:24:11Z</time>
      </trkpt>
      <trkpt lat="47.88807" lon="-4.06663">
        <ele>28.6</ele>
        <time>2022-11-12T10:24:12Z</time>
      </trkpt>
      <trkpt lat="47.88812" lon="-4.06663">
        <ele>28.6</ele>
        <time>2022-11-12T10:24:13Z</time>
      </trkpt>
      <trkpt lat="47.88817" lon="-4.06662">
        <ele>28.6</ele>
        <time>2022-11-12T10:24:14Z</time>
      </trkpt>
      <trkpt lat="47.88823" lon="-4.06661">
        <ele>28.7</ele>
        <time>2022-11-12T10:24:15Z</time>
      </trkpt>
      <trkpt lat="47.88828" lon="-4.06659">
        <ele>28.7</ele>
        <time>2022-11-12T10:24:16Z</time>
      </trkpt>
      <trkpt lat="47.88832" lon="-4.06658">
        <ele>28.8</ele>
        <time>2022-11-12T10:24:17Z</time>
      </trkpt>
      <trkpt lat="47.88837" lon="-4.06657">
        <ele>28.8</ele>
        <time>2022-11-12T10:24:18Z</time>
      </trkpt>
      <trkpt lat="47.88842" lon="-4.06654">
        <ele>28.8</ele>
        <time>2022-11-12T10:24:19Z</time>
      </trkpt>
      <trkpt lat="47.88847" lon="-4.06651">
        <ele>28.8</ele>
        <time>2022-11-12T10:24:20Z</time>
      </trkpt>
      <trkpt lat="47.88852" lon="-4.06648">
        <ele>28.7</ele>
        <time>2022-11-12T10:24:21Z</time>
      </trkpt>
      <trkpt lat="47.88856" lon="-4.06644">
        <ele>28.7</ele>
        <time>2022-11-12T10:24:22Z</time>
      </trkpt>
      <trkpt lat="47.88859" lon="-4.06642">
        <ele>28.7</ele>
        <time>2022-11-12T10:24:23Z</time>
      </trkpt>
      <trkpt lat="47.8886" lon="-4.06641">
        <ele>28.7</ele>
        <time>2022-11-12T10:24:24Z</time>
      </trkpt>
      <trkpt lat="47.88861" lon="-4.0664">
        <ele>28.7</ele>
        <time>2022-11-12T10:24:25Z</time>
      </trkpt>
      <trkpt lat="47.88862" lon="-4.06639">
        <ele>28.6</ele>
        <time>2022-11-12T10:24:26Z</time>
      </trkpt>
      <trkpt lat="47.88863" lon="-4.06639">
        <ele>28.6</ele>
        <time>2022-11-12T10:24:27Z</time>
      </trkpt>
      <trkpt lat="47.88865" lon="-4.06639">
        <ele>28.6</ele>
        <time>2022-11-12T10:24:28Z</time>
      </trkpt>
      <trkpt lat="47.88868" lon="-4.06637">
        <ele>28.6</ele>
        <time>2022-11-12T10:24:29Z</time>
      </trkpt>
      <trkpt lat="47.88869" lon="-4.06636">
        <ele>28.6</ele>
        <time>2022-11-12T10:24:30Z</time>
      </trkpt>
      <trkpt lat="47.8887" lon="-4.06629">
        <ele>28.6</ele>
        <time>2022-11-12T10:24:31Z</time>
      </trkpt>
      <trkpt lat="47.8887" lon="-4.06624">
        <ele>28.5</ele>
        <time>2022-11-12T10:24:32Z</time>
      </trkpt>
      <trkpt lat="47.88867" lon="-4.06616">
        <ele>28.5</ele>
        <time>2022-11-12T10:24:33Z</time>
      </trkpt>
      <trkpt lat="47.88867" lon="-4.06609">
        <ele>28.5</ele>
        <time>2022-11-12T10:24:34Z</time>
      </trkpt>
      <trkpt lat="47.88866" lon="-4.06601">
        <ele>28.5</ele>
        <time>2022-11-12T10:24:35Z</time>
      </trkpt>
      <trkpt lat="47.88867" lon="-4.06594">
        <ele>28.5</ele>
        <time>2022-11-12T10:24:36Z</time>
      </trkpt>
      <trkpt lat="47.88868" lon="-4.06586">
        <ele>28.5</ele>
        <time>2022-11-12T10:24:37Z</time>
      </trkpt>
      <trkpt lat="47.88869" lon="-4.06578">
        <ele>28.5</ele>
        <time>2022-11-12T10:24:38Z</time>
      </trkpt>
      <trkpt lat="47.8887" lon="-4.0657">
        <ele>28.5</ele>
        <time>2022-11-12T10:24:39Z</time>
      </trkpt>
      <trkpt lat="47.88871" lon="-4.06563">
        <ele>28.5</ele>
        <time>2022-11-12T10:24:40Z</time>
      </trkpt>
      <trkpt lat="47.88869" lon="-4.06556">
        <ele>28.5</ele>
        <time>2022-11-12T10:24:41Z</time>
      </trkpt>
      <trkpt lat="47.88866" lon="-4.06551">
        <ele>28.4</ele>
        <time>2022-11-12T10:24:42Z</time>
      </trkpt>
      <trkpt lat="47.88861" lon="-4.06549">
        <ele>28.4</ele>
        <time>2022-11-12T10:24:43Z</time>
      </trkpt>
      <trkpt lat="47.88855" lon="-4.06547">
        <ele>28.3</ele>
        <time>2022-11-12T10:24:44Z</time>
      </trkpt>
      <trkpt lat="47.8885" lon="-4.06545">
        <ele>28.3</ele>
        <time>2022-11-12T10:24:45Z</time>
      </trkpt>
      <trkpt lat="47.88844" lon="-4.06543">
        <ele>28.2</ele>
        <time>2022-11-12T10:24:46Z</time>
      </trkpt>
      <trkpt lat="47.88839" lon="-4.06542">
        <ele>28.2</ele>
        <time>2022-11-12T10:24:47Z</time>
      </trkpt>
      <trkpt lat="47.88833" lon="-4.06539">
        <ele>28.1</ele>
        <time>2022-11-12T10:24:48Z</time>
      </trkpt>
      <trkpt lat="47.88828" lon="-4.06537">
        <ele>28.1</ele>
        <time>2022-11-12T10:24:49Z</time>
      </trkpt>
      <trkpt lat="47.88821" lon="-4.06535">
        <ele>28.1</ele>
        <time>2022-11-12T10:24:50Z</time>
      </trkpt>
      <trkpt lat="47.88815" lon="-4.06533">
        <ele>28</ele>
        <time>2022-11-12T10:24:51Z</time>
      </trkpt>
      <trkpt lat="47.88809" lon="-4.06531">
        <ele>28</ele>
        <time>2022-11-12T10:24:52Z</time>
      </trkpt>
      <trkpt lat="47.88803" lon="-4.0653">
        <ele>28</ele>
        <time>2022-11-12T10:24:53Z</time>
      </trkpt>
      <trkpt lat="47.88797" lon="-4.06528">
        <ele>28</ele>
        <time>2022-11-12T10:24:54Z</time>
      </trkpt>
      <trkpt lat="47.88791" lon="-4.06528">
        <ele>28.1</ele>
        <time>2022-11-12T10:24:55Z</time>
      </trkpt>
      <trkpt lat="47.88785" lon="-4.06528">
        <ele>28.1</ele>
        <time>2022-11-12T10:24:56Z</time>
      </trkpt>
      <trkpt lat="47.88779" lon="-4.06526">
        <ele>28.2</ele>
        <time>2022-11-12T10:24:57Z</time>
      </trkpt>
      <trkpt lat="47.88774" lon="-4.06525">
        <ele>28.3</ele>
        <time>2022-11-12T10:24:58Z</time>
      </trkpt>
      <trkpt lat="47.88768" lon="-4.06524">
        <ele>28.4</ele>
        <time>2022-11-12T10:24:59Z</time>
      </trkpt>
      <trkpt lat="47.88762" lon="-4.06523">
        <ele>28.4</ele>
        <time>2022-11-12T10:25:00Z</time>
      </trkpt>
      <trkpt lat="47.88758" lon="-4.06522">
        <ele>28.5</ele>
        <time>2022-11-12T10:25:01Z</time>
      </trkpt>
      <trkpt lat="47.88753" lon="-4.06522">
        <ele>28.5</ele>
        <time>2022-11-12T10:25:02Z</time>
      </trkpt>
      <trkpt lat="47.88747" lon="-4.06522">
        <ele>28.6</ele>
        <time>2022-11-12T10:25:03Z</time>
      </trkpt>
      <trkpt lat="47.88742" lon="-4.06522">
        <ele>28.6</ele>
        <time>2022-11-12T10:25:04Z</time>
      </trkpt>
      <trkpt lat="47.88736" lon="-4.06522">
        <ele>28.6</ele>
        <time>2022-11-12T10:25:05Z</time>
      </trkpt>
      <trkpt lat="47.8873" lon="-4.06522">
        <ele>28.7</ele>
        <time>2022-11-12T10:25:06Z</time>
      </trkpt>
      <trkpt lat="47.88724" lon="-4.06523">
        <ele>28.7</ele>
        <time>2022-11-12T10:25:07Z</time>
      </trkpt>
      <trkpt lat="47.88717" lon="-4.06524">
        <ele>28.6</ele>
        <time>2022-11-12T10:25:08Z</time>
      </trkpt>
      <trkpt lat="47.88711" lon="-4.06524">
        <ele>28.6</ele>
        <time>2022-11-12T10:25:09Z</time>
      </trkpt>
      <trkpt lat="47.88705" lon="-4.06524">
        <ele>28.6</ele>
        <time>2022-11-12T10:25:10Z</time>
      </trkpt>
      <trkpt lat="47.88698" lon="-4.06524">
        <ele>28.6</ele>
        <time>2022-11-12T10:25:11Z</time>
      </trkpt>
      <trkpt lat="47.88692" lon="-4.06523">
        <ele>28.5</ele>
        <time>2022-11-12T10:25:12Z</time>
      </trkpt>
      <trkpt lat="47.88685" lon="-4.06522">
        <ele>28.5</ele>
        <time>2022-11-12T10:25:13Z</time>
      </trkpt>
      <trkpt lat="47.88679" lon="-4.06523">
        <ele>28.5</ele>
        <time>2022-11-12T10:25:14Z</time>
      </trkpt>
      <trkpt lat="47.88673" lon="-4.06523">
        <ele>28.5</ele>
        <time>2022-11-12T10:25:15Z</time>
      </trkpt>
      <trkpt lat="47.88667" lon="-4.06524">
        <ele>28.5</ele>
        <time>2022-11-12T10:25:16Z</time>
      </trkpt>
      <trkpt lat="47.88661" lon="-4.06524">
        <ele>28.5</ele>
        <time>2022-11-12T10:25:17Z</time>
      </trkpt>
      <trkpt lat="47.88655" lon="-4.06525">
        <ele>28.5</ele>
        <time>2022-11-12T10:25:18Z</time>
      </trkpt>
      <trkpt lat="47.88648" lon="-4.06525">
        <ele>28.5</ele>
        <time>2022-11-12T10:25:19Z</time>
      </trkpt>
      <trkpt lat="47.88642" lon="-4.06525">
        <ele>28.5</ele>
        <time>2022-11-12T10:25:20Z</time>
      </trkpt>
      <trkpt lat="47.88637" lon="-4.06525">
        <ele>28.5</ele>
        <time>2022-11-12T10:25:21Z</time>
      </trkpt>
      <trkpt lat="47.88631" lon="-4.06526">
        <ele>28.4</ele>
        <time>2022-11-12T10:25:22Z</time>
      </trkpt>
      <trkpt lat="47.88624" lon="-4.06526">
        <ele>28.4</ele>
        <time>2022-11-12T10:25:23Z</time>
      </trkpt>
      <trkpt lat="47.88618" lon="-4.06526">
        <ele>28.4</ele>
        <time>2022-11-12T10:25:24Z</time>
      </trkpt>
      <trkpt lat="47.88612" lon="-4.06527">
        <ele>28.4</ele>
        <time>2022-11-12T10:25:25Z</time>
      </trkpt>
      <trkpt lat="47.88607" lon="-4.06526">
        <ele>28.4</ele>
        <time>2022-11-12T10:25:26Z</time>
      </trkpt>
      <trkpt lat="47.88601" lon="-4.06525">
        <ele>28.4</ele>
        <time>2022-11-12T10:25:27Z</time>
      </trkpt>
      <trkpt lat="47.88595" lon="-4.06523">
        <ele>28.4</ele>
        <time>2022-11-12T10:25:28Z</time>
      </trkpt>
      <trkpt lat="47.88589" lon="-4.06522">
        <ele>28.4</ele>
        <time>2022-11-12T10:25:29Z</time>
      </trkpt>
      <trkpt lat="47.88582" lon="-4.0652">
        <ele>28.3</ele>
        <time>2022-11-12T10:25:30Z</time>
      </trkpt>
      <trkpt lat="47.88577" lon="-4.06518">
        <ele>28.3</ele>
        <time>2022-11-12T10:25:31Z</time>
      </trkpt>
      <trkpt lat="47.88571" lon="-4.06516">
        <ele>28.3</ele>
        <time>2022-11-12T10:25:32Z</time>
      </trkpt>
      <trkpt lat="47.88565" lon="-4.06513">
        <ele>28.2</ele>
        <time>2022-11-12T10:25:33Z</time>
      </trkpt>
      <trkpt lat="47.88559" lon="-4.06512">
        <ele>28.2</ele>
        <time>2022-11-12T10:25:34Z</time>
      </trkpt>
      <trkpt lat="47.88553" lon="-4.0651">
        <ele>28.1</ele>
        <time>2022-11-12T10:25:35Z</time>
      </trkpt>
      <trkpt lat="47.88546" lon="-4.06509">
        <ele>28.1</ele>
        <time>2022-11-12T10:25:36Z</time>
      </trkpt>
      <trkpt lat="47.8854" lon="-4.06508">
        <ele>28</ele>
        <time>2022-11-12T10:25:37Z</time>
      </trkpt>
      <trkpt lat="47.88534" lon="-4.06507">
        <ele>27.9</ele>
        <time>2022-11-12T10:25:38Z</time>
      </trkpt>
      <trkpt lat="47.88528" lon="-4.06506">
        <ele>27.9</ele>
        <time>2022-11-12T10:25:39Z</time>
      </trkpt>
      <trkpt lat="47.88521" lon="-4.06506">
        <ele>27.8</ele>
        <time>2022-11-12T10:25:40Z</time>
      </trkpt>
      <trkpt lat="47.88515" lon="-4.06506">
        <ele>27.7</ele>
        <time>2022-11-12T10:25:41Z</time>
      </trkpt>
      <trkpt lat="47.88509" lon="-4.06507">
        <ele>27.7</ele>
        <time>2022-11-12T10:25:42Z</time>
      </trkpt>
      <trkpt lat="47.88502" lon="-4.06507">
        <ele>27.6</ele>
        <time>2022-11-12T10:25:43Z</time>
      </trkpt>
      <trkpt lat="47.88496" lon="-4.06507">
        <ele>27.5</ele>
        <time>2022-11-12T10:25:44Z</time>
      </trkpt>
      <trkpt lat="47.88489" lon="-4.06507">
        <ele>27.5</ele>
        <time>2022-11-12T10:25:45Z</time>
      </trkpt>
      <trkpt lat="47.88482" lon="-4.06506">
        <ele>27.4</ele>
        <time>2022-11-12T10:25:46Z</time>
      </trkpt>
      <trkpt lat="47.88476" lon="-4.06504">
        <ele>27.3</ele>
        <time>2022-11-12T10:25:47Z</time>
      </trkpt>
      <trkpt lat="47.88471" lon="-4.065">
        <ele>27.1</ele>
        <time>2022-11-12T10:25:48Z</time>
      </trkpt>
      <trkpt lat="47.88469" lon="-4.06491">
        <ele>26.9</ele>
        <time>2022-11-12T10:25:49Z</time>
      </trkpt>
      <trkpt lat="47.88467" lon="-4.06481">
        <ele>26.7</ele>
        <time>2022-11-12T10:25:50Z</time>
      </trkpt>
      <trkpt lat="47.88467" lon="-4.06471">
        <ele>26.6</ele>
        <time>2022-11-12T10:25:51Z</time>
      </trkpt>
      <trkpt lat="47.88467" lon="-4.0646">
        <ele>26.4</ele>
        <time>2022-11-12T10:25:52Z</time>
      </trkpt>
      <trkpt lat="47.88468" lon="-4.0645">
        <ele>26.3</ele>
        <time>2022-11-12T10:25:53Z</time>
      </trkpt>
      <trkpt lat="47.88468" lon="-4.0644">
        <ele>26.1</ele>
        <time>2022-11-12T10:25:54Z</time>
      </trkpt>
      <trkpt lat="47.88468" lon="-4.0643">
        <ele>26</ele>
        <time>2022-11-12T10:25:55Z</time>
      </trkpt>
      <trkpt lat="47.88469" lon="-4.06419">
        <ele>25.8</ele>
        <time>2022-11-12T10:25:56Z</time>
      </trkpt>
      <trkpt lat="47.8847" lon="-4.06408">
        <ele>25.7</ele>
        <time>2022-11-12T10:25:57Z</time>
      </trkpt>
      <trkpt lat="47.88472" lon="-4.06398">
        <ele>25.5</ele>
        <time>2022-11-12T10:25:58Z</time>
      </trkpt>
      <trkpt lat="47.88474" lon="-4.06387">
        <ele>25.4</ele>
        <time>2022-11-12T10:25:59Z</time>
      </trkpt>
      <trkpt lat="47.88477" lon="-4.06377">
        <ele>25.2</ele>
        <time>2022-11-12T10:26:00Z</time>
      </trkpt>
      <trkpt lat="47.88481" lon="-4.06367">
        <ele>25</ele>
        <time>2022-11-12T10:26:01Z</time>
      </trkpt>
      <trkpt lat="47.88484" lon="-4.06357">
        <ele>24.7</ele>
        <time>2022-11-12T10:26:02Z</time>
      </trkpt>
      <trkpt lat="47.88488" lon="-4.06347">
        <ele>24.5</ele>
        <time>2022-11-12T10:26:03Z</time>
      </trkpt>
      <trkpt lat="47.88493" lon="-4.06337">
        <ele>24.3</ele>
        <time>2022-11-12T10:26:04Z</time>
      </trkpt>
      <trkpt lat="47.88497" lon="-4.06327">
        <ele>24.1</ele>
        <time>2022-11-12T10:26:05Z</time>
      </trkpt>
      <trkpt lat="47.88501" lon="-4.06318">
        <ele>24</ele>
        <time>2022-11-12T10:26:06Z</time>
      </trkpt>
      <trkpt lat="47.88506" lon="-4.06308">
        <ele>23.8</ele>
        <time>2022-11-12T10:26:07Z</time>
      </trkpt>
      <trkpt lat="47.8851" lon="-4.06298">
        <ele>23.6</ele>
        <time>2022-11-12T10:26:08Z</time>
      </trkpt>
      <trkpt lat="47.88515" lon="-4.06288">
        <ele>23.5</ele>
        <time>2022-11-12T10:26:09Z</time>
      </trkpt>
      <trkpt lat="47.88519" lon="-4.06277">
        <ele>23.3</ele>
        <time>2022-11-12T10:26:10Z</time>
      </trkpt>
      <trkpt lat="47.88523" lon="-4.06267">
        <ele>23.2</ele>
        <time>2022-11-12T10:26:11Z</time>
      </trkpt>
      <trkpt lat="47.88527" lon="-4.06257">
        <ele>23.1</ele>
        <time>2022-11-12T10:26:12Z</time>
      </trkpt>
      <trkpt lat="47.88532" lon="-4.06247">
        <ele>23</ele>
        <time>2022-11-12T10:26:13Z</time>
      </trkpt>
      <trkpt lat="47.88536" lon="-4.06237">
        <ele>22.9</ele>
        <time>2022-11-12T10:26:14Z</time>
      </trkpt>
      <trkpt lat="47.8854" lon="-4.06228">
        <ele>22.7</ele>
        <time>2022-11-12T10:26:15Z</time>
      </trkpt>
      <trkpt lat="47.88544" lon="-4.06218">
        <ele>22.6</ele>
        <time>2022-11-12T10:26:16Z</time>
      </trkpt>
      <trkpt lat="47.88548" lon="-4.06208">
        <ele>22.5</ele>
        <time>2022-11-12T10:26:17Z</time>
      </trkpt>
      <trkpt lat="47.88552" lon="-4.06198">
        <ele>22.3</ele>
        <time>2022-11-12T10:26:18Z</time>
      </trkpt>
      <trkpt lat="47.88556" lon="-4.06187">
        <ele>22.1</ele>
        <time>2022-11-12T10:26:19Z</time>
      </trkpt>
      <trkpt lat="47.88559" lon="-4.06177">
        <ele>21.9</ele>
        <time>2022-11-12T10:26:20Z</time>
      </trkpt>
      <trkpt lat="47.88562" lon="-4.06166">
        <ele>21.6</ele>
        <time>2022-11-12T10:26:21Z</time>
      </trkpt>
      <trkpt lat="47.88565" lon="-4.06155">
        <ele>21.4</ele>
        <time>2022-11-12T10:26:22Z</time>
      </trkpt>
      <trkpt lat="47.88569" lon="-4.06144">
        <ele>21.2</ele>
        <time>2022-11-12T10:26:23Z</time>
      </trkpt>
      <trkpt lat="47.88572" lon="-4.06133">
        <ele>21</ele>
        <time>2022-11-12T10:26:24Z</time>
      </trkpt>
      <trkpt lat="47.88575" lon="-4.06122">
        <ele>20.8</ele>
        <time>2022-11-12T10:26:25Z</time>
      </trkpt>
      <trkpt lat="47.88578" lon="-4.0611">
        <ele>20.7</ele>
        <time>2022-11-12T10:26:26Z</time>
      </trkpt>
      <trkpt lat="47.8858" lon="-4.06098">
        <ele>20.7</ele>
        <time>2022-11-12T10:26:27Z</time>
      </trkpt>
      <trkpt lat="47.88583" lon="-4.06086">
        <ele>20.8</ele>
        <time>2022-11-12T10:26:28Z</time>
      </trkpt>
      <trkpt lat="47.88586" lon="-4.06075">
        <ele>21</ele>
        <time>2022-11-12T10:26:29Z</time>
      </trkpt>
      <trkpt lat="47.88589" lon="-4.06064">
        <ele>21.3</ele>
        <time>2022-11-12T10:26:30Z</time>
      </trkpt>
      <trkpt lat="47.88591" lon="-4.06054">
        <ele>21.5</ele>
        <time>2022-11-12T10:26:31Z</time>
      </trkpt>
      <trkpt lat="47.88594" lon="-4.06044">
        <ele>21.8</ele>
        <time>2022-11-12T10:26:32Z</time>
      </trkpt>
      <trkpt lat="47.88596" lon="-4.06035">
        <ele>22.1</ele>
        <time>2022-11-12T10:26:33Z</time>
      </trkpt>
      <trkpt lat="47.88599" lon="-4.06026">
        <ele>22.5</ele>
        <time>2022-11-12T10:26:34Z</time>
      </trkpt>
      <trkpt lat="47.88601" lon="-4.06018">
        <ele>22.9</ele>
        <time>2022-11-12T10:26:35Z</time>
      </trkpt>
      <trkpt lat="47.88604" lon="-4.06009">
        <ele>23.2</ele>
        <time>2022-11-12T10:26:36Z</time>
      </trkpt>
      <trkpt lat="47.88606" lon="-4.06">
        <ele>23.6</ele>
        <time>2022-11-12T10:26:37Z</time>
      </trkpt>
      <trkpt lat="47.88608" lon="-4.05992">
        <ele>23.9</ele>
        <time>2022-11-12T10:26:38Z</time>
      </trkpt>
      <trkpt lat="47.8861" lon="-4.05985">
        <ele>24.2</ele>
        <time>2022-11-12T10:26:39Z</time>
      </trkpt>
      <trkpt lat="47.88613" lon="-4.05978">
        <ele>24.5</ele>
        <time>2022-11-12T10:26:40Z</time>
      </trkpt>
      <trkpt lat="47.88615" lon="-4.05969">
        <ele>24.8</ele>
        <time>2022-11-12T10:26:41Z</time>
      </trkpt>
      <trkpt lat="47.88617" lon="-4.05962">
        <ele>25.1</ele>
        <time>2022-11-12T10:26:42Z</time>
      </trkpt>
      <trkpt lat="47.88619" lon="-4.05955">
        <ele>25.4</ele>
        <time>2022-11-12T10:26:43Z</time>
      </trkpt>
      <trkpt lat="47.88622" lon="-4.05948">
        <ele>25.7</ele>
        <time>2022-11-12T10:26:44Z</time>
      </trkpt>
      <trkpt lat="47.88624" lon="-4.05941">
        <ele>26</ele>
        <time>2022-11-12T10:26:45Z</time>
      </trkpt>
      <trkpt lat="47.88627" lon="-4.05934">
        <ele>26.3</ele>
        <time>2022-11-12T10:26:46Z</time>
      </trkpt>
      <trkpt lat="47.8863" lon="-4.05927">
        <ele>26.5</ele>
        <time>2022-11-12T10:26:47Z</time>
      </trkpt>
      <trkpt lat="47.88632" lon="-4.05921">
        <ele>26.8</ele>
        <time>2022-11-12T10:26:48Z</time>
      </trkpt>
      <trkpt lat="47.88635" lon="-4.05914">
        <ele>27</ele>
        <time>2022-11-12T10:26:49Z</time>
      </trkpt>
      <trkpt lat="47.88637" lon="-4.05907">
        <ele>27.2</ele>
        <time>2022-11-12T10:26:50Z</time>
      </trkpt>
      <trkpt lat="47.8864" lon="-4.059">
        <ele>27.4</ele>
        <time>2022-11-12T10:26:51Z</time>
      </trkpt>
      <trkpt lat="47.88643" lon="-4.05893">
        <ele>27.6</ele>
        <time>2022-11-12T10:26:52Z</time>
      </trkpt>
      <trkpt lat="47.88646" lon="-4.05886">
        <ele>27.8</ele>
        <time>2022-11-12T10:26:53Z</time>
      </trkpt>
      <trkpt lat="47.88649" lon="-4.0588">
        <ele>27.9</ele>
        <time>2022-11-12T10:26:54Z</time>
      </trkpt>
      <trkpt lat="47.88652" lon="-4.05874">
        <ele>28.1</ele>
        <time>2022-11-12T10:26:55Z</time>
      </trkpt>
      <trkpt lat="47.88655" lon="-4.05868">
        <ele>28.2</ele>
        <time>2022-11-12T10:26:56Z</time>
      </trkpt>
      <trkpt lat="47.88658" lon="-4.05861">
        <ele>28.4</ele>
        <time>2022-11-12T10:26:57Z</time>
      </trkpt>
      <trkpt lat="47.88661" lon="-4.05855">
        <ele>28.6</ele>
        <time>2022-11-12T10:26:58Z</time>
      </trkpt>
      <trkpt lat="47.88664" lon="-4.05848">
        <ele>28.7</ele>
        <time>2022-11-12T10:26:59Z</time>
      </trkpt>
      <trkpt lat="47.88666" lon="-4.05841">
        <ele>28.9</ele>
        <time>2022-11-12T10:27:00Z</time>
      </trkpt>
      <trkpt lat="47.88668" lon="-4.05834">
        <ele>29</ele>
        <time>2022-11-12T10:27:01Z</time>
      </trkpt>
      <trkpt lat="47.88671" lon="-4.05827">
        <ele>29.2</ele>
        <time>2022-11-12T10:27:02Z</time>
      </trkpt>
      <trkpt lat="47.88673" lon="-4.0582">
        <ele>29.3</ele>
        <time>2022-11-12T10:27:03Z</time>
      </trkpt>
      <trkpt lat="47.88675" lon="-4.05813">
        <ele>29.5</ele>
        <time>2022-11-12T10:27:04Z</time>
      </trkpt>
      <trkpt lat="47.88677" lon="-4.05807">
        <ele>29.6</ele>
        <time>2022-11-12T10:27:05Z</time>
      </trkpt>
      <trkpt lat="47.88679" lon="-4.058">
        <ele>29.7</ele>
        <time>2022-11-12T10:27:06Z</time>
      </trkpt>
      <trkpt lat="47.8868" lon="-4.05793">
        <ele>29.8</ele>
        <time>2022-11-12T10:27:07Z</time>
      </trkpt>
      <trkpt lat="47.88679" lon="-4.05787">
        <ele>29.9</ele>
        <time>2022-11-12T10:27:08Z</time>
      </trkpt>
      <trkpt lat="47.88679" lon="-4.05781">
        <ele>29.9</ele>
        <time>2022-11-12T10:27:09Z</time>
      </trkpt>
      <trkpt lat="47.88677" lon="-4.05777">
        <ele>30</ele>
        <time>2022-11-12T10:27:10Z</time>
      </trkpt>
      <trkpt lat="47.88677" lon="-4.05772">
        <ele>30</ele>
        <time>2022-11-12T10:27:11Z</time>
      </trkpt>
      <trkpt lat="47.88676" lon="-4.05765">
        <ele>30.1</ele>
        <time>2022-11-12T10:27:12Z</time>
      </trkpt>
      <trkpt lat="47.88675" lon="-4.05759">
        <ele>30.2</ele>
        <time>2022-11-12T10:27:13Z</time>
      </trkpt>
      <trkpt lat="47.88674" lon="-4.05752">
        <ele>30.3</ele>
        <time>2022-11-12T10:27:14Z</time>
      </trkpt>
      <trkpt lat="47.88674" lon="-4.05747">
        <ele>30.4</ele>
        <time>2022-11-12T10:27:15Z</time>
      </trkpt>
      <trkpt lat="47.88674" lon="-4.05738">
        <ele>30.5</ele>
        <time>2022-11-12T10:27:16Z</time>
      </trkpt>
      <trkpt lat="47.88673" lon="-4.05729">
        <ele>30.6</ele>
        <time>2022-11-12T10:27:17Z</time>
      </trkpt>
      <trkpt lat="47.88673" lon="-4.05721">
        <ele>30.7</ele>
        <time>2022-11-12T10:27:18Z</time>
      </trkpt>
      <trkpt lat="47.88673" lon="-4.05713">
        <ele>30.8</ele>
        <time>2022-11-12T10:27:19Z</time>
      </trkpt>
      <trkpt lat="47.88673" lon="-4.05705">
        <ele>30.9</ele>
        <time>2022-11-12T10:27:20Z</time>
      </trkpt>
      <trkpt lat="47.88673" lon="-4.05697">
        <ele>31</ele>
        <time>2022-11-12T10:27:21Z</time>
      </trkpt>
      <trkpt lat="47.88673" lon="-4.05689">
        <ele>31.1</ele>
        <time>2022-11-12T10:27:22Z</time>
      </trkpt>
      <trkpt lat="47.88672" lon="-4.0568">
        <ele>31.2</ele>
        <time>2022-11-12T10:27:23Z</time>
      </trkpt>
      <trkpt lat="47.88672" lon="-4.05672">
        <ele>31.3</ele>
        <time>2022-11-12T10:27:24Z</time>
      </trkpt>
      <trkpt lat="47.88672" lon="-4.05664">
        <ele>31.4</ele>
        <time>2022-11-12T10:27:25Z</time>
      </trkpt>
      <trkpt lat="47.88672" lon="-4.05656">
        <ele>31.5</ele>
        <time>2022-11-12T10:27:26Z</time>
      </trkpt>
      <trkpt lat="47.88671" lon="-4.05648">
        <ele>31.6</ele>
        <time>2022-11-12T10:27:27Z</time>
      </trkpt>
      <trkpt lat="47.88671" lon="-4.0564">
        <ele>31.7</ele>
        <time>2022-11-12T10:27:28Z</time>
      </trkpt>
      <trkpt lat="47.88671" lon="-4.05632">
        <ele>31.8</ele>
        <time>2022-11-12T10:27:29Z</time>
      </trkpt>
      <trkpt lat="47.88671" lon="-4.05624">
        <ele>32</ele>
        <time>2022-11-12T10:27:30Z</time>
      </trkpt>
      <trkpt lat="47.88671" lon="-4.05615">
        <ele>32.1</ele>
        <time>2022-11-12T10:27:31Z</time>
      </trkpt>
      <trkpt lat="47.8867" lon="-4.05607">
        <ele>32.2</ele>
        <time>2022-11-12T10:27:32Z</time>
      </trkpt>
      <trkpt lat="47.8867" lon="-4.05599">
        <ele>32.3</ele>
        <time>2022-11-12T10:27:33Z</time>
      </trkpt>
      <trkpt lat="47.88669" lon="-4.0559">
        <ele>32.3</ele>
        <time>2022-11-12T10:27:34Z</time>
      </trkpt>
      <trkpt lat="47.88668" lon="-4.05582">
        <ele>32.4</ele>
        <time>2022-11-12T10:27:35Z</time>
      </trkpt>
      <trkpt lat="47.88668" lon="-4.05573">
        <ele>32.5</ele>
        <time>2022-11-12T10:27:36Z</time>
      </trkpt>
      <trkpt lat="47.88667" lon="-4.05565">
        <ele>32.6</ele>
        <time>2022-11-12T10:27:37Z</time>
      </trkpt>
      <trkpt lat="47.88667" lon="-4.05557">
        <ele>32.7</ele>
        <time>2022-11-12T10:27:38Z</time>
      </trkpt>
      <trkpt lat="47.88667" lon="-4.05549">
        <ele>32.7</ele>
        <time>2022-11-12T10:27:39Z</time>
      </trkpt>
      <trkpt lat="47.88667" lon="-4.0554">
        <ele>32.8</ele>
        <time>2022-11-12T10:27:40Z</time>
      </trkpt>
      <trkpt lat="47.88667" lon="-4.05532">
        <ele>32.9</ele>
        <time>2022-11-12T10:27:41Z</time>
      </trkpt>
      <trkpt lat="47.88667" lon="-4.05523">
        <ele>32.9</ele>
        <time>2022-11-12T10:27:42Z</time>
      </trkpt>
      <trkpt lat="47.88668" lon="-4.05515">
        <ele>33</ele>
        <time>2022-11-12T10:27:43Z</time>
      </trkpt>
      <trkpt lat="47.88668" lon="-4.05506">
        <ele>33.1</ele>
        <time>2022-11-12T10:27:44Z</time>
      </trkpt>
      <trkpt lat="47.88668" lon="-4.05497">
        <ele>33.1</ele>
        <time>2022-11-12T10:27:45Z</time>
      </trkpt>
      <trkpt lat="47.88668" lon="-4.05488">
        <ele>33.2</ele>
        <time>2022-11-12T10:27:46Z</time>
      </trkpt>
      <trkpt lat="47.88669" lon="-4.05479">
        <ele>33.3</ele>
        <time>2022-11-12T10:27:47Z</time>
      </trkpt>
      <trkpt lat="47.88669" lon="-4.05471">
        <ele>33.3</ele>
        <time>2022-11-12T10:27:48Z</time>
      </trkpt>
      <trkpt lat="47.88669" lon="-4.05462">
        <ele>33.4</ele>
        <time>2022-11-12T10:27:49Z</time>
      </trkpt>
      <trkpt lat="47.8867" lon="-4.05453">
        <ele>33.4</ele>
        <time>2022-11-12T10:27:50Z</time>
      </trkpt>
      <trkpt lat="47.88671" lon="-4.05444">
        <ele>33.5</ele>
        <time>2022-11-12T10:27:51Z</time>
      </trkpt>
      <trkpt lat="47.88671" lon="-4.05435">
        <ele>33.6</ele>
        <time>2022-11-12T10:27:52Z</time>
      </trkpt>
      <trkpt lat="47.88672" lon="-4.05426">
        <ele>33.7</ele>
        <time>2022-11-12T10:27:53Z</time>
      </trkpt>
      <trkpt lat="47.88672" lon="-4.05417">
        <ele>33.8</ele>
        <time>2022-11-12T10:27:54Z</time>
      </trkpt>
      <trkpt lat="47.88673" lon="-4.05408">
        <ele>33.9</ele>
        <time>2022-11-12T10:27:55Z</time>
      </trkpt>
      <trkpt lat="47.88674" lon="-4.05399">
        <ele>34</ele>
        <time>2022-11-12T10:27:56Z</time>
      </trkpt>
      <trkpt lat="47.88674" lon="-4.0539">
        <ele>34.1</ele>
        <time>2022-11-12T10:27:57Z</time>
      </trkpt>
      <trkpt lat="47.88675" lon="-4.05381">
        <ele>34.2</ele>
        <time>2022-11-12T10:27:58Z</time>
      </trkpt>
      <trkpt lat="47.88676" lon="-4.05372">
        <ele>34.3</ele>
        <time>2022-11-12T10:27:59Z</time>
      </trkpt>
      <trkpt lat="47.88677" lon="-4.05364">
        <ele>34.4</ele>
        <time>2022-11-12T10:28:00Z</time>
      </trkpt>
      <trkpt lat="47.88678" lon="-4.05355">
        <ele>34.5</ele>
        <time>2022-11-12T10:28:01Z</time>
      </trkpt>
      <trkpt lat="47.88678" lon="-4.05347">
        <ele>34.7</ele>
        <time>2022-11-12T10:28:02Z</time>
      </trkpt>
      <trkpt lat="47.88679" lon="-4.05338">
        <ele>34.8</ele>
        <time>2022-11-12T10:28:03Z</time>
      </trkpt>
      <trkpt lat="47.8868" lon="-4.0533">
        <ele>34.9</ele>
        <time>2022-11-12T10:28:04Z</time>
      </trkpt>
      <trkpt lat="47.88681" lon="-4.05321">
        <ele>35</ele>
        <time>2022-11-12T10:28:05Z</time>
      </trkpt>
      <trkpt lat="47.8868" lon="-4.05312">
        <ele>35.1</ele>
        <time>2022-11-12T10:28:06Z</time>
      </trkpt>
      <trkpt lat="47.8868" lon="-4.05303">
        <ele>35.3</ele>
        <time>2022-11-12T10:28:07Z</time>
      </trkpt>
      <trkpt lat="47.88679" lon="-4.05295">
        <ele>35.4</ele>
        <time>2022-11-12T10:28:08Z</time>
      </trkpt>
      <trkpt lat="47.88677" lon="-4.05286">
        <ele>35.5</ele>
        <time>2022-11-12T10:28:09Z</time>
      </trkpt>
      <trkpt lat="47.88677" lon="-4.05278">
        <ele>35.6</ele>
        <time>2022-11-12T10:28:10Z</time>
      </trkpt>
      <trkpt lat="47.88676" lon="-4.0527">
        <ele>35.7</ele>
        <time>2022-11-12T10:28:11Z</time>
      </trkpt>
      <trkpt lat="47.88675" lon="-4.05262">
        <ele>35.9</ele>
        <time>2022-11-12T10:28:12Z</time>
      </trkpt>
      <trkpt lat="47.88674" lon="-4.05254">
        <ele>35.9</ele>
        <time>2022-11-12T10:28:13Z</time>
      </trkpt>
      <trkpt lat="47.88673" lon="-4.05245">
        <ele>36</ele>
        <time>2022-11-12T10:28:14Z</time>
      </trkpt>
      <trkpt lat="47.88673" lon="-4.05237">
        <ele>36.1</ele>
        <time>2022-11-12T10:28:15Z</time>
      </trkpt>
      <trkpt lat="47.88672" lon="-4.05229">
        <ele>36.1</ele>
        <time>2022-11-12T10:28:16Z</time>
      </trkpt>
      <trkpt lat="47.8867" lon="-4.05222">
        <ele>36.1</ele>
        <time>2022-11-12T10:28:17Z</time>
      </trkpt>
      <trkpt lat="47.88669" lon="-4.05213">
        <ele>36.2</ele>
        <time>2022-11-12T10:28:18Z</time>
      </trkpt>
      <trkpt lat="47.88669" lon="-4.05204">
        <ele>36.2</ele>
        <time>2022-11-12T10:28:19Z</time>
      </trkpt>
      <trkpt lat="47.88667" lon="-4.05196">
        <ele>36.2</ele>
        <time>2022-11-12T10:28:20Z</time>
      </trkpt>
      <trkpt lat="47.88665" lon="-4.05188">
        <ele>36.2</ele>
        <time>2022-11-12T10:28:21Z</time>
      </trkpt>
      <trkpt lat="47.88662" lon="-4.05179">
        <ele>36.2</ele>
        <time>2022-11-12T10:28:22Z</time>
      </trkpt>
      <trkpt lat="47.88659" lon="-4.05171">
        <ele>36.1</ele>
        <time>2022-11-12T10:28:23Z</time>
      </trkpt>
      <trkpt lat="47.88656" lon="-4.05164">
        <ele>36</ele>
        <time>2022-11-12T10:28:24Z</time>
      </trkpt>
      <trkpt lat="47.88652" lon="-4.05156">
        <ele>36</ele>
        <time>2022-11-12T10:28:25Z</time>
      </trkpt>
      <trkpt lat="47.88647" lon="-4.0515">
        <ele>35.9</ele>
        <time>2022-11-12T10:28:26Z</time>
      </trkpt>
      <trkpt lat="47.88643" lon="-4.05143">
        <ele>35.8</ele>
        <time>2022-11-12T10:28:27Z</time>
      </trkpt>
      <trkpt lat="47.88638" lon="-4.05138">
        <ele>35.8</ele>
        <time>2022-11-12T10:28:28Z</time>
      </trkpt>
      <trkpt lat="47.88632" lon="-4.05132">
        <ele>35.7</ele>
        <time>2022-11-12T10:28:29Z</time>
      </trkpt>
      <trkpt lat="47.88627" lon="-4.05127">
        <ele>35.7</ele>
        <time>2022-11-12T10:28:30Z</time>
      </trkpt>
      <trkpt lat="47.88622" lon="-4.05121">
        <ele>35.7</ele>
        <time>2022-11-12T10:28:31Z</time>
      </trkpt>
      <trkpt lat="47.88617" lon="-4.05116">
        <ele>35.6</ele>
        <time>2022-11-12T10:28:32Z</time>
      </trkpt>
      <trkpt lat="47.88611" lon="-4.05111">
        <ele>35.6</ele>
        <time>2022-11-12T10:28:33Z</time>
      </trkpt>
      <trkpt lat="47.88606" lon="-4.05106">
        <ele>35.5</ele>
        <time>2022-11-12T10:28:34Z</time>
      </trkpt>
      <trkpt lat="47.886" lon="-4.05101">
        <ele>35.4</ele>
        <time>2022-11-12T10:28:35Z</time>
      </trkpt>
      <trkpt lat="47.88595" lon="-4.05096">
        <ele>35.3</ele>
        <time>2022-11-12T10:28:36Z</time>
      </trkpt>
      <trkpt lat="47.88589" lon="-4.05092">
        <ele>35.2</ele>
        <time>2022-11-12T10:28:37Z</time>
      </trkpt>
      <trkpt lat="47.88583" lon="-4.05087">
        <ele>35.1</ele>
        <time>2022-11-12T10:28:38Z</time>
      </trkpt>
      <trkpt lat="47.88577" lon="-4.05083">
        <ele>35</ele>
        <time>2022-11-12T10:28:39Z</time>
      </trkpt>
      <trkpt lat="47.8857" lon="-4.0508">
        <ele>34.8</ele>
        <time>2022-11-12T10:28:40Z</time>
      </trkpt>
      <trkpt lat="47.88564" lon="-4.05077">
        <ele>34.7</ele>
        <time>2022-11-12T10:28:41Z</time>
      </trkpt>
      <trkpt lat="47.88558" lon="-4.05074">
        <ele>34.6</ele>
        <time>2022-11-12T10:28:42Z</time>
      </trkpt>
      <trkpt lat="47.88552" lon="-4.05071">
        <ele>34.5</ele>
        <time>2022-11-12T10:28:43Z</time>
      </trkpt>
      <trkpt lat="47.88545" lon="-4.05068">
        <ele>34.3</ele>
        <time>2022-11-12T10:28:44Z</time>
      </trkpt>
      <trkpt lat="47.88539" lon="-4.05065">
        <ele>34.2</ele>
        <time>2022-11-12T10:28:45Z</time>
      </trkpt>
      <trkpt lat="47.88532" lon="-4.05063">
        <ele>34.1</ele>
        <time>2022-11-12T10:28:46Z</time>
      </trkpt>
      <trkpt lat="47.88526" lon="-4.0506">
        <ele>34</ele>
        <time>2022-11-12T10:28:47Z</time>
      </trkpt>
      <trkpt lat="47.88519" lon="-4.05057">
        <ele>33.9</ele>
        <time>2022-11-12T10:28:48Z</time>
      </trkpt>
      <trkpt lat="47.88513" lon="-4.05054">
        <ele>33.8</ele>
        <time>2022-11-12T10:28:49Z</time>
      </trkpt>
      <trkpt lat="47.88506" lon="-4.05051">
        <ele>33.7</ele>
        <time>2022-11-12T10:28:50Z</time>
      </trkpt>
      <trkpt lat="47.885" lon="-4.05048">
        <ele>33.6</ele>
        <time>2022-11-12T10:28:51Z</time>
      </trkpt>
      <trkpt lat="47.88494" lon="-4.05045">
        <ele>33.6</ele>
        <time>2022-11-12T10:28:52Z</time>
      </trkpt>
      <trkpt lat="47.88487" lon="-4.05042">
        <ele>33.4</ele>
        <time>2022-11-12T10:28:53Z</time>
      </trkpt>
      <trkpt lat="47.8848" lon="-4.05039">
        <ele>33.3</ele>
        <time>2022-11-12T10:28:54Z</time>
      </trkpt>
      <trkpt lat="47.88473" lon="-4.05037">
        <ele>33.2</ele>
        <time>2022-11-12T10:28:55Z</time>
      </trkpt>
      <trkpt lat="47.88467" lon="-4.05035">
        <ele>33.1</ele>
        <time>2022-11-12T10:28:56Z</time>
      </trkpt>
      <trkpt lat="47.8846" lon="-4.05033">
        <ele>32.8</ele>
        <time>2022-11-12T10:28:57Z</time>
      </trkpt>
      <trkpt lat="47.88453" lon="-4.05029">
        <ele>32.5</ele>
        <time>2022-11-12T10:28:58Z</time>
      </trkpt>
      <trkpt lat="47.88446" lon="-4.05026">
        <ele>32.1</ele>
        <time>2022-11-12T10:28:59Z</time>
      </trkpt>
      <trkpt lat="47.88439" lon="-4.05023">
        <ele>31.6</ele>
        <time>2022-11-12T10:29:00Z</time>
      </trkpt>
      <trkpt lat="47.88431" lon="-4.05019">
        <ele>31.1</ele>
        <time>2022-11-12T10:29:01Z</time>
      </trkpt>
      <trkpt lat="47.88423" lon="-4.05016">
        <ele>30.6</ele>
        <time>2022-11-12T10:29:02Z</time>
      </trkpt>
      <trkpt lat="47.88415" lon="-4.05012">
        <ele>30</ele>
        <time>2022-11-12T10:29:03Z</time>
      </trkpt>
      <trkpt lat="47.88406" lon="-4.05008">
        <ele>29.4</ele>
        <time>2022-11-12T10:29:04Z</time>
      </trkpt>
      <trkpt lat="47.88398" lon="-4.05004">
        <ele>28.8</ele>
        <time>2022-11-12T10:29:05Z</time>
      </trkpt>
      <trkpt lat="47.8839" lon="-4.04999">
        <ele>28.2</ele>
        <time>2022-11-12T10:29:06Z</time>
      </trkpt>
      <trkpt lat="47.88381" lon="-4.04994">
        <ele>27.7</ele>
        <time>2022-11-12T10:29:07Z</time>
      </trkpt>
      <trkpt lat="47.88373" lon="-4.04987">
        <ele>27.2</ele>
        <time>2022-11-12T10:29:08Z</time>
      </trkpt>
      <trkpt lat="47.88365" lon="-4.0498">
        <ele>26.9</ele>
        <time>2022-11-12T10:29:09Z</time>
      </trkpt>
      <trkpt lat="47.88358" lon="-4.04972">
        <ele>26.6</ele>
        <time>2022-11-12T10:29:10Z</time>
      </trkpt>
      <trkpt lat="47.8835" lon="-4.04963">
        <ele>26.3</ele>
        <time>2022-11-12T10:29:11Z</time>
      </trkpt>
      <trkpt lat="47.88344" lon="-4.04954">
        <ele>26.2</ele>
        <time>2022-11-12T10:29:12Z</time>
      </trkpt>
      <trkpt lat="47.88337" lon="-4.04946">
        <ele>26.2</ele>
        <time>2022-11-12T10:29:13Z</time>
      </trkpt>
      <trkpt lat="47.88331" lon="-4.04937">
        <ele>26.1</ele>
        <time>2022-11-12T10:29:14Z</time>
      </trkpt>
      <trkpt lat="47.88325" lon="-4.04928">
        <ele>26.2</ele>
        <time>2022-11-12T10:29:15Z</time>
      </trkpt>
      <trkpt lat="47.88319" lon="-4.0492">
        <ele>26.3</ele>
        <time>2022-11-12T10:29:16Z</time>
      </trkpt>
      <trkpt lat="47.88314" lon="-4.04912">
        <ele>26.4</ele>
        <time>2022-11-12T10:29:17Z</time>
      </trkpt>
      <trkpt lat="47.88309" lon="-4.04904">
        <ele>26.6</ele>
        <time>2022-11-12T10:29:18Z</time>
      </trkpt>
      <trkpt lat="47.88305" lon="-4.04897">
        <ele>26.8</ele>
        <time>2022-11-12T10:29:19Z</time>
      </trkpt>
      <trkpt lat="47.88301" lon="-4.0489">
        <ele>27</ele>
        <time>2022-11-12T10:29:20Z</time>
      </trkpt>
      <trkpt lat="47.88297" lon="-4.04883">
        <ele>27.3</ele>
        <time>2022-11-12T10:29:21Z</time>
      </trkpt>
      <trkpt lat="47.88293" lon="-4.04876">
        <ele>27.5</ele>
        <time>2022-11-12T10:29:22Z</time>
      </trkpt>
      <trkpt lat="47.88288" lon="-4.0487">
        <ele>27.8</ele>
        <time>2022-11-12T10:29:23Z</time>
      </trkpt>
      <trkpt lat="47.88284" lon="-4.04864">
        <ele>28</ele>
        <time>2022-11-12T10:29:24Z</time>
      </trkpt>
      <trkpt lat="47.88279" lon="-4.04858">
        <ele>28.3</ele>
        <time>2022-11-12T10:29:25Z</time>
      </trkpt>
      <trkpt lat="47.88275" lon="-4.04853">
        <ele>28.5</ele>
        <time>2022-11-12T10:29:26Z</time>
      </trkpt>
      <trkpt lat="47.8827" lon="-4.04849">
        <ele>28.7</ele>
        <time>2022-11-12T10:29:27Z</time>
      </trkpt>
      <trkpt lat="47.88265" lon="-4.04845">
        <ele>28.9</ele>
        <time>2022-11-12T10:29:28Z</time>
      </trkpt>
      <trkpt lat="47.88261" lon="-4.0484">
        <ele>29.1</ele>
        <time>2022-11-12T10:29:29Z</time>
      </trkpt>
      <trkpt lat="47.88256" lon="-4.04836">
        <ele>29.4</ele>
        <time>2022-11-12T10:29:30Z</time>
      </trkpt>
      <trkpt lat="47.88251" lon="-4.04832">
        <ele>29.6</ele>
        <time>2022-11-12T10:29:31Z</time>
      </trkpt>
      <trkpt lat="47.88245" lon="-4.04828">
        <ele>29.8</ele>
        <time>2022-11-12T10:29:32Z</time>
      </trkpt>
      <trkpt lat="47.8824" lon="-4.04826">
        <ele>30</ele>
        <time>2022-11-12T10:29:33Z</time>
      </trkpt>
      <trkpt lat="47.88235" lon="-4.04822">
        <ele>30.2</ele>
        <time>2022-11-12T10:29:34Z</time>
      </trkpt>
      <trkpt lat="47.8823" lon="-4.04819">
        <ele>30.4</ele>
        <time>2022-11-12T10:29:35Z</time>
      </trkpt>
      <trkpt lat="47.88225" lon="-4.04816">
        <ele>30.5</ele>
        <time>2022-11-12T10:29:36Z</time>
      </trkpt>
      <trkpt lat="47.8822" lon="-4.04813">
        <ele>30.7</ele>
        <time>2022-11-12T10:29:37Z</time>
      </trkpt>
      <trkpt lat="47.88214" lon="-4.04811">
        <ele>30.8</ele>
        <time>2022-11-12T10:29:38Z</time>
      </trkpt>
      <trkpt lat="47.88209" lon="-4.04808">
        <ele>30.9</ele>
        <time>2022-11-12T10:29:39Z</time>
      </trkpt>
      <trkpt lat="47.88204" lon="-4.04805">
        <ele>31</ele>
        <time>2022-11-12T10:29:40Z</time>
      </trkpt>
      <trkpt lat="47.88199" lon="-4.04803">
        <ele>31.1</ele>
        <time>2022-11-12T10:29:41Z</time>
      </trkpt>
      <trkpt lat="47.88193" lon="-4.048">
        <ele>31.3</ele>
        <time>2022-11-12T10:29:42Z</time>
      </trkpt>
      <trkpt lat="47.88188" lon="-4.04797">
        <ele>31.4</ele>
        <time>2022-11-12T10:29:43Z</time>
      </trkpt>
      <trkpt lat="47.88183" lon="-4.04794">
        <ele>31.5</ele>
        <time>2022-11-12T10:29:44Z</time>
      </trkpt>
      <trkpt lat="47.88178" lon="-4.04792">
        <ele>31.6</ele>
        <time>2022-11-12T10:29:45Z</time>
      </trkpt>
      <trkpt lat="47.88173" lon="-4.04789">
        <ele>31.7</ele>
        <time>2022-11-12T10:29:46Z</time>
      </trkpt>
      <trkpt lat="47.88167" lon="-4.04786">
        <ele>31.8</ele>
        <time>2022-11-12T10:29:47Z</time>
      </trkpt>
      <trkpt lat="47.88162" lon="-4.04783">
        <ele>31.9</ele>
        <time>2022-11-12T10:29:48Z</time>
      </trkpt>
      <trkpt lat="47.88157" lon="-4.0478">
        <ele>32</ele>
        <time>2022-11-12T10:29:49Z</time>
      </trkpt>
      <trkpt lat="47.88152" lon="-4.04777">
        <ele>32</ele>
        <time>2022-11-12T10:29:50Z</time>
      </trkpt>
      <trkpt lat="47.88147" lon="-4.04774">
        <ele>32.1</ele>
        <time>2022-11-12T10:29:51Z</time>
      </trkpt>
      <trkpt lat="47.88142" lon="-4.0477">
        <ele>32.1</ele>
        <time>2022-11-12T10:29:52Z</time>
      </trkpt>
      <trkpt lat="47.88136" lon="-4.04767">
        <ele>32.1</ele>
        <time>2022-11-12T10:29:53Z</time>
      </trkpt>
      <trkpt lat="47.88131" lon="-4.04763">
        <ele>32.2</ele>
        <time>2022-11-12T10:29:54Z</time>
      </trkpt>
      <trkpt lat="47.88126" lon="-4.04759">
        <ele>32.2</ele>
        <time>2022-11-12T10:29:55Z</time>
      </trkpt>
      <trkpt lat="47.88121" lon="-4.04755">
        <ele>32.3</ele>
        <time>2022-11-12T10:29:56Z</time>
      </trkpt>
      <trkpt lat="47.88115" lon="-4.04752">
        <ele>32.3</ele>
        <time>2022-11-12T10:29:57Z</time>
      </trkpt>
      <trkpt lat="47.8811" lon="-4.04749">
        <ele>32.3</ele>
        <time>2022-11-12T10:29:58Z</time>
      </trkpt>
      <trkpt lat="47.88104" lon="-4.04745">
        <ele>32.2</ele>
        <time>2022-11-12T10:29:59Z</time>
      </trkpt>
      <trkpt lat="47.88099" lon="-4.04741">
        <ele>32.2</ele>
        <time>2022-11-12T10:30:00Z</time>
      </trkpt>
      <trkpt lat="47.88094" lon="-4.04737">
        <ele>32.1</ele>
        <time>2022-11-12T10:30:01Z</time>
      </trkpt>
      <trkpt lat="47.88089" lon="-4.04733">
        <ele>32</ele>
        <time>2022-11-12T10:30:02Z</time>
      </trkpt>
      <trkpt lat="47.88083" lon="-4.04729">
        <ele>31.9</ele>
        <time>2022-11-12T10:30:03Z</time>
      </trkpt>
      <trkpt lat="47.88078" lon="-4.04726">
        <ele>31.8</ele>
        <time>2022-11-12T10:30:04Z</time>
      </trkpt>
      <trkpt lat="47.88072" lon="-4.04723">
        <ele>31.7</ele>
        <time>2022-11-12T10:30:05Z</time>
      </trkpt>
      <trkpt lat="47.88066" lon="-4.0472">
        <ele>31.5</ele>
        <time>2022-11-12T10:30:06Z</time>
      </trkpt>
      <trkpt lat="47.8806" lon="-4.04717">
        <ele>31.4</ele>
        <time>2022-11-12T10:30:07Z</time>
      </trkpt>
      <trkpt lat="47.88055" lon="-4.04714">
        <ele>31.2</ele>
        <time>2022-11-12T10:30:08Z</time>
      </trkpt>
      <trkpt lat="47.88048" lon="-4.0471">
        <ele>31</ele>
        <time>2022-11-12T10:30:09Z</time>
      </trkpt>
      <trkpt lat="47.88042" lon="-4.04707">
        <ele>30.7</ele>
        <time>2022-11-12T10:30:10Z</time>
      </trkpt>
      <trkpt lat="47.88035" lon="-4.04704">
        <ele>30.4</ele>
        <time>2022-11-12T10:30:11Z</time>
      </trkpt>
      <trkpt lat="47.88028" lon="-4.047">
        <ele>30.1</ele>
        <time>2022-11-12T10:30:12Z</time>
      </trkpt>
      <trkpt lat="47.8802" lon="-4.04697">
        <ele>29.7</ele>
        <time>2022-11-12T10:30:13Z</time>
      </trkpt>
      <trkpt lat="47.88013" lon="-4.04694">
        <ele>29.4</ele>
        <time>2022-11-12T10:30:14Z</time>
      </trkpt>
      <trkpt lat="47.88005" lon="-4.04689">
        <ele>29</ele>
        <time>2022-11-12T10:30:15Z</time>
      </trkpt>
      <trkpt lat="47.87997" lon="-4.04686">
        <ele>28.8</ele>
        <time>2022-11-12T10:30:16Z</time>
      </trkpt>
      <trkpt lat="47.8799" lon="-4.04684">
        <ele>28.5</ele>
        <time>2022-11-12T10:30:17Z</time>
      </trkpt>
      <trkpt lat="47.87982" lon="-4.04681">
        <ele>28.3</ele>
        <time>2022-11-12T10:30:18Z</time>
      </trkpt>
      <trkpt lat="47.87975" lon="-4.04677">
        <ele>28.2</ele>
        <time>2022-11-12T10:30:19Z</time>
      </trkpt>
      <trkpt lat="47.87968" lon="-4.04673">
        <ele>28</ele>
        <time>2022-11-12T10:30:20Z</time>
      </trkpt>
      <trkpt lat="47.87961" lon="-4.04669">
        <ele>27.9</ele>
        <time>2022-11-12T10:30:21Z</time>
      </trkpt>
      <trkpt lat="47.87954" lon="-4.04666">
        <ele>27.9</ele>
        <time>2022-11-12T10:30:22Z</time>
      </trkpt>
      <trkpt lat="47.87947" lon="-4.04663">
        <ele>27.8</ele>
        <time>2022-11-12T10:30:23Z</time>
      </trkpt>
      <trkpt lat="47.8794" lon="-4.04661">
        <ele>27.9</ele>
        <time>2022-11-12T10:30:24Z</time>
      </trkpt>
      <trkpt lat="47.87933" lon="-4.04659">
        <ele>27.9</ele>
        <time>2022-11-12T10:30:25Z</time>
      </trkpt>
      <trkpt lat="47.87927" lon="-4.04655">
        <ele>27.9</ele>
        <time>2022-11-12T10:30:26Z</time>
      </trkpt>
      <trkpt lat="47.87921" lon="-4.04653">
        <ele>27.9</ele>
        <time>2022-11-12T10:30:27Z</time>
      </trkpt>
      <trkpt lat="47.87914" lon="-4.04651">
        <ele>28</ele>
        <time>2022-11-12T10:30:28Z</time>
      </trkpt>
      <trkpt lat="47.87908" lon="-4.04649">
        <ele>28.1</ele>
        <time>2022-11-12T10:30:29Z</time>
      </trkpt>
      <trkpt lat="47.87903" lon="-4.04648">
        <ele>28.2</ele>
        <time>2022-11-12T10:30:30Z</time>
      </trkpt>
      <trkpt lat="47.87897" lon="-4.04647">
        <ele>28.3</ele>
        <time>2022-11-12T10:30:31Z</time>
      </trkpt>
      <trkpt lat="47.87892" lon="-4.04646">
        <ele>28.4</ele>
        <time>2022-11-12T10:30:32Z</time>
      </trkpt>
      <trkpt lat="47.87887" lon="-4.04644">
        <ele>28.5</ele>
        <time>2022-11-12T10:30:33Z</time>
      </trkpt>
      <trkpt lat="47.87882" lon="-4.04642">
        <ele>28.6</ele>
        <time>2022-11-12T10:30:34Z</time>
      </trkpt>
      <trkpt lat="47.87879" lon="-4.0464">
        <ele>28.6</ele>
        <time>2022-11-12T10:30:35Z</time>
      </trkpt>
      <trkpt lat="47.87877" lon="-4.04639">
        <ele>28.7</ele>
        <time>2022-11-12T10:30:36Z</time>
      </trkpt>
      <trkpt lat="47.87876" lon="-4.04639">
        <ele>28.7</ele>
        <time>2022-11-12T10:30:37Z</time>
      </trkpt>
      <trkpt lat="47.87874" lon="-4.04638">
        <ele>28.7</ele>
        <time>2022-11-12T10:30:38Z</time>
      </trkpt>
      <trkpt lat="47.87874" lon="-4.04635">
        <ele>28.7</ele>
        <time>2022-11-12T10:30:39Z</time>
      </trkpt>
      <trkpt lat="47.87876" lon="-4.0463">
        <ele>28.8</ele>
        <time>2022-11-12T10:30:40Z</time>
      </trkpt>
      <trkpt lat="47.87878" lon="-4.04627">
        <ele>28.8</ele>
        <time>2022-11-12T10:30:41Z</time>
      </trkpt>
      <trkpt lat="47.87883" lon="-4.04623">
        <ele>28.8</ele>
        <time>2022-11-12T10:30:42Z</time>
      </trkpt>
      <trkpt lat="47.87887" lon="-4.0462">
        <ele>28.9</ele>
        <time>2022-11-12T10:30:43Z</time>
      </trkpt>
      <trkpt lat="47.87891" lon="-4.04617">
        <ele>28.9</ele>
        <time>2022-11-12T10:30:44Z</time>
      </trkpt>
      <trkpt lat="47.87896" lon="-4.04612">
        <ele>29</ele>
        <time>2022-11-12T10:30:45Z</time>
      </trkpt>
      <trkpt lat="47.87901" lon="-4.04608">
        <ele>29.1</ele>
        <time>2022-11-12T10:30:46Z</time>
      </trkpt>
      <trkpt lat="47.87906" lon="-4.04604">
        <ele>29.2</ele>
        <time>2022-11-12T10:30:47Z</time>
      </trkpt>
      <trkpt lat="47.87911" lon="-4.046">
        <ele>29.4</ele>
        <time>2022-11-12T10:30:48Z</time>
      </trkpt>
      <trkpt lat="47.87916" lon="-4.04597">
        <ele>29.5</ele>
        <time>2022-11-12T10:30:49Z</time>
      </trkpt>
      <trkpt lat="47.87921" lon="-4.04593">
        <ele>29.6</ele>
        <time>2022-11-12T10:30:50Z</time>
      </trkpt>
      <trkpt lat="47.87926" lon="-4.04589">
        <ele>29.7</ele>
        <time>2022-11-12T10:30:51Z</time>
      </trkpt>
      <trkpt lat="47.8793" lon="-4.04585">
        <ele>29.8</ele>
        <time>2022-11-12T10:30:52Z</time>
      </trkpt>
      <trkpt lat="47.87935" lon="-4.04581">
        <ele>29.9</ele>
        <time>2022-11-12T10:30:53Z</time>
      </trkpt>
      <trkpt lat="47.87939" lon="-4.04576">
        <ele>30.1</ele>
        <time>2022-11-12T10:30:54Z</time>
      </trkpt>
      <trkpt lat="47.87944" lon="-4.04572">
        <ele>30.2</ele>
        <time>2022-11-12T10:30:55Z</time>
      </trkpt>
      <trkpt lat="47.87948" lon="-4.04568">
        <ele>30.3</ele>
        <time>2022-11-12T10:30:56Z</time>
      </trkpt>
      <trkpt lat="47.87953" lon="-4.04563">
        <ele>30.5</ele>
        <time>2022-11-12T10:30:57Z</time>
      </trkpt>
      <trkpt lat="47.87957" lon="-4.04559">
        <ele>30.6</ele>
        <time>2022-11-12T10:30:58Z</time>
      </trkpt>
      <trkpt lat="47.87962" lon="-4.04554">
        <ele>30.7</ele>
        <time>2022-11-12T10:30:59Z</time>
      </trkpt>
      <trkpt lat="47.87967" lon="-4.04549">
        <ele>30.8</ele>
        <time>2022-11-12T10:31:00Z</time>
      </trkpt>
      <trkpt lat="47.87971" lon="-4.04544">
        <ele>30.9</ele>
        <time>2022-11-12T10:31:01Z</time>
      </trkpt>
      <trkpt lat="47.87975" lon="-4.04539">
        <ele>31</ele>
        <time>2022-11-12T10:31:02Z</time>
      </trkpt>
      <trkpt lat="47.8798" lon="-4.04533">
        <ele>31.1</ele>
        <time>2022-11-12T10:31:03Z</time>
      </trkpt>
      <trkpt lat="47.87984" lon="-4.04527">
        <ele>31.2</ele>
        <time>2022-11-12T10:31:04Z</time>
      </trkpt>
      <trkpt lat="47.87988" lon="-4.04522">
        <ele>31.3</ele>
        <time>2022-11-12T10:31:05Z</time>
      </trkpt>
      <trkpt lat="47.87992" lon="-4.04516">
        <ele>31.4</ele>
        <time>2022-11-12T10:31:06Z</time>
      </trkpt>
      <trkpt lat="47.87996" lon="-4.0451">
        <ele>31.5</ele>
        <time>2022-11-12T10:31:07Z</time>
      </trkpt>
      <trkpt lat="47.88001" lon="-4.04504">
        <ele>31.6</ele>
        <time>2022-11-12T10:31:08Z</time>
      </trkpt>
      <trkpt lat="47.88005" lon="-4.04498">
        <ele>31.7</ele>
        <time>2022-11-12T10:31:09Z</time>
      </trkpt>
      <trkpt lat="47.88008" lon="-4.04492">
        <ele>31.9</ele>
        <time>2022-11-12T10:31:10Z</time>
      </trkpt>
      <trkpt lat="47.88013" lon="-4.04486">
        <ele>32</ele>
        <time>2022-11-12T10:31:11Z</time>
      </trkpt>
      <trkpt lat="47.88016" lon="-4.0448">
        <ele>32.1</ele>
        <time>2022-11-12T10:31:12Z</time>
      </trkpt>
      <trkpt lat="47.8802" lon="-4.04473">
        <ele>32.2</ele>
        <time>2022-11-12T10:31:13Z</time>
      </trkpt>
      <trkpt lat="47.88024" lon="-4.04467">
        <ele>32.4</ele>
        <time>2022-11-12T10:31:14Z</time>
      </trkpt>
      <trkpt lat="47.88027" lon="-4.04461">
        <ele>32.5</ele>
        <time>2022-11-12T10:31:15Z</time>
      </trkpt>
      <trkpt lat="47.88031" lon="-4.04455">
        <ele>32.6</ele>
        <time>2022-11-12T10:31:16Z</time>
      </trkpt>
      <trkpt lat="47.88035" lon="-4.04449">
        <ele>32.8</ele>
        <time>2022-11-12T10:31:17Z</time>
      </trkpt>
      <trkpt lat="47.88038" lon="-4.04443">
        <ele>32.9</ele>
        <time>2022-11-12T10:31:18Z</time>
      </trkpt>
      <trkpt lat="47.88042" lon="-4.04437">
        <ele>33.1</ele>
        <time>2022-11-12T10:31:19Z</time>
      </trkpt>
      <trkpt lat="47.88046" lon="-4.04431">
        <ele>33.2</ele>
        <time>2022-11-12T10:31:20Z</time>
      </trkpt>
      <trkpt lat="47.88049" lon="-4.04425">
        <ele>33.4</ele>
        <time>2022-11-12T10:31:21Z</time>
      </trkpt>
      <trkpt lat="47.88053" lon="-4.04418">
        <ele>33.6</ele>
        <time>2022-11-12T10:31:22Z</time>
      </trkpt>
      <trkpt lat="47.88056" lon="-4.04412">
        <ele>33.7</ele>
        <time>2022-11-12T10:31:23Z</time>
      </trkpt>
      <trkpt lat="47.88059" lon="-4.04405">
        <ele>33.9</ele>
        <time>2022-11-12T10:31:24Z</time>
      </trkpt>
      <trkpt lat="47.88063" lon="-4.04399">
        <ele>34</ele>
        <time>2022-11-12T10:31:25Z</time>
      </trkpt>
      <trkpt lat="47.88066" lon="-4.04392">
        <ele>34.1</ele>
        <time>2022-11-12T10:31:26Z</time>
      </trkpt>
      <trkpt lat="47.88069" lon="-4.04386">
        <ele>34.2</ele>
        <time>2022-11-12T10:31:27Z</time>
      </trkpt>
      <trkpt lat="47.88073" lon="-4.0438">
        <ele>34.4</ele>
        <time>2022-11-12T10:31:28Z</time>
      </trkpt>
      <trkpt lat="47.88076" lon="-4.04374">
        <ele>34.5</ele>
        <time>2022-11-12T10:31:29Z</time>
      </trkpt>
      <trkpt lat="47.88079" lon="-4.04368">
        <ele>34.6</ele>
        <time>2022-11-12T10:31:30Z</time>
      </trkpt>
      <trkpt lat="47.88082" lon="-4.04361">
        <ele>34.7</ele>
        <time>2022-11-12T10:31:31Z</time>
      </trkpt>
      <trkpt lat="47.88086" lon="-4.04355">
        <ele>34.9</ele>
        <time>2022-11-12T10:31:32Z</time>
      </trkpt>
      <trkpt lat="47.88089" lon="-4.04349">
        <ele>35</ele>
        <time>2022-11-12T10:31:33Z</time>
      </trkpt>
      <trkpt lat="47.88092" lon="-4.04342">
        <ele>35.1</ele>
        <time>2022-11-12T10:31:34Z</time>
      </trkpt>
      <trkpt lat="47.88096" lon="-4.04336">
        <ele>35.2</ele>
        <time>2022-11-12T10:31:35Z</time>
      </trkpt>
      <trkpt lat="47.88098" lon="-4.0433">
        <ele>35.3</ele>
        <time>2022-11-12T10:31:36Z</time>
      </trkpt>
      <trkpt lat="47.88102" lon="-4.04324">
        <ele>35.4</ele>
        <time>2022-11-12T10:31:37Z</time>
      </trkpt>
      <trkpt lat="47.88105" lon="-4.04318">
        <ele>35.5</ele>
        <time>2022-11-12T10:31:38Z</time>
      </trkpt>
      <trkpt lat="47.88108" lon="-4.04311">
        <ele>35.6</ele>
        <time>2022-11-12T10:31:39Z</time>
      </trkpt>
      <trkpt lat="47.88111" lon="-4.04304">
        <ele>35.7</ele>
        <time>2022-11-12T10:31:40Z</time>
      </trkpt>
      <trkpt lat="47.88115" lon="-4.04298">
        <ele>35.9</ele>
        <time>2022-11-12T10:31:41Z</time>
      </trkpt>
      <trkpt lat="47.88118" lon="-4.04291">
        <ele>36</ele>
        <time>2022-11-12T10:31:42Z</time>
      </trkpt>
      <trkpt lat="47.88121" lon="-4.04284">
        <ele>36.1</ele>
        <time>2022-11-12T10:31:43Z</time>
      </trkpt>
      <trkpt lat="47.88125" lon="-4.04278">
        <ele>36.2</ele>
        <time>2022-11-12T10:31:44Z</time>
      </trkpt>
      <trkpt lat="47.88128" lon="-4.04272">
        <ele>36.3</ele>
        <time>2022-11-12T10:31:45Z</time>
      </trkpt>
      <trkpt lat="47.88131" lon="-4.04265">
        <ele>36.4</ele>
        <time>2022-11-12T10:31:46Z</time>
      </trkpt>
      <trkpt lat="47.88134" lon="-4.04259">
        <ele>36.5</ele>
        <time>2022-11-12T10:31:47Z</time>
      </trkpt>
      <trkpt lat="47.88138" lon="-4.04253">
        <ele>36.6</ele>
        <time>2022-11-12T10:31:48Z</time>
      </trkpt>
      <trkpt lat="47.88141" lon="-4.04247">
        <ele>36.8</ele>
        <time>2022-11-12T10:31:49Z</time>
      </trkpt>
      <trkpt lat="47.88145" lon="-4.04241">
        <ele>36.9</ele>
        <time>2022-11-12T10:31:50Z</time>
      </trkpt>
      <trkpt lat="47.88148" lon="-4.04235">
        <ele>36.9</ele>
        <time>2022-11-12T10:31:51Z</time>
      </trkpt>
      <trkpt lat="47.88151" lon="-4.04228">
        <ele>37</ele>
        <time>2022-11-12T10:31:52Z</time>
      </trkpt>
      <trkpt lat="47.88154" lon="-4.04222">
        <ele>37.1</ele>
        <time>2022-11-12T10:31:53Z</time>
      </trkpt>
      <trkpt lat="47.88158" lon="-4.04215">
        <ele>37.2</ele>
        <time>2022-11-12T10:31:54Z</time>
      </trkpt>
      <trkpt lat="47.88161" lon="-4.04209">
        <ele>37.3</ele>
        <time>2022-11-12T10:31:55Z</time>
      </trkpt>
      <trkpt lat="47.88164" lon="-4.04202">
        <ele>37.4</ele>
        <time>2022-11-12T10:31:56Z</time>
      </trkpt>
      <trkpt lat="47.88168" lon="-4.04196">
        <ele>37.5</ele>
        <time>2022-11-12T10:31:57Z</time>
      </trkpt>
      <trkpt lat="47.88171" lon="-4.0419">
        <ele>37.6</ele>
        <time>2022-11-12T10:31:58Z</time>
      </trkpt>
      <trkpt lat="47.88175" lon="-4.04183">
        <ele>37.7</ele>
        <time>2022-11-12T10:31:59Z</time>
      </trkpt>
      <trkpt lat="47.88178" lon="-4.04177">
        <ele>37.9</ele>
        <time>2022-11-12T10:32:00Z</time>
      </trkpt>
      <trkpt lat="47.88182" lon="-4.0417">
        <ele>38</ele>
        <time>2022-11-12T10:32:01Z</time>
      </trkpt>
      <trkpt lat="47.88185" lon="-4.04164">
        <ele>38.1</ele>
        <time>2022-11-12T10:32:02Z</time>
      </trkpt>
      <trkpt lat="47.88188" lon="-4.04157">
        <ele>38.2</ele>
        <time>2022-11-12T10:32:03Z</time>
      </trkpt>
      <trkpt lat="47.88192" lon="-4.0415">
        <ele>38.3</ele>
        <time>2022-11-12T10:32:04Z</time>
      </trkpt>
      <trkpt lat="47.88195" lon="-4.04144">
        <ele>38.4</ele>
        <time>2022-11-12T10:32:05Z</time>
      </trkpt>
      <trkpt lat="47.88198" lon="-4.04137">
        <ele>38.6</ele>
        <time>2022-11-12T10:32:06Z</time>
      </trkpt>
      <trkpt lat="47.88202" lon="-4.04131">
        <ele>38.6</ele>
        <time>2022-11-12T10:32:07Z</time>
      </trkpt>
      <trkpt lat="47.88205" lon="-4.04124">
        <ele>38.7</ele>
        <time>2022-11-12T10:32:08Z</time>
      </trkpt>
      <trkpt lat="47.88208" lon="-4.04118">
        <ele>38.8</ele>
        <time>2022-11-12T10:32:09Z</time>
      </trkpt>
      <trkpt lat="47.88211" lon="-4.04112">
        <ele>38.9</ele>
        <time>2022-11-12T10:32:10Z</time>
      </trkpt>
      <trkpt lat="47.88215" lon="-4.04106">
        <ele>38.9</ele>
        <time>2022-11-12T10:32:11Z</time>
      </trkpt>
      <trkpt lat="47.88218" lon="-4.04099">
        <ele>39</ele>
        <time>2022-11-12T10:32:12Z</time>
      </trkpt>
      <trkpt lat="47.88221" lon="-4.04093">
        <ele>39</ele>
        <time>2022-11-12T10:32:13Z</time>
      </trkpt>
      <trkpt lat="47.88224" lon="-4.04087">
        <ele>39</ele>
        <time>2022-11-12T10:32:14Z</time>
      </trkpt>
      <trkpt lat="47.88228" lon="-4.0408">
        <ele>39.1</ele>
        <time>2022-11-12T10:32:15Z</time>
      </trkpt>
      <trkpt lat="47.88231" lon="-4.04074">
        <ele>39.2</ele>
        <time>2022-11-12T10:32:16Z</time>
      </trkpt>
      <trkpt lat="47.88235" lon="-4.04067">
        <ele>39.2</ele>
        <time>2022-11-12T10:32:17Z</time>
      </trkpt>
      <trkpt lat="47.88238" lon="-4.0406">
        <ele>39.3</ele>
        <time>2022-11-12T10:32:18Z</time>
      </trkpt>
      <trkpt lat="47.88242" lon="-4.04054">
        <ele>39.4</ele>
        <time>2022-11-12T10:32:19Z</time>
      </trkpt>
      <trkpt lat="47.88245" lon="-4.04047">
        <ele>39.4</ele>
        <time>2022-11-12T10:32:20Z</time>
      </trkpt>
      <trkpt lat="47.88249" lon="-4.0404">
        <ele>39.5</ele>
        <time>2022-11-12T10:32:21Z</time>
      </trkpt>
      <trkpt lat="47.88252" lon="-4.04034">
        <ele>39.6</ele>
        <time>2022-11-12T10:32:22Z</time>
      </trkpt>
      <trkpt lat="47.88256" lon="-4.04027">
        <ele>39.7</ele>
        <time>2022-11-12T10:32:23Z</time>
      </trkpt>
      <trkpt lat="47.8826" lon="-4.04021">
        <ele>39.7</ele>
        <time>2022-11-12T10:32:24Z</time>
      </trkpt>
      <trkpt lat="47.88264" lon="-4.04015">
        <ele>39.8</ele>
        <time>2022-11-12T10:32:25Z</time>
      </trkpt>
      <trkpt lat="47.88268" lon="-4.04009">
        <ele>39.9</ele>
        <time>2022-11-12T10:32:26Z</time>
      </trkpt>
      <trkpt lat="47.88271" lon="-4.04004">
        <ele>40</ele>
        <time>2022-11-12T10:32:27Z</time>
      </trkpt>
      <trkpt lat="47.88276" lon="-4.03998">
        <ele>40.1</ele>
        <time>2022-11-12T10:32:28Z</time>
      </trkpt>
      <trkpt lat="47.8828" lon="-4.03993">
        <ele>40.1</ele>
        <time>2022-11-12T10:32:29Z</time>
      </trkpt>
      <trkpt lat="47.88284" lon="-4.03988">
        <ele>40.2</ele>
        <time>2022-11-12T10:32:30Z</time>
      </trkpt>
      <trkpt lat="47.88288" lon="-4.03983">
        <ele>40.3</ele>
        <time>2022-11-12T10:32:31Z</time>
      </trkpt>
      <trkpt lat="47.88293" lon="-4.03979">
        <ele>40.3</ele>
        <time>2022-11-12T10:32:32Z</time>
      </trkpt>
      <trkpt lat="47.88297" lon="-4.03974">
        <ele>40.4</ele>
        <time>2022-11-12T10:32:33Z</time>
      </trkpt>
      <trkpt lat="47.88302" lon="-4.03969">
        <ele>40.4</ele>
        <time>2022-11-12T10:32:34Z</time>
      </trkpt>
      <trkpt lat="47.88306" lon="-4.03965">
        <ele>40.5</ele>
        <time>2022-11-12T10:32:35Z</time>
      </trkpt>
      <trkpt lat="47.88311" lon="-4.0396">
        <ele>40.5</ele>
        <time>2022-11-12T10:32:36Z</time>
      </trkpt>
      <trkpt lat="47.88315" lon="-4.03955">
        <ele>40.6</ele>
        <time>2022-11-12T10:32:37Z</time>
      </trkpt>
      <trkpt lat="47.8832" lon="-4.0395">
        <ele>40.6</ele>
        <time>2022-11-12T10:32:38Z</time>
      </trkpt>
      <trkpt lat="47.88325" lon="-4.03945">
        <ele>40.7</ele>
        <time>2022-11-12T10:32:39Z</time>
      </trkpt>
      <trkpt lat="47.88329" lon="-4.0394">
        <ele>40.7</ele>
        <time>2022-11-12T10:32:40Z</time>
      </trkpt>
      <trkpt lat="47.88334" lon="-4.03934">
        <ele>40.8</ele>
        <time>2022-11-12T10:32:41Z</time>
      </trkpt>
      <trkpt lat="47.88339" lon="-4.03929">
        <ele>40.8</ele>
        <time>2022-11-12T10:32:42Z</time>
      </trkpt>
      <trkpt lat="47.88343" lon="-4.03923">
        <ele>40.8</ele>
        <time>2022-11-12T10:32:43Z</time>
      </trkpt>
      <trkpt lat="47.88347" lon="-4.03918">
        <ele>40.9</ele>
        <time>2022-11-12T10:32:44Z</time>
      </trkpt>
      <trkpt lat="47.88352" lon="-4.03912">
        <ele>40.9</ele>
        <time>2022-11-12T10:32:45Z</time>
      </trkpt>
      <trkpt lat="47.88356" lon="-4.03906">
        <ele>41</ele>
        <time>2022-11-12T10:32:46Z</time>
      </trkpt>
      <trkpt lat="47.88361" lon="-4.03899">
        <ele>41</ele>
        <time>2022-11-12T10:32:47Z</time>
      </trkpt>
      <trkpt lat="47.88365" lon="-4.03893">
        <ele>41.1</ele>
        <time>2022-11-12T10:32:48Z</time>
      </trkpt>
      <trkpt lat="47.88369" lon="-4.03886">
        <ele>41.1</ele>
        <time>2022-11-12T10:32:49Z</time>
      </trkpt>
      <trkpt lat="47.88372" lon="-4.03879">
        <ele>41.1</ele>
        <time>2022-11-12T10:32:50Z</time>
      </trkpt>
      <trkpt lat="47.88375" lon="-4.03873">
        <ele>41.2</ele>
        <time>2022-11-12T10:32:51Z</time>
      </trkpt>
      <trkpt lat="47.88379" lon="-4.03865">
        <ele>41.2</ele>
        <time>2022-11-12T10:32:52Z</time>
      </trkpt>
      <trkpt lat="47.88382" lon="-4.03858">
        <ele>41.3</ele>
        <time>2022-11-12T10:32:53Z</time>
      </trkpt>
      <trkpt lat="47.88385" lon="-4.03851">
        <ele>41.4</ele>
        <time>2022-11-12T10:32:54Z</time>
      </trkpt>
      <trkpt lat="47.88389" lon="-4.03844">
        <ele>41.4</ele>
        <time>2022-11-12T10:32:55Z</time>
      </trkpt>
      <trkpt lat="47.88392" lon="-4.03837">
        <ele>41.5</ele>
        <time>2022-11-12T10:32:56Z</time>
      </trkpt>
      <trkpt lat="47.88395" lon="-4.0383">
        <ele>41.6</ele>
        <time>2022-11-12T10:32:57Z</time>
      </trkpt>
      <trkpt lat="47.88398" lon="-4.03823">
        <ele>41.7</ele>
        <time>2022-11-12T10:32:58Z</time>
      </trkpt>
      <trkpt lat="47.88401" lon="-4.03815">
        <ele>41.8</ele>
        <time>2022-11-12T10:32:59Z</time>
      </trkpt>
      <trkpt lat="47.88404" lon="-4.03808">
        <ele>41.8</ele>
        <time>2022-11-12T10:33:00Z</time>
      </trkpt>
      <trkpt lat="47.88407" lon="-4.03801">
        <ele>41.9</ele>
        <time>2022-11-12T10:33:01Z</time>
      </trkpt>
      <trkpt lat="47.88409" lon="-4.03793">
        <ele>42</ele>
        <time>2022-11-12T10:33:02Z</time>
      </trkpt>
      <trkpt lat="47.88412" lon="-4.03786">
        <ele>42.1</ele>
        <time>2022-11-12T10:33:03Z</time>
      </trkpt>
      <trkpt lat="47.88414" lon="-4.03778">
        <ele>42.3</ele>
        <time>2022-11-12T10:33:04Z</time>
      </trkpt>
      <trkpt lat="47.88416" lon="-4.0377">
        <ele>42.4</ele>
        <time>2022-11-12T10:33:05Z</time>
      </trkpt>
      <trkpt lat="47.88418" lon="-4.03762">
        <ele>42.6</ele>
        <time>2022-11-12T10:33:06Z</time>
      </trkpt>
      <trkpt lat="47.8842" lon="-4.03755">
        <ele>42.7</ele>
        <time>2022-11-12T10:33:07Z</time>
      </trkpt>
      <trkpt lat="47.88423" lon="-4.03747">
        <ele>42.9</ele>
        <time>2022-11-12T10:33:08Z</time>
      </trkpt>
      <trkpt lat="47.88425" lon="-4.0374">
        <ele>43.1</ele>
        <time>2022-11-12T10:33:09Z</time>
      </trkpt>
      <trkpt lat="47.88426" lon="-4.03733">
        <ele>43.3</ele>
        <time>2022-11-12T10:33:10Z</time>
      </trkpt>
      <trkpt lat="47.88428" lon="-4.03725">
        <ele>43.4</ele>
        <time>2022-11-12T10:33:11Z</time>
      </trkpt>
      <trkpt lat="47.8843" lon="-4.03718">
        <ele>43.6</ele>
        <time>2022-11-12T10:33:12Z</time>
      </trkpt>
      <trkpt lat="47.88432" lon="-4.0371">
        <ele>43.8</ele>
        <time>2022-11-12T10:33:13Z</time>
      </trkpt>
      <trkpt lat="47.88434" lon="-4.03702">
        <ele>44.1</ele>
        <time>2022-11-12T10:33:14Z</time>
      </trkpt>
      <trkpt lat="47.88435" lon="-4.03694">
        <ele>44.3</ele>
        <time>2022-11-12T10:33:15Z</time>
      </trkpt>
      <trkpt lat="47.88437" lon="-4.03687">
        <ele>44.5</ele>
        <time>2022-11-12T10:33:16Z</time>
      </trkpt>
      <trkpt lat="47.88438" lon="-4.0368">
        <ele>44.7</ele>
        <time>2022-11-12T10:33:17Z</time>
      </trkpt>
      <trkpt lat="47.8844" lon="-4.03673">
        <ele>44.9</ele>
        <time>2022-11-12T10:33:18Z</time>
      </trkpt>
      <trkpt lat="47.88442" lon="-4.03666">
        <ele>45.1</ele>
        <time>2022-11-12T10:33:19Z</time>
      </trkpt>
      <trkpt lat="47.88444" lon="-4.0366">
        <ele>45.3</ele>
        <time>2022-11-12T10:33:20Z</time>
      </trkpt>
      <trkpt lat="47.88445" lon="-4.03653">
        <ele>45.4</ele>
        <time>2022-11-12T10:33:21Z</time>
      </trkpt>
      <trkpt lat="47.88447" lon="-4.03646">
        <ele>45.6</ele>
        <time>2022-11-12T10:33:22Z</time>
      </trkpt>
      <trkpt lat="47.88449" lon="-4.03639">
        <ele>45.8</ele>
        <time>2022-11-12T10:33:23Z</time>
      </trkpt>
      <trkpt lat="47.88451" lon="-4.03632">
        <ele>45.9</ele>
        <time>2022-11-12T10:33:24Z</time>
      </trkpt>
      <trkpt lat="47.88452" lon="-4.03625">
        <ele>46.1</ele>
        <time>2022-11-12T10:33:25Z</time>
      </trkpt>
      <trkpt lat="47.88454" lon="-4.03617">
        <ele>46.2</ele>
        <time>2022-11-12T10:33:26Z</time>
      </trkpt>
      <trkpt lat="47.88456" lon="-4.0361">
        <ele>46.4</ele>
        <time>2022-11-12T10:33:27Z</time>
      </trkpt>
      <trkpt lat="47.88458" lon="-4.03603">
        <ele>46.6</ele>
        <time>2022-11-12T10:33:28Z</time>
      </trkpt>
      <trkpt lat="47.88461" lon="-4.03596">
        <ele>46.7</ele>
        <time>2022-11-12T10:33:29Z</time>
      </trkpt>
      <trkpt lat="47.88463" lon="-4.0359">
        <ele>46.9</ele>
        <time>2022-11-12T10:33:30Z</time>
      </trkpt>
      <trkpt lat="47.88466" lon="-4.03584">
        <ele>47</ele>
        <time>2022-11-12T10:33:31Z</time>
      </trkpt>
      <trkpt lat="47.88468" lon="-4.03578">
        <ele>47.2</ele>
        <time>2022-11-12T10:33:32Z</time>
      </trkpt>
      <trkpt lat="47.88471" lon="-4.03571">
        <ele>47.3</ele>
        <time>2022-11-12T10:33:33Z</time>
      </trkpt>
      <trkpt lat="47.88473" lon="-4.03564">
        <ele>47.5</ele>
        <time>2022-11-12T10:33:34Z</time>
      </trkpt>
      <trkpt lat="47.88474" lon="-4.03557">
        <ele>47.6</ele>
        <time>2022-11-12T10:33:35Z</time>
      </trkpt>
      <trkpt lat="47.88475" lon="-4.0355">
        <ele>47.7</ele>
        <time>2022-11-12T10:33:36Z</time>
      </trkpt>
      <trkpt lat="47.88476" lon="-4.03543">
        <ele>47.8</ele>
        <time>2022-11-12T10:33:37Z</time>
      </trkpt>
      <trkpt lat="47.88476" lon="-4.03536">
        <ele>47.9</ele>
        <time>2022-11-12T10:33:38Z</time>
      </trkpt>
      <trkpt lat="47.88474" lon="-4.03528">
        <ele>47.8</ele>
        <time>2022-11-12T10:33:39Z</time>
      </trkpt>
      <trkpt lat="47.88473" lon="-4.0352">
        <ele>47.8</ele>
        <time>2022-11-12T10:33:40Z</time>
      </trkpt>
      <trkpt lat="47.88474" lon="-4.03512">
        <ele>47.9</ele>
        <time>2022-11-12T10:33:41Z</time>
      </trkpt>
      <trkpt lat="47.88476" lon="-4.03505">
        <ele>47.9</ele>
        <time>2022-11-12T10:33:42Z</time>
      </trkpt>
      <trkpt lat="47.8848" lon="-4.035">
        <ele>48</ele>
        <time>2022-11-12T10:33:43Z</time>
      </trkpt>
      <trkpt lat="47.88485" lon="-4.03497">
        <ele>48.1</ele>
        <time>2022-11-12T10:33:44Z</time>
      </trkpt>
      <trkpt lat="47.8849" lon="-4.03497">
        <ele>48.2</ele>
        <time>2022-11-12T10:33:45Z</time>
      </trkpt>
      <trkpt lat="47.88495" lon="-4.03499">
        <ele>48.3</ele>
        <time>2022-11-12T10:33:46Z</time>
      </trkpt>
      <trkpt lat="47.88499" lon="-4.03504">
        <ele>48.3</ele>
        <time>2022-11-12T10:33:47Z</time>
      </trkpt>
      <trkpt lat="47.88502" lon="-4.03511">
        <ele>48.3</ele>
        <time>2022-11-12T10:33:48Z</time>
      </trkpt>
      <trkpt lat="47.88505" lon="-4.03519">
        <ele>48.3</ele>
        <time>2022-11-12T10:33:49Z</time>
      </trkpt>
      <trkpt lat="47.88509" lon="-4.03526">
        <ele>48.2</ele>
        <time>2022-11-12T10:33:50Z</time>
      </trkpt>
      <trkpt lat="47.88513" lon="-4.03532">
        <ele>48.1</ele>
        <time>2022-11-12T10:33:51Z</time>
      </trkpt>
      <trkpt lat="47.88518" lon="-4.03536">
        <ele>48</ele>
        <time>2022-11-12T10:33:52Z</time>
      </trkpt>
      <trkpt lat="47.88523" lon="-4.03541">
        <ele>48</ele>
        <time>2022-11-12T10:33:53Z</time>
      </trkpt>
      <trkpt lat="47.88529" lon="-4.03546">
        <ele>47.9</ele>
        <time>2022-11-12T10:33:54Z</time>
      </trkpt>
      <trkpt lat="47.88535" lon="-4.03551">
        <ele>47.9</ele>
        <time>2022-11-12T10:33:55Z</time>
      </trkpt>
      <trkpt lat="47.8854" lon="-4.03557">
        <ele>47.8</ele>
        <time>2022-11-12T10:33:56Z</time>
      </trkpt>
      <trkpt lat="47.88543" lon="-4.03565">
        <ele>47.7</ele>
        <time>2022-11-12T10:33:57Z</time>
      </trkpt>
      <trkpt lat="47.88547" lon="-4.03575">
        <ele>47.5</ele>
        <time>2022-11-12T10:33:58Z</time>
      </trkpt>
      <trkpt lat="47.88549" lon="-4.03585">
        <ele>47.3</ele>
        <time>2022-11-12T10:33:59Z</time>
      </trkpt>
      <trkpt lat="47.88551" lon="-4.03595">
        <ele>47.2</ele>
        <time>2022-11-12T10:34:00Z</time>
      </trkpt>
      <trkpt lat="47.88553" lon="-4.03606">
        <ele>47</ele>
        <time>2022-11-12T10:34:01Z</time>
      </trkpt>
      <trkpt lat="47.88553" lon="-4.03617">
        <ele>46.9</ele>
        <time>2022-11-12T10:34:02Z</time>
      </trkpt>
      <trkpt lat="47.88551" lon="-4.03628">
        <ele>46.8</ele>
        <time>2022-11-12T10:34:03Z</time>
      </trkpt>
      <trkpt lat="47.88548" lon="-4.03638">
        <ele>46.7</ele>
        <time>2022-11-12T10:34:04Z</time>
      </trkpt>
      <trkpt lat="47.88544" lon="-4.03647">
        <ele>46.7</ele>
        <time>2022-11-12T10:34:05Z</time>
      </trkpt>
      <trkpt lat="47.88541" lon="-4.03656">
        <ele>46.6</ele>
        <time>2022-11-12T10:34:06Z</time>
      </trkpt>
      <trkpt lat="47.88537" lon="-4.03665">
        <ele>46.4</ele>
        <time>2022-11-12T10:34:07Z</time>
      </trkpt>
      <trkpt lat="47.88533" lon="-4.03673">
        <ele>46.2</ele>
        <time>2022-11-12T10:34:08Z</time>
      </trkpt>
      <trkpt lat="47.88529" lon="-4.03682">
        <ele>45.9</ele>
        <time>2022-11-12T10:34:09Z</time>
      </trkpt>
      <trkpt lat="47.88525" lon="-4.0369">
        <ele>45.6</ele>
        <time>2022-11-12T10:34:10Z</time>
      </trkpt>
      <trkpt lat="47.88522" lon="-4.03699">
        <ele>45.2</ele>
        <time>2022-11-12T10:34:11Z</time>
      </trkpt>
      <trkpt lat="47.88518" lon="-4.03709">
        <ele>44.9</ele>
        <time>2022-11-12T10:34:12Z</time>
      </trkpt>
      <trkpt lat="47.88514" lon="-4.03719">
        <ele>44.5</ele>
        <time>2022-11-12T10:34:13Z</time>
      </trkpt>
      <trkpt lat="47.88511" lon="-4.0373">
        <ele>44.2</ele>
        <time>2022-11-12T10:34:14Z</time>
      </trkpt>
      <trkpt lat="47.88509" lon="-4.03742">
        <ele>43.9</ele>
        <time>2022-11-12T10:34:15Z</time>
      </trkpt>
      <trkpt lat="47.88508" lon="-4.03755">
        <ele>43.6</ele>
        <time>2022-11-12T10:34:16Z</time>
      </trkpt>
      <trkpt lat="47.88507" lon="-4.03767">
        <ele>43.3</ele>
        <time>2022-11-12T10:34:17Z</time>
      </trkpt>
      <trkpt lat="47.88506" lon="-4.0378">
        <ele>43.1</ele>
        <time>2022-11-12T10:34:18Z</time>
      </trkpt>
      <trkpt lat="47.88505" lon="-4.03793">
        <ele>42.8</ele>
        <time>2022-11-12T10:34:19Z</time>
      </trkpt>
      <trkpt lat="47.88505" lon="-4.03807">
        <ele>42.6</ele>
        <time>2022-11-12T10:34:20Z</time>
      </trkpt>
      <trkpt lat="47.88504" lon="-4.0382">
        <ele>42.3</ele>
        <time>2022-11-12T10:34:21Z</time>
      </trkpt>
      <trkpt lat="47.88502" lon="-4.03834">
        <ele>42.2</ele>
        <time>2022-11-12T10:34:22Z</time>
      </trkpt>
      <trkpt lat="47.88503" lon="-4.03847">
        <ele>42.1</ele>
        <time>2022-11-12T10:34:23Z</time>
      </trkpt>
      <trkpt lat="47.88507" lon="-4.03856">
        <ele>42.1</ele>
        <time>2022-11-12T10:34:24Z</time>
      </trkpt>
      <trkpt lat="47.88513" lon="-4.0386">
        <ele>42.3</ele>
        <time>2022-11-12T10:34:25Z</time>
      </trkpt>
      <trkpt lat="47.8852" lon="-4.03858">
        <ele>42.3</ele>
        <time>2022-11-12T10:34:26Z</time>
      </trkpt>
      <trkpt lat="47.88526" lon="-4.03856">
        <ele>42.4</ele>
        <time>2022-11-12T10:34:27Z</time>
      </trkpt>
      <trkpt lat="47.88531" lon="-4.03856">
        <ele>42.5</ele>
        <time>2022-11-12T10:34:28Z</time>
      </trkpt>
      <trkpt lat="47.88536" lon="-4.03855">
        <ele>42.6</ele>
        <time>2022-11-12T10:34:29Z</time>
      </trkpt>
      <trkpt lat="47.88541" lon="-4.03854">
        <ele>42.6</ele>
        <time>2022-11-12T10:34:30Z</time>
      </trkpt>
      <trkpt lat="47.88547" lon="-4.03852">
        <ele>42.7</ele>
        <time>2022-11-12T10:34:31Z</time>
      </trkpt>
      <trkpt lat="47.88553" lon="-4.0385">
        <ele>42.8</ele>
        <time>2022-11-12T10:34:32Z</time>
      </trkpt>
      <trkpt lat="47.88558" lon="-4.03848">
        <ele>42.9</ele>
        <time>2022-11-12T10:34:33Z</time>
      </trkpt>
      <trkpt lat="47.88564" lon="-4.03846">
        <ele>43</ele>
        <time>2022-11-12T10:34:34Z</time>
      </trkpt>
      <trkpt lat="47.8857" lon="-4.03846">
        <ele>43</ele>
        <time>2022-11-12T10:34:35Z</time>
      </trkpt>
      <trkpt lat="47.88576" lon="-4.03845">
        <ele>43.1</ele>
        <time>2022-11-12T10:34:36Z</time>
      </trkpt>
      <trkpt lat="47.88582" lon="-4.03843">
        <ele>43.1</ele>
        <time>2022-11-12T10:34:37Z</time>
      </trkpt>
      <trkpt lat="47.88587" lon="-4.03842">
        <ele>43.1</ele>
        <time>2022-11-12T10:34:38Z</time>
      </trkpt>
      <trkpt lat="47.88593" lon="-4.0384">
        <ele>43.2</ele>
        <time>2022-11-12T10:34:39Z</time>
      </trkpt>
      <trkpt lat="47.88599" lon="-4.03839">
        <ele>43.2</ele>
        <time>2022-11-12T10:34:40Z</time>
      </trkpt>
      <trkpt lat="47.88606" lon="-4.03837">
        <ele>43.2</ele>
        <time>2022-11-12T10:34:41Z</time>
      </trkpt>
      <trkpt lat="47.88612" lon="-4.03836">
        <ele>43.1</ele>
        <time>2022-11-12T10:34:42Z</time>
      </trkpt>
      <trkpt lat="47.88619" lon="-4.03834">
        <ele>43.1</ele>
        <time>2022-11-12T10:34:43Z</time>
      </trkpt>
      <trkpt lat="47.88625" lon="-4.03832">
        <ele>43.1</ele>
        <time>2022-11-12T10:34:44Z</time>
      </trkpt>
      <trkpt lat="47.88632" lon="-4.03829">
        <ele>43.1</ele>
        <time>2022-11-12T10:34:45Z</time>
      </trkpt>
      <trkpt lat="47.88639" lon="-4.03827">
        <ele>43</ele>
        <time>2022-11-12T10:34:46Z</time>
      </trkpt>
      <trkpt lat="47.88645" lon="-4.03825">
        <ele>43</ele>
        <time>2022-11-12T10:34:47Z</time>
      </trkpt>
      <trkpt lat="47.88651" lon="-4.03822">
        <ele>43</ele>
        <time>2022-11-12T10:34:48Z</time>
      </trkpt>
      <trkpt lat="47.88658" lon="-4.0382">
        <ele>43</ele>
        <time>2022-11-12T10:34:49Z</time>
      </trkpt>
      <trkpt lat="47.88664" lon="-4.03817">
        <ele>42.9</ele>
        <time>2022-11-12T10:34:50Z</time>
      </trkpt>
      <trkpt lat="47.88671" lon="-4.03814">
        <ele>42.9</ele>
        <time>2022-11-12T10:34:51Z</time>
      </trkpt>
      <trkpt lat="47.88677" lon="-4.03812">
        <ele>42.8</ele>
        <time>2022-11-12T10:34:52Z</time>
      </trkpt>
      <trkpt lat="47.88684" lon="-4.03809">
        <ele>42.8</ele>
        <time>2022-11-12T10:34:53Z</time>
      </trkpt>
      <trkpt lat="47.88691" lon="-4.03806">
        <ele>42.7</ele>
        <time>2022-11-12T10:34:54Z</time>
      </trkpt>
      <trkpt lat="47.88697" lon="-4.03803">
        <ele>42.6</ele>
        <time>2022-11-12T10:34:55Z</time>
      </trkpt>
      <trkpt lat="47.88704" lon="-4.038">
        <ele>42.5</ele>
        <time>2022-11-12T10:34:56Z</time>
      </trkpt>
      <trkpt lat="47.88711" lon="-4.03797">
        <ele>42.4</ele>
        <time>2022-11-12T10:34:57Z</time>
      </trkpt>
      <trkpt lat="47.88718" lon="-4.03794">
        <ele>42.3</ele>
        <time>2022-11-12T10:34:58Z</time>
      </trkpt>
      <trkpt lat="47.88724" lon="-4.03791">
        <ele>42.3</ele>
        <time>2022-11-12T10:34:59Z</time>
      </trkpt>
      <trkpt lat="47.88731" lon="-4.03788">
        <ele>42.2</ele>
        <time>2022-11-12T10:35:00Z</time>
      </trkpt>
      <trkpt lat="47.88739" lon="-4.03786">
        <ele>42.2</ele>
        <time>2022-11-12T10:35:01Z</time>
      </trkpt>
      <trkpt lat="47.88745" lon="-4.03782">
        <ele>42.1</ele>
        <time>2022-11-12T10:35:02Z</time>
      </trkpt>
      <trkpt lat="47.88752" lon="-4.03778">
        <ele>42</ele>
        <time>2022-11-12T10:35:03Z</time>
      </trkpt>
      <trkpt lat="47.88759" lon="-4.03774">
        <ele>41.9</ele>
        <time>2022-11-12T10:35:04Z</time>
      </trkpt>
      <trkpt lat="47.88766" lon="-4.03769">
        <ele>41.8</ele>
        <time>2022-11-12T10:35:05Z</time>
      </trkpt>
      <trkpt lat="47.88774" lon="-4.03764">
        <ele>41.7</ele>
        <time>2022-11-12T10:35:06Z</time>
      </trkpt>
      <trkpt lat="47.88781" lon="-4.03759">
        <ele>41.6</ele>
        <time>2022-11-12T10:35:07Z</time>
      </trkpt>
      <trkpt lat="47.88787" lon="-4.03754">
        <ele>41.5</ele>
        <time>2022-11-12T10:35:08Z</time>
      </trkpt>
      <trkpt lat="47.88794" lon="-4.03748">
        <ele>41.6</ele>
        <time>2022-11-12T10:35:09Z</time>
      </trkpt>
      <trkpt lat="47.888" lon="-4.03742">
        <ele>41.6</ele>
        <time>2022-11-12T10:35:10Z</time>
      </trkpt>
      <trkpt lat="47.88806" lon="-4.03737">
        <ele>41.8</ele>
        <time>2022-11-12T10:35:11Z</time>
      </trkpt>
      <trkpt lat="47.88812" lon="-4.03731">
        <ele>42</ele>
        <time>2022-11-12T10:35:12Z</time>
      </trkpt>
      <trkpt lat="47.88818" lon="-4.03726">
        <ele>42.3</ele>
        <time>2022-11-12T10:35:13Z</time>
      </trkpt>
      <trkpt lat="47.88823" lon="-4.03721">
        <ele>42.5</ele>
        <time>2022-11-12T10:35:14Z</time>
      </trkpt>
      <trkpt lat="47.88828" lon="-4.03716">
        <ele>42.8</ele>
        <time>2022-11-12T10:35:15Z</time>
      </trkpt>
      <trkpt lat="47.88833" lon="-4.03712">
        <ele>43.1</ele>
        <time>2022-11-12T10:35:16Z</time>
      </trkpt>
      <trkpt lat="47.88838" lon="-4.03707">
        <ele>43.3</ele>
        <time>2022-11-12T10:35:17Z</time>
      </trkpt>
      <trkpt lat="47.88842" lon="-4.03703">
        <ele>43.6</ele>
        <time>2022-11-12T10:35:18Z</time>
      </trkpt>
      <trkpt lat="47.88847" lon="-4.03699">
        <ele>43.9</ele>
        <time>2022-11-12T10:35:19Z</time>
      </trkpt>
      <trkpt lat="47.88851" lon="-4.03695">
        <ele>44.2</ele>
        <time>2022-11-12T10:35:20Z</time>
      </trkpt>
      <trkpt lat="47.88855" lon="-4.03691">
        <ele>44.4</ele>
        <time>2022-11-12T10:35:21Z</time>
      </trkpt>
      <trkpt lat="47.88859" lon="-4.03687">
        <ele>44.7</ele>
        <time>2022-11-12T10:35:22Z</time>
      </trkpt>
      <trkpt lat="47.88863" lon="-4.03683">
        <ele>44.9</ele>
        <time>2022-11-12T10:35:23Z</time>
      </trkpt>
      <trkpt lat="47.88867" lon="-4.03679">
        <ele>45.1</ele>
        <time>2022-11-12T10:35:24Z</time>
      </trkpt>
      <trkpt lat="47.88871" lon="-4.03675">
        <ele>45.3</ele>
        <time>2022-11-12T10:35:25Z</time>
      </trkpt>
      <trkpt lat="47.88875" lon="-4.03672">
        <ele>45.5</ele>
        <time>2022-11-12T10:35:26Z</time>
      </trkpt>
      <trkpt lat="47.88879" lon="-4.03668">
        <ele>45.7</ele>
        <time>2022-11-12T10:35:27Z</time>
      </trkpt>
      <trkpt lat="47.88883" lon="-4.03664">
        <ele>45.9</ele>
        <time>2022-11-12T10:35:28Z</time>
      </trkpt>
      <trkpt lat="47.88887" lon="-4.0366">
        <ele>46</ele>
        <time>2022-11-12T10:35:29Z</time>
      </trkpt>
      <trkpt lat="47.88892" lon="-4.03657">
        <ele>46</ele>
        <time>2022-11-12T10:35:30Z</time>
      </trkpt>
      <trkpt lat="47.88896" lon="-4.03656">
        <ele>46</ele>
        <time>2022-11-12T10:35:31Z</time>
      </trkpt>
      <trkpt lat="47.88902" lon="-4.03656">
        <ele>45.8</ele>
        <time>2022-11-12T10:35:32Z</time>
      </trkpt>
      <trkpt lat="47.88907" lon="-4.03659">
        <ele>45.6</ele>
        <time>2022-11-12T10:35:33Z</time>
      </trkpt>
      <trkpt lat="47.88911" lon="-4.03664">
        <ele>45.4</ele>
        <time>2022-11-12T10:35:34Z</time>
      </trkpt>
      <trkpt lat="47.88916" lon="-4.03671">
        <ele>45.1</ele>
        <time>2022-11-12T10:35:35Z</time>
      </trkpt>
      <trkpt lat="47.88921" lon="-4.03679">
        <ele>44.9</ele>
        <time>2022-11-12T10:35:36Z</time>
      </trkpt>
      <trkpt lat="47.88926" lon="-4.03687">
        <ele>44.7</ele>
        <time>2022-11-12T10:35:37Z</time>
      </trkpt>
      <trkpt lat="47.88931" lon="-4.03695">
        <ele>44.5</ele>
        <time>2022-11-12T10:35:38Z</time>
      </trkpt>
      <trkpt lat="47.88937" lon="-4.03703">
        <ele>44.3</ele>
        <time>2022-11-12T10:35:39Z</time>
      </trkpt>
      <trkpt lat="47.88942" lon="-4.03711">
        <ele>44.2</ele>
        <time>2022-11-12T10:35:40Z</time>
      </trkpt>
      <trkpt lat="47.88947" lon="-4.0372">
        <ele>44.1</ele>
        <time>2022-11-12T10:35:41Z</time>
      </trkpt>
      <trkpt lat="47.88953" lon="-4.03729">
        <ele>44.1</ele>
        <time>2022-11-12T10:35:42Z</time>
      </trkpt>
      <trkpt lat="47.88959" lon="-4.03737">
        <ele>44.2</ele>
        <time>2022-11-12T10:35:43Z</time>
      </trkpt>
      <trkpt lat="47.88964" lon="-4.03746">
        <ele>44.4</ele>
        <time>2022-11-12T10:35:44Z</time>
      </trkpt>
      <trkpt lat="47.8897" lon="-4.03754">
        <ele>44.6</ele>
        <time>2022-11-12T10:35:45Z</time>
      </trkpt>
      <trkpt lat="47.88975" lon="-4.03761">
        <ele>44.8</ele>
        <time>2022-11-12T10:35:46Z</time>
      </trkpt>
      <trkpt lat="47.8898" lon="-4.03768">
        <ele>45</ele>
        <time>2022-11-12T10:35:47Z</time>
      </trkpt>
      <trkpt lat="47.88985" lon="-4.03775">
        <ele>45.1</ele>
        <time>2022-11-12T10:35:48Z</time>
      </trkpt>
      <trkpt lat="47.88989" lon="-4.03781">
        <ele>45.3</ele>
        <time>2022-11-12T10:35:49Z</time>
      </trkpt>
      <trkpt lat="47.88994" lon="-4.03788">
        <ele>45.4</ele>
        <time>2022-11-12T10:35:50Z</time>
      </trkpt>
      <trkpt lat="47.88998" lon="-4.03794">
        <ele>45.6</ele>
        <time>2022-11-12T10:35:51Z</time>
      </trkpt>
      <trkpt lat="47.89002" lon="-4.03801">
        <ele>45.7</ele>
        <time>2022-11-12T10:35:52Z</time>
      </trkpt>
      <trkpt lat="47.89007" lon="-4.03808">
        <ele>45.8</ele>
        <time>2022-11-12T10:35:53Z</time>
      </trkpt>
      <trkpt lat="47.89011" lon="-4.03815">
        <ele>46</ele>
        <time>2022-11-12T10:35:54Z</time>
      </trkpt>
      <trkpt lat="47.89014" lon="-4.03822">
        <ele>46.1</ele>
        <time>2022-11-12T10:35:55Z</time>
      </trkpt>
      <trkpt lat="47.89018" lon="-4.0383">
        <ele>46.2</ele>
        <time>2022-11-12T10:35:56Z</time>
      </trkpt>
      <trkpt lat="47.89021" lon="-4.03838">
        <ele>46.3</ele>
        <time>2022-11-12T10:35:57Z</time>
      </trkpt>
      <trkpt lat="47.89024" lon="-4.03846">
        <ele>46.4</ele>
        <time>2022-11-12T10:35:58Z</time>
      </trkpt>
      <trkpt lat="47.89026" lon="-4.03855">
        <ele>46.5</ele>
        <time>2022-11-12T10:35:59Z</time>
      </trkpt>
      <trkpt lat="47.89029" lon="-4.03863">
        <ele>46.6</ele>
        <time>2022-11-12T10:36:00Z</time>
      </trkpt>
      <trkpt lat="47.89031" lon="-4.03872">
        <ele>46.6</ele>
        <time>2022-11-12T10:36:01Z</time>
      </trkpt>
      <trkpt lat="47.89033" lon="-4.0388">
        <ele>46.7</ele>
        <time>2022-11-12T10:36:02Z</time>
      </trkpt>
      <trkpt lat="47.89035" lon="-4.03889">
        <ele>46.7</ele>
        <time>2022-11-12T10:36:03Z</time>
      </trkpt>
      <trkpt lat="47.89036" lon="-4.03898">
        <ele>46.8</ele>
        <time>2022-11-12T10:36:04Z</time>
      </trkpt>
      <trkpt lat="47.89038" lon="-4.03907">
        <ele>46.8</ele>
        <time>2022-11-12T10:36:05Z</time>
      </trkpt>
      <trkpt lat="47.89039" lon="-4.03916">
        <ele>46.8</ele>
        <time>2022-11-12T10:36:06Z</time>
      </trkpt>
      <trkpt lat="47.89041" lon="-4.03926">
        <ele>46.9</ele>
        <time>2022-11-12T10:36:07Z</time>
      </trkpt>
      <trkpt lat="47.89042" lon="-4.03934">
        <ele>46.9</ele>
        <time>2022-11-12T10:36:08Z</time>
      </trkpt>
      <trkpt lat="47.89044" lon="-4.03943">
        <ele>46.9</ele>
        <time>2022-11-12T10:36:09Z</time>
      </trkpt>
      <trkpt lat="47.89045" lon="-4.03952">
        <ele>47</ele>
        <time>2022-11-12T10:36:10Z</time>
      </trkpt>
      <trkpt lat="47.89046" lon="-4.03961">
        <ele>47</ele>
        <time>2022-11-12T10:36:11Z</time>
      </trkpt>
      <trkpt lat="47.89047" lon="-4.03969">
        <ele>47.1</ele>
        <time>2022-11-12T10:36:12Z</time>
      </trkpt>
      <trkpt lat="47.89049" lon="-4.03978">
        <ele>47.1</ele>
        <time>2022-11-12T10:36:13Z</time>
      </trkpt>
      <trkpt lat="47.8905" lon="-4.03987">
        <ele>47.2</ele>
        <time>2022-11-12T10:36:14Z</time>
      </trkpt>
      <trkpt lat="47.89051" lon="-4.03996">
        <ele>47.2</ele>
        <time>2022-11-12T10:36:15Z</time>
      </trkpt>
      <trkpt lat="47.89053" lon="-4.04004">
        <ele>47.3</ele>
        <time>2022-11-12T10:36:16Z</time>
      </trkpt>
      <trkpt lat="47.89054" lon="-4.04013">
        <ele>47.3</ele>
        <time>2022-11-12T10:36:17Z</time>
      </trkpt>
      <trkpt lat="47.89055" lon="-4.04021">
        <ele>47.4</ele>
        <time>2022-11-12T10:36:18Z</time>
      </trkpt>
      <trkpt lat="47.89056" lon="-4.04029">
        <ele>47.4</ele>
        <time>2022-11-12T10:36:19Z</time>
      </trkpt>
      <trkpt lat="47.89058" lon="-4.04038">
        <ele>47.5</ele>
        <time>2022-11-12T10:36:20Z</time>
      </trkpt>
      <trkpt lat="47.89059" lon="-4.04047">
        <ele>47.5</ele>
        <time>2022-11-12T10:36:21Z</time>
      </trkpt>
      <trkpt lat="47.8906" lon="-4.04055">
        <ele>47.5</ele>
        <time>2022-11-12T10:36:22Z</time>
      </trkpt>
      <trkpt lat="47.89062" lon="-4.04064">
        <ele>47.6</ele>
        <time>2022-11-12T10:36:23Z</time>
      </trkpt>
      <trkpt lat="47.89063" lon="-4.04073">
        <ele>47.6</ele>
        <time>2022-11-12T10:36:24Z</time>
      </trkpt>
      <trkpt lat="47.89064" lon="-4.04082">
        <ele>47.6</ele>
        <time>2022-11-12T10:36:25Z</time>
      </trkpt>
      <trkpt lat="47.89065" lon="-4.04091">
        <ele>47.6</ele>
        <time>2022-11-12T10:36:26Z</time>
      </trkpt>
      <trkpt lat="47.89067" lon="-4.041">
        <ele>47.6</ele>
        <time>2022-11-12T10:36:27Z</time>
      </trkpt>
      <trkpt lat="47.89068" lon="-4.04109">
        <ele>47.6</ele>
        <time>2022-11-12T10:36:28Z</time>
      </trkpt>
      <trkpt lat="47.89069" lon="-4.04117">
        <ele>47.6</ele>
        <time>2022-11-12T10:36:29Z</time>
      </trkpt>
      <trkpt lat="47.8907" lon="-4.04126">
        <ele>47.6</ele>
        <time>2022-11-12T10:36:30Z</time>
      </trkpt>
      <trkpt lat="47.89072" lon="-4.04135">
        <ele>47.5</ele>
        <time>2022-11-12T10:36:31Z</time>
      </trkpt>
      <trkpt lat="47.89073" lon="-4.04145">
        <ele>47.5</ele>
        <time>2022-11-12T10:36:32Z</time>
      </trkpt>
      <trkpt lat="47.89074" lon="-4.04154">
        <ele>47.5</ele>
        <time>2022-11-12T10:36:33Z</time>
      </trkpt>
      <trkpt lat="47.89075" lon="-4.04163">
        <ele>47.4</ele>
        <time>2022-11-12T10:36:34Z</time>
      </trkpt>
      <trkpt lat="47.89076" lon="-4.04172">
        <ele>47.4</ele>
        <time>2022-11-12T10:36:35Z</time>
      </trkpt>
      <trkpt lat="47.89077" lon="-4.04181">
        <ele>47.3</ele>
        <time>2022-11-12T10:36:36Z</time>
      </trkpt>
      <trkpt lat="47.89078" lon="-4.04189">
        <ele>47.3</ele>
        <time>2022-11-12T10:36:37Z</time>
      </trkpt>
      <trkpt lat="47.89079" lon="-4.04198">
        <ele>47.2</ele>
        <time>2022-11-12T10:36:38Z</time>
      </trkpt>
      <trkpt lat="47.8908" lon="-4.04208">
        <ele>47.1</ele>
        <time>2022-11-12T10:36:39Z</time>
      </trkpt>
      <trkpt lat="47.8908" lon="-4.04217">
        <ele>47.1</ele>
        <time>2022-11-12T10:36:40Z</time>
      </trkpt>
      <trkpt lat="47.89081" lon="-4.04227">
        <ele>47</ele>
        <time>2022-11-12T10:36:41Z</time>
      </trkpt>
      <trkpt lat="47.89081" lon="-4.04237">
        <ele>46.9</ele>
        <time>2022-11-12T10:36:42Z</time>
      </trkpt>
      <trkpt lat="47.89082" lon="-4.04247">
        <ele>46.9</ele>
        <time>2022-11-12T10:36:43Z</time>
      </trkpt>
      <trkpt lat="47.89082" lon="-4.04256">
        <ele>46.8</ele>
        <time>2022-11-12T10:36:44Z</time>
      </trkpt>
      <trkpt lat="47.89082" lon="-4.04266">
        <ele>46.8</ele>
        <time>2022-11-12T10:36:45Z</time>
      </trkpt>
      <trkpt lat="47.89082" lon="-4.04276">
        <ele>46.7</ele>
        <time>2022-11-12T10:36:46Z</time>
      </trkpt>
      <trkpt lat="47.89082" lon="-4.04286">
        <ele>46.6</ele>
        <time>2022-11-12T10:36:47Z</time>
      </trkpt>
      <trkpt lat="47.89083" lon="-4.04296">
        <ele>46.5</ele>
        <time>2022-11-12T10:36:48Z</time>
      </trkpt>
      <trkpt lat="47.89083" lon="-4.04305">
        <ele>46.4</ele>
        <time>2022-11-12T10:36:49Z</time>
      </trkpt>
      <trkpt lat="47.89082" lon="-4.04315">
        <ele>46.3</ele>
        <time>2022-11-12T10:36:50Z</time>
      </trkpt>
      <trkpt lat="47.89082" lon="-4.04325">
        <ele>46.2</ele>
        <time>2022-11-12T10:36:51Z</time>
      </trkpt>
      <trkpt lat="47.89082" lon="-4.04335">
        <ele>46</ele>
        <time>2022-11-12T10:36:52Z</time>
      </trkpt>
      <trkpt lat="47.89081" lon="-4.04346">
        <ele>45.9</ele>
        <time>2022-11-12T10:36:53Z</time>
      </trkpt>
      <trkpt lat="47.89081" lon="-4.04356">
        <ele>45.7</ele>
        <time>2022-11-12T10:36:54Z</time>
      </trkpt>
      <trkpt lat="47.89081" lon="-4.04366">
        <ele>45.6</ele>
        <time>2022-11-12T10:36:55Z</time>
      </trkpt>
      <trkpt lat="47.89081" lon="-4.04377">
        <ele>45.4</ele>
        <time>2022-11-12T10:36:56Z</time>
      </trkpt>
      <trkpt lat="47.8908" lon="-4.04388">
        <ele>45.3</ele>
        <time>2022-11-12T10:36:57Z</time>
      </trkpt>
      <trkpt lat="47.8908" lon="-4.04399">
        <ele>45.1</ele>
        <time>2022-11-12T10:36:58Z</time>
      </trkpt>
      <trkpt lat="47.8908" lon="-4.0441">
        <ele>45</ele>
        <time>2022-11-12T10:36:59Z</time>
      </trkpt>
      <trkpt lat="47.89079" lon="-4.04421">
        <ele>44.9</ele>
        <time>2022-11-12T10:37:00Z</time>
      </trkpt>
      <trkpt lat="47.89078" lon="-4.04431">
        <ele>44.8</ele>
        <time>2022-11-12T10:37:01Z</time>
      </trkpt>
      <trkpt lat="47.89077" lon="-4.04441">
        <ele>44.7</ele>
        <time>2022-11-12T10:37:02Z</time>
      </trkpt>
      <trkpt lat="47.89075" lon="-4.04451">
        <ele>44.6</ele>
        <time>2022-11-12T10:37:03Z</time>
      </trkpt>
      <trkpt lat="47.89072" lon="-4.04461">
        <ele>44.6</ele>
        <time>2022-11-12T10:37:04Z</time>
      </trkpt>
      <trkpt lat="47.89069" lon="-4.04469">
        <ele>44.6</ele>
        <time>2022-11-12T10:37:05Z</time>
      </trkpt>
      <trkpt lat="47.89065" lon="-4.04476">
        <ele>44.6</ele>
        <time>2022-11-12T10:37:06Z</time>
      </trkpt>
      <trkpt lat="47.89061" lon="-4.04483">
        <ele>44.7</ele>
        <time>2022-11-12T10:37:07Z</time>
      </trkpt>
      <trkpt lat="47.89057" lon="-4.0449">
        <ele>44.7</ele>
        <time>2022-11-12T10:37:08Z</time>
      </trkpt>
      <trkpt lat="47.89054" lon="-4.04497">
        <ele>44.7</ele>
        <time>2022-11-12T10:37:09Z</time>
      </trkpt>
      <trkpt lat="47.89049" lon="-4.04504">
        <ele>44.7</ele>
        <time>2022-11-12T10:37:10Z</time>
      </trkpt>
      <trkpt lat="47.89045" lon="-4.04511">
        <ele>44.8</ele>
        <time>2022-11-12T10:37:11Z</time>
      </trkpt>
      <trkpt lat="47.89041" lon="-4.04518">
        <ele>44.8</ele>
        <time>2022-11-12T10:37:12Z</time>
      </trkpt>
      <trkpt lat="47.89038" lon="-4.04526">
        <ele>44.7</ele>
        <time>2022-11-12T10:37:13Z</time>
      </trkpt>
      <trkpt lat="47.89034" lon="-4.04533">
        <ele>44.7</ele>
        <time>2022-11-12T10:37:14Z</time>
      </trkpt>
      <trkpt lat="47.89029" lon="-4.04541">
        <ele>44.6</ele>
        <time>2022-11-12T10:37:15Z</time>
      </trkpt>
      <trkpt lat="47.89025" lon="-4.04549">
        <ele>44.5</ele>
        <time>2022-11-12T10:37:16Z</time>
      </trkpt>
      <trkpt lat="47.89021" lon="-4.04556">
        <ele>44.4</ele>
        <time>2022-11-12T10:37:17Z</time>
      </trkpt>
      <trkpt lat="47.89017" lon="-4.04563">
        <ele>44.3</ele>
        <time>2022-11-12T10:37:18Z</time>
      </trkpt>
      <trkpt lat="47.89012" lon="-4.0457">
        <ele>44.2</ele>
        <time>2022-11-12T10:37:19Z</time>
      </trkpt>
      <trkpt lat="47.89008" lon="-4.04578">
        <ele>44.1</ele>
        <time>2022-11-12T10:37:20Z</time>
      </trkpt>
      <trkpt lat="47.89003" lon="-4.04587">
        <ele>43.9</ele>
        <time>2022-11-12T10:37:21Z</time>
      </trkpt>
      <trkpt lat="47.89" lon="-4.04596">
        <ele>43.8</ele>
        <time>2022-11-12T10:37:22Z</time>
      </trkpt>
      <trkpt lat="47.88996" lon="-4.04605">
        <ele>43.6</ele>
        <time>2022-11-12T10:37:23Z</time>
      </trkpt>
      <trkpt lat="47.88992" lon="-4.04615">
        <ele>43.5</ele>
        <time>2022-11-12T10:37:24Z</time>
      </trkpt>
      <trkpt lat="47.88989" lon="-4.04624">
        <ele>43.3</ele>
        <time>2022-11-12T10:37:25Z</time>
      </trkpt>
      <trkpt lat="47.88986" lon="-4.04633">
        <ele>43.1</ele>
        <time>2022-11-12T10:37:26Z</time>
      </trkpt>
      <trkpt lat="47.88982" lon="-4.04643">
        <ele>42.8</ele>
        <time>2022-11-12T10:37:27Z</time>
      </trkpt>
      <trkpt lat="47.88979" lon="-4.04653">
        <ele>42.6</ele>
        <time>2022-11-12T10:37:28Z</time>
      </trkpt>
      <trkpt lat="47.88977" lon="-4.04663">
        <ele>42.3</ele>
        <time>2022-11-12T10:37:29Z</time>
      </trkpt>
      <trkpt lat="47.88975" lon="-4.04674">
        <ele>42.1</ele>
        <time>2022-11-12T10:37:30Z</time>
      </trkpt>
      <trkpt lat="47.88973" lon="-4.04684">
        <ele>41.8</ele>
        <time>2022-11-12T10:37:31Z</time>
      </trkpt>
      <trkpt lat="47.8897" lon="-4.04695">
        <ele>41.5</ele>
        <time>2022-11-12T10:37:32Z</time>
      </trkpt>
      <trkpt lat="47.88968" lon="-4.04707">
        <ele>41.1</ele>
        <time>2022-11-12T10:37:33Z</time>
      </trkpt>
      <trkpt lat="47.88966" lon="-4.04718">
        <ele>40.7</ele>
        <time>2022-11-12T10:37:34Z</time>
      </trkpt>
      <trkpt lat="47.88964" lon="-4.0473">
        <ele>40.3</ele>
        <time>2022-11-12T10:37:35Z</time>
      </trkpt>
      <trkpt lat="47.88963" lon="-4.04742">
        <ele>39.9</ele>
        <time>2022-11-12T10:37:36Z</time>
      </trkpt>
      <trkpt lat="47.88961" lon="-4.04754">
        <ele>39.4</ele>
        <time>2022-11-12T10:37:37Z</time>
      </trkpt>
      <trkpt lat="47.88958" lon="-4.04765">
        <ele>38.9</ele>
        <time>2022-11-12T10:37:38Z</time>
      </trkpt>
      <trkpt lat="47.88955" lon="-4.04778">
        <ele>38.5</ele>
        <time>2022-11-12T10:37:39Z</time>
      </trkpt>
      <trkpt lat="47.88953" lon="-4.0479">
        <ele>38.1</ele>
        <time>2022-11-12T10:37:40Z</time>
      </trkpt>
      <trkpt lat="47.8895" lon="-4.04803">
        <ele>37.7</ele>
        <time>2022-11-12T10:37:41Z</time>
      </trkpt>
      <trkpt lat="47.88946" lon="-4.04816">
        <ele>37.4</ele>
        <time>2022-11-12T10:37:42Z</time>
      </trkpt>
      <trkpt lat="47.88943" lon="-4.04828">
        <ele>37.2</ele>
        <time>2022-11-12T10:37:43Z</time>
      </trkpt>
      <trkpt lat="47.88939" lon="-4.0484">
        <ele>37</ele>
        <time>2022-11-12T10:37:44Z</time>
      </trkpt>
      <trkpt lat="47.88936" lon="-4.04852">
        <ele>36.8</ele>
        <time>2022-11-12T10:37:45Z</time>
      </trkpt>
      <trkpt lat="47.88935" lon="-4.04864">
        <ele>36.9</ele>
        <time>2022-11-12T10:37:46Z</time>
      </trkpt>
      <trkpt lat="47.88934" lon="-4.04876">
        <ele>36.9</ele>
        <time>2022-11-12T10:37:47Z</time>
      </trkpt>
      <trkpt lat="47.88933" lon="-4.04887">
        <ele>37</ele>
        <time>2022-11-12T10:37:48Z</time>
      </trkpt>
      <trkpt lat="47.88932" lon="-4.04898">
        <ele>37.1</ele>
        <time>2022-11-12T10:37:49Z</time>
      </trkpt>
      <trkpt lat="47.88932" lon="-4.04909">
        <ele>37.2</ele>
        <time>2022-11-12T10:37:50Z</time>
      </trkpt>
      <trkpt lat="47.88931" lon="-4.0492">
        <ele>37.4</ele>
        <time>2022-11-12T10:37:51Z</time>
      </trkpt>
      <trkpt lat="47.8893" lon="-4.0493">
        <ele>37.6</ele>
        <time>2022-11-12T10:37:52Z</time>
      </trkpt>
      <trkpt lat="47.88929" lon="-4.0494">
        <ele>37.8</ele>
        <time>2022-11-12T10:37:53Z</time>
      </trkpt>
      <trkpt lat="47.88928" lon="-4.0495">
        <ele>37.9</ele>
        <time>2022-11-12T10:37:54Z</time>
      </trkpt>
      <trkpt lat="47.88927" lon="-4.04959">
        <ele>38.1</ele>
        <time>2022-11-12T10:37:55Z</time>
      </trkpt>
      <trkpt lat="47.88927" lon="-4.04969">
        <ele>38.3</ele>
        <time>2022-11-12T10:37:56Z</time>
      </trkpt>
      <trkpt lat="47.88928" lon="-4.04978">
        <ele>38.5</ele>
        <time>2022-11-12T10:37:57Z</time>
      </trkpt>
      <trkpt lat="47.88929" lon="-4.04988">
        <ele>38.6</ele>
        <time>2022-11-12T10:37:58Z</time>
      </trkpt>
      <trkpt lat="47.88931" lon="-4.04993">
        <ele>38.7</ele>
        <time>2022-11-12T10:37:59Z</time>
      </trkpt>
      <trkpt lat="47.88935" lon="-4.04997">
        <ele>38.7</ele>
        <time>2022-11-12T10:38:00Z</time>
      </trkpt>
      <trkpt lat="47.88941" lon="-4.04998">
        <ele>38.7</ele>
        <time>2022-11-12T10:38:01Z</time>
      </trkpt>
      <trkpt lat="47.88946" lon="-4.04997">
        <ele>38.7</ele>
        <time>2022-11-12T10:38:02Z</time>
      </trkpt>
      <trkpt lat="47.8895" lon="-4.04994">
        <ele>38.7</ele>
        <time>2022-11-12T10:38:03Z</time>
      </trkpt>
      <trkpt lat="47.88954" lon="-4.04991">
        <ele>38.7</ele>
        <time>2022-11-12T10:38:04Z</time>
      </trkpt>
      <trkpt lat="47.88958" lon="-4.04988">
        <ele>38.7</ele>
        <time>2022-11-12T10:38:05Z</time>
      </trkpt>
      <trkpt lat="47.88962" lon="-4.04985">
        <ele>38.7</ele>
        <time>2022-11-12T10:38:06Z</time>
      </trkpt>
      <trkpt lat="47.88967" lon="-4.04981">
        <ele>38.6</ele>
        <time>2022-11-12T10:38:07Z</time>
      </trkpt>
      <trkpt lat="47.88972" lon="-4.04977">
        <ele>38.6</ele>
        <time>2022-11-12T10:38:08Z</time>
      </trkpt>
      <trkpt lat="47.88977" lon="-4.04973">
        <ele>38.6</ele>
        <time>2022-11-12T10:38:09Z</time>
      </trkpt>
      <trkpt lat="47.88982" lon="-4.04969">
        <ele>38.5</ele>
        <time>2022-11-12T10:38:10Z</time>
      </trkpt>
      <trkpt lat="47.88986" lon="-4.04964">
        <ele>38.5</ele>
        <time>2022-11-12T10:38:11Z</time>
      </trkpt>
      <trkpt lat="47.88991" lon="-4.04958">
        <ele>38.5</ele>
        <time>2022-11-12T10:38:12Z</time>
      </trkpt>
      <trkpt lat="47.88996" lon="-4.04954">
        <ele>38.5</ele>
        <time>2022-11-12T10:38:13Z</time>
      </trkpt>
      <trkpt lat="47.89001" lon="-4.0495">
        <ele>38.5</ele>
        <time>2022-11-12T10:38:14Z</time>
      </trkpt>
      <trkpt lat="47.89007" lon="-4.04946">
        <ele>38.6</ele>
        <time>2022-11-12T10:38:15Z</time>
      </trkpt>
      <trkpt lat="47.89012" lon="-4.04941">
        <ele>38.6</ele>
        <time>2022-11-12T10:38:16Z</time>
      </trkpt>
      <trkpt lat="47.89017" lon="-4.04936">
        <ele>38.7</ele>
        <time>2022-11-12T10:38:17Z</time>
      </trkpt>
      <trkpt lat="47.89021" lon="-4.0493">
        <ele>38.8</ele>
        <time>2022-11-12T10:38:18Z</time>
      </trkpt>
      <trkpt lat="47.89026" lon="-4.04923">
        <ele>38.9</ele>
        <time>2022-11-12T10:38:19Z</time>
      </trkpt>
      <trkpt lat="47.8903" lon="-4.04917">
        <ele>38.9</ele>
        <time>2022-11-12T10:38:20Z</time>
      </trkpt>
      <trkpt lat="47.89035" lon="-4.04915">
        <ele>39</ele>
        <time>2022-11-12T10:38:21Z</time>
      </trkpt>
      <trkpt lat="47.89041" lon="-4.04915">
        <ele>39</ele>
        <time>2022-11-12T10:38:22Z</time>
      </trkpt>
      <trkpt lat="47.89046" lon="-4.04914">
        <ele>38.9</ele>
        <time>2022-11-12T10:38:23Z</time>
      </trkpt>
      <trkpt lat="47.89051" lon="-4.04914">
        <ele>38.9</ele>
        <time>2022-11-12T10:38:24Z</time>
      </trkpt>
      <trkpt lat="47.89056" lon="-4.04917">
        <ele>38.8</ele>
        <time>2022-11-12T10:38:25Z</time>
      </trkpt>
      <trkpt lat="47.89061" lon="-4.0492">
        <ele>38.8</ele>
        <time>2022-11-12T10:38:26Z</time>
      </trkpt>
      <trkpt lat="47.89065" lon="-4.04924">
        <ele>38.6</ele>
        <time>2022-11-12T10:38:27Z</time>
      </trkpt>
      <trkpt lat="47.89069" lon="-4.04929">
        <ele>38.5</ele>
        <time>2022-11-12T10:38:28Z</time>
      </trkpt>
      <trkpt lat="47.89073" lon="-4.04933">
        <ele>38.3</ele>
        <time>2022-11-12T10:38:29Z</time>
      </trkpt>
      <trkpt lat="47.89077" lon="-4.04938">
        <ele>38</ele>
        <time>2022-11-12T10:38:30Z</time>
      </trkpt>
      <trkpt lat="47.89082" lon="-4.04943">
        <ele>37.7</ele>
        <time>2022-11-12T10:38:31Z</time>
      </trkpt>
      <trkpt lat="47.89086" lon="-4.04949">
        <ele>37.3</ele>
        <time>2022-11-12T10:38:32Z</time>
      </trkpt>
      <trkpt lat="47.89092" lon="-4.04954">
        <ele>36.8</ele>
        <time>2022-11-12T10:38:33Z</time>
      </trkpt>
      <trkpt lat="47.89098" lon="-4.0496">
        <ele>36.2</ele>
        <time>2022-11-12T10:38:34Z</time>
      </trkpt>
      <trkpt lat="47.89103" lon="-4.04967">
        <ele>35.6</ele>
        <time>2022-11-12T10:38:35Z</time>
      </trkpt>
      <trkpt lat="47.89108" lon="-4.04973">
        <ele>35.1</ele>
        <time>2022-11-12T10:38:36Z</time>
      </trkpt>
      <trkpt lat="47.89114" lon="-4.0498">
        <ele>34.5</ele>
        <time>2022-11-12T10:38:37Z</time>
      </trkpt>
      <trkpt lat="47.89122" lon="-4.04988">
        <ele>34</ele>
        <time>2022-11-12T10:38:38Z</time>
      </trkpt>
      <trkpt lat="47.89129" lon="-4.04995">
        <ele>33.7</ele>
        <time>2022-11-12T10:38:39Z</time>
      </trkpt>
      <trkpt lat="47.89136" lon="-4.05001">
        <ele>33.6</ele>
        <time>2022-11-12T10:38:40Z</time>
      </trkpt>
      <trkpt lat="47.89144" lon="-4.05006">
        <ele>33.5</ele>
        <time>2022-11-12T10:38:41Z</time>
      </trkpt>
      <trkpt lat="47.89153" lon="-4.05009">
        <ele>33.6</ele>
        <time>2022-11-12T10:38:42Z</time>
      </trkpt>
      <trkpt lat="47.89162" lon="-4.05011">
        <ele>33.8</ele>
        <time>2022-11-12T10:38:43Z</time>
      </trkpt>
      <trkpt lat="47.8917" lon="-4.05013">
        <ele>34.1</ele>
        <time>2022-11-12T10:38:44Z</time>
      </trkpt>
      <trkpt lat="47.89177" lon="-4.05015">
        <ele>34.4</ele>
        <time>2022-11-12T10:38:45Z</time>
      </trkpt>
      <trkpt lat="47.89183" lon="-4.05016">
        <ele>34.7</ele>
        <time>2022-11-12T10:38:46Z</time>
      </trkpt>
      <trkpt lat="47.89189" lon="-4.05018">
        <ele>34.9</ele>
        <time>2022-11-12T10:38:47Z</time>
      </trkpt>
      <trkpt lat="47.89194" lon="-4.0502">
        <ele>35.2</ele>
        <time>2022-11-12T10:38:48Z</time>
      </trkpt>
      <trkpt lat="47.89198" lon="-4.05022">
        <ele>35.3</ele>
        <time>2022-11-12T10:38:49Z</time>
      </trkpt>
      <trkpt lat="47.89201" lon="-4.05024">
        <ele>35.4</ele>
        <time>2022-11-12T10:38:50Z</time>
      </trkpt>
      <trkpt lat="47.89205" lon="-4.05028">
        <ele>35.5</ele>
        <time>2022-11-12T10:38:51Z</time>
      </trkpt>
      <trkpt lat="47.89207" lon="-4.05033">
        <ele>35.6</ele>
        <time>2022-11-12T10:38:52Z</time>
      </trkpt>
      <trkpt lat="47.89207" lon="-4.05038">
        <ele>35.6</ele>
        <time>2022-11-12T10:38:53Z</time>
      </trkpt>
      <trkpt lat="47.89207" lon="-4.05045">
        <ele>35.5</ele>
        <time>2022-11-12T10:38:54Z</time>
      </trkpt>
      <trkpt lat="47.89207" lon="-4.05053">
        <ele>35.4</ele>
        <time>2022-11-12T10:38:55Z</time>
      </trkpt>
      <trkpt lat="47.89207" lon="-4.05061">
        <ele>35.3</ele>
        <time>2022-11-12T10:38:56Z</time>
      </trkpt>
      <trkpt lat="47.89207" lon="-4.05069">
        <ele>35.2</ele>
        <time>2022-11-12T10:38:57Z</time>
      </trkpt>
      <trkpt lat="47.89207" lon="-4.05078">
        <ele>35.1</ele>
        <time>2022-11-12T10:38:58Z</time>
      </trkpt>
      <trkpt lat="47.89206" lon="-4.05086">
        <ele>35.1</ele>
        <time>2022-11-12T10:38:59Z</time>
      </trkpt>
      <trkpt lat="47.89206" lon="-4.05093">
        <ele>35</ele>
        <time>2022-11-12T10:39:00Z</time>
      </trkpt>
      <trkpt lat="47.89205" lon="-4.05101">
        <ele>35</ele>
        <time>2022-11-12T10:39:01Z</time>
      </trkpt>
      <trkpt lat="47.89205" lon="-4.05109">
        <ele>34.9</ele>
        <time>2022-11-12T10:39:02Z</time>
      </trkpt>
      <trkpt lat="47.89204" lon="-4.05118">
        <ele>34.9</ele>
        <time>2022-11-12T10:39:03Z</time>
      </trkpt>
      <trkpt lat="47.89204" lon="-4.05127">
        <ele>34.8</ele>
        <time>2022-11-12T10:39:04Z</time>
      </trkpt>
      <trkpt lat="47.89204" lon="-4.05134">
        <ele>34.7</ele>
        <time>2022-11-12T10:39:05Z</time>
      </trkpt>
      <trkpt lat="47.89204" lon="-4.05143">
        <ele>34.6</ele>
        <time>2022-11-12T10:39:06Z</time>
      </trkpt>
      <trkpt lat="47.89205" lon="-4.05151">
        <ele>34.5</ele>
        <time>2022-11-12T10:39:07Z</time>
      </trkpt>
      <trkpt lat="47.89206" lon="-4.0516">
        <ele>34.4</ele>
        <time>2022-11-12T10:39:08Z</time>
      </trkpt>
      <trkpt lat="47.89208" lon="-4.05168">
        <ele>34.3</ele>
        <time>2022-11-12T10:39:09Z</time>
      </trkpt>
      <trkpt lat="47.89209" lon="-4.05176">
        <ele>34.3</ele>
        <time>2022-11-12T10:39:10Z</time>
      </trkpt>
      <trkpt lat="47.89211" lon="-4.05185">
        <ele>34.2</ele>
        <time>2022-11-12T10:39:11Z</time>
      </trkpt>
      <trkpt lat="47.89213" lon="-4.05193">
        <ele>34.2</ele>
        <time>2022-11-12T10:39:12Z</time>
      </trkpt>
      <trkpt lat="47.89215" lon="-4.05201">
        <ele>34.3</ele>
        <time>2022-11-12T10:39:13Z</time>
      </trkpt>
      <trkpt lat="47.89217" lon="-4.05208">
        <ele>34.3</ele>
        <time>2022-11-12T10:39:14Z</time>
      </trkpt>
      <trkpt lat="47.89219" lon="-4.05215">
        <ele>34.4</ele>
        <time>2022-11-12T10:39:15Z</time>
      </trkpt>
      <trkpt lat="47.8922" lon="-4.05224">
        <ele>34.5</ele>
        <time>2022-11-12T10:39:16Z</time>
      </trkpt>
      <trkpt lat="47.89222" lon="-4.05232">
        <ele>34.7</ele>
        <time>2022-11-12T10:39:17Z</time>
      </trkpt>
      <trkpt lat="47.89223" lon="-4.05239">
        <ele>34.8</ele>
        <time>2022-11-12T10:39:18Z</time>
      </trkpt>
      <trkpt lat="47.89225" lon="-4.05245">
        <ele>34.8</ele>
        <time>2022-11-12T10:39:19Z</time>
      </trkpt>
      <trkpt lat="47.89227" lon="-4.05252">
        <ele>34.9</ele>
        <time>2022-11-12T10:39:20Z</time>
      </trkpt>
      <trkpt lat="47.8923" lon="-4.05259">
        <ele>34.9</ele>
        <time>2022-11-12T10:39:21Z</time>
      </trkpt>
      <trkpt lat="47.89232" lon="-4.05266">
        <ele>34.9</ele>
        <time>2022-11-12T10:39:22Z</time>
      </trkpt>
      <trkpt lat="47.89234" lon="-4.05273">
        <ele>34.9</ele>
        <time>2022-11-12T10:39:23Z</time>
      </trkpt>
      <trkpt lat="47.89237" lon="-4.0528">
        <ele>34.9</ele>
        <time>2022-11-12T10:39:24Z</time>
      </trkpt>
      <trkpt lat="47.89241" lon="-4.05287">
        <ele>34.9</ele>
        <time>2022-11-12T10:39:25Z</time>
      </trkpt>
      <trkpt lat="47.89244" lon="-4.05295">
        <ele>34.9</ele>
        <time>2022-11-12T10:39:26Z</time>
      </trkpt>
      <trkpt lat="47.89247" lon="-4.05302">
        <ele>34.9</ele>
        <time>2022-11-12T10:39:27Z</time>
      </trkpt>
      <trkpt lat="47.89251" lon="-4.0531">
        <ele>34.9</ele>
        <time>2022-11-12T10:39:28Z</time>
      </trkpt>
      <trkpt lat="47.89254" lon="-4.05317">
        <ele>35</ele>
        <time>2022-11-12T10:39:29Z</time>
      </trkpt>
      <trkpt lat="47.89258" lon="-4.05325">
        <ele>35</ele>
        <time>2022-11-12T10:39:30Z</time>
      </trkpt>
      <trkpt lat="47.89261" lon="-4.05332">
        <ele>35.1</ele>
        <time>2022-11-12T10:39:31Z</time>
      </trkpt>
      <trkpt lat="47.89264" lon="-4.05339">
        <ele>35.2</ele>
        <time>2022-11-12T10:39:32Z</time>
      </trkpt>
      <trkpt lat="47.89268" lon="-4.05346">
        <ele>35.2</ele>
        <time>2022-11-12T10:39:33Z</time>
      </trkpt>
      <trkpt lat="47.89271" lon="-4.05352">
        <ele>35.3</ele>
        <time>2022-11-12T10:39:34Z</time>
      </trkpt>
      <trkpt lat="47.89275" lon="-4.05358">
        <ele>35.3</ele>
        <time>2022-11-12T10:39:35Z</time>
      </trkpt>
      <trkpt lat="47.89278" lon="-4.05365">
        <ele>35.3</ele>
        <time>2022-11-12T10:39:36Z</time>
      </trkpt>
      <trkpt lat="47.89282" lon="-4.05372">
        <ele>35.3</ele>
        <time>2022-11-12T10:39:37Z</time>
      </trkpt>
      <trkpt lat="47.89284" lon="-4.05379">
        <ele>35.3</ele>
        <time>2022-11-12T10:39:38Z</time>
      </trkpt>
      <trkpt lat="47.89287" lon="-4.05385">
        <ele>35.2</ele>
        <time>2022-11-12T10:39:39Z</time>
      </trkpt>
      <trkpt lat="47.89291" lon="-4.05393">
        <ele>35.2</ele>
        <time>2022-11-12T10:39:40Z</time>
      </trkpt>
      <trkpt lat="47.89295" lon="-4.05401">
        <ele>35.1</ele>
        <time>2022-11-12T10:39:41Z</time>
      </trkpt>
      <trkpt lat="47.89298" lon="-4.0541">
        <ele>35.1</ele>
        <time>2022-11-12T10:39:42Z</time>
      </trkpt>
      <trkpt lat="47.89301" lon="-4.05418">
        <ele>35.1</ele>
        <time>2022-11-12T10:39:43Z</time>
      </trkpt>
      <trkpt lat="47.89304" lon="-4.05426">
        <ele>35.2</ele>
        <time>2022-11-12T10:39:44Z</time>
      </trkpt>
      <trkpt lat="47.89307" lon="-4.05434">
        <ele>35.3</ele>
        <time>2022-11-12T10:39:45Z</time>
      </trkpt>
      <trkpt lat="47.89309" lon="-4.05442">
        <ele>35.4</ele>
        <time>2022-11-12T10:39:46Z</time>
      </trkpt>
      <trkpt lat="47.89311" lon="-4.05449">
        <ele>35.5</ele>
        <time>2022-11-12T10:39:47Z</time>
      </trkpt>
      <trkpt lat="47.89314" lon="-4.05457">
        <ele>35.7</ele>
        <time>2022-11-12T10:39:48Z</time>
      </trkpt>
      <trkpt lat="47.89317" lon="-4.05465">
        <ele>35.9</ele>
        <time>2022-11-12T10:39:49Z</time>
      </trkpt>
      <trkpt lat="47.8932" lon="-4.05472">
        <ele>36.1</ele>
        <time>2022-11-12T10:39:50Z</time>
      </trkpt>
      <trkpt lat="47.89322" lon="-4.05479">
        <ele>36.2</ele>
        <time>2022-11-12T10:39:51Z</time>
      </trkpt>
      <trkpt lat="47.89326" lon="-4.05483">
        <ele>36.4</ele>
        <time>2022-11-12T10:39:52Z</time>
      </trkpt>
      <trkpt lat="47.89329" lon="-4.05487">
        <ele>36.5</ele>
        <time>2022-11-12T10:39:53Z</time>
      </trkpt>
      <trkpt lat="47.89332" lon="-4.0549">
        <ele>36.6</ele>
        <time>2022-11-12T10:39:54Z</time>
      </trkpt>
      <trkpt lat="47.89338" lon="-4.05494">
        <ele>36.8</ele>
        <time>2022-11-12T10:39:55Z</time>
      </trkpt>
      <trkpt lat="47.89344" lon="-4.05495">
        <ele>36.9</ele>
        <time>2022-11-12T10:39:56Z</time>
      </trkpt>
      <trkpt lat="47.89348" lon="-4.05495">
        <ele>37.1</ele>
        <time>2022-11-12T10:39:57Z</time>
      </trkpt>
      <trkpt lat="47.89353" lon="-4.05496">
        <ele>37.2</ele>
        <time>2022-11-12T10:39:58Z</time>
      </trkpt>
      <trkpt lat="47.89357" lon="-4.05497">
        <ele>37.4</ele>
        <time>2022-11-12T10:39:59Z</time>
      </trkpt>
      <trkpt lat="47.89362" lon="-4.05498">
        <ele>37.5</ele>
        <time>2022-11-12T10:40:00Z</time>
      </trkpt>
      <trkpt lat="47.89367" lon="-4.05498">
        <ele>37.7</ele>
        <time>2022-11-12T10:40:01Z</time>
      </trkpt>
      <trkpt lat="47.89372" lon="-4.05499">
        <ele>37.8</ele>
        <time>2022-11-12T10:40:02Z</time>
      </trkpt>
      <trkpt lat="47.89377" lon="-4.055">
        <ele>38</ele>
        <time>2022-11-12T10:40:03Z</time>
      </trkpt>
      <trkpt lat="47.89381" lon="-4.055">
        <ele>38.1</ele>
        <time>2022-11-12T10:40:04Z</time>
      </trkpt>
      <trkpt lat="47.89384" lon="-4.05501">
        <ele>38.2</ele>
        <time>2022-11-12T10:40:05Z</time>
      </trkpt>
      <trkpt lat="47.89389" lon="-4.05501">
        <ele>38.4</ele>
        <time>2022-11-12T10:40:06Z</time>
      </trkpt>
      <trkpt lat="47.89395" lon="-4.05502">
        <ele>38.6</ele>
        <time>2022-11-12T10:40:07Z</time>
      </trkpt>
      <trkpt lat="47.894" lon="-4.05503">
        <ele>38.7</ele>
        <time>2022-11-12T10:40:08Z</time>
      </trkpt>
      <trkpt lat="47.89405" lon="-4.05503">
        <ele>38.9</ele>
        <time>2022-11-12T10:40:09Z</time>
      </trkpt>
      <trkpt lat="47.8941" lon="-4.05504">
        <ele>39.1</ele>
        <time>2022-11-12T10:40:10Z</time>
      </trkpt>
      <trkpt lat="47.89415" lon="-4.05504">
        <ele>39.2</ele>
        <time>2022-11-12T10:40:11Z</time>
      </trkpt>
      <trkpt lat="47.8942" lon="-4.05504">
        <ele>39.4</ele>
        <time>2022-11-12T10:40:12Z</time>
      </trkpt>
      <trkpt lat="47.89425" lon="-4.05504">
        <ele>39.6</ele>
        <time>2022-11-12T10:40:13Z</time>
      </trkpt>
      <trkpt lat="47.8943" lon="-4.05505">
        <ele>39.7</ele>
        <time>2022-11-12T10:40:14Z</time>
      </trkpt>
      <trkpt lat="47.89435" lon="-4.05505">
        <ele>39.9</ele>
        <time>2022-11-12T10:40:15Z</time>
      </trkpt>
      <trkpt lat="47.89439" lon="-4.05505">
        <ele>40.1</ele>
        <time>2022-11-12T10:40:16Z</time>
      </trkpt>
      <trkpt lat="47.89444" lon="-4.05505">
        <ele>40.3</ele>
        <time>2022-11-12T10:40:17Z</time>
      </trkpt>
      <trkpt lat="47.89449" lon="-4.05505">
        <ele>40.4</ele>
        <time>2022-11-12T10:40:18Z</time>
      </trkpt>
      <trkpt lat="47.89454" lon="-4.05506">
        <ele>40.6</ele>
        <time>2022-11-12T10:40:19Z</time>
      </trkpt>
      <trkpt lat="47.89458" lon="-4.05507">
        <ele>40.8</ele>
        <time>2022-11-12T10:40:20Z</time>
      </trkpt>
      <trkpt lat="47.89463" lon="-4.05508">
        <ele>40.9</ele>
        <time>2022-11-12T10:40:21Z</time>
      </trkpt>
      <trkpt lat="47.89468" lon="-4.05508">
        <ele>41.1</ele>
        <time>2022-11-12T10:40:22Z</time>
      </trkpt>
      <trkpt lat="47.89473" lon="-4.05508">
        <ele>41.3</ele>
        <time>2022-11-12T10:40:23Z</time>
      </trkpt>
      <trkpt lat="47.89479" lon="-4.05509">
        <ele>41.5</ele>
        <time>2022-11-12T10:40:24Z</time>
      </trkpt>
      <trkpt lat="47.89484" lon="-4.05509">
        <ele>41.7</ele>
        <time>2022-11-12T10:40:25Z</time>
      </trkpt>
      <trkpt lat="47.8949" lon="-4.05509">
        <ele>41.9</ele>
        <time>2022-11-12T10:40:26Z</time>
      </trkpt>
      <trkpt lat="47.89494" lon="-4.05509">
        <ele>42.1</ele>
        <time>2022-11-12T10:40:27Z</time>
      </trkpt>
      <trkpt lat="47.89499" lon="-4.0551">
        <ele>42.2</ele>
        <time>2022-11-12T10:40:28Z</time>
      </trkpt>
      <trkpt lat="47.89504" lon="-4.0551">
        <ele>42.3</ele>
        <time>2022-11-12T10:40:29Z</time>
      </trkpt>
      <trkpt lat="47.89509" lon="-4.05509">
        <ele>42.5</ele>
        <time>2022-11-12T10:40:30Z</time>
      </trkpt>
      <trkpt lat="47.89513" lon="-4.0551">
        <ele>42.6</ele>
        <time>2022-11-12T10:40:31Z</time>
      </trkpt>
      <trkpt lat="47.89518" lon="-4.0551">
        <ele>42.8</ele>
        <time>2022-11-12T10:40:32Z</time>
      </trkpt>
      <trkpt lat="47.89523" lon="-4.0551">
        <ele>42.9</ele>
        <time>2022-11-12T10:40:33Z</time>
      </trkpt>
      <trkpt lat="47.89528" lon="-4.0551">
        <ele>43.1</ele>
        <time>2022-11-12T10:40:34Z</time>
      </trkpt>
      <trkpt lat="47.89533" lon="-4.0551">
        <ele>43.3</ele>
        <time>2022-11-12T10:40:35Z</time>
      </trkpt>
      <trkpt lat="47.89538" lon="-4.05509">
        <ele>43.5</ele>
        <time>2022-11-12T10:40:36Z</time>
      </trkpt>
      <trkpt lat="47.89543" lon="-4.05509">
        <ele>43.8</ele>
        <time>2022-11-12T10:40:37Z</time>
      </trkpt>
      <trkpt lat="47.89548" lon="-4.05509">
        <ele>44.1</ele>
        <time>2022-11-12T10:40:38Z</time>
      </trkpt>
      <trkpt lat="47.89553" lon="-4.0551">
        <ele>44.4</ele>
        <time>2022-11-12T10:40:39Z</time>
      </trkpt>
      <trkpt lat="47.89557" lon="-4.0551">
        <ele>44.7</ele>
        <time>2022-11-12T10:40:40Z</time>
      </trkpt>
      <trkpt lat="47.89561" lon="-4.0551">
        <ele>44.9</ele>
        <time>2022-11-12T10:40:41Z</time>
      </trkpt>
      <trkpt lat="47.89565" lon="-4.05511">
        <ele>45.1</ele>
        <time>2022-11-12T10:40:42Z</time>
      </trkpt>
      <trkpt lat="47.89568" lon="-4.05511">
        <ele>45.3</ele>
        <time>2022-11-12T10:40:43Z</time>
      </trkpt>
      <trkpt lat="47.89572" lon="-4.05511">
        <ele>45.6</ele>
        <time>2022-11-12T10:40:44Z</time>
      </trkpt>
      <trkpt lat="47.89577" lon="-4.05512">
        <ele>45.9</ele>
        <time>2022-11-12T10:40:45Z</time>
      </trkpt>
      <trkpt lat="47.8958" lon="-4.05512">
        <ele>46.1</ele>
        <time>2022-11-12T10:40:46Z</time>
      </trkpt>
      <trkpt lat="47.89581" lon="-4.05512">
        <ele>46.1</ele>
        <time>2022-11-12T10:40:47Z</time>
      </trkpt>
      <trkpt lat="47.89589" lon="-4.05512">
        <ele>46.6</ele>
        <time>2022-11-12T10:40:49Z</time>
      </trkpt>
      <trkpt lat="47.896" lon="-4.05512">
        <ele>47</ele>
        <time>2022-11-12T10:40:50Z</time>
      </trkpt>
      <trkpt lat="47.89604" lon="-4.05512">
        <ele>47.2</ele>
        <time>2022-11-12T10:40:51Z</time>
      </trkpt>
      <trkpt lat="47.89608" lon="-4.05512">
        <ele>47.3</ele>
        <time>2022-11-12T10:40:52Z</time>
      </trkpt>
      <trkpt lat="47.8961" lon="-4.05512">
        <ele>47.4</ele>
        <time>2022-11-12T10:40:53Z</time>
      </trkpt>
      <trkpt lat="47.89616" lon="-4.05513">
        <ele>47.6</ele>
        <time>2022-11-12T10:40:54Z</time>
      </trkpt>
      <trkpt lat="47.89621" lon="-4.05514">
        <ele>47.8</ele>
        <time>2022-11-12T10:40:55Z</time>
      </trkpt>
      <trkpt lat="47.89626" lon="-4.05515">
        <ele>48</ele>
        <time>2022-11-12T10:40:56Z</time>
      </trkpt>
      <trkpt lat="47.89631" lon="-4.05513">
        <ele>48.1</ele>
        <time>2022-11-12T10:40:58Z</time>
      </trkpt>
      <trkpt lat="47.89638" lon="-4.05514">
        <ele>48.4</ele>
        <time>2022-11-12T10:40:59Z</time>
      </trkpt>
      <trkpt lat="47.89642" lon="-4.05515">
        <ele>48.5</ele>
        <time>2022-11-12T10:41:00Z</time>
      </trkpt>
      <trkpt lat="47.89648" lon="-4.05516">
        <ele>48.7</ele>
        <time>2022-11-12T10:41:02Z</time>
      </trkpt>
      <trkpt lat="47.89655" lon="-4.05517">
        <ele>48.9</ele>
        <time>2022-11-12T10:41:03Z</time>
      </trkpt>
      <trkpt lat="47.89662" lon="-4.05518">
        <ele>49.1</ele>
        <time>2022-11-12T10:41:04Z</time>
      </trkpt>
      <trkpt lat="47.89668" lon="-4.05518">
        <ele>49.3</ele>
        <time>2022-11-12T10:41:05Z</time>
      </trkpt>
      <trkpt lat="47.89671" lon="-4.05519">
        <ele>49.4</ele>
        <time>2022-11-12T10:41:06Z</time>
      </trkpt>
      <trkpt lat="47.89676" lon="-4.05518">
        <ele>49.5</ele>
        <time>2022-11-12T10:41:07Z</time>
      </trkpt>
      <trkpt lat="47.89681" lon="-4.05518">
        <ele>49.6</ele>
        <time>2022-11-12T10:41:08Z</time>
      </trkpt>
      <trkpt lat="47.89685" lon="-4.05518">
        <ele>49.7</ele>
        <time>2022-11-12T10:41:10Z</time>
      </trkpt>
      <trkpt lat="47.89691" lon="-4.05519">
        <ele>49.9</ele>
        <time>2022-11-12T10:41:11Z</time>
      </trkpt>
      <trkpt lat="47.89697" lon="-4.0552">
        <ele>50.1</ele>
        <time>2022-11-12T10:41:12Z</time>
      </trkpt>
      <trkpt lat="47.89702" lon="-4.05521">
        <ele>50.2</ele>
        <time>2022-11-12T10:41:13Z</time>
      </trkpt>
      <trkpt lat="47.89709" lon="-4.05521">
        <ele>50.5</ele>
        <time>2022-11-12T10:41:14Z</time>
      </trkpt>
      <trkpt lat="47.89714" lon="-4.05522">
        <ele>50.6</ele>
        <time>2022-11-12T10:41:15Z</time>
      </trkpt>
      <trkpt lat="47.89718" lon="-4.05522">
        <ele>50.7</ele>
        <time>2022-11-12T10:41:16Z</time>
      </trkpt>
      <trkpt lat="47.89722" lon="-4.05521">
        <ele>50.9</ele>
        <time>2022-11-12T10:41:18Z</time>
      </trkpt>
      <trkpt lat="47.89729" lon="-4.05521">
        <ele>51.1</ele>
        <time>2022-11-12T10:41:19Z</time>
      </trkpt>
      <trkpt lat="47.89734" lon="-4.05521">
        <ele>51.3</ele>
        <time>2022-11-12T10:41:20Z</time>
      </trkpt>
      <trkpt lat="47.89737" lon="-4.0552">
        <ele>51.4</ele>
        <time>2022-11-12T10:41:21Z</time>
      </trkpt>
      <trkpt lat="47.8974" lon="-4.0552">
        <ele>51.5</ele>
        <time>2022-11-12T10:41:22Z</time>
      </trkpt>
      <trkpt lat="47.89749" lon="-4.05523">
        <ele>51.8</ele>
        <time>2022-11-12T10:41:24Z</time>
      </trkpt>
      <trkpt lat="47.89754" lon="-4.05523">
        <ele>52</ele>
        <time>2022-11-12T10:41:25Z</time>
      </trkpt>
      <trkpt lat="47.8976" lon="-4.05523">
        <ele>52.2</ele>
        <time>2022-11-12T10:41:26Z</time>
      </trkpt>
      <trkpt lat="47.89766" lon="-4.05523">
        <ele>52.3</ele>
        <time>2022-11-12T10:41:28Z</time>
      </trkpt>
      <trkpt lat="47.89771" lon="-4.05524">
        <ele>52.4</ele>
        <time>2022-11-12T10:41:29Z</time>
      </trkpt>
      <trkpt lat="47.89779" lon="-4.05525">
        <ele>52.6</ele>
        <time>2022-11-12T10:41:30Z</time>
      </trkpt>
      <trkpt lat="47.89784" lon="-4.05525">
        <ele>52.7</ele>
        <time>2022-11-12T10:41:31Z</time>
      </trkpt>
      <trkpt lat="47.89788" lon="-4.05525">
        <ele>52.8</ele>
        <time>2022-11-12T10:41:32Z</time>
      </trkpt>
      <trkpt lat="47.89792" lon="-4.05528">
        <ele>52.9</ele>
        <time>2022-11-12T10:41:34Z</time>
      </trkpt>
      <trkpt lat="47.89799" lon="-4.05528">
        <ele>53</ele>
        <time>2022-11-12T10:41:35Z</time>
      </trkpt>
      <trkpt lat="47.89805" lon="-4.05527">
        <ele>53.1</ele>
        <time>2022-11-12T10:41:36Z</time>
      </trkpt>
      <trkpt lat="47.89813" lon="-4.05527">
        <ele>53.2</ele>
        <time>2022-11-12T10:41:37Z</time>
      </trkpt>
      <trkpt lat="47.89819" lon="-4.05526">
        <ele>53.2</ele>
        <time>2022-11-12T10:41:39Z</time>
      </trkpt>
      <trkpt lat="47.8983" lon="-4.05529">
        <ele>53.3</ele>
        <time>2022-11-12T10:41:40Z</time>
      </trkpt>
      <trkpt lat="47.89835" lon="-4.0553">
        <ele>53.3</ele>
        <time>2022-11-12T10:41:41Z</time>
      </trkpt>
      <trkpt lat="47.8984" lon="-4.05531">
        <ele>53.3</ele>
        <time>2022-11-12T10:41:42Z</time>
      </trkpt>
      <trkpt lat="47.89846" lon="-4.05532">
        <ele>53.4</ele>
        <time>2022-11-12T10:41:43Z</time>
      </trkpt>
      <trkpt lat="47.89851" lon="-4.05532">
        <ele>53.4</ele>
        <time>2022-11-12T10:41:44Z</time>
      </trkpt>
      <trkpt lat="47.89855" lon="-4.05533">
        <ele>53.4</ele>
        <time>2022-11-12T10:41:45Z</time>
      </trkpt>
      <trkpt lat="47.8986" lon="-4.05533">
        <ele>53.4</ele>
        <time>2022-11-12T10:41:46Z</time>
      </trkpt>
      <trkpt lat="47.89865" lon="-4.05533">
        <ele>53.5</ele>
        <time>2022-11-12T10:41:47Z</time>
      </trkpt>
      <trkpt lat="47.8987" lon="-4.05534">
        <ele>53.5</ele>
        <time>2022-11-12T10:41:48Z</time>
      </trkpt>
      <trkpt lat="47.89876" lon="-4.05534">
        <ele>53.6</ele>
        <time>2022-11-12T10:41:49Z</time>
      </trkpt>
      <trkpt lat="47.89882" lon="-4.05535">
        <ele>53.6</ele>
        <time>2022-11-12T10:41:50Z</time>
      </trkpt>
      <trkpt lat="47.89886" lon="-4.05535">
        <ele>53.7</ele>
        <time>2022-11-12T10:41:51Z</time>
      </trkpt>
      <trkpt lat="47.89891" lon="-4.05536">
        <ele>53.7</ele>
        <time>2022-11-12T10:41:52Z</time>
      </trkpt>
      <trkpt lat="47.89896" lon="-4.05537">
        <ele>53.8</ele>
        <time>2022-11-12T10:41:53Z</time>
      </trkpt>
      <trkpt lat="47.89901" lon="-4.05537">
        <ele>53.8</ele>
        <time>2022-11-12T10:41:54Z</time>
      </trkpt>
      <trkpt lat="47.89906" lon="-4.05538">
        <ele>53.9</ele>
        <time>2022-11-12T10:41:55Z</time>
      </trkpt>
      <trkpt lat="47.89911" lon="-4.05538">
        <ele>53.9</ele>
        <time>2022-11-12T10:41:56Z</time>
      </trkpt>
      <trkpt lat="47.89916" lon="-4.05538">
        <ele>54</ele>
        <time>2022-11-12T10:41:57Z</time>
      </trkpt>
      <trkpt lat="47.89922" lon="-4.05538">
        <ele>53.9</ele>
        <time>2022-11-12T10:41:58Z</time>
      </trkpt>
      <trkpt lat="47.89925" lon="-4.05539">
        <ele>53.9</ele>
        <time>2022-11-12T10:41:59Z</time>
      </trkpt>
      <trkpt lat="47.89928" lon="-4.05538">
        <ele>53.9</ele>
        <time>2022-11-12T10:42:00Z</time>
      </trkpt>
      <trkpt lat="47.89928" lon="-4.05537">
        <ele>54</ele>
        <time>2022-11-12T10:42:01Z</time>
      </trkpt>
      <trkpt lat="47.89929" lon="-4.05536">
        <ele>54</ele>
        <time>2022-11-12T10:42:02Z</time>
      </trkpt>
      <trkpt lat="47.89932" lon="-4.05528">
        <ele>54.1</ele>
        <time>2022-11-12T10:42:04Z</time>
      </trkpt>
      <trkpt lat="47.89932" lon="-4.05522">
        <ele>54.2</ele>
        <time>2022-11-12T10:42:05Z</time>
      </trkpt>
      <trkpt lat="47.89933" lon="-4.05513">
        <ele>54.3</ele>
        <time>2022-11-12T10:42:06Z</time>
      </trkpt>
      <trkpt lat="47.89933" lon="-4.05505">
        <ele>54.4</ele>
        <time>2022-11-12T10:42:07Z</time>
      </trkpt>
      <trkpt lat="47.89934" lon="-4.05498">
        <ele>54.5</ele>
        <time>2022-11-12T10:42:08Z</time>
      </trkpt>
      <trkpt lat="47.89933" lon="-4.0549">
        <ele>54.6</ele>
        <time>2022-11-12T10:42:09Z</time>
      </trkpt>
      <trkpt lat="47.89934" lon="-4.05482">
        <ele>54.7</ele>
        <time>2022-11-12T10:42:10Z</time>
      </trkpt>
      <trkpt lat="47.89935" lon="-4.05473">
        <ele>54.8</ele>
        <time>2022-11-12T10:42:11Z</time>
      </trkpt>
      <trkpt lat="47.89936" lon="-4.05466">
        <ele>54.9</ele>
        <time>2022-11-12T10:42:12Z</time>
      </trkpt>
      <trkpt lat="47.89937" lon="-4.05459">
        <ele>55</ele>
        <time>2022-11-12T10:42:13Z</time>
      </trkpt>
      <trkpt lat="47.89939" lon="-4.05451">
        <ele>55.1</ele>
        <time>2022-11-12T10:42:14Z</time>
      </trkpt>
      <trkpt lat="47.89941" lon="-4.05445">
        <ele>55.2</ele>
        <time>2022-11-12T10:42:15Z</time>
      </trkpt>
      <trkpt lat="47.89945" lon="-4.05438">
        <ele>55.3</ele>
        <time>2022-11-12T10:42:16Z</time>
      </trkpt>
      <trkpt lat="47.89948" lon="-4.05431">
        <ele>55.4</ele>
        <time>2022-11-12T10:42:17Z</time>
      </trkpt>
      <trkpt lat="47.89951" lon="-4.05426">
        <ele>55.5</ele>
        <time>2022-11-12T10:42:18Z</time>
      </trkpt>
      <trkpt lat="47.89956" lon="-4.0542">
        <ele>55.6</ele>
        <time>2022-11-12T10:42:19Z</time>
      </trkpt>
      <trkpt lat="47.8996" lon="-4.05415">
        <ele>55.7</ele>
        <time>2022-11-12T10:42:20Z</time>
      </trkpt>
      <trkpt lat="47.89964" lon="-4.0541">
        <ele>55.7</ele>
        <time>2022-11-12T10:42:21Z</time>
      </trkpt>
      <trkpt lat="47.89967" lon="-4.05404">
        <ele>55.8</ele>
        <time>2022-11-12T10:42:22Z</time>
      </trkpt>
      <trkpt lat="47.8997" lon="-4.05397">
        <ele>55.9</ele>
        <time>2022-11-12T10:42:23Z</time>
      </trkpt>
      <trkpt lat="47.89972" lon="-4.05389">
        <ele>55.9</ele>
        <time>2022-11-12T10:42:24Z</time>
      </trkpt>
      <trkpt lat="47.89973" lon="-4.05383">
        <ele>55.9</ele>
        <time>2022-11-12T10:42:25Z</time>
      </trkpt>
      <trkpt lat="47.89971" lon="-4.05378">
        <ele>56</ele>
        <time>2022-11-12T10:42:26Z</time>
      </trkpt>
      <trkpt lat="47.89971" lon="-4.05378">
        <ele>56</ele>
        <time>2022-11-12T10:42:27Z</time>
      </trkpt>
      <trkpt lat="47.89971" lon="-4.05376">
        <ele>56</ele>
        <time>2022-11-12T10:42:28Z</time>
      </trkpt>
      <trkpt lat="47.89971" lon="-4.05375">
        <ele>56</ele>
        <time>2022-11-12T10:42:29Z</time>
      </trkpt>
      <trkpt lat="47.89971" lon="-4.05374">
        <ele>56</ele>
        <time>2022-11-12T10:42:30Z</time>
      </trkpt>
      <trkpt lat="47.89971" lon="-4.05374">
        <ele>56</ele>
        <time>2022-11-12T10:42:31Z</time>
      </trkpt>
      <trkpt lat="47.89971" lon="-4.05374">
        <ele>56</ele>
        <time>2022-11-12T10:42:32Z</time>
      </trkpt>
      <trkpt lat="47.89971" lon="-4.05375">
        <ele>56</ele>
        <time>2022-11-12T10:42:33Z</time>
      </trkpt>
      <trkpt lat="47.89971" lon="-4.05375">
        <ele>56</ele>
        <time>2022-11-12T10:42:34Z</time>
      </trkpt>
      <trkpt lat="47.8997" lon="-4.05375">
        <ele>56</ele>
        <time>2022-11-12T10:42:35Z</time>
      </trkpt>
      <trkpt lat="47.8997" lon="-4.05375">
        <ele>56</ele>
        <time>2022-11-12T10:42:36Z</time>
      </trkpt>
      <trkpt lat="47.8997" lon="-4.05374">
        <ele>56</ele>
        <time>2022-11-12T10:42:37Z</time>
      </trkpt>
      <trkpt lat="47.8997" lon="-4.05373">
        <ele>56</ele>
        <time>2022-11-12T10:42:38Z</time>
      </trkpt>
      <trkpt lat="47.89971" lon="-4.05374">
        <ele>56</ele>
        <time>2022-11-12T10:42:40Z</time>
      </trkpt>
      <trkpt lat="47.89971" lon="-4.05374">
        <ele>56</ele>
        <time>2022-11-12T10:42:41Z</time>
      </trkpt>
      <trkpt lat="47.89972" lon="-4.05374">
        <ele>56</ele>
        <time>2022-11-12T10:42:42Z</time>
      </trkpt>
      <trkpt lat="47.89972" lon="-4.05375">
        <ele>56</ele>
        <time>2022-11-12T10:42:43Z</time>
      </trkpt>
      <trkpt lat="47.89972" lon="-4.05375">
        <ele>56</ele>
        <time>2022-11-12T10:42:44Z</time>
      </trkpt>
      <trkpt lat="47.89972" lon="-4.05375">
        <ele>56</ele>
        <time>2022-11-12T10:42:45Z</time>
      </trkpt>
      <trkpt lat="47.89973" lon="-4.05375">
        <ele>56</ele>
        <time>2022-11-12T10:42:46Z</time>
      </trkpt>
      <trkpt lat="47.89973" lon="-4.05376">
        <ele>56</ele>
        <time>2022-11-12T10:42:48Z</time>
      </trkpt>
      <trkpt lat="47.89973" lon="-4.05376">
        <ele>56</ele>
        <time>2022-11-12T10:42:49Z</time>
      </trkpt>
      <trkpt lat="47.89973" lon="-4.05376">
        <ele>56</ele>
        <time>2022-11-12T10:42:50Z</time>
      </trkpt>
      <trkpt lat="47.89974" lon="-4.05376">
        <ele>56</ele>
        <time>2022-11-12T10:42:51Z</time>
      </trkpt>
      <trkpt lat="47.89974" lon="-4.05377">
        <ele>56</ele>
        <time>2022-11-12T10:42:53Z</time>
      </trkpt>
      <trkpt lat="47.89974" lon="-4.05377">
        <ele>56</ele>
        <time>2022-11-12T10:42:54Z</time>
      </trkpt>
      <trkpt lat="47.89974" lon="-4.05377">
        <ele>56</ele>
        <time>2022-11-12T10:42:55Z</time>
      </trkpt>
      <trkpt lat="47.89975" lon="-4.05377">
        <ele>56</ele>
        <time>2022-11-12T10:42:56Z</time>
      </trkpt>
      <trkpt lat="47.89975" lon="-4.05378">
        <ele>56</ele>
        <time>2022-11-12T10:42:58Z</time>
      </trkpt>
      <trkpt lat="47.89975" lon="-4.05378">
        <ele>56</ele>
        <time>2022-11-12T10:42:59Z</time>
      </trkpt>
      <trkpt lat="47.89975" lon="-4.05378">
        <ele>56</ele>
        <time>2022-11-12T10:43:00Z</time>
      </trkpt>
      <trkpt lat="47.89976" lon="-4.05378">
        <ele>56</ele>
        <time>2022-11-12T10:43:21Z</time>
      </trkpt>
      <trkpt lat="47.89976" lon="-4.05378">
        <ele>56</ele>
        <time>2022-11-12T10:43:23Z</time>
      </trkpt>
      <trkpt lat="47.89976" lon="-4.05379">
        <ele>56</ele>
        <time>2022-11-12T10:43:24Z</time>
      </trkpt>
      <trkpt lat="47.89976" lon="-4.05379">
        <ele>56</ele>
        <time>2022-11-12T10:43:25Z</time>
      </trkpt>
      <trkpt lat="47.89977" lon="-4.05379">
        <ele>56</ele>
        <time>2022-11-12T10:43:26Z</time>
      </trkpt>
      <trkpt lat="47.89983" lon="-4.05381">
        <ele>56</ele>
        <time>2022-11-12T10:43:28Z</time>
      </trkpt>
      <trkpt lat="47.8999" lon="-4.05381">
        <ele>56</ele>
        <time>2022-11-12T10:43:29Z</time>
      </trkpt>
      <trkpt lat="47.89994" lon="-4.05381">
        <ele>56</ele>
        <time>2022-11-12T10:43:30Z</time>
      </trkpt>
      <trkpt lat="47.89999" lon="-4.05382">
        <ele>55.9</ele>
        <time>2022-11-12T10:43:31Z</time>
      </trkpt>
      <trkpt lat="47.90005" lon="-4.05382">
        <ele>55.8</ele>
        <time>2022-11-12T10:43:32Z</time>
      </trkpt>
      <trkpt lat="47.90011" lon="-4.05382">
        <ele>55.8</ele>
        <time>2022-11-12T10:43:33Z</time>
      </trkpt>
      <trkpt lat="47.90017" lon="-4.05383">
        <ele>55.8</ele>
        <time>2022-11-12T10:43:34Z</time>
      </trkpt>
      <trkpt lat="47.90023" lon="-4.05383">
        <ele>55.7</ele>
        <time>2022-11-12T10:43:35Z</time>
      </trkpt>
      <trkpt lat="47.90029" lon="-4.05383">
        <ele>55.7</ele>
        <time>2022-11-12T10:43:36Z</time>
      </trkpt>
      <trkpt lat="47.90034" lon="-4.05384">
        <ele>55.7</ele>
        <time>2022-11-12T10:43:37Z</time>
      </trkpt>
      <trkpt lat="47.90039" lon="-4.05384">
        <ele>55.6</ele>
        <time>2022-11-12T10:43:38Z</time>
      </trkpt>
      <trkpt lat="47.90045" lon="-4.05385">
        <ele>55.6</ele>
        <time>2022-11-12T10:43:39Z</time>
      </trkpt>
      <trkpt lat="47.90051" lon="-4.05386">
        <ele>55.5</ele>
        <time>2022-11-12T10:43:40Z</time>
      </trkpt>
      <trkpt lat="47.90056" lon="-4.05387">
        <ele>55.3</ele>
        <time>2022-11-12T10:43:41Z</time>
      </trkpt>
      <trkpt lat="47.90063" lon="-4.05388">
        <ele>55.2</ele>
        <time>2022-11-12T10:43:42Z</time>
      </trkpt>
      <trkpt lat="47.90069" lon="-4.05388">
        <ele>55.1</ele>
        <time>2022-11-12T10:43:43Z</time>
      </trkpt>
      <trkpt lat="47.90076" lon="-4.05389">
        <ele>54.9</ele>
        <time>2022-11-12T10:43:44Z</time>
      </trkpt>
      <trkpt lat="47.90082" lon="-4.05391">
        <ele>54.8</ele>
        <time>2022-11-12T10:43:45Z</time>
      </trkpt>
      <trkpt lat="47.90089" lon="-4.05391">
        <ele>54.6</ele>
        <time>2022-11-12T10:43:46Z</time>
      </trkpt>
      <trkpt lat="47.90096" lon="-4.05392">
        <ele>54.4</ele>
        <time>2022-11-12T10:43:47Z</time>
      </trkpt>
      <trkpt lat="47.90102" lon="-4.05393">
        <ele>54.3</ele>
        <time>2022-11-12T10:43:48Z</time>
      </trkpt>
      <trkpt lat="47.90109" lon="-4.05394">
        <ele>54.1</ele>
        <time>2022-11-12T10:43:49Z</time>
      </trkpt>
      <trkpt lat="47.90116" lon="-4.05394">
        <ele>53.9</ele>
        <time>2022-11-12T10:43:50Z</time>
      </trkpt>
      <trkpt lat="47.90124" lon="-4.05392">
        <ele>53.7</ele>
        <time>2022-11-12T10:43:51Z</time>
      </trkpt>
      <trkpt lat="47.90131" lon="-4.05391">
        <ele>53.5</ele>
        <time>2022-11-12T10:43:52Z</time>
      </trkpt>
      <trkpt lat="47.90139" lon="-4.05391">
        <ele>53.3</ele>
        <time>2022-11-12T10:43:53Z</time>
      </trkpt>
      <trkpt lat="47.90147" lon="-4.05393">
        <ele>53.1</ele>
        <time>2022-11-12T10:43:54Z</time>
      </trkpt>
      <trkpt lat="47.90154" lon="-4.05394">
        <ele>52.9</ele>
        <time>2022-11-12T10:43:55Z</time>
      </trkpt>
      <trkpt lat="47.90161" lon="-4.05395">
        <ele>52.7</ele>
        <time>2022-11-12T10:43:56Z</time>
      </trkpt>
      <trkpt lat="47.90169" lon="-4.05395">
        <ele>52.5</ele>
        <time>2022-11-12T10:43:57Z</time>
      </trkpt>
      <trkpt lat="47.90177" lon="-4.05394">
        <ele>52.4</ele>
        <time>2022-11-12T10:43:58Z</time>
      </trkpt>
      <trkpt lat="47.90184" lon="-4.05394">
        <ele>52.3</ele>
        <time>2022-11-12T10:43:59Z</time>
      </trkpt>
      <trkpt lat="47.90192" lon="-4.05396">
        <ele>52.2</ele>
        <time>2022-11-12T10:44:00Z</time>
      </trkpt>
      <trkpt lat="47.902" lon="-4.05397">
        <ele>52.2</ele>
        <time>2022-11-12T10:44:01Z</time>
      </trkpt>
      <trkpt lat="47.90207" lon="-4.05396">
        <ele>52.3</ele>
        <time>2022-11-12T10:44:02Z</time>
      </trkpt>
      <trkpt lat="47.90214" lon="-4.05397">
        <ele>52.4</ele>
        <time>2022-11-12T10:44:03Z</time>
      </trkpt>
      <trkpt lat="47.9022" lon="-4.05397">
        <ele>52.5</ele>
        <time>2022-11-12T10:44:04Z</time>
      </trkpt>
      <trkpt lat="47.90226" lon="-4.05399">
        <ele>52.6</ele>
        <time>2022-11-12T10:44:05Z</time>
      </trkpt>
      <trkpt lat="47.90233" lon="-4.054">
        <ele>52.8</ele>
        <time>2022-11-12T10:44:06Z</time>
      </trkpt>
      <trkpt lat="47.90239" lon="-4.054">
        <ele>53</ele>
        <time>2022-11-12T10:44:07Z</time>
      </trkpt>
      <trkpt lat="47.90246" lon="-4.05401">
        <ele>53.1</ele>
        <time>2022-11-12T10:44:08Z</time>
      </trkpt>
      <trkpt lat="47.90252" lon="-4.05402">
        <ele>53.3</ele>
        <time>2022-11-12T10:44:09Z</time>
      </trkpt>
      <trkpt lat="47.90259" lon="-4.05403">
        <ele>53.4</ele>
        <time>2022-11-12T10:44:10Z</time>
      </trkpt>
      <trkpt lat="47.90265" lon="-4.05403">
        <ele>53.5</ele>
        <time>2022-11-12T10:44:11Z</time>
      </trkpt>
      <trkpt lat="47.90272" lon="-4.05404">
        <ele>53.5</ele>
        <time>2022-11-12T10:44:12Z</time>
      </trkpt>
      <trkpt lat="47.90279" lon="-4.05404">
        <ele>53.5</ele>
        <time>2022-11-12T10:44:13Z</time>
      </trkpt>
      <trkpt lat="47.90286" lon="-4.05404">
        <ele>53.4</ele>
        <time>2022-11-12T10:44:14Z</time>
      </trkpt>
      <trkpt lat="47.90291" lon="-4.05405">
        <ele>53.3</ele>
        <time>2022-11-12T10:44:15Z</time>
      </trkpt>
      <trkpt lat="47.90298" lon="-4.05406">
        <ele>53.1</ele>
        <time>2022-11-12T10:44:16Z</time>
      </trkpt>
      <trkpt lat="47.90307" lon="-4.05406">
        <ele>52.8</ele>
        <time>2022-11-12T10:44:17Z</time>
      </trkpt>
      <trkpt lat="47.90318" lon="-4.05408">
        <ele>52.5</ele>
        <time>2022-11-12T10:44:18Z</time>
      </trkpt>
      <trkpt lat="47.90324" lon="-4.05408">
        <ele>52.3</ele>
        <time>2022-11-12T10:44:19Z</time>
      </trkpt>
      <trkpt lat="47.9033" lon="-4.05409">
        <ele>52.1</ele>
        <time>2022-11-12T10:44:20Z</time>
      </trkpt>
      <trkpt lat="47.90338" lon="-4.05409">
        <ele>52</ele>
        <time>2022-11-12T10:44:21Z</time>
      </trkpt>
      <trkpt lat="47.90345" lon="-4.0541">
        <ele>52</ele>
        <time>2022-11-12T10:44:22Z</time>
      </trkpt>
      <trkpt lat="47.90351" lon="-4.0541">
        <ele>52</ele>
        <time>2022-11-12T10:44:23Z</time>
      </trkpt>
      <trkpt lat="47.90358" lon="-4.0541">
        <ele>52</ele>
        <time>2022-11-12T10:44:24Z</time>
      </trkpt>
      <trkpt lat="47.90365" lon="-4.0541">
        <ele>52</ele>
        <time>2022-11-12T10:44:25Z</time>
      </trkpt>
      <trkpt lat="47.90371" lon="-4.05411">
        <ele>52.1</ele>
        <time>2022-11-12T10:44:26Z</time>
      </trkpt>
      <trkpt lat="47.90377" lon="-4.0541">
        <ele>52.1</ele>
        <time>2022-11-12T10:44:27Z</time>
      </trkpt>
      <trkpt lat="47.90383" lon="-4.0541">
        <ele>52.3</ele>
        <time>2022-11-12T10:44:28Z</time>
      </trkpt>
      <trkpt lat="47.9039" lon="-4.0541">
        <ele>52.4</ele>
        <time>2022-11-12T10:44:29Z</time>
      </trkpt>
      <trkpt lat="47.90395" lon="-4.05411">
        <ele>52.5</ele>
        <time>2022-11-12T10:44:30Z</time>
      </trkpt>
      <trkpt lat="47.90402" lon="-4.05413">
        <ele>52.6</ele>
        <time>2022-11-12T10:44:31Z</time>
      </trkpt>
      <trkpt lat="47.90407" lon="-4.05413">
        <ele>52.8</ele>
        <time>2022-11-12T10:44:32Z</time>
      </trkpt>
      <trkpt lat="47.90411" lon="-4.05414">
        <ele>52.8</ele>
        <time>2022-11-12T10:44:33Z</time>
      </trkpt>
      <trkpt lat="47.90416" lon="-4.05415">
        <ele>52.9</ele>
        <time>2022-11-12T10:44:34Z</time>
      </trkpt>
      <trkpt lat="47.90421" lon="-4.05415">
        <ele>53</ele>
        <time>2022-11-12T10:44:35Z</time>
      </trkpt>
      <trkpt lat="47.90427" lon="-4.05416">
        <ele>53.1</ele>
        <time>2022-11-12T10:44:36Z</time>
      </trkpt>
      <trkpt lat="47.90432" lon="-4.05416">
        <ele>53.3</ele>
        <time>2022-11-12T10:44:37Z</time>
      </trkpt>
      <trkpt lat="47.90438" lon="-4.05417">
        <ele>53.4</ele>
        <time>2022-11-12T10:44:38Z</time>
      </trkpt>
      <trkpt lat="47.90443" lon="-4.05416">
        <ele>53.5</ele>
        <time>2022-11-12T10:44:39Z</time>
      </trkpt>
      <trkpt lat="47.90448" lon="-4.05416">
        <ele>53.7</ele>
        <time>2022-11-12T10:44:40Z</time>
      </trkpt>
      <trkpt lat="47.90454" lon="-4.05416">
        <ele>53.9</ele>
        <time>2022-11-12T10:44:41Z</time>
      </trkpt>
      <trkpt lat="47.9046" lon="-4.05417">
        <ele>54.1</ele>
        <time>2022-11-12T10:44:42Z</time>
      </trkpt>
      <trkpt lat="47.90466" lon="-4.05417">
        <ele>54.4</ele>
        <time>2022-11-12T10:44:43Z</time>
      </trkpt>
      <trkpt lat="47.90472" lon="-4.05417">
        <ele>54.6</ele>
        <time>2022-11-12T10:44:44Z</time>
      </trkpt>
      <trkpt lat="47.90477" lon="-4.05416">
        <ele>54.8</ele>
        <time>2022-11-12T10:44:45Z</time>
      </trkpt>
      <trkpt lat="47.90483" lon="-4.05416">
        <ele>55.1</ele>
        <time>2022-11-12T10:44:46Z</time>
      </trkpt>
      <trkpt lat="47.90489" lon="-4.05416">
        <ele>55.4</ele>
        <time>2022-11-12T10:44:47Z</time>
      </trkpt>
      <trkpt lat="47.90494" lon="-4.05416">
        <ele>55.7</ele>
        <time>2022-11-12T10:44:48Z</time>
      </trkpt>
      <trkpt lat="47.90499" lon="-4.05417">
        <ele>55.9</ele>
        <time>2022-11-12T10:44:49Z</time>
      </trkpt>
      <trkpt lat="47.90505" lon="-4.05418">
        <ele>56.2</ele>
        <time>2022-11-12T10:44:50Z</time>
      </trkpt>
      <trkpt lat="47.90511" lon="-4.05418">
        <ele>56.5</ele>
        <time>2022-11-12T10:44:51Z</time>
      </trkpt>
      <trkpt lat="47.90516" lon="-4.05418">
        <ele>56.7</ele>
        <time>2022-11-12T10:44:52Z</time>
      </trkpt>
      <trkpt lat="47.90521" lon="-4.05418">
        <ele>57</ele>
        <time>2022-11-12T10:44:53Z</time>
      </trkpt>
      <trkpt lat="47.90527" lon="-4.05418">
        <ele>57.3</ele>
        <time>2022-11-12T10:44:54Z</time>
      </trkpt>
      <trkpt lat="47.90531" lon="-4.05419">
        <ele>57.5</ele>
        <time>2022-11-12T10:44:55Z</time>
      </trkpt>
      <trkpt lat="47.90534" lon="-4.05419">
        <ele>57.7</ele>
        <time>2022-11-12T10:44:56Z</time>
      </trkpt>
      <trkpt lat="47.90539" lon="-4.0542">
        <ele>57.9</ele>
        <time>2022-11-12T10:44:57Z</time>
      </trkpt>
      <trkpt lat="47.90545" lon="-4.05421">
        <ele>58.3</ele>
        <time>2022-11-12T10:44:58Z</time>
      </trkpt>
      <trkpt lat="47.90551" lon="-4.05422">
        <ele>58.6</ele>
        <time>2022-11-12T10:44:59Z</time>
      </trkpt>
      <trkpt lat="47.90556" lon="-4.05423">
        <ele>58.8</ele>
        <time>2022-11-12T10:45:00Z</time>
      </trkpt>
      <trkpt lat="47.90559" lon="-4.05424">
        <ele>59</ele>
        <time>2022-11-12T10:45:01Z</time>
      </trkpt>
      <trkpt lat="47.90566" lon="-4.05424">
        <ele>59.4</ele>
        <time>2022-11-12T10:45:02Z</time>
      </trkpt>
      <trkpt lat="47.90573" lon="-4.05425">
        <ele>59.6</ele>
        <time>2022-11-12T10:45:03Z</time>
      </trkpt>
      <trkpt lat="47.90578" lon="-4.05425">
        <ele>59.8</ele>
        <time>2022-11-12T10:45:04Z</time>
      </trkpt>
      <trkpt lat="47.90583" lon="-4.05427">
        <ele>60</ele>
        <time>2022-11-12T10:45:05Z</time>
      </trkpt>
      <trkpt lat="47.90588" lon="-4.05428">
        <ele>60.2</ele>
        <time>2022-11-12T10:45:06Z</time>
      </trkpt>
      <trkpt lat="47.90593" lon="-4.05427">
        <ele>60.3</ele>
        <time>2022-11-12T10:45:07Z</time>
      </trkpt>
      <trkpt lat="47.90596" lon="-4.05427">
        <ele>60.4</ele>
        <time>2022-11-12T10:45:08Z</time>
      </trkpt>
      <trkpt lat="47.90601" lon="-4.05426">
        <ele>60.6</ele>
        <time>2022-11-12T10:45:09Z</time>
      </trkpt>
      <trkpt lat="47.90608" lon="-4.05427">
        <ele>60.7</ele>
        <time>2022-11-12T10:45:10Z</time>
      </trkpt>
      <trkpt lat="47.90613" lon="-4.05426">
        <ele>60.9</ele>
        <time>2022-11-12T10:45:11Z</time>
      </trkpt>
      <trkpt lat="47.90619" lon="-4.05426">
        <ele>61</ele>
        <time>2022-11-12T10:45:12Z</time>
      </trkpt>
      <trkpt lat="47.90625" lon="-4.05427">
        <ele>61.2</ele>
        <time>2022-11-12T10:45:13Z</time>
      </trkpt>
      <trkpt lat="47.90631" lon="-4.05428">
        <ele>61.3</ele>
        <time>2022-11-12T10:45:14Z</time>
      </trkpt>
      <trkpt lat="47.90637" lon="-4.05428">
        <ele>61.5</ele>
        <time>2022-11-12T10:45:15Z</time>
      </trkpt>
      <trkpt lat="47.90643" lon="-4.05427">
        <ele>61.6</ele>
        <time>2022-11-12T10:45:16Z</time>
      </trkpt>
      <trkpt lat="47.90649" lon="-4.05426">
        <ele>61.8</ele>
        <time>2022-11-12T10:45:17Z</time>
      </trkpt>
      <trkpt lat="47.90654" lon="-4.05426">
        <ele>61.9</ele>
        <time>2022-11-12T10:45:18Z</time>
      </trkpt>
      <trkpt lat="47.90659" lon="-4.05426">
        <ele>62</ele>
        <time>2022-11-12T10:45:19Z</time>
      </trkpt>
      <trkpt lat="47.90663" lon="-4.05426">
        <ele>62.1</ele>
        <time>2022-11-12T10:45:20Z</time>
      </trkpt>
      <trkpt lat="47.90667" lon="-4.05425">
        <ele>62.2</ele>
        <time>2022-11-12T10:45:21Z</time>
      </trkpt>
      <trkpt lat="47.90677" lon="-4.05427">
        <ele>62.5</ele>
        <time>2022-11-12T10:45:23Z</time>
      </trkpt>
      <trkpt lat="47.90682" lon="-4.05428">
        <ele>62.7</ele>
        <time>2022-11-12T10:45:24Z</time>
      </trkpt>
      <trkpt lat="47.90687" lon="-4.05428">
        <ele>62.8</ele>
        <time>2022-11-12T10:45:25Z</time>
      </trkpt>
      <trkpt lat="47.90691" lon="-4.05429">
        <ele>62.9</ele>
        <time>2022-11-12T10:45:26Z</time>
      </trkpt>
      <trkpt lat="47.90698" lon="-4.0543">
        <ele>63.1</ele>
        <time>2022-11-12T10:45:27Z</time>
      </trkpt>
      <trkpt lat="47.90702" lon="-4.0543">
        <ele>63.2</ele>
        <time>2022-11-12T10:45:28Z</time>
      </trkpt>
      <trkpt lat="47.90707" lon="-4.05431">
        <ele>63.3</ele>
        <time>2022-11-12T10:45:29Z</time>
      </trkpt>
      <trkpt lat="47.9071" lon="-4.05433">
        <ele>63.4</ele>
        <time>2022-11-12T10:45:31Z</time>
      </trkpt>
      <trkpt lat="47.90722" lon="-4.05433">
        <ele>63.6</ele>
        <time>2022-11-12T10:45:32Z</time>
      </trkpt>
      <trkpt lat="47.90727" lon="-4.05433">
        <ele>63.8</ele>
        <time>2022-11-12T10:45:33Z</time>
      </trkpt>
      <trkpt lat="47.90732" lon="-4.05434">
        <ele>63.9</ele>
        <time>2022-11-12T10:45:34Z</time>
      </trkpt>
      <trkpt lat="47.90737" lon="-4.05434">
        <ele>64</ele>
        <time>2022-11-12T10:45:35Z</time>
      </trkpt>
      <trkpt lat="47.90742" lon="-4.05435">
        <ele>64.2</ele>
        <time>2022-11-12T10:45:36Z</time>
      </trkpt>
      <trkpt lat="47.90743" lon="-4.05436">
        <ele>64.2</ele>
        <time>2022-11-12T10:45:37Z</time>
      </trkpt>
      <trkpt lat="47.9075" lon="-4.05436">
        <ele>64.4</ele>
        <time>2022-11-12T10:45:39Z</time>
      </trkpt>
      <trkpt lat="47.90757" lon="-4.05437">
        <ele>64.5</ele>
        <time>2022-11-12T10:45:40Z</time>
      </trkpt>
      <trkpt lat="47.9076" lon="-4.05436">
        <ele>64.6</ele>
        <time>2022-11-12T10:45:41Z</time>
      </trkpt>
      <trkpt lat="47.90766" lon="-4.05433">
        <ele>64.8</ele>
        <time>2022-11-12T10:45:42Z</time>
      </trkpt>
      <trkpt lat="47.90769" lon="-4.05432">
        <ele>64.9</ele>
        <time>2022-11-12T10:45:43Z</time>
      </trkpt>
      <trkpt lat="47.9077" lon="-4.05434">
        <ele>65</ele>
        <time>2022-11-12T10:45:44Z</time>
      </trkpt>
      <trkpt lat="47.9077" lon="-4.05436">
        <ele>65</ele>
        <time>2022-11-12T10:45:45Z</time>
      </trkpt>
      <trkpt lat="47.90769" lon="-4.05436">
        <ele>65</ele>
        <time>2022-11-12T10:45:46Z</time>
      </trkpt>
      <trkpt lat="47.90769" lon="-4.05436">
        <ele>65.1</ele>
        <time>2022-11-12T10:45:47Z</time>
      </trkpt>
      <trkpt lat="47.90769" lon="-4.05436">
        <ele>65.1</ele>
        <time>2022-11-12T10:45:48Z</time>
      </trkpt>
      <trkpt lat="47.90769" lon="-4.05436">
        <ele>65.1</ele>
        <time>2022-11-12T10:45:49Z</time>
      </trkpt>
      <trkpt lat="47.90769" lon="-4.05436">
        <ele>65.1</ele>
        <time>2022-11-12T10:45:50Z</time>
      </trkpt>
      <trkpt lat="47.90769" lon="-4.05436">
        <ele>65.1</ele>
        <time>2022-11-12T10:45:51Z</time>
      </trkpt>
      <trkpt lat="47.90768" lon="-4.05436">
        <ele>65.1</ele>
        <time>2022-11-12T10:45:53Z</time>
      </trkpt>
      <trkpt lat="47.90768" lon="-4.05436">
        <ele>65.1</ele>
        <time>2022-11-12T10:45:54Z</time>
      </trkpt>
      <trkpt lat="47.90768" lon="-4.05436">
        <ele>65.1</ele>
        <time>2022-11-12T10:45:55Z</time>
      </trkpt>
      <trkpt lat="47.90768" lon="-4.05436">
        <ele>65.1</ele>
        <time>2022-11-12T10:45:56Z</time>
      </trkpt>
      <trkpt lat="47.90772" lon="-4.05434">
        <ele>65.2</ele>
        <time>2022-11-12T10:46:15Z</time>
      </trkpt>
      <trkpt lat="47.90774" lon="-4.05434">
        <ele>65.3</ele>
        <time>2022-11-12T10:46:16Z</time>
      </trkpt>
      <trkpt lat="47.90778" lon="-4.05433">
        <ele>65.4</ele>
        <time>2022-11-12T10:46:18Z</time>
      </trkpt>
      <trkpt lat="47.90781" lon="-4.05436">
        <ele>65.5</ele>
        <time>2022-11-12T10:46:19Z</time>
      </trkpt>
      <trkpt lat="47.90782" lon="-4.05437">
        <ele>65.6</ele>
        <time>2022-11-12T10:46:20Z</time>
      </trkpt>
      <trkpt lat="47.90785" lon="-4.05438">
        <ele>65.7</ele>
        <time>2022-11-12T10:46:21Z</time>
      </trkpt>
      <trkpt lat="47.90786" lon="-4.05438">
        <ele>65.7</ele>
        <time>2022-11-12T10:46:22Z</time>
      </trkpt>
      <trkpt lat="47.90788" lon="-4.05436">
        <ele>65.8</ele>
        <time>2022-11-12T10:46:23Z</time>
      </trkpt>
      <trkpt lat="47.90789" lon="-4.05435">
        <ele>65.8</ele>
        <time>2022-11-12T10:46:24Z</time>
      </trkpt>
      <trkpt lat="47.90792" lon="-4.05432">
        <ele>66</ele>
        <time>2022-11-12T10:46:25Z</time>
      </trkpt>
      <trkpt lat="47.90794" lon="-4.0543">
        <ele>66</ele>
        <time>2022-11-12T10:46:26Z</time>
      </trkpt>
      <trkpt lat="47.90797" lon="-4.05431">
        <ele>66.6</ele>
        <time>2022-11-12T10:46:27Z</time>
      </trkpt>
      <trkpt lat="47.908" lon="-4.0543">
        <ele>66.6</ele>
        <time>2022-11-12T10:46:28Z</time>
      </trkpt>
      <trkpt lat="47.90801" lon="-4.05423">
        <ele>66.6</ele>
        <time>2022-11-12T10:46:30Z</time>
      </trkpt>
      <trkpt lat="47.90796" lon="-4.05413">
        <ele>66.6</ele>
        <time>2022-11-12T10:46:32Z</time>
      </trkpt>
      <trkpt lat="47.90794" lon="-4.05403">
        <ele>66.6</ele>
        <time>2022-11-12T10:46:33Z</time>
      </trkpt>
      <trkpt lat="47.90792" lon="-4.05394">
        <ele>66.6</ele>
        <time>2022-11-12T10:46:34Z</time>
      </trkpt>
      <trkpt lat="47.9079" lon="-4.05386">
        <ele>66.6</ele>
        <time>2022-11-12T10:46:35Z</time>
      </trkpt>
      <trkpt lat="47.90787" lon="-4.05378">
        <ele>66.6</ele>
        <time>2022-11-12T10:46:36Z</time>
      </trkpt>
      <trkpt lat="47.90785" lon="-4.0537">
        <ele>66.6</ele>
        <time>2022-11-12T10:46:37Z</time>
      </trkpt>
      <trkpt lat="47.90783" lon="-4.05361">
        <ele>66.6</ele>
        <time>2022-11-12T10:46:38Z</time>
      </trkpt>
      <trkpt lat="47.9078" lon="-4.05353">
        <ele>66.6</ele>
        <time>2022-11-12T10:46:39Z</time>
      </trkpt>
      <trkpt lat="47.90778" lon="-4.05344">
        <ele>66.6</ele>
        <time>2022-11-12T10:46:40Z</time>
      </trkpt>
      <trkpt lat="47.90776" lon="-4.05336">
        <ele>66.7</ele>
        <time>2022-11-12T10:46:41Z</time>
      </trkpt>
      <trkpt lat="47.90774" lon="-4.05327">
        <ele>66.7</ele>
        <time>2022-11-12T10:46:42Z</time>
      </trkpt>
      <trkpt lat="47.90772" lon="-4.05319">
        <ele>66.7</ele>
        <time>2022-11-12T10:46:43Z</time>
      </trkpt>
      <trkpt lat="47.9077" lon="-4.05311">
        <ele>66.7</ele>
        <time>2022-11-12T10:46:44Z</time>
      </trkpt>
      <trkpt lat="47.90768" lon="-4.05303">
        <ele>66.8</ele>
        <time>2022-11-12T10:46:45Z</time>
      </trkpt>
      <trkpt lat="47.90766" lon="-4.05295">
        <ele>66.8</ele>
        <time>2022-11-12T10:46:46Z</time>
      </trkpt>
      <trkpt lat="47.90765" lon="-4.05286">
        <ele>66.8</ele>
        <time>2022-11-12T10:46:47Z</time>
      </trkpt>
      <trkpt lat="47.90763" lon="-4.05278">
        <ele>66.8</ele>
        <time>2022-11-12T10:46:48Z</time>
      </trkpt>
      <trkpt lat="47.90761" lon="-4.05269">
        <ele>66.8</ele>
        <time>2022-11-12T10:46:49Z</time>
      </trkpt>
      <trkpt lat="47.90759" lon="-4.05261">
        <ele>66.8</ele>
        <time>2022-11-12T10:46:50Z</time>
      </trkpt>
      <trkpt lat="47.90758" lon="-4.05253">
        <ele>66.9</ele>
        <time>2022-11-12T10:46:51Z</time>
      </trkpt>
      <trkpt lat="47.90757" lon="-4.05244">
        <ele>66.9</ele>
        <time>2022-11-12T10:46:52Z</time>
      </trkpt>
      <trkpt lat="47.90755" lon="-4.05236">
        <ele>67</ele>
        <time>2022-11-12T10:46:53Z</time>
      </trkpt>
      <trkpt lat="47.90753" lon="-4.05227">
        <ele>67</ele>
        <time>2022-11-12T10:46:54Z</time>
      </trkpt>
      <trkpt lat="47.90752" lon="-4.05219">
        <ele>67.1</ele>
        <time>2022-11-12T10:46:55Z</time>
      </trkpt>
      <trkpt lat="47.9075" lon="-4.0521">
        <ele>67.1</ele>
        <time>2022-11-12T10:46:56Z</time>
      </trkpt>
      <trkpt lat="47.90749" lon="-4.05202">
        <ele>67.1</ele>
        <time>2022-11-12T10:46:57Z</time>
      </trkpt>
      <trkpt lat="47.90748" lon="-4.05193">
        <ele>67.2</ele>
        <time>2022-11-12T10:46:58Z</time>
      </trkpt>
      <trkpt lat="47.90746" lon="-4.05184">
        <ele>67.2</ele>
        <time>2022-11-12T10:46:59Z</time>
      </trkpt>
      <trkpt lat="47.90745" lon="-4.05175">
        <ele>67.3</ele>
        <time>2022-11-12T10:47:00Z</time>
      </trkpt>
      <trkpt lat="47.90744" lon="-4.05166">
        <ele>67.3</ele>
        <time>2022-11-12T10:47:01Z</time>
      </trkpt>
      <trkpt lat="47.90743" lon="-4.05157">
        <ele>67.4</ele>
        <time>2022-11-12T10:47:02Z</time>
      </trkpt>
      <trkpt lat="47.90743" lon="-4.05148">
        <ele>67.4</ele>
        <time>2022-11-12T10:47:03Z</time>
      </trkpt>
      <trkpt lat="47.90742" lon="-4.0514">
        <ele>67.5</ele>
        <time>2022-11-12T10:47:04Z</time>
      </trkpt>
      <trkpt lat="47.90742" lon="-4.0513">
        <ele>67.5</ele>
        <time>2022-11-12T10:47:05Z</time>
      </trkpt>
      <trkpt lat="47.90743" lon="-4.05121">
        <ele>67.6</ele>
        <time>2022-11-12T10:47:06Z</time>
      </trkpt>
      <trkpt lat="47.90743" lon="-4.05113">
        <ele>67.7</ele>
        <time>2022-11-12T10:47:07Z</time>
      </trkpt>
      <trkpt lat="47.90743" lon="-4.05104">
        <ele>67.8</ele>
        <time>2022-11-12T10:47:08Z</time>
      </trkpt>
      <trkpt lat="47.90743" lon="-4.05095">
        <ele>67.9</ele>
        <time>2022-11-12T10:47:09Z</time>
      </trkpt>
      <trkpt lat="47.90742" lon="-4.05086">
        <ele>68</ele>
        <time>2022-11-12T10:47:10Z</time>
      </trkpt>
      <trkpt lat="47.90742" lon="-4.05078">
        <ele>68.1</ele>
        <time>2022-11-12T10:47:11Z</time>
      </trkpt>
      <trkpt lat="47.90741" lon="-4.05069">
        <ele>68.2</ele>
        <time>2022-11-12T10:47:12Z</time>
      </trkpt>
      <trkpt lat="47.9074" lon="-4.05061">
        <ele>68.3</ele>
        <time>2022-11-12T10:47:13Z</time>
      </trkpt>
      <trkpt lat="47.90738" lon="-4.05053">
        <ele>68.4</ele>
        <time>2022-11-12T10:47:14Z</time>
      </trkpt>
      <trkpt lat="47.90738" lon="-4.05045">
        <ele>68.4</ele>
        <time>2022-11-12T10:47:15Z</time>
      </trkpt>
      <trkpt lat="47.90741" lon="-4.05039">
        <ele>68.5</ele>
        <time>2022-11-12T10:47:16Z</time>
      </trkpt>
      <trkpt lat="47.90746" lon="-4.05036">
        <ele>68.5</ele>
        <time>2022-11-12T10:47:17Z</time>
      </trkpt>
      <trkpt lat="47.90751" lon="-4.05035">
        <ele>68.6</ele>
        <time>2022-11-12T10:47:18Z</time>
      </trkpt>
      <trkpt lat="47.90757" lon="-4.05035">
        <ele>68.6</ele>
        <time>2022-11-12T10:47:19Z</time>
      </trkpt>
      <trkpt lat="47.90762" lon="-4.05035">
        <ele>68.7</ele>
        <time>2022-11-12T10:47:20Z</time>
      </trkpt>
      <trkpt lat="47.90767" lon="-4.05035">
        <ele>68.7</ele>
        <time>2022-11-12T10:47:21Z</time>
      </trkpt>
      <trkpt lat="47.90773" lon="-4.05035">
        <ele>68.8</ele>
        <time>2022-11-12T10:47:22Z</time>
      </trkpt>
      <trkpt lat="47.90778" lon="-4.05034">
        <ele>68.9</ele>
        <time>2022-11-12T10:47:23Z</time>
      </trkpt>
      <trkpt lat="47.90783" lon="-4.05033">
        <ele>69</ele>
        <time>2022-11-12T10:47:24Z</time>
      </trkpt>
      <trkpt lat="47.90788" lon="-4.05032">
        <ele>69.1</ele>
        <time>2022-11-12T10:47:25Z</time>
      </trkpt>
      <trkpt lat="47.90793" lon="-4.05029">
        <ele>69.1</ele>
        <time>2022-11-12T10:47:26Z</time>
      </trkpt>
      <trkpt lat="47.90798" lon="-4.05025">
        <ele>69.2</ele>
        <time>2022-11-12T10:47:27Z</time>
      </trkpt>
      <trkpt lat="47.90803" lon="-4.05021">
        <ele>69.2</ele>
        <time>2022-11-12T10:47:28Z</time>
      </trkpt>
      <trkpt lat="47.90807" lon="-4.05017">
        <ele>69.3</ele>
        <time>2022-11-12T10:47:29Z</time>
      </trkpt>
      <trkpt lat="47.90812" lon="-4.05013">
        <ele>69.3</ele>
        <time>2022-11-12T10:47:30Z</time>
      </trkpt>
      <trkpt lat="47.90817" lon="-4.05008">
        <ele>69.4</ele>
        <time>2022-11-12T10:47:31Z</time>
      </trkpt>
      <trkpt lat="47.90821" lon="-4.05003">
        <ele>69.4</ele>
        <time>2022-11-12T10:47:32Z</time>
      </trkpt>
      <trkpt lat="47.90826" lon="-4.04999">
        <ele>69.5</ele>
        <time>2022-11-12T10:47:33Z</time>
      </trkpt>
      <trkpt lat="47.9083" lon="-4.04995">
        <ele>69.5</ele>
        <time>2022-11-12T10:47:34Z</time>
      </trkpt>
      <trkpt lat="47.90835" lon="-4.04991">
        <ele>69.6</ele>
        <time>2022-11-12T10:47:35Z</time>
      </trkpt>
      <trkpt lat="47.9084" lon="-4.04987">
        <ele>69.6</ele>
        <time>2022-11-12T10:47:36Z</time>
      </trkpt>
      <trkpt lat="47.90844" lon="-4.04983">
        <ele>69.7</ele>
        <time>2022-11-12T10:47:37Z</time>
      </trkpt>
      <trkpt lat="47.90848" lon="-4.04978">
        <ele>69.7</ele>
        <time>2022-11-12T10:47:38Z</time>
      </trkpt>
      <trkpt lat="47.90853" lon="-4.04974">
        <ele>69.7</ele>
        <time>2022-11-12T10:47:39Z</time>
      </trkpt>
      <trkpt lat="47.90858" lon="-4.0497">
        <ele>69.6</ele>
        <time>2022-11-12T10:47:40Z</time>
      </trkpt>
      <trkpt lat="47.90864" lon="-4.04967">
        <ele>69.6</ele>
        <time>2022-11-12T10:47:41Z</time>
      </trkpt>
      <trkpt lat="47.90869" lon="-4.04963">
        <ele>69.6</ele>
        <time>2022-11-12T10:47:42Z</time>
      </trkpt>
      <trkpt lat="47.90873" lon="-4.04959">
        <ele>69.6</ele>
        <time>2022-11-12T10:47:43Z</time>
      </trkpt>
      <trkpt lat="47.90878" lon="-4.04955">
        <ele>69.5</ele>
        <time>2022-11-12T10:47:44Z</time>
      </trkpt>
      <trkpt lat="47.90881" lon="-4.04953">
        <ele>69.5</ele>
        <time>2022-11-12T10:47:45Z</time>
      </trkpt>
      <trkpt lat="47.90885" lon="-4.0495">
        <ele>69.5</ele>
        <time>2022-11-12T10:47:46Z</time>
      </trkpt>
      <trkpt lat="47.90886" lon="-4.04949">
        <ele>69.4</ele>
        <time>2022-11-12T10:47:47Z</time>
      </trkpt>
      <trkpt lat="47.90889" lon="-4.04947">
        <ele>69.4</ele>
        <time>2022-11-12T10:47:48Z</time>
      </trkpt>
      <trkpt lat="47.90893" lon="-4.04944">
        <ele>69.3</ele>
        <time>2022-11-12T10:47:49Z</time>
      </trkpt>
      <trkpt lat="47.90896" lon="-4.04943">
        <ele>69.3</ele>
        <time>2022-11-12T10:47:50Z</time>
      </trkpt>
      <trkpt lat="47.90901" lon="-4.0494">
        <ele>69.2</ele>
        <time>2022-11-12T10:47:51Z</time>
      </trkpt>
      <trkpt lat="47.90907" lon="-4.04937">
        <ele>69.2</ele>
        <time>2022-11-12T10:47:52Z</time>
      </trkpt>
      <trkpt lat="47.9091" lon="-4.04935">
        <ele>69.1</ele>
        <time>2022-11-12T10:47:53Z</time>
      </trkpt>
      <trkpt lat="47.90912" lon="-4.04934">
        <ele>69.1</ele>
        <time>2022-11-12T10:47:54Z</time>
      </trkpt>
      <trkpt lat="47.90918" lon="-4.04933">
        <ele>68.9</ele>
        <time>2022-11-12T10:47:56Z</time>
      </trkpt>
      <trkpt lat="47.90921" lon="-4.04927">
        <ele>68.7</ele>
        <time>2022-11-12T10:47:57Z</time>
      </trkpt>
      <trkpt lat="47.90924" lon="-4.04922">
        <ele>68.5</ele>
        <time>2022-11-12T10:47:58Z</time>
      </trkpt>
      <trkpt lat="47.90927" lon="-4.04918">
        <ele>68.3</ele>
        <time>2022-11-12T10:47:59Z</time>
      </trkpt>
      <trkpt lat="47.9093" lon="-4.04914">
        <ele>68.1</ele>
        <time>2022-11-12T10:48:00Z</time>
      </trkpt>
      <trkpt lat="47.9093" lon="-4.04911">
        <ele>68</ele>
        <time>2022-11-12T10:48:01Z</time>
      </trkpt>
      <trkpt lat="47.90931" lon="-4.0491">
        <ele>68</ele>
        <time>2022-11-12T10:48:03Z</time>
      </trkpt>
      <trkpt lat="47.90932" lon="-4.0491">
        <ele>67.9</ele>
        <time>2022-11-12T10:48:04Z</time>
      </trkpt>
      <trkpt lat="47.90936" lon="-4.04907">
        <ele>67.6</ele>
        <time>2022-11-12T10:48:05Z</time>
      </trkpt>
      <trkpt lat="47.90938" lon="-4.04906">
        <ele>67.4</ele>
        <time>2022-11-12T10:48:06Z</time>
      </trkpt>
      <trkpt lat="47.90942" lon="-4.04903">
        <ele>67.1</ele>
        <time>2022-11-12T10:48:07Z</time>
      </trkpt>
      <trkpt lat="47.90946" lon="-4.049">
        <ele>66.8</ele>
        <time>2022-11-12T10:48:08Z</time>
      </trkpt>
      <trkpt lat="47.90953" lon="-4.04896">
        <ele>66.4</ele>
        <time>2022-11-12T10:48:09Z</time>
      </trkpt>
      <trkpt lat="47.90959" lon="-4.04892">
        <ele>66.1</ele>
        <time>2022-11-12T10:48:10Z</time>
      </trkpt>
      <trkpt lat="47.90964" lon="-4.04889">
        <ele>65.9</ele>
        <time>2022-11-12T10:48:11Z</time>
      </trkpt>
      <trkpt lat="47.9097" lon="-4.04884">
        <ele>65.7</ele>
        <time>2022-11-12T10:48:12Z</time>
      </trkpt>
      <trkpt lat="47.90975" lon="-4.0488">
        <ele>65.6</ele>
        <time>2022-11-12T10:48:13Z</time>
      </trkpt>
      <trkpt lat="47.90978" lon="-4.04875">
        <ele>65.5</ele>
        <time>2022-11-12T10:48:14Z</time>
      </trkpt>
      <trkpt lat="47.9098" lon="-4.0487">
        <ele>65.5</ele>
        <time>2022-11-12T10:48:15Z</time>
      </trkpt>
      <trkpt lat="47.90982" lon="-4.04868">
        <ele>65.4</ele>
        <time>2022-11-12T10:48:16Z</time>
      </trkpt>
      <trkpt lat="47.90978" lon="-4.04858">
        <ele>65.4</ele>
        <time>2022-11-12T10:48:18Z</time>
      </trkpt>
      <trkpt lat="47.90976" lon="-4.04853">
        <ele>65.4</ele>
        <time>2022-11-12T10:48:19Z</time>
      </trkpt>
      <trkpt lat="47.90971" lon="-4.04846">
        <ele>65.4</ele>
        <time>2022-11-12T10:48:20Z</time>
      </trkpt>
      <trkpt lat="47.90968" lon="-4.0484">
        <ele>65.4</ele>
        <time>2022-11-12T10:48:21Z</time>
      </trkpt>
      <trkpt lat="47.90965" lon="-4.04834">
        <ele>65.4</ele>
        <time>2022-11-12T10:48:22Z</time>
      </trkpt>
      <trkpt lat="47.90962" lon="-4.04827">
        <ele>65.4</ele>
        <time>2022-11-12T10:48:23Z</time>
      </trkpt>
      <trkpt lat="47.9096" lon="-4.0482">
        <ele>65.4</ele>
        <time>2022-11-12T10:48:24Z</time>
      </trkpt>
      <trkpt lat="47.90957" lon="-4.04812">
        <ele>65.4</ele>
        <time>2022-11-12T10:48:25Z</time>
      </trkpt>
      <trkpt lat="47.90955" lon="-4.04805">
        <ele>65.4</ele>
        <time>2022-11-12T10:48:26Z</time>
      </trkpt>
      <trkpt lat="47.90953" lon="-4.04798">
        <ele>65.3</ele>
        <time>2022-11-12T10:48:27Z</time>
      </trkpt>
      <trkpt lat="47.90951" lon="-4.0479">
        <ele>65.3</ele>
        <time>2022-11-12T10:48:28Z</time>
      </trkpt>
      <trkpt lat="47.90949" lon="-4.04782">
        <ele>65.3</ele>
        <time>2022-11-12T10:48:29Z</time>
      </trkpt>
      <trkpt lat="47.90946" lon="-4.04774">
        <ele>65.2</ele>
        <time>2022-11-12T10:48:30Z</time>
      </trkpt>
      <trkpt lat="47.90944" lon="-4.04766">
        <ele>65.2</ele>
        <time>2022-11-12T10:48:31Z</time>
      </trkpt>
      <trkpt lat="47.90942" lon="-4.04759">
        <ele>65.2</ele>
        <time>2022-11-12T10:48:32Z</time>
      </trkpt>
      <trkpt lat="47.90939" lon="-4.04751">
        <ele>65.2</ele>
        <time>2022-11-12T10:48:33Z</time>
      </trkpt>
      <trkpt lat="47.90937" lon="-4.04743">
        <ele>65.1</ele>
        <time>2022-11-12T10:48:34Z</time>
      </trkpt>
      <trkpt lat="47.90936" lon="-4.04735">
        <ele>65.1</ele>
        <time>2022-11-12T10:48:35Z</time>
      </trkpt>
      <trkpt lat="47.90935" lon="-4.04727">
        <ele>65</ele>
        <time>2022-11-12T10:48:36Z</time>
      </trkpt>
      <trkpt lat="47.90938" lon="-4.0472">
        <ele>64.9</ele>
        <time>2022-11-12T10:48:37Z</time>
      </trkpt>
      <trkpt lat="47.90943" lon="-4.04715">
        <ele>63.7</ele>
        <time>2022-11-12T10:48:38Z</time>
      </trkpt>
      <trkpt lat="47.90949" lon="-4.04714">
        <ele>63.2</ele>
        <time>2022-11-12T10:48:39Z</time>
      </trkpt>
      <trkpt lat="47.90956" lon="-4.04715">
        <ele>62.6</ele>
        <time>2022-11-12T10:48:40Z</time>
      </trkpt>
      <trkpt lat="47.90964" lon="-4.04716">
        <ele>62.1</ele>
        <time>2022-11-12T10:48:41Z</time>
      </trkpt>
      <trkpt lat="47.90972" lon="-4.04716">
        <ele>61.7</ele>
        <time>2022-11-12T10:48:42Z</time>
      </trkpt>
      <trkpt lat="47.9098" lon="-4.04716">
        <ele>61.3</ele>
        <time>2022-11-12T10:48:43Z</time>
      </trkpt>
      <trkpt lat="47.90988" lon="-4.04717">
        <ele>61</ele>
        <time>2022-11-12T10:48:44Z</time>
      </trkpt>
      <trkpt lat="47.90996" lon="-4.04717">
        <ele>60.8</ele>
        <time>2022-11-12T10:48:45Z</time>
      </trkpt>
      <trkpt lat="47.91004" lon="-4.04717">
        <ele>60.6</ele>
        <time>2022-11-12T10:48:46Z</time>
      </trkpt>
      <trkpt lat="47.91013" lon="-4.04717">
        <ele>60.6</ele>
        <time>2022-11-12T10:48:47Z</time>
      </trkpt>
      <trkpt lat="47.91021" lon="-4.04718">
        <ele>60.5</ele>
        <time>2022-11-12T10:48:48Z</time>
      </trkpt>
      <trkpt lat="47.91028" lon="-4.04719">
        <ele>60.5</ele>
        <time>2022-11-12T10:48:49Z</time>
      </trkpt>
      <trkpt lat="47.91035" lon="-4.04718">
        <ele>60.5</ele>
        <time>2022-11-12T10:48:50Z</time>
      </trkpt>
      <trkpt lat="47.91042" lon="-4.04719">
        <ele>60.5</ele>
        <time>2022-11-12T10:48:51Z</time>
      </trkpt>
      <trkpt lat="47.91049" lon="-4.04718">
        <ele>60.4</ele>
        <time>2022-11-12T10:48:52Z</time>
      </trkpt>
      <trkpt lat="47.91055" lon="-4.04718">
        <ele>60.3</ele>
        <time>2022-11-12T10:48:53Z</time>
      </trkpt>
      <trkpt lat="47.91062" lon="-4.04719">
        <ele>60.2</ele>
        <time>2022-11-12T10:48:54Z</time>
      </trkpt>
      <trkpt lat="47.91069" lon="-4.0472">
        <ele>60</ele>
        <time>2022-11-12T10:48:55Z</time>
      </trkpt>
      <trkpt lat="47.91076" lon="-4.04721">
        <ele>59.8</ele>
        <time>2022-11-12T10:48:56Z</time>
      </trkpt>
      <trkpt lat="47.91083" lon="-4.04721">
        <ele>59.5</ele>
        <time>2022-11-12T10:48:57Z</time>
      </trkpt>
      <trkpt lat="47.9109" lon="-4.04723">
        <ele>59.3</ele>
        <time>2022-11-12T10:48:58Z</time>
      </trkpt>
      <trkpt lat="47.91097" lon="-4.04725">
        <ele>59</ele>
        <time>2022-11-12T10:48:59Z</time>
      </trkpt>
      <trkpt lat="47.91105" lon="-4.04725">
        <ele>58.6</ele>
        <time>2022-11-12T10:49:00Z</time>
      </trkpt>
      <trkpt lat="47.91111" lon="-4.04724">
        <ele>58.3</ele>
        <time>2022-11-12T10:49:01Z</time>
      </trkpt>
      <trkpt lat="47.91119" lon="-4.04722">
        <ele>57.9</ele>
        <time>2022-11-12T10:49:02Z</time>
      </trkpt>
      <trkpt lat="47.91126" lon="-4.04721">
        <ele>57.5</ele>
        <time>2022-11-12T10:49:03Z</time>
      </trkpt>
      <trkpt lat="47.91133" lon="-4.0472">
        <ele>57.2</ele>
        <time>2022-11-12T10:49:04Z</time>
      </trkpt>
      <trkpt lat="47.9114" lon="-4.04719">
        <ele>56.8</ele>
        <time>2022-11-12T10:49:05Z</time>
      </trkpt>
      <trkpt lat="47.91148" lon="-4.04718">
        <ele>56.4</ele>
        <time>2022-11-12T10:49:06Z</time>
      </trkpt>
      <trkpt lat="47.91154" lon="-4.04718">
        <ele>56.1</ele>
        <time>2022-11-12T10:49:07Z</time>
      </trkpt>
      <trkpt lat="47.91159" lon="-4.04717">
        <ele>55.7</ele>
        <time>2022-11-12T10:49:08Z</time>
      </trkpt>
      <trkpt lat="47.91161" lon="-4.04715">
        <ele>55.5</ele>
        <time>2022-11-12T10:49:09Z</time>
      </trkpt>
      <trkpt lat="47.9116" lon="-4.04711">
        <ele>55.3</ele>
        <time>2022-11-12T10:49:10Z</time>
      </trkpt>
      <trkpt lat="47.91159" lon="-4.0471">
        <ele>55.3</ele>
        <time>2022-11-12T10:49:11Z</time>
      </trkpt>
      <trkpt lat="47.91161" lon="-4.04706">
        <ele>55</ele>
        <time>2022-11-12T10:49:12Z</time>
      </trkpt>
      <trkpt lat="47.91161" lon="-4.04704">
        <ele>54.9</ele>
        <time>2022-11-12T10:49:13Z</time>
      </trkpt>
      <trkpt lat="47.91163" lon="-4.04699">
        <ele>54.6</ele>
        <time>2022-11-12T10:49:14Z</time>
      </trkpt>
      <trkpt lat="47.91164" lon="-4.04696">
        <ele>54.4</ele>
        <time>2022-11-12T10:49:15Z</time>
      </trkpt>
      <trkpt lat="47.91167" lon="-4.04692">
        <ele>54.1</ele>
        <time>2022-11-12T10:49:16Z</time>
      </trkpt>
      <trkpt lat="47.9117" lon="-4.04688">
        <ele>53.7</ele>
        <time>2022-11-12T10:49:18Z</time>
      </trkpt>
      <trkpt lat="47.91181" lon="-4.04678">
        <ele>52.4</ele>
        <time>2022-11-12T10:49:19Z</time>
      </trkpt>
      <trkpt lat="47.91186" lon="-4.04671">
        <ele>51.7</ele>
        <time>2022-11-12T10:49:20Z</time>
      </trkpt>
      <trkpt lat="47.9119" lon="-4.04665">
        <ele>51</ele>
        <time>2022-11-12T10:49:21Z</time>
      </trkpt>
      <trkpt lat="47.91195" lon="-4.04658">
        <ele>50.2</ele>
        <time>2022-11-12T10:49:22Z</time>
      </trkpt>
      <trkpt lat="47.91199" lon="-4.04651">
        <ele>49.6</ele>
        <time>2022-11-12T10:49:23Z</time>
      </trkpt>
      <trkpt lat="47.91204" lon="-4.04645">
        <ele>49</ele>
        <time>2022-11-12T10:49:24Z</time>
      </trkpt>
      <trkpt lat="47.91208" lon="-4.04641">
        <ele>48.5</ele>
        <time>2022-11-12T10:49:25Z</time>
      </trkpt>
      <trkpt lat="47.91213" lon="-4.04639">
        <ele>48</ele>
        <time>2022-11-12T10:49:26Z</time>
      </trkpt>
      <trkpt lat="47.91217" lon="-4.04639">
        <ele>47.7</ele>
        <time>2022-11-12T10:49:27Z</time>
      </trkpt>
      <trkpt lat="47.91221" lon="-4.04642">
        <ele>47.3</ele>
        <time>2022-11-12T10:49:29Z</time>
      </trkpt>
      <trkpt lat="47.91223" lon="-4.04641">
        <ele>47.2</ele>
        <time>2022-11-12T10:49:30Z</time>
      </trkpt>
      <trkpt lat="47.91223" lon="-4.0464">
        <ele>47.1</ele>
        <time>2022-11-12T10:49:31Z</time>
      </trkpt>
      <trkpt lat="47.91224" lon="-4.0464">
        <ele>47.1</ele>
        <time>2022-11-12T10:49:32Z</time>
      </trkpt>
      <trkpt lat="47.91224" lon="-4.0464">
        <ele>47</ele>
        <time>2022-11-12T10:49:33Z</time>
      </trkpt>
      <trkpt lat="47.91225" lon="-4.04639">
        <ele>47</ele>
        <time>2022-11-12T10:49:34Z</time>
      </trkpt>
      <trkpt lat="47.91225" lon="-4.04639">
        <ele>46.9</ele>
        <time>2022-11-12T10:49:35Z</time>
      </trkpt>
      <trkpt lat="47.91226" lon="-4.04639">
        <ele>46.9</ele>
        <time>2022-11-12T10:49:36Z</time>
      </trkpt>
      <trkpt lat="47.91226" lon="-4.04638">
        <ele>46.9</ele>
        <time>2022-11-12T10:49:37Z</time>
      </trkpt>
      <trkpt lat="47.91227" lon="-4.04638">
        <ele>46.8</ele>
        <time>2022-11-12T10:49:39Z</time>
      </trkpt>
      <trkpt lat="47.91228" lon="-4.04638">
        <ele>46.8</ele>
        <time>2022-11-12T10:49:40Z</time>
      </trkpt>
      <trkpt lat="47.91228" lon="-4.04637">
        <ele>46.8</ele>
        <time>2022-11-12T10:49:41Z</time>
      </trkpt>
      <trkpt lat="47.91229" lon="-4.04637">
        <ele>46.7</ele>
        <time>2022-11-12T10:50:04Z</time>
      </trkpt>
      <trkpt lat="47.91229" lon="-4.04637">
        <ele>46.7</ele>
        <time>2022-11-12T10:50:05Z</time>
      </trkpt>
      <trkpt lat="47.9123" lon="-4.04636">
        <ele>46.6</ele>
        <time>2022-11-12T10:50:06Z</time>
      </trkpt>
      <trkpt lat="47.91233" lon="-4.04636">
        <ele>46.4</ele>
        <time>2022-11-12T10:50:07Z</time>
      </trkpt>
      <trkpt lat="47.91237" lon="-4.04636">
        <ele>46.2</ele>
        <time>2022-11-12T10:50:08Z</time>
      </trkpt>
      <trkpt lat="47.91241" lon="-4.04636">
        <ele>45.9</ele>
        <time>2022-11-12T10:50:09Z</time>
      </trkpt>
      <trkpt lat="47.91248" lon="-4.04634">
        <ele>45.6</ele>
        <time>2022-11-12T10:50:10Z</time>
      </trkpt>
      <trkpt lat="47.91255" lon="-4.04633">
        <ele>45.2</ele>
        <time>2022-11-12T10:50:11Z</time>
      </trkpt>
      <trkpt lat="47.91261" lon="-4.04632">
        <ele>44.9</ele>
        <time>2022-11-12T10:50:12Z</time>
      </trkpt>
      <trkpt lat="47.91266" lon="-4.04631">
        <ele>44.6</ele>
        <time>2022-11-12T10:50:13Z</time>
      </trkpt>
      <trkpt lat="47.91271" lon="-4.0463">
        <ele>44.3</ele>
        <time>2022-11-12T10:50:14Z</time>
      </trkpt>
      <trkpt lat="47.91276" lon="-4.04629">
        <ele>44</ele>
        <time>2022-11-12T10:50:15Z</time>
      </trkpt>
      <trkpt lat="47.91281" lon="-4.04628">
        <ele>43.7</ele>
        <time>2022-11-12T10:50:16Z</time>
      </trkpt>
      <trkpt lat="47.91286" lon="-4.04626">
        <ele>43.3</ele>
        <time>2022-11-12T10:50:17Z</time>
      </trkpt>
      <trkpt lat="47.91291" lon="-4.04625">
        <ele>43</ele>
        <time>2022-11-12T10:50:18Z</time>
      </trkpt>
      <trkpt lat="47.91296" lon="-4.04624">
        <ele>42.6</ele>
        <time>2022-11-12T10:50:19Z</time>
      </trkpt>
      <trkpt lat="47.91302" lon="-4.04623">
        <ele>42.1</ele>
        <time>2022-11-12T10:50:20Z</time>
      </trkpt>
      <trkpt lat="47.9131" lon="-4.04622">
        <ele>41.5</ele>
        <time>2022-11-12T10:50:21Z</time>
      </trkpt>
      <trkpt lat="47.91317" lon="-4.04621">
        <ele>40.9</ele>
        <time>2022-11-12T10:50:22Z</time>
      </trkpt>
      <trkpt lat="47.91324" lon="-4.04619">
        <ele>40.2</ele>
        <time>2022-11-12T10:50:23Z</time>
      </trkpt>
      <trkpt lat="47.91332" lon="-4.04617">
        <ele>39.3</ele>
        <time>2022-11-12T10:50:24Z</time>
      </trkpt>
      <trkpt lat="47.91341" lon="-4.04614">
        <ele>38.3</ele>
        <time>2022-11-12T10:50:25Z</time>
      </trkpt>
      <trkpt lat="47.9135" lon="-4.04609">
        <ele>37.4</ele>
        <time>2022-11-12T10:50:26Z</time>
      </trkpt>
      <trkpt lat="47.91359" lon="-4.04605">
        <ele>36.7</ele>
        <time>2022-11-12T10:50:27Z</time>
      </trkpt>
      <trkpt lat="47.91367" lon="-4.046">
        <ele>35.7</ele>
        <time>2022-11-12T10:50:28Z</time>
      </trkpt>
      <trkpt lat="47.91373" lon="-4.04593">
        <ele>35</ele>
        <time>2022-11-12T10:50:29Z</time>
      </trkpt>
      <trkpt lat="47.91379" lon="-4.04585">
        <ele>34.4</ele>
        <time>2022-11-12T10:50:30Z</time>
      </trkpt>
      <trkpt lat="47.91385" lon="-4.04577">
        <ele>33.7</ele>
        <time>2022-11-12T10:50:31Z</time>
      </trkpt>
      <trkpt lat="47.91392" lon="-4.04568">
        <ele>32.9</ele>
        <time>2022-11-12T10:50:32Z</time>
      </trkpt>
      <trkpt lat="47.91399" lon="-4.04557">
        <ele>32.1</ele>
        <time>2022-11-12T10:50:33Z</time>
      </trkpt>
      <trkpt lat="47.91406" lon="-4.04546">
        <ele>31.6</ele>
        <time>2022-11-12T10:50:34Z</time>
      </trkpt>
      <trkpt lat="47.91412" lon="-4.04535">
        <ele>31.2</ele>
        <time>2022-11-12T10:50:35Z</time>
      </trkpt>
      <trkpt lat="47.91418" lon="-4.04525">
        <ele>31</ele>
        <time>2022-11-12T10:50:36Z</time>
      </trkpt>
      <trkpt lat="47.91424" lon="-4.04516">
        <ele>31</ele>
        <time>2022-11-12T10:50:37Z</time>
      </trkpt>
      <trkpt lat="47.91429" lon="-4.04506">
        <ele>31.1</ele>
        <time>2022-11-12T10:50:38Z</time>
      </trkpt>
      <trkpt lat="47.91434" lon="-4.04497">
        <ele>31.3</ele>
        <time>2022-11-12T10:50:39Z</time>
      </trkpt>
      <trkpt lat="47.91439" lon="-4.04489">
        <ele>31.5</ele>
        <time>2022-11-12T10:50:40Z</time>
      </trkpt>
      <trkpt lat="47.91443" lon="-4.04481">
        <ele>31.8</ele>
        <time>2022-11-12T10:50:41Z</time>
      </trkpt>
      <trkpt lat="47.91447" lon="-4.04475">
        <ele>32</ele>
        <time>2022-11-12T10:50:42Z</time>
      </trkpt>
      <trkpt lat="47.91451" lon="-4.04469">
        <ele>32.2</ele>
        <time>2022-11-12T10:50:43Z</time>
      </trkpt>
      <trkpt lat="47.91454" lon="-4.04463">
        <ele>32.4</ele>
        <time>2022-11-12T10:50:44Z</time>
      </trkpt>
      <trkpt lat="47.91458" lon="-4.04458">
        <ele>32.6</ele>
        <time>2022-11-12T10:50:45Z</time>
      </trkpt>
      <trkpt lat="47.91461" lon="-4.04453">
        <ele>32.8</ele>
        <time>2022-11-12T10:50:46Z</time>
      </trkpt>
      <trkpt lat="47.91463" lon="-4.0445">
        <ele>32.9</ele>
        <time>2022-11-12T10:50:47Z</time>
      </trkpt>
      <trkpt lat="47.91467" lon="-4.04444">
        <ele>33.1</ele>
        <time>2022-11-12T10:50:48Z</time>
      </trkpt>
      <trkpt lat="47.9147" lon="-4.04439">
        <ele>33.3</ele>
        <time>2022-11-12T10:50:49Z</time>
      </trkpt>
      <trkpt lat="47.91473" lon="-4.04436">
        <ele>33.4</ele>
        <time>2022-11-12T10:50:50Z</time>
      </trkpt>
      <trkpt lat="47.91476" lon="-4.0443">
        <ele>33.5</ele>
        <time>2022-11-12T10:50:51Z</time>
      </trkpt>
      <trkpt lat="47.9148" lon="-4.04426">
        <ele>33.6</ele>
        <time>2022-11-12T10:50:52Z</time>
      </trkpt>
      <trkpt lat="47.91485" lon="-4.04421">
        <ele>33.7</ele>
        <time>2022-11-12T10:50:53Z</time>
      </trkpt>
      <trkpt lat="47.91489" lon="-4.04415">
        <ele>33.8</ele>
        <time>2022-11-12T10:50:54Z</time>
      </trkpt>
      <trkpt lat="47.91493" lon="-4.04411">
        <ele>33.9</ele>
        <time>2022-11-12T10:50:55Z</time>
      </trkpt>
      <trkpt lat="47.91497" lon="-4.04406">
        <ele>34</ele>
        <time>2022-11-12T10:50:56Z</time>
      </trkpt>
      <trkpt lat="47.915" lon="-4.04401">
        <ele>34.1</ele>
        <time>2022-11-12T10:50:57Z</time>
      </trkpt>
      <trkpt lat="47.91504" lon="-4.04396">
        <ele>34.2</ele>
        <time>2022-11-12T10:50:58Z</time>
      </trkpt>
      <trkpt lat="47.91507" lon="-4.04392">
        <ele>34.2</ele>
        <time>2022-11-12T10:50:59Z</time>
      </trkpt>
      <trkpt lat="47.9151" lon="-4.04384">
        <ele>34.3</ele>
        <time>2022-11-12T10:51:00Z</time>
      </trkpt>
      <trkpt lat="47.91514" lon="-4.0438">
        <ele>34.3</ele>
        <time>2022-11-12T10:51:01Z</time>
      </trkpt>
      <trkpt lat="47.91517" lon="-4.04377">
        <ele>34.4</ele>
        <time>2022-11-12T10:51:02Z</time>
      </trkpt>
      <trkpt lat="47.9152" lon="-4.04372">
        <ele>34.4</ele>
        <time>2022-11-12T10:51:03Z</time>
      </trkpt>
      <trkpt lat="47.91523" lon="-4.04368">
        <ele>34.4</ele>
        <time>2022-11-12T10:51:04Z</time>
      </trkpt>
      <trkpt lat="47.91527" lon="-4.04363">
        <ele>34.4</ele>
        <time>2022-11-12T10:51:05Z</time>
      </trkpt>
      <trkpt lat="47.9153" lon="-4.0436">
        <ele>34.4</ele>
        <time>2022-11-12T10:51:06Z</time>
      </trkpt>
      <trkpt lat="47.91533" lon="-4.04353">
        <ele>34.4</ele>
        <time>2022-11-12T10:51:07Z</time>
      </trkpt>
      <trkpt lat="47.91535" lon="-4.04347">
        <ele>34.4</ele>
        <time>2022-11-12T10:51:08Z</time>
      </trkpt>
      <trkpt lat="47.91536" lon="-4.04344">
        <ele>34.4</ele>
        <time>2022-11-12T10:51:09Z</time>
      </trkpt>
      <trkpt lat="47.91536" lon="-4.04333">
        <ele>34.5</ele>
        <time>2022-11-12T10:51:11Z</time>
      </trkpt>
      <trkpt lat="47.9153" lon="-4.0433">
        <ele>35.2</ele>
        <time>2022-11-12T10:51:12Z</time>
      </trkpt>
      <trkpt lat="47.91528" lon="-4.04327">
        <ele>35.3</ele>
        <time>2022-11-12T10:51:13Z</time>
      </trkpt>
      <trkpt lat="47.91525" lon="-4.04322">
        <ele>35.5</ele>
        <time>2022-11-12T10:51:14Z</time>
      </trkpt>
      <trkpt lat="47.91523" lon="-4.04319">
        <ele>35.6</ele>
        <time>2022-11-12T10:51:15Z</time>
      </trkpt>
      <trkpt lat="47.9152" lon="-4.04315">
        <ele>35.8</ele>
        <time>2022-11-12T10:51:16Z</time>
      </trkpt>
      <trkpt lat="47.91515" lon="-4.04311">
        <ele>36</ele>
        <time>2022-11-12T10:51:17Z</time>
      </trkpt>
      <trkpt lat="47.91512" lon="-4.04307">
        <ele>36.2</ele>
        <time>2022-11-12T10:51:18Z</time>
      </trkpt>
      <trkpt lat="47.91507" lon="-4.04303">
        <ele>36.5</ele>
        <time>2022-11-12T10:51:19Z</time>
      </trkpt>
      <trkpt lat="47.91505" lon="-4.043">
        <ele>36.7</ele>
        <time>2022-11-12T10:51:20Z</time>
      </trkpt>
      <trkpt lat="47.91501" lon="-4.04296">
        <ele>36.9</ele>
        <time>2022-11-12T10:51:21Z</time>
      </trkpt>
      <trkpt lat="47.91497" lon="-4.04292">
        <ele>37.1</ele>
        <time>2022-11-12T10:51:22Z</time>
      </trkpt>
      <trkpt lat="47.91496" lon="-4.0429">
        <ele>37.2</ele>
        <time>2022-11-12T10:51:23Z</time>
      </trkpt>
      <trkpt lat="47.91492" lon="-4.04286">
        <ele>37.5</ele>
        <time>2022-11-12T10:51:24Z</time>
      </trkpt>
      <trkpt lat="47.91489" lon="-4.04281">
        <ele>37.7</ele>
        <time>2022-11-12T10:51:25Z</time>
      </trkpt>
      <trkpt lat="47.91483" lon="-4.04276">
        <ele>38</ele>
        <time>2022-11-12T10:51:27Z</time>
      </trkpt>
      <trkpt lat="47.91479" lon="-4.04272">
        <ele>38.2</ele>
        <time>2022-11-12T10:51:28Z</time>
      </trkpt>
      <trkpt lat="47.91475" lon="-4.04267">
        <ele>38.5</ele>
        <time>2022-11-12T10:51:29Z</time>
      </trkpt>
      <trkpt lat="47.91473" lon="-4.04264">
        <ele>38.6</ele>
        <time>2022-11-12T10:51:30Z</time>
      </trkpt>
      <trkpt lat="47.91467" lon="-4.04256">
        <ele>38.9</ele>
        <time>2022-11-12T10:51:31Z</time>
      </trkpt>
      <trkpt lat="47.91463" lon="-4.04252">
        <ele>39.1</ele>
        <time>2022-11-12T10:51:32Z</time>
      </trkpt>
      <trkpt lat="47.91459" lon="-4.04247">
        <ele>39.2</ele>
        <time>2022-11-12T10:51:33Z</time>
      </trkpt>
      <trkpt lat="47.91456" lon="-4.04242">
        <ele>39.4</ele>
        <time>2022-11-12T10:51:34Z</time>
      </trkpt>
      <trkpt lat="47.91453" lon="-4.04237">
        <ele>39.6</ele>
        <time>2022-11-12T10:51:35Z</time>
      </trkpt>
      <trkpt lat="47.9145" lon="-4.04232">
        <ele>39.8</ele>
        <time>2022-11-12T10:51:36Z</time>
      </trkpt>
      <trkpt lat="47.91446" lon="-4.04226">
        <ele>39.9</ele>
        <time>2022-11-12T10:51:37Z</time>
      </trkpt>
      <trkpt lat="47.91444" lon="-4.04221">
        <ele>40.1</ele>
        <time>2022-11-12T10:51:38Z</time>
      </trkpt>
      <trkpt lat="47.91441" lon="-4.04216">
        <ele>40.2</ele>
        <time>2022-11-12T10:51:39Z</time>
      </trkpt>
      <trkpt lat="47.91438" lon="-4.0421">
        <ele>40.3</ele>
        <time>2022-11-12T10:51:40Z</time>
      </trkpt>
      <trkpt lat="47.91435" lon="-4.04205">
        <ele>40.4</ele>
        <time>2022-11-12T10:51:41Z</time>
      </trkpt>
      <trkpt lat="47.91432" lon="-4.04199">
        <ele>40.5</ele>
        <time>2022-11-12T10:51:42Z</time>
      </trkpt>
      <trkpt lat="47.91429" lon="-4.04193">
        <ele>40.5</ele>
        <time>2022-11-12T10:51:43Z</time>
      </trkpt>
      <trkpt lat="47.91426" lon="-4.04188">
        <ele>40.6</ele>
        <time>2022-11-12T10:51:44Z</time>
      </trkpt>
      <trkpt lat="47.91424" lon="-4.04182">
        <ele>40.6</ele>
        <time>2022-11-12T10:51:45Z</time>
      </trkpt>
      <trkpt lat="47.91421" lon="-4.04176">
        <ele>40.6</ele>
        <time>2022-11-12T10:51:46Z</time>
      </trkpt>
      <trkpt lat="47.91418" lon="-4.04169">
        <ele>40.6</ele>
        <time>2022-11-12T10:51:47Z</time>
      </trkpt>
      <trkpt lat="47.91415" lon="-4.04163">
        <ele>40.6</ele>
        <time>2022-11-12T10:51:48Z</time>
      </trkpt>
      <trkpt lat="47.91413" lon="-4.04157">
        <ele>40.6</ele>
        <time>2022-11-12T10:51:49Z</time>
      </trkpt>
      <trkpt lat="47.9141" lon="-4.04151">
        <ele>40.6</ele>
        <time>2022-11-12T10:51:50Z</time>
      </trkpt>
      <trkpt lat="47.91407" lon="-4.04145">
        <ele>40.6</ele>
        <time>2022-11-12T10:51:51Z</time>
      </trkpt>
      <trkpt lat="47.91405" lon="-4.04139">
        <ele>40.6</ele>
        <time>2022-11-12T10:51:52Z</time>
      </trkpt>
      <trkpt lat="47.91402" lon="-4.04133">
        <ele>40.6</ele>
        <time>2022-11-12T10:51:53Z</time>
      </trkpt>
      <trkpt lat="47.91399" lon="-4.04127">
        <ele>40.5</ele>
        <time>2022-11-12T10:51:54Z</time>
      </trkpt>
      <trkpt lat="47.91396" lon="-4.04122">
        <ele>40.5</ele>
        <time>2022-11-12T10:51:55Z</time>
      </trkpt>
      <trkpt lat="47.91394" lon="-4.04118">
        <ele>40.5</ele>
        <time>2022-11-12T10:51:56Z</time>
      </trkpt>
      <trkpt lat="47.9139" lon="-4.04113">
        <ele>40.4</ele>
        <time>2022-11-12T10:51:57Z</time>
      </trkpt>
      <trkpt lat="47.91387" lon="-4.04108">
        <ele>40.4</ele>
        <time>2022-11-12T10:51:58Z</time>
      </trkpt>
      <trkpt lat="47.91383" lon="-4.04102">
        <ele>40.4</ele>
        <time>2022-11-12T10:51:59Z</time>
      </trkpt>
      <trkpt lat="47.9138" lon="-4.04097">
        <ele>40.3</ele>
        <time>2022-11-12T10:52:00Z</time>
      </trkpt>
      <trkpt lat="47.91376" lon="-4.04092">
        <ele>40.3</ele>
        <time>2022-11-12T10:52:01Z</time>
      </trkpt>
      <trkpt lat="47.91373" lon="-4.04086">
        <ele>40.2</ele>
        <time>2022-11-12T10:52:02Z</time>
      </trkpt>
      <trkpt lat="47.91369" lon="-4.04081">
        <ele>40.2</ele>
        <time>2022-11-12T10:52:03Z</time>
      </trkpt>
      <trkpt lat="47.91366" lon="-4.04076">
        <ele>40.1</ele>
        <time>2022-11-12T10:52:04Z</time>
      </trkpt>
      <trkpt lat="47.91362" lon="-4.0407">
        <ele>40.1</ele>
        <time>2022-11-12T10:52:05Z</time>
      </trkpt>
      <trkpt lat="47.91358" lon="-4.04064">
        <ele>40</ele>
        <time>2022-11-12T10:52:06Z</time>
      </trkpt>
      <trkpt lat="47.91355" lon="-4.04059">
        <ele>40</ele>
        <time>2022-11-12T10:52:07Z</time>
      </trkpt>
      <trkpt lat="47.91351" lon="-4.04052">
        <ele>39.9</ele>
        <time>2022-11-12T10:52:08Z</time>
      </trkpt>
      <trkpt lat="47.91347" lon="-4.04046">
        <ele>39.9</ele>
        <time>2022-11-12T10:52:09Z</time>
      </trkpt>
      <trkpt lat="47.91344" lon="-4.0404">
        <ele>39.8</ele>
        <time>2022-11-12T10:52:10Z</time>
      </trkpt>
      <trkpt lat="47.9134" lon="-4.04034">
        <ele>39.8</ele>
        <time>2022-11-12T10:52:11Z</time>
      </trkpt>
      <trkpt lat="47.91336" lon="-4.04027">
        <ele>39.7</ele>
        <time>2022-11-12T10:52:12Z</time>
      </trkpt>
      <trkpt lat="47.91333" lon="-4.04021">
        <ele>39.7</ele>
        <time>2022-11-12T10:52:13Z</time>
      </trkpt>
      <trkpt lat="47.91329" lon="-4.04015">
        <ele>39.7</ele>
        <time>2022-11-12T10:52:14Z</time>
      </trkpt>
      <trkpt lat="47.91325" lon="-4.0401">
        <ele>39.7</ele>
        <time>2022-11-12T10:52:15Z</time>
      </trkpt>
      <trkpt lat="47.91322" lon="-4.04006">
        <ele>39.7</ele>
        <time>2022-11-12T10:52:16Z</time>
      </trkpt>
      <trkpt lat="47.9132" lon="-4.04003">
        <ele>39.7</ele>
        <time>2022-11-12T10:52:17Z</time>
      </trkpt>
      <trkpt lat="47.9132" lon="-4.04002">
        <ele>39.6</ele>
        <time>2022-11-12T10:52:18Z</time>
      </trkpt>
      <trkpt lat="47.91322" lon="-4.03999">
        <ele>39.6</ele>
        <time>2022-11-12T10:52:19Z</time>
      </trkpt>
      <trkpt lat="47.91324" lon="-4.03998">
        <ele>39.5</ele>
        <time>2022-11-12T10:52:20Z</time>
      </trkpt>
      <trkpt lat="47.91325" lon="-4.03993">
        <ele>39.5</ele>
        <time>2022-11-12T10:52:21Z</time>
      </trkpt>
      <trkpt lat="47.91327" lon="-4.03988">
        <ele>39.4</ele>
        <time>2022-11-12T10:52:22Z</time>
      </trkpt>
      <trkpt lat="47.91327" lon="-4.03989">
        <ele>39.4</ele>
        <time>2022-11-12T10:52:23Z</time>
      </trkpt>
      <trkpt lat="47.91333" lon="-4.03969">
        <ele>39</ele>
        <time>2022-11-12T10:52:25Z</time>
      </trkpt>
      <trkpt lat="47.91337" lon="-4.03963">
        <ele>38.9</ele>
        <time>2022-11-12T10:52:26Z</time>
      </trkpt>
      <trkpt lat="47.91341" lon="-4.03957">
        <ele>38.8</ele>
        <time>2022-11-12T10:52:27Z</time>
      </trkpt>
      <trkpt lat="47.91346" lon="-4.03953">
        <ele>38.9</ele>
        <time>2022-11-12T10:52:28Z</time>
      </trkpt>
      <trkpt lat="47.91352" lon="-4.03949">
        <ele>38.8</ele>
        <time>2022-11-12T10:52:29Z</time>
      </trkpt>
      <trkpt lat="47.91358" lon="-4.03945">
        <ele>38.6</ele>
        <time>2022-11-12T10:52:30Z</time>
      </trkpt>
      <trkpt lat="47.91363" lon="-4.03939">
        <ele>38.5</ele>
        <time>2022-11-12T10:52:31Z</time>
      </trkpt>
      <trkpt lat="47.91368" lon="-4.03932">
        <ele>38.4</ele>
        <time>2022-11-12T10:52:32Z</time>
      </trkpt>
      <trkpt lat="47.91373" lon="-4.03926">
        <ele>38.3</ele>
        <time>2022-11-12T10:52:33Z</time>
      </trkpt>
      <trkpt lat="47.91378" lon="-4.0392">
        <ele>38.2</ele>
        <time>2022-11-12T10:52:34Z</time>
      </trkpt>
      <trkpt lat="47.91384" lon="-4.03915">
        <ele>38.1</ele>
        <time>2022-11-12T10:52:35Z</time>
      </trkpt>
      <trkpt lat="47.9139" lon="-4.0391">
        <ele>38</ele>
        <time>2022-11-12T10:52:36Z</time>
      </trkpt>
      <trkpt lat="47.91396" lon="-4.03906">
        <ele>37.9</ele>
        <time>2022-11-12T10:52:37Z</time>
      </trkpt>
      <trkpt lat="47.91403" lon="-4.03901">
        <ele>37.8</ele>
        <time>2022-11-12T10:52:38Z</time>
      </trkpt>
      <trkpt lat="47.91409" lon="-4.03896">
        <ele>37.7</ele>
        <time>2022-11-12T10:52:39Z</time>
      </trkpt>
      <trkpt lat="47.91415" lon="-4.03892">
        <ele>37.6</ele>
        <time>2022-11-12T10:52:40Z</time>
      </trkpt>
      <trkpt lat="47.91422" lon="-4.03888">
        <ele>37.5</ele>
        <time>2022-11-12T10:52:41Z</time>
      </trkpt>
      <trkpt lat="47.91429" lon="-4.03884">
        <ele>37.4</ele>
        <time>2022-11-12T10:52:42Z</time>
      </trkpt>
      <trkpt lat="47.91436" lon="-4.0388">
        <ele>37.3</ele>
        <time>2022-11-12T10:52:43Z</time>
      </trkpt>
      <trkpt lat="47.91442" lon="-4.03876">
        <ele>37.2</ele>
        <time>2022-11-12T10:52:44Z</time>
      </trkpt>
      <trkpt lat="47.91449" lon="-4.03873">
        <ele>37.1</ele>
        <time>2022-11-12T10:52:45Z</time>
      </trkpt>
      <trkpt lat="47.91456" lon="-4.03871">
        <ele>37</ele>
        <time>2022-11-12T10:52:46Z</time>
      </trkpt>
      <trkpt lat="47.91463" lon="-4.03868">
        <ele>36.9</ele>
        <time>2022-11-12T10:52:47Z</time>
      </trkpt>
      <trkpt lat="47.9147" lon="-4.03865">
        <ele>36.8</ele>
        <time>2022-11-12T10:52:48Z</time>
      </trkpt>
      <trkpt lat="47.91477" lon="-4.03861">
        <ele>36.7</ele>
        <time>2022-11-12T10:52:49Z</time>
      </trkpt>
      <trkpt lat="47.91483" lon="-4.03858">
        <ele>36.7</ele>
        <time>2022-11-12T10:52:50Z</time>
      </trkpt>
      <trkpt lat="47.91491" lon="-4.03855">
        <ele>36.6</ele>
        <time>2022-11-12T10:52:51Z</time>
      </trkpt>
      <trkpt lat="47.91498" lon="-4.03853">
        <ele>36.6</ele>
        <time>2022-11-12T10:52:52Z</time>
      </trkpt>
      <trkpt lat="47.91505" lon="-4.03852">
        <ele>36.5</ele>
        <time>2022-11-12T10:52:53Z</time>
      </trkpt>
      <trkpt lat="47.91512" lon="-4.03849">
        <ele>36.5</ele>
        <time>2022-11-12T10:52:54Z</time>
      </trkpt>
      <trkpt lat="47.9152" lon="-4.03848">
        <ele>36.4</ele>
        <time>2022-11-12T10:52:55Z</time>
      </trkpt>
      <trkpt lat="47.91528" lon="-4.03847">
        <ele>36.4</ele>
        <time>2022-11-12T10:52:56Z</time>
      </trkpt>
      <trkpt lat="47.91535" lon="-4.03846">
        <ele>36.3</ele>
        <time>2022-11-12T10:52:57Z</time>
      </trkpt>
      <trkpt lat="47.91542" lon="-4.03845">
        <ele>36.3</ele>
        <time>2022-11-12T10:52:58Z</time>
      </trkpt>
      <trkpt lat="47.9155" lon="-4.03845">
        <ele>36.3</ele>
        <time>2022-11-12T10:52:59Z</time>
      </trkpt>
      <trkpt lat="47.91557" lon="-4.03844">
        <ele>36.3</ele>
        <time>2022-11-12T10:53:00Z</time>
      </trkpt>
      <trkpt lat="47.91564" lon="-4.03844">
        <ele>36.3</ele>
        <time>2022-11-12T10:53:01Z</time>
      </trkpt>
      <trkpt lat="47.91571" lon="-4.03843">
        <ele>36.3</ele>
        <time>2022-11-12T10:53:02Z</time>
      </trkpt>
      <trkpt lat="47.91578" lon="-4.03842">
        <ele>36.4</ele>
        <time>2022-11-12T10:53:03Z</time>
      </trkpt>
      <trkpt lat="47.91584" lon="-4.03841">
        <ele>36.4</ele>
        <time>2022-11-12T10:53:04Z</time>
      </trkpt>
      <trkpt lat="47.91591" lon="-4.03841">
        <ele>36.5</ele>
        <time>2022-11-12T10:53:05Z</time>
      </trkpt>
      <trkpt lat="47.91598" lon="-4.03841">
        <ele>36.5</ele>
        <time>2022-11-12T10:53:06Z</time>
      </trkpt>
      <trkpt lat="47.91605" lon="-4.03842">
        <ele>36.6</ele>
        <time>2022-11-12T10:53:07Z</time>
      </trkpt>
      <trkpt lat="47.91612" lon="-4.03842">
        <ele>36.6</ele>
        <time>2022-11-12T10:53:08Z</time>
      </trkpt>
      <trkpt lat="47.91619" lon="-4.03842">
        <ele>36.7</ele>
        <time>2022-11-12T10:53:09Z</time>
      </trkpt>
      <trkpt lat="47.91626" lon="-4.03841">
        <ele>36.7</ele>
        <time>2022-11-12T10:53:10Z</time>
      </trkpt>
      <trkpt lat="47.91632" lon="-4.0384">
        <ele>36.8</ele>
        <time>2022-11-12T10:53:11Z</time>
      </trkpt>
      <trkpt lat="47.91638" lon="-4.03839">
        <ele>36.8</ele>
        <time>2022-11-12T10:53:12Z</time>
      </trkpt>
      <trkpt lat="47.91644" lon="-4.03838">
        <ele>36.9</ele>
        <time>2022-11-12T10:53:13Z</time>
      </trkpt>
      <trkpt lat="47.9165" lon="-4.03837">
        <ele>37</ele>
        <time>2022-11-12T10:53:14Z</time>
      </trkpt>
      <trkpt lat="47.91657" lon="-4.03835">
        <ele>37.1</ele>
        <time>2022-11-12T10:53:15Z</time>
      </trkpt>
      <trkpt lat="47.91663" lon="-4.03833">
        <ele>37.1</ele>
        <time>2022-11-12T10:53:16Z</time>
      </trkpt>
      <trkpt lat="47.91669" lon="-4.03832">
        <ele>37.2</ele>
        <time>2022-11-12T10:53:17Z</time>
      </trkpt>
      <trkpt lat="47.91675" lon="-4.0383">
        <ele>37.4</ele>
        <time>2022-11-12T10:53:18Z</time>
      </trkpt>
      <trkpt lat="47.91681" lon="-4.03829">
        <ele>37.5</ele>
        <time>2022-11-12T10:53:19Z</time>
      </trkpt>
      <trkpt lat="47.91688" lon="-4.03826">
        <ele>37.6</ele>
        <time>2022-11-12T10:53:20Z</time>
      </trkpt>
      <trkpt lat="47.91694" lon="-4.03825">
        <ele>37.7</ele>
        <time>2022-11-12T10:53:21Z</time>
      </trkpt>
      <trkpt lat="47.917" lon="-4.03822">
        <ele>37.8</ele>
        <time>2022-11-12T10:53:22Z</time>
      </trkpt>
      <trkpt lat="47.91706" lon="-4.0382">
        <ele>37.9</ele>
        <time>2022-11-12T10:53:23Z</time>
      </trkpt>
      <trkpt lat="47.91712" lon="-4.03817">
        <ele>38</ele>
        <time>2022-11-12T10:53:24Z</time>
      </trkpt>
      <trkpt lat="47.91718" lon="-4.03815">
        <ele>38</ele>
        <time>2022-11-12T10:53:25Z</time>
      </trkpt>
      <trkpt lat="47.91725" lon="-4.03812">
        <ele>38.1</ele>
        <time>2022-11-12T10:53:26Z</time>
      </trkpt>
      <trkpt lat="47.91731" lon="-4.0381">
        <ele>38.2</ele>
        <time>2022-11-12T10:53:27Z</time>
      </trkpt>
      <trkpt lat="47.91737" lon="-4.03807">
        <ele>38.3</ele>
        <time>2022-11-12T10:53:28Z</time>
      </trkpt>
      <trkpt lat="47.91743" lon="-4.03804">
        <ele>38.4</ele>
        <time>2022-11-12T10:53:29Z</time>
      </trkpt>
      <trkpt lat="47.91749" lon="-4.038">
        <ele>38.5</ele>
        <time>2022-11-12T10:53:30Z</time>
      </trkpt>
      <trkpt lat="47.91754" lon="-4.03797">
        <ele>38.6</ele>
        <time>2022-11-12T10:53:31Z</time>
      </trkpt>
      <trkpt lat="47.91759" lon="-4.03793">
        <ele>38.7</ele>
        <time>2022-11-12T10:53:32Z</time>
      </trkpt>
      <trkpt lat="47.91764" lon="-4.03789">
        <ele>38.7</ele>
        <time>2022-11-12T10:53:33Z</time>
      </trkpt>
      <trkpt lat="47.91769" lon="-4.03785">
        <ele>38.8</ele>
        <time>2022-11-12T10:53:34Z</time>
      </trkpt>
      <trkpt lat="47.91774" lon="-4.0378">
        <ele>38.8</ele>
        <time>2022-11-12T10:53:35Z</time>
      </trkpt>
      <trkpt lat="47.91779" lon="-4.03775">
        <ele>38.7</ele>
        <time>2022-11-12T10:53:36Z</time>
      </trkpt>
      <trkpt lat="47.91785" lon="-4.03769">
        <ele>38.6</ele>
        <time>2022-11-12T10:53:37Z</time>
      </trkpt>
      <trkpt lat="47.9179" lon="-4.03762">
        <ele>38.5</ele>
        <time>2022-11-12T10:53:38Z</time>
      </trkpt>
      <trkpt lat="47.91795" lon="-4.03755">
        <ele>38.4</ele>
        <time>2022-11-12T10:53:39Z</time>
      </trkpt>
      <trkpt lat="47.918" lon="-4.03748">
        <ele>38.4</ele>
        <time>2022-11-12T10:53:40Z</time>
      </trkpt>
      <trkpt lat="47.91805" lon="-4.03741">
        <ele>38.3</ele>
        <time>2022-11-12T10:53:41Z</time>
      </trkpt>
      <trkpt lat="47.9181" lon="-4.03734">
        <ele>38.3</ele>
        <time>2022-11-12T10:53:42Z</time>
      </trkpt>
      <trkpt lat="47.91815" lon="-4.03727">
        <ele>38.2</ele>
        <time>2022-11-12T10:53:43Z</time>
      </trkpt>
      <trkpt lat="47.9182" lon="-4.03721">
        <ele>38.2</ele>
        <time>2022-11-12T10:53:44Z</time>
      </trkpt>
      <trkpt lat="47.91825" lon="-4.03714">
        <ele>38.2</ele>
        <time>2022-11-12T10:53:45Z</time>
      </trkpt>
      <trkpt lat="47.91829" lon="-4.03707">
        <ele>38.1</ele>
        <time>2022-11-12T10:53:46Z</time>
      </trkpt>
      <trkpt lat="47.91835" lon="-4.03702">
        <ele>38.1</ele>
        <time>2022-11-12T10:53:47Z</time>
      </trkpt>
      <trkpt lat="47.91841" lon="-4.03697">
        <ele>38.1</ele>
        <time>2022-11-12T10:53:48Z</time>
      </trkpt>
      <trkpt lat="47.91847" lon="-4.03693">
        <ele>38.1</ele>
        <time>2022-11-12T10:53:49Z</time>
      </trkpt>
      <trkpt lat="47.91853" lon="-4.03689">
        <ele>38.1</ele>
        <time>2022-11-12T10:53:50Z</time>
      </trkpt>
      <trkpt lat="47.91859" lon="-4.03686">
        <ele>38.1</ele>
        <time>2022-11-12T10:53:51Z</time>
      </trkpt>
      <trkpt lat="47.91865" lon="-4.03682">
        <ele>38.1</ele>
        <time>2022-11-12T10:53:52Z</time>
      </trkpt>
      <trkpt lat="47.91872" lon="-4.03679">
        <ele>38.2</ele>
        <time>2022-11-12T10:53:53Z</time>
      </trkpt>
      <trkpt lat="47.91878" lon="-4.03676">
        <ele>38.2</ele>
        <time>2022-11-12T10:53:54Z</time>
      </trkpt>
      <trkpt lat="47.91883" lon="-4.03673">
        <ele>38.2</ele>
        <time>2022-11-12T10:53:55Z</time>
      </trkpt>
      <trkpt lat="47.9189" lon="-4.03671">
        <ele>38.3</ele>
        <time>2022-11-12T10:53:56Z</time>
      </trkpt>
      <trkpt lat="47.91895" lon="-4.03668">
        <ele>38.3</ele>
        <time>2022-11-12T10:53:57Z</time>
      </trkpt>
      <trkpt lat="47.91901" lon="-4.03665">
        <ele>38.4</ele>
        <time>2022-11-12T10:53:58Z</time>
      </trkpt>
      <trkpt lat="47.91907" lon="-4.03662">
        <ele>38.5</ele>
        <time>2022-11-12T10:53:59Z</time>
      </trkpt>
      <trkpt lat="47.91913" lon="-4.03659">
        <ele>38.6</ele>
        <time>2022-11-12T10:54:00Z</time>
      </trkpt>
      <trkpt lat="47.91918" lon="-4.03655">
        <ele>38.7</ele>
        <time>2022-11-12T10:54:01Z</time>
      </trkpt>
      <trkpt lat="47.91924" lon="-4.03651">
        <ele>38.9</ele>
        <time>2022-11-12T10:54:02Z</time>
      </trkpt>
      <trkpt lat="47.91929" lon="-4.03648">
        <ele>39</ele>
        <time>2022-11-12T10:54:03Z</time>
      </trkpt>
      <trkpt lat="47.91935" lon="-4.03644">
        <ele>39.1</ele>
        <time>2022-11-12T10:54:04Z</time>
      </trkpt>
      <trkpt lat="47.9194" lon="-4.03641">
        <ele>39.3</ele>
        <time>2022-11-12T10:54:05Z</time>
      </trkpt>
      <trkpt lat="47.91946" lon="-4.03638">
        <ele>39.5</ele>
        <time>2022-11-12T10:54:06Z</time>
      </trkpt>
      <trkpt lat="47.91951" lon="-4.03634">
        <ele>39.8</ele>
        <time>2022-11-12T10:54:07Z</time>
      </trkpt>
      <trkpt lat="47.91957" lon="-4.0363">
        <ele>40</ele>
        <time>2022-11-12T10:54:08Z</time>
      </trkpt>
      <trkpt lat="47.91962" lon="-4.03627">
        <ele>40.4</ele>
        <time>2022-11-12T10:54:09Z</time>
      </trkpt>
      <trkpt lat="47.91967" lon="-4.03624">
        <ele>40.7</ele>
        <time>2022-11-12T10:54:10Z</time>
      </trkpt>
      <trkpt lat="47.91971" lon="-4.03621">
        <ele>41.1</ele>
        <time>2022-11-12T10:54:11Z</time>
      </trkpt>
      <trkpt lat="47.91976" lon="-4.03618">
        <ele>41.5</ele>
        <time>2022-11-12T10:54:12Z</time>
      </trkpt>
      <trkpt lat="47.91981" lon="-4.03616">
        <ele>41.9</ele>
        <time>2022-11-12T10:54:13Z</time>
      </trkpt>
      <trkpt lat="47.91985" lon="-4.03614">
        <ele>42.2</ele>
        <time>2022-11-12T10:54:14Z</time>
      </trkpt>
      <trkpt lat="47.91989" lon="-4.03611">
        <ele>42.6</ele>
        <time>2022-11-12T10:54:15Z</time>
      </trkpt>
      <trkpt lat="47.91993" lon="-4.03609">
        <ele>42.9</ele>
        <time>2022-11-12T10:54:16Z</time>
      </trkpt>
      <trkpt lat="47.91995" lon="-4.03606">
        <ele>43.1</ele>
        <time>2022-11-12T10:54:17Z</time>
      </trkpt>
      <trkpt lat="47.92" lon="-4.036">
        <ele>43.5</ele>
        <time>2022-11-12T10:54:18Z</time>
      </trkpt>
      <trkpt lat="47.92003" lon="-4.03596">
        <ele>43.9</ele>
        <time>2022-11-12T10:54:19Z</time>
      </trkpt>
      <trkpt lat="47.92006" lon="-4.03592">
        <ele>44.2</ele>
        <time>2022-11-12T10:54:20Z</time>
      </trkpt>
      <trkpt lat="47.9201" lon="-4.03587">
        <ele>44.6</ele>
        <time>2022-11-12T10:54:21Z</time>
      </trkpt>
      <trkpt lat="47.92014" lon="-4.03582">
        <ele>44.9</ele>
        <time>2022-11-12T10:54:22Z</time>
      </trkpt>
      <trkpt lat="47.92018" lon="-4.03579">
        <ele>45.3</ele>
        <time>2022-11-12T10:54:23Z</time>
      </trkpt>
      <trkpt lat="47.9202" lon="-4.03576">
        <ele>45.5</ele>
        <time>2022-11-12T10:54:24Z</time>
      </trkpt>
      <trkpt lat="47.92025" lon="-4.0357">
        <ele>45.8</ele>
        <time>2022-11-12T10:54:25Z</time>
      </trkpt>
      <trkpt lat="47.92029" lon="-4.03567">
        <ele>46.2</ele>
        <time>2022-11-12T10:54:26Z</time>
      </trkpt>
      <trkpt lat="47.92034" lon="-4.03564">
        <ele>46.5</ele>
        <time>2022-11-12T10:54:28Z</time>
      </trkpt>
      <trkpt lat="47.92037" lon="-4.03561">
        <ele>46.6</ele>
        <time>2022-11-12T10:54:29Z</time>
      </trkpt>
      <trkpt lat="47.92042" lon="-4.03557">
        <ele>46.8</ele>
        <time>2022-11-12T10:54:30Z</time>
      </trkpt>
      <trkpt lat="47.92049" lon="-4.03555">
        <ele>47</ele>
        <time>2022-11-12T10:54:32Z</time>
      </trkpt>
      <trkpt lat="47.92054" lon="-4.03552">
        <ele>47.1</ele>
        <time>2022-11-12T10:54:33Z</time>
      </trkpt>
      <trkpt lat="47.9206" lon="-4.03551">
        <ele>47.2</ele>
        <time>2022-11-12T10:54:34Z</time>
      </trkpt>
      <trkpt lat="47.92065" lon="-4.03549">
        <ele>47.3</ele>
        <time>2022-11-12T10:54:35Z</time>
      </trkpt>
      <trkpt lat="47.92069" lon="-4.03547">
        <ele>47.4</ele>
        <time>2022-11-12T10:54:36Z</time>
      </trkpt>
      <trkpt lat="47.92074" lon="-4.03545">
        <ele>47.4</ele>
        <time>2022-11-12T10:54:37Z</time>
      </trkpt>
      <trkpt lat="47.92079" lon="-4.03544">
        <ele>47.4</ele>
        <time>2022-11-12T10:54:38Z</time>
      </trkpt>
      <trkpt lat="47.92081" lon="-4.03543">
        <ele>47.5</ele>
        <time>2022-11-12T10:54:39Z</time>
      </trkpt>
      <trkpt lat="47.92086" lon="-4.0354">
        <ele>47.5</ele>
        <time>2022-11-12T10:54:40Z</time>
      </trkpt>
      <trkpt lat="47.9209" lon="-4.03538">
        <ele>47.5</ele>
        <time>2022-11-12T10:54:41Z</time>
      </trkpt>
      <trkpt lat="47.92096" lon="-4.03536">
        <ele>47.5</ele>
        <time>2022-11-12T10:54:42Z</time>
      </trkpt>
      <trkpt lat="47.92101" lon="-4.03535">
        <ele>47.4</ele>
        <time>2022-11-12T10:54:43Z</time>
      </trkpt>
      <trkpt lat="47.92107" lon="-4.03533">
        <ele>47.4</ele>
        <time>2022-11-12T10:54:44Z</time>
      </trkpt>
      <trkpt lat="47.92112" lon="-4.03532">
        <ele>47.3</ele>
        <time>2022-11-12T10:54:45Z</time>
      </trkpt>
      <trkpt lat="47.92117" lon="-4.0353">
        <ele>47.3</ele>
        <time>2022-11-12T10:54:46Z</time>
      </trkpt>
      <trkpt lat="47.92122" lon="-4.03529">
        <ele>47.1</ele>
        <time>2022-11-12T10:54:47Z</time>
      </trkpt>
      <trkpt lat="47.92127" lon="-4.03527">
        <ele>47</ele>
        <time>2022-11-12T10:54:48Z</time>
      </trkpt>
      <trkpt lat="47.92133" lon="-4.03526">
        <ele>46.9</ele>
        <time>2022-11-12T10:54:49Z</time>
      </trkpt>
      <trkpt lat="47.92139" lon="-4.03525">
        <ele>46.7</ele>
        <time>2022-11-12T10:54:50Z</time>
      </trkpt>
      <trkpt lat="47.92144" lon="-4.03524">
        <ele>46.6</ele>
        <time>2022-11-12T10:54:51Z</time>
      </trkpt>
      <trkpt lat="47.9215" lon="-4.03524">
        <ele>46.4</ele>
        <time>2022-11-12T10:54:52Z</time>
      </trkpt>
      <trkpt lat="47.92156" lon="-4.03524">
        <ele>46.2</ele>
        <time>2022-11-12T10:54:53Z</time>
      </trkpt>
      <trkpt lat="47.92161" lon="-4.03525">
        <ele>46.1</ele>
        <time>2022-11-12T10:54:54Z</time>
      </trkpt>
      <trkpt lat="47.92165" lon="-4.03525">
        <ele>46</ele>
        <time>2022-11-12T10:54:55Z</time>
      </trkpt>
      <trkpt lat="47.92168" lon="-4.03525">
        <ele>45.9</ele>
        <time>2022-11-12T10:54:56Z</time>
      </trkpt>
      <trkpt lat="47.92169" lon="-4.03525">
        <ele>45.9</ele>
        <time>2022-11-12T10:54:57Z</time>
      </trkpt>
      <trkpt lat="47.92172" lon="-4.03524">
        <ele>45.8</ele>
        <time>2022-11-12T10:54:58Z</time>
      </trkpt>
      <trkpt lat="47.92176" lon="-4.03525">
        <ele>45.7</ele>
        <time>2022-11-12T10:54:59Z</time>
      </trkpt>
      <trkpt lat="47.92178" lon="-4.03525">
        <ele>45.6</ele>
        <time>2022-11-12T10:55:00Z</time>
      </trkpt>
      <trkpt lat="47.92182" lon="-4.03525">
        <ele>45.5</ele>
        <time>2022-11-12T10:55:01Z</time>
      </trkpt>
      <trkpt lat="47.92186" lon="-4.03526">
        <ele>45.3</ele>
        <time>2022-11-12T10:55:02Z</time>
      </trkpt>
      <trkpt lat="47.92192" lon="-4.03526">
        <ele>45</ele>
        <time>2022-11-12T10:55:04Z</time>
      </trkpt>
      <trkpt lat="47.92201" lon="-4.03528">
        <ele>44.6</ele>
        <time>2022-11-12T10:55:05Z</time>
      </trkpt>
      <trkpt lat="47.92206" lon="-4.03531">
        <ele>44.2</ele>
        <time>2022-11-12T10:55:06Z</time>
      </trkpt>
      <trkpt lat="47.92213" lon="-4.03534">
        <ele>43.8</ele>
        <time>2022-11-12T10:55:07Z</time>
      </trkpt>
      <trkpt lat="47.92219" lon="-4.03538">
        <ele>43.4</ele>
        <time>2022-11-12T10:55:08Z</time>
      </trkpt>
      <trkpt lat="47.92226" lon="-4.03541">
        <ele>42.9</ele>
        <time>2022-11-12T10:55:09Z</time>
      </trkpt>
      <trkpt lat="47.92233" lon="-4.03545">
        <ele>42.4</ele>
        <time>2022-11-12T10:55:10Z</time>
      </trkpt>
      <trkpt lat="47.9224" lon="-4.03549">
        <ele>41.8</ele>
        <time>2022-11-12T10:55:11Z</time>
      </trkpt>
      <trkpt lat="47.92247" lon="-4.03553">
        <ele>41.3</ele>
        <time>2022-11-12T10:55:12Z</time>
      </trkpt>
      <trkpt lat="47.92255" lon="-4.03557">
        <ele>40.7</ele>
        <time>2022-11-12T10:55:13Z</time>
      </trkpt>
      <trkpt lat="47.92264" lon="-4.03562">
        <ele>40.1</ele>
        <time>2022-11-12T10:55:14Z</time>
      </trkpt>
      <trkpt lat="47.92272" lon="-4.03567">
        <ele>39.4</ele>
        <time>2022-11-12T10:55:15Z</time>
      </trkpt>
      <trkpt lat="47.92281" lon="-4.03572">
        <ele>38.8</ele>
        <time>2022-11-12T10:55:16Z</time>
      </trkpt>
      <trkpt lat="47.9229" lon="-4.03577">
        <ele>38.2</ele>
        <time>2022-11-12T10:55:17Z</time>
      </trkpt>
      <trkpt lat="47.923" lon="-4.03582">
        <ele>37.5</ele>
        <time>2022-11-12T10:55:18Z</time>
      </trkpt>
      <trkpt lat="47.92309" lon="-4.03588">
        <ele>36.9</ele>
        <time>2022-11-12T10:55:19Z</time>
      </trkpt>
      <trkpt lat="47.92318" lon="-4.03592">
        <ele>36.4</ele>
        <time>2022-11-12T10:55:20Z</time>
      </trkpt>
      <trkpt lat="47.92327" lon="-4.03597">
        <ele>35.9</ele>
        <time>2022-11-12T10:55:21Z</time>
      </trkpt>
      <trkpt lat="47.92337" lon="-4.03602">
        <ele>35.3</ele>
        <time>2022-11-12T10:55:22Z</time>
      </trkpt>
      <trkpt lat="47.92348" lon="-4.03606">
        <ele>34.8</ele>
        <time>2022-11-12T10:55:23Z</time>
      </trkpt>
      <trkpt lat="47.92358" lon="-4.03608">
        <ele>34.4</ele>
        <time>2022-11-12T10:55:24Z</time>
      </trkpt>
      <trkpt lat="47.92368" lon="-4.03609">
        <ele>33.9</ele>
        <time>2022-11-12T10:55:25Z</time>
      </trkpt>
      <trkpt lat="47.92379" lon="-4.03609">
        <ele>33.4</ele>
        <time>2022-11-12T10:55:26Z</time>
      </trkpt>
      <trkpt lat="47.92389" lon="-4.03609">
        <ele>33</ele>
        <time>2022-11-12T10:55:27Z</time>
      </trkpt>
      <trkpt lat="47.924" lon="-4.03609">
        <ele>32.5</ele>
        <time>2022-11-12T10:55:28Z</time>
      </trkpt>
      <trkpt lat="47.9241" lon="-4.0361">
        <ele>32.1</ele>
        <time>2022-11-12T10:55:29Z</time>
      </trkpt>
      <trkpt lat="47.9242" lon="-4.03611">
        <ele>31.6</ele>
        <time>2022-11-12T10:55:30Z</time>
      </trkpt>
      <trkpt lat="47.9243" lon="-4.03612">
        <ele>31.2</ele>
        <time>2022-11-12T10:55:31Z</time>
      </trkpt>
      <trkpt lat="47.92439" lon="-4.03612">
        <ele>30.9</ele>
        <time>2022-11-12T10:55:32Z</time>
      </trkpt>
      <trkpt lat="47.92449" lon="-4.03613">
        <ele>30.5</ele>
        <time>2022-11-12T10:55:33Z</time>
      </trkpt>
      <trkpt lat="47.92457" lon="-4.03614">
        <ele>30.1</ele>
        <time>2022-11-12T10:55:34Z</time>
      </trkpt>
      <trkpt lat="47.92464" lon="-4.03617">
        <ele>29.7</ele>
        <time>2022-11-12T10:55:35Z</time>
      </trkpt>
      <trkpt lat="47.92469" lon="-4.03623">
        <ele>29.4</ele>
        <time>2022-11-12T10:55:36Z</time>
      </trkpt>
      <trkpt lat="47.92473" lon="-4.0363">
        <ele>29.1</ele>
        <time>2022-11-12T10:55:37Z</time>
      </trkpt>
      <trkpt lat="47.92476" lon="-4.03636">
        <ele>28.8</ele>
        <time>2022-11-12T10:55:38Z</time>
      </trkpt>
      <trkpt lat="47.9248" lon="-4.03641">
        <ele>28.5</ele>
        <time>2022-11-12T10:55:39Z</time>
      </trkpt>
      <trkpt lat="47.92484" lon="-4.03642">
        <ele>28.3</ele>
        <time>2022-11-12T10:55:40Z</time>
      </trkpt>
      <trkpt lat="47.92488" lon="-4.03641">
        <ele>28.1</ele>
        <time>2022-11-12T10:55:41Z</time>
      </trkpt>
      <trkpt lat="47.92495" lon="-4.03639">
        <ele>27.8</ele>
        <time>2022-11-12T10:55:42Z</time>
      </trkpt>
      <trkpt lat="47.92501" lon="-4.03639">
        <ele>27.4</ele>
        <time>2022-11-12T10:55:43Z</time>
      </trkpt>
      <trkpt lat="47.92507" lon="-4.03639">
        <ele>27.1</ele>
        <time>2022-11-12T10:55:44Z</time>
      </trkpt>
      <trkpt lat="47.92514" lon="-4.0364">
        <ele>26.7</ele>
        <time>2022-11-12T10:55:45Z</time>
      </trkpt>
      <trkpt lat="47.92521" lon="-4.03641">
        <ele>26.4</ele>
        <time>2022-11-12T10:55:46Z</time>
      </trkpt>
      <trkpt lat="47.92528" lon="-4.03642">
        <ele>26.1</ele>
        <time>2022-11-12T10:55:47Z</time>
      </trkpt>
      <trkpt lat="47.92535" lon="-4.03643">
        <ele>25.7</ele>
        <time>2022-11-12T10:55:48Z</time>
      </trkpt>
      <trkpt lat="47.92543" lon="-4.03644">
        <ele>25.4</ele>
        <time>2022-11-12T10:55:49Z</time>
      </trkpt>
      <trkpt lat="47.92551" lon="-4.03645">
        <ele>25.1</ele>
        <time>2022-11-12T10:55:50Z</time>
      </trkpt>
      <trkpt lat="47.92559" lon="-4.03646">
        <ele>24.9</ele>
        <time>2022-11-12T10:55:51Z</time>
      </trkpt>
      <trkpt lat="47.92567" lon="-4.03647">
        <ele>24.8</ele>
        <time>2022-11-12T10:55:52Z</time>
      </trkpt>
      <trkpt lat="47.92574" lon="-4.03648">
        <ele>24.6</ele>
        <time>2022-11-12T10:55:53Z</time>
      </trkpt>
      <trkpt lat="47.92582" lon="-4.03648">
        <ele>24.5</ele>
        <time>2022-11-12T10:55:54Z</time>
      </trkpt>
      <trkpt lat="47.92589" lon="-4.03648">
        <ele>24.4</ele>
        <time>2022-11-12T10:55:55Z</time>
      </trkpt>
      <trkpt lat="47.92597" lon="-4.03647">
        <ele>24.3</ele>
        <time>2022-11-12T10:55:56Z</time>
      </trkpt>
      <trkpt lat="47.92604" lon="-4.03646">
        <ele>24.1</ele>
        <time>2022-11-12T10:55:57Z</time>
      </trkpt>
      <trkpt lat="47.92611" lon="-4.03646">
        <ele>24</ele>
        <time>2022-11-12T10:55:58Z</time>
      </trkpt>
      <trkpt lat="47.92619" lon="-4.03645">
        <ele>23.9</ele>
        <time>2022-11-12T10:55:59Z</time>
      </trkpt>
      <trkpt lat="47.92626" lon="-4.03645">
        <ele>23.7</ele>
        <time>2022-11-12T10:56:00Z</time>
      </trkpt>
      <trkpt lat="47.92633" lon="-4.03644">
        <ele>23.6</ele>
        <time>2022-11-12T10:56:01Z</time>
      </trkpt>
      <trkpt lat="47.92641" lon="-4.03643">
        <ele>23.5</ele>
        <time>2022-11-12T10:56:02Z</time>
      </trkpt>
      <trkpt lat="47.92648" lon="-4.03642">
        <ele>23.4</ele>
        <time>2022-11-12T10:56:03Z</time>
      </trkpt>
      <trkpt lat="47.92655" lon="-4.0364">
        <ele>23.2</ele>
        <time>2022-11-12T10:56:04Z</time>
      </trkpt>
      <trkpt lat="47.92662" lon="-4.03639">
        <ele>23</ele>
        <time>2022-11-12T10:56:05Z</time>
      </trkpt>
      <trkpt lat="47.92669" lon="-4.03637">
        <ele>22.8</ele>
        <time>2022-11-12T10:56:06Z</time>
      </trkpt>
      <trkpt lat="47.92677" lon="-4.03634">
        <ele>22.5</ele>
        <time>2022-11-12T10:56:07Z</time>
      </trkpt>
      <trkpt lat="47.92684" lon="-4.03631">
        <ele>22.2</ele>
        <time>2022-11-12T10:56:08Z</time>
      </trkpt>
      <trkpt lat="47.92692" lon="-4.03628">
        <ele>21.9</ele>
        <time>2022-11-12T10:56:09Z</time>
      </trkpt>
      <trkpt lat="47.92699" lon="-4.03622">
        <ele>21.5</ele>
        <time>2022-11-12T10:56:10Z</time>
      </trkpt>
      <trkpt lat="47.92705" lon="-4.03613">
        <ele>21.2</ele>
        <time>2022-11-12T10:56:11Z</time>
      </trkpt>
      <trkpt lat="47.92711" lon="-4.03606">
        <ele>20.9</ele>
        <time>2022-11-12T10:56:12Z</time>
      </trkpt>
      <trkpt lat="47.92717" lon="-4.03597">
        <ele>20.6</ele>
        <time>2022-11-12T10:56:13Z</time>
      </trkpt>
      <trkpt lat="47.92722" lon="-4.0359">
        <ele>20.4</ele>
        <time>2022-11-12T10:56:14Z</time>
      </trkpt>
      <trkpt lat="47.92729" lon="-4.03582">
        <ele>20.2</ele>
        <time>2022-11-12T10:56:15Z</time>
      </trkpt>
      <trkpt lat="47.92735" lon="-4.03575">
        <ele>20</ele>
        <time>2022-11-12T10:56:16Z</time>
      </trkpt>
      <trkpt lat="47.92741" lon="-4.03569">
        <ele>19.9</ele>
        <time>2022-11-12T10:56:17Z</time>
      </trkpt>
      <trkpt lat="47.92747" lon="-4.03562">
        <ele>19.8</ele>
        <time>2022-11-12T10:56:18Z</time>
      </trkpt>
      <trkpt lat="47.92753" lon="-4.03556">
        <ele>19.7</ele>
        <time>2022-11-12T10:56:19Z</time>
      </trkpt>
      <trkpt lat="47.92759" lon="-4.03549">
        <ele>19.6</ele>
        <time>2022-11-12T10:56:20Z</time>
      </trkpt>
      <trkpt lat="47.92764" lon="-4.03543">
        <ele>19.6</ele>
        <time>2022-11-12T10:56:21Z</time>
      </trkpt>
      <trkpt lat="47.92769" lon="-4.03536">
        <ele>19.5</ele>
        <time>2022-11-12T10:56:22Z</time>
      </trkpt>
      <trkpt lat="47.92774" lon="-4.03528">
        <ele>19.3</ele>
        <time>2022-11-12T10:56:23Z</time>
      </trkpt>
      <trkpt lat="47.92778" lon="-4.0352">
        <ele>19.2</ele>
        <time>2022-11-12T10:56:24Z</time>
      </trkpt>
      <trkpt lat="47.92783" lon="-4.03512">
        <ele>19</ele>
        <time>2022-11-12T10:56:25Z</time>
      </trkpt>
      <trkpt lat="47.92788" lon="-4.03504">
        <ele>18.9</ele>
        <time>2022-11-12T10:56:26Z</time>
      </trkpt>
      <trkpt lat="47.92794" lon="-4.03497">
        <ele>18.6</ele>
        <time>2022-11-12T10:56:27Z</time>
      </trkpt>
      <trkpt lat="47.92799" lon="-4.03491">
        <ele>18.4</ele>
        <time>2022-11-12T10:56:28Z</time>
      </trkpt>
      <trkpt lat="47.92804" lon="-4.03488">
        <ele>18.3</ele>
        <time>2022-11-12T10:56:29Z</time>
      </trkpt>
      <trkpt lat="47.92808" lon="-4.03488">
        <ele>17.9</ele>
        <time>2022-11-12T10:56:30Z</time>
      </trkpt>
      <trkpt lat="47.92811" lon="-4.03491">
        <ele>17.9</ele>
        <time>2022-11-12T10:56:31Z</time>
      </trkpt>
      <trkpt lat="47.92814" lon="-4.03496">
        <ele>17.9</ele>
        <time>2022-11-12T10:56:32Z</time>
      </trkpt>
      <trkpt lat="47.92815" lon="-4.03498">
        <ele>17.8</ele>
        <time>2022-11-12T10:56:33Z</time>
      </trkpt>
      <trkpt lat="47.92816" lon="-4.035">
        <ele>17.8</ele>
        <time>2022-11-12T10:56:34Z</time>
      </trkpt>
      <trkpt lat="47.92818" lon="-4.03505">
        <ele>17.8</ele>
        <time>2022-11-12T10:56:35Z</time>
      </trkpt>
      <trkpt lat="47.9282" lon="-4.03509">
        <ele>17.8</ele>
        <time>2022-11-12T10:56:36Z</time>
      </trkpt>
      <trkpt lat="47.92821" lon="-4.03513">
        <ele>17.8</ele>
        <time>2022-11-12T10:56:37Z</time>
      </trkpt>
      <trkpt lat="47.92824" lon="-4.03517">
        <ele>17.8</ele>
        <time>2022-11-12T10:56:38Z</time>
      </trkpt>
      <trkpt lat="47.92825" lon="-4.03519">
        <ele>17.7</ele>
        <time>2022-11-12T10:56:39Z</time>
      </trkpt>
      <trkpt lat="47.92825" lon="-4.03524">
        <ele>17.7</ele>
        <time>2022-11-12T10:56:40Z</time>
      </trkpt>
      <trkpt lat="47.92826" lon="-4.03528">
        <ele>17.7</ele>
        <time>2022-11-12T10:56:41Z</time>
      </trkpt>
      <trkpt lat="47.92827" lon="-4.03531">
        <ele>17.7</ele>
        <time>2022-11-12T10:56:43Z</time>
      </trkpt>
      <trkpt lat="47.92829" lon="-4.03535">
        <ele>17.6</ele>
        <time>2022-11-12T10:56:44Z</time>
      </trkpt>
      <trkpt lat="47.92832" lon="-4.03541">
        <ele>17.6</ele>
        <time>2022-11-12T10:56:45Z</time>
      </trkpt>
      <trkpt lat="47.92834" lon="-4.03547">
        <ele>17.6</ele>
        <time>2022-11-12T10:56:46Z</time>
      </trkpt>
      <trkpt lat="47.92835" lon="-4.03552">
        <ele>17.5</ele>
        <time>2022-11-12T10:56:47Z</time>
      </trkpt>
      <trkpt lat="47.92838" lon="-4.03555">
        <ele>17.5</ele>
        <time>2022-11-12T10:56:48Z</time>
      </trkpt>
      <trkpt lat="47.9284" lon="-4.03554">
        <ele>17.5</ele>
        <time>2022-11-12T10:56:49Z</time>
      </trkpt>
      <trkpt lat="47.92844" lon="-4.0355">
        <ele>17.5</ele>
        <time>2022-11-12T10:56:50Z</time>
      </trkpt>
      <trkpt lat="47.92847" lon="-4.03548">
        <ele>17.5</ele>
        <time>2022-11-12T10:56:51Z</time>
      </trkpt>
      <trkpt lat="47.92851" lon="-4.03547">
        <ele>17.4</ele>
        <time>2022-11-12T10:56:52Z</time>
      </trkpt>
      <trkpt lat="47.92856" lon="-4.03547">
        <ele>17.4</ele>
        <time>2022-11-12T10:56:53Z</time>
      </trkpt>
      <trkpt lat="47.92861" lon="-4.03545">
        <ele>17.3</ele>
        <time>2022-11-12T10:56:54Z</time>
      </trkpt>
      <trkpt lat="47.9287" lon="-4.03545">
        <ele>17.3</ele>
        <time>2022-11-12T10:56:56Z</time>
      </trkpt>
      <trkpt lat="47.92875" lon="-4.03547">
        <ele>17.2</ele>
        <time>2022-11-12T10:56:57Z</time>
      </trkpt>
      <trkpt lat="47.92882" lon="-4.0355">
        <ele>17.1</ele>
        <time>2022-11-12T10:56:58Z</time>
      </trkpt>
      <trkpt lat="47.92887" lon="-4.03552">
        <ele>17</ele>
        <time>2022-11-12T10:56:59Z</time>
      </trkpt>
      <trkpt lat="47.92892" lon="-4.03551">
        <ele>17</ele>
        <time>2022-11-12T10:57:00Z</time>
      </trkpt>
      <trkpt lat="47.92896" lon="-4.03547">
        <ele>16.9</ele>
        <time>2022-11-12T10:57:01Z</time>
      </trkpt>
      <trkpt lat="47.92901" lon="-4.03543">
        <ele>16.9</ele>
        <time>2022-11-12T10:57:02Z</time>
      </trkpt>
      <trkpt lat="47.92905" lon="-4.03541">
        <ele>16.8</ele>
        <time>2022-11-12T10:57:03Z</time>
      </trkpt>
      <trkpt lat="47.9291" lon="-4.03542">
        <ele>16.8</ele>
        <time>2022-11-12T10:57:04Z</time>
      </trkpt>
      <trkpt lat="47.92915" lon="-4.03543">
        <ele>16.8</ele>
        <time>2022-11-12T10:57:05Z</time>
      </trkpt>
      <trkpt lat="47.9292" lon="-4.03543">
        <ele>16.8</ele>
        <time>2022-11-12T10:57:06Z</time>
      </trkpt>
      <trkpt lat="47.92925" lon="-4.03541">
        <ele>16.8</ele>
        <time>2022-11-12T10:57:07Z</time>
      </trkpt>
      <trkpt lat="47.92929" lon="-4.0354">
        <ele>16.9</ele>
        <time>2022-11-12T10:57:08Z</time>
      </trkpt>
      <trkpt lat="47.92934" lon="-4.03538">
        <ele>16.9</ele>
        <time>2022-11-12T10:57:09Z</time>
      </trkpt>
      <trkpt lat="47.92938" lon="-4.03534">
        <ele>17</ele>
        <time>2022-11-12T10:57:10Z</time>
      </trkpt>
      <trkpt lat="47.92942" lon="-4.0353">
        <ele>17.1</ele>
        <time>2022-11-12T10:57:11Z</time>
      </trkpt>
      <trkpt lat="47.92947" lon="-4.03525">
        <ele>17.1</ele>
        <time>2022-11-12T10:57:12Z</time>
      </trkpt>
      <trkpt lat="47.92952" lon="-4.03521">
        <ele>17.2</ele>
        <time>2022-11-12T10:57:13Z</time>
      </trkpt>
      <trkpt lat="47.92956" lon="-4.0352">
        <ele>17.3</ele>
        <time>2022-11-12T10:57:14Z</time>
      </trkpt>
      <trkpt lat="47.92961" lon="-4.03519">
        <ele>17.4</ele>
        <time>2022-11-12T10:57:15Z</time>
      </trkpt>
      <trkpt lat="47.92967" lon="-4.03518">
        <ele>17.5</ele>
        <time>2022-11-12T10:57:16Z</time>
      </trkpt>
      <trkpt lat="47.92972" lon="-4.03516">
        <ele>17.6</ele>
        <time>2022-11-12T10:57:17Z</time>
      </trkpt>
      <trkpt lat="47.92976" lon="-4.03515">
        <ele>17.8</ele>
        <time>2022-11-12T10:57:18Z</time>
      </trkpt>
      <trkpt lat="47.92981" lon="-4.03513">
        <ele>17.9</ele>
        <time>2022-11-12T10:57:19Z</time>
      </trkpt>
      <trkpt lat="47.92986" lon="-4.03512">
        <ele>18.1</ele>
        <time>2022-11-12T10:57:20Z</time>
      </trkpt>
      <trkpt lat="47.92991" lon="-4.03512">
        <ele>18.3</ele>
        <time>2022-11-12T10:57:21Z</time>
      </trkpt>
      <trkpt lat="47.92996" lon="-4.0351">
        <ele>18.4</ele>
        <time>2022-11-12T10:57:22Z</time>
      </trkpt>
      <trkpt lat="47.93" lon="-4.03508">
        <ele>18.6</ele>
        <time>2022-11-12T10:57:23Z</time>
      </trkpt>
      <trkpt lat="47.93003" lon="-4.03508">
        <ele>18.8</ele>
        <time>2022-11-12T10:57:24Z</time>
      </trkpt>
      <trkpt lat="47.93008" lon="-4.03507">
        <ele>19</ele>
        <time>2022-11-12T10:57:25Z</time>
      </trkpt>
      <trkpt lat="47.93012" lon="-4.03505">
        <ele>19.1</ele>
        <time>2022-11-12T10:57:26Z</time>
      </trkpt>
      <trkpt lat="47.93017" lon="-4.03504">
        <ele>19.3</ele>
        <time>2022-11-12T10:57:27Z</time>
      </trkpt>
      <trkpt lat="47.93022" lon="-4.03501">
        <ele>19.4</ele>
        <time>2022-11-12T10:57:28Z</time>
      </trkpt>
      <trkpt lat="47.93026" lon="-4.03498">
        <ele>19.5</ele>
        <time>2022-11-12T10:57:29Z</time>
      </trkpt>
      <trkpt lat="47.93029" lon="-4.03494">
        <ele>19.5</ele>
        <time>2022-11-12T10:57:30Z</time>
      </trkpt>
      <trkpt lat="47.93031" lon="-4.03493">
        <ele>19.6</ele>
        <time>2022-11-12T10:57:31Z</time>
      </trkpt>
      <trkpt lat="47.93039" lon="-4.03492">
        <ele>19.6</ele>
        <time>2022-11-12T10:57:32Z</time>
      </trkpt>
      <trkpt lat="47.93046" lon="-4.03491">
        <ele>19.7</ele>
        <time>2022-11-12T10:57:33Z</time>
      </trkpt>
      <trkpt lat="47.93052" lon="-4.03489">
        <ele>19.8</ele>
        <time>2022-11-12T10:57:34Z</time>
      </trkpt>
      <trkpt lat="47.93058" lon="-4.03487">
        <ele>19.9</ele>
        <time>2022-11-12T10:57:35Z</time>
      </trkpt>
      <trkpt lat="47.93062" lon="-4.03485">
        <ele>20</ele>
        <time>2022-11-12T10:57:36Z</time>
      </trkpt>
      <trkpt lat="47.93066" lon="-4.03484">
        <ele>20.1</ele>
        <time>2022-11-12T10:57:37Z</time>
      </trkpt>
      <trkpt lat="47.9307" lon="-4.03483">
        <ele>20.2</ele>
        <time>2022-11-12T10:57:38Z</time>
      </trkpt>
      <trkpt lat="47.93076" lon="-4.03482">
        <ele>20.5</ele>
        <time>2022-11-12T10:57:39Z</time>
      </trkpt>
      <trkpt lat="47.93081" lon="-4.03481">
        <ele>20.7</ele>
        <time>2022-11-12T10:57:40Z</time>
      </trkpt>
      <trkpt lat="47.93086" lon="-4.0348">
        <ele>20.9</ele>
        <time>2022-11-12T10:57:41Z</time>
      </trkpt>
      <trkpt lat="47.93088" lon="-4.03478">
        <ele>21.1</ele>
        <time>2022-11-12T10:57:42Z</time>
      </trkpt>
      <trkpt lat="47.93094" lon="-4.03477">
        <ele>21.4</ele>
        <time>2022-11-12T10:57:44Z</time>
      </trkpt>
      <trkpt lat="47.931" lon="-4.03475">
        <ele>21.8</ele>
        <time>2022-11-12T10:57:45Z</time>
      </trkpt>
      <trkpt lat="47.93106" lon="-4.03474">
        <ele>22.2</ele>
        <time>2022-11-12T10:57:47Z</time>
      </trkpt>
      <trkpt lat="47.93111" lon="-4.03473">
        <ele>22.5</ele>
        <time>2022-11-12T10:57:48Z</time>
      </trkpt>
      <trkpt lat="47.93116" lon="-4.03472">
        <ele>22.8</ele>
        <time>2022-11-12T10:57:49Z</time>
      </trkpt>
      <trkpt lat="47.9312" lon="-4.03475">
        <ele>23</ele>
        <time>2022-11-12T10:57:50Z</time>
      </trkpt>
      <trkpt lat="47.93122" lon="-4.03478">
        <ele>23</ele>
        <time>2022-11-12T10:57:51Z</time>
      </trkpt>
      <trkpt lat="47.93124" lon="-4.03482">
        <ele>23</ele>
        <time>2022-11-12T10:57:52Z</time>
      </trkpt>
      <trkpt lat="47.93126" lon="-4.03487">
        <ele>23.1</ele>
        <time>2022-11-12T10:57:53Z</time>
      </trkpt>
      <trkpt lat="47.93128" lon="-4.03492">
        <ele>23.1</ele>
        <time>2022-11-12T10:57:54Z</time>
      </trkpt>
      <trkpt lat="47.9313" lon="-4.03496">
        <ele>23.1</ele>
        <time>2022-11-12T10:57:55Z</time>
      </trkpt>
      <trkpt lat="47.93131" lon="-4.03503">
        <ele>23.1</ele>
        <time>2022-11-12T10:57:57Z</time>
      </trkpt>
      <trkpt lat="47.93128" lon="-4.03507">
        <ele>23.1</ele>
        <time>2022-11-12T10:57:58Z</time>
      </trkpt>
      <trkpt lat="47.93126" lon="-4.03511">
        <ele>23.2</ele>
        <time>2022-11-12T10:57:59Z</time>
      </trkpt>
      <trkpt lat="47.93125" lon="-4.03517">
        <ele>23.2</ele>
        <time>2022-11-12T10:58:00Z</time>
      </trkpt>
      <trkpt lat="47.93123" lon="-4.03523">
        <ele>23.2</ele>
        <time>2022-11-12T10:58:01Z</time>
      </trkpt>
      <trkpt lat="47.93121" lon="-4.03531">
        <ele>23.2</ele>
        <time>2022-11-12T10:58:03Z</time>
      </trkpt>
      <trkpt lat="47.93117" lon="-4.03538">
        <ele>23.2</ele>
        <time>2022-11-12T10:58:04Z</time>
      </trkpt>
      <trkpt lat="47.93115" lon="-4.03544">
        <ele>23.2</ele>
        <time>2022-11-12T10:58:05Z</time>
      </trkpt>
      <trkpt lat="47.93113" lon="-4.0355">
        <ele>23.1</ele>
        <time>2022-11-12T10:58:06Z</time>
      </trkpt>
      <trkpt lat="47.93112" lon="-4.03555">
        <ele>23.1</ele>
        <time>2022-11-12T10:58:07Z</time>
      </trkpt>
      <trkpt lat="47.93111" lon="-4.0356">
        <ele>23.1</ele>
        <time>2022-11-12T10:58:08Z</time>
      </trkpt>
      <trkpt lat="47.93109" lon="-4.03564">
        <ele>23.1</ele>
        <time>2022-11-12T10:58:09Z</time>
      </trkpt>
      <trkpt lat="47.93107" lon="-4.03567">
        <ele>23.1</ele>
        <time>2022-11-12T10:58:10Z</time>
      </trkpt>
      <trkpt lat="47.93104" lon="-4.03571">
        <ele>23.1</ele>
        <time>2022-11-12T10:58:11Z</time>
      </trkpt>
      <trkpt lat="47.93102" lon="-4.03579">
        <ele>23</ele>
        <time>2022-11-12T10:58:13Z</time>
      </trkpt>
      <trkpt lat="47.93101" lon="-4.03587">
        <ele>23</ele>
        <time>2022-11-12T10:58:14Z</time>
      </trkpt>
      <trkpt lat="47.93101" lon="-4.03593">
        <ele>22.9</ele>
        <time>2022-11-12T10:58:15Z</time>
      </trkpt>
      <trkpt lat="47.93101" lon="-4.03599">
        <ele>22.9</ele>
        <time>2022-11-12T10:58:16Z</time>
      </trkpt>
      <trkpt lat="47.931" lon="-4.03604">
        <ele>22.9</ele>
        <time>2022-11-12T10:58:17Z</time>
      </trkpt>
      <trkpt lat="47.931" lon="-4.03609">
        <ele>22.9</ele>
        <time>2022-11-12T10:58:18Z</time>
      </trkpt>
      <trkpt lat="47.93099" lon="-4.03615">
        <ele>22.9</ele>
        <time>2022-11-12T10:58:19Z</time>
      </trkpt>
      <trkpt lat="47.931" lon="-4.0362">
        <ele>22.9</ele>
        <time>2022-11-12T10:58:20Z</time>
      </trkpt>
      <trkpt lat="47.93099" lon="-4.03626">
        <ele>22.9</ele>
        <time>2022-11-12T10:58:21Z</time>
      </trkpt>
      <trkpt lat="47.93099" lon="-4.03631">
        <ele>22.8</ele>
        <time>2022-11-12T10:58:22Z</time>
      </trkpt>
      <trkpt lat="47.93098" lon="-4.0364">
        <ele>22.8</ele>
        <time>2022-11-12T10:58:24Z</time>
      </trkpt>
      <trkpt lat="47.93096" lon="-4.03645">
        <ele>22.8</ele>
        <time>2022-11-12T10:58:25Z</time>
      </trkpt>
      <trkpt lat="47.93095" lon="-4.03654">
        <ele>22.7</ele>
        <time>2022-11-12T10:58:26Z</time>
      </trkpt>
      <trkpt lat="47.93094" lon="-4.0366">
        <ele>22.7</ele>
        <time>2022-11-12T10:58:27Z</time>
      </trkpt>
      <trkpt lat="47.93094" lon="-4.03666">
        <ele>22.6</ele>
        <time>2022-11-12T10:58:28Z</time>
      </trkpt>
      <trkpt lat="47.93093" lon="-4.03673">
        <ele>22.5</ele>
        <time>2022-11-12T10:58:29Z</time>
      </trkpt>
      <trkpt lat="47.93095" lon="-4.03681">
        <ele>22.4</ele>
        <time>2022-11-12T10:58:30Z</time>
      </trkpt>
      <trkpt lat="47.93095" lon="-4.03687">
        <ele>22.3</ele>
        <time>2022-11-12T10:58:31Z</time>
      </trkpt>
      <trkpt lat="47.93095" lon="-4.03693">
        <ele>22.2</ele>
        <time>2022-11-12T10:58:32Z</time>
      </trkpt>
      <trkpt lat="47.93094" lon="-4.03699">
        <ele>22.2</ele>
        <time>2022-11-12T10:58:33Z</time>
      </trkpt>
      <trkpt lat="47.93094" lon="-4.03707">
        <ele>22</ele>
        <time>2022-11-12T10:58:34Z</time>
      </trkpt>
      <trkpt lat="47.93093" lon="-4.03715">
        <ele>21.8</ele>
        <time>2022-11-12T10:58:35Z</time>
      </trkpt>
      <trkpt lat="47.93092" lon="-4.03723">
        <ele>21.7</ele>
        <time>2022-11-12T10:58:36Z</time>
      </trkpt>
      <trkpt lat="47.93092" lon="-4.03732">
        <ele>21.5</ele>
        <time>2022-11-12T10:58:37Z</time>
      </trkpt>
      <trkpt lat="47.93093" lon="-4.0374">
        <ele>21.4</ele>
        <time>2022-11-12T10:58:38Z</time>
      </trkpt>
      <trkpt lat="47.93095" lon="-4.03748">
        <ele>21.3</ele>
        <time>2022-11-12T10:58:39Z</time>
      </trkpt>
      <trkpt lat="47.93098" lon="-4.03754">
        <ele>21.3</ele>
        <time>2022-11-12T10:58:40Z</time>
      </trkpt>
      <trkpt lat="47.93102" lon="-4.03756">
        <ele>21.3</ele>
        <time>2022-11-12T10:58:41Z</time>
      </trkpt>
      <trkpt lat="47.93106" lon="-4.03757">
        <ele>21.4</ele>
        <time>2022-11-12T10:58:42Z</time>
      </trkpt>
      <trkpt lat="47.9311" lon="-4.03758">
        <ele>21.5</ele>
        <time>2022-11-12T10:58:43Z</time>
      </trkpt>
      <trkpt lat="47.93113" lon="-4.03761">
        <ele>21.6</ele>
        <time>2022-11-12T10:58:45Z</time>
      </trkpt>
      <trkpt lat="47.93116" lon="-4.03761">
        <ele>21.7</ele>
        <time>2022-11-12T10:58:46Z</time>
      </trkpt>
      <trkpt lat="47.93121" lon="-4.03763">
        <ele>21.9</ele>
        <time>2022-11-12T10:58:47Z</time>
      </trkpt>
      <trkpt lat="47.93125" lon="-4.03765">
        <ele>22</ele>
        <time>2022-11-12T10:58:48Z</time>
      </trkpt>
      <trkpt lat="47.93132" lon="-4.03766">
        <ele>22.3</ele>
        <time>2022-11-12T10:58:49Z</time>
      </trkpt>
      <trkpt lat="47.93137" lon="-4.03768">
        <ele>22.5</ele>
        <time>2022-11-12T10:58:50Z</time>
      </trkpt>
      <trkpt lat="47.93141" lon="-4.03769">
        <ele>22.6</ele>
        <time>2022-11-12T10:58:51Z</time>
      </trkpt>
      <trkpt lat="47.93148" lon="-4.0377">
        <ele>22.9</ele>
        <time>2022-11-12T10:58:53Z</time>
      </trkpt>
      <trkpt lat="47.93155" lon="-4.03774">
        <ele>23.1</ele>
        <time>2022-11-12T10:58:54Z</time>
      </trkpt>
      <trkpt lat="47.93158" lon="-4.03776">
        <ele>23.2</ele>
        <time>2022-11-12T10:58:55Z</time>
      </trkpt>
      <trkpt lat="47.93164" lon="-4.03778">
        <ele>23.4</ele>
        <time>2022-11-12T10:58:56Z</time>
      </trkpt>
      <trkpt lat="47.93168" lon="-4.0378">
        <ele>23.6</ele>
        <time>2022-11-12T10:58:58Z</time>
      </trkpt>
      <trkpt lat="47.93174" lon="-4.03784">
        <ele>23.8</ele>
        <time>2022-11-12T10:58:59Z</time>
      </trkpt>
      <trkpt lat="47.93179" lon="-4.03786">
        <ele>24</ele>
        <time>2022-11-12T10:59:00Z</time>
      </trkpt>
      <trkpt lat="47.93184" lon="-4.03787">
        <ele>24.2</ele>
        <time>2022-11-12T10:59:01Z</time>
      </trkpt>
      <trkpt lat="47.93188" lon="-4.03788">
        <ele>24.3</ele>
        <time>2022-11-12T10:59:02Z</time>
      </trkpt>
      <trkpt lat="47.93195" lon="-4.0379">
        <ele>24.5</ele>
        <time>2022-11-12T10:59:04Z</time>
      </trkpt>
      <trkpt lat="47.93201" lon="-4.03792">
        <ele>24.7</ele>
        <time>2022-11-12T10:59:05Z</time>
      </trkpt>
      <trkpt lat="47.93206" lon="-4.03793">
        <ele>24.8</ele>
        <time>2022-11-12T10:59:06Z</time>
      </trkpt>
      <trkpt lat="47.9321" lon="-4.03794">
        <ele>25</ele>
        <time>2022-11-12T10:59:07Z</time>
      </trkpt>
      <trkpt lat="47.93216" lon="-4.03795">
        <ele>25.1</ele>
        <time>2022-11-12T10:59:08Z</time>
      </trkpt>
      <trkpt lat="47.93221" lon="-4.03796">
        <ele>25.2</ele>
        <time>2022-11-12T10:59:09Z</time>
      </trkpt>
      <trkpt lat="47.93225" lon="-4.03796">
        <ele>25.3</ele>
        <time>2022-11-12T10:59:10Z</time>
      </trkpt>
      <trkpt lat="47.9323" lon="-4.03795">
        <ele>25.3</ele>
        <time>2022-11-12T10:59:11Z</time>
      </trkpt>
      <trkpt lat="47.93235" lon="-4.03792">
        <ele>25.3</ele>
        <time>2022-11-12T10:59:12Z</time>
      </trkpt>
      <trkpt lat="47.93238" lon="-4.03787">
        <ele>25.3</ele>
        <time>2022-11-12T10:59:13Z</time>
      </trkpt>
      <trkpt lat="47.93241" lon="-4.0378">
        <ele>25.3</ele>
        <time>2022-11-12T10:59:14Z</time>
      </trkpt>
      <trkpt lat="47.93242" lon="-4.03772">
        <ele>25.2</ele>
        <time>2022-11-12T10:59:15Z</time>
      </trkpt>
      <trkpt lat="47.93244" lon="-4.03765">
        <ele>25.2</ele>
        <time>2022-11-12T10:59:16Z</time>
      </trkpt>
      <trkpt lat="47.93245" lon="-4.03757">
        <ele>25.1</ele>
        <time>2022-11-12T10:59:17Z</time>
      </trkpt>
      <trkpt lat="47.93247" lon="-4.03749">
        <ele>25</ele>
        <time>2022-11-12T10:59:18Z</time>
      </trkpt>
      <trkpt lat="47.93248" lon="-4.03742">
        <ele>24.9</ele>
        <time>2022-11-12T10:59:19Z</time>
      </trkpt>
      <trkpt lat="47.9325" lon="-4.03734">
        <ele>24.8</ele>
        <time>2022-11-12T10:59:20Z</time>
      </trkpt>
      <trkpt lat="47.93252" lon="-4.03726">
        <ele>24.7</ele>
        <time>2022-11-12T10:59:21Z</time>
      </trkpt>
      <trkpt lat="47.93255" lon="-4.03719">
        <ele>24.6</ele>
        <time>2022-11-12T10:59:22Z</time>
      </trkpt>
      <trkpt lat="47.93257" lon="-4.03711">
        <ele>24.4</ele>
        <time>2022-11-12T10:59:23Z</time>
      </trkpt>
      <trkpt lat="47.93259" lon="-4.03703">
        <ele>24.3</ele>
        <time>2022-11-12T10:59:24Z</time>
      </trkpt>
      <trkpt lat="47.9326" lon="-4.03693">
        <ele>24.2</ele>
        <time>2022-11-12T10:59:25Z</time>
      </trkpt>
      <trkpt lat="47.93263" lon="-4.03685">
        <ele>24.1</ele>
        <time>2022-11-12T10:59:26Z</time>
      </trkpt>
      <trkpt lat="47.93265" lon="-4.03677">
        <ele>23.9</ele>
        <time>2022-11-12T10:59:27Z</time>
      </trkpt>
      <trkpt lat="47.93267" lon="-4.03667">
        <ele>23.8</ele>
        <time>2022-11-12T10:59:28Z</time>
      </trkpt>
      <trkpt lat="47.9327" lon="-4.03658">
        <ele>23.6</ele>
        <time>2022-11-12T10:59:29Z</time>
      </trkpt>
      <trkpt lat="47.93273" lon="-4.0365">
        <ele>23.5</ele>
        <time>2022-11-12T10:59:30Z</time>
      </trkpt>
      <trkpt lat="47.93276" lon="-4.03641">
        <ele>23.4</ele>
        <time>2022-11-12T10:59:31Z</time>
      </trkpt>
      <trkpt lat="47.93279" lon="-4.03631">
        <ele>23.3</ele>
        <time>2022-11-12T10:59:32Z</time>
      </trkpt>
      <trkpt lat="47.9328" lon="-4.03622">
        <ele>23.2</ele>
        <time>2022-11-12T10:59:33Z</time>
      </trkpt>
      <trkpt lat="47.93281" lon="-4.03612">
        <ele>23.2</ele>
        <time>2022-11-12T10:59:34Z</time>
      </trkpt>
      <trkpt lat="47.93282" lon="-4.03602">
        <ele>23.2</ele>
        <time>2022-11-12T10:59:35Z</time>
      </trkpt>
      <trkpt lat="47.93283" lon="-4.03592">
        <ele>23.3</ele>
        <time>2022-11-12T10:59:36Z</time>
      </trkpt>
      <trkpt lat="47.93281" lon="-4.03582">
        <ele>23.3</ele>
        <time>2022-11-12T10:59:37Z</time>
      </trkpt>
      <trkpt lat="47.93281" lon="-4.03573">
        <ele>23.4</ele>
        <time>2022-11-12T10:59:38Z</time>
      </trkpt>
      <trkpt lat="47.93281" lon="-4.03564">
        <ele>23.6</ele>
        <time>2022-11-12T10:59:39Z</time>
      </trkpt>
      <trkpt lat="47.9328" lon="-4.03555">
        <ele>23.8</ele>
        <time>2022-11-12T10:59:40Z</time>
      </trkpt>
      <trkpt lat="47.9328" lon="-4.03545">
        <ele>24</ele>
        <time>2022-11-12T10:59:41Z</time>
      </trkpt>
      <trkpt lat="47.9328" lon="-4.03537">
        <ele>24.2</ele>
        <time>2022-11-12T10:59:42Z</time>
      </trkpt>
      <trkpt lat="47.93281" lon="-4.03529">
        <ele>24.4</ele>
        <time>2022-11-12T10:59:43Z</time>
      </trkpt>
      <trkpt lat="47.93282" lon="-4.03523">
        <ele>24.5</ele>
        <time>2022-11-12T10:59:44Z</time>
      </trkpt>
      <trkpt lat="47.93286" lon="-4.03519">
        <ele>24.6</ele>
        <time>2022-11-12T10:59:45Z</time>
      </trkpt>
      <trkpt lat="47.93288" lon="-4.03518">
        <ele>24.6</ele>
        <time>2022-11-12T10:59:46Z</time>
      </trkpt>
      <trkpt lat="47.93295" lon="-4.03516">
        <ele>24.6</ele>
        <time>2022-11-12T10:59:47Z</time>
      </trkpt>
      <trkpt lat="47.93302" lon="-4.03517">
        <ele>24.5</ele>
        <time>2022-11-12T10:59:48Z</time>
      </trkpt>
      <trkpt lat="47.93308" lon="-4.03517">
        <ele>24.3</ele>
        <time>2022-11-12T10:59:49Z</time>
      </trkpt>
      <trkpt lat="47.93315" lon="-4.03517">
        <ele>24.2</ele>
        <time>2022-11-12T10:59:50Z</time>
      </trkpt>
      <trkpt lat="47.9332" lon="-4.03514">
        <ele>24</ele>
        <time>2022-11-12T10:59:51Z</time>
      </trkpt>
      <trkpt lat="47.93327" lon="-4.0351">
        <ele>23.8</ele>
        <time>2022-11-12T10:59:52Z</time>
      </trkpt>
      <trkpt lat="47.93332" lon="-4.03504">
        <ele>23.7</ele>
        <time>2022-11-12T10:59:53Z</time>
      </trkpt>
      <trkpt lat="47.93337" lon="-4.03497">
        <ele>23.6</ele>
        <time>2022-11-12T10:59:54Z</time>
      </trkpt>
      <trkpt lat="47.93342" lon="-4.03491">
        <ele>23.6</ele>
        <time>2022-11-12T10:59:55Z</time>
      </trkpt>
      <trkpt lat="47.93347" lon="-4.03485">
        <ele>23.5</ele>
        <time>2022-11-12T10:59:56Z</time>
      </trkpt>
      <trkpt lat="47.93352" lon="-4.03479">
        <ele>23.5</ele>
        <time>2022-11-12T10:59:57Z</time>
      </trkpt>
      <trkpt lat="47.93358" lon="-4.03475">
        <ele>23.5</ele>
        <time>2022-11-12T10:59:58Z</time>
      </trkpt>
      <trkpt lat="47.93363" lon="-4.0347">
        <ele>23.5</ele>
        <time>2022-11-12T10:59:59Z</time>
      </trkpt>
      <trkpt lat="47.93367" lon="-4.03465">
        <ele>23.5</ele>
        <time>2022-11-12T11:00:00Z</time>
      </trkpt>
      <trkpt lat="47.9337" lon="-4.0346">
        <ele>23.4</ele>
        <time>2022-11-12T11:00:01Z</time>
      </trkpt>
      <trkpt lat="47.93374" lon="-4.03455">
        <ele>23.4</ele>
        <time>2022-11-12T11:00:02Z</time>
      </trkpt>
      <trkpt lat="47.93379" lon="-4.03449">
        <ele>23.3</ele>
        <time>2022-11-12T11:00:03Z</time>
      </trkpt>
      <trkpt lat="47.93384" lon="-4.03444">
        <ele>23.2</ele>
        <time>2022-11-12T11:00:04Z</time>
      </trkpt>
      <trkpt lat="47.93389" lon="-4.03442">
        <ele>23.1</ele>
        <time>2022-11-12T11:00:05Z</time>
      </trkpt>
      <trkpt lat="47.93394" lon="-4.03442">
        <ele>22.9</ele>
        <time>2022-11-12T11:00:06Z</time>
      </trkpt>
      <trkpt lat="47.93399" lon="-4.03445">
        <ele>22.7</ele>
        <time>2022-11-12T11:00:07Z</time>
      </trkpt>
      <trkpt lat="47.93405" lon="-4.03451">
        <ele>22.5</ele>
        <time>2022-11-12T11:00:08Z</time>
      </trkpt>
      <trkpt lat="47.93409" lon="-4.03457">
        <ele>22.2</ele>
        <time>2022-11-12T11:00:09Z</time>
      </trkpt>
      <trkpt lat="47.93414" lon="-4.03464">
        <ele>21.9</ele>
        <time>2022-11-12T11:00:10Z</time>
      </trkpt>
      <trkpt lat="47.93419" lon="-4.0347">
        <ele>21.7</ele>
        <time>2022-11-12T11:00:11Z</time>
      </trkpt>
      <trkpt lat="47.93423" lon="-4.03476">
        <ele>21.5</ele>
        <time>2022-11-12T11:00:12Z</time>
      </trkpt>
      <trkpt lat="47.93427" lon="-4.03482">
        <ele>21.3</ele>
        <time>2022-11-12T11:00:13Z</time>
      </trkpt>
      <trkpt lat="47.93432" lon="-4.03488">
        <ele>21.1</ele>
        <time>2022-11-12T11:00:14Z</time>
      </trkpt>
      <trkpt lat="47.93438" lon="-4.03495">
        <ele>20.9</ele>
        <time>2022-11-12T11:00:15Z</time>
      </trkpt>
      <trkpt lat="47.93444" lon="-4.03501">
        <ele>20.8</ele>
        <time>2022-11-12T11:00:16Z</time>
      </trkpt>
      <trkpt lat="47.9345" lon="-4.03507">
        <ele>20.7</ele>
        <time>2022-11-12T11:00:17Z</time>
      </trkpt>
      <trkpt lat="47.93457" lon="-4.03512">
        <ele>20.6</ele>
        <time>2022-11-12T11:00:18Z</time>
      </trkpt>
      <trkpt lat="47.93463" lon="-4.03514">
        <ele>20.6</ele>
        <time>2022-11-12T11:00:19Z</time>
      </trkpt>
      <trkpt lat="47.93466" lon="-4.03511">
        <ele>20.6</ele>
        <time>2022-11-12T11:00:20Z</time>
      </trkpt>
      <trkpt lat="47.93468" lon="-4.03507">
        <ele>20.6</ele>
        <time>2022-11-12T11:00:21Z</time>
      </trkpt>
      <trkpt lat="47.93471" lon="-4.03501">
        <ele>20.6</ele>
        <time>2022-11-12T11:00:22Z</time>
      </trkpt>
      <trkpt lat="47.93476" lon="-4.03496">
        <ele>20.6</ele>
        <time>2022-11-12T11:00:23Z</time>
      </trkpt>
      <trkpt lat="47.93481" lon="-4.03494">
        <ele>20.7</ele>
        <time>2022-11-12T11:00:24Z</time>
      </trkpt>
      <trkpt lat="47.93487" lon="-4.03494">
        <ele>20.7</ele>
        <time>2022-11-12T11:00:25Z</time>
      </trkpt>
      <trkpt lat="47.93493" lon="-4.03496">
        <ele>20.8</ele>
        <time>2022-11-12T11:00:26Z</time>
      </trkpt>
      <trkpt lat="47.93499" lon="-4.03498">
        <ele>20.8</ele>
        <time>2022-11-12T11:00:27Z</time>
      </trkpt>
      <trkpt lat="47.93504" lon="-4.035">
        <ele>20.8</ele>
        <time>2022-11-12T11:00:28Z</time>
      </trkpt>
      <trkpt lat="47.93509" lon="-4.03502">
        <ele>20.8</ele>
        <time>2022-11-12T11:00:29Z</time>
      </trkpt>
      <trkpt lat="47.93515" lon="-4.03502">
        <ele>20.8</ele>
        <time>2022-11-12T11:00:30Z</time>
      </trkpt>
      <trkpt lat="47.9352" lon="-4.03504">
        <ele>20.8</ele>
        <time>2022-11-12T11:00:31Z</time>
      </trkpt>
      <trkpt lat="47.93527" lon="-4.03506">
        <ele>20.8</ele>
        <time>2022-11-12T11:00:32Z</time>
      </trkpt>
      <trkpt lat="47.93532" lon="-4.03509">
        <ele>20.8</ele>
        <time>2022-11-12T11:00:33Z</time>
      </trkpt>
      <trkpt lat="47.93538" lon="-4.03511">
        <ele>20.7</ele>
        <time>2022-11-12T11:00:34Z</time>
      </trkpt>
      <trkpt lat="47.93544" lon="-4.03512">
        <ele>20.7</ele>
        <time>2022-11-12T11:00:35Z</time>
      </trkpt>
      <trkpt lat="47.93549" lon="-4.03513">
        <ele>20.6</ele>
        <time>2022-11-12T11:00:36Z</time>
      </trkpt>
      <trkpt lat="47.93555" lon="-4.03516">
        <ele>20.5</ele>
        <time>2022-11-12T11:00:37Z</time>
      </trkpt>
      <trkpt lat="47.93561" lon="-4.03518">
        <ele>20.5</ele>
        <time>2022-11-12T11:00:38Z</time>
      </trkpt>
      <trkpt lat="47.93567" lon="-4.0352">
        <ele>20.4</ele>
        <time>2022-11-12T11:00:39Z</time>
      </trkpt>
      <trkpt lat="47.93573" lon="-4.03523">
        <ele>20.2</ele>
        <time>2022-11-12T11:00:40Z</time>
      </trkpt>
      <trkpt lat="47.93579" lon="-4.03525">
        <ele>20.1</ele>
        <time>2022-11-12T11:00:41Z</time>
      </trkpt>
      <trkpt lat="47.93586" lon="-4.03527">
        <ele>19.9</ele>
        <time>2022-11-12T11:00:42Z</time>
      </trkpt>
      <trkpt lat="47.93592" lon="-4.0353">
        <ele>19.7</ele>
        <time>2022-11-12T11:00:43Z</time>
      </trkpt>
      <trkpt lat="47.93599" lon="-4.03532">
        <ele>19.5</ele>
        <time>2022-11-12T11:00:44Z</time>
      </trkpt>
      <trkpt lat="47.93605" lon="-4.03534">
        <ele>19.4</ele>
        <time>2022-11-12T11:00:45Z</time>
      </trkpt>
      <trkpt lat="47.93612" lon="-4.03537">
        <ele>19.2</ele>
        <time>2022-11-12T11:00:46Z</time>
      </trkpt>
      <trkpt lat="47.93619" lon="-4.03539">
        <ele>19</ele>
        <time>2022-11-12T11:00:47Z</time>
      </trkpt>
      <trkpt lat="47.93626" lon="-4.03542">
        <ele>18.8</ele>
        <time>2022-11-12T11:00:48Z</time>
      </trkpt>
      <trkpt lat="47.93633" lon="-4.03546">
        <ele>18.7</ele>
        <time>2022-11-12T11:00:49Z</time>
      </trkpt>
      <trkpt lat="47.93639" lon="-4.03551">
        <ele>18.5</ele>
        <time>2022-11-12T11:00:50Z</time>
      </trkpt>
      <trkpt lat="47.93644" lon="-4.03556">
        <ele>18.5</ele>
        <time>2022-11-12T11:00:51Z</time>
      </trkpt>
      <trkpt lat="47.9365" lon="-4.03561">
        <ele>18.5</ele>
        <time>2022-11-12T11:00:52Z</time>
      </trkpt>
      <trkpt lat="47.93656" lon="-4.03564">
        <ele>18.4</ele>
        <time>2022-11-12T11:00:53Z</time>
      </trkpt>
      <trkpt lat="47.93662" lon="-4.03566">
        <ele>18.4</ele>
        <time>2022-11-12T11:00:54Z</time>
      </trkpt>
      <trkpt lat="47.93669" lon="-4.03567">
        <ele>18.4</ele>
        <time>2022-11-12T11:00:55Z</time>
      </trkpt>
      <trkpt lat="47.93674" lon="-4.03568">
        <ele>18.5</ele>
        <time>2022-11-12T11:00:56Z</time>
      </trkpt>
      <trkpt lat="47.9368" lon="-4.03569">
        <ele>18.5</ele>
        <time>2022-11-12T11:00:57Z</time>
      </trkpt>
      <trkpt lat="47.93686" lon="-4.03571">
        <ele>18.6</ele>
        <time>2022-11-12T11:00:58Z</time>
      </trkpt>
      <trkpt lat="47.93691" lon="-4.03573">
        <ele>18.7</ele>
        <time>2022-11-12T11:00:59Z</time>
      </trkpt>
      <trkpt lat="47.93696" lon="-4.03575">
        <ele>18.8</ele>
        <time>2022-11-12T11:01:00Z</time>
      </trkpt>
      <trkpt lat="47.93702" lon="-4.03578">
        <ele>18.9</ele>
        <time>2022-11-12T11:01:01Z</time>
      </trkpt>
      <trkpt lat="47.93707" lon="-4.03581">
        <ele>19.1</ele>
        <time>2022-11-12T11:01:02Z</time>
      </trkpt>
      <trkpt lat="47.93712" lon="-4.03584">
        <ele>19.3</ele>
        <time>2022-11-12T11:01:03Z</time>
      </trkpt>
      <trkpt lat="47.93716" lon="-4.03588">
        <ele>19.5</ele>
        <time>2022-11-12T11:01:04Z</time>
      </trkpt>
      <trkpt lat="47.93721" lon="-4.03592">
        <ele>19.8</ele>
        <time>2022-11-12T11:01:05Z</time>
      </trkpt>
      <trkpt lat="47.93726" lon="-4.03596">
        <ele>20</ele>
        <time>2022-11-12T11:01:06Z</time>
      </trkpt>
      <trkpt lat="47.9373" lon="-4.03599">
        <ele>20.2</ele>
        <time>2022-11-12T11:01:07Z</time>
      </trkpt>
      <trkpt lat="47.93734" lon="-4.03603">
        <ele>20.4</ele>
        <time>2022-11-12T11:01:08Z</time>
      </trkpt>
      <trkpt lat="47.93738" lon="-4.03607">
        <ele>20.6</ele>
        <time>2022-11-12T11:01:09Z</time>
      </trkpt>
      <trkpt lat="47.93741" lon="-4.03612">
        <ele>20.8</ele>
        <time>2022-11-12T11:01:10Z</time>
      </trkpt>
      <trkpt lat="47.93744" lon="-4.03617">
        <ele>21</ele>
        <time>2022-11-12T11:01:11Z</time>
      </trkpt>
      <trkpt lat="47.93748" lon="-4.03622">
        <ele>21.2</ele>
        <time>2022-11-12T11:01:12Z</time>
      </trkpt>
      <trkpt lat="47.93751" lon="-4.03627">
        <ele>21.3</ele>
        <time>2022-11-12T11:01:13Z</time>
      </trkpt>
      <trkpt lat="47.93755" lon="-4.03631">
        <ele>21.5</ele>
        <time>2022-11-12T11:01:14Z</time>
      </trkpt>
      <trkpt lat="47.93758" lon="-4.03636">
        <ele>21.7</ele>
        <time>2022-11-12T11:01:15Z</time>
      </trkpt>
      <trkpt lat="47.93762" lon="-4.0364">
        <ele>21.8</ele>
        <time>2022-11-12T11:01:16Z</time>
      </trkpt>
      <trkpt lat="47.93765" lon="-4.03643">
        <ele>22</ele>
        <time>2022-11-12T11:01:17Z</time>
      </trkpt>
      <trkpt lat="47.9377" lon="-4.03647">
        <ele>22.2</ele>
        <time>2022-11-12T11:01:18Z</time>
      </trkpt>
      <trkpt lat="47.93774" lon="-4.0365">
        <ele>22.4</ele>
        <time>2022-11-12T11:01:19Z</time>
      </trkpt>
      <trkpt lat="47.93778" lon="-4.03653">
        <ele>22.7</ele>
        <time>2022-11-12T11:01:20Z</time>
      </trkpt>
      <trkpt lat="47.93782" lon="-4.03656">
        <ele>22.9</ele>
        <time>2022-11-12T11:01:21Z</time>
      </trkpt>
      <trkpt lat="47.93787" lon="-4.03658">
        <ele>23.2</ele>
        <time>2022-11-12T11:01:22Z</time>
      </trkpt>
      <trkpt lat="47.93791" lon="-4.03661">
        <ele>23.6</ele>
        <time>2022-11-12T11:01:23Z</time>
      </trkpt>
      <trkpt lat="47.93796" lon="-4.03663">
        <ele>23.9</ele>
        <time>2022-11-12T11:01:24Z</time>
      </trkpt>
      <trkpt lat="47.938" lon="-4.03663">
        <ele>24.2</ele>
        <time>2022-11-12T11:01:25Z</time>
      </trkpt>
      <trkpt lat="47.93803" lon="-4.03663">
        <ele>24.4</ele>
        <time>2022-11-12T11:01:26Z</time>
      </trkpt>
      <trkpt lat="47.93807" lon="-4.03663">
        <ele>24.8</ele>
        <time>2022-11-12T11:01:27Z</time>
      </trkpt>
      <trkpt lat="47.9381" lon="-4.03662">
        <ele>25.1</ele>
        <time>2022-11-12T11:01:28Z</time>
      </trkpt>
      <trkpt lat="47.93814" lon="-4.03662">
        <ele>25.4</ele>
        <time>2022-11-12T11:01:29Z</time>
      </trkpt>
      <trkpt lat="47.93817" lon="-4.03662">
        <ele>25.7</ele>
        <time>2022-11-12T11:01:30Z</time>
      </trkpt>
      <trkpt lat="47.93819" lon="-4.03662">
        <ele>25.9</ele>
        <time>2022-11-12T11:01:31Z</time>
      </trkpt>
      <trkpt lat="47.93823" lon="-4.03661">
        <ele>26.3</ele>
        <time>2022-11-12T11:01:33Z</time>
      </trkpt>
      <trkpt lat="47.93828" lon="-4.0366">
        <ele>26.8</ele>
        <time>2022-11-12T11:01:34Z</time>
      </trkpt>
      <trkpt lat="47.93832" lon="-4.03661">
        <ele>27.2</ele>
        <time>2022-11-12T11:01:35Z</time>
      </trkpt>
      <trkpt lat="47.93836" lon="-4.03661">
        <ele>27.6</ele>
        <time>2022-11-12T11:01:36Z</time>
      </trkpt>
      <trkpt lat="47.93837" lon="-4.03661">
        <ele>27.8</ele>
        <time>2022-11-12T11:01:37Z</time>
      </trkpt>
      <trkpt lat="47.9384" lon="-4.03661">
        <ele>28.1</ele>
        <time>2022-11-12T11:01:38Z</time>
      </trkpt>
      <trkpt lat="47.93845" lon="-4.0366">
        <ele>28.7</ele>
        <time>2022-11-12T11:01:39Z</time>
      </trkpt>
      <trkpt lat="47.93848" lon="-4.0366">
        <ele>29.1</ele>
        <time>2022-11-12T11:01:40Z</time>
      </trkpt>
      <trkpt lat="47.93851" lon="-4.03661">
        <ele>29.5</ele>
        <time>2022-11-12T11:01:41Z</time>
      </trkpt>
      <trkpt lat="47.93853" lon="-4.03661">
        <ele>29.7</ele>
        <time>2022-11-12T11:01:42Z</time>
      </trkpt>
      <trkpt lat="47.93858" lon="-4.03661">
        <ele>30.3</ele>
        <time>2022-11-12T11:01:44Z</time>
      </trkpt>
      <trkpt lat="47.93861" lon="-4.03662">
        <ele>30.8</ele>
        <time>2022-11-12T11:01:45Z</time>
      </trkpt>
      <trkpt lat="47.93865" lon="-4.03663">
        <ele>31.2</ele>
        <time>2022-11-12T11:01:46Z</time>
      </trkpt>
      <trkpt lat="47.9387" lon="-4.03665">
        <ele>31.8</ele>
        <time>2022-11-12T11:01:48Z</time>
      </trkpt>
      <trkpt lat="47.93874" lon="-4.03666">
        <ele>32.2</ele>
        <time>2022-11-12T11:01:49Z</time>
      </trkpt>
      <trkpt lat="47.93879" lon="-4.0367">
        <ele>32.9</ele>
        <time>2022-11-12T11:01:51Z</time>
      </trkpt>
      <trkpt lat="47.93881" lon="-4.03672">
        <ele>33.2</ele>
        <time>2022-11-12T11:01:52Z</time>
      </trkpt>
      <trkpt lat="47.93884" lon="-4.03676">
        <ele>33.6</ele>
        <time>2022-11-12T11:01:54Z</time>
      </trkpt>
      <trkpt lat="47.93886" lon="-4.03679">
        <ele>33.9</ele>
        <time>2022-11-12T11:01:55Z</time>
      </trkpt>
      <trkpt lat="47.93889" lon="-4.03684">
        <ele>34.3</ele>
        <time>2022-11-12T11:01:56Z</time>
      </trkpt>
      <trkpt lat="47.93891" lon="-4.03688">
        <ele>34.7</ele>
        <time>2022-11-12T11:01:57Z</time>
      </trkpt>
      <trkpt lat="47.93893" lon="-4.03692">
        <ele>34.9</ele>
        <time>2022-11-12T11:01:58Z</time>
      </trkpt>
      <trkpt lat="47.93894" lon="-4.03696">
        <ele>35.3</ele>
        <time>2022-11-12T11:01:59Z</time>
      </trkpt>
      <trkpt lat="47.93896" lon="-4.03699">
        <ele>35.5</ele>
        <time>2022-11-12T11:02:00Z</time>
      </trkpt>
      <trkpt lat="47.939" lon="-4.03703">
        <ele>36</ele>
        <time>2022-11-12T11:02:02Z</time>
      </trkpt>
      <trkpt lat="47.93904" lon="-4.03707">
        <ele>36.5</ele>
        <time>2022-11-12T11:02:03Z</time>
      </trkpt>
      <trkpt lat="47.93906" lon="-4.03709">
        <ele>36.7</ele>
        <time>2022-11-12T11:02:04Z</time>
      </trkpt>
      <trkpt lat="47.93908" lon="-4.0371">
        <ele>36.8</ele>
        <time>2022-11-12T11:02:05Z</time>
      </trkpt>
      <trkpt lat="47.93914" lon="-4.03708">
        <ele>37.2</ele>
        <time>2022-11-12T11:02:07Z</time>
      </trkpt>
      <trkpt lat="47.93918" lon="-4.03705">
        <ele>37.5</ele>
        <time>2022-11-12T11:02:08Z</time>
      </trkpt>
      <trkpt lat="47.9392" lon="-4.03704">
        <ele>37.6</ele>
        <time>2022-11-12T11:02:09Z</time>
      </trkpt>
      <trkpt lat="47.93922" lon="-4.03702">
        <ele>37.7</ele>
        <time>2022-11-12T11:02:10Z</time>
      </trkpt>
      <trkpt lat="47.93925" lon="-4.03701">
        <ele>37.8</ele>
        <time>2022-11-12T11:02:11Z</time>
      </trkpt>
      <trkpt lat="47.93929" lon="-4.03698">
        <ele>37.9</ele>
        <time>2022-11-12T11:02:12Z</time>
      </trkpt>
      <trkpt lat="47.93932" lon="-4.03696">
        <ele>38</ele>
        <time>2022-11-12T11:02:13Z</time>
      </trkpt>
      <trkpt lat="47.93938" lon="-4.03693">
        <ele>38.1</ele>
        <time>2022-11-12T11:02:14Z</time>
      </trkpt>
      <trkpt lat="47.93941" lon="-4.03692">
        <ele>38.2</ele>
        <time>2022-11-12T11:02:15Z</time>
      </trkpt>
      <trkpt lat="47.93944" lon="-4.0369">
        <ele>38.2</ele>
        <time>2022-11-12T11:02:16Z</time>
      </trkpt>
      <trkpt lat="47.93949" lon="-4.03688">
        <ele>38.2</ele>
        <time>2022-11-12T11:02:17Z</time>
      </trkpt>
      <trkpt lat="47.93955" lon="-4.03685">
        <ele>38.1</ele>
        <time>2022-11-12T11:02:19Z</time>
      </trkpt>
      <trkpt lat="47.9396" lon="-4.03683">
        <ele>38.1</ele>
        <time>2022-11-12T11:02:20Z</time>
      </trkpt>
      <trkpt lat="47.93964" lon="-4.03681">
        <ele>37.9</ele>
        <time>2022-11-12T11:02:21Z</time>
      </trkpt>
      <trkpt lat="47.9397" lon="-4.03675">
        <ele>37.7</ele>
        <time>2022-11-12T11:02:23Z</time>
      </trkpt>
      <trkpt lat="47.93976" lon="-4.0367">
        <ele>37.4</ele>
        <time>2022-11-12T11:02:24Z</time>
      </trkpt>
      <trkpt lat="47.93981" lon="-4.03659">
        <ele>36.8</ele>
        <time>2022-11-12T11:02:25Z</time>
      </trkpt>
      <trkpt lat="47.93984" lon="-4.03651">
        <ele>36.4</ele>
        <time>2022-11-12T11:02:26Z</time>
      </trkpt>
      <trkpt lat="47.93987" lon="-4.03642">
        <ele>35.9</ele>
        <time>2022-11-12T11:02:27Z</time>
      </trkpt>
      <trkpt lat="47.93988" lon="-4.03632">
        <ele>35.4</ele>
        <time>2022-11-12T11:02:28Z</time>
      </trkpt>
      <trkpt lat="47.93989" lon="-4.03621">
        <ele>34.9</ele>
        <time>2022-11-12T11:02:29Z</time>
      </trkpt>
      <trkpt lat="47.93991" lon="-4.0361">
        <ele>34.4</ele>
        <time>2022-11-12T11:02:30Z</time>
      </trkpt>
      <trkpt lat="47.93992" lon="-4.03599">
        <ele>34</ele>
        <time>2022-11-12T11:02:31Z</time>
      </trkpt>
      <trkpt lat="47.93992" lon="-4.03588">
        <ele>33.6</ele>
        <time>2022-11-12T11:02:32Z</time>
      </trkpt>
      <trkpt lat="47.93991" lon="-4.03578">
        <ele>33.2</ele>
        <time>2022-11-12T11:02:33Z</time>
      </trkpt>
      <trkpt lat="47.93991" lon="-4.03567">
        <ele>32.9</ele>
        <time>2022-11-12T11:02:34Z</time>
      </trkpt>
      <trkpt lat="47.9399" lon="-4.03555">
        <ele>32.5</ele>
        <time>2022-11-12T11:02:35Z</time>
      </trkpt>
      <trkpt lat="47.93989" lon="-4.03545">
        <ele>32.2</ele>
        <time>2022-11-12T11:02:36Z</time>
      </trkpt>
      <trkpt lat="47.93988" lon="-4.03535">
        <ele>32</ele>
        <time>2022-11-12T11:02:37Z</time>
      </trkpt>
      <trkpt lat="47.93989" lon="-4.03525">
        <ele>31.8</ele>
        <time>2022-11-12T11:02:38Z</time>
      </trkpt>
      <trkpt lat="47.9399" lon="-4.03515">
        <ele>31.6</ele>
        <time>2022-11-12T11:02:39Z</time>
      </trkpt>
      <trkpt lat="47.93992" lon="-4.03505">
        <ele>31.5</ele>
        <time>2022-11-12T11:02:40Z</time>
      </trkpt>
      <trkpt lat="47.93995" lon="-4.03496">
        <ele>31.5</ele>
        <time>2022-11-12T11:02:41Z</time>
      </trkpt>
      <trkpt lat="47.93999" lon="-4.03489">
        <ele>31.5</ele>
        <time>2022-11-12T11:02:42Z</time>
      </trkpt>
      <trkpt lat="47.94003" lon="-4.03483">
        <ele>31.6</ele>
        <time>2022-11-12T11:02:43Z</time>
      </trkpt>
      <trkpt lat="47.94007" lon="-4.03476">
        <ele>31.7</ele>
        <time>2022-11-12T11:02:44Z</time>
      </trkpt>
      <trkpt lat="47.94011" lon="-4.0347">
        <ele>31.8</ele>
        <time>2022-11-12T11:02:45Z</time>
      </trkpt>
      <trkpt lat="47.94015" lon="-4.03464">
        <ele>31.9</ele>
        <time>2022-11-12T11:02:46Z</time>
      </trkpt>
      <trkpt lat="47.94018" lon="-4.03458">
        <ele>32.1</ele>
        <time>2022-11-12T11:02:47Z</time>
      </trkpt>
      <trkpt lat="47.94022" lon="-4.03453">
        <ele>32.3</ele>
        <time>2022-11-12T11:02:48Z</time>
      </trkpt>
      <trkpt lat="47.94026" lon="-4.03447">
        <ele>32.6</ele>
        <time>2022-11-12T11:02:49Z</time>
      </trkpt>
      <trkpt lat="47.9403" lon="-4.03441">
        <ele>32.8</ele>
        <time>2022-11-12T11:02:50Z</time>
      </trkpt>
      <trkpt lat="47.94034" lon="-4.03435">
        <ele>33.1</ele>
        <time>2022-11-12T11:02:51Z</time>
      </trkpt>
      <trkpt lat="47.94037" lon="-4.0343">
        <ele>33.4</ele>
        <time>2022-11-12T11:02:52Z</time>
      </trkpt>
      <trkpt lat="47.9404" lon="-4.03424">
        <ele>33.6</ele>
        <time>2022-11-12T11:02:53Z</time>
      </trkpt>
      <trkpt lat="47.94043" lon="-4.03419">
        <ele>33.9</ele>
        <time>2022-11-12T11:02:54Z</time>
      </trkpt>
      <trkpt lat="47.94046" lon="-4.03413">
        <ele>34.2</ele>
        <time>2022-11-12T11:02:55Z</time>
      </trkpt>
      <trkpt lat="47.94048" lon="-4.0341">
        <ele>34.4</ele>
        <time>2022-11-12T11:02:56Z</time>
      </trkpt>
      <trkpt lat="47.94051" lon="-4.03405">
        <ele>34.7</ele>
        <time>2022-11-12T11:02:57Z</time>
      </trkpt>
      <trkpt lat="47.94054" lon="-4.034">
        <ele>35</ele>
        <time>2022-11-12T11:02:58Z</time>
      </trkpt>
      <trkpt lat="47.94057" lon="-4.03396">
        <ele>35.3</ele>
        <time>2022-11-12T11:02:59Z</time>
      </trkpt>
      <trkpt lat="47.9406" lon="-4.03391">
        <ele>35.6</ele>
        <time>2022-11-12T11:03:00Z</time>
      </trkpt>
      <trkpt lat="47.94063" lon="-4.03386">
        <ele>36</ele>
        <time>2022-11-12T11:03:01Z</time>
      </trkpt>
      <trkpt lat="47.94066" lon="-4.03381">
        <ele>36.3</ele>
        <time>2022-11-12T11:03:02Z</time>
      </trkpt>
      <trkpt lat="47.94068" lon="-4.03376">
        <ele>36.6</ele>
        <time>2022-11-12T11:03:03Z</time>
      </trkpt>
      <trkpt lat="47.9407" lon="-4.03372">
        <ele>36.8</ele>
        <time>2022-11-12T11:03:04Z</time>
      </trkpt>
      <trkpt lat="47.94072" lon="-4.03364">
        <ele>37.3</ele>
        <time>2022-11-12T11:03:06Z</time>
      </trkpt>
      <trkpt lat="47.94074" lon="-4.03356">
        <ele>37.8</ele>
        <time>2022-11-12T11:03:07Z</time>
      </trkpt>
      <trkpt lat="47.94073" lon="-4.03351">
        <ele>38.1</ele>
        <time>2022-11-12T11:03:08Z</time>
      </trkpt>
      <trkpt lat="47.94073" lon="-4.03345">
        <ele>38.4</ele>
        <time>2022-11-12T11:03:09Z</time>
      </trkpt>
      <trkpt lat="47.94072" lon="-4.03337">
        <ele>38.9</ele>
        <time>2022-11-12T11:03:11Z</time>
      </trkpt>
      <trkpt lat="47.94071" lon="-4.03329">
        <ele>39.2</ele>
        <time>2022-11-12T11:03:12Z</time>
      </trkpt>
      <trkpt lat="47.94069" lon="-4.03323">
        <ele>39.5</ele>
        <time>2022-11-12T11:03:13Z</time>
      </trkpt>
      <trkpt lat="47.94068" lon="-4.03318">
        <ele>39.8</ele>
        <time>2022-11-12T11:03:14Z</time>
      </trkpt>
      <trkpt lat="47.94066" lon="-4.0331">
        <ele>40</ele>
        <time>2022-11-12T11:03:16Z</time>
      </trkpt>
      <trkpt lat="47.94065" lon="-4.03304">
        <ele>40.2</ele>
        <time>2022-11-12T11:03:17Z</time>
      </trkpt>
      <trkpt lat="47.94063" lon="-4.03298">
        <ele>40.4</ele>
        <time>2022-11-12T11:03:18Z</time>
      </trkpt>
      <trkpt lat="47.94061" lon="-4.03292">
        <ele>40.5</ele>
        <time>2022-11-12T11:03:19Z</time>
      </trkpt>
      <trkpt lat="47.94059" lon="-4.03287">
        <ele>40.6</ele>
        <time>2022-11-12T11:03:20Z</time>
      </trkpt>
      <trkpt lat="47.94058" lon="-4.03282">
        <ele>40.6</ele>
        <time>2022-11-12T11:03:21Z</time>
      </trkpt>
      <trkpt lat="47.94056" lon="-4.03276">
        <ele>40.6</ele>
        <time>2022-11-12T11:03:22Z</time>
      </trkpt>
      <trkpt lat="47.94054" lon="-4.03271">
        <ele>40.6</ele>
        <time>2022-11-12T11:03:23Z</time>
      </trkpt>
      <trkpt lat="47.94052" lon="-4.03264">
        <ele>40.5</ele>
        <time>2022-11-12T11:03:24Z</time>
      </trkpt>
      <trkpt lat="47.94049" lon="-4.03258">
        <ele>40.3</ele>
        <time>2022-11-12T11:03:25Z</time>
      </trkpt>
      <trkpt lat="47.94047" lon="-4.03251">
        <ele>40.1</ele>
        <time>2022-11-12T11:03:26Z</time>
      </trkpt>
      <trkpt lat="47.94044" lon="-4.03244">
        <ele>39.9</ele>
        <time>2022-11-12T11:03:27Z</time>
      </trkpt>
      <trkpt lat="47.9404" lon="-4.03238">
        <ele>39.7</ele>
        <time>2022-11-12T11:03:28Z</time>
      </trkpt>
      <trkpt lat="47.94037" lon="-4.03231">
        <ele>39.4</ele>
        <time>2022-11-12T11:03:29Z</time>
      </trkpt>
      <trkpt lat="47.94034" lon="-4.03224">
        <ele>39.2</ele>
        <time>2022-11-12T11:03:30Z</time>
      </trkpt>
      <trkpt lat="47.9403" lon="-4.03216">
        <ele>38.9</ele>
        <time>2022-11-12T11:03:31Z</time>
      </trkpt>
      <trkpt lat="47.94026" lon="-4.03208">
        <ele>38.6</ele>
        <time>2022-11-12T11:03:32Z</time>
      </trkpt>
      <trkpt lat="47.94022" lon="-4.03201">
        <ele>38.3</ele>
        <time>2022-11-12T11:03:33Z</time>
      </trkpt>
      <trkpt lat="47.94018" lon="-4.03193">
        <ele>38.1</ele>
        <time>2022-11-12T11:03:34Z</time>
      </trkpt>
      <trkpt lat="47.94014" lon="-4.03185">
        <ele>37.8</ele>
        <time>2022-11-12T11:03:35Z</time>
      </trkpt>
      <trkpt lat="47.9401" lon="-4.03177">
        <ele>37.6</ele>
        <time>2022-11-12T11:03:36Z</time>
      </trkpt>
      <trkpt lat="47.94006" lon="-4.03169">
        <ele>37.3</ele>
        <time>2022-11-12T11:03:37Z</time>
      </trkpt>
      <trkpt lat="47.94003" lon="-4.03159">
        <ele>37.1</ele>
        <time>2022-11-12T11:03:38Z</time>
      </trkpt>
      <trkpt lat="47.94" lon="-4.03149">
        <ele>36.9</ele>
        <time>2022-11-12T11:03:39Z</time>
      </trkpt>
      <trkpt lat="47.93997" lon="-4.0314">
        <ele>36.6</ele>
        <time>2022-11-12T11:03:40Z</time>
      </trkpt>
      <trkpt lat="47.93994" lon="-4.03131">
        <ele>36.4</ele>
        <time>2022-11-12T11:03:41Z</time>
      </trkpt>
      <trkpt lat="47.93992" lon="-4.03121">
        <ele>36.1</ele>
        <time>2022-11-12T11:03:42Z</time>
      </trkpt>
      <trkpt lat="47.93988" lon="-4.03112">
        <ele>35.9</ele>
        <time>2022-11-12T11:03:43Z</time>
      </trkpt>
      <trkpt lat="47.93985" lon="-4.03102">
        <ele>35.7</ele>
        <time>2022-11-12T11:03:44Z</time>
      </trkpt>
      <trkpt lat="47.93981" lon="-4.03094">
        <ele>35.5</ele>
        <time>2022-11-12T11:03:45Z</time>
      </trkpt>
      <trkpt lat="47.93978" lon="-4.03085">
        <ele>35.4</ele>
        <time>2022-11-12T11:03:46Z</time>
      </trkpt>
      <trkpt lat="47.93974" lon="-4.03076">
        <ele>35.2</ele>
        <time>2022-11-12T11:03:47Z</time>
      </trkpt>
      <trkpt lat="47.93971" lon="-4.03067">
        <ele>35.2</ele>
        <time>2022-11-12T11:03:48Z</time>
      </trkpt>
      <trkpt lat="47.93968" lon="-4.03059">
        <ele>35.1</ele>
        <time>2022-11-12T11:03:49Z</time>
      </trkpt>
      <trkpt lat="47.93965" lon="-4.03051">
        <ele>35.1</ele>
        <time>2022-11-12T11:03:50Z</time>
      </trkpt>
      <trkpt lat="47.93962" lon="-4.03043">
        <ele>35.1</ele>
        <time>2022-11-12T11:03:51Z</time>
      </trkpt>
      <trkpt lat="47.93959" lon="-4.03035">
        <ele>35.2</ele>
        <time>2022-11-12T11:03:52Z</time>
      </trkpt>
      <trkpt lat="47.93955" lon="-4.03028">
        <ele>35.3</ele>
        <time>2022-11-12T11:03:53Z</time>
      </trkpt>
      <trkpt lat="47.93952" lon="-4.03021">
        <ele>35.4</ele>
        <time>2022-11-12T11:03:54Z</time>
      </trkpt>
      <trkpt lat="47.93948" lon="-4.03014">
        <ele>35.4</ele>
        <time>2022-11-12T11:03:55Z</time>
      </trkpt>
      <trkpt lat="47.93945" lon="-4.03008">
        <ele>35.5</ele>
        <time>2022-11-12T11:03:56Z</time>
      </trkpt>
      <trkpt lat="47.93941" lon="-4.03002">
        <ele>35.6</ele>
        <time>2022-11-12T11:03:57Z</time>
      </trkpt>
      <trkpt lat="47.93937" lon="-4.02997">
        <ele>35.7</ele>
        <time>2022-11-12T11:03:58Z</time>
      </trkpt>
      <trkpt lat="47.93934" lon="-4.02991">
        <ele>35.8</ele>
        <time>2022-11-12T11:03:59Z</time>
      </trkpt>
      <trkpt lat="47.93931" lon="-4.02984">
        <ele>35.8</ele>
        <time>2022-11-12T11:04:00Z</time>
      </trkpt>
      <trkpt lat="47.93928" lon="-4.02978">
        <ele>35.9</ele>
        <time>2022-11-12T11:04:01Z</time>
      </trkpt>
      <trkpt lat="47.93926" lon="-4.02971">
        <ele>36</ele>
        <time>2022-11-12T11:04:02Z</time>
      </trkpt>
      <trkpt lat="47.93924" lon="-4.02964">
        <ele>36.2</ele>
        <time>2022-11-12T11:04:03Z</time>
      </trkpt>
      <trkpt lat="47.93922" lon="-4.02956">
        <ele>36.3</ele>
        <time>2022-11-12T11:04:04Z</time>
      </trkpt>
      <trkpt lat="47.93919" lon="-4.02949">
        <ele>36.4</ele>
        <time>2022-11-12T11:04:05Z</time>
      </trkpt>
      <trkpt lat="47.93917" lon="-4.02942">
        <ele>36.5</ele>
        <time>2022-11-12T11:04:06Z</time>
      </trkpt>
      <trkpt lat="47.93915" lon="-4.02935">
        <ele>36.6</ele>
        <time>2022-11-12T11:04:07Z</time>
      </trkpt>
      <trkpt lat="47.93912" lon="-4.02928">
        <ele>36.8</ele>
        <time>2022-11-12T11:04:08Z</time>
      </trkpt>
      <trkpt lat="47.9391" lon="-4.02921">
        <ele>36.9</ele>
        <time>2022-11-12T11:04:09Z</time>
      </trkpt>
      <trkpt lat="47.93909" lon="-4.02914">
        <ele>37</ele>
        <time>2022-11-12T11:04:10Z</time>
      </trkpt>
      <trkpt lat="47.93907" lon="-4.02907">
        <ele>37.1</ele>
        <time>2022-11-12T11:04:11Z</time>
      </trkpt>
      <trkpt lat="47.93905" lon="-4.029">
        <ele>37.3</ele>
        <time>2022-11-12T11:04:12Z</time>
      </trkpt>
      <trkpt lat="47.93903" lon="-4.02893">
        <ele>37.4</ele>
        <time>2022-11-12T11:04:13Z</time>
      </trkpt>
      <trkpt lat="47.93901" lon="-4.02886">
        <ele>37.5</ele>
        <time>2022-11-12T11:04:14Z</time>
      </trkpt>
      <trkpt lat="47.93899" lon="-4.02879">
        <ele>37.7</ele>
        <time>2022-11-12T11:04:15Z</time>
      </trkpt>
      <trkpt lat="47.93896" lon="-4.02871">
        <ele>37.9</ele>
        <time>2022-11-12T11:04:16Z</time>
      </trkpt>
      <trkpt lat="47.93894" lon="-4.02865">
        <ele>38</ele>
        <time>2022-11-12T11:04:17Z</time>
      </trkpt>
      <trkpt lat="47.93891" lon="-4.02859">
        <ele>38.3</ele>
        <time>2022-11-12T11:04:18Z</time>
      </trkpt>
      <trkpt lat="47.93888" lon="-4.02853">
        <ele>38.5</ele>
        <time>2022-11-12T11:04:19Z</time>
      </trkpt>
      <trkpt lat="47.93884" lon="-4.02848">
        <ele>38.7</ele>
        <time>2022-11-12T11:04:20Z</time>
      </trkpt>
      <trkpt lat="47.9388" lon="-4.02845">
        <ele>38.9</ele>
        <time>2022-11-12T11:04:21Z</time>
      </trkpt>
      <trkpt lat="47.93875" lon="-4.02842">
        <ele>39.2</ele>
        <time>2022-11-12T11:04:22Z</time>
      </trkpt>
      <trkpt lat="47.93871" lon="-4.02841">
        <ele>39.4</ele>
        <time>2022-11-12T11:04:23Z</time>
      </trkpt>
      <trkpt lat="47.93867" lon="-4.02841">
        <ele>39.6</ele>
        <time>2022-11-12T11:04:24Z</time>
      </trkpt>
      <trkpt lat="47.93863" lon="-4.02842">
        <ele>39.8</ele>
        <time>2022-11-12T11:04:25Z</time>
      </trkpt>
      <trkpt lat="47.93861" lon="-4.02842">
        <ele>39.9</ele>
        <time>2022-11-12T11:04:26Z</time>
      </trkpt>
      <trkpt lat="47.93856" lon="-4.02843">
        <ele>40.2</ele>
        <time>2022-11-12T11:04:27Z</time>
      </trkpt>
      <trkpt lat="47.93852" lon="-4.02843">
        <ele>40.4</ele>
        <time>2022-11-12T11:04:28Z</time>
      </trkpt>
      <trkpt lat="47.93848" lon="-4.02843">
        <ele>40.6</ele>
        <time>2022-11-12T11:04:29Z</time>
      </trkpt>
      <trkpt lat="47.93843" lon="-4.02844">
        <ele>40.9</ele>
        <time>2022-11-12T11:04:30Z</time>
      </trkpt>
      <trkpt lat="47.93837" lon="-4.02844">
        <ele>41.2</ele>
        <time>2022-11-12T11:04:31Z</time>
      </trkpt>
      <trkpt lat="47.9383" lon="-4.02842">
        <ele>41.5</ele>
        <time>2022-11-12T11:04:33Z</time>
      </trkpt>
      <trkpt lat="47.93826" lon="-4.02841">
        <ele>41.7</ele>
        <time>2022-11-12T11:04:34Z</time>
      </trkpt>
      <trkpt lat="47.93821" lon="-4.02838">
        <ele>42.1</ele>
        <time>2022-11-12T11:04:35Z</time>
      </trkpt>
      <trkpt lat="47.93816" lon="-4.02832">
        <ele>42.5</ele>
        <time>2022-11-12T11:04:37Z</time>
      </trkpt>
      <trkpt lat="47.93812" lon="-4.02827">
        <ele>42.8</ele>
        <time>2022-11-12T11:04:38Z</time>
      </trkpt>
      <trkpt lat="47.93809" lon="-4.02822">
        <ele>43.1</ele>
        <time>2022-11-12T11:04:39Z</time>
      </trkpt>
      <trkpt lat="47.93806" lon="-4.02818">
        <ele>43.4</ele>
        <time>2022-11-12T11:04:40Z</time>
      </trkpt>
      <trkpt lat="47.93802" lon="-4.02811">
        <ele>43.7</ele>
        <time>2022-11-12T11:04:42Z</time>
      </trkpt>
      <trkpt lat="47.93799" lon="-4.02806">
        <ele>44</ele>
        <time>2022-11-12T11:04:43Z</time>
      </trkpt>
      <trkpt lat="47.93797" lon="-4.02798">
        <ele>44.3</ele>
        <time>2022-11-12T11:04:44Z</time>
      </trkpt>
      <trkpt lat="47.93795" lon="-4.02793">
        <ele>44.3</ele>
        <time>2022-11-12T11:04:45Z</time>
      </trkpt>
      <trkpt lat="47.93792" lon="-4.02788">
        <ele>44.5</ele>
        <time>2022-11-12T11:04:46Z</time>
      </trkpt>
      <trkpt lat="47.9379" lon="-4.02783">
        <ele>44.8</ele>
        <time>2022-11-12T11:04:47Z</time>
      </trkpt>
      <trkpt lat="47.93788" lon="-4.02778">
        <ele>45.1</ele>
        <time>2022-11-12T11:04:48Z</time>
      </trkpt>
      <trkpt lat="47.93786" lon="-4.02773">
        <ele>45.4</ele>
        <time>2022-11-12T11:04:49Z</time>
      </trkpt>
      <trkpt lat="47.93781" lon="-4.02764">
        <ele>46</ele>
        <time>2022-11-12T11:04:51Z</time>
      </trkpt>
      <trkpt lat="47.93779" lon="-4.02759">
        <ele>46.3</ele>
        <time>2022-11-12T11:04:52Z</time>
      </trkpt>
      <trkpt lat="47.93777" lon="-4.02754">
        <ele>46.6</ele>
        <time>2022-11-12T11:04:53Z</time>
      </trkpt>
      <trkpt lat="47.93775" lon="-4.02749">
        <ele>46.9</ele>
        <time>2022-11-12T11:04:54Z</time>
      </trkpt>
      <trkpt lat="47.93773" lon="-4.02744">
        <ele>47.2</ele>
        <time>2022-11-12T11:04:55Z</time>
      </trkpt>
      <trkpt lat="47.9377" lon="-4.02738">
        <ele>47.5</ele>
        <time>2022-11-12T11:04:56Z</time>
      </trkpt>
      <trkpt lat="47.93769" lon="-4.02733">
        <ele>47.8</ele>
        <time>2022-11-12T11:04:57Z</time>
      </trkpt>
      <trkpt lat="47.93767" lon="-4.02728">
        <ele>48</ele>
        <time>2022-11-12T11:04:58Z</time>
      </trkpt>
      <trkpt lat="47.93766" lon="-4.02723">
        <ele>48.3</ele>
        <time>2022-11-12T11:04:59Z</time>
      </trkpt>
      <trkpt lat="47.93765" lon="-4.02716">
        <ele>48.6</ele>
        <time>2022-11-12T11:05:00Z</time>
      </trkpt>
      <trkpt lat="47.93765" lon="-4.02711">
        <ele>48.9</ele>
        <time>2022-11-12T11:05:01Z</time>
      </trkpt>
      <trkpt lat="47.93765" lon="-4.02705">
        <ele>49.2</ele>
        <time>2022-11-12T11:05:02Z</time>
      </trkpt>
      <trkpt lat="47.93765" lon="-4.02699">
        <ele>49.4</ele>
        <time>2022-11-12T11:05:03Z</time>
      </trkpt>
      <trkpt lat="47.93765" lon="-4.02693">
        <ele>49.7</ele>
        <time>2022-11-12T11:05:04Z</time>
      </trkpt>
      <trkpt lat="47.93766" lon="-4.02687">
        <ele>50</ele>
        <time>2022-11-12T11:05:05Z</time>
      </trkpt>
      <trkpt lat="47.93766" lon="-4.02681">
        <ele>50.3</ele>
        <time>2022-11-12T11:05:06Z</time>
      </trkpt>
      <trkpt lat="47.93766" lon="-4.02676">
        <ele>50.6</ele>
        <time>2022-11-12T11:05:07Z</time>
      </trkpt>
      <trkpt lat="47.93767" lon="-4.02671">
        <ele>50.8</ele>
        <time>2022-11-12T11:05:08Z</time>
      </trkpt>
      <trkpt lat="47.93767" lon="-4.02665">
        <ele>51.1</ele>
        <time>2022-11-12T11:05:09Z</time>
      </trkpt>
      <trkpt lat="47.93768" lon="-4.0266">
        <ele>51.4</ele>
        <time>2022-11-12T11:05:10Z</time>
      </trkpt>
      <trkpt lat="47.93769" lon="-4.02654">
        <ele>51.6</ele>
        <time>2022-11-12T11:05:11Z</time>
      </trkpt>
      <trkpt lat="47.93769" lon="-4.02649">
        <ele>51.9</ele>
        <time>2022-11-12T11:05:12Z</time>
      </trkpt>
      <trkpt lat="47.9377" lon="-4.02643">
        <ele>52.2</ele>
        <time>2022-11-12T11:05:13Z</time>
      </trkpt>
      <trkpt lat="47.9377" lon="-4.02638">
        <ele>52.5</ele>
        <time>2022-11-12T11:05:14Z</time>
      </trkpt>
      <trkpt lat="47.93771" lon="-4.02633">
        <ele>52.7</ele>
        <time>2022-11-12T11:05:15Z</time>
      </trkpt>
      <trkpt lat="47.93771" lon="-4.02628">
        <ele>53</ele>
        <time>2022-11-12T11:05:16Z</time>
      </trkpt>
      <trkpt lat="47.93772" lon="-4.02622">
        <ele>53.3</ele>
        <time>2022-11-12T11:05:17Z</time>
      </trkpt>
      <trkpt lat="47.93772" lon="-4.02617">
        <ele>53.6</ele>
        <time>2022-11-12T11:05:18Z</time>
      </trkpt>
      <trkpt lat="47.93773" lon="-4.02612">
        <ele>53.9</ele>
        <time>2022-11-12T11:05:19Z</time>
      </trkpt>
      <trkpt lat="47.93773" lon="-4.02607">
        <ele>54.1</ele>
        <time>2022-11-12T11:05:20Z</time>
      </trkpt>
      <trkpt lat="47.93774" lon="-4.02601">
        <ele>54.2</ele>
        <time>2022-11-12T11:05:21Z</time>
      </trkpt>
      <trkpt lat="47.93774" lon="-4.02596">
        <ele>54.4</ele>
        <time>2022-11-12T11:05:22Z</time>
      </trkpt>
      <trkpt lat="47.93775" lon="-4.02591">
        <ele>54.6</ele>
        <time>2022-11-12T11:05:23Z</time>
      </trkpt>
      <trkpt lat="47.93776" lon="-4.02586">
        <ele>54.8</ele>
        <time>2022-11-12T11:05:24Z</time>
      </trkpt>
      <trkpt lat="47.93776" lon="-4.02582">
        <ele>55</ele>
        <time>2022-11-12T11:05:25Z</time>
      </trkpt>
      <trkpt lat="47.93776" lon="-4.02577">
        <ele>55.2</ele>
        <time>2022-11-12T11:05:26Z</time>
      </trkpt>
      <trkpt lat="47.93776" lon="-4.02573">
        <ele>55.4</ele>
        <time>2022-11-12T11:05:27Z</time>
      </trkpt>
      <trkpt lat="47.93776" lon="-4.02568">
        <ele>55.6</ele>
        <time>2022-11-12T11:05:28Z</time>
      </trkpt>
      <trkpt lat="47.93776" lon="-4.02563">
        <ele>55.9</ele>
        <time>2022-11-12T11:05:29Z</time>
      </trkpt>
      <trkpt lat="47.93776" lon="-4.02558">
        <ele>56.2</ele>
        <time>2022-11-12T11:05:30Z</time>
      </trkpt>
      <trkpt lat="47.93776" lon="-4.02553">
        <ele>56.4</ele>
        <time>2022-11-12T11:05:31Z</time>
      </trkpt>
      <trkpt lat="47.93775" lon="-4.02549">
        <ele>56.6</ele>
        <time>2022-11-12T11:05:32Z</time>
      </trkpt>
      <trkpt lat="47.93775" lon="-4.02544">
        <ele>56.8</ele>
        <time>2022-11-12T11:05:33Z</time>
      </trkpt>
      <trkpt lat="47.93773" lon="-4.0254">
        <ele>57</ele>
        <time>2022-11-12T11:05:34Z</time>
      </trkpt>
      <trkpt lat="47.93772" lon="-4.02536">
        <ele>57.2</ele>
        <time>2022-11-12T11:05:35Z</time>
      </trkpt>
      <trkpt lat="47.9377" lon="-4.02532">
        <ele>57.3</ele>
        <time>2022-11-12T11:05:36Z</time>
      </trkpt>
      <trkpt lat="47.93769" lon="-4.02527">
        <ele>57.5</ele>
        <time>2022-11-12T11:05:37Z</time>
      </trkpt>
      <trkpt lat="47.93768" lon="-4.02525">
        <ele>57.6</ele>
        <time>2022-11-12T11:05:38Z</time>
      </trkpt>
      <trkpt lat="47.93766" lon="-4.0252">
        <ele>57.7</ele>
        <time>2022-11-12T11:05:39Z</time>
      </trkpt>
      <trkpt lat="47.93765" lon="-4.02516">
        <ele>57.7</ele>
        <time>2022-11-12T11:05:40Z</time>
      </trkpt>
      <trkpt lat="47.93764" lon="-4.02512">
        <ele>57.8</ele>
        <time>2022-11-12T11:05:41Z</time>
      </trkpt>
      <trkpt lat="47.93762" lon="-4.02508">
        <ele>57.9</ele>
        <time>2022-11-12T11:05:42Z</time>
      </trkpt>
      <trkpt lat="47.93761" lon="-4.02502">
        <ele>58</ele>
        <time>2022-11-12T11:05:43Z</time>
      </trkpt>
      <trkpt lat="47.93759" lon="-4.02498">
        <ele>58</ele>
        <time>2022-11-12T11:05:44Z</time>
      </trkpt>
      <trkpt lat="47.93758" lon="-4.02492">
        <ele>58</ele>
        <time>2022-11-12T11:05:45Z</time>
      </trkpt>
      <trkpt lat="47.93756" lon="-4.02487">
        <ele>58.1</ele>
        <time>2022-11-12T11:05:46Z</time>
      </trkpt>
      <trkpt lat="47.93755" lon="-4.02481">
        <ele>58</ele>
        <time>2022-11-12T11:05:47Z</time>
      </trkpt>
      <trkpt lat="47.93753" lon="-4.02476">
        <ele>58</ele>
        <time>2022-11-12T11:05:48Z</time>
      </trkpt>
      <trkpt lat="47.93752" lon="-4.0247">
        <ele>58</ele>
        <time>2022-11-12T11:05:49Z</time>
      </trkpt>
      <trkpt lat="47.9375" lon="-4.02464">
        <ele>57.9</ele>
        <time>2022-11-12T11:05:50Z</time>
      </trkpt>
      <trkpt lat="47.93748" lon="-4.02456">
        <ele>57.8</ele>
        <time>2022-11-12T11:05:51Z</time>
      </trkpt>
      <trkpt lat="47.93746" lon="-4.02449">
        <ele>57.9</ele>
        <time>2022-11-12T11:05:52Z</time>
      </trkpt>
      <trkpt lat="47.93743" lon="-4.02443">
        <ele>58</ele>
        <time>2022-11-12T11:05:53Z</time>
      </trkpt>
      <trkpt lat="47.9374" lon="-4.02437">
        <ele>58</ele>
        <time>2022-11-12T11:05:54Z</time>
      </trkpt>
      <trkpt lat="47.93736" lon="-4.02433">
        <ele>58</ele>
        <time>2022-11-12T11:05:55Z</time>
      </trkpt>
      <trkpt lat="47.93732" lon="-4.02428">
        <ele>58.1</ele>
        <time>2022-11-12T11:05:56Z</time>
      </trkpt>
      <trkpt lat="47.93728" lon="-4.02424">
        <ele>58.2</ele>
        <time>2022-11-12T11:05:57Z</time>
      </trkpt>
      <trkpt lat="47.93724" lon="-4.02421">
        <ele>58.3</ele>
        <time>2022-11-12T11:05:58Z</time>
      </trkpt>
      <trkpt lat="47.93721" lon="-4.02417">
        <ele>58.4</ele>
        <time>2022-11-12T11:05:59Z</time>
      </trkpt>
      <trkpt lat="47.93719" lon="-4.02415">
        <ele>58.4</ele>
        <time>2022-11-12T11:06:00Z</time>
      </trkpt>
      <trkpt lat="47.93714" lon="-4.02411">
        <ele>58.5</ele>
        <time>2022-11-12T11:06:01Z</time>
      </trkpt>
      <trkpt lat="47.93711" lon="-4.0241">
        <ele>58.5</ele>
        <time>2022-11-12T11:06:02Z</time>
      </trkpt>
      <trkpt lat="47.93708" lon="-4.02407">
        <ele>58.5</ele>
        <time>2022-11-12T11:06:03Z</time>
      </trkpt>
      <trkpt lat="47.93701" lon="-4.024">
        <ele>58.4</ele>
        <time>2022-11-12T11:06:05Z</time>
      </trkpt>
      <trkpt lat="47.93697" lon="-4.02394">
        <ele>58.2</ele>
        <time>2022-11-12T11:06:06Z</time>
      </trkpt>
      <trkpt lat="47.93693" lon="-4.02388">
        <ele>58.1</ele>
        <time>2022-11-12T11:06:07Z</time>
      </trkpt>
      <trkpt lat="47.9369" lon="-4.02382">
        <ele>57.9</ele>
        <time>2022-11-12T11:06:08Z</time>
      </trkpt>
      <trkpt lat="47.93687" lon="-4.02375">
        <ele>57.6</ele>
        <time>2022-11-12T11:06:09Z</time>
      </trkpt>
      <trkpt lat="47.93685" lon="-4.02368">
        <ele>57.4</ele>
        <time>2022-11-12T11:06:10Z</time>
      </trkpt>
      <trkpt lat="47.93682" lon="-4.02359">
        <ele>57.1</ele>
        <time>2022-11-12T11:06:11Z</time>
      </trkpt>
      <trkpt lat="47.9368" lon="-4.0235">
        <ele>56.8</ele>
        <time>2022-11-12T11:06:12Z</time>
      </trkpt>
      <trkpt lat="47.93677" lon="-4.02342">
        <ele>56.5</ele>
        <time>2022-11-12T11:06:13Z</time>
      </trkpt>
      <trkpt lat="47.93674" lon="-4.02334">
        <ele>56.3</ele>
        <time>2022-11-12T11:06:14Z</time>
      </trkpt>
      <trkpt lat="47.93672" lon="-4.02325">
        <ele>56.1</ele>
        <time>2022-11-12T11:06:15Z</time>
      </trkpt>
      <trkpt lat="47.93669" lon="-4.02316">
        <ele>55.9</ele>
        <time>2022-11-12T11:06:16Z</time>
      </trkpt>
      <trkpt lat="47.93667" lon="-4.02307">
        <ele>55.7</ele>
        <time>2022-11-12T11:06:17Z</time>
      </trkpt>
      <trkpt lat="47.93664" lon="-4.02298">
        <ele>55.6</ele>
        <time>2022-11-12T11:06:18Z</time>
      </trkpt>
      <trkpt lat="47.93662" lon="-4.02289">
        <ele>55.4</ele>
        <time>2022-11-12T11:06:19Z</time>
      </trkpt>
      <trkpt lat="47.9366" lon="-4.0228">
        <ele>55.3</ele>
        <time>2022-11-12T11:06:20Z</time>
      </trkpt>
      <trkpt lat="47.93658" lon="-4.02271">
        <ele>55.1</ele>
        <time>2022-11-12T11:06:21Z</time>
      </trkpt>
      <trkpt lat="47.93656" lon="-4.02262">
        <ele>54.9</ele>
        <time>2022-11-12T11:06:22Z</time>
      </trkpt>
      <trkpt lat="47.93654" lon="-4.02254">
        <ele>54.7</ele>
        <time>2022-11-12T11:06:23Z</time>
      </trkpt>
      <trkpt lat="47.93651" lon="-4.02245">
        <ele>54.5</ele>
        <time>2022-11-12T11:06:24Z</time>
      </trkpt>
      <trkpt lat="47.93649" lon="-4.02236">
        <ele>54.3</ele>
        <time>2022-11-12T11:06:25Z</time>
      </trkpt>
      <trkpt lat="47.93646" lon="-4.02218">
        <ele>54.2</ele>
        <time>2022-11-12T11:06:27Z</time>
      </trkpt>
      <trkpt lat="47.93646" lon="-4.02209">
        <ele>54.1</ele>
        <time>2022-11-12T11:06:28Z</time>
      </trkpt>
      <trkpt lat="47.93644" lon="-4.022">
        <ele>54.1</ele>
        <time>2022-11-12T11:06:29Z</time>
      </trkpt>
      <trkpt lat="47.93643" lon="-4.02191">
        <ele>54.1</ele>
        <time>2022-11-12T11:06:30Z</time>
      </trkpt>
      <trkpt lat="47.9364" lon="-4.02183">
        <ele>54.1</ele>
        <time>2022-11-12T11:06:31Z</time>
      </trkpt>
      <trkpt lat="47.93637" lon="-4.02176">
        <ele>54.2</ele>
        <time>2022-11-12T11:06:32Z</time>
      </trkpt>
      <trkpt lat="47.93632" lon="-4.02171">
        <ele>54.4</ele>
        <time>2022-11-12T11:06:33Z</time>
      </trkpt>
      <trkpt lat="47.93628" lon="-4.02166">
        <ele>54.5</ele>
        <time>2022-11-12T11:06:34Z</time>
      </trkpt>
      <trkpt lat="47.93623" lon="-4.02162">
        <ele>54.6</ele>
        <time>2022-11-12T11:06:35Z</time>
      </trkpt>
      <trkpt lat="47.93618" lon="-4.0216">
        <ele>54.7</ele>
        <time>2022-11-12T11:06:36Z</time>
      </trkpt>
      <trkpt lat="47.93613" lon="-4.02158">
        <ele>54.9</ele>
        <time>2022-11-12T11:06:37Z</time>
      </trkpt>
      <trkpt lat="47.93609" lon="-4.02156">
        <ele>55</ele>
        <time>2022-11-12T11:06:38Z</time>
      </trkpt>
      <trkpt lat="47.93604" lon="-4.02153">
        <ele>55.1</ele>
        <time>2022-11-12T11:06:39Z</time>
      </trkpt>
      <trkpt lat="47.936" lon="-4.02151">
        <ele>55.2</ele>
        <time>2022-11-12T11:06:40Z</time>
      </trkpt>
      <trkpt lat="47.93595" lon="-4.02149">
        <ele>55.3</ele>
        <time>2022-11-12T11:06:41Z</time>
      </trkpt>
      <trkpt lat="47.9359" lon="-4.02147">
        <ele>55.5</ele>
        <time>2022-11-12T11:06:42Z</time>
      </trkpt>
      <trkpt lat="47.93586" lon="-4.02145">
        <ele>55.6</ele>
        <time>2022-11-12T11:06:43Z</time>
      </trkpt>
      <trkpt lat="47.93582" lon="-4.02144">
        <ele>55.7</ele>
        <time>2022-11-12T11:06:44Z</time>
      </trkpt>
      <trkpt lat="47.93577" lon="-4.02142">
        <ele>55.8</ele>
        <time>2022-11-12T11:06:45Z</time>
      </trkpt>
      <trkpt lat="47.93572" lon="-4.0214">
        <ele>56</ele>
        <time>2022-11-12T11:06:46Z</time>
      </trkpt>
      <trkpt lat="47.93568" lon="-4.02138">
        <ele>56.1</ele>
        <time>2022-11-12T11:06:47Z</time>
      </trkpt>
      <trkpt lat="47.93563" lon="-4.02137">
        <ele>56.3</ele>
        <time>2022-11-12T11:06:48Z</time>
      </trkpt>
      <trkpt lat="47.93559" lon="-4.02135">
        <ele>56.4</ele>
        <time>2022-11-12T11:06:49Z</time>
      </trkpt>
      <trkpt lat="47.93554" lon="-4.02134">
        <ele>56.5</ele>
        <time>2022-11-12T11:06:50Z</time>
      </trkpt>
      <trkpt lat="47.93549" lon="-4.02133">
        <ele>56.7</ele>
        <time>2022-11-12T11:06:51Z</time>
      </trkpt>
      <trkpt lat="47.93545" lon="-4.02132">
        <ele>56.8</ele>
        <time>2022-11-12T11:06:52Z</time>
      </trkpt>
      <trkpt lat="47.9354" lon="-4.02131">
        <ele>57</ele>
        <time>2022-11-12T11:06:53Z</time>
      </trkpt>
      <trkpt lat="47.93535" lon="-4.02129">
        <ele>57.2</ele>
        <time>2022-11-12T11:06:54Z</time>
      </trkpt>
      <trkpt lat="47.93531" lon="-4.02128">
        <ele>57.4</ele>
        <time>2022-11-12T11:06:55Z</time>
      </trkpt>
      <trkpt lat="47.93526" lon="-4.02127">
        <ele>57.6</ele>
        <time>2022-11-12T11:06:56Z</time>
      </trkpt>
      <trkpt lat="47.93523" lon="-4.02127">
        <ele>57.7</ele>
        <time>2022-11-12T11:06:57Z</time>
      </trkpt>
      <trkpt lat="47.93518" lon="-4.02127">
        <ele>57.9</ele>
        <time>2022-11-12T11:06:58Z</time>
      </trkpt>
      <trkpt lat="47.93514" lon="-4.02127">
        <ele>58</ele>
        <time>2022-11-12T11:06:59Z</time>
      </trkpt>
      <trkpt lat="47.93509" lon="-4.02127">
        <ele>58.2</ele>
        <time>2022-11-12T11:07:00Z</time>
      </trkpt>
      <trkpt lat="47.93505" lon="-4.02127">
        <ele>58.2</ele>
        <time>2022-11-12T11:07:01Z</time>
      </trkpt>
      <trkpt lat="47.935" lon="-4.02127">
        <ele>58.3</ele>
        <time>2022-11-12T11:07:02Z</time>
      </trkpt>
      <trkpt lat="47.93495" lon="-4.02127">
        <ele>58.4</ele>
        <time>2022-11-12T11:07:03Z</time>
      </trkpt>
      <trkpt lat="47.9349" lon="-4.02128">
        <ele>58.4</ele>
        <time>2022-11-12T11:07:04Z</time>
      </trkpt>
      <trkpt lat="47.93485" lon="-4.02128">
        <ele>58.4</ele>
        <time>2022-11-12T11:07:05Z</time>
      </trkpt>
      <trkpt lat="47.9348" lon="-4.02128">
        <ele>58.3</ele>
        <time>2022-11-12T11:07:06Z</time>
      </trkpt>
      <trkpt lat="47.93475" lon="-4.02128">
        <ele>58.3</ele>
        <time>2022-11-12T11:07:07Z</time>
      </trkpt>
      <trkpt lat="47.9347" lon="-4.02128">
        <ele>58.2</ele>
        <time>2022-11-12T11:07:08Z</time>
      </trkpt>
      <trkpt lat="47.93465" lon="-4.02129">
        <ele>58.1</ele>
        <time>2022-11-12T11:07:09Z</time>
      </trkpt>
      <trkpt lat="47.9346" lon="-4.02128">
        <ele>58</ele>
        <time>2022-11-12T11:07:10Z</time>
      </trkpt>
      <trkpt lat="47.93454" lon="-4.02128">
        <ele>57.8</ele>
        <time>2022-11-12T11:07:11Z</time>
      </trkpt>
      <trkpt lat="47.93449" lon="-4.02128">
        <ele>57.6</ele>
        <time>2022-11-12T11:07:12Z</time>
      </trkpt>
      <trkpt lat="47.93443" lon="-4.02128">
        <ele>57.4</ele>
        <time>2022-11-12T11:07:13Z</time>
      </trkpt>
      <trkpt lat="47.93436" lon="-4.02127">
        <ele>57.2</ele>
        <time>2022-11-12T11:07:14Z</time>
      </trkpt>
      <trkpt lat="47.9343" lon="-4.02127">
        <ele>56.9</ele>
        <time>2022-11-12T11:07:15Z</time>
      </trkpt>
      <trkpt lat="47.93423" lon="-4.02127">
        <ele>56.7</ele>
        <time>2022-11-12T11:07:16Z</time>
      </trkpt>
      <trkpt lat="47.93416" lon="-4.02126">
        <ele>56.3</ele>
        <time>2022-11-12T11:07:17Z</time>
      </trkpt>
      <trkpt lat="47.93409" lon="-4.02125">
        <ele>56</ele>
        <time>2022-11-12T11:07:18Z</time>
      </trkpt>
      <trkpt lat="47.93402" lon="-4.02125">
        <ele>55.5</ele>
        <time>2022-11-12T11:07:19Z</time>
      </trkpt>
      <trkpt lat="47.93394" lon="-4.02124">
        <ele>55.1</ele>
        <time>2022-11-12T11:07:20Z</time>
      </trkpt>
      <trkpt lat="47.93386" lon="-4.02124">
        <ele>54.6</ele>
        <time>2022-11-12T11:07:21Z</time>
      </trkpt>
      <trkpt lat="47.93378" lon="-4.02124">
        <ele>54</ele>
        <time>2022-11-12T11:07:22Z</time>
      </trkpt>
      <trkpt lat="47.9337" lon="-4.02124">
        <ele>53.5</ele>
        <time>2022-11-12T11:07:23Z</time>
      </trkpt>
      <trkpt lat="47.93362" lon="-4.02122">
        <ele>52.9</ele>
        <time>2022-11-12T11:07:24Z</time>
      </trkpt>
      <trkpt lat="47.93354" lon="-4.0212">
        <ele>52.3</ele>
        <time>2022-11-12T11:07:25Z</time>
      </trkpt>
      <trkpt lat="47.93346" lon="-4.02118">
        <ele>51.6</ele>
        <time>2022-11-12T11:07:26Z</time>
      </trkpt>
      <trkpt lat="47.93338" lon="-4.02115">
        <ele>50.9</ele>
        <time>2022-11-12T11:07:27Z</time>
      </trkpt>
      <trkpt lat="47.93329" lon="-4.02113">
        <ele>50.2</ele>
        <time>2022-11-12T11:07:28Z</time>
      </trkpt>
      <trkpt lat="47.93321" lon="-4.0211">
        <ele>49.5</ele>
        <time>2022-11-12T11:07:29Z</time>
      </trkpt>
      <trkpt lat="47.93312" lon="-4.02107">
        <ele>48.8</ele>
        <time>2022-11-12T11:07:30Z</time>
      </trkpt>
      <trkpt lat="47.93304" lon="-4.02105">
        <ele>48</ele>
        <time>2022-11-12T11:07:31Z</time>
      </trkpt>
      <trkpt lat="47.93294" lon="-4.02103">
        <ele>51.3</ele>
        <time>2022-11-12T11:07:32Z</time>
      </trkpt>
      <trkpt lat="47.93286" lon="-4.02099">
        <ele>48.7</ele>
        <time>2022-11-12T11:07:33Z</time>
      </trkpt>
      <trkpt lat="47.93277" lon="-4.02092">
        <ele>46.4</ele>
        <time>2022-11-12T11:07:34Z</time>
      </trkpt>
      <trkpt lat="47.93268" lon="-4.02084">
        <ele>46.3</ele>
        <time>2022-11-12T11:07:35Z</time>
      </trkpt>
      <trkpt lat="47.93259" lon="-4.02077">
        <ele>45.4</ele>
        <time>2022-11-12T11:07:36Z</time>
      </trkpt>
      <trkpt lat="47.9325" lon="-4.02069">
        <ele>44.6</ele>
        <time>2022-11-12T11:07:37Z</time>
      </trkpt>
      <trkpt lat="47.93242" lon="-4.02061">
        <ele>43.8</ele>
        <time>2022-11-12T11:07:38Z</time>
      </trkpt>
      <trkpt lat="47.93234" lon="-4.0205">
        <ele>43.1</ele>
        <time>2022-11-12T11:07:39Z</time>
      </trkpt>
      <trkpt lat="47.93226" lon="-4.0204">
        <ele>42.4</ele>
        <time>2022-11-12T11:07:40Z</time>
      </trkpt>
      <trkpt lat="47.93218" lon="-4.02029">
        <ele>41.9</ele>
        <time>2022-11-12T11:07:41Z</time>
      </trkpt>
      <trkpt lat="47.9321" lon="-4.02019">
        <ele>41.3</ele>
        <time>2022-11-12T11:07:42Z</time>
      </trkpt>
      <trkpt lat="47.93202" lon="-4.02009">
        <ele>40.9</ele>
        <time>2022-11-12T11:07:43Z</time>
      </trkpt>
      <trkpt lat="47.93194" lon="-4.01999">
        <ele>40.4</ele>
        <time>2022-11-12T11:07:44Z</time>
      </trkpt>
      <trkpt lat="47.93186" lon="-4.0199">
        <ele>40</ele>
        <time>2022-11-12T11:07:45Z</time>
      </trkpt>
      <trkpt lat="47.93179" lon="-4.0198">
        <ele>39.5</ele>
        <time>2022-11-12T11:07:46Z</time>
      </trkpt>
      <trkpt lat="47.93171" lon="-4.0197">
        <ele>39.1</ele>
        <time>2022-11-12T11:07:47Z</time>
      </trkpt>
      <trkpt lat="47.93164" lon="-4.0196">
        <ele>38.6</ele>
        <time>2022-11-12T11:07:48Z</time>
      </trkpt>
      <trkpt lat="47.93157" lon="-4.01951">
        <ele>38.2</ele>
        <time>2022-11-12T11:07:49Z</time>
      </trkpt>
      <trkpt lat="47.9315" lon="-4.01941">
        <ele>37.7</ele>
        <time>2022-11-12T11:07:50Z</time>
      </trkpt>
      <trkpt lat="47.93143" lon="-4.01932">
        <ele>37.3</ele>
        <time>2022-11-12T11:07:51Z</time>
      </trkpt>
      <trkpt lat="47.93136" lon="-4.01923">
        <ele>37</ele>
        <time>2022-11-12T11:07:52Z</time>
      </trkpt>
      <trkpt lat="47.93129" lon="-4.01915">
        <ele>36.7</ele>
        <time>2022-11-12T11:07:53Z</time>
      </trkpt>
      <trkpt lat="47.93122" lon="-4.01906">
        <ele>36.4</ele>
        <time>2022-11-12T11:07:54Z</time>
      </trkpt>
      <trkpt lat="47.93115" lon="-4.01897">
        <ele>36.1</ele>
        <time>2022-11-12T11:07:55Z</time>
      </trkpt>
      <trkpt lat="47.93109" lon="-4.01888">
        <ele>35.8</ele>
        <time>2022-11-12T11:07:56Z</time>
      </trkpt>
      <trkpt lat="47.93102" lon="-4.0188">
        <ele>35.6</ele>
        <time>2022-11-12T11:07:57Z</time>
      </trkpt>
      <trkpt lat="47.93096" lon="-4.01872">
        <ele>35.3</ele>
        <time>2022-11-12T11:07:58Z</time>
      </trkpt>
      <trkpt lat="47.93089" lon="-4.01864">
        <ele>35.1</ele>
        <time>2022-11-12T11:07:59Z</time>
      </trkpt>
      <trkpt lat="47.93083" lon="-4.01856">
        <ele>34.9</ele>
        <time>2022-11-12T11:08:00Z</time>
      </trkpt>
      <trkpt lat="47.93076" lon="-4.01849">
        <ele>34.7</ele>
        <time>2022-11-12T11:08:01Z</time>
      </trkpt>
      <trkpt lat="47.93069" lon="-4.01842">
        <ele>34.5</ele>
        <time>2022-11-12T11:08:02Z</time>
      </trkpt>
      <trkpt lat="47.93063" lon="-4.01835">
        <ele>34.3</ele>
        <time>2022-11-12T11:08:03Z</time>
      </trkpt>
      <trkpt lat="47.93057" lon="-4.01829">
        <ele>34.2</ele>
        <time>2022-11-12T11:08:04Z</time>
      </trkpt>
      <trkpt lat="47.9305" lon="-4.01823">
        <ele>34</ele>
        <time>2022-11-12T11:08:05Z</time>
      </trkpt>
      <trkpt lat="47.93043" lon="-4.01818">
        <ele>34</ele>
        <time>2022-11-12T11:08:06Z</time>
      </trkpt>
      <trkpt lat="47.93037" lon="-4.01814">
        <ele>33.9</ele>
        <time>2022-11-12T11:08:07Z</time>
      </trkpt>
      <trkpt lat="47.93029" lon="-4.01809">
        <ele>33.9</ele>
        <time>2022-11-12T11:08:08Z</time>
      </trkpt>
      <trkpt lat="47.93022" lon="-4.01805">
        <ele>33.9</ele>
        <time>2022-11-12T11:08:09Z</time>
      </trkpt>
      <trkpt lat="47.93015" lon="-4.01801">
        <ele>33.8</ele>
        <time>2022-11-12T11:08:10Z</time>
      </trkpt>
      <trkpt lat="47.93008" lon="-4.01796">
        <ele>33.8</ele>
        <time>2022-11-12T11:08:11Z</time>
      </trkpt>
      <trkpt lat="47.93001" lon="-4.01793">
        <ele>33.8</ele>
        <time>2022-11-12T11:08:12Z</time>
      </trkpt>
      <trkpt lat="47.92994" lon="-4.01789">
        <ele>33.9</ele>
        <time>2022-11-12T11:08:13Z</time>
      </trkpt>
      <trkpt lat="47.92987" lon="-4.01787">
        <ele>33.9</ele>
        <time>2022-11-12T11:08:14Z</time>
      </trkpt>
      <trkpt lat="47.9298" lon="-4.01785">
        <ele>34</ele>
        <time>2022-11-12T11:08:15Z</time>
      </trkpt>
      <trkpt lat="47.92973" lon="-4.01783">
        <ele>34.1</ele>
        <time>2022-11-12T11:08:16Z</time>
      </trkpt>
      <trkpt lat="47.92966" lon="-4.01782">
        <ele>34.2</ele>
        <time>2022-11-12T11:08:17Z</time>
      </trkpt>
      <trkpt lat="47.92959" lon="-4.01781">
        <ele>34.3</ele>
        <time>2022-11-12T11:08:18Z</time>
      </trkpt>
      <trkpt lat="47.92953" lon="-4.0178">
        <ele>34.4</ele>
        <time>2022-11-12T11:08:19Z</time>
      </trkpt>
      <trkpt lat="47.92947" lon="-4.01779">
        <ele>34.5</ele>
        <time>2022-11-12T11:08:20Z</time>
      </trkpt>
      <trkpt lat="47.9294" lon="-4.01778">
        <ele>34.6</ele>
        <time>2022-11-12T11:08:21Z</time>
      </trkpt>
      <trkpt lat="47.92934" lon="-4.01777">
        <ele>34.8</ele>
        <time>2022-11-12T11:08:22Z</time>
      </trkpt>
      <trkpt lat="47.92929" lon="-4.01777">
        <ele>34.9</ele>
        <time>2022-11-12T11:08:23Z</time>
      </trkpt>
      <trkpt lat="47.92924" lon="-4.01777">
        <ele>35</ele>
        <time>2022-11-12T11:08:24Z</time>
      </trkpt>
      <trkpt lat="47.92918" lon="-4.01776">
        <ele>35.1</ele>
        <time>2022-11-12T11:08:25Z</time>
      </trkpt>
      <trkpt lat="47.92912" lon="-4.01776">
        <ele>35.2</ele>
        <time>2022-11-12T11:08:26Z</time>
      </trkpt>
      <trkpt lat="47.92907" lon="-4.01776">
        <ele>35.4</ele>
        <time>2022-11-12T11:08:27Z</time>
      </trkpt>
      <trkpt lat="47.92901" lon="-4.01776">
        <ele>35.5</ele>
        <time>2022-11-12T11:08:28Z</time>
      </trkpt>
      <trkpt lat="47.92896" lon="-4.01776">
        <ele>35.6</ele>
        <time>2022-11-12T11:08:29Z</time>
      </trkpt>
      <trkpt lat="47.9289" lon="-4.01776">
        <ele>35.8</ele>
        <time>2022-11-12T11:08:30Z</time>
      </trkpt>
      <trkpt lat="47.92884" lon="-4.01775">
        <ele>36</ele>
        <time>2022-11-12T11:08:31Z</time>
      </trkpt>
      <trkpt lat="47.92879" lon="-4.01775">
        <ele>36.1</ele>
        <time>2022-11-12T11:08:32Z</time>
      </trkpt>
      <trkpt lat="47.92873" lon="-4.01776">
        <ele>36.3</ele>
        <time>2022-11-12T11:08:33Z</time>
      </trkpt>
      <trkpt lat="47.92868" lon="-4.01777">
        <ele>36.5</ele>
        <time>2022-11-12T11:08:34Z</time>
      </trkpt>
      <trkpt lat="47.92862" lon="-4.01777">
        <ele>36.7</ele>
        <time>2022-11-12T11:08:35Z</time>
      </trkpt>
      <trkpt lat="47.92857" lon="-4.01777">
        <ele>36.9</ele>
        <time>2022-11-12T11:08:36Z</time>
      </trkpt>
      <trkpt lat="47.92851" lon="-4.01776">
        <ele>37.1</ele>
        <time>2022-11-12T11:08:37Z</time>
      </trkpt>
      <trkpt lat="47.92845" lon="-4.01777">
        <ele>37.2</ele>
        <time>2022-11-12T11:08:38Z</time>
      </trkpt>
      <trkpt lat="47.9284" lon="-4.01777">
        <ele>37.4</ele>
        <time>2022-11-12T11:08:39Z</time>
      </trkpt>
      <trkpt lat="47.92834" lon="-4.01776">
        <ele>37.6</ele>
        <time>2022-11-12T11:08:40Z</time>
      </trkpt>
      <trkpt lat="47.92829" lon="-4.01776">
        <ele>37.8</ele>
        <time>2022-11-12T11:08:41Z</time>
      </trkpt>
      <trkpt lat="47.92824" lon="-4.01776">
        <ele>37.9</ele>
        <time>2022-11-12T11:08:42Z</time>
      </trkpt>
      <trkpt lat="47.92819" lon="-4.01777">
        <ele>38.1</ele>
        <time>2022-11-12T11:08:43Z</time>
      </trkpt>
      <trkpt lat="47.92814" lon="-4.01777">
        <ele>38.3</ele>
        <time>2022-11-12T11:08:44Z</time>
      </trkpt>
      <trkpt lat="47.92808" lon="-4.01778">
        <ele>38.4</ele>
        <time>2022-11-12T11:08:45Z</time>
      </trkpt>
      <trkpt lat="47.92803" lon="-4.01779">
        <ele>38.7</ele>
        <time>2022-11-12T11:08:46Z</time>
      </trkpt>
      <trkpt lat="47.92798" lon="-4.01779">
        <ele>39</ele>
        <time>2022-11-12T11:08:47Z</time>
      </trkpt>
      <trkpt lat="47.92793" lon="-4.01779">
        <ele>39.4</ele>
        <time>2022-11-12T11:08:48Z</time>
      </trkpt>
      <trkpt lat="47.92787" lon="-4.01779">
        <ele>39.7</ele>
        <time>2022-11-12T11:08:49Z</time>
      </trkpt>
      <trkpt lat="47.92782" lon="-4.01779">
        <ele>40</ele>
        <time>2022-11-12T11:08:50Z</time>
      </trkpt>
      <trkpt lat="47.92778" lon="-4.01779">
        <ele>40.3</ele>
        <time>2022-11-12T11:08:51Z</time>
      </trkpt>
      <trkpt lat="47.92773" lon="-4.01779">
        <ele>40.6</ele>
        <time>2022-11-12T11:08:52Z</time>
      </trkpt>
      <trkpt lat="47.92769" lon="-4.01779">
        <ele>40.9</ele>
        <time>2022-11-12T11:08:53Z</time>
      </trkpt>
      <trkpt lat="47.92764" lon="-4.01779">
        <ele>41.3</ele>
        <time>2022-11-12T11:08:54Z</time>
      </trkpt>
      <trkpt lat="47.92759" lon="-4.01779">
        <ele>41.6</ele>
        <time>2022-11-12T11:08:55Z</time>
      </trkpt>
      <trkpt lat="47.92755" lon="-4.0178">
        <ele>41.9</ele>
        <time>2022-11-12T11:08:56Z</time>
      </trkpt>
      <trkpt lat="47.92751" lon="-4.0178">
        <ele>42.3</ele>
        <time>2022-11-12T11:08:57Z</time>
      </trkpt>
      <trkpt lat="47.92746" lon="-4.01781">
        <ele>42.6</ele>
        <time>2022-11-12T11:08:58Z</time>
      </trkpt>
      <trkpt lat="47.92743" lon="-4.01782">
        <ele>42.6</ele>
        <time>2022-11-12T11:08:59Z</time>
      </trkpt>
      <trkpt lat="47.92738" lon="-4.01782">
        <ele>42.8</ele>
        <time>2022-11-12T11:09:00Z</time>
      </trkpt>
      <trkpt lat="47.92733" lon="-4.01784">
        <ele>43.2</ele>
        <time>2022-11-12T11:09:01Z</time>
      </trkpt>
      <trkpt lat="47.92729" lon="-4.01785">
        <ele>43.5</ele>
        <time>2022-11-12T11:09:02Z</time>
      </trkpt>
      <trkpt lat="47.92725" lon="-4.01785">
        <ele>43.8</ele>
        <time>2022-11-12T11:09:03Z</time>
      </trkpt>
      <trkpt lat="47.92721" lon="-4.01786">
        <ele>44.1</ele>
        <time>2022-11-12T11:09:04Z</time>
      </trkpt>
      <trkpt lat="47.92716" lon="-4.01788">
        <ele>44.5</ele>
        <time>2022-11-12T11:09:05Z</time>
      </trkpt>
      <trkpt lat="47.92712" lon="-4.0179">
        <ele>44.9</ele>
        <time>2022-11-12T11:09:06Z</time>
      </trkpt>
      <trkpt lat="47.9271" lon="-4.01791">
        <ele>45</ele>
        <time>2022-11-12T11:09:07Z</time>
      </trkpt>
      <trkpt lat="47.92706" lon="-4.01793">
        <ele>45.4</ele>
        <time>2022-11-12T11:09:08Z</time>
      </trkpt>
      <trkpt lat="47.92702" lon="-4.01795">
        <ele>45.7</ele>
        <time>2022-11-12T11:09:09Z</time>
      </trkpt>
      <trkpt lat="47.92699" lon="-4.01796">
        <ele>46</ele>
        <time>2022-11-12T11:09:10Z</time>
      </trkpt>
      <trkpt lat="47.92692" lon="-4.018">
        <ele>46.5</ele>
        <time>2022-11-12T11:09:12Z</time>
      </trkpt>
      <trkpt lat="47.92688" lon="-4.01802">
        <ele>46.9</ele>
        <time>2022-11-12T11:09:13Z</time>
      </trkpt>
      <trkpt lat="47.92684" lon="-4.01803">
        <ele>47.1</ele>
        <time>2022-11-12T11:09:14Z</time>
      </trkpt>
      <trkpt lat="47.9268" lon="-4.01805">
        <ele>47.5</ele>
        <time>2022-11-12T11:09:15Z</time>
      </trkpt>
      <trkpt lat="47.92676" lon="-4.01805">
        <ele>47.8</ele>
        <time>2022-11-12T11:09:16Z</time>
      </trkpt>
      <trkpt lat="47.92672" lon="-4.01807">
        <ele>48.1</ele>
        <time>2022-11-12T11:09:17Z</time>
      </trkpt>
      <trkpt lat="47.92668" lon="-4.01808">
        <ele>48.4</ele>
        <time>2022-11-12T11:09:18Z</time>
      </trkpt>
      <trkpt lat="47.92664" lon="-4.01809">
        <ele>48.7</ele>
        <time>2022-11-12T11:09:19Z</time>
      </trkpt>
      <trkpt lat="47.9266" lon="-4.0181">
        <ele>49.1</ele>
        <time>2022-11-12T11:09:20Z</time>
      </trkpt>
      <trkpt lat="47.92655" lon="-4.01811">
        <ele>49.4</ele>
        <time>2022-11-12T11:09:21Z</time>
      </trkpt>
      <trkpt lat="47.92651" lon="-4.01812">
        <ele>49.7</ele>
        <time>2022-11-12T11:09:22Z</time>
      </trkpt>
      <trkpt lat="47.92647" lon="-4.01813">
        <ele>50</ele>
        <time>2022-11-12T11:09:23Z</time>
      </trkpt>
      <trkpt lat="47.92644" lon="-4.01814">
        <ele>50.3</ele>
        <time>2022-11-12T11:09:24Z</time>
      </trkpt>
      <trkpt lat="47.9264" lon="-4.01816">
        <ele>50.5</ele>
        <time>2022-11-12T11:09:25Z</time>
      </trkpt>
      <trkpt lat="47.92636" lon="-4.01817">
        <ele>50.8</ele>
        <time>2022-11-12T11:09:26Z</time>
      </trkpt>
      <trkpt lat="47.92632" lon="-4.01818">
        <ele>51.1</ele>
        <time>2022-11-12T11:09:27Z</time>
      </trkpt>
      <trkpt lat="47.92628" lon="-4.01819">
        <ele>51.3</ele>
        <time>2022-11-12T11:09:28Z</time>
      </trkpt>
      <trkpt lat="47.92624" lon="-4.01819">
        <ele>51.6</ele>
        <time>2022-11-12T11:09:29Z</time>
      </trkpt>
      <trkpt lat="47.9262" lon="-4.01818">
        <ele>51.8</ele>
        <time>2022-11-12T11:09:30Z</time>
      </trkpt>
      <trkpt lat="47.92617" lon="-4.01818">
        <ele>52</ele>
        <time>2022-11-12T11:09:31Z</time>
      </trkpt>
      <trkpt lat="47.92613" lon="-4.01819">
        <ele>52.3</ele>
        <time>2022-11-12T11:09:32Z</time>
      </trkpt>
      <trkpt lat="47.92608" lon="-4.01819">
        <ele>52.5</ele>
        <time>2022-11-12T11:09:33Z</time>
      </trkpt>
      <trkpt lat="47.92604" lon="-4.0182">
        <ele>52.7</ele>
        <time>2022-11-12T11:09:34Z</time>
      </trkpt>
      <trkpt lat="47.926" lon="-4.0182">
        <ele>53</ele>
        <time>2022-11-12T11:09:35Z</time>
      </trkpt>
      <trkpt lat="47.92596" lon="-4.01821">
        <ele>53.2</ele>
        <time>2022-11-12T11:09:36Z</time>
      </trkpt>
      <trkpt lat="47.92592" lon="-4.0182">
        <ele>53.4</ele>
        <time>2022-11-12T11:09:37Z</time>
      </trkpt>
      <trkpt lat="47.92588" lon="-4.0182">
        <ele>53.5</ele>
        <time>2022-11-12T11:09:38Z</time>
      </trkpt>
      <trkpt lat="47.92584" lon="-4.0182">
        <ele>53.7</ele>
        <time>2022-11-12T11:09:39Z</time>
      </trkpt>
      <trkpt lat="47.9258" lon="-4.0182">
        <ele>53.9</ele>
        <time>2022-11-12T11:09:40Z</time>
      </trkpt>
      <trkpt lat="47.92576" lon="-4.01819">
        <ele>54.1</ele>
        <time>2022-11-12T11:09:41Z</time>
      </trkpt>
      <trkpt lat="47.92573" lon="-4.01819">
        <ele>54.3</ele>
        <time>2022-11-12T11:09:42Z</time>
      </trkpt>
      <trkpt lat="47.9257" lon="-4.0182">
        <ele>54.5</ele>
        <time>2022-11-12T11:09:43Z</time>
      </trkpt>
      <trkpt lat="47.92566" lon="-4.01819">
        <ele>54.6</ele>
        <time>2022-11-12T11:09:44Z</time>
      </trkpt>
      <trkpt lat="47.92563" lon="-4.01819">
        <ele>54.8</ele>
        <time>2022-11-12T11:09:45Z</time>
      </trkpt>
      <trkpt lat="47.92561" lon="-4.01817">
        <ele>54.9</ele>
        <time>2022-11-12T11:09:46Z</time>
      </trkpt>
      <trkpt lat="47.92561" lon="-4.01816">
        <ele>54.9</ele>
        <time>2022-11-12T11:09:47Z</time>
      </trkpt>
      <trkpt lat="47.92561" lon="-4.01815">
        <ele>54.9</ele>
        <time>2022-11-12T11:09:48Z</time>
      </trkpt>
      <trkpt lat="47.92561" lon="-4.01815">
        <ele>55</ele>
        <time>2022-11-12T11:09:49Z</time>
      </trkpt>
      <trkpt lat="47.92561" lon="-4.01814">
        <ele>55</ele>
        <time>2022-11-12T11:09:50Z</time>
      </trkpt>
      <trkpt lat="47.92561" lon="-4.01814">
        <ele>55</ele>
        <time>2022-11-12T11:09:51Z</time>
      </trkpt>
      <trkpt lat="47.92558" lon="-4.0181">
        <ele>55.2</ele>
        <time>2022-11-12T11:09:52Z</time>
      </trkpt>
      <trkpt lat="47.92556" lon="-4.01809">
        <ele>55.3</ele>
        <time>2022-11-12T11:09:53Z</time>
      </trkpt>
      <trkpt lat="47.92552" lon="-4.01808">
        <ele>55.4</ele>
        <time>2022-11-12T11:09:54Z</time>
      </trkpt>
      <trkpt lat="47.92548" lon="-4.01808">
        <ele>55.6</ele>
        <time>2022-11-12T11:09:55Z</time>
      </trkpt>
      <trkpt lat="47.92543" lon="-4.01806">
        <ele>55.8</ele>
        <time>2022-11-12T11:09:56Z</time>
      </trkpt>
      <trkpt lat="47.92539" lon="-4.01805">
        <ele>56</ele>
        <time>2022-11-12T11:09:57Z</time>
      </trkpt>
      <trkpt lat="47.92535" lon="-4.01804">
        <ele>56.2</ele>
        <time>2022-11-12T11:09:58Z</time>
      </trkpt>
      <trkpt lat="47.92531" lon="-4.01804">
        <ele>56.3</ele>
        <time>2022-11-12T11:09:59Z</time>
      </trkpt>
      <trkpt lat="47.92527" lon="-4.01803">
        <ele>56.5</ele>
        <time>2022-11-12T11:10:00Z</time>
      </trkpt>
      <trkpt lat="47.92522" lon="-4.01802">
        <ele>56.6</ele>
        <time>2022-11-12T11:10:01Z</time>
      </trkpt>
      <trkpt lat="47.92518" lon="-4.01801">
        <ele>56.8</ele>
        <time>2022-11-12T11:10:02Z</time>
      </trkpt>
      <trkpt lat="47.92514" lon="-4.01799">
        <ele>56.9</ele>
        <time>2022-11-12T11:10:03Z</time>
      </trkpt>
      <trkpt lat="47.92511" lon="-4.01795">
        <ele>57</ele>
        <time>2022-11-12T11:10:04Z</time>
      </trkpt>
      <trkpt lat="47.92509" lon="-4.01789">
        <ele>57</ele>
        <time>2022-11-12T11:10:05Z</time>
      </trkpt>
      <trkpt lat="47.92509" lon="-4.01782">
        <ele>57.1</ele>
        <time>2022-11-12T11:10:06Z</time>
      </trkpt>
      <trkpt lat="47.92511" lon="-4.01774">
        <ele>57.1</ele>
        <time>2022-11-12T11:10:07Z</time>
      </trkpt>
      <trkpt lat="47.92514" lon="-4.01768">
        <ele>57.1</ele>
        <time>2022-11-12T11:10:08Z</time>
      </trkpt>
      <trkpt lat="47.92517" lon="-4.01762">
        <ele>57.1</ele>
        <time>2022-11-12T11:10:09Z</time>
      </trkpt>
      <trkpt lat="47.9252" lon="-4.01755">
        <ele>57.1</ele>
        <time>2022-11-12T11:10:10Z</time>
      </trkpt>
      <trkpt lat="47.92523" lon="-4.01749">
        <ele>57.1</ele>
        <time>2022-11-12T11:10:11Z</time>
      </trkpt>
      <trkpt lat="47.92525" lon="-4.01742">
        <ele>57.2</ele>
        <time>2022-11-12T11:10:12Z</time>
      </trkpt>
      <trkpt lat="47.92527" lon="-4.01735">
        <ele>57.2</ele>
        <time>2022-11-12T11:10:13Z</time>
      </trkpt>
      <trkpt lat="47.9253" lon="-4.01729">
        <ele>57.2</ele>
        <time>2022-11-12T11:10:14Z</time>
      </trkpt>
      <trkpt lat="47.92532" lon="-4.01722">
        <ele>57.3</ele>
        <time>2022-11-12T11:10:15Z</time>
      </trkpt>
      <trkpt lat="47.92535" lon="-4.01715">
        <ele>57.3</ele>
        <time>2022-11-12T11:10:16Z</time>
      </trkpt>
      <trkpt lat="47.92536" lon="-4.01708">
        <ele>57.4</ele>
        <time>2022-11-12T11:10:17Z</time>
      </trkpt>
      <trkpt lat="47.92538" lon="-4.01701">
        <ele>57.4</ele>
        <time>2022-11-12T11:10:18Z</time>
      </trkpt>
      <trkpt lat="47.9254" lon="-4.01693">
        <ele>57.5</ele>
        <time>2022-11-12T11:10:19Z</time>
      </trkpt>
      <trkpt lat="47.92541" lon="-4.01686">
        <ele>57.6</ele>
        <time>2022-11-12T11:10:20Z</time>
      </trkpt>
      <trkpt lat="47.92543" lon="-4.01679">
        <ele>57.7</ele>
        <time>2022-11-12T11:10:21Z</time>
      </trkpt>
      <trkpt lat="47.92544" lon="-4.01671">
        <ele>57.8</ele>
        <time>2022-11-12T11:10:22Z</time>
      </trkpt>
      <trkpt lat="47.92545" lon="-4.01664">
        <ele>57.9</ele>
        <time>2022-11-12T11:10:23Z</time>
      </trkpt>
      <trkpt lat="47.92546" lon="-4.01656">
        <ele>58</ele>
        <time>2022-11-12T11:10:24Z</time>
      </trkpt>
      <trkpt lat="47.92547" lon="-4.01649">
        <ele>58.1</ele>
        <time>2022-11-12T11:10:25Z</time>
      </trkpt>
      <trkpt lat="47.92549" lon="-4.01642">
        <ele>58.3</ele>
        <time>2022-11-12T11:10:26Z</time>
      </trkpt>
      <trkpt lat="47.9255" lon="-4.01634">
        <ele>58.4</ele>
        <time>2022-11-12T11:10:27Z</time>
      </trkpt>
      <trkpt lat="47.92551" lon="-4.01627">
        <ele>58.6</ele>
        <time>2022-11-12T11:10:28Z</time>
      </trkpt>
      <trkpt lat="47.92553" lon="-4.0162">
        <ele>58.8</ele>
        <time>2022-11-12T11:10:29Z</time>
      </trkpt>
      <trkpt lat="47.92554" lon="-4.01613">
        <ele>59</ele>
        <time>2022-11-12T11:10:30Z</time>
      </trkpt>
      <trkpt lat="47.92556" lon="-4.01606">
        <ele>59.1</ele>
        <time>2022-11-12T11:10:31Z</time>
      </trkpt>
      <trkpt lat="47.92558" lon="-4.01599">
        <ele>59.3</ele>
        <time>2022-11-12T11:10:32Z</time>
      </trkpt>
      <trkpt lat="47.9256" lon="-4.01593">
        <ele>59.5</ele>
        <time>2022-11-12T11:10:33Z</time>
      </trkpt>
      <trkpt lat="47.92563" lon="-4.01586">
        <ele>59.7</ele>
        <time>2022-11-12T11:10:34Z</time>
      </trkpt>
      <trkpt lat="47.92565" lon="-4.0158">
        <ele>59.9</ele>
        <time>2022-11-12T11:10:35Z</time>
      </trkpt>
      <trkpt lat="47.92568" lon="-4.01574">
        <ele>60</ele>
        <time>2022-11-12T11:10:36Z</time>
      </trkpt>
      <trkpt lat="47.9257" lon="-4.01568">
        <ele>60.2</ele>
        <time>2022-11-12T11:10:37Z</time>
      </trkpt>
      <trkpt lat="47.92573" lon="-4.01561">
        <ele>60.4</ele>
        <time>2022-11-12T11:10:38Z</time>
      </trkpt>
      <trkpt lat="47.92576" lon="-4.01555">
        <ele>60.6</ele>
        <time>2022-11-12T11:10:39Z</time>
      </trkpt>
      <trkpt lat="47.92578" lon="-4.01549">
        <ele>60.8</ele>
        <time>2022-11-12T11:10:40Z</time>
      </trkpt>
      <trkpt lat="47.92581" lon="-4.01543">
        <ele>60.9</ele>
        <time>2022-11-12T11:10:41Z</time>
      </trkpt>
      <trkpt lat="47.92584" lon="-4.01537">
        <ele>61.1</ele>
        <time>2022-11-12T11:10:42Z</time>
      </trkpt>
      <trkpt lat="47.92587" lon="-4.01531">
        <ele>61.2</ele>
        <time>2022-11-12T11:10:43Z</time>
      </trkpt>
      <trkpt lat="47.9259" lon="-4.01526">
        <ele>61.4</ele>
        <time>2022-11-12T11:10:44Z</time>
      </trkpt>
      <trkpt lat="47.92593" lon="-4.01522">
        <ele>61.5</ele>
        <time>2022-11-12T11:10:45Z</time>
      </trkpt>
      <trkpt lat="47.92596" lon="-4.01517">
        <ele>61.6</ele>
        <time>2022-11-12T11:10:46Z</time>
      </trkpt>
      <trkpt lat="47.926" lon="-4.01512">
        <ele>61.7</ele>
        <time>2022-11-12T11:10:47Z</time>
      </trkpt>
      <trkpt lat="47.92603" lon="-4.01507">
        <ele>61.8</ele>
        <time>2022-11-12T11:10:48Z</time>
      </trkpt>
      <trkpt lat="47.92606" lon="-4.01501">
        <ele>61.9</ele>
        <time>2022-11-12T11:10:49Z</time>
      </trkpt>
      <trkpt lat="47.92609" lon="-4.01496">
        <ele>62</ele>
        <time>2022-11-12T11:10:50Z</time>
      </trkpt>
      <trkpt lat="47.92612" lon="-4.0149">
        <ele>62.1</ele>
        <time>2022-11-12T11:10:51Z</time>
      </trkpt>
      <trkpt lat="47.92614" lon="-4.01485">
        <ele>62.2</ele>
        <time>2022-11-12T11:10:52Z</time>
      </trkpt>
      <trkpt lat="47.92617" lon="-4.01479">
        <ele>62.3</ele>
        <time>2022-11-12T11:10:53Z</time>
      </trkpt>
      <trkpt lat="47.9262" lon="-4.01473">
        <ele>62.4</ele>
        <time>2022-11-12T11:10:54Z</time>
      </trkpt>
      <trkpt lat="47.92622" lon="-4.01466">
        <ele>62.5</ele>
        <time>2022-11-12T11:10:55Z</time>
      </trkpt>
      <trkpt lat="47.92625" lon="-4.0146">
        <ele>62.6</ele>
        <time>2022-11-12T11:10:56Z</time>
      </trkpt>
      <trkpt lat="47.92627" lon="-4.01454">
        <ele>62.7</ele>
        <time>2022-11-12T11:10:57Z</time>
      </trkpt>
      <trkpt lat="47.92628" lon="-4.01447">
        <ele>62.8</ele>
        <time>2022-11-12T11:10:58Z</time>
      </trkpt>
      <trkpt lat="47.9263" lon="-4.0144">
        <ele>62.9</ele>
        <time>2022-11-12T11:10:59Z</time>
      </trkpt>
      <trkpt lat="47.92631" lon="-4.01433">
        <ele>62.9</ele>
        <time>2022-11-12T11:11:00Z</time>
      </trkpt>
      <trkpt lat="47.92633" lon="-4.01425">
        <ele>63</ele>
        <time>2022-11-12T11:11:01Z</time>
      </trkpt>
      <trkpt lat="47.92633" lon="-4.01418">
        <ele>63.1</ele>
        <time>2022-11-12T11:11:02Z</time>
      </trkpt>
      <trkpt lat="47.92633" lon="-4.0141">
        <ele>63.1</ele>
        <time>2022-11-12T11:11:03Z</time>
      </trkpt>
      <trkpt lat="47.92633" lon="-4.01402">
        <ele>63.1</ele>
        <time>2022-11-12T11:11:04Z</time>
      </trkpt>
      <trkpt lat="47.92633" lon="-4.01395">
        <ele>63.1</ele>
        <time>2022-11-12T11:11:05Z</time>
      </trkpt>
      <trkpt lat="47.92633" lon="-4.01387">
        <ele>63.1</ele>
        <time>2022-11-12T11:11:06Z</time>
      </trkpt>
      <trkpt lat="47.92633" lon="-4.01378">
        <ele>63.1</ele>
        <time>2022-11-12T11:11:07Z</time>
      </trkpt>
      <trkpt lat="47.92634" lon="-4.0137">
        <ele>63.1</ele>
        <time>2022-11-12T11:11:08Z</time>
      </trkpt>
      <trkpt lat="47.92634" lon="-4.01361">
        <ele>63.1</ele>
        <time>2022-11-12T11:11:09Z</time>
      </trkpt>
      <trkpt lat="47.92636" lon="-4.01352">
        <ele>63</ele>
        <time>2022-11-12T11:11:10Z</time>
      </trkpt>
      <trkpt lat="47.92637" lon="-4.01344">
        <ele>63.1</ele>
        <time>2022-11-12T11:11:11Z</time>
      </trkpt>
      <trkpt lat="47.9264" lon="-4.01335">
        <ele>63.1</ele>
        <time>2022-11-12T11:11:12Z</time>
      </trkpt>
      <trkpt lat="47.92642" lon="-4.01327">
        <ele>63.1</ele>
        <time>2022-11-12T11:11:13Z</time>
      </trkpt>
      <trkpt lat="47.92646" lon="-4.01319">
        <ele>63.1</ele>
        <time>2022-11-12T11:11:14Z</time>
      </trkpt>
      <trkpt lat="47.92649" lon="-4.0131">
        <ele>63.2</ele>
        <time>2022-11-12T11:11:15Z</time>
      </trkpt>
      <trkpt lat="47.92652" lon="-4.01302">
        <ele>63.2</ele>
        <time>2022-11-12T11:11:16Z</time>
      </trkpt>
      <trkpt lat="47.92656" lon="-4.01294">
        <ele>63.2</ele>
        <time>2022-11-12T11:11:17Z</time>
      </trkpt>
      <trkpt lat="47.92659" lon="-4.01286">
        <ele>63.3</ele>
        <time>2022-11-12T11:11:18Z</time>
      </trkpt>
      <trkpt lat="47.92662" lon="-4.01278">
        <ele>63.3</ele>
        <time>2022-11-12T11:11:19Z</time>
      </trkpt>
      <trkpt lat="47.92665" lon="-4.0127">
        <ele>63.3</ele>
        <time>2022-11-12T11:11:20Z</time>
      </trkpt>
      <trkpt lat="47.92668" lon="-4.01262">
        <ele>63.3</ele>
        <time>2022-11-12T11:11:21Z</time>
      </trkpt>
      <trkpt lat="47.92672" lon="-4.01254">
        <ele>63.3</ele>
        <time>2022-11-12T11:11:22Z</time>
      </trkpt>
      <trkpt lat="47.92675" lon="-4.01246">
        <ele>63.3</ele>
        <time>2022-11-12T11:11:23Z</time>
      </trkpt>
      <trkpt lat="47.92678" lon="-4.01236">
        <ele>63.3</ele>
        <time>2022-11-12T11:11:24Z</time>
      </trkpt>
      <trkpt lat="47.92681" lon="-4.01228">
        <ele>63.3</ele>
        <time>2022-11-12T11:11:25Z</time>
      </trkpt>
      <trkpt lat="47.92684" lon="-4.01219">
        <ele>63.3</ele>
        <time>2022-11-12T11:11:26Z</time>
      </trkpt>
      <trkpt lat="47.92687" lon="-4.01211">
        <ele>63.3</ele>
        <time>2022-11-12T11:11:27Z</time>
      </trkpt>
      <trkpt lat="47.92689" lon="-4.01202">
        <ele>63.3</ele>
        <time>2022-11-12T11:11:28Z</time>
      </trkpt>
      <trkpt lat="47.92692" lon="-4.01193">
        <ele>63.3</ele>
        <time>2022-11-12T11:11:29Z</time>
      </trkpt>
      <trkpt lat="47.92695" lon="-4.01185">
        <ele>63.3</ele>
        <time>2022-11-12T11:11:30Z</time>
      </trkpt>
      <trkpt lat="47.92698" lon="-4.01176">
        <ele>63.3</ele>
        <time>2022-11-12T11:11:31Z</time>
      </trkpt>
      <trkpt lat="47.927" lon="-4.01168">
        <ele>63.3</ele>
        <time>2022-11-12T11:11:32Z</time>
      </trkpt>
      <trkpt lat="47.92703" lon="-4.0116">
        <ele>63.3</ele>
        <time>2022-11-12T11:11:33Z</time>
      </trkpt>
      <trkpt lat="47.92707" lon="-4.01151">
        <ele>63.3</ele>
        <time>2022-11-12T11:11:34Z</time>
      </trkpt>
      <trkpt lat="47.9271" lon="-4.01143">
        <ele>63.3</ele>
        <time>2022-11-12T11:11:35Z</time>
      </trkpt>
      <trkpt lat="47.92713" lon="-4.01135">
        <ele>63.2</ele>
        <time>2022-11-12T11:11:36Z</time>
      </trkpt>
      <trkpt lat="47.92716" lon="-4.01126">
        <ele>63.2</ele>
        <time>2022-11-12T11:11:37Z</time>
      </trkpt>
      <trkpt lat="47.92718" lon="-4.01117">
        <ele>63.2</ele>
        <time>2022-11-12T11:11:38Z</time>
      </trkpt>
      <trkpt lat="47.92721" lon="-4.01108">
        <ele>63.2</ele>
        <time>2022-11-12T11:11:39Z</time>
      </trkpt>
      <trkpt lat="47.92725" lon="-4.011">
        <ele>63.2</ele>
        <time>2022-11-12T11:11:40Z</time>
      </trkpt>
      <trkpt lat="47.92728" lon="-4.01092">
        <ele>63.2</ele>
        <time>2022-11-12T11:11:41Z</time>
      </trkpt>
      <trkpt lat="47.92732" lon="-4.01084">
        <ele>63.2</ele>
        <time>2022-11-12T11:11:42Z</time>
      </trkpt>
      <trkpt lat="47.92735" lon="-4.01076">
        <ele>63.3</ele>
        <time>2022-11-12T11:11:43Z</time>
      </trkpt>
      <trkpt lat="47.9274" lon="-4.01068">
        <ele>63.4</ele>
        <time>2022-11-12T11:11:44Z</time>
      </trkpt>
      <trkpt lat="47.92743" lon="-4.0106">
        <ele>63.4</ele>
        <time>2022-11-12T11:11:45Z</time>
      </trkpt>
      <trkpt lat="47.92747" lon="-4.01052">
        <ele>63.4</ele>
        <time>2022-11-12T11:11:46Z</time>
      </trkpt>
      <trkpt lat="47.92751" lon="-4.01044">
        <ele>63.5</ele>
        <time>2022-11-12T11:11:47Z</time>
      </trkpt>
      <trkpt lat="47.92754" lon="-4.01036">
        <ele>63.5</ele>
        <time>2022-11-12T11:11:48Z</time>
      </trkpt>
      <trkpt lat="47.92758" lon="-4.01029">
        <ele>63.5</ele>
        <time>2022-11-12T11:11:49Z</time>
      </trkpt>
      <trkpt lat="47.92761" lon="-4.01021">
        <ele>63.5</ele>
        <time>2022-11-12T11:11:50Z</time>
      </trkpt>
      <trkpt lat="47.92765" lon="-4.01013">
        <ele>63.6</ele>
        <time>2022-11-12T11:11:51Z</time>
      </trkpt>
      <trkpt lat="47.92768" lon="-4.01005">
        <ele>63.7</ele>
        <time>2022-11-12T11:11:52Z</time>
      </trkpt>
      <trkpt lat="47.92772" lon="-4.00997">
        <ele>63.7</ele>
        <time>2022-11-12T11:11:53Z</time>
      </trkpt>
      <trkpt lat="47.92776" lon="-4.00989">
        <ele>63.8</ele>
        <time>2022-11-12T11:11:54Z</time>
      </trkpt>
      <trkpt lat="47.9278" lon="-4.00981">
        <ele>63.9</ele>
        <time>2022-11-12T11:11:55Z</time>
      </trkpt>
      <trkpt lat="47.92783" lon="-4.00973">
        <ele>63.9</ele>
        <time>2022-11-12T11:11:56Z</time>
      </trkpt>
      <trkpt lat="47.92787" lon="-4.00965">
        <ele>64</ele>
        <time>2022-11-12T11:11:57Z</time>
      </trkpt>
      <trkpt lat="47.92791" lon="-4.00958">
        <ele>64</ele>
        <time>2022-11-12T11:11:58Z</time>
      </trkpt>
      <trkpt lat="47.92794" lon="-4.0095">
        <ele>64</ele>
        <time>2022-11-12T11:11:59Z</time>
      </trkpt>
      <trkpt lat="47.92798" lon="-4.00943">
        <ele>64.1</ele>
        <time>2022-11-12T11:12:00Z</time>
      </trkpt>
      <trkpt lat="47.92801" lon="-4.00935">
        <ele>64.1</ele>
        <time>2022-11-12T11:12:01Z</time>
      </trkpt>
      <trkpt lat="47.92805" lon="-4.00927">
        <ele>64.2</ele>
        <time>2022-11-12T11:12:02Z</time>
      </trkpt>
      <trkpt lat="47.92809" lon="-4.00919">
        <ele>64.2</ele>
        <time>2022-11-12T11:12:03Z</time>
      </trkpt>
      <trkpt lat="47.92812" lon="-4.00911">
        <ele>64.3</ele>
        <time>2022-11-12T11:12:04Z</time>
      </trkpt>
      <trkpt lat="47.92816" lon="-4.00904">
        <ele>64.4</ele>
        <time>2022-11-12T11:12:05Z</time>
      </trkpt>
      <trkpt lat="47.9282" lon="-4.00896">
        <ele>64.4</ele>
        <time>2022-11-12T11:12:06Z</time>
      </trkpt>
      <trkpt lat="47.92824" lon="-4.00888">
        <ele>64.5</ele>
        <time>2022-11-12T11:12:07Z</time>
      </trkpt>
      <trkpt lat="47.92828" lon="-4.0088">
        <ele>64.5</ele>
        <time>2022-11-12T11:12:08Z</time>
      </trkpt>
      <trkpt lat="47.92832" lon="-4.00872">
        <ele>64.6</ele>
        <time>2022-11-12T11:12:09Z</time>
      </trkpt>
      <trkpt lat="47.92835" lon="-4.00864">
        <ele>64.6</ele>
        <time>2022-11-12T11:12:10Z</time>
      </trkpt>
      <trkpt lat="47.92839" lon="-4.00857">
        <ele>64.7</ele>
        <time>2022-11-12T11:12:11Z</time>
      </trkpt>
      <trkpt lat="47.92843" lon="-4.00849">
        <ele>64.7</ele>
        <time>2022-11-12T11:12:12Z</time>
      </trkpt>
      <trkpt lat="47.92846" lon="-4.00841">
        <ele>64.8</ele>
        <time>2022-11-12T11:12:13Z</time>
      </trkpt>
      <trkpt lat="47.9285" lon="-4.00833">
        <ele>64.8</ele>
        <time>2022-11-12T11:12:14Z</time>
      </trkpt>
      <trkpt lat="47.92854" lon="-4.00825">
        <ele>64.8</ele>
        <time>2022-11-12T11:12:15Z</time>
      </trkpt>
      <trkpt lat="47.92858" lon="-4.00817">
        <ele>64.9</ele>
        <time>2022-11-12T11:12:16Z</time>
      </trkpt>
      <trkpt lat="47.92861" lon="-4.00809">
        <ele>64.9</ele>
        <time>2022-11-12T11:12:17Z</time>
      </trkpt>
      <trkpt lat="47.92865" lon="-4.00801">
        <ele>64.9</ele>
        <time>2022-11-12T11:12:18Z</time>
      </trkpt>
      <trkpt lat="47.92868" lon="-4.00793">
        <ele>65</ele>
        <time>2022-11-12T11:12:19Z</time>
      </trkpt>
      <trkpt lat="47.92871" lon="-4.00784">
        <ele>65</ele>
        <time>2022-11-12T11:12:20Z</time>
      </trkpt>
      <trkpt lat="47.92873" lon="-4.00776">
        <ele>65.1</ele>
        <time>2022-11-12T11:12:21Z</time>
      </trkpt>
      <trkpt lat="47.92876" lon="-4.00767">
        <ele>65.1</ele>
        <time>2022-11-12T11:12:22Z</time>
      </trkpt>
      <trkpt lat="47.92879" lon="-4.00758">
        <ele>65.2</ele>
        <time>2022-11-12T11:12:23Z</time>
      </trkpt>
      <trkpt lat="47.92881" lon="-4.00749">
        <ele>65.2</ele>
        <time>2022-11-12T11:12:24Z</time>
      </trkpt>
      <trkpt lat="47.92883" lon="-4.0074">
        <ele>65.3</ele>
        <time>2022-11-12T11:12:25Z</time>
      </trkpt>
      <trkpt lat="47.92885" lon="-4.00731">
        <ele>65.3</ele>
        <time>2022-11-12T11:12:26Z</time>
      </trkpt>
      <trkpt lat="47.92887" lon="-4.00722">
        <ele>65.4</ele>
        <time>2022-11-12T11:12:27Z</time>
      </trkpt>
      <trkpt lat="47.92889" lon="-4.00712">
        <ele>65.5</ele>
        <time>2022-11-12T11:12:28Z</time>
      </trkpt>
      <trkpt lat="47.9289" lon="-4.00703">
        <ele>65.6</ele>
        <time>2022-11-12T11:12:29Z</time>
      </trkpt>
      <trkpt lat="47.92892" lon="-4.00694">
        <ele>65.7</ele>
        <time>2022-11-12T11:12:30Z</time>
      </trkpt>
      <trkpt lat="47.92894" lon="-4.00685">
        <ele>65.8</ele>
        <time>2022-11-12T11:12:31Z</time>
      </trkpt>
      <trkpt lat="47.92896" lon="-4.00676">
        <ele>65.8</ele>
        <time>2022-11-12T11:12:32Z</time>
      </trkpt>
      <trkpt lat="47.92898" lon="-4.00667">
        <ele>65.9</ele>
        <time>2022-11-12T11:12:33Z</time>
      </trkpt>
      <trkpt lat="47.929" lon="-4.00658">
        <ele>65.9</ele>
        <time>2022-11-12T11:12:34Z</time>
      </trkpt>
      <trkpt lat="47.92901" lon="-4.00649">
        <ele>66</ele>
        <time>2022-11-12T11:12:35Z</time>
      </trkpt>
      <trkpt lat="47.92902" lon="-4.0064">
        <ele>66</ele>
        <time>2022-11-12T11:12:36Z</time>
      </trkpt>
      <trkpt lat="47.92904" lon="-4.00631">
        <ele>66</ele>
        <time>2022-11-12T11:12:37Z</time>
      </trkpt>
      <trkpt lat="47.92906" lon="-4.00622">
        <ele>66.1</ele>
        <time>2022-11-12T11:12:38Z</time>
      </trkpt>
      <trkpt lat="47.92908" lon="-4.00614">
        <ele>66.1</ele>
        <time>2022-11-12T11:12:39Z</time>
      </trkpt>
      <trkpt lat="47.9291" lon="-4.00605">
        <ele>66.2</ele>
        <time>2022-11-12T11:12:40Z</time>
      </trkpt>
      <trkpt lat="47.92913" lon="-4.00597">
        <ele>66.2</ele>
        <time>2022-11-12T11:12:41Z</time>
      </trkpt>
      <trkpt lat="47.92915" lon="-4.00589">
        <ele>66.3</ele>
        <time>2022-11-12T11:12:42Z</time>
      </trkpt>
      <trkpt lat="47.92919" lon="-4.00581">
        <ele>66.3</ele>
        <time>2022-11-12T11:12:43Z</time>
      </trkpt>
      <trkpt lat="47.92921" lon="-4.00573">
        <ele>66.3</ele>
        <time>2022-11-12T11:12:44Z</time>
      </trkpt>
      <trkpt lat="47.92925" lon="-4.00565">
        <ele>66.4</ele>
        <time>2022-11-12T11:12:45Z</time>
      </trkpt>
      <trkpt lat="47.92928" lon="-4.00558">
        <ele>66.4</ele>
        <time>2022-11-12T11:12:46Z</time>
      </trkpt>
      <trkpt lat="47.92932" lon="-4.0055">
        <ele>66.4</ele>
        <time>2022-11-12T11:12:47Z</time>
      </trkpt>
      <trkpt lat="47.92937" lon="-4.00543">
        <ele>66.5</ele>
        <time>2022-11-12T11:12:48Z</time>
      </trkpt>
      <trkpt lat="47.92941" lon="-4.00536">
        <ele>66.5</ele>
        <time>2022-11-12T11:12:49Z</time>
      </trkpt>
      <trkpt lat="47.92944" lon="-4.00528">
        <ele>66.6</ele>
        <time>2022-11-12T11:12:50Z</time>
      </trkpt>
      <trkpt lat="47.92946" lon="-4.0052">
        <ele>66.6</ele>
        <time>2022-11-12T11:12:51Z</time>
      </trkpt>
      <trkpt lat="47.92945" lon="-4.00511">
        <ele>66.6</ele>
        <time>2022-11-12T11:12:52Z</time>
      </trkpt>
      <trkpt lat="47.92943" lon="-4.00502">
        <ele>66.5</ele>
        <time>2022-11-12T11:12:53Z</time>
      </trkpt>
      <trkpt lat="47.9294" lon="-4.00493">
        <ele>66.5</ele>
        <time>2022-11-12T11:12:54Z</time>
      </trkpt>
      <trkpt lat="47.92937" lon="-4.00485">
        <ele>66.4</ele>
        <time>2022-11-12T11:12:55Z</time>
      </trkpt>
      <trkpt lat="47.92935" lon="-4.00477">
        <ele>66.3</ele>
        <time>2022-11-12T11:12:56Z</time>
      </trkpt>
      <trkpt lat="47.92932" lon="-4.00468">
        <ele>66.1</ele>
        <time>2022-11-12T11:12:57Z</time>
      </trkpt>
      <trkpt lat="47.92929" lon="-4.00458">
        <ele>65.9</ele>
        <time>2022-11-12T11:12:58Z</time>
      </trkpt>
      <trkpt lat="47.92928" lon="-4.00448">
        <ele>65.7</ele>
        <time>2022-11-12T11:12:59Z</time>
      </trkpt>
      <trkpt lat="47.92927" lon="-4.00439">
        <ele>65.5</ele>
        <time>2022-11-12T11:13:00Z</time>
      </trkpt>
      <trkpt lat="47.92925" lon="-4.0043">
        <ele>65.3</ele>
        <time>2022-11-12T11:13:01Z</time>
      </trkpt>
      <trkpt lat="47.92922" lon="-4.0042">
        <ele>65.1</ele>
        <time>2022-11-12T11:13:02Z</time>
      </trkpt>
      <trkpt lat="47.92918" lon="-4.0041">
        <ele>64.9</ele>
        <time>2022-11-12T11:13:03Z</time>
      </trkpt>
      <trkpt lat="47.92915" lon="-4.00401">
        <ele>64.7</ele>
        <time>2022-11-12T11:13:04Z</time>
      </trkpt>
      <trkpt lat="47.92912" lon="-4.00391">
        <ele>64.5</ele>
        <time>2022-11-12T11:13:05Z</time>
      </trkpt>
      <trkpt lat="47.92911" lon="-4.00381">
        <ele>64.4</ele>
        <time>2022-11-12T11:13:06Z</time>
      </trkpt>
      <trkpt lat="47.9291" lon="-4.0037">
        <ele>64.2</ele>
        <time>2022-11-12T11:13:07Z</time>
      </trkpt>
      <trkpt lat="47.92909" lon="-4.00361">
        <ele>64</ele>
        <time>2022-11-12T11:13:08Z</time>
      </trkpt>
      <trkpt lat="47.92909" lon="-4.00352">
        <ele>63.9</ele>
        <time>2022-11-12T11:13:09Z</time>
      </trkpt>
      <trkpt lat="47.92909" lon="-4.00341">
        <ele>63.7</ele>
        <time>2022-11-12T11:13:10Z</time>
      </trkpt>
      <trkpt lat="47.92908" lon="-4.00331">
        <ele>63.5</ele>
        <time>2022-11-12T11:13:11Z</time>
      </trkpt>
      <trkpt lat="47.92908" lon="-4.00321">
        <ele>63.3</ele>
        <time>2022-11-12T11:13:12Z</time>
      </trkpt>
      <trkpt lat="47.92907" lon="-4.00312">
        <ele>63.2</ele>
        <time>2022-11-12T11:13:13Z</time>
      </trkpt>
      <trkpt lat="47.92907" lon="-4.00302">
        <ele>63.2</ele>
        <time>2022-11-12T11:13:14Z</time>
      </trkpt>
      <trkpt lat="47.92906" lon="-4.00292">
        <ele>63.1</ele>
        <time>2022-11-12T11:13:15Z</time>
      </trkpt>
      <trkpt lat="47.92907" lon="-4.00283">
        <ele>63.1</ele>
        <time>2022-11-12T11:13:16Z</time>
      </trkpt>
      <trkpt lat="47.92907" lon="-4.00275">
        <ele>63.2</ele>
        <time>2022-11-12T11:13:17Z</time>
      </trkpt>
      <trkpt lat="47.92906" lon="-4.00266">
        <ele>63.2</ele>
        <time>2022-11-12T11:13:18Z</time>
      </trkpt>
      <trkpt lat="47.92907" lon="-4.00255">
        <ele>63.3</ele>
        <time>2022-11-12T11:13:19Z</time>
      </trkpt>
      <trkpt lat="47.92906" lon="-4.00246">
        <ele>63.4</ele>
        <time>2022-11-12T11:13:20Z</time>
      </trkpt>
      <trkpt lat="47.92906" lon="-4.00238">
        <ele>63.5</ele>
        <time>2022-11-12T11:13:21Z</time>
      </trkpt>
      <trkpt lat="47.92905" lon="-4.0023">
        <ele>63.5</ele>
        <time>2022-11-12T11:13:22Z</time>
      </trkpt>
      <trkpt lat="47.92905" lon="-4.00223">
        <ele>63.5</ele>
        <time>2022-11-12T11:13:23Z</time>
      </trkpt>
      <trkpt lat="47.92903" lon="-4.0022">
        <ele>63.5</ele>
        <time>2022-11-12T11:13:24Z</time>
      </trkpt>
      <trkpt lat="47.92901" lon="-4.00218">
        <ele>63.4</ele>
        <time>2022-11-12T11:13:25Z</time>
      </trkpt>
      <trkpt lat="47.92897" lon="-4.00217">
        <ele>63.3</ele>
        <time>2022-11-12T11:13:26Z</time>
      </trkpt>
      <trkpt lat="47.92892" lon="-4.00213">
        <ele>63</ele>
        <time>2022-11-12T11:13:27Z</time>
      </trkpt>
      <trkpt lat="47.92886" lon="-4.00208">
        <ele>62.8</ele>
        <time>2022-11-12T11:13:28Z</time>
      </trkpt>
      <trkpt lat="47.9288" lon="-4.00204">
        <ele>62.5</ele>
        <time>2022-11-12T11:13:29Z</time>
      </trkpt>
      <trkpt lat="47.92874" lon="-4.00201">
        <ele>62.2</ele>
        <time>2022-11-12T11:13:30Z</time>
      </trkpt>
      <trkpt lat="47.92869" lon="-4.00199">
        <ele>62</ele>
        <time>2022-11-12T11:13:31Z</time>
      </trkpt>
      <trkpt lat="47.92863" lon="-4.00196">
        <ele>61.8</ele>
        <time>2022-11-12T11:13:32Z</time>
      </trkpt>
      <trkpt lat="47.92857" lon="-4.00192">
        <ele>61.5</ele>
        <time>2022-11-12T11:13:33Z</time>
      </trkpt>
      <trkpt lat="47.92852" lon="-4.00187">
        <ele>61.3</ele>
        <time>2022-11-12T11:13:34Z</time>
      </trkpt>
      <trkpt lat="47.92847" lon="-4.00181">
        <ele>61.1</ele>
        <time>2022-11-12T11:13:35Z</time>
      </trkpt>
      <trkpt lat="47.92843" lon="-4.00172">
        <ele>60.9</ele>
        <time>2022-11-12T11:13:36Z</time>
      </trkpt>
      <trkpt lat="47.9284" lon="-4.00165">
        <ele>60.7</ele>
        <time>2022-11-12T11:13:37Z</time>
      </trkpt>
      <trkpt lat="47.92837" lon="-4.00158">
        <ele>60.6</ele>
        <time>2022-11-12T11:13:38Z</time>
      </trkpt>
      <trkpt lat="47.92835" lon="-4.00149">
        <ele>60.5</ele>
        <time>2022-11-12T11:13:39Z</time>
      </trkpt>
      <trkpt lat="47.92834" lon="-4.0014">
        <ele>60.4</ele>
        <time>2022-11-12T11:13:40Z</time>
      </trkpt>
      <trkpt lat="47.92832" lon="-4.00132">
        <ele>60.3</ele>
        <time>2022-11-12T11:13:41Z</time>
      </trkpt>
      <trkpt lat="47.92831" lon="-4.00123">
        <ele>60.2</ele>
        <time>2022-11-12T11:13:42Z</time>
      </trkpt>
      <trkpt lat="47.9283" lon="-4.00114">
        <ele>60.2</ele>
        <time>2022-11-12T11:13:43Z</time>
      </trkpt>
      <trkpt lat="47.92829" lon="-4.00105">
        <ele>60.1</ele>
        <time>2022-11-12T11:13:44Z</time>
      </trkpt>
      <trkpt lat="47.92829" lon="-4.00097">
        <ele>60.1</ele>
        <time>2022-11-12T11:13:45Z</time>
      </trkpt>
      <trkpt lat="47.92828" lon="-4.00088">
        <ele>60.1</ele>
        <time>2022-11-12T11:13:46Z</time>
      </trkpt>
      <trkpt lat="47.92828" lon="-4.00079">
        <ele>60.1</ele>
        <time>2022-11-12T11:13:47Z</time>
      </trkpt>
      <trkpt lat="47.92827" lon="-4.00071">
        <ele>60.2</ele>
        <time>2022-11-12T11:13:48Z</time>
      </trkpt>
      <trkpt lat="47.92826" lon="-4.00063">
        <ele>60.2</ele>
        <time>2022-11-12T11:13:49Z</time>
      </trkpt>
      <trkpt lat="47.92826" lon="-4.00055">
        <ele>60.3</ele>
        <time>2022-11-12T11:13:50Z</time>
      </trkpt>
      <trkpt lat="47.92825" lon="-4.00047">
        <ele>60.3</ele>
        <time>2022-11-12T11:13:51Z</time>
      </trkpt>
      <trkpt lat="47.92824" lon="-4.00039">
        <ele>60.4</ele>
        <time>2022-11-12T11:13:52Z</time>
      </trkpt>
      <trkpt lat="47.92824" lon="-4.00031">
        <ele>60.5</ele>
        <time>2022-11-12T11:13:53Z</time>
      </trkpt>
      <trkpt lat="47.92823" lon="-4.00022">
        <ele>60.6</ele>
        <time>2022-11-12T11:13:54Z</time>
      </trkpt>
      <trkpt lat="47.92823" lon="-4.00015">
        <ele>60.7</ele>
        <time>2022-11-12T11:13:55Z</time>
      </trkpt>
      <trkpt lat="47.92822" lon="-4.00006">
        <ele>60.9</ele>
        <time>2022-11-12T11:13:56Z</time>
      </trkpt>
      <trkpt lat="47.92821" lon="-3.99997">
        <ele>61.1</ele>
        <time>2022-11-12T11:13:57Z</time>
      </trkpt>
      <trkpt lat="47.9282" lon="-3.99991">
        <ele>61.3</ele>
        <time>2022-11-12T11:13:58Z</time>
      </trkpt>
      <trkpt lat="47.9282" lon="-3.99983">
        <ele>61.6</ele>
        <time>2022-11-12T11:13:59Z</time>
      </trkpt>
      <trkpt lat="47.92819" lon="-3.99975">
        <ele>61.8</ele>
        <time>2022-11-12T11:14:00Z</time>
      </trkpt>
      <trkpt lat="47.92818" lon="-3.99969">
        <ele>62</ele>
        <time>2022-11-12T11:14:01Z</time>
      </trkpt>
      <trkpt lat="47.92816" lon="-3.99963">
        <ele>62.2</ele>
        <time>2022-11-12T11:14:02Z</time>
      </trkpt>
      <trkpt lat="47.92816" lon="-3.99959">
        <ele>62.3</ele>
        <time>2022-11-12T11:14:03Z</time>
      </trkpt>
      <trkpt lat="47.92814" lon="-3.99953">
        <ele>62.5</ele>
        <time>2022-11-12T11:14:04Z</time>
      </trkpt>
      <trkpt lat="47.92813" lon="-3.99946">
        <ele>62.6</ele>
        <time>2022-11-12T11:14:05Z</time>
      </trkpt>
      <trkpt lat="47.92812" lon="-3.99939">
        <ele>62.8</ele>
        <time>2022-11-12T11:14:06Z</time>
      </trkpt>
      <trkpt lat="47.92812" lon="-3.99936">
        <ele>62.9</ele>
        <time>2022-11-12T11:14:07Z</time>
      </trkpt>
      <trkpt lat="47.92812" lon="-3.9993">
        <ele>63</ele>
        <time>2022-11-12T11:14:08Z</time>
      </trkpt>
      <trkpt lat="47.92811" lon="-3.99927">
        <ele>63</ele>
        <time>2022-11-12T11:14:09Z</time>
      </trkpt>
      <trkpt lat="47.9281" lon="-3.99921">
        <ele>63.1</ele>
        <time>2022-11-12T11:14:11Z</time>
      </trkpt>
      <trkpt lat="47.92807" lon="-3.99918">
        <ele>63.2</ele>
        <time>2022-11-12T11:14:12Z</time>
      </trkpt>
      <trkpt lat="47.92803" lon="-3.99913">
        <ele>63.2</ele>
        <time>2022-11-12T11:14:13Z</time>
      </trkpt>
      <trkpt lat="47.92801" lon="-3.9991">
        <ele>63.1</ele>
        <time>2022-11-12T11:14:14Z</time>
      </trkpt>
      <trkpt lat="47.92797" lon="-3.99902">
        <ele>63</ele>
        <time>2022-11-12T11:14:15Z</time>
      </trkpt>
      <trkpt lat="47.92794" lon="-3.99897">
        <ele>62.9</ele>
        <time>2022-11-12T11:14:16Z</time>
      </trkpt>
      <trkpt lat="47.92791" lon="-3.99891">
        <ele>62.8</ele>
        <time>2022-11-12T11:14:17Z</time>
      </trkpt>
      <trkpt lat="47.92789" lon="-3.99887">
        <ele>62.7</ele>
        <time>2022-11-12T11:14:18Z</time>
      </trkpt>
      <trkpt lat="47.92787" lon="-3.9988">
        <ele>62.6</ele>
        <time>2022-11-12T11:14:19Z</time>
      </trkpt>
      <trkpt lat="47.92785" lon="-3.99873">
        <ele>62.4</ele>
        <time>2022-11-12T11:14:21Z</time>
      </trkpt>
      <trkpt lat="47.9278" lon="-3.99862">
        <ele>62</ele>
        <time>2022-11-12T11:14:22Z</time>
      </trkpt>
      <trkpt lat="47.92778" lon="-3.99858">
        <ele>61.8</ele>
        <time>2022-11-12T11:14:23Z</time>
      </trkpt>
      <trkpt lat="47.92775" lon="-3.99853">
        <ele>61.6</ele>
        <time>2022-11-12T11:14:25Z</time>
      </trkpt>
      <trkpt lat="47.92774" lon="-3.99851">
        <ele>61.6</ele>
        <time>2022-11-12T11:14:26Z</time>
      </trkpt>
      <trkpt lat="47.92774" lon="-3.99851">
        <ele>61.5</ele>
        <time>2022-11-12T11:14:27Z</time>
      </trkpt>
      <trkpt lat="47.92774" lon="-3.9985">
        <ele>61.5</ele>
        <time>2022-11-12T11:14:28Z</time>
      </trkpt>
      <trkpt lat="47.92773" lon="-3.9985">
        <ele>61.5</ele>
        <time>2022-11-12T11:14:29Z</time>
      </trkpt>
      <trkpt lat="47.92773" lon="-3.99849">
        <ele>61.5</ele>
        <time>2022-11-12T11:14:30Z</time>
      </trkpt>
      <trkpt lat="47.92773" lon="-3.99849">
        <ele>61.4</ele>
        <time>2022-11-12T11:14:31Z</time>
      </trkpt>
      <trkpt lat="47.92773" lon="-3.99848">
        <ele>61.4</ele>
        <time>2022-11-12T11:14:32Z</time>
      </trkpt>
      <trkpt lat="47.92772" lon="-3.99848">
        <ele>61.4</ele>
        <time>2022-11-12T11:14:33Z</time>
      </trkpt>
      <trkpt lat="47.92772" lon="-3.99847">
        <ele>61.4</ele>
        <time>2022-11-12T11:14:34Z</time>
      </trkpt>
      <trkpt lat="47.92772" lon="-3.99847">
        <ele>61.4</ele>
        <time>2022-11-12T11:14:35Z</time>
      </trkpt>
      <trkpt lat="47.92772" lon="-3.99846">
        <ele>61.3</ele>
        <time>2022-11-12T11:14:36Z</time>
      </trkpt>
      <trkpt lat="47.92771" lon="-3.99846">
        <ele>61.3</ele>
        <time>2022-11-12T11:14:37Z</time>
      </trkpt>
      <trkpt lat="47.92771" lon="-3.99845">
        <ele>61.3</ele>
        <time>2022-11-12T11:15:11Z</time>
      </trkpt>
      <trkpt lat="47.92771" lon="-3.99845">
        <ele>61.3</ele>
        <time>2022-11-12T11:15:12Z</time>
      </trkpt>
      <trkpt lat="47.92771" lon="-3.99844">
        <ele>61.3</ele>
        <time>2022-11-12T11:15:13Z</time>
      </trkpt>
      <trkpt lat="47.92768" lon="-3.99841">
        <ele>61.1</ele>
        <time>2022-11-12T11:15:14Z</time>
      </trkpt>
      <trkpt lat="47.92767" lon="-3.99839">
        <ele>61</ele>
        <time>2022-11-12T11:15:15Z</time>
      </trkpt>
      <trkpt lat="47.92765" lon="-3.99836">
        <ele>60.9</ele>
        <time>2022-11-12T11:15:16Z</time>
      </trkpt>
      <trkpt lat="47.92761" lon="-3.99832">
        <ele>60.6</ele>
        <time>2022-11-12T11:15:17Z</time>
      </trkpt>
      <trkpt lat="47.92756" lon="-3.99823">
        <ele>60.2</ele>
        <time>2022-11-12T11:15:19Z</time>
      </trkpt>
      <trkpt lat="47.92752" lon="-3.99816">
        <ele>59.8</ele>
        <time>2022-11-12T11:15:20Z</time>
      </trkpt>
      <trkpt lat="47.92747" lon="-3.99809">
        <ele>59.5</ele>
        <time>2022-11-12T11:15:21Z</time>
      </trkpt>
      <trkpt lat="47.92743" lon="-3.99801">
        <ele>59.2</ele>
        <time>2022-11-12T11:15:22Z</time>
      </trkpt>
      <trkpt lat="47.92738" lon="-3.99794">
        <ele>59</ele>
        <time>2022-11-12T11:15:23Z</time>
      </trkpt>
      <trkpt lat="47.92735" lon="-3.99788">
        <ele>58.9</ele>
        <time>2022-11-12T11:15:24Z</time>
      </trkpt>
      <trkpt lat="47.92732" lon="-3.99781">
        <ele>58.7</ele>
        <time>2022-11-12T11:15:25Z</time>
      </trkpt>
      <trkpt lat="47.92728" lon="-3.99776">
        <ele>58.6</ele>
        <time>2022-11-12T11:15:26Z</time>
      </trkpt>
      <trkpt lat="47.92725" lon="-3.99771">
        <ele>58.5</ele>
        <time>2022-11-12T11:15:27Z</time>
      </trkpt>
      <trkpt lat="47.92724" lon="-3.99769">
        <ele>58.5</ele>
        <time>2022-11-12T11:15:28Z</time>
      </trkpt>
      <trkpt lat="47.92719" lon="-3.99762">
        <ele>58.4</ele>
        <time>2022-11-12T11:15:30Z</time>
      </trkpt>
      <trkpt lat="47.92716" lon="-3.99758">
        <ele>58.3</ele>
        <time>2022-11-12T11:15:31Z</time>
      </trkpt>
      <trkpt lat="47.92715" lon="-3.99756">
        <ele>58.2</ele>
        <time>2022-11-12T11:15:32Z</time>
      </trkpt>
      <trkpt lat="47.92715" lon="-3.99755">
        <ele>58.2</ele>
        <time>2022-11-12T11:15:33Z</time>
      </trkpt>
      <trkpt lat="47.92713" lon="-3.9975">
        <ele>58.1</ele>
        <time>2022-11-12T11:15:35Z</time>
      </trkpt>
      <trkpt lat="47.92711" lon="-3.99746">
        <ele>58.1</ele>
        <time>2022-11-12T11:15:36Z</time>
      </trkpt>
      <trkpt lat="47.92707" lon="-3.99744">
        <ele>58</ele>
        <time>2022-11-12T11:15:38Z</time>
      </trkpt>
      <trkpt lat="47.92704" lon="-3.9974">
        <ele>57.9</ele>
        <time>2022-11-12T11:15:39Z</time>
      </trkpt>
      <trkpt lat="47.927" lon="-3.99735">
        <ele>57.7</ele>
        <time>2022-11-12T11:15:40Z</time>
      </trkpt>
      <trkpt lat="47.92697" lon="-3.99729">
        <ele>57.7</ele>
        <time>2022-11-12T11:15:41Z</time>
      </trkpt>
      <trkpt lat="47.92693" lon="-3.99723">
        <ele>57.6</ele>
        <time>2022-11-12T11:15:42Z</time>
      </trkpt>
      <trkpt lat="47.9269" lon="-3.99717">
        <ele>57.6</ele>
        <time>2022-11-12T11:15:43Z</time>
      </trkpt>
      <trkpt lat="47.92687" lon="-3.99711">
        <ele>57.7</ele>
        <time>2022-11-12T11:15:45Z</time>
      </trkpt>
      <trkpt lat="47.92682" lon="-3.99704">
        <ele>57.7</ele>
        <time>2022-11-12T11:15:46Z</time>
      </trkpt>
      <trkpt lat="47.92677" lon="-3.99695">
        <ele>57.8</ele>
        <time>2022-11-12T11:15:47Z</time>
      </trkpt>
      <trkpt lat="47.92674" lon="-3.99689">
        <ele>57.9</ele>
        <time>2022-11-12T11:15:48Z</time>
      </trkpt>
      <trkpt lat="47.92672" lon="-3.99684">
        <ele>58</ele>
        <time>2022-11-12T11:15:49Z</time>
      </trkpt>
      <trkpt lat="47.92669" lon="-3.99678">
        <ele>58.1</ele>
        <time>2022-11-12T11:15:50Z</time>
      </trkpt>
      <trkpt lat="47.92666" lon="-3.99672">
        <ele>58.3</ele>
        <time>2022-11-12T11:15:51Z</time>
      </trkpt>
      <trkpt lat="47.92664" lon="-3.99666">
        <ele>58.5</ele>
        <time>2022-11-12T11:15:52Z</time>
      </trkpt>
      <trkpt lat="47.92662" lon="-3.9966">
        <ele>58.7</ele>
        <time>2022-11-12T11:15:53Z</time>
      </trkpt>
      <trkpt lat="47.92661" lon="-3.99658">
        <ele>58.8</ele>
        <time>2022-11-12T11:15:54Z</time>
      </trkpt>
      <trkpt lat="47.92658" lon="-3.9965">
        <ele>59.2</ele>
        <time>2022-11-12T11:15:56Z</time>
      </trkpt>
      <trkpt lat="47.92656" lon="-3.99643">
        <ele>59.5</ele>
        <time>2022-11-12T11:15:57Z</time>
      </trkpt>
      <trkpt lat="47.92653" lon="-3.99634">
        <ele>59.9</ele>
        <time>2022-11-12T11:15:58Z</time>
      </trkpt>
      <trkpt lat="47.92651" lon="-3.99629">
        <ele>60.1</ele>
        <time>2022-11-12T11:15:59Z</time>
      </trkpt>
      <trkpt lat="47.92649" lon="-3.99626">
        <ele>60.3</ele>
        <time>2022-11-12T11:16:00Z</time>
      </trkpt>
      <trkpt lat="47.92646" lon="-3.99624">
        <ele>60.4</ele>
        <time>2022-11-12T11:16:01Z</time>
      </trkpt>
      <trkpt lat="47.92642" lon="-3.99625">
        <ele>60.4</ele>
        <time>2022-11-12T11:16:02Z</time>
      </trkpt>
      <trkpt lat="47.92638" lon="-3.99626">
        <ele>60.4</ele>
        <time>2022-11-12T11:16:03Z</time>
      </trkpt>
      <trkpt lat="47.92633" lon="-3.99627">
        <ele>60.5</ele>
        <time>2022-11-12T11:16:04Z</time>
      </trkpt>
      <trkpt lat="47.92629" lon="-3.99627">
        <ele>60.5</ele>
        <time>2022-11-12T11:16:05Z</time>
      </trkpt>
      <trkpt lat="47.92625" lon="-3.99629">
        <ele>60.5</ele>
        <time>2022-11-12T11:16:06Z</time>
      </trkpt>
      <trkpt lat="47.9262" lon="-3.9963">
        <ele>60.5</ele>
        <time>2022-11-12T11:16:07Z</time>
      </trkpt>
      <trkpt lat="47.92615" lon="-3.99631">
        <ele>60.6</ele>
        <time>2022-11-12T11:16:08Z</time>
      </trkpt>
      <trkpt lat="47.92611" lon="-3.99632">
        <ele>60.6</ele>
        <time>2022-11-12T11:16:09Z</time>
      </trkpt>
      <trkpt lat="47.92606" lon="-3.99633">
        <ele>60.7</ele>
        <time>2022-11-12T11:16:10Z</time>
      </trkpt>
      <trkpt lat="47.92601" lon="-3.99633">
        <ele>60.7</ele>
        <time>2022-11-12T11:16:11Z</time>
      </trkpt>
      <trkpt lat="47.92595" lon="-3.99633">
        <ele>60.8</ele>
        <time>2022-11-12T11:16:12Z</time>
      </trkpt>
      <trkpt lat="47.9259" lon="-3.99634">
        <ele>60.8</ele>
        <time>2022-11-12T11:16:13Z</time>
      </trkpt>
      <trkpt lat="47.92585" lon="-3.99634">
        <ele>60.8</ele>
        <time>2022-11-12T11:16:14Z</time>
      </trkpt>
      <trkpt lat="47.9258" lon="-3.99634">
        <ele>60.8</ele>
        <time>2022-11-12T11:16:15Z</time>
      </trkpt>
      <trkpt lat="47.92575" lon="-3.99633">
        <ele>60.8</ele>
        <time>2022-11-12T11:16:16Z</time>
      </trkpt>
      <trkpt lat="47.9257" lon="-3.99633">
        <ele>60.7</ele>
        <time>2022-11-12T11:16:17Z</time>
      </trkpt>
      <trkpt lat="47.92565" lon="-3.99632">
        <ele>60.7</ele>
        <time>2022-11-12T11:16:18Z</time>
      </trkpt>
      <trkpt lat="47.9256" lon="-3.99631">
        <ele>60.6</ele>
        <time>2022-11-12T11:16:19Z</time>
      </trkpt>
      <trkpt lat="47.92554" lon="-3.99629">
        <ele>60.6</ele>
        <time>2022-11-12T11:16:20Z</time>
      </trkpt>
      <trkpt lat="47.92549" lon="-3.99627">
        <ele>60.5</ele>
        <time>2022-11-12T11:16:21Z</time>
      </trkpt>
      <trkpt lat="47.92543" lon="-3.99624">
        <ele>60.5</ele>
        <time>2022-11-12T11:16:22Z</time>
      </trkpt>
      <trkpt lat="47.92537" lon="-3.99621">
        <ele>60.5</ele>
        <time>2022-11-12T11:16:23Z</time>
      </trkpt>
      <trkpt lat="47.92532" lon="-3.99618">
        <ele>60.5</ele>
        <time>2022-11-12T11:16:24Z</time>
      </trkpt>
      <trkpt lat="47.92527" lon="-3.99614">
        <ele>60.4</ele>
        <time>2022-11-12T11:16:25Z</time>
      </trkpt>
      <trkpt lat="47.92522" lon="-3.9961">
        <ele>60.4</ele>
        <time>2022-11-12T11:16:26Z</time>
      </trkpt>
      <trkpt lat="47.92516" lon="-3.99605">
        <ele>60.4</ele>
        <time>2022-11-12T11:16:27Z</time>
      </trkpt>
      <trkpt lat="47.9251" lon="-3.996">
        <ele>60.4</ele>
        <time>2022-11-12T11:16:28Z</time>
      </trkpt>
      <trkpt lat="47.92506" lon="-3.99596">
        <ele>60.3</ele>
        <time>2022-11-12T11:16:29Z</time>
      </trkpt>
      <trkpt lat="47.925" lon="-3.99592">
        <ele>60.3</ele>
        <time>2022-11-12T11:16:30Z</time>
      </trkpt>
      <trkpt lat="47.92495" lon="-3.99586">
        <ele>60.3</ele>
        <time>2022-11-12T11:16:31Z</time>
      </trkpt>
      <trkpt lat="47.92491" lon="-3.99581">
        <ele>60.3</ele>
        <time>2022-11-12T11:16:32Z</time>
      </trkpt>
      <trkpt lat="47.92486" lon="-3.99578">
        <ele>60.3</ele>
        <time>2022-11-12T11:16:33Z</time>
      </trkpt>
      <trkpt lat="47.9248" lon="-3.99575">
        <ele>60.3</ele>
        <time>2022-11-12T11:16:34Z</time>
      </trkpt>
      <trkpt lat="47.92475" lon="-3.99572">
        <ele>60.2</ele>
        <time>2022-11-12T11:16:35Z</time>
      </trkpt>
      <trkpt lat="47.9247" lon="-3.99569">
        <ele>60.2</ele>
        <time>2022-11-12T11:16:36Z</time>
      </trkpt>
      <trkpt lat="47.92464" lon="-3.99566">
        <ele>60.2</ele>
        <time>2022-11-12T11:16:37Z</time>
      </trkpt>
      <trkpt lat="47.92459" lon="-3.99563">
        <ele>60.1</ele>
        <time>2022-11-12T11:16:38Z</time>
      </trkpt>
      <trkpt lat="47.92454" lon="-3.9956">
        <ele>60.1</ele>
        <time>2022-11-12T11:16:39Z</time>
      </trkpt>
      <trkpt lat="47.92448" lon="-3.99557">
        <ele>60</ele>
        <time>2022-11-12T11:16:40Z</time>
      </trkpt>
      <trkpt lat="47.92442" lon="-3.99553">
        <ele>60</ele>
        <time>2022-11-12T11:16:41Z</time>
      </trkpt>
      <trkpt lat="47.92436" lon="-3.9955">
        <ele>60</ele>
        <time>2022-11-12T11:16:42Z</time>
      </trkpt>
      <trkpt lat="47.92431" lon="-3.99547">
        <ele>60</ele>
        <time>2022-11-12T11:16:43Z</time>
      </trkpt>
      <trkpt lat="47.92425" lon="-3.99544">
        <ele>59.9</ele>
        <time>2022-11-12T11:16:44Z</time>
      </trkpt>
      <trkpt lat="47.92419" lon="-3.99541">
        <ele>59.9</ele>
        <time>2022-11-12T11:16:45Z</time>
      </trkpt>
      <trkpt lat="47.92413" lon="-3.99539">
        <ele>59.8</ele>
        <time>2022-11-12T11:16:46Z</time>
      </trkpt>
      <trkpt lat="47.92407" lon="-3.99535">
        <ele>59.7</ele>
        <time>2022-11-12T11:16:47Z</time>
      </trkpt>
      <trkpt lat="47.92401" lon="-3.99532">
        <ele>59.7</ele>
        <time>2022-11-12T11:16:48Z</time>
      </trkpt>
      <trkpt lat="47.92395" lon="-3.99529">
        <ele>59.6</ele>
        <time>2022-11-12T11:16:49Z</time>
      </trkpt>
      <trkpt lat="47.92389" lon="-3.99525">
        <ele>59.5</ele>
        <time>2022-11-12T11:16:50Z</time>
      </trkpt>
      <trkpt lat="47.92383" lon="-3.99522">
        <ele>59.4</ele>
        <time>2022-11-12T11:16:51Z</time>
      </trkpt>
      <trkpt lat="47.92377" lon="-3.99518">
        <ele>59.2</ele>
        <time>2022-11-12T11:16:52Z</time>
      </trkpt>
      <trkpt lat="47.92371" lon="-3.99515">
        <ele>59.1</ele>
        <time>2022-11-12T11:16:53Z</time>
      </trkpt>
      <trkpt lat="47.92365" lon="-3.99512">
        <ele>58.9</ele>
        <time>2022-11-12T11:16:54Z</time>
      </trkpt>
      <trkpt lat="47.92359" lon="-3.99508">
        <ele>58.8</ele>
        <time>2022-11-12T11:16:55Z</time>
      </trkpt>
      <trkpt lat="47.92353" lon="-3.99504">
        <ele>58.6</ele>
        <time>2022-11-12T11:16:56Z</time>
      </trkpt>
      <trkpt lat="47.92347" lon="-3.995">
        <ele>58.4</ele>
        <time>2022-11-12T11:16:57Z</time>
      </trkpt>
      <trkpt lat="47.9234" lon="-3.99496">
        <ele>58.2</ele>
        <time>2022-11-12T11:16:58Z</time>
      </trkpt>
      <trkpt lat="47.92334" lon="-3.99492">
        <ele>58</ele>
        <time>2022-11-12T11:16:59Z</time>
      </trkpt>
      <trkpt lat="47.92328" lon="-3.99488">
        <ele>57.7</ele>
        <time>2022-11-12T11:17:00Z</time>
      </trkpt>
      <trkpt lat="47.92321" lon="-3.99484">
        <ele>57.4</ele>
        <time>2022-11-12T11:17:01Z</time>
      </trkpt>
      <trkpt lat="47.92315" lon="-3.9948">
        <ele>57.1</ele>
        <time>2022-11-12T11:17:02Z</time>
      </trkpt>
      <trkpt lat="47.92308" lon="-3.99476">
        <ele>56.7</ele>
        <time>2022-11-12T11:17:03Z</time>
      </trkpt>
      <trkpt lat="47.92301" lon="-3.99471">
        <ele>56.3</ele>
        <time>2022-11-12T11:17:04Z</time>
      </trkpt>
      <trkpt lat="47.92295" lon="-3.99466">
        <ele>55.9</ele>
        <time>2022-11-12T11:17:05Z</time>
      </trkpt>
      <trkpt lat="47.92288" lon="-3.99461">
        <ele>55.5</ele>
        <time>2022-11-12T11:17:06Z</time>
      </trkpt>
      <trkpt lat="47.92282" lon="-3.99455">
        <ele>55.1</ele>
        <time>2022-11-12T11:17:07Z</time>
      </trkpt>
      <trkpt lat="47.92276" lon="-3.99448">
        <ele>54.7</ele>
        <time>2022-11-12T11:17:08Z</time>
      </trkpt>
      <trkpt lat="47.9227" lon="-3.9944">
        <ele>54.3</ele>
        <time>2022-11-12T11:17:09Z</time>
      </trkpt>
      <trkpt lat="47.92265" lon="-3.99431">
        <ele>53.9</ele>
        <time>2022-11-12T11:17:10Z</time>
      </trkpt>
      <trkpt lat="47.92259" lon="-3.99423">
        <ele>53.5</ele>
        <time>2022-11-12T11:17:11Z</time>
      </trkpt>
      <trkpt lat="47.92254" lon="-3.99414">
        <ele>53.1</ele>
        <time>2022-11-12T11:17:12Z</time>
      </trkpt>
      <trkpt lat="47.92248" lon="-3.99405">
        <ele>52.7</ele>
        <time>2022-11-12T11:17:13Z</time>
      </trkpt>
      <trkpt lat="47.92243" lon="-3.99396">
        <ele>52.2</ele>
        <time>2022-11-12T11:17:14Z</time>
      </trkpt>
      <trkpt lat="47.92237" lon="-3.99387">
        <ele>51.8</ele>
        <time>2022-11-12T11:17:15Z</time>
      </trkpt>
      <trkpt lat="47.92231" lon="-3.99377">
        <ele>51.4</ele>
        <time>2022-11-12T11:17:16Z</time>
      </trkpt>
      <trkpt lat="47.92225" lon="-3.99367">
        <ele>51</ele>
        <time>2022-11-12T11:17:17Z</time>
      </trkpt>
      <trkpt lat="47.92219" lon="-3.99357">
        <ele>50.6</ele>
        <time>2022-11-12T11:17:18Z</time>
      </trkpt>
      <trkpt lat="47.92214" lon="-3.99348">
        <ele>50.3</ele>
        <time>2022-11-12T11:17:19Z</time>
      </trkpt>
      <trkpt lat="47.92208" lon="-3.99339">
        <ele>50</ele>
        <time>2022-11-12T11:17:20Z</time>
      </trkpt>
      <trkpt lat="47.92201" lon="-3.9933">
        <ele>49.8</ele>
        <time>2022-11-12T11:17:21Z</time>
      </trkpt>
      <trkpt lat="47.92195" lon="-3.99321">
        <ele>49.5</ele>
        <time>2022-11-12T11:17:22Z</time>
      </trkpt>
      <trkpt lat="47.92188" lon="-3.99312">
        <ele>49.2</ele>
        <time>2022-11-12T11:17:23Z</time>
      </trkpt>
      <trkpt lat="47.92182" lon="-3.99304">
        <ele>49</ele>
        <time>2022-11-12T11:17:24Z</time>
      </trkpt>
      <trkpt lat="47.92176" lon="-3.99295">
        <ele>48.8</ele>
        <time>2022-11-12T11:17:25Z</time>
      </trkpt>
      <trkpt lat="47.9217" lon="-3.99288">
        <ele>48.7</ele>
        <time>2022-11-12T11:17:26Z</time>
      </trkpt>
      <trkpt lat="47.92163" lon="-3.99281">
        <ele>48.7</ele>
        <time>2022-11-12T11:17:27Z</time>
      </trkpt>
      <trkpt lat="47.92156" lon="-3.99274">
        <ele>48.7</ele>
        <time>2022-11-12T11:17:28Z</time>
      </trkpt>
      <trkpt lat="47.9215" lon="-3.99269">
        <ele>48.9</ele>
        <time>2022-11-12T11:17:29Z</time>
      </trkpt>
      <trkpt lat="47.92142" lon="-3.99266">
        <ele>49.1</ele>
        <time>2022-11-12T11:17:30Z</time>
      </trkpt>
      <trkpt lat="47.92135" lon="-3.99262">
        <ele>49.3</ele>
        <time>2022-11-12T11:17:31Z</time>
      </trkpt>
      <trkpt lat="47.92129" lon="-3.99259">
        <ele>49.5</ele>
        <time>2022-11-12T11:17:32Z</time>
      </trkpt>
      <trkpt lat="47.92122" lon="-3.99257">
        <ele>49.8</ele>
        <time>2022-11-12T11:17:33Z</time>
      </trkpt>
      <trkpt lat="47.92115" lon="-3.99256">
        <ele>50.1</ele>
        <time>2022-11-12T11:17:34Z</time>
      </trkpt>
      <trkpt lat="47.92108" lon="-3.99254">
        <ele>50.4</ele>
        <time>2022-11-12T11:17:35Z</time>
      </trkpt>
      <trkpt lat="47.92101" lon="-3.99252">
        <ele>50.7</ele>
        <time>2022-11-12T11:17:36Z</time>
      </trkpt>
      <trkpt lat="47.92095" lon="-3.9925">
        <ele>50.9</ele>
        <time>2022-11-12T11:17:37Z</time>
      </trkpt>
      <trkpt lat="47.92089" lon="-3.99249">
        <ele>51.1</ele>
        <time>2022-11-12T11:17:38Z</time>
      </trkpt>
      <trkpt lat="47.92083" lon="-3.99248">
        <ele>51.3</ele>
        <time>2022-11-12T11:17:39Z</time>
      </trkpt>
      <trkpt lat="47.92077" lon="-3.99247">
        <ele>51.4</ele>
        <time>2022-11-12T11:17:40Z</time>
      </trkpt>
      <trkpt lat="47.92071" lon="-3.99246">
        <ele>51.6</ele>
        <time>2022-11-12T11:17:41Z</time>
      </trkpt>
      <trkpt lat="47.92065" lon="-3.99245">
        <ele>51.8</ele>
        <time>2022-11-12T11:17:42Z</time>
      </trkpt>
      <trkpt lat="47.92059" lon="-3.99245">
        <ele>51.9</ele>
        <time>2022-11-12T11:17:43Z</time>
      </trkpt>
      <trkpt lat="47.92053" lon="-3.99244">
        <ele>52</ele>
        <time>2022-11-12T11:17:44Z</time>
      </trkpt>
      <trkpt lat="47.92047" lon="-3.99243">
        <ele>52.1</ele>
        <time>2022-11-12T11:17:45Z</time>
      </trkpt>
      <trkpt lat="47.92041" lon="-3.99242">
        <ele>52.2</ele>
        <time>2022-11-12T11:17:46Z</time>
      </trkpt>
      <trkpt lat="47.92035" lon="-3.99241">
        <ele>52.4</ele>
        <time>2022-11-12T11:17:47Z</time>
      </trkpt>
      <trkpt lat="47.92029" lon="-3.99239">
        <ele>52.5</ele>
        <time>2022-11-12T11:17:48Z</time>
      </trkpt>
      <trkpt lat="47.92024" lon="-3.99238">
        <ele>52.5</ele>
        <time>2022-11-12T11:17:49Z</time>
      </trkpt>
      <trkpt lat="47.92018" lon="-3.99238">
        <ele>52.6</ele>
        <time>2022-11-12T11:17:50Z</time>
      </trkpt>
      <trkpt lat="47.92013" lon="-3.99237">
        <ele>52.6</ele>
        <time>2022-11-12T11:17:51Z</time>
      </trkpt>
      <trkpt lat="47.92007" lon="-3.99236">
        <ele>52.6</ele>
        <time>2022-11-12T11:17:52Z</time>
      </trkpt>
      <trkpt lat="47.92002" lon="-3.99235">
        <ele>52.5</ele>
        <time>2022-11-12T11:17:53Z</time>
      </trkpt>
      <trkpt lat="47.91996" lon="-3.99234">
        <ele>52.5</ele>
        <time>2022-11-12T11:17:54Z</time>
      </trkpt>
      <trkpt lat="47.9199" lon="-3.99233">
        <ele>52.4</ele>
        <time>2022-11-12T11:17:55Z</time>
      </trkpt>
      <trkpt lat="47.91984" lon="-3.99232">
        <ele>52.3</ele>
        <time>2022-11-12T11:17:56Z</time>
      </trkpt>
      <trkpt lat="47.91978" lon="-3.9923">
        <ele>52.2</ele>
        <time>2022-11-12T11:17:57Z</time>
      </trkpt>
      <trkpt lat="47.91971" lon="-3.99229">
        <ele>52.1</ele>
        <time>2022-11-12T11:17:58Z</time>
      </trkpt>
      <trkpt lat="47.91965" lon="-3.99228">
        <ele>52</ele>
        <time>2022-11-12T11:17:59Z</time>
      </trkpt>
      <trkpt lat="47.91959" lon="-3.99226">
        <ele>52</ele>
        <time>2022-11-12T11:18:00Z</time>
      </trkpt>
      <trkpt lat="47.91952" lon="-3.99226">
        <ele>51.9</ele>
        <time>2022-11-12T11:18:01Z</time>
      </trkpt>
      <trkpt lat="47.91945" lon="-3.99224">
        <ele>51.8</ele>
        <time>2022-11-12T11:18:02Z</time>
      </trkpt>
      <trkpt lat="47.91939" lon="-3.99223">
        <ele>51.7</ele>
        <time>2022-11-12T11:18:03Z</time>
      </trkpt>
      <trkpt lat="47.91932" lon="-3.99222">
        <ele>51.7</ele>
        <time>2022-11-12T11:18:04Z</time>
      </trkpt>
      <trkpt lat="47.91926" lon="-3.9922">
        <ele>51.6</ele>
        <time>2022-11-12T11:18:05Z</time>
      </trkpt>
      <trkpt lat="47.91919" lon="-3.99219">
        <ele>51.6</ele>
        <time>2022-11-12T11:18:06Z</time>
      </trkpt>
      <trkpt lat="47.91913" lon="-3.99218">
        <ele>51.5</ele>
        <time>2022-11-12T11:18:07Z</time>
      </trkpt>
      <trkpt lat="47.91906" lon="-3.99216">
        <ele>51.4</ele>
        <time>2022-11-12T11:18:08Z</time>
      </trkpt>
      <trkpt lat="47.91899" lon="-3.99215">
        <ele>51.4</ele>
        <time>2022-11-12T11:18:09Z</time>
      </trkpt>
      <trkpt lat="47.91892" lon="-3.99215">
        <ele>51.3</ele>
        <time>2022-11-12T11:18:10Z</time>
      </trkpt>
      <trkpt lat="47.91886" lon="-3.99214">
        <ele>51.2</ele>
        <time>2022-11-12T11:18:11Z</time>
      </trkpt>
      <trkpt lat="47.91879" lon="-3.99213">
        <ele>51</ele>
        <time>2022-11-12T11:18:12Z</time>
      </trkpt>
      <trkpt lat="47.91872" lon="-3.99211">
        <ele>50.9</ele>
        <time>2022-11-12T11:18:13Z</time>
      </trkpt>
      <trkpt lat="47.91866" lon="-3.99208">
        <ele>50.7</ele>
        <time>2022-11-12T11:18:14Z</time>
      </trkpt>
      <trkpt lat="47.91859" lon="-3.99205">
        <ele>50.4</ele>
        <time>2022-11-12T11:18:15Z</time>
      </trkpt>
      <trkpt lat="47.91852" lon="-3.99202">
        <ele>50.2</ele>
        <time>2022-11-12T11:18:16Z</time>
      </trkpt>
      <trkpt lat="47.91846" lon="-3.99199">
        <ele>49.9</ele>
        <time>2022-11-12T11:18:17Z</time>
      </trkpt>
      <trkpt lat="47.91838" lon="-3.99197">
        <ele>49.5</ele>
        <time>2022-11-12T11:18:18Z</time>
      </trkpt>
      <trkpt lat="47.91831" lon="-3.99195">
        <ele>49.2</ele>
        <time>2022-11-12T11:18:19Z</time>
      </trkpt>
      <trkpt lat="47.91824" lon="-3.99192">
        <ele>48.8</ele>
        <time>2022-11-12T11:18:20Z</time>
      </trkpt>
      <trkpt lat="47.91816" lon="-3.99189">
        <ele>48.3</ele>
        <time>2022-11-12T11:18:21Z</time>
      </trkpt>
      <trkpt lat="47.91808" lon="-3.99186">
        <ele>47.9</ele>
        <time>2022-11-12T11:18:22Z</time>
      </trkpt>
      <trkpt lat="47.918" lon="-3.99183">
        <ele>47.5</ele>
        <time>2022-11-12T11:18:23Z</time>
      </trkpt>
      <trkpt lat="47.91792" lon="-3.9918">
        <ele>47.2</ele>
        <time>2022-11-12T11:18:24Z</time>
      </trkpt>
      <trkpt lat="47.91784" lon="-3.99177">
        <ele>46.9</ele>
        <time>2022-11-12T11:18:25Z</time>
      </trkpt>
      <trkpt lat="47.91776" lon="-3.99174">
        <ele>46.7</ele>
        <time>2022-11-12T11:18:26Z</time>
      </trkpt>
      <trkpt lat="47.91768" lon="-3.9917">
        <ele>46.6</ele>
        <time>2022-11-12T11:18:27Z</time>
      </trkpt>
      <trkpt lat="47.91761" lon="-3.99166">
        <ele>46.5</ele>
        <time>2022-11-12T11:18:28Z</time>
      </trkpt>
      <trkpt lat="47.91753" lon="-3.99161">
        <ele>46.5</ele>
        <time>2022-11-12T11:18:29Z</time>
      </trkpt>
      <trkpt lat="47.91746" lon="-3.99156">
        <ele>46.5</ele>
        <time>2022-11-12T11:18:30Z</time>
      </trkpt>
      <trkpt lat="47.91739" lon="-3.99152">
        <ele>46.6</ele>
        <time>2022-11-12T11:18:31Z</time>
      </trkpt>
      <trkpt lat="47.91733" lon="-3.99147">
        <ele>46.6</ele>
        <time>2022-11-12T11:18:32Z</time>
      </trkpt>
      <trkpt lat="47.91726" lon="-3.99143">
        <ele>46.7</ele>
        <time>2022-11-12T11:18:33Z</time>
      </trkpt>
      <trkpt lat="47.9172" lon="-3.99138">
        <ele>46.8</ele>
        <time>2022-11-12T11:18:34Z</time>
      </trkpt>
      <trkpt lat="47.91714" lon="-3.99132">
        <ele>46.9</ele>
        <time>2022-11-12T11:18:35Z</time>
      </trkpt>
      <trkpt lat="47.91708" lon="-3.99127">
        <ele>47</ele>
        <time>2022-11-12T11:18:36Z</time>
      </trkpt>
      <trkpt lat="47.91703" lon="-3.99122">
        <ele>47</ele>
        <time>2022-11-12T11:18:37Z</time>
      </trkpt>
      <trkpt lat="47.91697" lon="-3.99117">
        <ele>47.1</ele>
        <time>2022-11-12T11:18:38Z</time>
      </trkpt>
      <trkpt lat="47.91692" lon="-3.99112">
        <ele>47.2</ele>
        <time>2022-11-12T11:18:39Z</time>
      </trkpt>
      <trkpt lat="47.91687" lon="-3.99106">
        <ele>47.2</ele>
        <time>2022-11-12T11:18:40Z</time>
      </trkpt>
      <trkpt lat="47.91681" lon="-3.99101">
        <ele>47.2</ele>
        <time>2022-11-12T11:18:41Z</time>
      </trkpt>
      <trkpt lat="47.91677" lon="-3.99095">
        <ele>47.1</ele>
        <time>2022-11-12T11:18:42Z</time>
      </trkpt>
      <trkpt lat="47.91672" lon="-3.99089">
        <ele>47.1</ele>
        <time>2022-11-12T11:18:43Z</time>
      </trkpt>
      <trkpt lat="47.91667" lon="-3.99083">
        <ele>46.9</ele>
        <time>2022-11-12T11:18:44Z</time>
      </trkpt>
      <trkpt lat="47.91662" lon="-3.99076">
        <ele>46.7</ele>
        <time>2022-11-12T11:18:45Z</time>
      </trkpt>
      <trkpt lat="47.91658" lon="-3.99068">
        <ele>46.6</ele>
        <time>2022-11-12T11:18:46Z</time>
      </trkpt>
      <trkpt lat="47.91652" lon="-3.99062">
        <ele>46.4</ele>
        <time>2022-11-12T11:18:47Z</time>
      </trkpt>
      <trkpt lat="47.91647" lon="-3.99055">
        <ele>46.3</ele>
        <time>2022-11-12T11:18:48Z</time>
      </trkpt>
      <trkpt lat="47.91642" lon="-3.99048">
        <ele>46.2</ele>
        <time>2022-11-12T11:18:49Z</time>
      </trkpt>
      <trkpt lat="47.91637" lon="-3.99041">
        <ele>46.1</ele>
        <time>2022-11-12T11:18:50Z</time>
      </trkpt>
      <trkpt lat="47.91632" lon="-3.99035">
        <ele>46.1</ele>
        <time>2022-11-12T11:18:51Z</time>
      </trkpt>
      <trkpt lat="47.91627" lon="-3.99028">
        <ele>46.1</ele>
        <time>2022-11-12T11:18:52Z</time>
      </trkpt>
      <trkpt lat="47.91622" lon="-3.99022">
        <ele>46.1</ele>
        <time>2022-11-12T11:18:53Z</time>
      </trkpt>
      <trkpt lat="47.91616" lon="-3.99016">
        <ele>46.1</ele>
        <time>2022-11-12T11:18:54Z</time>
      </trkpt>
      <trkpt lat="47.9161" lon="-3.99011">
        <ele>46.2</ele>
        <time>2022-11-12T11:18:55Z</time>
      </trkpt>
      <trkpt lat="47.91605" lon="-3.99005">
        <ele>46.3</ele>
        <time>2022-11-12T11:18:56Z</time>
      </trkpt>
      <trkpt lat="47.91601" lon="-3.98998">
        <ele>46.3</ele>
        <time>2022-11-12T11:18:57Z</time>
      </trkpt>
      <trkpt lat="47.91601" lon="-3.98989">
        <ele>46.8</ele>
        <time>2022-11-12T11:18:58Z</time>
      </trkpt>
      <trkpt lat="47.91603" lon="-3.98982">
        <ele>47</ele>
        <time>2022-11-12T11:18:59Z</time>
      </trkpt>
      <trkpt lat="47.91607" lon="-3.98976">
        <ele>47.2</ele>
        <time>2022-11-12T11:19:00Z</time>
      </trkpt>
      <trkpt lat="47.9161" lon="-3.98971">
        <ele>47.4</ele>
        <time>2022-11-12T11:19:01Z</time>
      </trkpt>
      <trkpt lat="47.91613" lon="-3.98966">
        <ele>47.5</ele>
        <time>2022-11-12T11:19:02Z</time>
      </trkpt>
      <trkpt lat="47.91615" lon="-3.98963">
        <ele>47.6</ele>
        <time>2022-11-12T11:19:03Z</time>
      </trkpt>
      <trkpt lat="47.91618" lon="-3.98958">
        <ele>47.8</ele>
        <time>2022-11-12T11:19:04Z</time>
      </trkpt>
      <trkpt lat="47.91622" lon="-3.98952">
        <ele>48</ele>
        <time>2022-11-12T11:19:05Z</time>
      </trkpt>
      <trkpt lat="47.91625" lon="-3.98946">
        <ele>48.1</ele>
        <time>2022-11-12T11:19:06Z</time>
      </trkpt>
      <trkpt lat="47.91628" lon="-3.98941">
        <ele>48.3</ele>
        <time>2022-11-12T11:19:07Z</time>
      </trkpt>
      <trkpt lat="47.91631" lon="-3.98936">
        <ele>48.4</ele>
        <time>2022-11-12T11:19:08Z</time>
      </trkpt>
      <trkpt lat="47.91635" lon="-3.98931">
        <ele>48.6</ele>
        <time>2022-11-12T11:19:09Z</time>
      </trkpt>
      <trkpt lat="47.91637" lon="-3.98925">
        <ele>48.7</ele>
        <time>2022-11-12T11:19:10Z</time>
      </trkpt>
      <trkpt lat="47.9164" lon="-3.9892">
        <ele>48.9</ele>
        <time>2022-11-12T11:19:11Z</time>
      </trkpt>
      <trkpt lat="47.91643" lon="-3.98915">
        <ele>49.1</ele>
        <time>2022-11-12T11:19:12Z</time>
      </trkpt>
      <trkpt lat="47.91646" lon="-3.98909">
        <ele>49.4</ele>
        <time>2022-11-12T11:19:13Z</time>
      </trkpt>
      <trkpt lat="47.9165" lon="-3.98904">
        <ele>49.6</ele>
        <time>2022-11-12T11:19:14Z</time>
      </trkpt>
      <trkpt lat="47.91653" lon="-3.98899">
        <ele>49.8</ele>
        <time>2022-11-12T11:19:15Z</time>
      </trkpt>
      <trkpt lat="47.91656" lon="-3.98894">
        <ele>50.1</ele>
        <time>2022-11-12T11:19:16Z</time>
      </trkpt>
      <trkpt lat="47.91659" lon="-3.98888">
        <ele>50.4</ele>
        <time>2022-11-12T11:19:17Z</time>
      </trkpt>
      <trkpt lat="47.91662" lon="-3.98882">
        <ele>50.7</ele>
        <time>2022-11-12T11:19:18Z</time>
      </trkpt>
      <trkpt lat="47.91665" lon="-3.98876">
        <ele>51</ele>
        <time>2022-11-12T11:19:19Z</time>
      </trkpt>
      <trkpt lat="47.91668" lon="-3.9887">
        <ele>51.2</ele>
        <time>2022-11-12T11:19:20Z</time>
      </trkpt>
      <trkpt lat="47.91671" lon="-3.98865">
        <ele>51.5</ele>
        <time>2022-11-12T11:19:21Z</time>
      </trkpt>
      <trkpt lat="47.91674" lon="-3.98859">
        <ele>51.8</ele>
        <time>2022-11-12T11:19:22Z</time>
      </trkpt>
      <trkpt lat="47.91677" lon="-3.98853">
        <ele>52.1</ele>
        <time>2022-11-12T11:19:23Z</time>
      </trkpt>
      <trkpt lat="47.91679" lon="-3.98848">
        <ele>52.3</ele>
        <time>2022-11-12T11:19:24Z</time>
      </trkpt>
      <trkpt lat="47.91682" lon="-3.98842">
        <ele>52.6</ele>
        <time>2022-11-12T11:19:25Z</time>
      </trkpt>
      <trkpt lat="47.91685" lon="-3.98837">
        <ele>52.9</ele>
        <time>2022-11-12T11:19:26Z</time>
      </trkpt>
      <trkpt lat="47.91687" lon="-3.9883">
        <ele>53.1</ele>
        <time>2022-11-12T11:19:27Z</time>
      </trkpt>
      <trkpt lat="47.91689" lon="-3.98827">
        <ele>53.2</ele>
        <time>2022-11-12T11:19:28Z</time>
      </trkpt>
      <trkpt lat="47.9169" lon="-3.98821">
        <ele>53.4</ele>
        <time>2022-11-12T11:19:29Z</time>
      </trkpt>
      <trkpt lat="47.91692" lon="-3.98815">
        <ele>53.7</ele>
        <time>2022-11-12T11:19:30Z</time>
      </trkpt>
      <trkpt lat="47.91695" lon="-3.9881">
        <ele>53.9</ele>
        <time>2022-11-12T11:19:31Z</time>
      </trkpt>
      <trkpt lat="47.91698" lon="-3.98803">
        <ele>54.1</ele>
        <time>2022-11-12T11:19:32Z</time>
      </trkpt>
      <trkpt lat="47.917" lon="-3.98797">
        <ele>54.3</ele>
        <time>2022-11-12T11:19:33Z</time>
      </trkpt>
      <trkpt lat="47.91701" lon="-3.98795">
        <ele>54.3</ele>
        <time>2022-11-12T11:19:34Z</time>
      </trkpt>
      <trkpt lat="47.91705" lon="-3.98789">
        <ele>54.5</ele>
        <time>2022-11-12T11:19:36Z</time>
      </trkpt>
      <trkpt lat="47.91708" lon="-3.98782">
        <ele>54.6</ele>
        <time>2022-11-12T11:19:37Z</time>
      </trkpt>
      <trkpt lat="47.9171" lon="-3.98778">
        <ele>54.7</ele>
        <time>2022-11-12T11:19:38Z</time>
      </trkpt>
      <trkpt lat="47.91713" lon="-3.98769">
        <ele>54.8</ele>
        <time>2022-11-12T11:19:39Z</time>
      </trkpt>
      <trkpt lat="47.91717" lon="-3.98762">
        <ele>54.8</ele>
        <time>2022-11-12T11:19:40Z</time>
      </trkpt>
      <trkpt lat="47.9172" lon="-3.98757">
        <ele>54.8</ele>
        <time>2022-11-12T11:19:41Z</time>
      </trkpt>
      <trkpt lat="47.91722" lon="-3.98752">
        <ele>54.8</ele>
        <time>2022-11-12T11:19:42Z</time>
      </trkpt>
      <trkpt lat="47.91726" lon="-3.98747">
        <ele>54.9</ele>
        <time>2022-11-12T11:19:43Z</time>
      </trkpt>
      <trkpt lat="47.91728" lon="-3.98744">
        <ele>54.9</ele>
        <time>2022-11-12T11:19:44Z</time>
      </trkpt>
      <trkpt lat="47.91732" lon="-3.98738">
        <ele>54.9</ele>
        <time>2022-11-12T11:19:45Z</time>
      </trkpt>
      <trkpt lat="47.91735" lon="-3.98733">
        <ele>54.9</ele>
        <time>2022-11-12T11:19:46Z</time>
      </trkpt>
      <trkpt lat="47.91739" lon="-3.98728">
        <ele>54.9</ele>
        <time>2022-11-12T11:19:47Z</time>
      </trkpt>
      <trkpt lat="47.91743" lon="-3.98723">
        <ele>54.9</ele>
        <time>2022-11-12T11:19:48Z</time>
      </trkpt>
      <trkpt lat="47.91747" lon="-3.98718">
        <ele>54.9</ele>
        <time>2022-11-12T11:19:49Z</time>
      </trkpt>
      <trkpt lat="47.91751" lon="-3.98712">
        <ele>54.9</ele>
        <time>2022-11-12T11:19:50Z</time>
      </trkpt>
      <trkpt lat="47.91755" lon="-3.98706">
        <ele>54.9</ele>
        <time>2022-11-12T11:19:51Z</time>
      </trkpt>
      <trkpt lat="47.9176" lon="-3.987">
        <ele>55</ele>
        <time>2022-11-12T11:19:52Z</time>
      </trkpt>
      <trkpt lat="47.91763" lon="-3.98694">
        <ele>55.1</ele>
        <time>2022-11-12T11:19:53Z</time>
      </trkpt>
      <trkpt lat="47.91767" lon="-3.98688">
        <ele>55.1</ele>
        <time>2022-11-12T11:19:54Z</time>
      </trkpt>
      <trkpt lat="47.9177" lon="-3.98681">
        <ele>55.3</ele>
        <time>2022-11-12T11:19:55Z</time>
      </trkpt>
      <trkpt lat="47.91773" lon="-3.98675">
        <ele>55.4</ele>
        <time>2022-11-12T11:19:56Z</time>
      </trkpt>
      <trkpt lat="47.91777" lon="-3.98669">
        <ele>55.5</ele>
        <time>2022-11-12T11:19:57Z</time>
      </trkpt>
      <trkpt lat="47.9178" lon="-3.98664">
        <ele>55.7</ele>
        <time>2022-11-12T11:19:58Z</time>
      </trkpt>
      <trkpt lat="47.91784" lon="-3.9866">
        <ele>55.9</ele>
        <time>2022-11-12T11:19:59Z</time>
      </trkpt>
      <trkpt lat="47.91788" lon="-3.98656">
        <ele>56.1</ele>
        <time>2022-11-12T11:20:00Z</time>
      </trkpt>
      <trkpt lat="47.9179" lon="-3.98654">
        <ele>56.2</ele>
        <time>2022-11-12T11:20:01Z</time>
      </trkpt>
      <trkpt lat="47.91794" lon="-3.9865">
        <ele>56.4</ele>
        <time>2022-11-12T11:20:02Z</time>
      </trkpt>
      <trkpt lat="47.91797" lon="-3.98647">
        <ele>56.5</ele>
        <time>2022-11-12T11:20:03Z</time>
      </trkpt>
      <trkpt lat="47.918" lon="-3.98642">
        <ele>56.7</ele>
        <time>2022-11-12T11:20:04Z</time>
      </trkpt>
      <trkpt lat="47.91803" lon="-3.98638">
        <ele>56.8</ele>
        <time>2022-11-12T11:20:05Z</time>
      </trkpt>
      <trkpt lat="47.91806" lon="-3.98634">
        <ele>56.9</ele>
        <time>2022-11-12T11:20:06Z</time>
      </trkpt>
      <trkpt lat="47.91807" lon="-3.98633">
        <ele>56.9</ele>
        <time>2022-11-12T11:20:07Z</time>
      </trkpt>
      <trkpt lat="47.91811" lon="-3.98625">
        <ele>57</ele>
        <time>2022-11-12T11:20:09Z</time>
      </trkpt>
      <trkpt lat="47.91815" lon="-3.98625">
        <ele>57.1</ele>
        <time>2022-11-12T11:20:10Z</time>
      </trkpt>
      <trkpt lat="47.91818" lon="-3.98626">
        <ele>57.1</ele>
        <time>2022-11-12T11:20:11Z</time>
      </trkpt>
      <trkpt lat="47.91822" lon="-3.98628">
        <ele>57.2</ele>
        <time>2022-11-12T11:20:12Z</time>
      </trkpt>
      <trkpt lat="47.91828" lon="-3.9863">
        <ele>57.3</ele>
        <time>2022-11-12T11:20:13Z</time>
      </trkpt>
      <trkpt lat="47.91834" lon="-3.98632">
        <ele>57.3</ele>
        <time>2022-11-12T11:20:14Z</time>
      </trkpt>
      <trkpt lat="47.91839" lon="-3.98631">
        <ele>57.4</ele>
        <time>2022-11-12T11:20:15Z</time>
      </trkpt>
      <trkpt lat="47.91845" lon="-3.98628">
        <ele>57</ele>
        <time>2022-11-12T11:20:16Z</time>
      </trkpt>
      <trkpt lat="47.91849" lon="-3.98622">
        <ele>56.8</ele>
        <time>2022-11-12T11:20:17Z</time>
      </trkpt>
      <trkpt lat="47.91853" lon="-3.98615">
        <ele>56.5</ele>
        <time>2022-11-12T11:20:18Z</time>
      </trkpt>
      <trkpt lat="47.91856" lon="-3.98608">
        <ele>56.2</ele>
        <time>2022-11-12T11:20:19Z</time>
      </trkpt>
      <trkpt lat="47.91859" lon="-3.98601">
        <ele>55.9</ele>
        <time>2022-11-12T11:20:20Z</time>
      </trkpt>
      <trkpt lat="47.91863" lon="-3.98594">
        <ele>55.5</ele>
        <time>2022-11-12T11:20:21Z</time>
      </trkpt>
      <trkpt lat="47.91868" lon="-3.98587">
        <ele>55</ele>
        <time>2022-11-12T11:20:22Z</time>
      </trkpt>
      <trkpt lat="47.91874" lon="-3.98579">
        <ele>54.5</ele>
        <time>2022-11-12T11:20:23Z</time>
      </trkpt>
      <trkpt lat="47.91879" lon="-3.98571">
        <ele>54.5</ele>
        <time>2022-11-12T11:20:24Z</time>
      </trkpt>
      <trkpt lat="47.91885" lon="-3.98562">
        <ele>54.4</ele>
        <time>2022-11-12T11:20:25Z</time>
      </trkpt>
      <trkpt lat="47.9189" lon="-3.98553">
        <ele>54.3</ele>
        <time>2022-11-12T11:20:26Z</time>
      </trkpt>
      <trkpt lat="47.91896" lon="-3.98544">
        <ele>54.1</ele>
        <time>2022-11-12T11:20:27Z</time>
      </trkpt>
      <trkpt lat="47.91901" lon="-3.98534">
        <ele>53.9</ele>
        <time>2022-11-12T11:20:28Z</time>
      </trkpt>
      <trkpt lat="47.91907" lon="-3.98524">
        <ele>53.7</ele>
        <time>2022-11-12T11:20:29Z</time>
      </trkpt>
      <trkpt lat="47.91913" lon="-3.98514">
        <ele>53.4</ele>
        <time>2022-11-12T11:20:30Z</time>
      </trkpt>
      <trkpt lat="47.91919" lon="-3.98504">
        <ele>53.1</ele>
        <time>2022-11-12T11:20:31Z</time>
      </trkpt>
      <trkpt lat="47.91924" lon="-3.98494">
        <ele>52.7</ele>
        <time>2022-11-12T11:20:32Z</time>
      </trkpt>
      <trkpt lat="47.9193" lon="-3.98484">
        <ele>52.3</ele>
        <time>2022-11-12T11:20:33Z</time>
      </trkpt>
      <trkpt lat="47.91935" lon="-3.98473">
        <ele>51.9</ele>
        <time>2022-11-12T11:20:34Z</time>
      </trkpt>
      <trkpt lat="47.9194" lon="-3.98463">
        <ele>51.3</ele>
        <time>2022-11-12T11:20:35Z</time>
      </trkpt>
      <trkpt lat="47.91945" lon="-3.98452">
        <ele>50.7</ele>
        <time>2022-11-12T11:20:36Z</time>
      </trkpt>
      <trkpt lat="47.9195" lon="-3.98442">
        <ele>50.1</ele>
        <time>2022-11-12T11:20:37Z</time>
      </trkpt>
      <trkpt lat="47.91956" lon="-3.98433">
        <ele>49.6</ele>
        <time>2022-11-12T11:20:38Z</time>
      </trkpt>
      <trkpt lat="47.91961" lon="-3.98424">
        <ele>49.3</ele>
        <time>2022-11-12T11:20:39Z</time>
      </trkpt>
      <trkpt lat="47.91966" lon="-3.98414">
        <ele>49.1</ele>
        <time>2022-11-12T11:20:40Z</time>
      </trkpt>
      <trkpt lat="47.9197" lon="-3.98404">
        <ele>48.9</ele>
        <time>2022-11-12T11:20:41Z</time>
      </trkpt>
      <trkpt lat="47.91974" lon="-3.98393">
        <ele>48.7</ele>
        <time>2022-11-12T11:20:42Z</time>
      </trkpt>
      <trkpt lat="47.91977" lon="-3.98383">
        <ele>48.5</ele>
        <time>2022-11-12T11:20:43Z</time>
      </trkpt>
      <trkpt lat="47.91979" lon="-3.98374">
        <ele>48.5</ele>
        <time>2022-11-12T11:20:44Z</time>
      </trkpt>
      <trkpt lat="47.9198" lon="-3.98368">
        <ele>48.5</ele>
        <time>2022-11-12T11:20:45Z</time>
      </trkpt>
      <trkpt lat="47.9198" lon="-3.98364">
        <ele>48.4</ele>
        <time>2022-11-12T11:20:46Z</time>
      </trkpt>
      <trkpt lat="47.91979" lon="-3.98357">
        <ele>48.3</ele>
        <time>2022-11-12T11:20:47Z</time>
      </trkpt>
      <trkpt lat="47.91979" lon="-3.98355">
        <ele>48.2</ele>
        <time>2022-11-12T11:20:48Z</time>
      </trkpt>
      <trkpt lat="47.91979" lon="-3.98348">
        <ele>48.1</ele>
        <time>2022-11-12T11:20:49Z</time>
      </trkpt>
      <trkpt lat="47.91979" lon="-3.98345">
        <ele>48</ele>
        <time>2022-11-12T11:20:50Z</time>
      </trkpt>
      <trkpt lat="47.91978" lon="-3.9834">
        <ele>47.9</ele>
        <time>2022-11-12T11:20:51Z</time>
      </trkpt>
      <trkpt lat="47.91977" lon="-3.98331">
        <ele>47.8</ele>
        <time>2022-11-12T11:20:52Z</time>
      </trkpt>
      <trkpt lat="47.91977" lon="-3.98325">
        <ele>47.7</ele>
        <time>2022-11-12T11:20:53Z</time>
      </trkpt>
      <trkpt lat="47.91976" lon="-3.98322">
        <ele>47.6</ele>
        <time>2022-11-12T11:20:54Z</time>
      </trkpt>
      <trkpt lat="47.91976" lon="-3.98319">
        <ele>47.5</ele>
        <time>2022-11-12T11:20:55Z</time>
      </trkpt>
      <trkpt lat="47.91975" lon="-3.98312">
        <ele>47.3</ele>
        <time>2022-11-12T11:20:56Z</time>
      </trkpt>
      <trkpt lat="47.91974" lon="-3.98308">
        <ele>47.2</ele>
        <time>2022-11-12T11:20:57Z</time>
      </trkpt>
      <trkpt lat="47.91973" lon="-3.98306">
        <ele>47.1</ele>
        <time>2022-11-12T11:20:58Z</time>
      </trkpt>
      <trkpt lat="47.91973" lon="-3.98304">
        <ele>47.1</ele>
        <time>2022-11-12T11:20:59Z</time>
      </trkpt>
      <trkpt lat="47.91973" lon="-3.98302">
        <ele>47</ele>
        <time>2022-11-12T11:21:00Z</time>
      </trkpt>
      <trkpt lat="47.91973" lon="-3.983">
        <ele>46.9</ele>
        <time>2022-11-12T11:21:01Z</time>
      </trkpt>
      <trkpt lat="47.91973" lon="-3.983">
        <ele>46.9</ele>
        <time>2022-11-12T11:21:02Z</time>
      </trkpt>
      <trkpt lat="47.91974" lon="-3.98299">
        <ele>46.9</ele>
        <time>2022-11-12T11:21:03Z</time>
      </trkpt>
      <trkpt lat="47.91974" lon="-3.98298">
        <ele>46.8</ele>
        <time>2022-11-12T11:21:04Z</time>
      </trkpt>
      <trkpt lat="47.91974" lon="-3.98297">
        <ele>46.8</ele>
        <time>2022-11-12T11:21:06Z</time>
      </trkpt>
      <trkpt lat="47.91974" lon="-3.98297">
        <ele>46.8</ele>
        <time>2022-11-12T11:21:07Z</time>
      </trkpt>
      <trkpt lat="47.91974" lon="-3.98296">
        <ele>46.7</ele>
        <time>2022-11-12T11:21:08Z</time>
      </trkpt>
      <trkpt lat="47.91974" lon="-3.98295">
        <ele>46.7</ele>
        <time>2022-11-12T11:21:09Z</time>
      </trkpt>
      <trkpt lat="47.91974" lon="-3.98295">
        <ele>46.7</ele>
        <time>2022-11-12T11:21:10Z</time>
      </trkpt>
      <trkpt lat="47.91974" lon="-3.98294">
        <ele>46.6</ele>
        <time>2022-11-12T11:21:11Z</time>
      </trkpt>
      <trkpt lat="47.91975" lon="-3.98293">
        <ele>46.6</ele>
        <time>2022-11-12T11:21:12Z</time>
      </trkpt>
      <trkpt lat="47.91975" lon="-3.98292">
        <ele>46.6</ele>
        <time>2022-11-12T11:21:33Z</time>
      </trkpt>
      <trkpt lat="47.91975" lon="-3.98292">
        <ele>46.5</ele>
        <time>2022-11-12T11:21:34Z</time>
      </trkpt>
      <trkpt lat="47.91975" lon="-3.98291">
        <ele>46.5</ele>
        <time>2022-11-12T11:21:35Z</time>
      </trkpt>
      <trkpt lat="47.91974" lon="-3.98284">
        <ele>46.2</ele>
        <time>2022-11-12T11:21:36Z</time>
      </trkpt>
      <trkpt lat="47.91974" lon="-3.9828">
        <ele>46</ele>
        <time>2022-11-12T11:21:37Z</time>
      </trkpt>
      <trkpt lat="47.91975" lon="-3.98276">
        <ele>45.8</ele>
        <time>2022-11-12T11:21:38Z</time>
      </trkpt>
      <trkpt lat="47.91975" lon="-3.98268">
        <ele>45.4</ele>
        <time>2022-11-12T11:21:39Z</time>
      </trkpt>
      <trkpt lat="47.91973" lon="-3.98261">
        <ele>45.1</ele>
        <time>2022-11-12T11:21:41Z</time>
      </trkpt>
      <trkpt lat="47.91971" lon="-3.98255">
        <ele>44.8</ele>
        <time>2022-11-12T11:21:42Z</time>
      </trkpt>
      <trkpt lat="47.91971" lon="-3.98252">
        <ele>44.6</ele>
        <time>2022-11-12T11:21:43Z</time>
      </trkpt>
      <trkpt lat="47.91972" lon="-3.98247">
        <ele>44.4</ele>
        <time>2022-11-12T11:21:45Z</time>
      </trkpt>
      <trkpt lat="47.91973" lon="-3.98241">
        <ele>44.1</ele>
        <time>2022-11-12T11:21:46Z</time>
      </trkpt>
      <trkpt lat="47.91972" lon="-3.98236">
        <ele>43.8</ele>
        <time>2022-11-12T11:21:47Z</time>
      </trkpt>
      <trkpt lat="47.91971" lon="-3.98231">
        <ele>43.6</ele>
        <time>2022-11-12T11:21:48Z</time>
      </trkpt>
      <trkpt lat="47.91971" lon="-3.98226">
        <ele>43.3</ele>
        <time>2022-11-12T11:21:49Z</time>
      </trkpt>
      <trkpt lat="47.91972" lon="-3.98225">
        <ele>43.2</ele>
        <time>2022-11-12T11:21:50Z</time>
      </trkpt>
      <trkpt lat="47.91971" lon="-3.9822">
        <ele>42.9</ele>
        <time>2022-11-12T11:21:51Z</time>
      </trkpt>
      <trkpt lat="47.9197" lon="-3.98215">
        <ele>42.7</ele>
        <time>2022-11-12T11:21:53Z</time>
      </trkpt>
      <trkpt lat="47.9197" lon="-3.98211">
        <ele>42.4</ele>
        <time>2022-11-12T11:21:54Z</time>
      </trkpt>
      <trkpt lat="47.9197" lon="-3.98205">
        <ele>42.1</ele>
        <time>2022-11-12T11:21:55Z</time>
      </trkpt>
      <trkpt lat="47.91967" lon="-3.98199">
        <ele>41.8</ele>
        <time>2022-11-12T11:21:56Z</time>
      </trkpt>
      <trkpt lat="47.91965" lon="-3.98196">
        <ele>41.6</ele>
        <time>2022-11-12T11:21:57Z</time>
      </trkpt>
      <trkpt lat="47.91963" lon="-3.98192">
        <ele>41.4</ele>
        <time>2022-11-12T11:21:58Z</time>
      </trkpt>
      <trkpt lat="47.91961" lon="-3.98188">
        <ele>41.2</ele>
        <time>2022-11-12T11:21:59Z</time>
      </trkpt>
      <trkpt lat="47.9196" lon="-3.98183">
        <ele>41</ele>
        <time>2022-11-12T11:22:00Z</time>
      </trkpt>
      <trkpt lat="47.91959" lon="-3.98178">
        <ele>40.9</ele>
        <time>2022-11-12T11:22:01Z</time>
      </trkpt>
      <trkpt lat="47.91958" lon="-3.98174">
        <ele>40.7</ele>
        <time>2022-11-12T11:22:02Z</time>
      </trkpt>
      <trkpt lat="47.91956" lon="-3.9817">
        <ele>40.6</ele>
        <time>2022-11-12T11:22:03Z</time>
      </trkpt>
      <trkpt lat="47.91953" lon="-3.98167">
        <ele>40.4</ele>
        <time>2022-11-12T11:22:04Z</time>
      </trkpt>
      <trkpt lat="47.91951" lon="-3.98163">
        <ele>40.3</ele>
        <time>2022-11-12T11:22:05Z</time>
      </trkpt>
      <trkpt lat="47.91949" lon="-3.98159">
        <ele>40.1</ele>
        <time>2022-11-12T11:22:06Z</time>
      </trkpt>
      <trkpt lat="47.91942" lon="-3.98147">
        <ele>39.5</ele>
        <time>2022-11-12T11:22:07Z</time>
      </trkpt>
      <trkpt lat="47.91935" lon="-3.98137">
        <ele>39</ele>
        <time>2022-11-12T11:22:08Z</time>
      </trkpt>
      <trkpt lat="47.91929" lon="-3.98127">
        <ele>38.5</ele>
        <time>2022-11-12T11:22:09Z</time>
      </trkpt>
      <trkpt lat="47.91924" lon="-3.98121">
        <ele>38.1</ele>
        <time>2022-11-12T11:22:10Z</time>
      </trkpt>
      <trkpt lat="47.91919" lon="-3.98118">
        <ele>37.8</ele>
        <time>2022-11-12T11:22:11Z</time>
      </trkpt>
      <trkpt lat="47.91914" lon="-3.98119">
        <ele>37.5</ele>
        <time>2022-11-12T11:22:12Z</time>
      </trkpt>
      <trkpt lat="47.91909" lon="-3.98118">
        <ele>37.3</ele>
        <time>2022-11-12T11:22:13Z</time>
      </trkpt>
      <trkpt lat="47.91905" lon="-3.98116">
        <ele>37.1</ele>
        <time>2022-11-12T11:22:14Z</time>
      </trkpt>
      <trkpt lat="47.919" lon="-3.98115">
        <ele>36.9</ele>
        <time>2022-11-12T11:22:15Z</time>
      </trkpt>
      <trkpt lat="47.91896" lon="-3.98116">
        <ele>36.6</ele>
        <time>2022-11-12T11:22:16Z</time>
      </trkpt>
      <trkpt lat="47.9189" lon="-3.98115">
        <ele>36.4</ele>
        <time>2022-11-12T11:22:17Z</time>
      </trkpt>
      <trkpt lat="47.91884" lon="-3.98114">
        <ele>36.1</ele>
        <time>2022-11-12T11:22:18Z</time>
      </trkpt>
      <trkpt lat="47.91877" lon="-3.98113">
        <ele>35.8</ele>
        <time>2022-11-12T11:22:19Z</time>
      </trkpt>
      <trkpt lat="47.91871" lon="-3.9811">
        <ele>35.5</ele>
        <time>2022-11-12T11:22:20Z</time>
      </trkpt>
      <trkpt lat="47.91865" lon="-3.9811">
        <ele>35.2</ele>
        <time>2022-11-12T11:22:21Z</time>
      </trkpt>
      <trkpt lat="47.91859" lon="-3.98108">
        <ele>34.9</ele>
        <time>2022-11-12T11:22:22Z</time>
      </trkpt>
      <trkpt lat="47.91854" lon="-3.98108">
        <ele>34.7</ele>
        <time>2022-11-12T11:22:23Z</time>
      </trkpt>
      <trkpt lat="47.91849" lon="-3.98107">
        <ele>34.4</ele>
        <time>2022-11-12T11:22:24Z</time>
      </trkpt>
      <trkpt lat="47.91843" lon="-3.98106">
        <ele>34.2</ele>
        <time>2022-11-12T11:22:25Z</time>
      </trkpt>
      <trkpt lat="47.91839" lon="-3.98105">
        <ele>34</ele>
        <time>2022-11-12T11:22:26Z</time>
      </trkpt>
      <trkpt lat="47.91836" lon="-3.98104">
        <ele>33.9</ele>
        <time>2022-11-12T11:22:27Z</time>
      </trkpt>
      <trkpt lat="47.91827" lon="-3.98103">
        <ele>33.5</ele>
        <time>2022-11-12T11:22:29Z</time>
      </trkpt>
      <trkpt lat="47.91823" lon="-3.98102">
        <ele>33.4</ele>
        <time>2022-11-12T11:22:30Z</time>
      </trkpt>
      <trkpt lat="47.91818" lon="-3.98102">
        <ele>33.3</ele>
        <time>2022-11-12T11:22:31Z</time>
      </trkpt>
      <trkpt lat="47.91813" lon="-3.98099">
        <ele>33.1</ele>
        <time>2022-11-12T11:22:32Z</time>
      </trkpt>
      <trkpt lat="47.91807" lon="-3.98097">
        <ele>33</ele>
        <time>2022-11-12T11:22:33Z</time>
      </trkpt>
      <trkpt lat="47.91801" lon="-3.98091">
        <ele>32.8</ele>
        <time>2022-11-12T11:22:35Z</time>
      </trkpt>
      <trkpt lat="47.91795" lon="-3.98087">
        <ele>32.6</ele>
        <time>2022-11-12T11:22:36Z</time>
      </trkpt>
      <trkpt lat="47.91793" lon="-3.98084">
        <ele>32.5</ele>
        <time>2022-11-12T11:22:37Z</time>
      </trkpt>
      <trkpt lat="47.9179" lon="-3.98081">
        <ele>32.4</ele>
        <time>2022-11-12T11:22:38Z</time>
      </trkpt>
      <trkpt lat="47.91787" lon="-3.98077">
        <ele>32.2</ele>
        <time>2022-11-12T11:22:39Z</time>
      </trkpt>
      <trkpt lat="47.91783" lon="-3.98072">
        <ele>32</ele>
        <time>2022-11-12T11:22:40Z</time>
      </trkpt>
      <trkpt lat="47.91781" lon="-3.98065">
        <ele>31.8</ele>
        <time>2022-11-12T11:22:41Z</time>
      </trkpt>
      <trkpt lat="47.9178" lon="-3.9806">
        <ele>31.7</ele>
        <time>2022-11-12T11:22:42Z</time>
      </trkpt>
      <trkpt lat="47.91777" lon="-3.98053">
        <ele>31.4</ele>
        <time>2022-11-12T11:22:43Z</time>
      </trkpt>
      <trkpt lat="47.91774" lon="-3.98047">
        <ele>31.2</ele>
        <time>2022-11-12T11:22:44Z</time>
      </trkpt>
      <trkpt lat="47.91771" lon="-3.98041">
        <ele>30.9</ele>
        <time>2022-11-12T11:22:45Z</time>
      </trkpt>
      <trkpt lat="47.91767" lon="-3.98037">
        <ele>30.7</ele>
        <time>2022-11-12T11:22:46Z</time>
      </trkpt>
      <trkpt lat="47.91763" lon="-3.98035">
        <ele>30.5</ele>
        <time>2022-11-12T11:22:47Z</time>
      </trkpt>
      <trkpt lat="47.9176" lon="-3.98035">
        <ele>30.4</ele>
        <time>2022-11-12T11:22:48Z</time>
      </trkpt>
      <trkpt lat="47.91755" lon="-3.98033">
        <ele>30.1</ele>
        <time>2022-11-12T11:22:49Z</time>
      </trkpt>
      <trkpt lat="47.91751" lon="-3.98033">
        <ele>29.9</ele>
        <time>2022-11-12T11:22:50Z</time>
      </trkpt>
      <trkpt lat="47.91746" lon="-3.98031">
        <ele>29.7</ele>
        <time>2022-11-12T11:22:51Z</time>
      </trkpt>
      <trkpt lat="47.91741" lon="-3.98029">
        <ele>29.4</ele>
        <time>2022-11-12T11:22:52Z</time>
      </trkpt>
      <trkpt lat="47.91737" lon="-3.98028">
        <ele>29.3</ele>
        <time>2022-11-12T11:22:53Z</time>
      </trkpt>
      <trkpt lat="47.91733" lon="-3.98027">
        <ele>29.1</ele>
        <time>2022-11-12T11:22:54Z</time>
      </trkpt>
      <trkpt lat="47.91723" lon="-3.98023">
        <ele>28.6</ele>
        <time>2022-11-12T11:22:56Z</time>
      </trkpt>
      <trkpt lat="47.91721" lon="-3.98022">
        <ele>28.5</ele>
        <time>2022-11-12T11:22:57Z</time>
      </trkpt>
      <trkpt lat="47.91714" lon="-3.98021">
        <ele>28.2</ele>
        <time>2022-11-12T11:22:59Z</time>
      </trkpt>
      <trkpt lat="47.91709" lon="-3.98021">
        <ele>28</ele>
        <time>2022-11-12T11:23:00Z</time>
      </trkpt>
      <trkpt lat="47.91702" lon="-3.98021">
        <ele>27.7</ele>
        <time>2022-11-12T11:23:01Z</time>
      </trkpt>
      <trkpt lat="47.91697" lon="-3.98018">
        <ele>27.5</ele>
        <time>2022-11-12T11:23:02Z</time>
      </trkpt>
      <trkpt lat="47.9169" lon="-3.98018">
        <ele>27.3</ele>
        <time>2022-11-12T11:23:03Z</time>
      </trkpt>
      <trkpt lat="47.91685" lon="-3.98019">
        <ele>27</ele>
        <time>2022-11-12T11:23:04Z</time>
      </trkpt>
      <trkpt lat="47.9168" lon="-3.9802">
        <ele>26.8</ele>
        <time>2022-11-12T11:23:05Z</time>
      </trkpt>
      <trkpt lat="47.91675" lon="-3.98022">
        <ele>26.6</ele>
        <time>2022-11-12T11:23:06Z</time>
      </trkpt>
      <trkpt lat="47.91672" lon="-3.98025">
        <ele>26.4</ele>
        <time>2022-11-12T11:23:07Z</time>
      </trkpt>
      <trkpt lat="47.91665" lon="-3.98029">
        <ele>26.1</ele>
        <time>2022-11-12T11:23:09Z</time>
      </trkpt>
      <trkpt lat="47.91661" lon="-3.98032">
        <ele>26</ele>
        <time>2022-11-12T11:23:10Z</time>
      </trkpt>
      <trkpt lat="47.91657" lon="-3.98035">
        <ele>25.8</ele>
        <time>2022-11-12T11:23:11Z</time>
      </trkpt>
      <trkpt lat="47.9165" lon="-3.98042">
        <ele>25.6</ele>
        <time>2022-11-12T11:23:13Z</time>
      </trkpt>
      <trkpt lat="47.91645" lon="-3.98044">
        <ele>25.4</ele>
        <time>2022-11-12T11:23:14Z</time>
      </trkpt>
      <trkpt lat="47.9164" lon="-3.9805">
        <ele>25.2</ele>
        <time>2022-11-12T11:23:15Z</time>
      </trkpt>
      <trkpt lat="47.91636" lon="-3.98053">
        <ele>25.1</ele>
        <time>2022-11-12T11:23:16Z</time>
      </trkpt>
      <trkpt lat="47.9163" lon="-3.98056">
        <ele>25</ele>
        <time>2022-11-12T11:23:17Z</time>
      </trkpt>
      <trkpt lat="47.91626" lon="-3.98058">
        <ele>24.8</ele>
        <time>2022-11-12T11:23:18Z</time>
      </trkpt>
      <trkpt lat="47.91622" lon="-3.98062">
        <ele>24.7</ele>
        <time>2022-11-12T11:23:19Z</time>
      </trkpt>
      <trkpt lat="47.91618" lon="-3.98069">
        <ele>24.6</ele>
        <time>2022-11-12T11:23:21Z</time>
      </trkpt>
      <trkpt lat="47.91615" lon="-3.98072">
        <ele>24.5</ele>
        <time>2022-11-12T11:23:22Z</time>
      </trkpt>
      <trkpt lat="47.91611" lon="-3.98076">
        <ele>24.5</ele>
        <time>2022-11-12T11:23:23Z</time>
      </trkpt>
      <trkpt lat="47.91606" lon="-3.98083">
        <ele>24.3</ele>
        <time>2022-11-12T11:23:24Z</time>
      </trkpt>
      <trkpt lat="47.91603" lon="-3.98087">
        <ele>24.3</ele>
        <time>2022-11-12T11:23:26Z</time>
      </trkpt>
      <trkpt lat="47.91598" lon="-3.98094">
        <ele>24.2</ele>
        <time>2022-11-12T11:23:27Z</time>
      </trkpt>
      <trkpt lat="47.91595" lon="-3.98099">
        <ele>24.1</ele>
        <time>2022-11-12T11:23:28Z</time>
      </trkpt>
      <trkpt lat="47.91592" lon="-3.98103">
        <ele>24</ele>
        <time>2022-11-12T11:23:30Z</time>
      </trkpt>
      <trkpt lat="47.91587" lon="-3.98107">
        <ele>24</ele>
        <time>2022-11-12T11:23:31Z</time>
      </trkpt>
      <trkpt lat="47.91584" lon="-3.98111">
        <ele>23.9</ele>
        <time>2022-11-12T11:23:32Z</time>
      </trkpt>
      <trkpt lat="47.91579" lon="-3.98114">
        <ele>23.9</ele>
        <time>2022-11-12T11:23:33Z</time>
      </trkpt>
      <trkpt lat="47.91576" lon="-3.98115">
        <ele>23.9</ele>
        <time>2022-11-12T11:23:34Z</time>
      </trkpt>
      <trkpt lat="47.91573" lon="-3.98117">
        <ele>23.9</ele>
        <time>2022-11-12T11:23:35Z</time>
      </trkpt>
      <trkpt lat="47.9157" lon="-3.98118">
        <ele>23.9</ele>
        <time>2022-11-12T11:23:36Z</time>
      </trkpt>
      <trkpt lat="47.91567" lon="-3.9812">
        <ele>24</ele>
        <time>2022-11-12T11:23:37Z</time>
      </trkpt>
      <trkpt lat="47.91563" lon="-3.98123">
        <ele>24.1</ele>
        <time>2022-11-12T11:23:38Z</time>
      </trkpt>
      <trkpt lat="47.91559" lon="-3.98124">
        <ele>24.1</ele>
        <time>2022-11-12T11:23:39Z</time>
      </trkpt>
      <trkpt lat="47.91558" lon="-3.98125">
        <ele>24.2</ele>
        <time>2022-11-12T11:23:40Z</time>
      </trkpt>
      <trkpt lat="47.91555" lon="-3.98127">
        <ele>24.2</ele>
        <time>2022-11-12T11:23:41Z</time>
      </trkpt>
      <trkpt lat="47.91551" lon="-3.9813">
        <ele>24.4</ele>
        <time>2022-11-12T11:23:43Z</time>
      </trkpt>
      <trkpt lat="47.91547" lon="-3.98133">
        <ele>24.5</ele>
        <time>2022-11-12T11:23:44Z</time>
      </trkpt>
      <trkpt lat="47.91544" lon="-3.98135">
        <ele>24.6</ele>
        <time>2022-11-12T11:23:45Z</time>
      </trkpt>
      <trkpt lat="47.91542" lon="-3.98136">
        <ele>24.7</ele>
        <time>2022-11-12T11:23:46Z</time>
      </trkpt>
      <trkpt lat="47.91538" lon="-3.98137">
        <ele>24.8</ele>
        <time>2022-11-12T11:23:47Z</time>
      </trkpt>
      <trkpt lat="47.91537" lon="-3.98137">
        <ele>24.9</ele>
        <time>2022-11-12T11:23:48Z</time>
      </trkpt>
      <trkpt lat="47.91534" lon="-3.98138">
        <ele>25</ele>
        <time>2022-11-12T11:23:49Z</time>
      </trkpt>
      <trkpt lat="47.91529" lon="-3.9814">
        <ele>25.2</ele>
        <time>2022-11-12T11:23:51Z</time>
      </trkpt>
      <trkpt lat="47.91525" lon="-3.98142">
        <ele>25.3</ele>
        <time>2022-11-12T11:23:52Z</time>
      </trkpt>
      <trkpt lat="47.91524" lon="-3.98143">
        <ele>25.4</ele>
        <time>2022-11-12T11:23:53Z</time>
      </trkpt>
      <trkpt lat="47.9152" lon="-3.98144">
        <ele>25.6</ele>
        <time>2022-11-12T11:23:54Z</time>
      </trkpt>
      <trkpt lat="47.91516" lon="-3.98145">
        <ele>25.7</ele>
        <time>2022-11-12T11:23:55Z</time>
      </trkpt>
      <trkpt lat="47.91513" lon="-3.98145">
        <ele>25.8</ele>
        <time>2022-11-12T11:23:56Z</time>
      </trkpt>
      <trkpt lat="47.91509" lon="-3.98146">
        <ele>26</ele>
        <time>2022-11-12T11:23:57Z</time>
      </trkpt>
      <trkpt lat="47.91507" lon="-3.98147">
        <ele>26</ele>
        <time>2022-11-12T11:23:58Z</time>
      </trkpt>
      <trkpt lat="47.91503" lon="-3.98148">
        <ele>26.1</ele>
        <time>2022-11-12T11:23:59Z</time>
      </trkpt>
      <trkpt lat="47.915" lon="-3.98148">
        <ele>26.2</ele>
        <time>2022-11-12T11:24:00Z</time>
      </trkpt>
      <trkpt lat="47.91496" lon="-3.98149">
        <ele>26.4</ele>
        <time>2022-11-12T11:24:01Z</time>
      </trkpt>
      <trkpt lat="47.91494" lon="-3.98149">
        <ele>26.5</ele>
        <time>2022-11-12T11:24:02Z</time>
      </trkpt>
      <trkpt lat="47.91492" lon="-3.9815">
        <ele>26.6</ele>
        <time>2022-11-12T11:24:03Z</time>
      </trkpt>
      <trkpt lat="47.91487" lon="-3.98152">
        <ele>26.8</ele>
        <time>2022-11-12T11:24:05Z</time>
      </trkpt>
      <trkpt lat="47.91484" lon="-3.98153">
        <ele>26.9</ele>
        <time>2022-11-12T11:24:06Z</time>
      </trkpt>
      <trkpt lat="47.9148" lon="-3.98155">
        <ele>27.1</ele>
        <time>2022-11-12T11:24:08Z</time>
      </trkpt>
      <trkpt lat="47.91477" lon="-3.98155">
        <ele>27.3</ele>
        <time>2022-11-12T11:24:09Z</time>
      </trkpt>
      <trkpt lat="47.91473" lon="-3.98157">
        <ele>27.5</ele>
        <time>2022-11-12T11:24:10Z</time>
      </trkpt>
      <trkpt lat="47.9147" lon="-3.98158">
        <ele>27.7</ele>
        <time>2022-11-12T11:24:11Z</time>
      </trkpt>
      <trkpt lat="47.91469" lon="-3.98159">
        <ele>27.8</ele>
        <time>2022-11-12T11:24:12Z</time>
      </trkpt>
      <trkpt lat="47.91466" lon="-3.98162">
        <ele>27.9</ele>
        <time>2022-11-12T11:24:13Z</time>
      </trkpt>
      <trkpt lat="47.91463" lon="-3.98168">
        <ele>28.2</ele>
        <time>2022-11-12T11:24:15Z</time>
      </trkpt>
      <trkpt lat="47.91462" lon="-3.98173">
        <ele>28.4</ele>
        <time>2022-11-12T11:24:16Z</time>
      </trkpt>
      <trkpt lat="47.91462" lon="-3.98181">
        <ele>28.6</ele>
        <time>2022-11-12T11:24:18Z</time>
      </trkpt>
      <trkpt lat="47.91463" lon="-3.98186">
        <ele>28.7</ele>
        <time>2022-11-12T11:24:19Z</time>
      </trkpt>
      <trkpt lat="47.91463" lon="-3.98196">
        <ele>28.8</ele>
        <time>2022-11-12T11:24:20Z</time>
      </trkpt>
      <trkpt lat="47.91463" lon="-3.98202">
        <ele>28.8</ele>
        <time>2022-11-12T11:24:21Z</time>
      </trkpt>
      <trkpt lat="47.91462" lon="-3.98211">
        <ele>28.6</ele>
        <time>2022-11-12T11:24:22Z</time>
      </trkpt>
      <trkpt lat="47.91462" lon="-3.98218">
        <ele>28.3</ele>
        <time>2022-11-12T11:24:23Z</time>
      </trkpt>
      <trkpt lat="47.91462" lon="-3.98224">
        <ele>28.2</ele>
        <time>2022-11-12T11:24:24Z</time>
      </trkpt>
      <trkpt lat="47.91464" lon="-3.98208">
        <ele>27.7</ele>
        <time>2022-11-12T11:24:25Z</time>
      </trkpt>
      <trkpt lat="47.91464" lon="-3.98227">
        <ele>27.4</ele>
        <time>2022-11-12T11:24:26Z</time>
      </trkpt>
      <trkpt lat="47.91464" lon="-3.98236">
        <ele>27.4</ele>
        <time>2022-11-12T11:24:28Z</time>
      </trkpt>
      <trkpt lat="47.91464" lon="-3.98242">
        <ele>27.4</ele>
        <time>2022-11-12T11:24:29Z</time>
      </trkpt>
      <trkpt lat="47.91464" lon="-3.9825">
        <ele>27.5</ele>
        <time>2022-11-12T11:24:30Z</time>
      </trkpt>
      <trkpt lat="47.91464" lon="-3.98255">
        <ele>27.6</ele>
        <time>2022-11-12T11:24:31Z</time>
      </trkpt>
      <trkpt lat="47.91464" lon="-3.9826">
        <ele>27.7</ele>
        <time>2022-11-12T11:24:32Z</time>
      </trkpt>
      <trkpt lat="47.91464" lon="-3.98265">
        <ele>27.8</ele>
        <time>2022-11-12T11:24:33Z</time>
      </trkpt>
      <trkpt lat="47.91463" lon="-3.98269">
        <ele>28</ele>
        <time>2022-11-12T11:24:35Z</time>
      </trkpt>
      <trkpt lat="47.91462" lon="-3.98274">
        <ele>28.1</ele>
        <time>2022-11-12T11:24:36Z</time>
      </trkpt>
      <trkpt lat="47.91462" lon="-3.9828">
        <ele>28.3</ele>
        <time>2022-11-12T11:24:37Z</time>
      </trkpt>
      <trkpt lat="47.91463" lon="-3.98286">
        <ele>28.5</ele>
        <time>2022-11-12T11:24:38Z</time>
      </trkpt>
      <trkpt lat="47.91463" lon="-3.98291">
        <ele>28.6</ele>
        <time>2022-11-12T11:24:39Z</time>
      </trkpt>
      <trkpt lat="47.91463" lon="-3.98295">
        <ele>28.8</ele>
        <time>2022-11-12T11:24:40Z</time>
      </trkpt>
      <trkpt lat="47.91465" lon="-3.983">
        <ele>28.9</ele>
        <time>2022-11-12T11:24:41Z</time>
      </trkpt>
      <trkpt lat="47.91465" lon="-3.98305">
        <ele>29</ele>
        <time>2022-11-12T11:24:43Z</time>
      </trkpt>
      <trkpt lat="47.91463" lon="-3.98308">
        <ele>29.1</ele>
        <time>2022-11-12T11:24:44Z</time>
      </trkpt>
      <trkpt lat="47.9146" lon="-3.98316">
        <ele>29.9</ele>
        <time>2022-11-12T11:24:46Z</time>
      </trkpt>
      <trkpt lat="47.91457" lon="-3.9832">
        <ele>30.2</ele>
        <time>2022-11-12T11:24:47Z</time>
      </trkpt>
      <trkpt lat="47.91456" lon="-3.98324">
        <ele>30.5</ele>
        <time>2022-11-12T11:24:48Z</time>
      </trkpt>
      <trkpt lat="47.91452" lon="-3.98329">
        <ele>31</ele>
        <time>2022-11-12T11:24:50Z</time>
      </trkpt>
      <trkpt lat="47.91449" lon="-3.98332">
        <ele>31.4</ele>
        <time>2022-11-12T11:24:51Z</time>
      </trkpt>
      <trkpt lat="47.91447" lon="-3.98334">
        <ele>31.8</ele>
        <time>2022-11-12T11:24:52Z</time>
      </trkpt>
      <trkpt lat="47.91443" lon="-3.98338">
        <ele>32.4</ele>
        <time>2022-11-12T11:24:53Z</time>
      </trkpt>
      <trkpt lat="47.9144" lon="-3.98341">
        <ele>33</ele>
        <time>2022-11-12T11:24:54Z</time>
      </trkpt>
      <trkpt lat="47.91439" lon="-3.98342">
        <ele>33.2</ele>
        <time>2022-11-12T11:24:55Z</time>
      </trkpt>
      <trkpt lat="47.91435" lon="-3.98347">
        <ele>34</ele>
        <time>2022-11-12T11:24:57Z</time>
      </trkpt>
      <trkpt lat="47.91434" lon="-3.98349">
        <ele>34.3</ele>
        <time>2022-11-12T11:24:58Z</time>
      </trkpt>
      <trkpt lat="47.91433" lon="-3.98351">
        <ele>34.6</ele>
        <time>2022-11-12T11:24:59Z</time>
      </trkpt>
      <trkpt lat="47.91431" lon="-3.98353">
        <ele>35</ele>
        <time>2022-11-12T11:25:00Z</time>
      </trkpt>
      <trkpt lat="47.9143" lon="-3.98354">
        <ele>35.2</ele>
        <time>2022-11-12T11:25:01Z</time>
      </trkpt>
      <trkpt lat="47.91428" lon="-3.98355">
        <ele>35.5</ele>
        <time>2022-11-12T11:25:02Z</time>
      </trkpt>
      <trkpt lat="47.91427" lon="-3.98357">
        <ele>35.8</ele>
        <time>2022-11-12T11:25:03Z</time>
      </trkpt>
      <trkpt lat="47.91425" lon="-3.98361">
        <ele>36.2</ele>
        <time>2022-11-12T11:25:04Z</time>
      </trkpt>
      <trkpt lat="47.91425" lon="-3.98362">
        <ele>36.4</ele>
        <time>2022-11-12T11:25:05Z</time>
      </trkpt>
      <trkpt lat="47.91422" lon="-3.98365">
        <ele>36.9</ele>
        <time>2022-11-12T11:25:06Z</time>
      </trkpt>
      <trkpt lat="47.91421" lon="-3.98365">
        <ele>37.1</ele>
        <time>2022-11-12T11:25:07Z</time>
      </trkpt>
      <trkpt lat="47.91419" lon="-3.98368">
        <ele>37.5</ele>
        <time>2022-11-12T11:25:08Z</time>
      </trkpt>
      <trkpt lat="47.91417" lon="-3.98372">
        <ele>38</ele>
        <time>2022-11-12T11:25:09Z</time>
      </trkpt>
      <trkpt lat="47.91416" lon="-3.98374">
        <ele>38.1</ele>
        <time>2022-11-12T11:25:10Z</time>
      </trkpt>
      <trkpt lat="47.91414" lon="-3.98379">
        <ele>38.7</ele>
        <time>2022-11-12T11:25:11Z</time>
      </trkpt>
      <trkpt lat="47.91413" lon="-3.9838">
        <ele>38.9</ele>
        <time>2022-11-12T11:25:12Z</time>
      </trkpt>
      <trkpt lat="47.9141" lon="-3.98384">
        <ele>39.3</ele>
        <time>2022-11-12T11:25:13Z</time>
      </trkpt>
      <trkpt lat="47.9141" lon="-3.98386">
        <ele>39.5</ele>
        <time>2022-11-12T11:25:14Z</time>
      </trkpt>
      <trkpt lat="47.91408" lon="-3.9839">
        <ele>39.9</ele>
        <time>2022-11-12T11:25:15Z</time>
      </trkpt>
      <trkpt lat="47.91407" lon="-3.98392">
        <ele>40</ele>
        <time>2022-11-12T11:25:16Z</time>
      </trkpt>
      <trkpt lat="47.91405" lon="-3.98396">
        <ele>40.5</ele>
        <time>2022-11-12T11:25:17Z</time>
      </trkpt>
      <trkpt lat="47.91404" lon="-3.98397">
        <ele>40.6</ele>
        <time>2022-11-12T11:25:18Z</time>
      </trkpt>
      <trkpt lat="47.91402" lon="-3.98401">
        <ele>41</ele>
        <time>2022-11-12T11:25:19Z</time>
      </trkpt>
      <trkpt lat="47.91401" lon="-3.98402">
        <ele>41.1</ele>
        <time>2022-11-12T11:25:20Z</time>
      </trkpt>
      <trkpt lat="47.914" lon="-3.98405">
        <ele>41.4</ele>
        <time>2022-11-12T11:25:21Z</time>
      </trkpt>
      <trkpt lat="47.91397" lon="-3.9841">
        <ele>41.8</ele>
        <time>2022-11-12T11:25:22Z</time>
      </trkpt>
      <trkpt lat="47.91397" lon="-3.98411">
        <ele>42</ele>
        <time>2022-11-12T11:25:23Z</time>
      </trkpt>
      <trkpt lat="47.91397" lon="-3.98417">
        <ele>42.3</ele>
        <time>2022-11-12T11:25:24Z</time>
      </trkpt>
      <trkpt lat="47.91398" lon="-3.98419">
        <ele>42.4</ele>
        <time>2022-11-12T11:25:25Z</time>
      </trkpt>
      <trkpt lat="47.914" lon="-3.98421">
        <ele>42.5</ele>
        <time>2022-11-12T11:25:26Z</time>
      </trkpt>
      <trkpt lat="47.91402" lon="-3.98425">
        <ele>42.6</ele>
        <time>2022-11-12T11:25:27Z</time>
      </trkpt>
      <trkpt lat="47.91402" lon="-3.9843">
        <ele>43.1</ele>
        <time>2022-11-12T11:25:28Z</time>
      </trkpt>
      <trkpt lat="47.91401" lon="-3.98433">
        <ele>43.2</ele>
        <time>2022-11-12T11:25:29Z</time>
      </trkpt>
      <trkpt lat="47.91398" lon="-3.98436">
        <ele>43.3</ele>
        <time>2022-11-12T11:25:30Z</time>
      </trkpt>
      <trkpt lat="47.91395" lon="-3.98437">
        <ele>43.5</ele>
        <time>2022-11-12T11:25:31Z</time>
      </trkpt>
      <trkpt lat="47.91391" lon="-3.98436">
        <ele>43.6</ele>
        <time>2022-11-12T11:25:32Z</time>
      </trkpt>
      <trkpt lat="47.91387" lon="-3.98435">
        <ele>43.8</ele>
        <time>2022-11-12T11:25:33Z</time>
      </trkpt>
      <trkpt lat="47.91384" lon="-3.98435">
        <ele>43.9</ele>
        <time>2022-11-12T11:25:34Z</time>
      </trkpt>
      <trkpt lat="47.9138" lon="-3.98436">
        <ele>44.1</ele>
        <time>2022-11-12T11:25:35Z</time>
      </trkpt>
      <trkpt lat="47.91378" lon="-3.98437">
        <ele>44.2</ele>
        <time>2022-11-12T11:25:36Z</time>
      </trkpt>
      <trkpt lat="47.91375" lon="-3.98438">
        <ele>44.3</ele>
        <time>2022-11-12T11:25:37Z</time>
      </trkpt>
      <trkpt lat="47.91371" lon="-3.98439">
        <ele>44.4</ele>
        <time>2022-11-12T11:25:38Z</time>
      </trkpt>
      <trkpt lat="47.91368" lon="-3.98439">
        <ele>44.5</ele>
        <time>2022-11-12T11:25:39Z</time>
      </trkpt>
      <trkpt lat="47.91362" lon="-3.9844">
        <ele>44.7</ele>
        <time>2022-11-12T11:25:41Z</time>
      </trkpt>
      <trkpt lat="47.91355" lon="-3.9844">
        <ele>44.8</ele>
        <time>2022-11-12T11:25:43Z</time>
      </trkpt>
      <trkpt lat="47.91347" lon="-3.98439">
        <ele>44.9</ele>
        <time>2022-11-12T11:25:45Z</time>
      </trkpt>
      <trkpt lat="47.91342" lon="-3.98439">
        <ele>44.9</ele>
        <time>2022-11-12T11:25:46Z</time>
      </trkpt>
      <trkpt lat="47.91338" lon="-3.98439">
        <ele>44.9</ele>
        <time>2022-11-12T11:25:47Z</time>
      </trkpt>
      <trkpt lat="47.91334" lon="-3.9844">
        <ele>44.9</ele>
        <time>2022-11-12T11:25:48Z</time>
      </trkpt>
      <trkpt lat="47.9133" lon="-3.98442">
        <ele>44.9</ele>
        <time>2022-11-12T11:25:49Z</time>
      </trkpt>
      <trkpt lat="47.91321" lon="-3.98446">
        <ele>44.8</ele>
        <time>2022-11-12T11:25:51Z</time>
      </trkpt>
      <trkpt lat="47.91316" lon="-3.9845">
        <ele>44.6</ele>
        <time>2022-11-12T11:25:52Z</time>
      </trkpt>
      <trkpt lat="47.91312" lon="-3.98454">
        <ele>44.4</ele>
        <time>2022-11-12T11:25:53Z</time>
      </trkpt>
      <trkpt lat="47.91307" lon="-3.98457">
        <ele>44.2</ele>
        <time>2022-11-12T11:25:54Z</time>
      </trkpt>
      <trkpt lat="47.91302" lon="-3.9846">
        <ele>43.9</ele>
        <time>2022-11-12T11:25:55Z</time>
      </trkpt>
      <trkpt lat="47.91296" lon="-3.98462">
        <ele>43.5</ele>
        <time>2022-11-12T11:25:56Z</time>
      </trkpt>
      <trkpt lat="47.9129" lon="-3.98461">
        <ele>43.2</ele>
        <time>2022-11-12T11:25:57Z</time>
      </trkpt>
      <trkpt lat="47.91284" lon="-3.98459">
        <ele>42.7</ele>
        <time>2022-11-12T11:25:58Z</time>
      </trkpt>
      <trkpt lat="47.91278" lon="-3.98455">
        <ele>42.2</ele>
        <time>2022-11-12T11:25:59Z</time>
      </trkpt>
      <trkpt lat="47.91271" lon="-3.98452">
        <ele>41.7</ele>
        <time>2022-11-12T11:26:00Z</time>
      </trkpt>
      <trkpt lat="47.91264" lon="-3.98449">
        <ele>41.1</ele>
        <time>2022-11-12T11:26:01Z</time>
      </trkpt>
      <trkpt lat="47.91257" lon="-3.98447">
        <ele>40.5</ele>
        <time>2022-11-12T11:26:02Z</time>
      </trkpt>
      <trkpt lat="47.91249" lon="-3.98444">
        <ele>39.8</ele>
        <time>2022-11-12T11:26:03Z</time>
      </trkpt>
      <trkpt lat="47.9124" lon="-3.98442">
        <ele>39</ele>
        <time>2022-11-12T11:26:04Z</time>
      </trkpt>
      <trkpt lat="47.91232" lon="-3.98439">
        <ele>38.1</ele>
        <time>2022-11-12T11:26:05Z</time>
      </trkpt>
      <trkpt lat="47.91223" lon="-3.98437">
        <ele>37.2</ele>
        <time>2022-11-12T11:26:06Z</time>
      </trkpt>
      <trkpt lat="47.91214" lon="-3.98434">
        <ele>36.3</ele>
        <time>2022-11-12T11:26:07Z</time>
      </trkpt>
      <trkpt lat="47.91204" lon="-3.98432">
        <ele>35.3</ele>
        <time>2022-11-12T11:26:08Z</time>
      </trkpt>
      <trkpt lat="47.91193" lon="-3.9843">
        <ele>34.2</ele>
        <time>2022-11-12T11:26:09Z</time>
      </trkpt>
      <trkpt lat="47.91183" lon="-3.98429">
        <ele>33.3</ele>
        <time>2022-11-12T11:26:10Z</time>
      </trkpt>
      <trkpt lat="47.91172" lon="-3.98428">
        <ele>32.5</ele>
        <time>2022-11-12T11:26:11Z</time>
      </trkpt>
      <trkpt lat="47.91161" lon="-3.98427">
        <ele>32.3</ele>
        <time>2022-11-12T11:26:12Z</time>
      </trkpt>
      <trkpt lat="47.9115" lon="-3.98425">
        <ele>32.5</ele>
        <time>2022-11-12T11:26:13Z</time>
      </trkpt>
      <trkpt lat="47.9114" lon="-3.98423">
        <ele>32.8</ele>
        <time>2022-11-12T11:26:14Z</time>
      </trkpt>
      <trkpt lat="47.91131" lon="-3.98422">
        <ele>33.2</ele>
        <time>2022-11-12T11:26:15Z</time>
      </trkpt>
      <trkpt lat="47.91123" lon="-3.98421">
        <ele>33.6</ele>
        <time>2022-11-12T11:26:16Z</time>
      </trkpt>
      <trkpt lat="47.91116" lon="-3.98419">
        <ele>34</ele>
        <time>2022-11-12T11:26:17Z</time>
      </trkpt>
      <trkpt lat="47.91109" lon="-3.98417">
        <ele>34.4</ele>
        <time>2022-11-12T11:26:18Z</time>
      </trkpt>
      <trkpt lat="47.91103" lon="-3.98415">
        <ele>34.9</ele>
        <time>2022-11-12T11:26:19Z</time>
      </trkpt>
      <trkpt lat="47.91098" lon="-3.98414">
        <ele>35.3</ele>
        <time>2022-11-12T11:26:20Z</time>
      </trkpt>
      <trkpt lat="47.91093" lon="-3.98412">
        <ele>35.7</ele>
        <time>2022-11-12T11:26:21Z</time>
      </trkpt>
      <trkpt lat="47.91088" lon="-3.98411">
        <ele>36.2</ele>
        <time>2022-11-12T11:26:22Z</time>
      </trkpt>
      <trkpt lat="47.91084" lon="-3.9841">
        <ele>36.6</ele>
        <time>2022-11-12T11:26:23Z</time>
      </trkpt>
      <trkpt lat="47.91079" lon="-3.98409">
        <ele>36.9</ele>
        <time>2022-11-12T11:26:24Z</time>
      </trkpt>
      <trkpt lat="47.91075" lon="-3.98408">
        <ele>37.3</ele>
        <time>2022-11-12T11:26:25Z</time>
      </trkpt>
      <trkpt lat="47.91071" lon="-3.98407">
        <ele>37.6</ele>
        <time>2022-11-12T11:26:26Z</time>
      </trkpt>
      <trkpt lat="47.91066" lon="-3.98407">
        <ele>37.9</ele>
        <time>2022-11-12T11:26:27Z</time>
      </trkpt>
      <trkpt lat="47.91062" lon="-3.98406">
        <ele>38.2</ele>
        <time>2022-11-12T11:26:28Z</time>
      </trkpt>
      <trkpt lat="47.91057" lon="-3.98405">
        <ele>38.5</ele>
        <time>2022-11-12T11:26:29Z</time>
      </trkpt>
      <trkpt lat="47.91053" lon="-3.98405">
        <ele>38.7</ele>
        <time>2022-11-12T11:26:30Z</time>
      </trkpt>
      <trkpt lat="47.91048" lon="-3.98404">
        <ele>39</ele>
        <time>2022-11-12T11:26:31Z</time>
      </trkpt>
      <trkpt lat="47.91044" lon="-3.98405">
        <ele>39.3</ele>
        <time>2022-11-12T11:26:32Z</time>
      </trkpt>
      <trkpt lat="47.91037" lon="-3.98406">
        <ele>39.4</ele>
        <time>2022-11-12T11:26:34Z</time>
      </trkpt>
      <trkpt lat="47.91035" lon="-3.98409">
        <ele>39.5</ele>
        <time>2022-11-12T11:26:35Z</time>
      </trkpt>
      <trkpt lat="47.91033" lon="-3.98412">
        <ele>39.5</ele>
        <time>2022-11-12T11:26:36Z</time>
      </trkpt>
      <trkpt lat="47.91028" lon="-3.98412">
        <ele>39.5</ele>
        <time>2022-11-12T11:26:37Z</time>
      </trkpt>
      <trkpt lat="47.91025" lon="-3.98409">
        <ele>39.4</ele>
        <time>2022-11-12T11:26:38Z</time>
      </trkpt>
      <trkpt lat="47.91022" lon="-3.98404">
        <ele>39.4</ele>
        <time>2022-11-12T11:26:39Z</time>
      </trkpt>
      <trkpt lat="47.9102" lon="-3.98399">
        <ele>39.3</ele>
        <time>2022-11-12T11:26:40Z</time>
      </trkpt>
      <trkpt lat="47.91017" lon="-3.98391">
        <ele>39.2</ele>
        <time>2022-11-12T11:26:41Z</time>
      </trkpt>
      <trkpt lat="47.91014" lon="-3.98385">
        <ele>39.1</ele>
        <time>2022-11-12T11:26:42Z</time>
      </trkpt>
      <trkpt lat="47.9101" lon="-3.98379">
        <ele>39</ele>
        <time>2022-11-12T11:26:43Z</time>
      </trkpt>
      <trkpt lat="47.91006" lon="-3.98373">
        <ele>38.9</ele>
        <time>2022-11-12T11:26:44Z</time>
      </trkpt>
      <trkpt lat="47.91002" lon="-3.98367">
        <ele>38.8</ele>
        <time>2022-11-12T11:26:45Z</time>
      </trkpt>
      <trkpt lat="47.90998" lon="-3.98361">
        <ele>38.7</ele>
        <time>2022-11-12T11:26:46Z</time>
      </trkpt>
      <trkpt lat="47.90993" lon="-3.98355">
        <ele>38.5</ele>
        <time>2022-11-12T11:26:47Z</time>
      </trkpt>
      <trkpt lat="47.90989" lon="-3.9835">
        <ele>38.4</ele>
        <time>2022-11-12T11:26:48Z</time>
      </trkpt>
      <trkpt lat="47.90984" lon="-3.98344">
        <ele>38.2</ele>
        <time>2022-11-12T11:26:49Z</time>
      </trkpt>
      <trkpt lat="47.9098" lon="-3.98339">
        <ele>38</ele>
        <time>2022-11-12T11:26:50Z</time>
      </trkpt>
      <trkpt lat="47.90975" lon="-3.98333">
        <ele>37.8</ele>
        <time>2022-11-12T11:26:51Z</time>
      </trkpt>
      <trkpt lat="47.9097" lon="-3.98328">
        <ele>37.6</ele>
        <time>2022-11-12T11:26:52Z</time>
      </trkpt>
      <trkpt lat="47.90964" lon="-3.98323">
        <ele>37.4</ele>
        <time>2022-11-12T11:26:53Z</time>
      </trkpt>
      <trkpt lat="47.90959" lon="-3.98318">
        <ele>37.2</ele>
        <time>2022-11-12T11:26:54Z</time>
      </trkpt>
      <trkpt lat="47.90952" lon="-3.98314">
        <ele>36.9</ele>
        <time>2022-11-12T11:26:55Z</time>
      </trkpt>
      <trkpt lat="47.90946" lon="-3.98311">
        <ele>36.6</ele>
        <time>2022-11-12T11:26:56Z</time>
      </trkpt>
      <trkpt lat="47.90939" lon="-3.98307">
        <ele>36.3</ele>
        <time>2022-11-12T11:26:57Z</time>
      </trkpt>
      <trkpt lat="47.90932" lon="-3.98303">
        <ele>36</ele>
        <time>2022-11-12T11:26:58Z</time>
      </trkpt>
      <trkpt lat="47.90926" lon="-3.98299">
        <ele>35.7</ele>
        <time>2022-11-12T11:26:59Z</time>
      </trkpt>
      <trkpt lat="47.90919" lon="-3.98294">
        <ele>35.4</ele>
        <time>2022-11-12T11:27:00Z</time>
      </trkpt>
      <trkpt lat="47.90912" lon="-3.9829">
        <ele>35.2</ele>
        <time>2022-11-12T11:27:01Z</time>
      </trkpt>
      <trkpt lat="47.90905" lon="-3.98285">
        <ele>34.9</ele>
        <time>2022-11-12T11:27:02Z</time>
      </trkpt>
      <trkpt lat="47.909" lon="-3.98277">
        <ele>34.6</ele>
        <time>2022-11-12T11:27:03Z</time>
      </trkpt>
      <trkpt lat="47.90896" lon="-3.98268">
        <ele>34.4</ele>
        <time>2022-11-12T11:27:04Z</time>
      </trkpt>
      <trkpt lat="47.90893" lon="-3.98258">
        <ele>34.1</ele>
        <time>2022-11-12T11:27:05Z</time>
      </trkpt>
      <trkpt lat="47.90892" lon="-3.98247">
        <ele>33.9</ele>
        <time>2022-11-12T11:27:06Z</time>
      </trkpt>
      <trkpt lat="47.90892" lon="-3.98236">
        <ele>33.6</ele>
        <time>2022-11-12T11:27:07Z</time>
      </trkpt>
      <trkpt lat="47.90893" lon="-3.98225">
        <ele>33.4</ele>
        <time>2022-11-12T11:27:08Z</time>
      </trkpt>
      <trkpt lat="47.90895" lon="-3.98216">
        <ele>33.2</ele>
        <time>2022-11-12T11:27:09Z</time>
      </trkpt>
      <trkpt lat="47.90898" lon="-3.98206">
        <ele>33</ele>
        <time>2022-11-12T11:27:10Z</time>
      </trkpt>
      <trkpt lat="47.90901" lon="-3.98197">
        <ele>32.9</ele>
        <time>2022-11-12T11:27:11Z</time>
      </trkpt>
      <trkpt lat="47.90901" lon="-3.98188">
        <ele>32.7</ele>
        <time>2022-11-12T11:27:12Z</time>
      </trkpt>
      <trkpt lat="47.90899" lon="-3.98179">
        <ele>32.5</ele>
        <time>2022-11-12T11:27:13Z</time>
      </trkpt>
      <trkpt lat="47.90895" lon="-3.98171">
        <ele>31.9</ele>
        <time>2022-11-12T11:27:14Z</time>
      </trkpt>
      <trkpt lat="47.90889" lon="-3.98164">
        <ele>31.4</ele>
        <time>2022-11-12T11:27:15Z</time>
      </trkpt>
      <trkpt lat="47.90882" lon="-3.9816">
        <ele>30.8</ele>
        <time>2022-11-12T11:27:16Z</time>
      </trkpt>
      <trkpt lat="47.90875" lon="-3.98157">
        <ele>30.2</ele>
        <time>2022-11-12T11:27:17Z</time>
      </trkpt>
      <trkpt lat="47.90868" lon="-3.98153">
        <ele>29.6</ele>
        <time>2022-11-12T11:27:18Z</time>
      </trkpt>
      <trkpt lat="47.90861" lon="-3.98149">
        <ele>29</ele>
        <time>2022-11-12T11:27:19Z</time>
      </trkpt>
      <trkpt lat="47.90854" lon="-3.98146">
        <ele>28.5</ele>
        <time>2022-11-12T11:27:20Z</time>
      </trkpt>
      <trkpt lat="47.90848" lon="-3.98143">
        <ele>28</ele>
        <time>2022-11-12T11:27:21Z</time>
      </trkpt>
      <trkpt lat="47.90843" lon="-3.98138">
        <ele>27.5</ele>
        <time>2022-11-12T11:27:22Z</time>
      </trkpt>
      <trkpt lat="47.9084" lon="-3.98132">
        <ele>27.2</ele>
        <time>2022-11-12T11:27:23Z</time>
      </trkpt>
      <trkpt lat="47.90839" lon="-3.98126">
        <ele>26.8</ele>
        <time>2022-11-12T11:27:24Z</time>
      </trkpt>
      <trkpt lat="47.90837" lon="-3.98122">
        <ele>26.3</ele>
        <time>2022-11-12T11:27:25Z</time>
      </trkpt>
      <trkpt lat="47.90835" lon="-3.98121">
        <ele>25.9</ele>
        <time>2022-11-12T11:27:26Z</time>
      </trkpt>
      <trkpt lat="47.90831" lon="-3.98121">
        <ele>25.5</ele>
        <time>2022-11-12T11:27:27Z</time>
      </trkpt>
      <trkpt lat="47.9083" lon="-3.98122">
        <ele>25.3</ele>
        <time>2022-11-12T11:27:28Z</time>
      </trkpt>
      <trkpt lat="47.90828" lon="-3.98125">
        <ele>24.8</ele>
        <time>2022-11-12T11:27:29Z</time>
      </trkpt>
      <trkpt lat="47.90825" lon="-3.98129">
        <ele>24.5</ele>
        <time>2022-11-12T11:27:30Z</time>
      </trkpt>
      <trkpt lat="47.90823" lon="-3.98134">
        <ele>24.5</ele>
        <time>2022-11-12T11:27:31Z</time>
      </trkpt>
      <trkpt lat="47.90822" lon="-3.98146">
        <ele>24.7</ele>
        <time>2022-11-12T11:27:33Z</time>
      </trkpt>
      <trkpt lat="47.9082" lon="-3.98153">
        <ele>24.7</ele>
        <time>2022-11-12T11:27:34Z</time>
      </trkpt>
      <trkpt lat="47.90818" lon="-3.98158">
        <ele>24.8</ele>
        <time>2022-11-12T11:27:35Z</time>
      </trkpt>
      <trkpt lat="47.90815" lon="-3.9816">
        <ele>24.9</ele>
        <time>2022-11-12T11:27:36Z</time>
      </trkpt>
      <trkpt lat="47.90814" lon="-3.98162">
        <ele>24.9</ele>
        <time>2022-11-12T11:27:37Z</time>
      </trkpt>
      <trkpt lat="47.90809" lon="-3.98161">
        <ele>25</ele>
        <time>2022-11-12T11:27:38Z</time>
      </trkpt>
      <trkpt lat="47.90806" lon="-3.98163">
        <ele>25</ele>
        <time>2022-11-12T11:27:39Z</time>
      </trkpt>
      <trkpt lat="47.90805" lon="-3.98169">
        <ele>25.1</ele>
        <time>2022-11-12T11:27:40Z</time>
      </trkpt>
      <trkpt lat="47.90804" lon="-3.98173">
        <ele>25.1</ele>
        <time>2022-11-12T11:27:41Z</time>
      </trkpt>
      <trkpt lat="47.90803" lon="-3.98173">
        <ele>25.1</ele>
        <time>2022-11-12T11:27:42Z</time>
      </trkpt>
      <trkpt lat="47.90803" lon="-3.98172">
        <ele>25.1</ele>
        <time>2022-11-12T11:27:44Z</time>
      </trkpt>
      <trkpt lat="47.90803" lon="-3.98172">
        <ele>25.1</ele>
        <time>2022-11-12T11:27:45Z</time>
      </trkpt>
    </trkseg>
  </trk>
</gpx>